<?xml version="1.0" encoding="UTF-8" standalone="no" ?>
<gpx xmlns="http://www.topografix.com/GPX/1/1" xmlns:xsi="http://www.w3.org/2001/XMLSchema-instance" xsi:schemaLocation="http://www.topografix.com/GPX/1/1 http://www.topografix.com/GPX/1/1/gpx.xsd" version="1.1" creator="VisuGPX - https://www.visugpx.com">
  <metadata>
    <name>La Gardonnette 2025</name>
  </metadata>
  <trk>
    <name><![CDATA[La Gardonnette 2025_1]]></name>
    <trkseg>
      <trkpt lat="44.7832" lon="0.44827">
        <ele>150.8</ele>
        <time>2025-07-14T06:16:09Z</time>
      </trkpt>
      <trkpt lat="44.78319" lon="0.44832">
        <ele>150.8</ele>
        <time>2025-07-14T06:16:10Z</time>
      </trkpt>
      <trkpt lat="44.78318" lon="0.44836">
        <ele>150.8</ele>
        <time>2025-07-14T06:16:11Z</time>
      </trkpt>
      <trkpt lat="44.78317" lon="0.44839">
        <ele>150.8</ele>
        <time>2025-07-14T06:16:12Z</time>
      </trkpt>
      <trkpt lat="44.78316" lon="0.44843">
        <ele>151</ele>
        <time>2025-07-14T06:16:13Z</time>
      </trkpt>
      <trkpt lat="44.78315" lon="0.44847">
        <ele>151</ele>
        <time>2025-07-14T06:16:14Z</time>
      </trkpt>
      <trkpt lat="44.78314" lon="0.4485">
        <ele>151</ele>
        <time>2025-07-14T06:16:15Z</time>
      </trkpt>
      <trkpt lat="44.78313" lon="0.44853">
        <ele>151</ele>
        <time>2025-07-14T06:16:16Z</time>
      </trkpt>
      <trkpt lat="44.78311" lon="0.44857">
        <ele>150.8</ele>
        <time>2025-07-14T06:16:17Z</time>
      </trkpt>
      <trkpt lat="44.7831" lon="0.44861">
        <ele>150.8</ele>
        <time>2025-07-14T06:16:18Z</time>
      </trkpt>
      <trkpt lat="44.78309" lon="0.44866">
        <ele>150.8</ele>
        <time>2025-07-14T06:16:19Z</time>
      </trkpt>
      <trkpt lat="44.78309" lon="0.4487">
        <ele>150.8</ele>
        <time>2025-07-14T06:16:20Z</time>
      </trkpt>
      <trkpt lat="44.78307" lon="0.44874">
        <ele>150.8</ele>
        <time>2025-07-14T06:16:21Z</time>
      </trkpt>
      <trkpt lat="44.78306" lon="0.44878">
        <ele>151</ele>
        <time>2025-07-14T06:16:22Z</time>
      </trkpt>
      <trkpt lat="44.78305" lon="0.44883">
        <ele>151</ele>
        <time>2025-07-14T06:16:23Z</time>
      </trkpt>
      <trkpt lat="44.78303" lon="0.44888">
        <ele>151</ele>
        <time>2025-07-14T06:16:24Z</time>
      </trkpt>
      <trkpt lat="44.78301" lon="0.44892">
        <ele>151</ele>
        <time>2025-07-14T06:16:25Z</time>
      </trkpt>
      <trkpt lat="44.783" lon="0.44896">
        <ele>151</ele>
        <time>2025-07-14T06:16:26Z</time>
      </trkpt>
      <trkpt lat="44.78298" lon="0.44901">
        <ele>151</ele>
        <time>2025-07-14T06:16:27Z</time>
      </trkpt>
      <trkpt lat="44.78297" lon="0.44905">
        <ele>151</ele>
        <time>2025-07-14T06:16:28Z</time>
      </trkpt>
      <trkpt lat="44.78295" lon="0.44909">
        <ele>151</ele>
        <time>2025-07-14T06:16:29Z</time>
      </trkpt>
      <trkpt lat="44.78294" lon="0.44914">
        <ele>150.8</ele>
        <time>2025-07-14T06:16:30Z</time>
      </trkpt>
      <trkpt lat="44.78293" lon="0.44919">
        <ele>150.8</ele>
        <time>2025-07-14T06:16:31Z</time>
      </trkpt>
      <trkpt lat="44.78291" lon="0.44923">
        <ele>150.8</ele>
        <time>2025-07-14T06:16:32Z</time>
      </trkpt>
      <trkpt lat="44.7829" lon="0.44928">
        <ele>150.6</ele>
        <time>2025-07-14T06:16:33Z</time>
      </trkpt>
      <trkpt lat="44.78288" lon="0.44932">
        <ele>150.6</ele>
        <time>2025-07-14T06:16:34Z</time>
      </trkpt>
      <trkpt lat="44.78287" lon="0.44937">
        <ele>150.6</ele>
        <time>2025-07-14T06:16:35Z</time>
      </trkpt>
      <trkpt lat="44.78286" lon="0.44941">
        <ele>150.6</ele>
        <time>2025-07-14T06:16:36Z</time>
      </trkpt>
      <trkpt lat="44.78284" lon="0.44946">
        <ele>150.6</ele>
        <time>2025-07-14T06:16:37Z</time>
      </trkpt>
      <trkpt lat="44.78283" lon="0.44951">
        <ele>150.6</ele>
        <time>2025-07-14T06:16:38Z</time>
      </trkpt>
      <trkpt lat="44.78281" lon="0.44956">
        <ele>150.6</ele>
        <time>2025-07-14T06:16:39Z</time>
      </trkpt>
      <trkpt lat="44.7828" lon="0.44961">
        <ele>150.4</ele>
        <time>2025-07-14T06:16:40Z</time>
      </trkpt>
      <trkpt lat="44.78278" lon="0.44966">
        <ele>150.4</ele>
        <time>2025-07-14T06:16:41Z</time>
      </trkpt>
      <trkpt lat="44.78277" lon="0.44971">
        <ele>150.2</ele>
        <time>2025-07-14T06:16:42Z</time>
      </trkpt>
      <trkpt lat="44.78275" lon="0.44977">
        <ele>150</ele>
        <time>2025-07-14T06:16:43Z</time>
      </trkpt>
      <trkpt lat="44.78274" lon="0.44981">
        <ele>149.8</ele>
        <time>2025-07-14T06:16:44Z</time>
      </trkpt>
      <trkpt lat="44.78272" lon="0.44985">
        <ele>149.6</ele>
        <time>2025-07-14T06:16:45Z</time>
      </trkpt>
      <trkpt lat="44.7827" lon="0.44987">
        <ele>149.6</ele>
        <time>2025-07-14T06:16:46Z</time>
      </trkpt>
      <trkpt lat="44.78267" lon="0.4499">
        <ele>149.4</ele>
        <time>2025-07-14T06:16:47Z</time>
      </trkpt>
      <trkpt lat="44.78264" lon="0.44992">
        <ele>149.4</ele>
        <time>2025-07-14T06:16:48Z</time>
      </trkpt>
      <trkpt lat="44.78261" lon="0.44993">
        <ele>149.2</ele>
        <time>2025-07-14T06:16:49Z</time>
      </trkpt>
      <trkpt lat="44.78257" lon="0.44992">
        <ele>149</ele>
        <time>2025-07-14T06:16:50Z</time>
      </trkpt>
      <trkpt lat="44.78254" lon="0.4499">
        <ele>148.8</ele>
        <time>2025-07-14T06:16:51Z</time>
      </trkpt>
      <trkpt lat="44.78251" lon="0.44988">
        <ele>148.6</ele>
        <time>2025-07-14T06:16:52Z</time>
      </trkpt>
      <trkpt lat="44.78247" lon="0.44986">
        <ele>148.4</ele>
        <time>2025-07-14T06:16:53Z</time>
      </trkpt>
      <trkpt lat="44.78244" lon="0.44983">
        <ele>148.2</ele>
        <time>2025-07-14T06:16:54Z</time>
      </trkpt>
      <trkpt lat="44.7824" lon="0.4498">
        <ele>148</ele>
        <time>2025-07-14T06:16:55Z</time>
      </trkpt>
      <trkpt lat="44.78236" lon="0.44981">
        <ele>147.8</ele>
        <time>2025-07-14T06:16:56Z</time>
      </trkpt>
      <trkpt lat="44.78234" lon="0.44984">
        <ele>147.4</ele>
        <time>2025-07-14T06:16:57Z</time>
      </trkpt>
      <trkpt lat="44.78232" lon="0.44989">
        <ele>147.2</ele>
        <time>2025-07-14T06:16:58Z</time>
      </trkpt>
      <trkpt lat="44.78228" lon="0.44991">
        <ele>147</ele>
        <time>2025-07-14T06:16:59Z</time>
      </trkpt>
      <trkpt lat="44.78224" lon="0.44991">
        <ele>146.8</ele>
        <time>2025-07-14T06:17:00Z</time>
      </trkpt>
      <trkpt lat="44.7822" lon="0.4499">
        <ele>146.6</ele>
        <time>2025-07-14T06:17:01Z</time>
      </trkpt>
      <trkpt lat="44.78217" lon="0.44988">
        <ele>146.2</ele>
        <time>2025-07-14T06:17:02Z</time>
      </trkpt>
      <trkpt lat="44.78213" lon="0.44986">
        <ele>146</ele>
        <time>2025-07-14T06:17:03Z</time>
      </trkpt>
      <trkpt lat="44.78211" lon="0.44983">
        <ele>145.8</ele>
        <time>2025-07-14T06:17:04Z</time>
      </trkpt>
      <trkpt lat="44.7821" lon="0.44979">
        <ele>145.8</ele>
        <time>2025-07-14T06:17:05Z</time>
      </trkpt>
      <trkpt lat="44.78209" lon="0.44975">
        <ele>145.6</ele>
        <time>2025-07-14T06:17:06Z</time>
      </trkpt>
      <trkpt lat="44.78209" lon="0.44971">
        <ele>145.6</ele>
        <time>2025-07-14T06:17:07Z</time>
      </trkpt>
      <trkpt lat="44.7821" lon="0.44967">
        <ele>145.6</ele>
        <time>2025-07-14T06:17:08Z</time>
      </trkpt>
      <trkpt lat="44.78211" lon="0.44963">
        <ele>145.6</ele>
        <time>2025-07-14T06:17:09Z</time>
      </trkpt>
      <trkpt lat="44.78212" lon="0.44958">
        <ele>145.6</ele>
        <time>2025-07-14T06:17:10Z</time>
      </trkpt>
      <trkpt lat="44.78214" lon="0.44954">
        <ele>145.6</ele>
        <time>2025-07-14T06:17:11Z</time>
      </trkpt>
      <trkpt lat="44.78215" lon="0.4495">
        <ele>145.8</ele>
        <time>2025-07-14T06:17:12Z</time>
      </trkpt>
      <trkpt lat="44.78217" lon="0.44947">
        <ele>145.8</ele>
        <time>2025-07-14T06:17:13Z</time>
      </trkpt>
      <trkpt lat="44.78218" lon="0.44943">
        <ele>146</ele>
        <time>2025-07-14T06:17:14Z</time>
      </trkpt>
      <trkpt lat="44.7822" lon="0.44939">
        <ele>146.2</ele>
        <time>2025-07-14T06:17:15Z</time>
      </trkpt>
      <trkpt lat="44.78221" lon="0.44935">
        <ele>146.2</ele>
        <time>2025-07-14T06:17:16Z</time>
      </trkpt>
      <trkpt lat="44.78222" lon="0.44931">
        <ele>146.4</ele>
        <time>2025-07-14T06:17:17Z</time>
      </trkpt>
      <trkpt lat="44.78223" lon="0.44928">
        <ele>146.6</ele>
        <time>2025-07-14T06:17:18Z</time>
      </trkpt>
      <trkpt lat="44.78224" lon="0.44924">
        <ele>146.6</ele>
        <time>2025-07-14T06:17:19Z</time>
      </trkpt>
      <trkpt lat="44.78226" lon="0.44921">
        <ele>146.8</ele>
        <time>2025-07-14T06:17:20Z</time>
      </trkpt>
      <trkpt lat="44.78226" lon="0.44917">
        <ele>147</ele>
        <time>2025-07-14T06:17:21Z</time>
      </trkpt>
      <trkpt lat="44.78227" lon="0.44913">
        <ele>147.2</ele>
        <time>2025-07-14T06:17:22Z</time>
      </trkpt>
      <trkpt lat="44.78228" lon="0.44909">
        <ele>147.4</ele>
        <time>2025-07-14T06:17:23Z</time>
      </trkpt>
      <trkpt lat="44.78229" lon="0.44905">
        <ele>147.4</ele>
        <time>2025-07-14T06:17:24Z</time>
      </trkpt>
      <trkpt lat="44.78231" lon="0.44901">
        <ele>147.6</ele>
        <time>2025-07-14T06:17:25Z</time>
      </trkpt>
      <trkpt lat="44.78232" lon="0.44898">
        <ele>147.6</ele>
        <time>2025-07-14T06:17:26Z</time>
      </trkpt>
      <trkpt lat="44.78233" lon="0.44894">
        <ele>147.8</ele>
        <time>2025-07-14T06:17:27Z</time>
      </trkpt>
      <trkpt lat="44.78234" lon="0.4489">
        <ele>148</ele>
        <time>2025-07-14T06:17:28Z</time>
      </trkpt>
      <trkpt lat="44.78235" lon="0.44885">
        <ele>148</ele>
        <time>2025-07-14T06:17:29Z</time>
      </trkpt>
      <trkpt lat="44.78236" lon="0.44881">
        <ele>148.2</ele>
        <time>2025-07-14T06:17:30Z</time>
      </trkpt>
      <trkpt lat="44.78238" lon="0.44877">
        <ele>148.2</ele>
        <time>2025-07-14T06:17:31Z</time>
      </trkpt>
      <trkpt lat="44.78239" lon="0.44874">
        <ele>148.2</ele>
        <time>2025-07-14T06:17:32Z</time>
      </trkpt>
      <trkpt lat="44.7824" lon="0.4487">
        <ele>148.4</ele>
        <time>2025-07-14T06:17:33Z</time>
      </trkpt>
      <trkpt lat="44.78242" lon="0.44866">
        <ele>148.4</ele>
        <time>2025-07-14T06:17:34Z</time>
      </trkpt>
      <trkpt lat="44.78243" lon="0.44862">
        <ele>148.6</ele>
        <time>2025-07-14T06:17:35Z</time>
      </trkpt>
      <trkpt lat="44.78244" lon="0.44858">
        <ele>148.6</ele>
        <time>2025-07-14T06:17:36Z</time>
      </trkpt>
      <trkpt lat="44.78245" lon="0.44854">
        <ele>148.8</ele>
        <time>2025-07-14T06:17:37Z</time>
      </trkpt>
      <trkpt lat="44.78247" lon="0.44849">
        <ele>148.8</ele>
        <time>2025-07-14T06:17:38Z</time>
      </trkpt>
      <trkpt lat="44.78248" lon="0.44845">
        <ele>149</ele>
        <time>2025-07-14T06:17:39Z</time>
      </trkpt>
      <trkpt lat="44.7825" lon="0.44841">
        <ele>149</ele>
        <time>2025-07-14T06:17:40Z</time>
      </trkpt>
      <trkpt lat="44.78251" lon="0.44837">
        <ele>149</ele>
        <time>2025-07-14T06:17:41Z</time>
      </trkpt>
      <trkpt lat="44.78253" lon="0.44833">
        <ele>149</ele>
        <time>2025-07-14T06:17:42Z</time>
      </trkpt>
      <trkpt lat="44.78254" lon="0.44828">
        <ele>149.2</ele>
        <time>2025-07-14T06:17:43Z</time>
      </trkpt>
      <trkpt lat="44.78255" lon="0.44824">
        <ele>149.2</ele>
        <time>2025-07-14T06:17:44Z</time>
      </trkpt>
      <trkpt lat="44.78256" lon="0.4482">
        <ele>149.2</ele>
        <time>2025-07-14T06:17:45Z</time>
      </trkpt>
      <trkpt lat="44.78258" lon="0.44815">
        <ele>149.2</ele>
        <time>2025-07-14T06:17:46Z</time>
      </trkpt>
      <trkpt lat="44.7826" lon="0.44811">
        <ele>149.2</ele>
        <time>2025-07-14T06:17:47Z</time>
      </trkpt>
      <trkpt lat="44.78261" lon="0.44807">
        <ele>149.2</ele>
        <time>2025-07-14T06:17:48Z</time>
      </trkpt>
      <trkpt lat="44.78263" lon="0.44802">
        <ele>149.2</ele>
        <time>2025-07-14T06:17:49Z</time>
      </trkpt>
      <trkpt lat="44.78264" lon="0.44798">
        <ele>149.2</ele>
        <time>2025-07-14T06:17:50Z</time>
      </trkpt>
      <trkpt lat="44.78266" lon="0.44792">
        <ele>149</ele>
        <time>2025-07-14T06:17:51Z</time>
      </trkpt>
      <trkpt lat="44.78267" lon="0.44788">
        <ele>149</ele>
        <time>2025-07-14T06:17:52Z</time>
      </trkpt>
      <trkpt lat="44.78269" lon="0.44783">
        <ele>149</ele>
        <time>2025-07-14T06:17:53Z</time>
      </trkpt>
      <trkpt lat="44.7827" lon="0.44778">
        <ele>149</ele>
        <time>2025-07-14T06:17:54Z</time>
      </trkpt>
      <trkpt lat="44.78271" lon="0.44772">
        <ele>149</ele>
        <time>2025-07-14T06:17:55Z</time>
      </trkpt>
      <trkpt lat="44.78273" lon="0.44767">
        <ele>149</ele>
        <time>2025-07-14T06:17:56Z</time>
      </trkpt>
      <trkpt lat="44.78274" lon="0.44761">
        <ele>149</ele>
        <time>2025-07-14T06:17:57Z</time>
      </trkpt>
      <trkpt lat="44.78276" lon="0.44757">
        <ele>149</ele>
        <time>2025-07-14T06:17:58Z</time>
      </trkpt>
      <trkpt lat="44.78279" lon="0.44752">
        <ele>149</ele>
        <time>2025-07-14T06:17:59Z</time>
      </trkpt>
      <trkpt lat="44.78281" lon="0.44748">
        <ele>149</ele>
        <time>2025-07-14T06:18:00Z</time>
      </trkpt>
      <trkpt lat="44.78284" lon="0.44744">
        <ele>148.8</ele>
        <time>2025-07-14T06:18:01Z</time>
      </trkpt>
      <trkpt lat="44.78286" lon="0.4474">
        <ele>148.8</ele>
        <time>2025-07-14T06:18:02Z</time>
      </trkpt>
      <trkpt lat="44.78288" lon="0.44736">
        <ele>148.8</ele>
        <time>2025-07-14T06:18:03Z</time>
      </trkpt>
      <trkpt lat="44.7829" lon="0.44732">
        <ele>149</ele>
        <time>2025-07-14T06:18:04Z</time>
      </trkpt>
      <trkpt lat="44.78293" lon="0.44729">
        <ele>149</ele>
        <time>2025-07-14T06:18:05Z</time>
      </trkpt>
      <trkpt lat="44.78295" lon="0.44725">
        <ele>149</ele>
        <time>2025-07-14T06:18:06Z</time>
      </trkpt>
      <trkpt lat="44.78298" lon="0.44722">
        <ele>149</ele>
        <time>2025-07-14T06:18:07Z</time>
      </trkpt>
      <trkpt lat="44.783" lon="0.44719">
        <ele>149</ele>
        <time>2025-07-14T06:18:08Z</time>
      </trkpt>
      <trkpt lat="44.78302" lon="0.44716">
        <ele>149.2</ele>
        <time>2025-07-14T06:18:09Z</time>
      </trkpt>
      <trkpt lat="44.78305" lon="0.44713">
        <ele>149.2</ele>
        <time>2025-07-14T06:18:10Z</time>
      </trkpt>
      <trkpt lat="44.78308" lon="0.4471">
        <ele>149.2</ele>
        <time>2025-07-14T06:18:11Z</time>
      </trkpt>
      <trkpt lat="44.78311" lon="0.44707">
        <ele>149.2</ele>
        <time>2025-07-14T06:18:12Z</time>
      </trkpt>
      <trkpt lat="44.78314" lon="0.44703">
        <ele>149.2</ele>
        <time>2025-07-14T06:18:13Z</time>
      </trkpt>
      <trkpt lat="44.78316" lon="0.447">
        <ele>149.4</ele>
        <time>2025-07-14T06:18:14Z</time>
      </trkpt>
      <trkpt lat="44.78319" lon="0.44696">
        <ele>149.4</ele>
        <time>2025-07-14T06:18:15Z</time>
      </trkpt>
      <trkpt lat="44.78321" lon="0.44692">
        <ele>149.4</ele>
        <time>2025-07-14T06:18:16Z</time>
      </trkpt>
      <trkpt lat="44.78323" lon="0.44689">
        <ele>149.4</ele>
        <time>2025-07-14T06:18:17Z</time>
      </trkpt>
      <trkpt lat="44.78326" lon="0.44685">
        <ele>149.4</ele>
        <time>2025-07-14T06:18:18Z</time>
      </trkpt>
      <trkpt lat="44.78329" lon="0.44682">
        <ele>149.4</ele>
        <time>2025-07-14T06:18:19Z</time>
      </trkpt>
      <trkpt lat="44.78331" lon="0.44678">
        <ele>149.4</ele>
        <time>2025-07-14T06:18:20Z</time>
      </trkpt>
      <trkpt lat="44.78333" lon="0.44674">
        <ele>149.4</ele>
        <time>2025-07-14T06:18:21Z</time>
      </trkpt>
      <trkpt lat="44.78336" lon="0.4467">
        <ele>149.4</ele>
        <time>2025-07-14T06:18:22Z</time>
      </trkpt>
      <trkpt lat="44.78338" lon="0.44666">
        <ele>149.4</ele>
        <time>2025-07-14T06:18:23Z</time>
      </trkpt>
      <trkpt lat="44.78341" lon="0.44663">
        <ele>149.4</ele>
        <time>2025-07-14T06:18:24Z</time>
      </trkpt>
      <trkpt lat="44.78344" lon="0.44659">
        <ele>149.6</ele>
        <time>2025-07-14T06:18:25Z</time>
      </trkpt>
      <trkpt lat="44.78346" lon="0.44656">
        <ele>149.6</ele>
        <time>2025-07-14T06:18:26Z</time>
      </trkpt>
      <trkpt lat="44.78349" lon="0.44652">
        <ele>149.6</ele>
        <time>2025-07-14T06:18:27Z</time>
      </trkpt>
      <trkpt lat="44.78351" lon="0.44648">
        <ele>149.6</ele>
        <time>2025-07-14T06:18:28Z</time>
      </trkpt>
      <trkpt lat="44.78354" lon="0.44645">
        <ele>149.6</ele>
        <time>2025-07-14T06:18:29Z</time>
      </trkpt>
      <trkpt lat="44.78356" lon="0.44641">
        <ele>149.6</ele>
        <time>2025-07-14T06:18:30Z</time>
      </trkpt>
      <trkpt lat="44.78359" lon="0.44638">
        <ele>149.8</ele>
        <time>2025-07-14T06:18:31Z</time>
      </trkpt>
      <trkpt lat="44.78363" lon="0.44636">
        <ele>149.8</ele>
        <time>2025-07-14T06:18:32Z</time>
      </trkpt>
      <trkpt lat="44.78366" lon="0.44635">
        <ele>149.8</ele>
        <time>2025-07-14T06:18:33Z</time>
      </trkpt>
      <trkpt lat="44.7837" lon="0.44636">
        <ele>149.8</ele>
        <time>2025-07-14T06:18:34Z</time>
      </trkpt>
      <trkpt lat="44.78372" lon="0.44637">
        <ele>149.8</ele>
        <time>2025-07-14T06:18:35Z</time>
      </trkpt>
      <trkpt lat="44.78376" lon="0.44637">
        <ele>150</ele>
        <time>2025-07-14T06:18:36Z</time>
      </trkpt>
      <trkpt lat="44.7838" lon="0.44638">
        <ele>150</ele>
        <time>2025-07-14T06:18:37Z</time>
      </trkpt>
      <trkpt lat="44.78384" lon="0.44639">
        <ele>150</ele>
        <time>2025-07-14T06:18:38Z</time>
      </trkpt>
      <trkpt lat="44.78388" lon="0.4464">
        <ele>150</ele>
        <time>2025-07-14T06:18:39Z</time>
      </trkpt>
      <trkpt lat="44.78392" lon="0.44641">
        <ele>150</ele>
        <time>2025-07-14T06:18:40Z</time>
      </trkpt>
      <trkpt lat="44.78396" lon="0.44642">
        <ele>150</ele>
        <time>2025-07-14T06:18:41Z</time>
      </trkpt>
      <trkpt lat="44.78401" lon="0.44642">
        <ele>149.8</ele>
        <time>2025-07-14T06:18:42Z</time>
      </trkpt>
      <trkpt lat="44.78405" lon="0.44643">
        <ele>149.8</ele>
        <time>2025-07-14T06:18:43Z</time>
      </trkpt>
      <trkpt lat="44.7841" lon="0.44644">
        <ele>149.8</ele>
        <time>2025-07-14T06:18:44Z</time>
      </trkpt>
      <trkpt lat="44.78415" lon="0.44645">
        <ele>149.6</ele>
        <time>2025-07-14T06:18:45Z</time>
      </trkpt>
      <trkpt lat="44.78419" lon="0.44645">
        <ele>149.4</ele>
        <time>2025-07-14T06:18:46Z</time>
      </trkpt>
      <trkpt lat="44.78423" lon="0.44646">
        <ele>149.2</ele>
        <time>2025-07-14T06:18:47Z</time>
      </trkpt>
      <trkpt lat="44.78427" lon="0.44647">
        <ele>149.2</ele>
        <time>2025-07-14T06:18:48Z</time>
      </trkpt>
      <trkpt lat="44.78431" lon="0.44648">
        <ele>149</ele>
        <time>2025-07-14T06:18:49Z</time>
      </trkpt>
      <trkpt lat="44.78435" lon="0.44648">
        <ele>148.8</ele>
        <time>2025-07-14T06:18:50Z</time>
      </trkpt>
      <trkpt lat="44.78439" lon="0.44649">
        <ele>148.8</ele>
        <time>2025-07-14T06:18:51Z</time>
      </trkpt>
      <trkpt lat="44.78443" lon="0.4465">
        <ele>148.4</ele>
        <time>2025-07-14T06:18:52Z</time>
      </trkpt>
      <trkpt lat="44.78448" lon="0.44651">
        <ele>148.4</ele>
        <time>2025-07-14T06:18:53Z</time>
      </trkpt>
      <trkpt lat="44.78452" lon="0.44652">
        <ele>148.2</ele>
        <time>2025-07-14T06:18:54Z</time>
      </trkpt>
      <trkpt lat="44.78457" lon="0.44652">
        <ele>148</ele>
        <time>2025-07-14T06:18:55Z</time>
      </trkpt>
      <trkpt lat="44.78461" lon="0.44652">
        <ele>148</ele>
        <time>2025-07-14T06:18:56Z</time>
      </trkpt>
      <trkpt lat="44.78466" lon="0.44653">
        <ele>148</ele>
        <time>2025-07-14T06:18:57Z</time>
      </trkpt>
      <trkpt lat="44.78471" lon="0.44653">
        <ele>147.8</ele>
        <time>2025-07-14T06:18:58Z</time>
      </trkpt>
      <trkpt lat="44.78475" lon="0.44654">
        <ele>147.6</ele>
        <time>2025-07-14T06:18:59Z</time>
      </trkpt>
      <trkpt lat="44.7848" lon="0.44655">
        <ele>147.6</ele>
        <time>2025-07-14T06:19:00Z</time>
      </trkpt>
      <trkpt lat="44.78486" lon="0.44655">
        <ele>147.6</ele>
        <time>2025-07-14T06:19:01Z</time>
      </trkpt>
      <trkpt lat="44.78492" lon="0.44655">
        <ele>147.4</ele>
        <time>2025-07-14T06:19:02Z</time>
      </trkpt>
      <trkpt lat="44.78498" lon="0.44656">
        <ele>147.2</ele>
        <time>2025-07-14T06:19:03Z</time>
      </trkpt>
      <trkpt lat="44.78504" lon="0.44656">
        <ele>147</ele>
        <time>2025-07-14T06:19:04Z</time>
      </trkpt>
      <trkpt lat="44.78511" lon="0.44656">
        <ele>146.8</ele>
        <time>2025-07-14T06:19:05Z</time>
      </trkpt>
      <trkpt lat="44.78516" lon="0.44654">
        <ele>146.6</ele>
        <time>2025-07-14T06:19:06Z</time>
      </trkpt>
      <trkpt lat="44.78523" lon="0.44653">
        <ele>146.2</ele>
        <time>2025-07-14T06:19:07Z</time>
      </trkpt>
      <trkpt lat="44.78529" lon="0.44652">
        <ele>146</ele>
        <time>2025-07-14T06:19:08Z</time>
      </trkpt>
      <trkpt lat="44.78536" lon="0.44651">
        <ele>145.6</ele>
        <time>2025-07-14T06:19:09Z</time>
      </trkpt>
      <trkpt lat="44.78543" lon="0.44651">
        <ele>145.4</ele>
        <time>2025-07-14T06:19:10Z</time>
      </trkpt>
      <trkpt lat="44.78549" lon="0.4465">
        <ele>144.8</ele>
        <time>2025-07-14T06:19:11Z</time>
      </trkpt>
      <trkpt lat="44.78554" lon="0.4465">
        <ele>144.4</ele>
        <time>2025-07-14T06:19:12Z</time>
      </trkpt>
      <trkpt lat="44.78556" lon="0.4465">
        <ele>144.4</ele>
        <time>2025-07-14T06:19:13Z</time>
      </trkpt>
      <trkpt lat="44.78558" lon="0.44651">
        <ele>144</ele>
        <time>2025-07-14T06:19:14Z</time>
      </trkpt>
      <trkpt lat="44.7856" lon="0.44651">
        <ele>143.8</ele>
        <time>2025-07-14T06:19:15Z</time>
      </trkpt>
      <trkpt lat="44.78563" lon="0.44651">
        <ele>143.8</ele>
        <time>2025-07-14T06:19:16Z</time>
      </trkpt>
      <trkpt lat="44.78566" lon="0.44652">
        <ele>143.6</ele>
        <time>2025-07-14T06:19:17Z</time>
      </trkpt>
      <trkpt lat="44.7857" lon="0.44652">
        <ele>143.4</ele>
        <time>2025-07-14T06:19:18Z</time>
      </trkpt>
      <trkpt lat="44.78573" lon="0.44652">
        <ele>143.2</ele>
        <time>2025-07-14T06:19:19Z</time>
      </trkpt>
      <trkpt lat="44.78577" lon="0.44653">
        <ele>143</ele>
        <time>2025-07-14T06:19:20Z</time>
      </trkpt>
      <trkpt lat="44.78581" lon="0.44653">
        <ele>142.8</ele>
        <time>2025-07-14T06:19:21Z</time>
      </trkpt>
      <trkpt lat="44.78585" lon="0.44653">
        <ele>142.8</ele>
        <time>2025-07-14T06:19:22Z</time>
      </trkpt>
      <trkpt lat="44.78588" lon="0.4465">
        <ele>142.6</ele>
        <time>2025-07-14T06:19:23Z</time>
      </trkpt>
      <trkpt lat="44.78592" lon="0.44647">
        <ele>142.6</ele>
        <time>2025-07-14T06:19:24Z</time>
      </trkpt>
      <trkpt lat="44.78595" lon="0.44642">
        <ele>142.4</ele>
        <time>2025-07-14T06:19:25Z</time>
      </trkpt>
      <trkpt lat="44.78599" lon="0.44638">
        <ele>142.4</ele>
        <time>2025-07-14T06:19:26Z</time>
      </trkpt>
      <trkpt lat="44.78602" lon="0.44634">
        <ele>142.2</ele>
        <time>2025-07-14T06:19:27Z</time>
      </trkpt>
      <trkpt lat="44.78606" lon="0.4463">
        <ele>142</ele>
        <time>2025-07-14T06:19:28Z</time>
      </trkpt>
      <trkpt lat="44.78611" lon="0.44625">
        <ele>141.8</ele>
        <time>2025-07-14T06:19:29Z</time>
      </trkpt>
      <trkpt lat="44.78617" lon="0.44621">
        <ele>141.6</ele>
        <time>2025-07-14T06:19:30Z</time>
      </trkpt>
      <trkpt lat="44.78622" lon="0.44617">
        <ele>141.4</ele>
        <time>2025-07-14T06:19:31Z</time>
      </trkpt>
      <trkpt lat="44.78628" lon="0.44612">
        <ele>141.4</ele>
        <time>2025-07-14T06:19:32Z</time>
      </trkpt>
      <trkpt lat="44.78634" lon="0.44608">
        <ele>141</ele>
        <time>2025-07-14T06:19:33Z</time>
      </trkpt>
      <trkpt lat="44.78641" lon="0.44603">
        <ele>140.8</ele>
        <time>2025-07-14T06:19:34Z</time>
      </trkpt>
      <trkpt lat="44.78648" lon="0.44598">
        <ele>140.4</ele>
        <time>2025-07-14T06:19:35Z</time>
      </trkpt>
      <trkpt lat="44.78655" lon="0.44594">
        <ele>140.2</ele>
        <time>2025-07-14T06:19:36Z</time>
      </trkpt>
      <trkpt lat="44.78663" lon="0.4459">
        <ele>139.6</ele>
        <time>2025-07-14T06:19:37Z</time>
      </trkpt>
      <trkpt lat="44.7867" lon="0.44586">
        <ele>139.4</ele>
        <time>2025-07-14T06:19:38Z</time>
      </trkpt>
      <trkpt lat="44.78677" lon="0.44582">
        <ele>139.2</ele>
        <time>2025-07-14T06:19:39Z</time>
      </trkpt>
      <trkpt lat="44.78683" lon="0.44577">
        <ele>139</ele>
        <time>2025-07-14T06:19:40Z</time>
      </trkpt>
      <trkpt lat="44.78688" lon="0.44571">
        <ele>138.8</ele>
        <time>2025-07-14T06:19:41Z</time>
      </trkpt>
      <trkpt lat="44.78692" lon="0.44564">
        <ele>138.6</ele>
        <time>2025-07-14T06:19:42Z</time>
      </trkpt>
      <trkpt lat="44.78695" lon="0.44558">
        <ele>138.4</ele>
        <time>2025-07-14T06:19:43Z</time>
      </trkpt>
      <trkpt lat="44.78698" lon="0.44551">
        <ele>138.2</ele>
        <time>2025-07-14T06:19:44Z</time>
      </trkpt>
      <trkpt lat="44.78701" lon="0.44543">
        <ele>137.8</ele>
        <time>2025-07-14T06:19:45Z</time>
      </trkpt>
      <trkpt lat="44.78703" lon="0.44535">
        <ele>137.8</ele>
        <time>2025-07-14T06:19:46Z</time>
      </trkpt>
      <trkpt lat="44.78706" lon="0.44528">
        <ele>137.8</ele>
        <time>2025-07-14T06:19:47Z</time>
      </trkpt>
      <trkpt lat="44.78709" lon="0.44521">
        <ele>137.8</ele>
        <time>2025-07-14T06:19:48Z</time>
      </trkpt>
      <trkpt lat="44.78712" lon="0.44517">
        <ele>137.8</ele>
        <time>2025-07-14T06:19:49Z</time>
      </trkpt>
      <trkpt lat="44.78717" lon="0.44516">
        <ele>137.6</ele>
        <time>2025-07-14T06:19:50Z</time>
      </trkpt>
      <trkpt lat="44.78722" lon="0.44517">
        <ele>137.6</ele>
        <time>2025-07-14T06:19:51Z</time>
      </trkpt>
      <trkpt lat="44.78727" lon="0.44518">
        <ele>137.6</ele>
        <time>2025-07-14T06:19:52Z</time>
      </trkpt>
      <trkpt lat="44.78732" lon="0.4452">
        <ele>137.4</ele>
        <time>2025-07-14T06:19:53Z</time>
      </trkpt>
      <trkpt lat="44.78736" lon="0.44523">
        <ele>137.4</ele>
        <time>2025-07-14T06:19:54Z</time>
      </trkpt>
      <trkpt lat="44.7874" lon="0.44525">
        <ele>137.2</ele>
        <time>2025-07-14T06:19:55Z</time>
      </trkpt>
      <trkpt lat="44.78745" lon="0.44526">
        <ele>137.2</ele>
        <time>2025-07-14T06:19:56Z</time>
      </trkpt>
      <trkpt lat="44.78749" lon="0.44525">
        <ele>137.2</ele>
        <time>2025-07-14T06:19:57Z</time>
      </trkpt>
      <trkpt lat="44.78753" lon="0.44523">
        <ele>137.2</ele>
        <time>2025-07-14T06:19:58Z</time>
      </trkpt>
      <trkpt lat="44.78756" lon="0.44519">
        <ele>137.2</ele>
        <time>2025-07-14T06:19:59Z</time>
      </trkpt>
      <trkpt lat="44.78759" lon="0.44515">
        <ele>137.4</ele>
        <time>2025-07-14T06:20:00Z</time>
      </trkpt>
      <trkpt lat="44.78762" lon="0.4451">
        <ele>137.4</ele>
        <time>2025-07-14T06:20:01Z</time>
      </trkpt>
      <trkpt lat="44.78765" lon="0.44505">
        <ele>137.6</ele>
        <time>2025-07-14T06:20:02Z</time>
      </trkpt>
      <trkpt lat="44.78767" lon="0.44499">
        <ele>137.4</ele>
        <time>2025-07-14T06:20:03Z</time>
      </trkpt>
      <trkpt lat="44.78768" lon="0.44492">
        <ele>137.4</ele>
        <time>2025-07-14T06:20:04Z</time>
      </trkpt>
      <trkpt lat="44.78768" lon="0.44485">
        <ele>137.2</ele>
        <time>2025-07-14T06:20:05Z</time>
      </trkpt>
      <trkpt lat="44.78765" lon="0.44477">
        <ele>136.8</ele>
        <time>2025-07-14T06:20:06Z</time>
      </trkpt>
      <trkpt lat="44.78762" lon="0.44469">
        <ele>136.4</ele>
        <time>2025-07-14T06:20:07Z</time>
      </trkpt>
      <trkpt lat="44.78758" lon="0.44462">
        <ele>136</ele>
        <time>2025-07-14T06:20:08Z</time>
      </trkpt>
      <trkpt lat="44.78757" lon="0.44456">
        <ele>135.6</ele>
        <time>2025-07-14T06:20:09Z</time>
      </trkpt>
      <trkpt lat="44.78757" lon="0.4445">
        <ele>135.2</ele>
        <time>2025-07-14T06:20:10Z</time>
      </trkpt>
      <trkpt lat="44.78759" lon="0.44448">
        <ele>135</ele>
        <time>2025-07-14T06:20:11Z</time>
      </trkpt>
      <trkpt lat="44.78762" lon="0.44447">
        <ele>134.8</ele>
        <time>2025-07-14T06:20:12Z</time>
      </trkpt>
      <trkpt lat="44.78764" lon="0.44445">
        <ele>134.6</ele>
        <time>2025-07-14T06:20:13Z</time>
      </trkpt>
      <trkpt lat="44.78767" lon="0.44443">
        <ele>134.6</ele>
        <time>2025-07-14T06:20:14Z</time>
      </trkpt>
      <trkpt lat="44.7877" lon="0.44441">
        <ele>134.6</ele>
        <time>2025-07-14T06:20:15Z</time>
      </trkpt>
      <trkpt lat="44.78774" lon="0.44439">
        <ele>134.4</ele>
        <time>2025-07-14T06:20:16Z</time>
      </trkpt>
      <trkpt lat="44.78777" lon="0.44437">
        <ele>134.4</ele>
        <time>2025-07-14T06:20:17Z</time>
      </trkpt>
      <trkpt lat="44.78781" lon="0.44435">
        <ele>134.4</ele>
        <time>2025-07-14T06:20:18Z</time>
      </trkpt>
      <trkpt lat="44.78785" lon="0.44434">
        <ele>134.2</ele>
        <time>2025-07-14T06:20:19Z</time>
      </trkpt>
      <trkpt lat="44.78788" lon="0.44432">
        <ele>134.2</ele>
        <time>2025-07-14T06:20:20Z</time>
      </trkpt>
      <trkpt lat="44.78793" lon="0.44431">
        <ele>134.2</ele>
        <time>2025-07-14T06:20:21Z</time>
      </trkpt>
      <trkpt lat="44.78797" lon="0.44431">
        <ele>134.2</ele>
        <time>2025-07-14T06:20:22Z</time>
      </trkpt>
      <trkpt lat="44.78801" lon="0.44432">
        <ele>134</ele>
        <time>2025-07-14T06:20:23Z</time>
      </trkpt>
      <trkpt lat="44.78805" lon="0.44433">
        <ele>134</ele>
        <time>2025-07-14T06:20:24Z</time>
      </trkpt>
      <trkpt lat="44.78809" lon="0.44433">
        <ele>134</ele>
        <time>2025-07-14T06:20:25Z</time>
      </trkpt>
      <trkpt lat="44.78813" lon="0.44435">
        <ele>134</ele>
        <time>2025-07-14T06:20:26Z</time>
      </trkpt>
      <trkpt lat="44.78817" lon="0.44438">
        <ele>134</ele>
        <time>2025-07-14T06:20:27Z</time>
      </trkpt>
      <trkpt lat="44.78821" lon="0.44441">
        <ele>134.2</ele>
        <time>2025-07-14T06:20:28Z</time>
      </trkpt>
      <trkpt lat="44.78825" lon="0.44444">
        <ele>134.2</ele>
        <time>2025-07-14T06:20:29Z</time>
      </trkpt>
      <trkpt lat="44.78829" lon="0.44447">
        <ele>134.2</ele>
        <time>2025-07-14T06:20:30Z</time>
      </trkpt>
      <trkpt lat="44.78833" lon="0.4445">
        <ele>134.2</ele>
        <time>2025-07-14T06:20:31Z</time>
      </trkpt>
      <trkpt lat="44.78837" lon="0.44453">
        <ele>134.2</ele>
        <time>2025-07-14T06:20:32Z</time>
      </trkpt>
      <trkpt lat="44.78841" lon="0.44455">
        <ele>134.2</ele>
        <time>2025-07-14T06:20:33Z</time>
      </trkpt>
      <trkpt lat="44.78845" lon="0.44456">
        <ele>134.4</ele>
        <time>2025-07-14T06:20:34Z</time>
      </trkpt>
      <trkpt lat="44.78849" lon="0.44455">
        <ele>134.4</ele>
        <time>2025-07-14T06:20:35Z</time>
      </trkpt>
      <trkpt lat="44.78852" lon="0.44453">
        <ele>134.4</ele>
        <time>2025-07-14T06:20:36Z</time>
      </trkpt>
      <trkpt lat="44.78856" lon="0.44449">
        <ele>134.6</ele>
        <time>2025-07-14T06:20:37Z</time>
      </trkpt>
      <trkpt lat="44.78859" lon="0.44446">
        <ele>134.6</ele>
        <time>2025-07-14T06:20:38Z</time>
      </trkpt>
      <trkpt lat="44.78862" lon="0.44443">
        <ele>134.6</ele>
        <time>2025-07-14T06:20:39Z</time>
      </trkpt>
      <trkpt lat="44.78866" lon="0.44441">
        <ele>134.6</ele>
        <time>2025-07-14T06:20:40Z</time>
      </trkpt>
      <trkpt lat="44.78871" lon="0.4444">
        <ele>134.6</ele>
        <time>2025-07-14T06:20:41Z</time>
      </trkpt>
      <trkpt lat="44.78875" lon="0.44439">
        <ele>134.6</ele>
        <time>2025-07-14T06:20:42Z</time>
      </trkpt>
      <trkpt lat="44.78879" lon="0.44439">
        <ele>134.8</ele>
        <time>2025-07-14T06:20:43Z</time>
      </trkpt>
      <trkpt lat="44.78884" lon="0.4444">
        <ele>134.8</ele>
        <time>2025-07-14T06:20:44Z</time>
      </trkpt>
      <trkpt lat="44.78888" lon="0.4444">
        <ele>135</ele>
        <time>2025-07-14T06:20:45Z</time>
      </trkpt>
      <trkpt lat="44.78892" lon="0.44441">
        <ele>135.2</ele>
        <time>2025-07-14T06:20:46Z</time>
      </trkpt>
      <trkpt lat="44.78897" lon="0.44442">
        <ele>135.2</ele>
        <time>2025-07-14T06:20:47Z</time>
      </trkpt>
      <trkpt lat="44.78901" lon="0.44442">
        <ele>135.4</ele>
        <time>2025-07-14T06:20:48Z</time>
      </trkpt>
      <trkpt lat="44.78906" lon="0.44443">
        <ele>135.4</ele>
        <time>2025-07-14T06:20:49Z</time>
      </trkpt>
      <trkpt lat="44.7891" lon="0.44444">
        <ele>135.6</ele>
        <time>2025-07-14T06:20:50Z</time>
      </trkpt>
      <trkpt lat="44.78914" lon="0.44445">
        <ele>135.8</ele>
        <time>2025-07-14T06:20:51Z</time>
      </trkpt>
      <trkpt lat="44.78918" lon="0.44446">
        <ele>136</ele>
        <time>2025-07-14T06:20:52Z</time>
      </trkpt>
      <trkpt lat="44.78922" lon="0.44447">
        <ele>136</ele>
        <time>2025-07-14T06:20:53Z</time>
      </trkpt>
      <trkpt lat="44.78926" lon="0.44449">
        <ele>136.2</ele>
        <time>2025-07-14T06:20:54Z</time>
      </trkpt>
      <trkpt lat="44.7893" lon="0.4445">
        <ele>136.2</ele>
        <time>2025-07-14T06:20:55Z</time>
      </trkpt>
      <trkpt lat="44.78935" lon="0.44451">
        <ele>136.2</ele>
        <time>2025-07-14T06:20:56Z</time>
      </trkpt>
      <trkpt lat="44.78939" lon="0.44452">
        <ele>136.4</ele>
        <time>2025-07-14T06:20:57Z</time>
      </trkpt>
      <trkpt lat="44.78944" lon="0.44453">
        <ele>136.4</ele>
        <time>2025-07-14T06:20:58Z</time>
      </trkpt>
      <trkpt lat="44.78948" lon="0.44453">
        <ele>136.6</ele>
        <time>2025-07-14T06:20:59Z</time>
      </trkpt>
      <trkpt lat="44.78952" lon="0.44451">
        <ele>136.6</ele>
        <time>2025-07-14T06:21:00Z</time>
      </trkpt>
      <trkpt lat="44.78955" lon="0.44448">
        <ele>136.8</ele>
        <time>2025-07-14T06:21:01Z</time>
      </trkpt>
      <trkpt lat="44.78958" lon="0.44444">
        <ele>136.8</ele>
        <time>2025-07-14T06:21:02Z</time>
      </trkpt>
      <trkpt lat="44.78962" lon="0.44441">
        <ele>136.8</ele>
        <time>2025-07-14T06:21:03Z</time>
      </trkpt>
      <trkpt lat="44.78967" lon="0.44438">
        <ele>136.8</ele>
        <time>2025-07-14T06:21:04Z</time>
      </trkpt>
      <trkpt lat="44.78971" lon="0.44437">
        <ele>137</ele>
        <time>2025-07-14T06:21:05Z</time>
      </trkpt>
      <trkpt lat="44.78976" lon="0.44436">
        <ele>137</ele>
        <time>2025-07-14T06:21:06Z</time>
      </trkpt>
      <trkpt lat="44.7898" lon="0.44435">
        <ele>137.2</ele>
        <time>2025-07-14T06:21:07Z</time>
      </trkpt>
      <trkpt lat="44.78984" lon="0.44434">
        <ele>137.2</ele>
        <time>2025-07-14T06:21:08Z</time>
      </trkpt>
      <trkpt lat="44.78989" lon="0.44432">
        <ele>137.2</ele>
        <time>2025-07-14T06:21:09Z</time>
      </trkpt>
      <trkpt lat="44.78993" lon="0.44432">
        <ele>137.2</ele>
        <time>2025-07-14T06:21:10Z</time>
      </trkpt>
      <trkpt lat="44.78997" lon="0.44432">
        <ele>137.4</ele>
        <time>2025-07-14T06:21:11Z</time>
      </trkpt>
      <trkpt lat="44.79002" lon="0.44432">
        <ele>137.4</ele>
        <time>2025-07-14T06:21:12Z</time>
      </trkpt>
      <trkpt lat="44.79006" lon="0.44432">
        <ele>137.4</ele>
        <time>2025-07-14T06:21:13Z</time>
      </trkpt>
      <trkpt lat="44.79011" lon="0.44432">
        <ele>137.4</ele>
        <time>2025-07-14T06:21:14Z</time>
      </trkpt>
      <trkpt lat="44.79015" lon="0.44432">
        <ele>137.4</ele>
        <time>2025-07-14T06:21:15Z</time>
      </trkpt>
      <trkpt lat="44.7902" lon="0.44431">
        <ele>137.4</ele>
        <time>2025-07-14T06:21:16Z</time>
      </trkpt>
      <trkpt lat="44.79025" lon="0.44431">
        <ele>137.6</ele>
        <time>2025-07-14T06:21:17Z</time>
      </trkpt>
      <trkpt lat="44.7903" lon="0.44431">
        <ele>137.4</ele>
        <time>2025-07-14T06:21:18Z</time>
      </trkpt>
      <trkpt lat="44.79034" lon="0.44432">
        <ele>137.4</ele>
        <time>2025-07-14T06:21:19Z</time>
      </trkpt>
      <trkpt lat="44.79039" lon="0.44433">
        <ele>137.4</ele>
        <time>2025-07-14T06:21:20Z</time>
      </trkpt>
      <trkpt lat="44.79043" lon="0.44435">
        <ele>137.2</ele>
        <time>2025-07-14T06:21:21Z</time>
      </trkpt>
      <trkpt lat="44.79048" lon="0.44435">
        <ele>137</ele>
        <time>2025-07-14T06:21:22Z</time>
      </trkpt>
      <trkpt lat="44.79052" lon="0.44435">
        <ele>137</ele>
        <time>2025-07-14T06:21:23Z</time>
      </trkpt>
      <trkpt lat="44.79056" lon="0.44435">
        <ele>137</ele>
        <time>2025-07-14T06:21:24Z</time>
      </trkpt>
      <trkpt lat="44.79061" lon="0.44435">
        <ele>137</ele>
        <time>2025-07-14T06:21:25Z</time>
      </trkpt>
      <trkpt lat="44.79065" lon="0.44435">
        <ele>137</ele>
        <time>2025-07-14T06:21:26Z</time>
      </trkpt>
      <trkpt lat="44.7907" lon="0.44435">
        <ele>137</ele>
        <time>2025-07-14T06:21:27Z</time>
      </trkpt>
      <trkpt lat="44.79074" lon="0.44435">
        <ele>137</ele>
        <time>2025-07-14T06:21:28Z</time>
      </trkpt>
      <trkpt lat="44.79078" lon="0.44436">
        <ele>137</ele>
        <time>2025-07-14T06:21:29Z</time>
      </trkpt>
      <trkpt lat="44.79082" lon="0.44436">
        <ele>137.2</ele>
        <time>2025-07-14T06:21:30Z</time>
      </trkpt>
      <trkpt lat="44.79086" lon="0.44436">
        <ele>137.2</ele>
        <time>2025-07-14T06:21:31Z</time>
      </trkpt>
      <trkpt lat="44.7909" lon="0.44435">
        <ele>137.4</ele>
        <time>2025-07-14T06:21:32Z</time>
      </trkpt>
      <trkpt lat="44.79094" lon="0.44432">
        <ele>137.2</ele>
        <time>2025-07-14T06:21:33Z</time>
      </trkpt>
      <trkpt lat="44.79097" lon="0.44428">
        <ele>137.2</ele>
        <time>2025-07-14T06:21:34Z</time>
      </trkpt>
      <trkpt lat="44.79099" lon="0.44423">
        <ele>137</ele>
        <time>2025-07-14T06:21:35Z</time>
      </trkpt>
      <trkpt lat="44.791" lon="0.44416">
        <ele>137</ele>
        <time>2025-07-14T06:21:36Z</time>
      </trkpt>
      <trkpt lat="44.79101" lon="0.44409">
        <ele>136.8</ele>
        <time>2025-07-14T06:21:37Z</time>
      </trkpt>
      <trkpt lat="44.79102" lon="0.44403">
        <ele>136.8</ele>
        <time>2025-07-14T06:21:38Z</time>
      </trkpt>
      <trkpt lat="44.79103" lon="0.44398">
        <ele>136.6</ele>
        <time>2025-07-14T06:21:39Z</time>
      </trkpt>
      <trkpt lat="44.79105" lon="0.44391">
        <ele>136.4</ele>
        <time>2025-07-14T06:21:40Z</time>
      </trkpt>
      <trkpt lat="44.79106" lon="0.44385">
        <ele>136.2</ele>
        <time>2025-07-14T06:21:41Z</time>
      </trkpt>
      <trkpt lat="44.79107" lon="0.44378">
        <ele>136</ele>
        <time>2025-07-14T06:21:42Z</time>
      </trkpt>
      <trkpt lat="44.79108" lon="0.44371">
        <ele>135.8</ele>
        <time>2025-07-14T06:21:43Z</time>
      </trkpt>
      <trkpt lat="44.79109" lon="0.44364">
        <ele>135.4</ele>
        <time>2025-07-14T06:21:44Z</time>
      </trkpt>
      <trkpt lat="44.79109" lon="0.44357">
        <ele>135.4</ele>
        <time>2025-07-14T06:21:45Z</time>
      </trkpt>
      <trkpt lat="44.79111" lon="0.4435">
        <ele>135.2</ele>
        <time>2025-07-14T06:21:46Z</time>
      </trkpt>
      <trkpt lat="44.79113" lon="0.44345">
        <ele>134.8</ele>
        <time>2025-07-14T06:21:47Z</time>
      </trkpt>
      <trkpt lat="44.79117" lon="0.44343">
        <ele>134.6</ele>
        <time>2025-07-14T06:21:48Z</time>
      </trkpt>
      <trkpt lat="44.79121" lon="0.44342">
        <ele>134.6</ele>
        <time>2025-07-14T06:21:49Z</time>
      </trkpt>
      <trkpt lat="44.79124" lon="0.44339">
        <ele>134.4</ele>
        <time>2025-07-14T06:21:50Z</time>
      </trkpt>
      <trkpt lat="44.79126" lon="0.44334">
        <ele>134.2</ele>
        <time>2025-07-14T06:21:51Z</time>
      </trkpt>
      <trkpt lat="44.79127" lon="0.44328">
        <ele>134.2</ele>
        <time>2025-07-14T06:21:52Z</time>
      </trkpt>
      <trkpt lat="44.79128" lon="0.44322">
        <ele>134</ele>
        <time>2025-07-14T06:21:53Z</time>
      </trkpt>
      <trkpt lat="44.7913" lon="0.44315">
        <ele>133.8</ele>
        <time>2025-07-14T06:21:54Z</time>
      </trkpt>
      <trkpt lat="44.79131" lon="0.4431">
        <ele>133.6</ele>
        <time>2025-07-14T06:21:55Z</time>
      </trkpt>
      <trkpt lat="44.79131" lon="0.44303">
        <ele>133.4</ele>
        <time>2025-07-14T06:21:56Z</time>
      </trkpt>
      <trkpt lat="44.79131" lon="0.44298">
        <ele>133.2</ele>
        <time>2025-07-14T06:21:57Z</time>
      </trkpt>
      <trkpt lat="44.79131" lon="0.44291">
        <ele>133</ele>
        <time>2025-07-14T06:21:58Z</time>
      </trkpt>
      <trkpt lat="44.79131" lon="0.44285">
        <ele>132.8</ele>
        <time>2025-07-14T06:21:59Z</time>
      </trkpt>
      <trkpt lat="44.79131" lon="0.44278">
        <ele>132.8</ele>
        <time>2025-07-14T06:22:00Z</time>
      </trkpt>
      <trkpt lat="44.79131" lon="0.44271">
        <ele>132.6</ele>
        <time>2025-07-14T06:22:01Z</time>
      </trkpt>
      <trkpt lat="44.79132" lon="0.44264">
        <ele>132.4</ele>
        <time>2025-07-14T06:22:02Z</time>
      </trkpt>
      <trkpt lat="44.79134" lon="0.44256">
        <ele>132.2</ele>
        <time>2025-07-14T06:22:03Z</time>
      </trkpt>
      <trkpt lat="44.79135" lon="0.44248">
        <ele>132</ele>
        <time>2025-07-14T06:22:04Z</time>
      </trkpt>
      <trkpt lat="44.79135" lon="0.44239">
        <ele>131.8</ele>
        <time>2025-07-14T06:22:05Z</time>
      </trkpt>
      <trkpt lat="44.79137" lon="0.44231">
        <ele>131.8</ele>
        <time>2025-07-14T06:22:06Z</time>
      </trkpt>
      <trkpt lat="44.79139" lon="0.44222">
        <ele>131.4</ele>
        <time>2025-07-14T06:22:07Z</time>
      </trkpt>
      <trkpt lat="44.79141" lon="0.44214">
        <ele>131.2</ele>
        <time>2025-07-14T06:22:08Z</time>
      </trkpt>
      <trkpt lat="44.79144" lon="0.44205">
        <ele>130.8</ele>
        <time>2025-07-14T06:22:09Z</time>
      </trkpt>
      <trkpt lat="44.79145" lon="0.44197">
        <ele>130.4</ele>
        <time>2025-07-14T06:22:10Z</time>
      </trkpt>
      <trkpt lat="44.79146" lon="0.44189">
        <ele>130</ele>
        <time>2025-07-14T06:22:11Z</time>
      </trkpt>
      <trkpt lat="44.79145" lon="0.44182">
        <ele>129.6</ele>
        <time>2025-07-14T06:22:12Z</time>
      </trkpt>
      <trkpt lat="44.79146" lon="0.44178">
        <ele>129.4</ele>
        <time>2025-07-14T06:22:13Z</time>
      </trkpt>
      <trkpt lat="44.79148" lon="0.44175">
        <ele>129.2</ele>
        <time>2025-07-14T06:22:14Z</time>
      </trkpt>
      <trkpt lat="44.79151" lon="0.44171">
        <ele>128.8</ele>
        <time>2025-07-14T06:22:15Z</time>
      </trkpt>
      <trkpt lat="44.79154" lon="0.44166">
        <ele>128.6</ele>
        <time>2025-07-14T06:22:16Z</time>
      </trkpt>
      <trkpt lat="44.79158" lon="0.44161">
        <ele>128.2</ele>
        <time>2025-07-14T06:22:17Z</time>
      </trkpt>
      <trkpt lat="44.79162" lon="0.44155">
        <ele>127.8</ele>
        <time>2025-07-14T06:22:18Z</time>
      </trkpt>
      <trkpt lat="44.79163" lon="0.4415">
        <ele>127.2</ele>
        <time>2025-07-14T06:22:19Z</time>
      </trkpt>
      <trkpt lat="44.79164" lon="0.44145">
        <ele>126.8</ele>
        <time>2025-07-14T06:22:20Z</time>
      </trkpt>
      <trkpt lat="44.79162" lon="0.44141">
        <ele>126.4</ele>
        <time>2025-07-14T06:22:21Z</time>
      </trkpt>
      <trkpt lat="44.79159" lon="0.4414">
        <ele>126</ele>
        <time>2025-07-14T06:22:22Z</time>
      </trkpt>
      <trkpt lat="44.79156" lon="0.4414">
        <ele>125.6</ele>
        <time>2025-07-14T06:22:23Z</time>
      </trkpt>
      <trkpt lat="44.79152" lon="0.44139">
        <ele>125.4</ele>
        <time>2025-07-14T06:22:24Z</time>
      </trkpt>
      <trkpt lat="44.79148" lon="0.44138">
        <ele>125</ele>
        <time>2025-07-14T06:22:25Z</time>
      </trkpt>
      <trkpt lat="44.79143" lon="0.44139">
        <ele>125</ele>
        <time>2025-07-14T06:22:26Z</time>
      </trkpt>
      <trkpt lat="44.79139" lon="0.4414">
        <ele>125</ele>
        <time>2025-07-14T06:22:27Z</time>
      </trkpt>
      <trkpt lat="44.79135" lon="0.44142">
        <ele>124.8</ele>
        <time>2025-07-14T06:22:28Z</time>
      </trkpt>
      <trkpt lat="44.79132" lon="0.44143">
        <ele>124.8</ele>
        <time>2025-07-14T06:22:29Z</time>
      </trkpt>
      <trkpt lat="44.79128" lon="0.44143">
        <ele>124.8</ele>
        <time>2025-07-14T06:22:30Z</time>
      </trkpt>
      <trkpt lat="44.79124" lon="0.44143">
        <ele>124.8</ele>
        <time>2025-07-14T06:22:31Z</time>
      </trkpt>
      <trkpt lat="44.7912" lon="0.44142">
        <ele>124.6</ele>
        <time>2025-07-14T06:22:32Z</time>
      </trkpt>
      <trkpt lat="44.79115" lon="0.44143">
        <ele>124.6</ele>
        <time>2025-07-14T06:22:33Z</time>
      </trkpt>
      <trkpt lat="44.79111" lon="0.44144">
        <ele>124.6</ele>
        <time>2025-07-14T06:22:34Z</time>
      </trkpt>
      <trkpt lat="44.79107" lon="0.44144">
        <ele>124.4</ele>
        <time>2025-07-14T06:22:35Z</time>
      </trkpt>
      <trkpt lat="44.79101" lon="0.44144">
        <ele>124.4</ele>
        <time>2025-07-14T06:22:36Z</time>
      </trkpt>
      <trkpt lat="44.79096" lon="0.44145">
        <ele>124.2</ele>
        <time>2025-07-14T06:22:37Z</time>
      </trkpt>
      <trkpt lat="44.7909" lon="0.44146">
        <ele>124</ele>
        <time>2025-07-14T06:22:38Z</time>
      </trkpt>
      <trkpt lat="44.79083" lon="0.44146">
        <ele>123.8</ele>
        <time>2025-07-14T06:22:39Z</time>
      </trkpt>
      <trkpt lat="44.79078" lon="0.44147">
        <ele>123.4</ele>
        <time>2025-07-14T06:22:40Z</time>
      </trkpt>
      <trkpt lat="44.79071" lon="0.44147">
        <ele>123.2</ele>
        <time>2025-07-14T06:22:41Z</time>
      </trkpt>
      <trkpt lat="44.79066" lon="0.44146">
        <ele>123</ele>
        <time>2025-07-14T06:22:42Z</time>
      </trkpt>
      <trkpt lat="44.7906" lon="0.44144">
        <ele>122.6</ele>
        <time>2025-07-14T06:22:43Z</time>
      </trkpt>
      <trkpt lat="44.79053" lon="0.44145">
        <ele>122.2</ele>
        <time>2025-07-14T06:22:44Z</time>
      </trkpt>
      <trkpt lat="44.79047" lon="0.44146">
        <ele>121.6</ele>
        <time>2025-07-14T06:22:45Z</time>
      </trkpt>
      <trkpt lat="44.79042" lon="0.44146">
        <ele>121</ele>
        <time>2025-07-14T06:22:46Z</time>
      </trkpt>
      <trkpt lat="44.79036" lon="0.44147">
        <ele>120.8</ele>
        <time>2025-07-14T06:22:47Z</time>
      </trkpt>
      <trkpt lat="44.79032" lon="0.44146">
        <ele>120.6</ele>
        <time>2025-07-14T06:22:48Z</time>
      </trkpt>
      <trkpt lat="44.79027" lon="0.44146">
        <ele>120.6</ele>
        <time>2025-07-14T06:22:49Z</time>
      </trkpt>
      <trkpt lat="44.79022" lon="0.44145">
        <ele>120.6</ele>
        <time>2025-07-14T06:22:50Z</time>
      </trkpt>
      <trkpt lat="44.79018" lon="0.44144">
        <ele>120.8</ele>
        <time>2025-07-14T06:22:51Z</time>
      </trkpt>
      <trkpt lat="44.79015" lon="0.44143">
        <ele>120.6</ele>
        <time>2025-07-14T06:22:52Z</time>
      </trkpt>
      <trkpt lat="44.79013" lon="0.4414">
        <ele>120.6</ele>
        <time>2025-07-14T06:22:53Z</time>
      </trkpt>
      <trkpt lat="44.79011" lon="0.44139">
        <ele>120.6</ele>
        <time>2025-07-14T06:22:54Z</time>
      </trkpt>
      <trkpt lat="44.79007" lon="0.44137">
        <ele>120.8</ele>
        <time>2025-07-14T06:22:55Z</time>
      </trkpt>
      <trkpt lat="44.79003" lon="0.44136">
        <ele>120.8</ele>
        <time>2025-07-14T06:22:56Z</time>
      </trkpt>
      <trkpt lat="44.78999" lon="0.44135">
        <ele>121</ele>
        <time>2025-07-14T06:22:57Z</time>
      </trkpt>
      <trkpt lat="44.78994" lon="0.44132">
        <ele>120.8</ele>
        <time>2025-07-14T06:22:58Z</time>
      </trkpt>
      <trkpt lat="44.78992" lon="0.44128">
        <ele>120.8</ele>
        <time>2025-07-14T06:22:59Z</time>
      </trkpt>
      <trkpt lat="44.78989" lon="0.44124">
        <ele>120.8</ele>
        <time>2025-07-14T06:23:00Z</time>
      </trkpt>
      <trkpt lat="44.78986" lon="0.44121">
        <ele>120.6</ele>
        <time>2025-07-14T06:23:01Z</time>
      </trkpt>
      <trkpt lat="44.78982" lon="0.44116">
        <ele>120.4</ele>
        <time>2025-07-14T06:23:02Z</time>
      </trkpt>
      <trkpt lat="44.78978" lon="0.44113">
        <ele>120.2</ele>
        <time>2025-07-14T06:23:03Z</time>
      </trkpt>
      <trkpt lat="44.78972" lon="0.44111">
        <ele>119.8</ele>
        <time>2025-07-14T06:23:04Z</time>
      </trkpt>
      <trkpt lat="44.78968" lon="0.4411">
        <ele>119.6</ele>
        <time>2025-07-14T06:23:05Z</time>
      </trkpt>
      <trkpt lat="44.78963" lon="0.44107">
        <ele>119.4</ele>
        <time>2025-07-14T06:23:06Z</time>
      </trkpt>
      <trkpt lat="44.78959" lon="0.44103">
        <ele>119.2</ele>
        <time>2025-07-14T06:23:07Z</time>
      </trkpt>
      <trkpt lat="44.78955" lon="0.44098">
        <ele>119</ele>
        <time>2025-07-14T06:23:08Z</time>
      </trkpt>
      <trkpt lat="44.78951" lon="0.44094">
        <ele>118.8</ele>
        <time>2025-07-14T06:23:09Z</time>
      </trkpt>
      <trkpt lat="44.78946" lon="0.44089">
        <ele>118.8</ele>
        <time>2025-07-14T06:23:10Z</time>
      </trkpt>
      <trkpt lat="44.78942" lon="0.44084">
        <ele>118.6</ele>
        <time>2025-07-14T06:23:11Z</time>
      </trkpt>
      <trkpt lat="44.78937" lon="0.44079">
        <ele>118.4</ele>
        <time>2025-07-14T06:23:12Z</time>
      </trkpt>
      <trkpt lat="44.78931" lon="0.44075">
        <ele>118</ele>
        <time>2025-07-14T06:23:13Z</time>
      </trkpt>
      <trkpt lat="44.78925" lon="0.4407">
        <ele>117.6</ele>
        <time>2025-07-14T06:23:14Z</time>
      </trkpt>
      <trkpt lat="44.7892" lon="0.44063">
        <ele>117.2</ele>
        <time>2025-07-14T06:23:15Z</time>
      </trkpt>
      <trkpt lat="44.78915" lon="0.44057">
        <ele>116.8</ele>
        <time>2025-07-14T06:23:16Z</time>
      </trkpt>
      <trkpt lat="44.78912" lon="0.4405">
        <ele>116.2</ele>
        <time>2025-07-14T06:23:17Z</time>
      </trkpt>
      <trkpt lat="44.7891" lon="0.44043">
        <ele>115.6</ele>
        <time>2025-07-14T06:23:18Z</time>
      </trkpt>
      <trkpt lat="44.78907" lon="0.44035">
        <ele>115</ele>
        <time>2025-07-14T06:23:19Z</time>
      </trkpt>
      <trkpt lat="44.78904" lon="0.44028">
        <ele>114.4</ele>
        <time>2025-07-14T06:23:20Z</time>
      </trkpt>
      <trkpt lat="44.78903" lon="0.44022">
        <ele>114</ele>
        <time>2025-07-14T06:23:21Z</time>
      </trkpt>
      <trkpt lat="44.78904" lon="0.44018">
        <ele>113.4</ele>
        <time>2025-07-14T06:23:22Z</time>
      </trkpt>
      <trkpt lat="44.78905" lon="0.44014">
        <ele>113</ele>
        <time>2025-07-14T06:23:23Z</time>
      </trkpt>
      <trkpt lat="44.78906" lon="0.4401">
        <ele>112.4</ele>
        <time>2025-07-14T06:23:24Z</time>
      </trkpt>
      <trkpt lat="44.78908" lon="0.44005">
        <ele>112.2</ele>
        <time>2025-07-14T06:23:25Z</time>
      </trkpt>
      <trkpt lat="44.78911" lon="0.44">
        <ele>111.8</ele>
        <time>2025-07-14T06:23:26Z</time>
      </trkpt>
      <trkpt lat="44.78914" lon="0.43993">
        <ele>111.4</ele>
        <time>2025-07-14T06:23:27Z</time>
      </trkpt>
      <trkpt lat="44.78916" lon="0.43989">
        <ele>111.2</ele>
        <time>2025-07-14T06:23:28Z</time>
      </trkpt>
      <trkpt lat="44.7892" lon="0.43986">
        <ele>110.8</ele>
        <time>2025-07-14T06:23:29Z</time>
      </trkpt>
      <trkpt lat="44.78923" lon="0.43986">
        <ele>110.6</ele>
        <time>2025-07-14T06:23:30Z</time>
      </trkpt>
      <trkpt lat="44.78926" lon="0.43987">
        <ele>110.6</ele>
        <time>2025-07-14T06:23:31Z</time>
      </trkpt>
      <trkpt lat="44.7893" lon="0.43988">
        <ele>110.4</ele>
        <time>2025-07-14T06:23:32Z</time>
      </trkpt>
      <trkpt lat="44.78933" lon="0.4399">
        <ele>110.4</ele>
        <time>2025-07-14T06:23:33Z</time>
      </trkpt>
      <trkpt lat="44.78938" lon="0.4399">
        <ele>110.4</ele>
        <time>2025-07-14T06:23:34Z</time>
      </trkpt>
      <trkpt lat="44.78941" lon="0.43992">
        <ele>110.4</ele>
        <time>2025-07-14T06:23:35Z</time>
      </trkpt>
      <trkpt lat="44.78943" lon="0.43994">
        <ele>110.4</ele>
        <time>2025-07-14T06:23:36Z</time>
      </trkpt>
      <trkpt lat="44.78947" lon="0.43997">
        <ele>110.4</ele>
        <time>2025-07-14T06:23:37Z</time>
      </trkpt>
      <trkpt lat="44.78951" lon="0.43997">
        <ele>110.4</ele>
        <time>2025-07-14T06:23:38Z</time>
      </trkpt>
      <trkpt lat="44.78955" lon="0.43997">
        <ele>110.4</ele>
        <time>2025-07-14T06:23:39Z</time>
      </trkpt>
      <trkpt lat="44.78959" lon="0.43997">
        <ele>110.4</ele>
        <time>2025-07-14T06:23:40Z</time>
      </trkpt>
      <trkpt lat="44.78963" lon="0.43996">
        <ele>110.6</ele>
        <time>2025-07-14T06:23:41Z</time>
      </trkpt>
      <trkpt lat="44.78968" lon="0.43995">
        <ele>110.6</ele>
        <time>2025-07-14T06:23:42Z</time>
      </trkpt>
      <trkpt lat="44.78971" lon="0.43995">
        <ele>110.6</ele>
        <time>2025-07-14T06:23:43Z</time>
      </trkpt>
      <trkpt lat="44.78974" lon="0.43996">
        <ele>110.6</ele>
        <time>2025-07-14T06:23:44Z</time>
      </trkpt>
      <trkpt lat="44.78978" lon="0.43995">
        <ele>110.6</ele>
        <time>2025-07-14T06:23:45Z</time>
      </trkpt>
      <trkpt lat="44.78982" lon="0.43993">
        <ele>110.6</ele>
        <time>2025-07-14T06:23:46Z</time>
      </trkpt>
      <trkpt lat="44.78985" lon="0.43989">
        <ele>110.6</ele>
        <time>2025-07-14T06:23:47Z</time>
      </trkpt>
      <trkpt lat="44.78989" lon="0.43987">
        <ele>110.6</ele>
        <time>2025-07-14T06:23:48Z</time>
      </trkpt>
      <trkpt lat="44.78993" lon="0.43988">
        <ele>110.6</ele>
        <time>2025-07-14T06:23:49Z</time>
      </trkpt>
      <trkpt lat="44.78997" lon="0.43988">
        <ele>110.6</ele>
        <time>2025-07-14T06:23:50Z</time>
      </trkpt>
      <trkpt lat="44.79002" lon="0.43989">
        <ele>110.6</ele>
        <time>2025-07-14T06:23:51Z</time>
      </trkpt>
      <trkpt lat="44.79007" lon="0.43988">
        <ele>110.8</ele>
        <time>2025-07-14T06:23:52Z</time>
      </trkpt>
      <trkpt lat="44.79012" lon="0.43987">
        <ele>111</ele>
        <time>2025-07-14T06:23:53Z</time>
      </trkpt>
      <trkpt lat="44.79016" lon="0.43987">
        <ele>111</ele>
        <time>2025-07-14T06:23:54Z</time>
      </trkpt>
      <trkpt lat="44.79021" lon="0.43987">
        <ele>111.2</ele>
        <time>2025-07-14T06:23:55Z</time>
      </trkpt>
      <trkpt lat="44.79025" lon="0.43986">
        <ele>111.2</ele>
        <time>2025-07-14T06:23:56Z</time>
      </trkpt>
      <trkpt lat="44.79029" lon="0.43985">
        <ele>111.4</ele>
        <time>2025-07-14T06:23:57Z</time>
      </trkpt>
      <trkpt lat="44.79033" lon="0.43985">
        <ele>111.4</ele>
        <time>2025-07-14T06:23:58Z</time>
      </trkpt>
      <trkpt lat="44.79037" lon="0.43985">
        <ele>111.6</ele>
        <time>2025-07-14T06:23:59Z</time>
      </trkpt>
      <trkpt lat="44.7904" lon="0.43985">
        <ele>111.6</ele>
        <time>2025-07-14T06:24:00Z</time>
      </trkpt>
      <trkpt lat="44.79043" lon="0.43984">
        <ele>111.8</ele>
        <time>2025-07-14T06:24:01Z</time>
      </trkpt>
      <trkpt lat="44.79044" lon="0.43982">
        <ele>111.8</ele>
        <time>2025-07-14T06:24:02Z</time>
      </trkpt>
      <trkpt lat="44.79045" lon="0.43979">
        <ele>112</ele>
        <time>2025-07-14T06:24:03Z</time>
      </trkpt>
      <trkpt lat="44.79046" lon="0.43977">
        <ele>112</ele>
        <time>2025-07-14T06:24:04Z</time>
      </trkpt>
      <trkpt lat="44.79047" lon="0.43974">
        <ele>112</ele>
        <time>2025-07-14T06:24:05Z</time>
      </trkpt>
      <trkpt lat="44.79046" lon="0.43971">
        <ele>112.2</ele>
        <time>2025-07-14T06:24:06Z</time>
      </trkpt>
      <trkpt lat="44.79044" lon="0.43969">
        <ele>112.2</ele>
        <time>2025-07-14T06:24:07Z</time>
      </trkpt>
      <trkpt lat="44.79043" lon="0.43966">
        <ele>112.4</ele>
        <time>2025-07-14T06:24:08Z</time>
      </trkpt>
      <trkpt lat="44.7904" lon="0.43963">
        <ele>112.6</ele>
        <time>2025-07-14T06:24:09Z</time>
      </trkpt>
      <trkpt lat="44.79038" lon="0.43961">
        <ele>112.6</ele>
        <time>2025-07-14T06:24:10Z</time>
      </trkpt>
      <trkpt lat="44.79036" lon="0.43959">
        <ele>112.8</ele>
        <time>2025-07-14T06:24:11Z</time>
      </trkpt>
      <trkpt lat="44.79033" lon="0.43958">
        <ele>112.8</ele>
        <time>2025-07-14T06:24:12Z</time>
      </trkpt>
      <trkpt lat="44.7903" lon="0.43957">
        <ele>112.8</ele>
        <time>2025-07-14T06:24:13Z</time>
      </trkpt>
      <trkpt lat="44.79026" lon="0.43957">
        <ele>112.8</ele>
        <time>2025-07-14T06:24:14Z</time>
      </trkpt>
      <trkpt lat="44.79022" lon="0.43958">
        <ele>112.8</ele>
        <time>2025-07-14T06:24:15Z</time>
      </trkpt>
      <trkpt lat="44.79019" lon="0.43959">
        <ele>112.8</ele>
        <time>2025-07-14T06:24:16Z</time>
      </trkpt>
      <trkpt lat="44.79015" lon="0.4396">
        <ele>112.6</ele>
        <time>2025-07-14T06:24:17Z</time>
      </trkpt>
      <trkpt lat="44.7901" lon="0.43961">
        <ele>112.6</ele>
        <time>2025-07-14T06:24:18Z</time>
      </trkpt>
      <trkpt lat="44.79006" lon="0.43962">
        <ele>112.4</ele>
        <time>2025-07-14T06:24:19Z</time>
      </trkpt>
      <trkpt lat="44.79002" lon="0.43961">
        <ele>112.2</ele>
        <time>2025-07-14T06:24:20Z</time>
      </trkpt>
      <trkpt lat="44.78998" lon="0.43959">
        <ele>112</ele>
        <time>2025-07-14T06:24:21Z</time>
      </trkpt>
      <trkpt lat="44.78995" lon="0.43957">
        <ele>112</ele>
        <time>2025-07-14T06:24:22Z</time>
      </trkpt>
      <trkpt lat="44.78991" lon="0.43955">
        <ele>112</ele>
        <time>2025-07-14T06:24:23Z</time>
      </trkpt>
      <trkpt lat="44.78987" lon="0.43954">
        <ele>111.8</ele>
        <time>2025-07-14T06:24:24Z</time>
      </trkpt>
      <trkpt lat="44.78982" lon="0.43955">
        <ele>111.6</ele>
        <time>2025-07-14T06:24:25Z</time>
      </trkpt>
      <trkpt lat="44.78977" lon="0.43956">
        <ele>111.6</ele>
        <time>2025-07-14T06:24:26Z</time>
      </trkpt>
      <trkpt lat="44.78972" lon="0.43959">
        <ele>111.4</ele>
        <time>2025-07-14T06:24:27Z</time>
      </trkpt>
      <trkpt lat="44.78966" lon="0.43961">
        <ele>111.2</ele>
        <time>2025-07-14T06:24:28Z</time>
      </trkpt>
      <trkpt lat="44.7896" lon="0.43961">
        <ele>111</ele>
        <time>2025-07-14T06:24:29Z</time>
      </trkpt>
      <trkpt lat="44.78955" lon="0.43959">
        <ele>110.8</ele>
        <time>2025-07-14T06:24:30Z</time>
      </trkpt>
      <trkpt lat="44.7895" lon="0.43956">
        <ele>110.4</ele>
        <time>2025-07-14T06:24:31Z</time>
      </trkpt>
      <trkpt lat="44.78945" lon="0.43952">
        <ele>110.2</ele>
        <time>2025-07-14T06:24:32Z</time>
      </trkpt>
      <trkpt lat="44.7894" lon="0.43949">
        <ele>110</ele>
        <time>2025-07-14T06:24:33Z</time>
      </trkpt>
      <trkpt lat="44.78936" lon="0.43946">
        <ele>109.8</ele>
        <time>2025-07-14T06:24:34Z</time>
      </trkpt>
      <trkpt lat="44.78932" lon="0.43943">
        <ele>109.6</ele>
        <time>2025-07-14T06:24:35Z</time>
      </trkpt>
      <trkpt lat="44.78927" lon="0.43939">
        <ele>109.6</ele>
        <time>2025-07-14T06:24:36Z</time>
      </trkpt>
      <trkpt lat="44.78922" lon="0.43935">
        <ele>109.4</ele>
        <time>2025-07-14T06:24:37Z</time>
      </trkpt>
      <trkpt lat="44.78917" lon="0.43931">
        <ele>109.2</ele>
        <time>2025-07-14T06:24:38Z</time>
      </trkpt>
      <trkpt lat="44.78912" lon="0.43925">
        <ele>108.8</ele>
        <time>2025-07-14T06:24:39Z</time>
      </trkpt>
      <trkpt lat="44.78908" lon="0.43919">
        <ele>108.6</ele>
        <time>2025-07-14T06:24:40Z</time>
      </trkpt>
      <trkpt lat="44.78903" lon="0.43914">
        <ele>108.6</ele>
        <time>2025-07-14T06:24:41Z</time>
      </trkpt>
      <trkpt lat="44.78898" lon="0.43912">
        <ele>108.4</ele>
        <time>2025-07-14T06:24:42Z</time>
      </trkpt>
      <trkpt lat="44.78893" lon="0.43913">
        <ele>108.2</ele>
        <time>2025-07-14T06:24:43Z</time>
      </trkpt>
      <trkpt lat="44.78887" lon="0.43915">
        <ele>108</ele>
        <time>2025-07-14T06:24:44Z</time>
      </trkpt>
      <trkpt lat="44.78882" lon="0.43914">
        <ele>107.8</ele>
        <time>2025-07-14T06:24:45Z</time>
      </trkpt>
      <trkpt lat="44.78877" lon="0.4391">
        <ele>107.8</ele>
        <time>2025-07-14T06:24:46Z</time>
      </trkpt>
      <trkpt lat="44.78874" lon="0.43905">
        <ele>107.6</ele>
        <time>2025-07-14T06:24:47Z</time>
      </trkpt>
      <trkpt lat="44.78871" lon="0.43899">
        <ele>107.4</ele>
        <time>2025-07-14T06:24:48Z</time>
      </trkpt>
      <trkpt lat="44.78868" lon="0.43892">
        <ele>107.2</ele>
        <time>2025-07-14T06:24:49Z</time>
      </trkpt>
      <trkpt lat="44.78865" lon="0.43886">
        <ele>107</ele>
        <time>2025-07-14T06:24:50Z</time>
      </trkpt>
      <trkpt lat="44.78863" lon="0.4388">
        <ele>106.8</ele>
        <time>2025-07-14T06:24:51Z</time>
      </trkpt>
      <trkpt lat="44.7886" lon="0.43874">
        <ele>106.6</ele>
        <time>2025-07-14T06:24:52Z</time>
      </trkpt>
      <trkpt lat="44.78856" lon="0.43868">
        <ele>106.4</ele>
        <time>2025-07-14T06:24:53Z</time>
      </trkpt>
      <trkpt lat="44.78853" lon="0.43861">
        <ele>106.4</ele>
        <time>2025-07-14T06:24:54Z</time>
      </trkpt>
      <trkpt lat="44.78851" lon="0.43854">
        <ele>106.2</ele>
        <time>2025-07-14T06:24:55Z</time>
      </trkpt>
      <trkpt lat="44.78848" lon="0.43847">
        <ele>106</ele>
        <time>2025-07-14T06:24:56Z</time>
      </trkpt>
      <trkpt lat="44.78846" lon="0.4384">
        <ele>106</ele>
        <time>2025-07-14T06:24:57Z</time>
      </trkpt>
      <trkpt lat="44.78843" lon="0.43832">
        <ele>105.8</ele>
        <time>2025-07-14T06:24:58Z</time>
      </trkpt>
      <trkpt lat="44.7884" lon="0.43826">
        <ele>105.8</ele>
        <time>2025-07-14T06:24:59Z</time>
      </trkpt>
      <trkpt lat="44.78835" lon="0.43821">
        <ele>105.6</ele>
        <time>2025-07-14T06:25:00Z</time>
      </trkpt>
      <trkpt lat="44.78829" lon="0.43819">
        <ele>105.4</ele>
        <time>2025-07-14T06:25:01Z</time>
      </trkpt>
      <trkpt lat="44.78825" lon="0.4382">
        <ele>105.2</ele>
        <time>2025-07-14T06:25:02Z</time>
      </trkpt>
      <trkpt lat="44.7882" lon="0.4382">
        <ele>105</ele>
        <time>2025-07-14T06:25:03Z</time>
      </trkpt>
      <trkpt lat="44.78816" lon="0.4382">
        <ele>104.8</ele>
        <time>2025-07-14T06:25:04Z</time>
      </trkpt>
      <trkpt lat="44.78812" lon="0.43819">
        <ele>105</ele>
        <time>2025-07-14T06:25:05Z</time>
      </trkpt>
      <trkpt lat="44.78808" lon="0.43819">
        <ele>105</ele>
        <time>2025-07-14T06:25:06Z</time>
      </trkpt>
      <trkpt lat="44.78804" lon="0.4382">
        <ele>105.2</ele>
        <time>2025-07-14T06:25:07Z</time>
      </trkpt>
      <trkpt lat="44.788" lon="0.4382">
        <ele>105.4</ele>
        <time>2025-07-14T06:25:08Z</time>
      </trkpt>
      <trkpt lat="44.78796" lon="0.43821">
        <ele>105.4</ele>
        <time>2025-07-14T06:25:09Z</time>
      </trkpt>
      <trkpt lat="44.78792" lon="0.43821">
        <ele>105.6</ele>
        <time>2025-07-14T06:25:10Z</time>
      </trkpt>
      <trkpt lat="44.78788" lon="0.43822">
        <ele>105.6</ele>
        <time>2025-07-14T06:25:11Z</time>
      </trkpt>
      <trkpt lat="44.78784" lon="0.43823">
        <ele>105.6</ele>
        <time>2025-07-14T06:25:12Z</time>
      </trkpt>
      <trkpt lat="44.7878" lon="0.43823">
        <ele>105.8</ele>
        <time>2025-07-14T06:25:13Z</time>
      </trkpt>
      <trkpt lat="44.78776" lon="0.43823">
        <ele>105.8</ele>
        <time>2025-07-14T06:25:14Z</time>
      </trkpt>
      <trkpt lat="44.78772" lon="0.43824">
        <ele>106</ele>
        <time>2025-07-14T06:25:15Z</time>
      </trkpt>
      <trkpt lat="44.78769" lon="0.43824">
        <ele>106</ele>
        <time>2025-07-14T06:25:16Z</time>
      </trkpt>
      <trkpt lat="44.78765" lon="0.43824">
        <ele>106.2</ele>
        <time>2025-07-14T06:25:17Z</time>
      </trkpt>
      <trkpt lat="44.78762" lon="0.43825">
        <ele>106.4</ele>
        <time>2025-07-14T06:25:18Z</time>
      </trkpt>
      <trkpt lat="44.78758" lon="0.43825">
        <ele>106.4</ele>
        <time>2025-07-14T06:25:19Z</time>
      </trkpt>
      <trkpt lat="44.78755" lon="0.43826">
        <ele>106.6</ele>
        <time>2025-07-14T06:25:20Z</time>
      </trkpt>
      <trkpt lat="44.78751" lon="0.43826">
        <ele>106.8</ele>
        <time>2025-07-14T06:25:21Z</time>
      </trkpt>
      <trkpt lat="44.78748" lon="0.43826">
        <ele>107</ele>
        <time>2025-07-14T06:25:22Z</time>
      </trkpt>
      <trkpt lat="44.78744" lon="0.43826">
        <ele>107.2</ele>
        <time>2025-07-14T06:25:23Z</time>
      </trkpt>
      <trkpt lat="44.7874" lon="0.43826">
        <ele>107.2</ele>
        <time>2025-07-14T06:25:24Z</time>
      </trkpt>
      <trkpt lat="44.78737" lon="0.43826">
        <ele>107.4</ele>
        <time>2025-07-14T06:25:25Z</time>
      </trkpt>
      <trkpt lat="44.78734" lon="0.43826">
        <ele>107.6</ele>
        <time>2025-07-14T06:25:26Z</time>
      </trkpt>
      <trkpt lat="44.7873" lon="0.43826">
        <ele>107.6</ele>
        <time>2025-07-14T06:25:27Z</time>
      </trkpt>
      <trkpt lat="44.78727" lon="0.43826">
        <ele>107.8</ele>
        <time>2025-07-14T06:25:28Z</time>
      </trkpt>
      <trkpt lat="44.78723" lon="0.43826">
        <ele>107.8</ele>
        <time>2025-07-14T06:25:29Z</time>
      </trkpt>
      <trkpt lat="44.7872" lon="0.43825">
        <ele>108</ele>
        <time>2025-07-14T06:25:30Z</time>
      </trkpt>
      <trkpt lat="44.78716" lon="0.43825">
        <ele>108</ele>
        <time>2025-07-14T06:25:31Z</time>
      </trkpt>
      <trkpt lat="44.78712" lon="0.43825">
        <ele>108.2</ele>
        <time>2025-07-14T06:25:32Z</time>
      </trkpt>
      <trkpt lat="44.78709" lon="0.43825">
        <ele>108.2</ele>
        <time>2025-07-14T06:25:33Z</time>
      </trkpt>
      <trkpt lat="44.78705" lon="0.43824">
        <ele>108.4</ele>
        <time>2025-07-14T06:25:34Z</time>
      </trkpt>
      <trkpt lat="44.78702" lon="0.43824">
        <ele>108.4</ele>
        <time>2025-07-14T06:25:35Z</time>
      </trkpt>
      <trkpt lat="44.78698" lon="0.43823">
        <ele>108.6</ele>
        <time>2025-07-14T06:25:36Z</time>
      </trkpt>
      <trkpt lat="44.78695" lon="0.43823">
        <ele>108.8</ele>
        <time>2025-07-14T06:25:37Z</time>
      </trkpt>
      <trkpt lat="44.78692" lon="0.43821">
        <ele>108.8</ele>
        <time>2025-07-14T06:25:38Z</time>
      </trkpt>
      <trkpt lat="44.78688" lon="0.4382">
        <ele>109</ele>
        <time>2025-07-14T06:25:39Z</time>
      </trkpt>
      <trkpt lat="44.78686" lon="0.43818">
        <ele>109.2</ele>
        <time>2025-07-14T06:25:40Z</time>
      </trkpt>
      <trkpt lat="44.78683" lon="0.43816">
        <ele>109.2</ele>
        <time>2025-07-14T06:25:41Z</time>
      </trkpt>
      <trkpt lat="44.7868" lon="0.43814">
        <ele>109.4</ele>
        <time>2025-07-14T06:25:42Z</time>
      </trkpt>
      <trkpt lat="44.78677" lon="0.43811">
        <ele>109.4</ele>
        <time>2025-07-14T06:25:43Z</time>
      </trkpt>
      <trkpt lat="44.78674" lon="0.43809">
        <ele>109.6</ele>
        <time>2025-07-14T06:25:44Z</time>
      </trkpt>
      <trkpt lat="44.78671" lon="0.43807">
        <ele>109.6</ele>
        <time>2025-07-14T06:25:45Z</time>
      </trkpt>
      <trkpt lat="44.78668" lon="0.43805">
        <ele>109.8</ele>
        <time>2025-07-14T06:25:46Z</time>
      </trkpt>
      <trkpt lat="44.78664" lon="0.43803">
        <ele>109.8</ele>
        <time>2025-07-14T06:25:47Z</time>
      </trkpt>
      <trkpt lat="44.78661" lon="0.43801">
        <ele>110</ele>
        <time>2025-07-14T06:25:48Z</time>
      </trkpt>
      <trkpt lat="44.78658" lon="0.43799">
        <ele>110</ele>
        <time>2025-07-14T06:25:49Z</time>
      </trkpt>
      <trkpt lat="44.78655" lon="0.43796">
        <ele>110</ele>
        <time>2025-07-14T06:25:50Z</time>
      </trkpt>
      <trkpt lat="44.78652" lon="0.43794">
        <ele>110.2</ele>
        <time>2025-07-14T06:25:51Z</time>
      </trkpt>
      <trkpt lat="44.78648" lon="0.43793">
        <ele>110.2</ele>
        <time>2025-07-14T06:25:52Z</time>
      </trkpt>
      <trkpt lat="44.78645" lon="0.43792">
        <ele>110.4</ele>
        <time>2025-07-14T06:25:53Z</time>
      </trkpt>
      <trkpt lat="44.78642" lon="0.4379">
        <ele>110.6</ele>
        <time>2025-07-14T06:25:54Z</time>
      </trkpt>
      <trkpt lat="44.78638" lon="0.43788">
        <ele>110.6</ele>
        <time>2025-07-14T06:25:55Z</time>
      </trkpt>
      <trkpt lat="44.78636" lon="0.43785">
        <ele>110.8</ele>
        <time>2025-07-14T06:25:56Z</time>
      </trkpt>
      <trkpt lat="44.78636" lon="0.43782">
        <ele>110.8</ele>
        <time>2025-07-14T06:25:57Z</time>
      </trkpt>
      <trkpt lat="44.78637" lon="0.43778">
        <ele>110.8</ele>
        <time>2025-07-14T06:25:58Z</time>
      </trkpt>
      <trkpt lat="44.78638" lon="0.43773">
        <ele>110.8</ele>
        <time>2025-07-14T06:25:59Z</time>
      </trkpt>
      <trkpt lat="44.7864" lon="0.43767">
        <ele>110.8</ele>
        <time>2025-07-14T06:26:00Z</time>
      </trkpt>
      <trkpt lat="44.78642" lon="0.4376">
        <ele>110.8</ele>
        <time>2025-07-14T06:26:01Z</time>
      </trkpt>
      <trkpt lat="44.78644" lon="0.43754">
        <ele>110.6</ele>
        <time>2025-07-14T06:26:02Z</time>
      </trkpt>
      <trkpt lat="44.78647" lon="0.43749">
        <ele>110.4</ele>
        <time>2025-07-14T06:26:03Z</time>
      </trkpt>
      <trkpt lat="44.7865" lon="0.43742">
        <ele>110.2</ele>
        <time>2025-07-14T06:26:04Z</time>
      </trkpt>
      <trkpt lat="44.78654" lon="0.43735">
        <ele>109.8</ele>
        <time>2025-07-14T06:26:05Z</time>
      </trkpt>
      <trkpt lat="44.78658" lon="0.43728">
        <ele>109.6</ele>
        <time>2025-07-14T06:26:06Z</time>
      </trkpt>
      <trkpt lat="44.78661" lon="0.43721">
        <ele>109.4</ele>
        <time>2025-07-14T06:26:07Z</time>
      </trkpt>
      <trkpt lat="44.78665" lon="0.43713">
        <ele>109</ele>
        <time>2025-07-14T06:26:08Z</time>
      </trkpt>
      <trkpt lat="44.78668" lon="0.43706">
        <ele>108.8</ele>
        <time>2025-07-14T06:26:09Z</time>
      </trkpt>
      <trkpt lat="44.78672" lon="0.43699">
        <ele>108.6</ele>
        <time>2025-07-14T06:26:10Z</time>
      </trkpt>
      <trkpt lat="44.78677" lon="0.43694">
        <ele>108.4</ele>
        <time>2025-07-14T06:26:11Z</time>
      </trkpt>
      <trkpt lat="44.78681" lon="0.43691">
        <ele>108.2</ele>
        <time>2025-07-14T06:26:12Z</time>
      </trkpt>
      <trkpt lat="44.78685" lon="0.43692">
        <ele>108.2</ele>
        <time>2025-07-14T06:26:13Z</time>
      </trkpt>
      <trkpt lat="44.78688" lon="0.43692">
        <ele>108</ele>
        <time>2025-07-14T06:26:14Z</time>
      </trkpt>
      <trkpt lat="44.78692" lon="0.43693">
        <ele>108</ele>
        <time>2025-07-14T06:26:15Z</time>
      </trkpt>
      <trkpt lat="44.78696" lon="0.43695">
        <ele>107.8</ele>
        <time>2025-07-14T06:26:16Z</time>
      </trkpt>
      <trkpt lat="44.787" lon="0.43699">
        <ele>107.8</ele>
        <time>2025-07-14T06:26:17Z</time>
      </trkpt>
      <trkpt lat="44.78703" lon="0.43703">
        <ele>107.6</ele>
        <time>2025-07-14T06:26:18Z</time>
      </trkpt>
      <trkpt lat="44.78705" lon="0.43708">
        <ele>107.4</ele>
        <time>2025-07-14T06:26:19Z</time>
      </trkpt>
      <trkpt lat="44.78708" lon="0.43714">
        <ele>107.2</ele>
        <time>2025-07-14T06:26:20Z</time>
      </trkpt>
      <trkpt lat="44.78711" lon="0.43718">
        <ele>107.2</ele>
        <time>2025-07-14T06:26:21Z</time>
      </trkpt>
      <trkpt lat="44.78714" lon="0.4372">
        <ele>107</ele>
        <time>2025-07-14T06:26:22Z</time>
      </trkpt>
      <trkpt lat="44.78715" lon="0.43722">
        <ele>107</ele>
        <time>2025-07-14T06:26:23Z</time>
      </trkpt>
      <trkpt lat="44.78715" lon="0.43723">
        <ele>107</ele>
        <time>2025-07-14T06:26:24Z</time>
      </trkpt>
      <trkpt lat="44.78715" lon="0.43722">
        <ele>107</ele>
        <time>2025-07-14T06:26:25Z</time>
      </trkpt>
      <trkpt lat="44.78724" lon="0.43723">
        <ele>106.6</ele>
        <time>2025-07-14T06:26:38Z</time>
      </trkpt>
      <trkpt lat="44.78726" lon="0.43721">
        <ele>106.4</ele>
        <time>2025-07-14T06:26:39Z</time>
      </trkpt>
      <trkpt lat="44.78729" lon="0.43717">
        <ele>106.2</ele>
        <time>2025-07-14T06:26:40Z</time>
      </trkpt>
      <trkpt lat="44.78729" lon="0.43712">
        <ele>105.8</ele>
        <time>2025-07-14T06:26:41Z</time>
      </trkpt>
      <trkpt lat="44.78728" lon="0.43708">
        <ele>105.6</ele>
        <time>2025-07-14T06:26:42Z</time>
      </trkpt>
      <trkpt lat="44.78726" lon="0.43704">
        <ele>105.2</ele>
        <time>2025-07-14T06:26:43Z</time>
      </trkpt>
      <trkpt lat="44.78726" lon="0.43698">
        <ele>105</ele>
        <time>2025-07-14T06:26:44Z</time>
      </trkpt>
      <trkpt lat="44.78729" lon="0.43694">
        <ele>104.8</ele>
        <time>2025-07-14T06:26:45Z</time>
      </trkpt>
      <trkpt lat="44.78732" lon="0.43689">
        <ele>104.6</ele>
        <time>2025-07-14T06:26:46Z</time>
      </trkpt>
      <trkpt lat="44.78733" lon="0.43684">
        <ele>104.4</ele>
        <time>2025-07-14T06:26:47Z</time>
      </trkpt>
      <trkpt lat="44.78732" lon="0.43678">
        <ele>104</ele>
        <time>2025-07-14T06:26:48Z</time>
      </trkpt>
      <trkpt lat="44.7873" lon="0.43674">
        <ele>103.8</ele>
        <time>2025-07-14T06:26:49Z</time>
      </trkpt>
      <trkpt lat="44.78727" lon="0.43672">
        <ele>103.6</ele>
        <time>2025-07-14T06:26:50Z</time>
      </trkpt>
      <trkpt lat="44.78723" lon="0.4367">
        <ele>103.4</ele>
        <time>2025-07-14T06:26:51Z</time>
      </trkpt>
      <trkpt lat="44.78721" lon="0.43666">
        <ele>103.4</ele>
        <time>2025-07-14T06:26:52Z</time>
      </trkpt>
      <trkpt lat="44.78719" lon="0.43661">
        <ele>103.4</ele>
        <time>2025-07-14T06:26:53Z</time>
      </trkpt>
      <trkpt lat="44.78717" lon="0.43657">
        <ele>103.4</ele>
        <time>2025-07-14T06:26:54Z</time>
      </trkpt>
      <trkpt lat="44.78716" lon="0.43652">
        <ele>103.4</ele>
        <time>2025-07-14T06:26:55Z</time>
      </trkpt>
      <trkpt lat="44.78714" lon="0.43647">
        <ele>103.6</ele>
        <time>2025-07-14T06:26:56Z</time>
      </trkpt>
      <trkpt lat="44.78712" lon="0.43642">
        <ele>103.6</ele>
        <time>2025-07-14T06:26:57Z</time>
      </trkpt>
      <trkpt lat="44.78712" lon="0.43637">
        <ele>103.6</ele>
        <time>2025-07-14T06:26:58Z</time>
      </trkpt>
      <trkpt lat="44.78714" lon="0.43633">
        <ele>103.6</ele>
        <time>2025-07-14T06:26:59Z</time>
      </trkpt>
      <trkpt lat="44.78716" lon="0.43629">
        <ele>103.6</ele>
        <time>2025-07-14T06:27:00Z</time>
      </trkpt>
      <trkpt lat="44.78719" lon="0.43628">
        <ele>103.4</ele>
        <time>2025-07-14T06:27:01Z</time>
      </trkpt>
      <trkpt lat="44.78721" lon="0.4363">
        <ele>103.2</ele>
        <time>2025-07-14T06:27:02Z</time>
      </trkpt>
      <trkpt lat="44.78721" lon="0.43632">
        <ele>103</ele>
        <time>2025-07-14T06:27:03Z</time>
      </trkpt>
      <trkpt lat="44.78722" lon="0.43635">
        <ele>102.6</ele>
        <time>2025-07-14T06:27:04Z</time>
      </trkpt>
      <trkpt lat="44.78723" lon="0.43637">
        <ele>102.4</ele>
        <time>2025-07-14T06:27:05Z</time>
      </trkpt>
      <trkpt lat="44.78724" lon="0.4364">
        <ele>102.2</ele>
        <time>2025-07-14T06:27:06Z</time>
      </trkpt>
      <trkpt lat="44.78727" lon="0.43642">
        <ele>102</ele>
        <time>2025-07-14T06:27:07Z</time>
      </trkpt>
      <trkpt lat="44.7873" lon="0.43641">
        <ele>102</ele>
        <time>2025-07-14T06:27:08Z</time>
      </trkpt>
      <trkpt lat="44.78732" lon="0.43639">
        <ele>101.8</ele>
        <time>2025-07-14T06:27:09Z</time>
      </trkpt>
      <trkpt lat="44.78734" lon="0.43635">
        <ele>101.8</ele>
        <time>2025-07-14T06:27:10Z</time>
      </trkpt>
      <trkpt lat="44.78737" lon="0.43632">
        <ele>101.4</ele>
        <time>2025-07-14T06:27:11Z</time>
      </trkpt>
      <trkpt lat="44.7874" lon="0.43633">
        <ele>101.2</ele>
        <time>2025-07-14T06:27:12Z</time>
      </trkpt>
      <trkpt lat="44.78741" lon="0.43635">
        <ele>101</ele>
        <time>2025-07-14T06:27:13Z</time>
      </trkpt>
      <trkpt lat="44.78743" lon="0.43638">
        <ele>100.8</ele>
        <time>2025-07-14T06:27:14Z</time>
      </trkpt>
      <trkpt lat="44.78746" lon="0.4364">
        <ele>100.6</ele>
        <time>2025-07-14T06:27:15Z</time>
      </trkpt>
      <trkpt lat="44.78749" lon="0.43641">
        <ele>100.6</ele>
        <time>2025-07-14T06:27:16Z</time>
      </trkpt>
      <trkpt lat="44.78751" lon="0.43641">
        <ele>100.6</ele>
        <time>2025-07-14T06:27:17Z</time>
      </trkpt>
      <trkpt lat="44.78753" lon="0.43638">
        <ele>100.6</ele>
        <time>2025-07-14T06:27:18Z</time>
      </trkpt>
      <trkpt lat="44.78753" lon="0.43635">
        <ele>100.8</ele>
        <time>2025-07-14T06:27:19Z</time>
      </trkpt>
      <trkpt lat="44.78753" lon="0.43632">
        <ele>100.8</ele>
        <time>2025-07-14T06:27:20Z</time>
      </trkpt>
      <trkpt lat="44.78753" lon="0.4363">
        <ele>100.8</ele>
        <time>2025-07-14T06:27:21Z</time>
      </trkpt>
      <trkpt lat="44.78755" lon="0.43628">
        <ele>100.8</ele>
        <time>2025-07-14T06:27:22Z</time>
      </trkpt>
      <trkpt lat="44.78757" lon="0.43624">
        <ele>100.8</ele>
        <time>2025-07-14T06:27:23Z</time>
      </trkpt>
      <trkpt lat="44.7876" lon="0.43623">
        <ele>100.8</ele>
        <time>2025-07-14T06:27:24Z</time>
      </trkpt>
      <trkpt lat="44.78763" lon="0.43623">
        <ele>100.8</ele>
        <time>2025-07-14T06:27:25Z</time>
      </trkpt>
      <trkpt lat="44.78766" lon="0.43625">
        <ele>100.6</ele>
        <time>2025-07-14T06:27:26Z</time>
      </trkpt>
      <trkpt lat="44.78769" lon="0.43627">
        <ele>100.6</ele>
        <time>2025-07-14T06:27:27Z</time>
      </trkpt>
      <trkpt lat="44.78771" lon="0.43629">
        <ele>100.8</ele>
        <time>2025-07-14T06:27:28Z</time>
      </trkpt>
      <trkpt lat="44.78774" lon="0.43629">
        <ele>100.8</ele>
        <time>2025-07-14T06:27:29Z</time>
      </trkpt>
      <trkpt lat="44.78775" lon="0.43627">
        <ele>100.8</ele>
        <time>2025-07-14T06:27:30Z</time>
      </trkpt>
      <trkpt lat="44.78775" lon="0.43626">
        <ele>100.8</ele>
        <time>2025-07-14T06:27:31Z</time>
      </trkpt>
      <trkpt lat="44.78774" lon="0.43624">
        <ele>101.2</ele>
        <time>2025-07-14T06:27:32Z</time>
      </trkpt>
      <trkpt lat="44.78773" lon="0.43622">
        <ele>101.4</ele>
        <time>2025-07-14T06:27:33Z</time>
      </trkpt>
      <trkpt lat="44.78773" lon="0.43618">
        <ele>101.6</ele>
        <time>2025-07-14T06:27:34Z</time>
      </trkpt>
      <trkpt lat="44.78772" lon="0.43614">
        <ele>101.8</ele>
        <time>2025-07-14T06:27:35Z</time>
      </trkpt>
      <trkpt lat="44.78771" lon="0.4361">
        <ele>101.8</ele>
        <time>2025-07-14T06:27:36Z</time>
      </trkpt>
      <trkpt lat="44.78771" lon="0.43606">
        <ele>101.8</ele>
        <time>2025-07-14T06:27:37Z</time>
      </trkpt>
      <trkpt lat="44.78771" lon="0.43602">
        <ele>101.8</ele>
        <time>2025-07-14T06:27:38Z</time>
      </trkpt>
      <trkpt lat="44.7877" lon="0.43597">
        <ele>101.8</ele>
        <time>2025-07-14T06:27:39Z</time>
      </trkpt>
      <trkpt lat="44.78771" lon="0.43593">
        <ele>101.8</ele>
        <time>2025-07-14T06:27:40Z</time>
      </trkpt>
      <trkpt lat="44.78773" lon="0.43589">
        <ele>101.8</ele>
        <time>2025-07-14T06:27:41Z</time>
      </trkpt>
      <trkpt lat="44.78775" lon="0.43587">
        <ele>101.8</ele>
        <time>2025-07-14T06:27:42Z</time>
      </trkpt>
      <trkpt lat="44.78777" lon="0.43585">
        <ele>102</ele>
        <time>2025-07-14T06:27:43Z</time>
      </trkpt>
      <trkpt lat="44.78779" lon="0.43583">
        <ele>102.2</ele>
        <time>2025-07-14T06:27:44Z</time>
      </trkpt>
      <trkpt lat="44.7878" lon="0.4358">
        <ele>102.6</ele>
        <time>2025-07-14T06:27:45Z</time>
      </trkpt>
      <trkpt lat="44.78783" lon="0.43577">
        <ele>102.8</ele>
        <time>2025-07-14T06:27:46Z</time>
      </trkpt>
      <trkpt lat="44.78784" lon="0.43574">
        <ele>103</ele>
        <time>2025-07-14T06:27:47Z</time>
      </trkpt>
      <trkpt lat="44.78785" lon="0.43572">
        <ele>103</ele>
        <time>2025-07-14T06:27:48Z</time>
      </trkpt>
      <trkpt lat="44.78787" lon="0.43569">
        <ele>103.2</ele>
        <time>2025-07-14T06:27:49Z</time>
      </trkpt>
      <trkpt lat="44.78789" lon="0.43566">
        <ele>103.4</ele>
        <time>2025-07-14T06:27:50Z</time>
      </trkpt>
      <trkpt lat="44.7879" lon="0.43563">
        <ele>103.4</ele>
        <time>2025-07-14T06:27:51Z</time>
      </trkpt>
      <trkpt lat="44.78791" lon="0.4356">
        <ele>103.4</ele>
        <time>2025-07-14T06:27:52Z</time>
      </trkpt>
      <trkpt lat="44.78793" lon="0.43557">
        <ele>103.4</ele>
        <time>2025-07-14T06:27:53Z</time>
      </trkpt>
      <trkpt lat="44.78793" lon="0.43552">
        <ele>103.4</ele>
        <time>2025-07-14T06:27:54Z</time>
      </trkpt>
      <trkpt lat="44.78793" lon="0.4355">
        <ele>103.6</ele>
        <time>2025-07-14T06:27:55Z</time>
      </trkpt>
      <trkpt lat="44.78793" lon="0.43547">
        <ele>103.6</ele>
        <time>2025-07-14T06:27:56Z</time>
      </trkpt>
      <trkpt lat="44.78791" lon="0.43544">
        <ele>103.8</ele>
        <time>2025-07-14T06:27:57Z</time>
      </trkpt>
      <trkpt lat="44.7879" lon="0.43541">
        <ele>103.8</ele>
        <time>2025-07-14T06:27:58Z</time>
      </trkpt>
      <trkpt lat="44.7879" lon="0.43538">
        <ele>104</ele>
        <time>2025-07-14T06:27:59Z</time>
      </trkpt>
      <trkpt lat="44.7879" lon="0.43535">
        <ele>104.2</ele>
        <time>2025-07-14T06:28:00Z</time>
      </trkpt>
      <trkpt lat="44.7879" lon="0.43531">
        <ele>104.4</ele>
        <time>2025-07-14T06:28:01Z</time>
      </trkpt>
      <trkpt lat="44.7879" lon="0.43527">
        <ele>104.6</ele>
        <time>2025-07-14T06:28:02Z</time>
      </trkpt>
      <trkpt lat="44.7879" lon="0.43524">
        <ele>104.8</ele>
        <time>2025-07-14T06:28:03Z</time>
      </trkpt>
      <trkpt lat="44.78791" lon="0.43521">
        <ele>105</ele>
        <time>2025-07-14T06:28:04Z</time>
      </trkpt>
      <trkpt lat="44.78791" lon="0.43518">
        <ele>105.4</ele>
        <time>2025-07-14T06:28:05Z</time>
      </trkpt>
      <trkpt lat="44.78791" lon="0.43515">
        <ele>105.6</ele>
        <time>2025-07-14T06:28:06Z</time>
      </trkpt>
      <trkpt lat="44.78791" lon="0.43511">
        <ele>106</ele>
        <time>2025-07-14T06:28:07Z</time>
      </trkpt>
      <trkpt lat="44.78788" lon="0.43509">
        <ele>106.2</ele>
        <time>2025-07-14T06:28:08Z</time>
      </trkpt>
      <trkpt lat="44.78785" lon="0.43508">
        <ele>106.4</ele>
        <time>2025-07-14T06:28:09Z</time>
      </trkpt>
      <trkpt lat="44.78784" lon="0.43504">
        <ele>106.6</ele>
        <time>2025-07-14T06:28:10Z</time>
      </trkpt>
      <trkpt lat="44.78781" lon="0.43501">
        <ele>106.6</ele>
        <time>2025-07-14T06:28:11Z</time>
      </trkpt>
      <trkpt lat="44.78778" lon="0.43498">
        <ele>106.6</ele>
        <time>2025-07-14T06:28:12Z</time>
      </trkpt>
      <trkpt lat="44.78775" lon="0.43494">
        <ele>106.6</ele>
        <time>2025-07-14T06:28:13Z</time>
      </trkpt>
      <trkpt lat="44.78771" lon="0.4349">
        <ele>106.4</ele>
        <time>2025-07-14T06:28:14Z</time>
      </trkpt>
      <trkpt lat="44.78766" lon="0.43486">
        <ele>106</ele>
        <time>2025-07-14T06:28:15Z</time>
      </trkpt>
      <trkpt lat="44.78761" lon="0.43482">
        <ele>105.6</ele>
        <time>2025-07-14T06:28:16Z</time>
      </trkpt>
      <trkpt lat="44.78754" lon="0.43478">
        <ele>105</ele>
        <time>2025-07-14T06:28:17Z</time>
      </trkpt>
      <trkpt lat="44.78749" lon="0.43475">
        <ele>104.2</ele>
        <time>2025-07-14T06:28:18Z</time>
      </trkpt>
      <trkpt lat="44.78745" lon="0.43469">
        <ele>103.6</ele>
        <time>2025-07-14T06:28:19Z</time>
      </trkpt>
      <trkpt lat="44.78741" lon="0.43463">
        <ele>103.2</ele>
        <time>2025-07-14T06:28:20Z</time>
      </trkpt>
      <trkpt lat="44.78738" lon="0.43456">
        <ele>102.6</ele>
        <time>2025-07-14T06:28:21Z</time>
      </trkpt>
      <trkpt lat="44.78735" lon="0.43448">
        <ele>102.2</ele>
        <time>2025-07-14T06:28:22Z</time>
      </trkpt>
      <trkpt lat="44.78734" lon="0.4344">
        <ele>102</ele>
        <time>2025-07-14T06:28:23Z</time>
      </trkpt>
      <trkpt lat="44.78733" lon="0.43433">
        <ele>101.4</ele>
        <time>2025-07-14T06:28:24Z</time>
      </trkpt>
      <trkpt lat="44.78732" lon="0.43425">
        <ele>101</ele>
        <time>2025-07-14T06:28:25Z</time>
      </trkpt>
      <trkpt lat="44.78732" lon="0.43419">
        <ele>101</ele>
        <time>2025-07-14T06:28:26Z</time>
      </trkpt>
      <trkpt lat="44.78732" lon="0.43413">
        <ele>100.8</ele>
        <time>2025-07-14T06:28:27Z</time>
      </trkpt>
      <trkpt lat="44.78731" lon="0.43408">
        <ele>101</ele>
        <time>2025-07-14T06:28:28Z</time>
      </trkpt>
      <trkpt lat="44.78731" lon="0.43403">
        <ele>101.2</ele>
        <time>2025-07-14T06:28:29Z</time>
      </trkpt>
      <trkpt lat="44.7873" lon="0.43399">
        <ele>101.2</ele>
        <time>2025-07-14T06:28:30Z</time>
      </trkpt>
      <trkpt lat="44.78729" lon="0.43394">
        <ele>101.6</ele>
        <time>2025-07-14T06:28:31Z</time>
      </trkpt>
      <trkpt lat="44.78728" lon="0.4339">
        <ele>101.8</ele>
        <time>2025-07-14T06:28:32Z</time>
      </trkpt>
      <trkpt lat="44.78727" lon="0.43385">
        <ele>102</ele>
        <time>2025-07-14T06:28:33Z</time>
      </trkpt>
      <trkpt lat="44.78727" lon="0.4338">
        <ele>102.2</ele>
        <time>2025-07-14T06:28:34Z</time>
      </trkpt>
      <trkpt lat="44.78728" lon="0.43378">
        <ele>102.6</ele>
        <time>2025-07-14T06:28:35Z</time>
      </trkpt>
      <trkpt lat="44.78729" lon="0.43377">
        <ele>102.8</ele>
        <time>2025-07-14T06:28:36Z</time>
      </trkpt>
      <trkpt lat="44.7873" lon="0.43376">
        <ele>103</ele>
        <time>2025-07-14T06:28:37Z</time>
      </trkpt>
      <trkpt lat="44.78732" lon="0.43376">
        <ele>103.2</ele>
        <time>2025-07-14T06:28:38Z</time>
      </trkpt>
      <trkpt lat="44.78733" lon="0.43375">
        <ele>103.4</ele>
        <time>2025-07-14T06:28:39Z</time>
      </trkpt>
      <trkpt lat="44.78735" lon="0.43374">
        <ele>103.8</ele>
        <time>2025-07-14T06:28:40Z</time>
      </trkpt>
      <trkpt lat="44.78736" lon="0.43372">
        <ele>104</ele>
        <time>2025-07-14T06:28:41Z</time>
      </trkpt>
      <trkpt lat="44.78738" lon="0.4337">
        <ele>104.2</ele>
        <time>2025-07-14T06:28:42Z</time>
      </trkpt>
      <trkpt lat="44.78739" lon="0.43368">
        <ele>104.6</ele>
        <time>2025-07-14T06:28:43Z</time>
      </trkpt>
      <trkpt lat="44.7874" lon="0.43365">
        <ele>104.8</ele>
        <time>2025-07-14T06:28:44Z</time>
      </trkpt>
      <trkpt lat="44.78742" lon="0.43363">
        <ele>105</ele>
        <time>2025-07-14T06:28:45Z</time>
      </trkpt>
      <trkpt lat="44.78743" lon="0.43362">
        <ele>105.4</ele>
        <time>2025-07-14T06:28:46Z</time>
      </trkpt>
      <trkpt lat="44.78745" lon="0.4336">
        <ele>105.6</ele>
        <time>2025-07-14T06:28:47Z</time>
      </trkpt>
      <trkpt lat="44.78747" lon="0.43358">
        <ele>105.8</ele>
        <time>2025-07-14T06:28:48Z</time>
      </trkpt>
      <trkpt lat="44.78748" lon="0.43355">
        <ele>106.2</ele>
        <time>2025-07-14T06:28:49Z</time>
      </trkpt>
      <trkpt lat="44.7875" lon="0.43353">
        <ele>106.4</ele>
        <time>2025-07-14T06:28:50Z</time>
      </trkpt>
      <trkpt lat="44.78751" lon="0.43351">
        <ele>106.6</ele>
        <time>2025-07-14T06:28:51Z</time>
      </trkpt>
      <trkpt lat="44.78753" lon="0.43349">
        <ele>106.8</ele>
        <time>2025-07-14T06:28:52Z</time>
      </trkpt>
      <trkpt lat="44.78755" lon="0.43347">
        <ele>107</ele>
        <time>2025-07-14T06:28:53Z</time>
      </trkpt>
      <trkpt lat="44.78756" lon="0.43345">
        <ele>107.2</ele>
        <time>2025-07-14T06:28:54Z</time>
      </trkpt>
      <trkpt lat="44.78758" lon="0.43343">
        <ele>107.4</ele>
        <time>2025-07-14T06:28:55Z</time>
      </trkpt>
      <trkpt lat="44.78758" lon="0.43339">
        <ele>107.6</ele>
        <time>2025-07-14T06:28:56Z</time>
      </trkpt>
      <trkpt lat="44.7876" lon="0.43337">
        <ele>107.8</ele>
        <time>2025-07-14T06:28:57Z</time>
      </trkpt>
      <trkpt lat="44.78761" lon="0.43334">
        <ele>108</ele>
        <time>2025-07-14T06:28:58Z</time>
      </trkpt>
      <trkpt lat="44.78763" lon="0.43333">
        <ele>108.2</ele>
        <time>2025-07-14T06:28:59Z</time>
      </trkpt>
      <trkpt lat="44.78764" lon="0.43332">
        <ele>108.2</ele>
        <time>2025-07-14T06:29:00Z</time>
      </trkpt>
      <trkpt lat="44.78765" lon="0.43329">
        <ele>108.4</ele>
        <time>2025-07-14T06:29:01Z</time>
      </trkpt>
      <trkpt lat="44.78765" lon="0.43327">
        <ele>108.6</ele>
        <time>2025-07-14T06:29:02Z</time>
      </trkpt>
      <trkpt lat="44.78764" lon="0.43326">
        <ele>108.6</ele>
        <time>2025-07-14T06:29:03Z</time>
      </trkpt>
      <trkpt lat="44.78763" lon="0.43325">
        <ele>108.8</ele>
        <time>2025-07-14T06:29:04Z</time>
      </trkpt>
      <trkpt lat="44.78761" lon="0.43324">
        <ele>108.8</ele>
        <time>2025-07-14T06:29:05Z</time>
      </trkpt>
      <trkpt lat="44.78759" lon="0.43323">
        <ele>108.6</ele>
        <time>2025-07-14T06:29:06Z</time>
      </trkpt>
      <trkpt lat="44.78755" lon="0.43321">
        <ele>108.6</ele>
        <time>2025-07-14T06:29:07Z</time>
      </trkpt>
      <trkpt lat="44.7875" lon="0.4332">
        <ele>108.2</ele>
        <time>2025-07-14T06:29:08Z</time>
      </trkpt>
      <trkpt lat="44.78745" lon="0.43319">
        <ele>107.8</ele>
        <time>2025-07-14T06:29:09Z</time>
      </trkpt>
      <trkpt lat="44.78742" lon="0.43318">
        <ele>107.2</ele>
        <time>2025-07-14T06:29:10Z</time>
      </trkpt>
      <trkpt lat="44.78739" lon="0.43315">
        <ele>106.8</ele>
        <time>2025-07-14T06:29:11Z</time>
      </trkpt>
      <trkpt lat="44.78735" lon="0.4331">
        <ele>106.4</ele>
        <time>2025-07-14T06:29:12Z</time>
      </trkpt>
      <trkpt lat="44.78733" lon="0.43305">
        <ele>105.8</ele>
        <time>2025-07-14T06:29:13Z</time>
      </trkpt>
      <trkpt lat="44.78731" lon="0.43302">
        <ele>105.2</ele>
        <time>2025-07-14T06:29:14Z</time>
      </trkpt>
      <trkpt lat="44.78728" lon="0.43301">
        <ele>104.6</ele>
        <time>2025-07-14T06:29:15Z</time>
      </trkpt>
      <trkpt lat="44.78726" lon="0.43302">
        <ele>104.2</ele>
        <time>2025-07-14T06:29:16Z</time>
      </trkpt>
      <trkpt lat="44.78725" lon="0.43304">
        <ele>104</ele>
        <time>2025-07-14T06:29:17Z</time>
      </trkpt>
      <trkpt lat="44.78724" lon="0.43306">
        <ele>103.6</ele>
        <time>2025-07-14T06:29:18Z</time>
      </trkpt>
      <trkpt lat="44.78724" lon="0.4331">
        <ele>103.4</ele>
        <time>2025-07-14T06:29:19Z</time>
      </trkpt>
      <trkpt lat="44.78724" lon="0.43313">
        <ele>103.4</ele>
        <time>2025-07-14T06:29:20Z</time>
      </trkpt>
      <trkpt lat="44.78723" lon="0.43315">
        <ele>103.2</ele>
        <time>2025-07-14T06:29:21Z</time>
      </trkpt>
      <trkpt lat="44.78719" lon="0.43316">
        <ele>103.2</ele>
        <time>2025-07-14T06:29:22Z</time>
      </trkpt>
      <trkpt lat="44.78715" lon="0.43318">
        <ele>103</ele>
        <time>2025-07-14T06:29:23Z</time>
      </trkpt>
      <trkpt lat="44.78712" lon="0.43317">
        <ele>102.8</ele>
        <time>2025-07-14T06:29:24Z</time>
      </trkpt>
      <trkpt lat="44.78708" lon="0.43317">
        <ele>102.6</ele>
        <time>2025-07-14T06:29:25Z</time>
      </trkpt>
      <trkpt lat="44.78703" lon="0.43314">
        <ele>102.2</ele>
        <time>2025-07-14T06:29:26Z</time>
      </trkpt>
      <trkpt lat="44.78699" lon="0.4331">
        <ele>101.6</ele>
        <time>2025-07-14T06:29:27Z</time>
      </trkpt>
      <trkpt lat="44.78695" lon="0.43305">
        <ele>101</ele>
        <time>2025-07-14T06:29:28Z</time>
      </trkpt>
      <trkpt lat="44.7869" lon="0.433">
        <ele>100.4</ele>
        <time>2025-07-14T06:29:29Z</time>
      </trkpt>
      <trkpt lat="44.78685" lon="0.43296">
        <ele>99.8</ele>
        <time>2025-07-14T06:29:30Z</time>
      </trkpt>
      <trkpt lat="44.78681" lon="0.43291">
        <ele>99.4</ele>
        <time>2025-07-14T06:29:31Z</time>
      </trkpt>
      <trkpt lat="44.78676" lon="0.43286">
        <ele>99.2</ele>
        <time>2025-07-14T06:29:32Z</time>
      </trkpt>
      <trkpt lat="44.78673" lon="0.43282">
        <ele>99</ele>
        <time>2025-07-14T06:29:33Z</time>
      </trkpt>
      <trkpt lat="44.78669" lon="0.43279">
        <ele>98.8</ele>
        <time>2025-07-14T06:29:34Z</time>
      </trkpt>
      <trkpt lat="44.78665" lon="0.4328">
        <ele>98.6</ele>
        <time>2025-07-14T06:29:35Z</time>
      </trkpt>
      <trkpt lat="44.78662" lon="0.43279">
        <ele>98.4</ele>
        <time>2025-07-14T06:29:36Z</time>
      </trkpt>
      <trkpt lat="44.78659" lon="0.43277">
        <ele>98.2</ele>
        <time>2025-07-14T06:29:37Z</time>
      </trkpt>
      <trkpt lat="44.78656" lon="0.43277">
        <ele>98.2</ele>
        <time>2025-07-14T06:29:38Z</time>
      </trkpt>
      <trkpt lat="44.78653" lon="0.43276">
        <ele>98</ele>
        <time>2025-07-14T06:29:39Z</time>
      </trkpt>
      <trkpt lat="44.78649" lon="0.43276">
        <ele>98</ele>
        <time>2025-07-14T06:29:40Z</time>
      </trkpt>
      <trkpt lat="44.78645" lon="0.43274">
        <ele>98</ele>
        <time>2025-07-14T06:29:41Z</time>
      </trkpt>
      <trkpt lat="44.78643" lon="0.43272">
        <ele>97.8</ele>
        <time>2025-07-14T06:29:42Z</time>
      </trkpt>
      <trkpt lat="44.78641" lon="0.43269">
        <ele>97.8</ele>
        <time>2025-07-14T06:29:43Z</time>
      </trkpt>
      <trkpt lat="44.78638" lon="0.43267">
        <ele>98</ele>
        <time>2025-07-14T06:29:44Z</time>
      </trkpt>
      <trkpt lat="44.78635" lon="0.43264">
        <ele>98</ele>
        <time>2025-07-14T06:29:45Z</time>
      </trkpt>
      <trkpt lat="44.78632" lon="0.43262">
        <ele>98.2</ele>
        <time>2025-07-14T06:29:46Z</time>
      </trkpt>
      <trkpt lat="44.7863" lon="0.4326">
        <ele>98.6</ele>
        <time>2025-07-14T06:29:47Z</time>
      </trkpt>
      <trkpt lat="44.78627" lon="0.43257">
        <ele>98.8</ele>
        <time>2025-07-14T06:29:48Z</time>
      </trkpt>
      <trkpt lat="44.78625" lon="0.43255">
        <ele>99</ele>
        <time>2025-07-14T06:29:49Z</time>
      </trkpt>
      <trkpt lat="44.78623" lon="0.43253">
        <ele>99.2</ele>
        <time>2025-07-14T06:29:50Z</time>
      </trkpt>
      <trkpt lat="44.78621" lon="0.4325">
        <ele>99.6</ele>
        <time>2025-07-14T06:29:51Z</time>
      </trkpt>
      <trkpt lat="44.78619" lon="0.43248">
        <ele>99.8</ele>
        <time>2025-07-14T06:29:52Z</time>
      </trkpt>
      <trkpt lat="44.78617" lon="0.43246">
        <ele>100</ele>
        <time>2025-07-14T06:29:53Z</time>
      </trkpt>
      <trkpt lat="44.78615" lon="0.43244">
        <ele>100.2</ele>
        <time>2025-07-14T06:29:54Z</time>
      </trkpt>
      <trkpt lat="44.78613" lon="0.43242">
        <ele>100.4</ele>
        <time>2025-07-14T06:29:55Z</time>
      </trkpt>
      <trkpt lat="44.7861" lon="0.43238">
        <ele>100.6</ele>
        <time>2025-07-14T06:29:56Z</time>
      </trkpt>
      <trkpt lat="44.78609" lon="0.43235">
        <ele>100.6</ele>
        <time>2025-07-14T06:29:57Z</time>
      </trkpt>
      <trkpt lat="44.78607" lon="0.43232">
        <ele>100.8</ele>
        <time>2025-07-14T06:29:58Z</time>
      </trkpt>
      <trkpt lat="44.78606" lon="0.43229">
        <ele>101</ele>
        <time>2025-07-14T06:29:59Z</time>
      </trkpt>
      <trkpt lat="44.78605" lon="0.43226">
        <ele>101.2</ele>
        <time>2025-07-14T06:30:00Z</time>
      </trkpt>
      <trkpt lat="44.78604" lon="0.43224">
        <ele>101.6</ele>
        <time>2025-07-14T06:30:01Z</time>
      </trkpt>
      <trkpt lat="44.78602" lon="0.43222">
        <ele>101.8</ele>
        <time>2025-07-14T06:30:02Z</time>
      </trkpt>
      <trkpt lat="44.78601" lon="0.4322">
        <ele>102</ele>
        <time>2025-07-14T06:30:03Z</time>
      </trkpt>
      <trkpt lat="44.786" lon="0.43217">
        <ele>102.4</ele>
        <time>2025-07-14T06:30:04Z</time>
      </trkpt>
      <trkpt lat="44.78599" lon="0.43215">
        <ele>102.6</ele>
        <time>2025-07-14T06:30:05Z</time>
      </trkpt>
      <trkpt lat="44.78598" lon="0.43213">
        <ele>102.8</ele>
        <time>2025-07-14T06:30:06Z</time>
      </trkpt>
      <trkpt lat="44.78597" lon="0.4321">
        <ele>103</ele>
        <time>2025-07-14T06:30:07Z</time>
      </trkpt>
      <trkpt lat="44.78596" lon="0.43208">
        <ele>103.2</ele>
        <time>2025-07-14T06:30:08Z</time>
      </trkpt>
      <trkpt lat="44.78595" lon="0.43206">
        <ele>103.6</ele>
        <time>2025-07-14T06:30:09Z</time>
      </trkpt>
      <trkpt lat="44.78596" lon="0.43203">
        <ele>103.8</ele>
        <time>2025-07-14T06:30:10Z</time>
      </trkpt>
      <trkpt lat="44.78596" lon="0.43201">
        <ele>104</ele>
        <time>2025-07-14T06:30:11Z</time>
      </trkpt>
      <trkpt lat="44.78596" lon="0.43198">
        <ele>104.2</ele>
        <time>2025-07-14T06:30:12Z</time>
      </trkpt>
      <trkpt lat="44.78596" lon="0.43196">
        <ele>104.4</ele>
        <time>2025-07-14T06:30:13Z</time>
      </trkpt>
      <trkpt lat="44.78596" lon="0.43193">
        <ele>104.6</ele>
        <time>2025-07-14T06:30:14Z</time>
      </trkpt>
      <trkpt lat="44.78596" lon="0.4319">
        <ele>105</ele>
        <time>2025-07-14T06:30:15Z</time>
      </trkpt>
      <trkpt lat="44.78595" lon="0.43188">
        <ele>105.2</ele>
        <time>2025-07-14T06:30:16Z</time>
      </trkpt>
      <trkpt lat="44.78594" lon="0.43185">
        <ele>105.4</ele>
        <time>2025-07-14T06:30:17Z</time>
      </trkpt>
      <trkpt lat="44.78594" lon="0.43183">
        <ele>105.6</ele>
        <time>2025-07-14T06:30:18Z</time>
      </trkpt>
      <trkpt lat="44.78593" lon="0.43181">
        <ele>105.8</ele>
        <time>2025-07-14T06:30:19Z</time>
      </trkpt>
      <trkpt lat="44.78593" lon="0.43179">
        <ele>106</ele>
        <time>2025-07-14T06:30:20Z</time>
      </trkpt>
      <trkpt lat="44.78592" lon="0.43177">
        <ele>106.2</ele>
        <time>2025-07-14T06:30:21Z</time>
      </trkpt>
      <trkpt lat="44.78592" lon="0.43174">
        <ele>106.4</ele>
        <time>2025-07-14T06:30:22Z</time>
      </trkpt>
      <trkpt lat="44.78592" lon="0.43171">
        <ele>106.8</ele>
        <time>2025-07-14T06:30:23Z</time>
      </trkpt>
      <trkpt lat="44.78592" lon="0.43169">
        <ele>107</ele>
        <time>2025-07-14T06:30:24Z</time>
      </trkpt>
      <trkpt lat="44.78592" lon="0.43166">
        <ele>107.2</ele>
        <time>2025-07-14T06:30:25Z</time>
      </trkpt>
      <trkpt lat="44.78592" lon="0.43163">
        <ele>107.6</ele>
        <time>2025-07-14T06:30:26Z</time>
      </trkpt>
      <trkpt lat="44.78592" lon="0.43161">
        <ele>107.8</ele>
        <time>2025-07-14T06:30:27Z</time>
      </trkpt>
      <trkpt lat="44.78592" lon="0.43158">
        <ele>108</ele>
        <time>2025-07-14T06:30:28Z</time>
      </trkpt>
      <trkpt lat="44.78591" lon="0.43155">
        <ele>108.2</ele>
        <time>2025-07-14T06:30:29Z</time>
      </trkpt>
      <trkpt lat="44.7859" lon="0.43153">
        <ele>108.4</ele>
        <time>2025-07-14T06:30:30Z</time>
      </trkpt>
      <trkpt lat="44.78588" lon="0.43151">
        <ele>108.8</ele>
        <time>2025-07-14T06:30:31Z</time>
      </trkpt>
      <trkpt lat="44.78585" lon="0.43148">
        <ele>108.8</ele>
        <time>2025-07-14T06:30:32Z</time>
      </trkpt>
      <trkpt lat="44.78584" lon="0.43144">
        <ele>109</ele>
        <time>2025-07-14T06:30:33Z</time>
      </trkpt>
      <trkpt lat="44.78582" lon="0.4314">
        <ele>109.2</ele>
        <time>2025-07-14T06:30:34Z</time>
      </trkpt>
      <trkpt lat="44.78581" lon="0.43135">
        <ele>109.2</ele>
        <time>2025-07-14T06:30:35Z</time>
      </trkpt>
      <trkpt lat="44.78581" lon="0.43131">
        <ele>109.4</ele>
        <time>2025-07-14T06:30:36Z</time>
      </trkpt>
      <trkpt lat="44.78582" lon="0.43125">
        <ele>109.4</ele>
        <time>2025-07-14T06:30:37Z</time>
      </trkpt>
      <trkpt lat="44.78581" lon="0.43119">
        <ele>109.4</ele>
        <time>2025-07-14T06:30:38Z</time>
      </trkpt>
      <trkpt lat="44.78577" lon="0.43115">
        <ele>109.4</ele>
        <time>2025-07-14T06:30:39Z</time>
      </trkpt>
      <trkpt lat="44.78574" lon="0.43109">
        <ele>109.2</ele>
        <time>2025-07-14T06:30:40Z</time>
      </trkpt>
      <trkpt lat="44.78571" lon="0.431">
        <ele>108.8</ele>
        <time>2025-07-14T06:30:41Z</time>
      </trkpt>
      <trkpt lat="44.78568" lon="0.43091">
        <ele>108.4</ele>
        <time>2025-07-14T06:30:42Z</time>
      </trkpt>
      <trkpt lat="44.78563" lon="0.43086">
        <ele>107.4</ele>
        <time>2025-07-14T06:30:43Z</time>
      </trkpt>
      <trkpt lat="44.78558" lon="0.43082">
        <ele>106.6</ele>
        <time>2025-07-14T06:30:44Z</time>
      </trkpt>
      <trkpt lat="44.78555" lon="0.43078">
        <ele>105.8</ele>
        <time>2025-07-14T06:30:45Z</time>
      </trkpt>
      <trkpt lat="44.78552" lon="0.43075">
        <ele>105.6</ele>
        <time>2025-07-14T06:30:46Z</time>
      </trkpt>
      <trkpt lat="44.78551" lon="0.4307">
        <ele>105.2</ele>
        <time>2025-07-14T06:30:47Z</time>
      </trkpt>
      <trkpt lat="44.78552" lon="0.43066">
        <ele>104.6</ele>
        <time>2025-07-14T06:30:48Z</time>
      </trkpt>
      <trkpt lat="44.78552" lon="0.43062">
        <ele>104.2</ele>
        <time>2025-07-14T06:30:49Z</time>
      </trkpt>
      <trkpt lat="44.78553" lon="0.43059">
        <ele>104.2</ele>
        <time>2025-07-14T06:30:50Z</time>
      </trkpt>
      <trkpt lat="44.78554" lon="0.43056">
        <ele>104</ele>
        <time>2025-07-14T06:30:51Z</time>
      </trkpt>
      <trkpt lat="44.78555" lon="0.43053">
        <ele>104</ele>
        <time>2025-07-14T06:30:52Z</time>
      </trkpt>
      <trkpt lat="44.78556" lon="0.4305">
        <ele>104</ele>
        <time>2025-07-14T06:30:53Z</time>
      </trkpt>
      <trkpt lat="44.78557" lon="0.43047">
        <ele>104.2</ele>
        <time>2025-07-14T06:30:54Z</time>
      </trkpt>
      <trkpt lat="44.78558" lon="0.43045">
        <ele>104.2</ele>
        <time>2025-07-14T06:30:55Z</time>
      </trkpt>
      <trkpt lat="44.78558" lon="0.43042">
        <ele>104.4</ele>
        <time>2025-07-14T06:30:56Z</time>
      </trkpt>
      <trkpt lat="44.78559" lon="0.43039">
        <ele>104.6</ele>
        <time>2025-07-14T06:30:57Z</time>
      </trkpt>
      <trkpt lat="44.78559" lon="0.43036">
        <ele>104.6</ele>
        <time>2025-07-14T06:30:58Z</time>
      </trkpt>
      <trkpt lat="44.7856" lon="0.43033">
        <ele>104.8</ele>
        <time>2025-07-14T06:30:59Z</time>
      </trkpt>
      <trkpt lat="44.78561" lon="0.4303">
        <ele>104.8</ele>
        <time>2025-07-14T06:31:00Z</time>
      </trkpt>
      <trkpt lat="44.78562" lon="0.43028">
        <ele>105</ele>
        <time>2025-07-14T06:31:01Z</time>
      </trkpt>
      <trkpt lat="44.78563" lon="0.43025">
        <ele>105.2</ele>
        <time>2025-07-14T06:31:02Z</time>
      </trkpt>
      <trkpt lat="44.78564" lon="0.43022">
        <ele>105.4</ele>
        <time>2025-07-14T06:31:03Z</time>
      </trkpt>
      <trkpt lat="44.78564" lon="0.43019">
        <ele>105.6</ele>
        <time>2025-07-14T06:31:04Z</time>
      </trkpt>
      <trkpt lat="44.78566" lon="0.43016">
        <ele>106</ele>
        <time>2025-07-14T06:31:05Z</time>
      </trkpt>
      <trkpt lat="44.78567" lon="0.43013">
        <ele>106.2</ele>
        <time>2025-07-14T06:31:06Z</time>
      </trkpt>
      <trkpt lat="44.78568" lon="0.43011">
        <ele>106.4</ele>
        <time>2025-07-14T06:31:07Z</time>
      </trkpt>
      <trkpt lat="44.78568" lon="0.43008">
        <ele>106.6</ele>
        <time>2025-07-14T06:31:08Z</time>
      </trkpt>
      <trkpt lat="44.78569" lon="0.43005">
        <ele>107</ele>
        <time>2025-07-14T06:31:09Z</time>
      </trkpt>
      <trkpt lat="44.7857" lon="0.43002">
        <ele>107.2</ele>
        <time>2025-07-14T06:31:10Z</time>
      </trkpt>
      <trkpt lat="44.78571" lon="0.43">
        <ele>107.4</ele>
        <time>2025-07-14T06:31:11Z</time>
      </trkpt>
      <trkpt lat="44.78572" lon="0.42998">
        <ele>107.8</ele>
        <time>2025-07-14T06:31:12Z</time>
      </trkpt>
      <trkpt lat="44.78573" lon="0.42996">
        <ele>108</ele>
        <time>2025-07-14T06:31:13Z</time>
      </trkpt>
      <trkpt lat="44.78574" lon="0.42993">
        <ele>108.2</ele>
        <time>2025-07-14T06:31:14Z</time>
      </trkpt>
      <trkpt lat="44.78575" lon="0.4299">
        <ele>108.4</ele>
        <time>2025-07-14T06:31:15Z</time>
      </trkpt>
      <trkpt lat="44.78576" lon="0.42988">
        <ele>108.8</ele>
        <time>2025-07-14T06:31:16Z</time>
      </trkpt>
      <trkpt lat="44.78577" lon="0.42985">
        <ele>108.8</ele>
        <time>2025-07-14T06:31:17Z</time>
      </trkpt>
      <trkpt lat="44.78578" lon="0.42983">
        <ele>109.2</ele>
        <time>2025-07-14T06:31:18Z</time>
      </trkpt>
      <trkpt lat="44.78579" lon="0.4298">
        <ele>109.4</ele>
        <time>2025-07-14T06:31:19Z</time>
      </trkpt>
      <trkpt lat="44.7858" lon="0.42978">
        <ele>109.6</ele>
        <time>2025-07-14T06:31:20Z</time>
      </trkpt>
      <trkpt lat="44.78581" lon="0.42975">
        <ele>110</ele>
        <time>2025-07-14T06:31:21Z</time>
      </trkpt>
      <trkpt lat="44.78582" lon="0.42973">
        <ele>110.2</ele>
        <time>2025-07-14T06:31:22Z</time>
      </trkpt>
      <trkpt lat="44.78583" lon="0.4297">
        <ele>110.4</ele>
        <time>2025-07-14T06:31:23Z</time>
      </trkpt>
      <trkpt lat="44.78585" lon="0.42969">
        <ele>110.6</ele>
        <time>2025-07-14T06:31:24Z</time>
      </trkpt>
      <trkpt lat="44.78587" lon="0.42968">
        <ele>110.8</ele>
        <time>2025-07-14T06:31:25Z</time>
      </trkpt>
      <trkpt lat="44.7859" lon="0.42969">
        <ele>111</ele>
        <time>2025-07-14T06:31:26Z</time>
      </trkpt>
      <trkpt lat="44.78592" lon="0.42969">
        <ele>111.2</ele>
        <time>2025-07-14T06:31:27Z</time>
      </trkpt>
      <trkpt lat="44.78595" lon="0.42971">
        <ele>111.2</ele>
        <time>2025-07-14T06:31:28Z</time>
      </trkpt>
      <trkpt lat="44.78598" lon="0.42973">
        <ele>111.2</ele>
        <time>2025-07-14T06:31:29Z</time>
      </trkpt>
      <trkpt lat="44.78602" lon="0.42975">
        <ele>111.2</ele>
        <time>2025-07-14T06:31:30Z</time>
      </trkpt>
      <trkpt lat="44.78605" lon="0.42978">
        <ele>111</ele>
        <time>2025-07-14T06:31:31Z</time>
      </trkpt>
      <trkpt lat="44.78609" lon="0.4298">
        <ele>111</ele>
        <time>2025-07-14T06:31:32Z</time>
      </trkpt>
      <trkpt lat="44.78614" lon="0.42983">
        <ele>110.8</ele>
        <time>2025-07-14T06:31:33Z</time>
      </trkpt>
      <trkpt lat="44.78618" lon="0.42986">
        <ele>110.6</ele>
        <time>2025-07-14T06:31:34Z</time>
      </trkpt>
      <trkpt lat="44.78623" lon="0.42989">
        <ele>110.2</ele>
        <time>2025-07-14T06:31:35Z</time>
      </trkpt>
      <trkpt lat="44.78627" lon="0.42992">
        <ele>110</ele>
        <time>2025-07-14T06:31:36Z</time>
      </trkpt>
      <trkpt lat="44.78632" lon="0.42994">
        <ele>109.8</ele>
        <time>2025-07-14T06:31:37Z</time>
      </trkpt>
      <trkpt lat="44.78636" lon="0.42997">
        <ele>109.6</ele>
        <time>2025-07-14T06:31:38Z</time>
      </trkpt>
      <trkpt lat="44.78641" lon="0.42999">
        <ele>109.6</ele>
        <time>2025-07-14T06:31:39Z</time>
      </trkpt>
      <trkpt lat="44.78644" lon="0.43">
        <ele>109.6</ele>
        <time>2025-07-14T06:31:40Z</time>
      </trkpt>
      <trkpt lat="44.78649" lon="0.43002">
        <ele>109.6</ele>
        <time>2025-07-14T06:31:41Z</time>
      </trkpt>
      <trkpt lat="44.78653" lon="0.43002">
        <ele>109.6</ele>
        <time>2025-07-14T06:31:42Z</time>
      </trkpt>
      <trkpt lat="44.78657" lon="0.43003">
        <ele>109.4</ele>
        <time>2025-07-14T06:31:43Z</time>
      </trkpt>
      <trkpt lat="44.78661" lon="0.43004">
        <ele>109.4</ele>
        <time>2025-07-14T06:31:44Z</time>
      </trkpt>
      <trkpt lat="44.78665" lon="0.43005">
        <ele>109.4</ele>
        <time>2025-07-14T06:31:45Z</time>
      </trkpt>
      <trkpt lat="44.78668" lon="0.43005">
        <ele>109.4</ele>
        <time>2025-07-14T06:31:46Z</time>
      </trkpt>
      <trkpt lat="44.78671" lon="0.43005">
        <ele>109.6</ele>
        <time>2025-07-14T06:31:47Z</time>
      </trkpt>
      <trkpt lat="44.78675" lon="0.43005">
        <ele>109.8</ele>
        <time>2025-07-14T06:31:48Z</time>
      </trkpt>
      <trkpt lat="44.78678" lon="0.43005">
        <ele>110</ele>
        <time>2025-07-14T06:31:49Z</time>
      </trkpt>
      <trkpt lat="44.78681" lon="0.43005">
        <ele>110</ele>
        <time>2025-07-14T06:31:50Z</time>
      </trkpt>
      <trkpt lat="44.78684" lon="0.43005">
        <ele>110.2</ele>
        <time>2025-07-14T06:31:51Z</time>
      </trkpt>
      <trkpt lat="44.78687" lon="0.43006">
        <ele>110.4</ele>
        <time>2025-07-14T06:31:52Z</time>
      </trkpt>
      <trkpt lat="44.78689" lon="0.43005">
        <ele>110.6</ele>
        <time>2025-07-14T06:31:53Z</time>
      </trkpt>
      <trkpt lat="44.78692" lon="0.43005">
        <ele>110.8</ele>
        <time>2025-07-14T06:31:54Z</time>
      </trkpt>
      <trkpt lat="44.78695" lon="0.43005">
        <ele>111</ele>
        <time>2025-07-14T06:31:55Z</time>
      </trkpt>
      <trkpt lat="44.78697" lon="0.43004">
        <ele>111.2</ele>
        <time>2025-07-14T06:31:56Z</time>
      </trkpt>
      <trkpt lat="44.787" lon="0.43004">
        <ele>111.4</ele>
        <time>2025-07-14T06:31:57Z</time>
      </trkpt>
      <trkpt lat="44.78702" lon="0.43004">
        <ele>111.4</ele>
        <time>2025-07-14T06:31:58Z</time>
      </trkpt>
      <trkpt lat="44.78705" lon="0.43004">
        <ele>111.6</ele>
        <time>2025-07-14T06:31:59Z</time>
      </trkpt>
      <trkpt lat="44.78707" lon="0.43003">
        <ele>111.8</ele>
        <time>2025-07-14T06:32:00Z</time>
      </trkpt>
      <trkpt lat="44.7871" lon="0.43003">
        <ele>112</ele>
        <time>2025-07-14T06:32:01Z</time>
      </trkpt>
      <trkpt lat="44.78712" lon="0.43003">
        <ele>112</ele>
        <time>2025-07-14T06:32:02Z</time>
      </trkpt>
      <trkpt lat="44.78715" lon="0.43002">
        <ele>112.2</ele>
        <time>2025-07-14T06:32:03Z</time>
      </trkpt>
      <trkpt lat="44.78717" lon="0.43002">
        <ele>112.4</ele>
        <time>2025-07-14T06:32:04Z</time>
      </trkpt>
      <trkpt lat="44.78719" lon="0.43001">
        <ele>112.6</ele>
        <time>2025-07-14T06:32:05Z</time>
      </trkpt>
      <trkpt lat="44.78722" lon="0.43001">
        <ele>112.8</ele>
        <time>2025-07-14T06:32:06Z</time>
      </trkpt>
      <trkpt lat="44.78724" lon="0.43001">
        <ele>113</ele>
        <time>2025-07-14T06:32:07Z</time>
      </trkpt>
      <trkpt lat="44.78727" lon="0.43001">
        <ele>113.2</ele>
        <time>2025-07-14T06:32:08Z</time>
      </trkpt>
      <trkpt lat="44.78729" lon="0.43001">
        <ele>113.4</ele>
        <time>2025-07-14T06:32:09Z</time>
      </trkpt>
      <trkpt lat="44.78732" lon="0.43001">
        <ele>113.6</ele>
        <time>2025-07-14T06:32:10Z</time>
      </trkpt>
      <trkpt lat="44.78734" lon="0.43001">
        <ele>113.8</ele>
        <time>2025-07-14T06:32:11Z</time>
      </trkpt>
      <trkpt lat="44.78737" lon="0.43001">
        <ele>113.8</ele>
        <time>2025-07-14T06:32:12Z</time>
      </trkpt>
      <trkpt lat="44.78739" lon="0.43001">
        <ele>114</ele>
        <time>2025-07-14T06:32:13Z</time>
      </trkpt>
      <trkpt lat="44.78741" lon="0.43001">
        <ele>114.2</ele>
        <time>2025-07-14T06:32:14Z</time>
      </trkpt>
      <trkpt lat="44.78744" lon="0.43001">
        <ele>114.2</ele>
        <time>2025-07-14T06:32:15Z</time>
      </trkpt>
      <trkpt lat="44.78746" lon="0.43002">
        <ele>114.4</ele>
        <time>2025-07-14T06:32:16Z</time>
      </trkpt>
      <trkpt lat="44.78748" lon="0.43002">
        <ele>114.6</ele>
        <time>2025-07-14T06:32:17Z</time>
      </trkpt>
      <trkpt lat="44.78751" lon="0.43002">
        <ele>114.8</ele>
        <time>2025-07-14T06:32:18Z</time>
      </trkpt>
      <trkpt lat="44.78753" lon="0.43001">
        <ele>115</ele>
        <time>2025-07-14T06:32:19Z</time>
      </trkpt>
      <trkpt lat="44.78756" lon="0.43001">
        <ele>115</ele>
        <time>2025-07-14T06:32:20Z</time>
      </trkpt>
      <trkpt lat="44.78758" lon="0.43001">
        <ele>115.2</ele>
        <time>2025-07-14T06:32:21Z</time>
      </trkpt>
      <trkpt lat="44.78761" lon="0.43001">
        <ele>115.4</ele>
        <time>2025-07-14T06:32:22Z</time>
      </trkpt>
      <trkpt lat="44.78763" lon="0.43001">
        <ele>115.4</ele>
        <time>2025-07-14T06:32:23Z</time>
      </trkpt>
      <trkpt lat="44.78766" lon="0.43002">
        <ele>115.6</ele>
        <time>2025-07-14T06:32:24Z</time>
      </trkpt>
      <trkpt lat="44.78768" lon="0.43003">
        <ele>115.8</ele>
        <time>2025-07-14T06:32:25Z</time>
      </trkpt>
      <trkpt lat="44.78771" lon="0.43005">
        <ele>115.8</ele>
        <time>2025-07-14T06:32:26Z</time>
      </trkpt>
      <trkpt lat="44.78775" lon="0.43007">
        <ele>115.8</ele>
        <time>2025-07-14T06:32:27Z</time>
      </trkpt>
      <trkpt lat="44.78779" lon="0.43009">
        <ele>115.8</ele>
        <time>2025-07-14T06:32:28Z</time>
      </trkpt>
      <trkpt lat="44.78783" lon="0.43011">
        <ele>115.6</ele>
        <time>2025-07-14T06:32:29Z</time>
      </trkpt>
      <trkpt lat="44.78788" lon="0.43013">
        <ele>115.2</ele>
        <time>2025-07-14T06:32:30Z</time>
      </trkpt>
      <trkpt lat="44.78793" lon="0.43016">
        <ele>115</ele>
        <time>2025-07-14T06:32:31Z</time>
      </trkpt>
      <trkpt lat="44.78797" lon="0.43019">
        <ele>114.6</ele>
        <time>2025-07-14T06:32:32Z</time>
      </trkpt>
      <trkpt lat="44.78802" lon="0.43023">
        <ele>114.4</ele>
        <time>2025-07-14T06:32:33Z</time>
      </trkpt>
      <trkpt lat="44.78807" lon="0.43025">
        <ele>114.2</ele>
        <time>2025-07-14T06:32:34Z</time>
      </trkpt>
      <trkpt lat="44.78811" lon="0.43027">
        <ele>114</ele>
        <time>2025-07-14T06:32:35Z</time>
      </trkpt>
      <trkpt lat="44.78815" lon="0.4303">
        <ele>113.8</ele>
        <time>2025-07-14T06:32:36Z</time>
      </trkpt>
      <trkpt lat="44.78819" lon="0.43032">
        <ele>113.6</ele>
        <time>2025-07-14T06:32:37Z</time>
      </trkpt>
      <trkpt lat="44.78823" lon="0.43035">
        <ele>113.6</ele>
        <time>2025-07-14T06:32:38Z</time>
      </trkpt>
      <trkpt lat="44.78826" lon="0.43036">
        <ele>113.6</ele>
        <time>2025-07-14T06:32:39Z</time>
      </trkpt>
      <trkpt lat="44.7883" lon="0.43038">
        <ele>113.6</ele>
        <time>2025-07-14T06:32:40Z</time>
      </trkpt>
      <trkpt lat="44.78833" lon="0.4304">
        <ele>113.8</ele>
        <time>2025-07-14T06:32:41Z</time>
      </trkpt>
      <trkpt lat="44.78836" lon="0.43042">
        <ele>113.8</ele>
        <time>2025-07-14T06:32:42Z</time>
      </trkpt>
      <trkpt lat="44.78839" lon="0.43043">
        <ele>113.8</ele>
        <time>2025-07-14T06:32:43Z</time>
      </trkpt>
      <trkpt lat="44.78842" lon="0.43045">
        <ele>114</ele>
        <time>2025-07-14T06:32:44Z</time>
      </trkpt>
      <trkpt lat="44.78846" lon="0.43046">
        <ele>114</ele>
        <time>2025-07-14T06:32:45Z</time>
      </trkpt>
      <trkpt lat="44.78849" lon="0.43046">
        <ele>114</ele>
        <time>2025-07-14T06:32:46Z</time>
      </trkpt>
      <trkpt lat="44.78852" lon="0.43046">
        <ele>114.2</ele>
        <time>2025-07-14T06:32:47Z</time>
      </trkpt>
      <trkpt lat="44.78855" lon="0.43047">
        <ele>114.2</ele>
        <time>2025-07-14T06:32:48Z</time>
      </trkpt>
      <trkpt lat="44.78857" lon="0.4305">
        <ele>114.4</ele>
        <time>2025-07-14T06:32:49Z</time>
      </trkpt>
      <trkpt lat="44.78858" lon="0.43052">
        <ele>114.6</ele>
        <time>2025-07-14T06:32:50Z</time>
      </trkpt>
      <trkpt lat="44.78859" lon="0.43054">
        <ele>114.6</ele>
        <time>2025-07-14T06:32:51Z</time>
      </trkpt>
      <trkpt lat="44.78861" lon="0.43055">
        <ele>114.8</ele>
        <time>2025-07-14T06:32:52Z</time>
      </trkpt>
      <trkpt lat="44.78863" lon="0.43056">
        <ele>115</ele>
        <time>2025-07-14T06:32:53Z</time>
      </trkpt>
      <trkpt lat="44.78864" lon="0.43057">
        <ele>115.2</ele>
        <time>2025-07-14T06:32:54Z</time>
      </trkpt>
      <trkpt lat="44.78865" lon="0.43058">
        <ele>115.2</ele>
        <time>2025-07-14T06:32:55Z</time>
      </trkpt>
      <trkpt lat="44.78866" lon="0.43058">
        <ele>115.6</ele>
        <time>2025-07-14T06:32:56Z</time>
      </trkpt>
      <trkpt lat="44.78868" lon="0.43059">
        <ele>115.8</ele>
        <time>2025-07-14T06:32:57Z</time>
      </trkpt>
      <trkpt lat="44.78869" lon="0.4306">
        <ele>116</ele>
        <time>2025-07-14T06:32:58Z</time>
      </trkpt>
      <trkpt lat="44.78871" lon="0.43061">
        <ele>116.2</ele>
        <time>2025-07-14T06:32:59Z</time>
      </trkpt>
      <trkpt lat="44.78872" lon="0.43061">
        <ele>116.4</ele>
        <time>2025-07-14T06:33:00Z</time>
      </trkpt>
      <trkpt lat="44.78874" lon="0.43062">
        <ele>116.8</ele>
        <time>2025-07-14T06:33:01Z</time>
      </trkpt>
      <trkpt lat="44.78875" lon="0.43063">
        <ele>117</ele>
        <time>2025-07-14T06:33:02Z</time>
      </trkpt>
      <trkpt lat="44.78876" lon="0.43063">
        <ele>117.2</ele>
        <time>2025-07-14T06:33:03Z</time>
      </trkpt>
      <trkpt lat="44.78877" lon="0.43064">
        <ele>117.4</ele>
        <time>2025-07-14T06:33:04Z</time>
      </trkpt>
      <trkpt lat="44.78879" lon="0.43065">
        <ele>117.6</ele>
        <time>2025-07-14T06:33:05Z</time>
      </trkpt>
      <trkpt lat="44.7888" lon="0.43065">
        <ele>117.8</ele>
        <time>2025-07-14T06:33:06Z</time>
      </trkpt>
      <trkpt lat="44.78882" lon="0.43065">
        <ele>118</ele>
        <time>2025-07-14T06:33:07Z</time>
      </trkpt>
      <trkpt lat="44.78884" lon="0.43066">
        <ele>118.2</ele>
        <time>2025-07-14T06:33:08Z</time>
      </trkpt>
      <trkpt lat="44.78885" lon="0.43067">
        <ele>118.4</ele>
        <time>2025-07-14T06:33:09Z</time>
      </trkpt>
      <trkpt lat="44.78887" lon="0.43067">
        <ele>118.6</ele>
        <time>2025-07-14T06:33:10Z</time>
      </trkpt>
      <trkpt lat="44.78888" lon="0.43068">
        <ele>118.8</ele>
        <time>2025-07-14T06:33:11Z</time>
      </trkpt>
      <trkpt lat="44.7889" lon="0.43068">
        <ele>119</ele>
        <time>2025-07-14T06:33:12Z</time>
      </trkpt>
      <trkpt lat="44.78892" lon="0.43069">
        <ele>119.2</ele>
        <time>2025-07-14T06:33:13Z</time>
      </trkpt>
      <trkpt lat="44.78894" lon="0.43069">
        <ele>119.4</ele>
        <time>2025-07-14T06:33:14Z</time>
      </trkpt>
      <trkpt lat="44.78895" lon="0.4307">
        <ele>119.4</ele>
        <time>2025-07-14T06:33:15Z</time>
      </trkpt>
      <trkpt lat="44.78897" lon="0.4307">
        <ele>119.6</ele>
        <time>2025-07-14T06:33:16Z</time>
      </trkpt>
      <trkpt lat="44.78899" lon="0.43071">
        <ele>119.8</ele>
        <time>2025-07-14T06:33:17Z</time>
      </trkpt>
      <trkpt lat="44.78901" lon="0.43072">
        <ele>120</ele>
        <time>2025-07-14T06:33:18Z</time>
      </trkpt>
      <trkpt lat="44.78902" lon="0.43072">
        <ele>120</ele>
        <time>2025-07-14T06:33:19Z</time>
      </trkpt>
      <trkpt lat="44.78903" lon="0.43073">
        <ele>120.2</ele>
        <time>2025-07-14T06:33:20Z</time>
      </trkpt>
      <trkpt lat="44.78905" lon="0.43073">
        <ele>120.4</ele>
        <time>2025-07-14T06:33:21Z</time>
      </trkpt>
      <trkpt lat="44.78907" lon="0.43074">
        <ele>120.6</ele>
        <time>2025-07-14T06:33:22Z</time>
      </trkpt>
      <trkpt lat="44.78908" lon="0.43074">
        <ele>121</ele>
        <time>2025-07-14T06:33:23Z</time>
      </trkpt>
      <trkpt lat="44.7891" lon="0.43075">
        <ele>121.2</ele>
        <time>2025-07-14T06:33:24Z</time>
      </trkpt>
      <trkpt lat="44.78912" lon="0.43075">
        <ele>121.4</ele>
        <time>2025-07-14T06:33:25Z</time>
      </trkpt>
      <trkpt lat="44.78913" lon="0.43075">
        <ele>121.6</ele>
        <time>2025-07-14T06:33:26Z</time>
      </trkpt>
      <trkpt lat="44.78915" lon="0.43075">
        <ele>121.8</ele>
        <time>2025-07-14T06:33:27Z</time>
      </trkpt>
      <trkpt lat="44.78917" lon="0.43075">
        <ele>122</ele>
        <time>2025-07-14T06:33:28Z</time>
      </trkpt>
      <trkpt lat="44.7892" lon="0.43075">
        <ele>122.2</ele>
        <time>2025-07-14T06:33:29Z</time>
      </trkpt>
      <trkpt lat="44.78922" lon="0.43075">
        <ele>122.4</ele>
        <time>2025-07-14T06:33:30Z</time>
      </trkpt>
      <trkpt lat="44.78924" lon="0.43075">
        <ele>122.4</ele>
        <time>2025-07-14T06:33:31Z</time>
      </trkpt>
      <trkpt lat="44.78926" lon="0.43074">
        <ele>122.6</ele>
        <time>2025-07-14T06:33:32Z</time>
      </trkpt>
      <trkpt lat="44.78928" lon="0.43073">
        <ele>122.8</ele>
        <time>2025-07-14T06:33:33Z</time>
      </trkpt>
      <trkpt lat="44.7893" lon="0.43073">
        <ele>122.8</ele>
        <time>2025-07-14T06:33:34Z</time>
      </trkpt>
      <trkpt lat="44.78932" lon="0.43072">
        <ele>123</ele>
        <time>2025-07-14T06:33:35Z</time>
      </trkpt>
      <trkpt lat="44.78934" lon="0.43072">
        <ele>123.2</ele>
        <time>2025-07-14T06:33:36Z</time>
      </trkpt>
      <trkpt lat="44.78937" lon="0.43071">
        <ele>123.4</ele>
        <time>2025-07-14T06:33:37Z</time>
      </trkpt>
      <trkpt lat="44.78939" lon="0.43071">
        <ele>123.6</ele>
        <time>2025-07-14T06:33:38Z</time>
      </trkpt>
      <trkpt lat="44.78941" lon="0.43071">
        <ele>123.8</ele>
        <time>2025-07-14T06:33:39Z</time>
      </trkpt>
      <trkpt lat="44.78943" lon="0.4307">
        <ele>124</ele>
        <time>2025-07-14T06:33:40Z</time>
      </trkpt>
      <trkpt lat="44.78945" lon="0.4307">
        <ele>124</ele>
        <time>2025-07-14T06:33:41Z</time>
      </trkpt>
      <trkpt lat="44.78947" lon="0.4307">
        <ele>124.2</ele>
        <time>2025-07-14T06:33:42Z</time>
      </trkpt>
      <trkpt lat="44.78949" lon="0.4307">
        <ele>124.2</ele>
        <time>2025-07-14T06:33:43Z</time>
      </trkpt>
      <trkpt lat="44.78952" lon="0.4307">
        <ele>124.4</ele>
        <time>2025-07-14T06:33:44Z</time>
      </trkpt>
      <trkpt lat="44.78954" lon="0.4307">
        <ele>124.6</ele>
        <time>2025-07-14T06:33:45Z</time>
      </trkpt>
      <trkpt lat="44.78956" lon="0.4307">
        <ele>124.6</ele>
        <time>2025-07-14T06:33:46Z</time>
      </trkpt>
      <trkpt lat="44.78959" lon="0.4307">
        <ele>124.8</ele>
        <time>2025-07-14T06:33:47Z</time>
      </trkpt>
      <trkpt lat="44.78961" lon="0.4307">
        <ele>124.8</ele>
        <time>2025-07-14T06:33:48Z</time>
      </trkpt>
      <trkpt lat="44.78963" lon="0.4307">
        <ele>124.8</ele>
        <time>2025-07-14T06:33:49Z</time>
      </trkpt>
      <trkpt lat="44.78965" lon="0.43069">
        <ele>125</ele>
        <time>2025-07-14T06:33:50Z</time>
      </trkpt>
      <trkpt lat="44.78968" lon="0.43069">
        <ele>125.2</ele>
        <time>2025-07-14T06:33:51Z</time>
      </trkpt>
      <trkpt lat="44.7897" lon="0.43069">
        <ele>125.4</ele>
        <time>2025-07-14T06:33:52Z</time>
      </trkpt>
      <trkpt lat="44.78972" lon="0.43069">
        <ele>125.6</ele>
        <time>2025-07-14T06:33:53Z</time>
      </trkpt>
      <trkpt lat="44.78974" lon="0.43069">
        <ele>125.8</ele>
        <time>2025-07-14T06:33:54Z</time>
      </trkpt>
      <trkpt lat="44.78977" lon="0.43069">
        <ele>125.8</ele>
        <time>2025-07-14T06:33:55Z</time>
      </trkpt>
      <trkpt lat="44.78979" lon="0.43068">
        <ele>126</ele>
        <time>2025-07-14T06:33:56Z</time>
      </trkpt>
      <trkpt lat="44.78981" lon="0.43068">
        <ele>126.2</ele>
        <time>2025-07-14T06:33:57Z</time>
      </trkpt>
      <trkpt lat="44.78984" lon="0.43067">
        <ele>126.4</ele>
        <time>2025-07-14T06:33:58Z</time>
      </trkpt>
      <trkpt lat="44.78986" lon="0.43067">
        <ele>126.4</ele>
        <time>2025-07-14T06:33:59Z</time>
      </trkpt>
      <trkpt lat="44.78988" lon="0.43067">
        <ele>126.6</ele>
        <time>2025-07-14T06:34:00Z</time>
      </trkpt>
      <trkpt lat="44.7899" lon="0.43066">
        <ele>126.8</ele>
        <time>2025-07-14T06:34:01Z</time>
      </trkpt>
      <trkpt lat="44.78993" lon="0.43065">
        <ele>127</ele>
        <time>2025-07-14T06:34:02Z</time>
      </trkpt>
      <trkpt lat="44.78995" lon="0.43065">
        <ele>127.2</ele>
        <time>2025-07-14T06:34:03Z</time>
      </trkpt>
      <trkpt lat="44.78997" lon="0.43065">
        <ele>127.4</ele>
        <time>2025-07-14T06:34:04Z</time>
      </trkpt>
      <trkpt lat="44.79" lon="0.43064">
        <ele>127.6</ele>
        <time>2025-07-14T06:34:05Z</time>
      </trkpt>
      <trkpt lat="44.79002" lon="0.43064">
        <ele>127.8</ele>
        <time>2025-07-14T06:34:06Z</time>
      </trkpt>
      <trkpt lat="44.79004" lon="0.43064">
        <ele>127.8</ele>
        <time>2025-07-14T06:34:07Z</time>
      </trkpt>
      <trkpt lat="44.79006" lon="0.43064">
        <ele>128</ele>
        <time>2025-07-14T06:34:08Z</time>
      </trkpt>
      <trkpt lat="44.79008" lon="0.43063">
        <ele>128.2</ele>
        <time>2025-07-14T06:34:09Z</time>
      </trkpt>
      <trkpt lat="44.79011" lon="0.43063">
        <ele>128.4</ele>
        <time>2025-07-14T06:34:10Z</time>
      </trkpt>
      <trkpt lat="44.79013" lon="0.43062">
        <ele>128.6</ele>
        <time>2025-07-14T06:34:11Z</time>
      </trkpt>
      <trkpt lat="44.79016" lon="0.43062">
        <ele>129</ele>
        <time>2025-07-14T06:34:12Z</time>
      </trkpt>
      <trkpt lat="44.79018" lon="0.43061">
        <ele>129.2</ele>
        <time>2025-07-14T06:34:13Z</time>
      </trkpt>
      <trkpt lat="44.79021" lon="0.43061">
        <ele>129.4</ele>
        <time>2025-07-14T06:34:14Z</time>
      </trkpt>
      <trkpt lat="44.79023" lon="0.4306">
        <ele>129.4</ele>
        <time>2025-07-14T06:34:15Z</time>
      </trkpt>
      <trkpt lat="44.79025" lon="0.43059">
        <ele>129.6</ele>
        <time>2025-07-14T06:34:16Z</time>
      </trkpt>
      <trkpt lat="44.79027" lon="0.43059">
        <ele>129.8</ele>
        <time>2025-07-14T06:34:17Z</time>
      </trkpt>
      <trkpt lat="44.79029" lon="0.43059">
        <ele>130</ele>
        <time>2025-07-14T06:34:18Z</time>
      </trkpt>
      <trkpt lat="44.79031" lon="0.43058">
        <ele>130.2</ele>
        <time>2025-07-14T06:34:19Z</time>
      </trkpt>
      <trkpt lat="44.79033" lon="0.43058">
        <ele>130.4</ele>
        <time>2025-07-14T06:34:20Z</time>
      </trkpt>
      <trkpt lat="44.79035" lon="0.43057">
        <ele>130.6</ele>
        <time>2025-07-14T06:34:21Z</time>
      </trkpt>
      <trkpt lat="44.79038" lon="0.43057">
        <ele>131</ele>
        <time>2025-07-14T06:34:22Z</time>
      </trkpt>
      <trkpt lat="44.7904" lon="0.43056">
        <ele>131.2</ele>
        <time>2025-07-14T06:34:23Z</time>
      </trkpt>
      <trkpt lat="44.79042" lon="0.43055">
        <ele>131.4</ele>
        <time>2025-07-14T06:34:24Z</time>
      </trkpt>
      <trkpt lat="44.79044" lon="0.43055">
        <ele>131.6</ele>
        <time>2025-07-14T06:34:25Z</time>
      </trkpt>
      <trkpt lat="44.79046" lon="0.43053">
        <ele>131.8</ele>
        <time>2025-07-14T06:34:26Z</time>
      </trkpt>
      <trkpt lat="44.79048" lon="0.43052">
        <ele>132</ele>
        <time>2025-07-14T06:34:27Z</time>
      </trkpt>
      <trkpt lat="44.7905" lon="0.43051">
        <ele>132.2</ele>
        <time>2025-07-14T06:34:28Z</time>
      </trkpt>
      <trkpt lat="44.79052" lon="0.43049">
        <ele>132.2</ele>
        <time>2025-07-14T06:34:29Z</time>
      </trkpt>
      <trkpt lat="44.79054" lon="0.43048">
        <ele>132.4</ele>
        <time>2025-07-14T06:34:30Z</time>
      </trkpt>
      <trkpt lat="44.79056" lon="0.43047">
        <ele>132.6</ele>
        <time>2025-07-14T06:34:31Z</time>
      </trkpt>
      <trkpt lat="44.79059" lon="0.43046">
        <ele>132.6</ele>
        <time>2025-07-14T06:34:32Z</time>
      </trkpt>
      <trkpt lat="44.7906" lon="0.43044">
        <ele>132.8</ele>
        <time>2025-07-14T06:34:33Z</time>
      </trkpt>
      <trkpt lat="44.79062" lon="0.43042">
        <ele>132.8</ele>
        <time>2025-07-14T06:34:34Z</time>
      </trkpt>
      <trkpt lat="44.79063" lon="0.43039">
        <ele>133</ele>
        <time>2025-07-14T06:34:35Z</time>
      </trkpt>
      <trkpt lat="44.79064" lon="0.43035">
        <ele>133</ele>
        <time>2025-07-14T06:34:36Z</time>
      </trkpt>
      <trkpt lat="44.79066" lon="0.43031">
        <ele>132.8</ele>
        <time>2025-07-14T06:34:37Z</time>
      </trkpt>
      <trkpt lat="44.79069" lon="0.43029">
        <ele>132.8</ele>
        <time>2025-07-14T06:34:38Z</time>
      </trkpt>
      <trkpt lat="44.79071" lon="0.43028">
        <ele>132.8</ele>
        <time>2025-07-14T06:34:39Z</time>
      </trkpt>
      <trkpt lat="44.79073" lon="0.43027">
        <ele>132.8</ele>
        <time>2025-07-14T06:34:40Z</time>
      </trkpt>
      <trkpt lat="44.79076" lon="0.43026">
        <ele>132.8</ele>
        <time>2025-07-14T06:34:41Z</time>
      </trkpt>
      <trkpt lat="44.79078" lon="0.43024">
        <ele>132.8</ele>
        <time>2025-07-14T06:34:42Z</time>
      </trkpt>
      <trkpt lat="44.7908" lon="0.43023">
        <ele>132.8</ele>
        <time>2025-07-14T06:34:43Z</time>
      </trkpt>
      <trkpt lat="44.79082" lon="0.43021">
        <ele>133</ele>
        <time>2025-07-14T06:34:44Z</time>
      </trkpt>
      <trkpt lat="44.79082" lon="0.43017">
        <ele>133</ele>
        <time>2025-07-14T06:34:45Z</time>
      </trkpt>
      <trkpt lat="44.79081" lon="0.43014">
        <ele>133.2</ele>
        <time>2025-07-14T06:34:46Z</time>
      </trkpt>
      <trkpt lat="44.7908" lon="0.4301">
        <ele>133.2</ele>
        <time>2025-07-14T06:34:47Z</time>
      </trkpt>
      <trkpt lat="44.79079" lon="0.43006">
        <ele>133.2</ele>
        <time>2025-07-14T06:34:48Z</time>
      </trkpt>
      <trkpt lat="44.79077" lon="0.43002">
        <ele>133.2</ele>
        <time>2025-07-14T06:34:49Z</time>
      </trkpt>
      <trkpt lat="44.79076" lon="0.42998">
        <ele>133</ele>
        <time>2025-07-14T06:34:50Z</time>
      </trkpt>
      <trkpt lat="44.79074" lon="0.42993">
        <ele>132.8</ele>
        <time>2025-07-14T06:34:51Z</time>
      </trkpt>
      <trkpt lat="44.79073" lon="0.42989">
        <ele>132.8</ele>
        <time>2025-07-14T06:34:52Z</time>
      </trkpt>
      <trkpt lat="44.79071" lon="0.42985">
        <ele>132.6</ele>
        <time>2025-07-14T06:34:53Z</time>
      </trkpt>
      <trkpt lat="44.7907" lon="0.42981">
        <ele>132.6</ele>
        <time>2025-07-14T06:34:54Z</time>
      </trkpt>
      <trkpt lat="44.79069" lon="0.42978">
        <ele>132.6</ele>
        <time>2025-07-14T06:34:55Z</time>
      </trkpt>
      <trkpt lat="44.79068" lon="0.42975">
        <ele>132.6</ele>
        <time>2025-07-14T06:34:56Z</time>
      </trkpt>
      <trkpt lat="44.79067" lon="0.42972">
        <ele>132.6</ele>
        <time>2025-07-14T06:34:57Z</time>
      </trkpt>
      <trkpt lat="44.79066" lon="0.42969">
        <ele>132.8</ele>
        <time>2025-07-14T06:34:58Z</time>
      </trkpt>
      <trkpt lat="44.79065" lon="0.42967">
        <ele>133</ele>
        <time>2025-07-14T06:34:59Z</time>
      </trkpt>
      <trkpt lat="44.79065" lon="0.42965">
        <ele>133</ele>
        <time>2025-07-14T06:35:00Z</time>
      </trkpt>
      <trkpt lat="44.79065" lon="0.42963">
        <ele>133.2</ele>
        <time>2025-07-14T06:35:01Z</time>
      </trkpt>
      <trkpt lat="44.79064" lon="0.42961">
        <ele>133.4</ele>
        <time>2025-07-14T06:35:02Z</time>
      </trkpt>
      <trkpt lat="44.79063" lon="0.42959">
        <ele>133.8</ele>
        <time>2025-07-14T06:35:03Z</time>
      </trkpt>
      <trkpt lat="44.79063" lon="0.42957">
        <ele>134</ele>
        <time>2025-07-14T06:35:04Z</time>
      </trkpt>
      <trkpt lat="44.79062" lon="0.42956">
        <ele>134.2</ele>
        <time>2025-07-14T06:35:05Z</time>
      </trkpt>
      <trkpt lat="44.79061" lon="0.42954">
        <ele>134.4</ele>
        <time>2025-07-14T06:35:06Z</time>
      </trkpt>
      <trkpt lat="44.7906" lon="0.42952">
        <ele>134.6</ele>
        <time>2025-07-14T06:35:07Z</time>
      </trkpt>
      <trkpt lat="44.7906" lon="0.42951">
        <ele>134.8</ele>
        <time>2025-07-14T06:35:08Z</time>
      </trkpt>
      <trkpt lat="44.79059" lon="0.42949">
        <ele>135</ele>
        <time>2025-07-14T06:35:09Z</time>
      </trkpt>
      <trkpt lat="44.79059" lon="0.42947">
        <ele>135.4</ele>
        <time>2025-07-14T06:35:10Z</time>
      </trkpt>
      <trkpt lat="44.79058" lon="0.42945">
        <ele>135.6</ele>
        <time>2025-07-14T06:35:11Z</time>
      </trkpt>
      <trkpt lat="44.79058" lon="0.42943">
        <ele>135.8</ele>
        <time>2025-07-14T06:35:12Z</time>
      </trkpt>
      <trkpt lat="44.79057" lon="0.42942">
        <ele>136</ele>
        <time>2025-07-14T06:35:13Z</time>
      </trkpt>
      <trkpt lat="44.79057" lon="0.4294">
        <ele>136.2</ele>
        <time>2025-07-14T06:35:14Z</time>
      </trkpt>
      <trkpt lat="44.79056" lon="0.42938">
        <ele>136.6</ele>
        <time>2025-07-14T06:35:15Z</time>
      </trkpt>
      <trkpt lat="44.79055" lon="0.42936">
        <ele>136.8</ele>
        <time>2025-07-14T06:35:16Z</time>
      </trkpt>
      <trkpt lat="44.79055" lon="0.42935">
        <ele>137</ele>
        <time>2025-07-14T06:35:17Z</time>
      </trkpt>
      <trkpt lat="44.79054" lon="0.42933">
        <ele>137.2</ele>
        <time>2025-07-14T06:35:18Z</time>
      </trkpt>
      <trkpt lat="44.79054" lon="0.42931">
        <ele>137.4</ele>
        <time>2025-07-14T06:35:19Z</time>
      </trkpt>
      <trkpt lat="44.79053" lon="0.42929">
        <ele>137.6</ele>
        <time>2025-07-14T06:35:20Z</time>
      </trkpt>
      <trkpt lat="44.79053" lon="0.42927">
        <ele>138</ele>
        <time>2025-07-14T06:35:21Z</time>
      </trkpt>
      <trkpt lat="44.79053" lon="0.42925">
        <ele>138.2</ele>
        <time>2025-07-14T06:35:22Z</time>
      </trkpt>
      <trkpt lat="44.79052" lon="0.42924">
        <ele>138.4</ele>
        <time>2025-07-14T06:35:23Z</time>
      </trkpt>
      <trkpt lat="44.79052" lon="0.42922">
        <ele>138.6</ele>
        <time>2025-07-14T06:35:24Z</time>
      </trkpt>
      <trkpt lat="44.79051" lon="0.4292">
        <ele>138.8</ele>
        <time>2025-07-14T06:35:25Z</time>
      </trkpt>
      <trkpt lat="44.79051" lon="0.42918">
        <ele>139.2</ele>
        <time>2025-07-14T06:35:26Z</time>
      </trkpt>
      <trkpt lat="44.7905" lon="0.42916">
        <ele>139.4</ele>
        <time>2025-07-14T06:35:27Z</time>
      </trkpt>
      <trkpt lat="44.79049" lon="0.42914">
        <ele>139.6</ele>
        <time>2025-07-14T06:35:28Z</time>
      </trkpt>
      <trkpt lat="44.79049" lon="0.42912">
        <ele>139.8</ele>
        <time>2025-07-14T06:35:29Z</time>
      </trkpt>
      <trkpt lat="44.79048" lon="0.42911">
        <ele>140</ele>
        <time>2025-07-14T06:35:30Z</time>
      </trkpt>
      <trkpt lat="44.79047" lon="0.42909">
        <ele>140.2</ele>
        <time>2025-07-14T06:35:31Z</time>
      </trkpt>
      <trkpt lat="44.79047" lon="0.42906">
        <ele>140.6</ele>
        <time>2025-07-14T06:35:32Z</time>
      </trkpt>
      <trkpt lat="44.79046" lon="0.42905">
        <ele>140.8</ele>
        <time>2025-07-14T06:35:33Z</time>
      </trkpt>
      <trkpt lat="44.79046" lon="0.42903">
        <ele>141</ele>
        <time>2025-07-14T06:35:34Z</time>
      </trkpt>
      <trkpt lat="44.79045" lon="0.42901">
        <ele>141.2</ele>
        <time>2025-07-14T06:35:35Z</time>
      </trkpt>
      <trkpt lat="44.79045" lon="0.42899">
        <ele>141.4</ele>
        <time>2025-07-14T06:35:36Z</time>
      </trkpt>
      <trkpt lat="44.79045" lon="0.42897">
        <ele>141.6</ele>
        <time>2025-07-14T06:35:37Z</time>
      </trkpt>
      <trkpt lat="44.79045" lon="0.42894">
        <ele>141.8</ele>
        <time>2025-07-14T06:35:38Z</time>
      </trkpt>
      <trkpt lat="44.79045" lon="0.42892">
        <ele>142</ele>
        <time>2025-07-14T06:35:39Z</time>
      </trkpt>
      <trkpt lat="44.79045" lon="0.4289">
        <ele>142.2</ele>
        <time>2025-07-14T06:35:40Z</time>
      </trkpt>
      <trkpt lat="44.79045" lon="0.42887">
        <ele>142.4</ele>
        <time>2025-07-14T06:35:41Z</time>
      </trkpt>
      <trkpt lat="44.79045" lon="0.42885">
        <ele>142.6</ele>
        <time>2025-07-14T06:35:42Z</time>
      </trkpt>
      <trkpt lat="44.79045" lon="0.42882">
        <ele>142.8</ele>
        <time>2025-07-14T06:35:43Z</time>
      </trkpt>
      <trkpt lat="44.79045" lon="0.4288">
        <ele>143</ele>
        <time>2025-07-14T06:35:44Z</time>
      </trkpt>
      <trkpt lat="44.79044" lon="0.42877">
        <ele>143.2</ele>
        <time>2025-07-14T06:35:45Z</time>
      </trkpt>
      <trkpt lat="44.79044" lon="0.42875">
        <ele>143.4</ele>
        <time>2025-07-14T06:35:46Z</time>
      </trkpt>
      <trkpt lat="44.79044" lon="0.42872">
        <ele>143.6</ele>
        <time>2025-07-14T06:35:47Z</time>
      </trkpt>
      <trkpt lat="44.79043" lon="0.4287">
        <ele>143.8</ele>
        <time>2025-07-14T06:35:48Z</time>
      </trkpt>
      <trkpt lat="44.79043" lon="0.42868">
        <ele>144</ele>
        <time>2025-07-14T06:35:49Z</time>
      </trkpt>
      <trkpt lat="44.79043" lon="0.42865">
        <ele>144.2</ele>
        <time>2025-07-14T06:35:50Z</time>
      </trkpt>
      <trkpt lat="44.79043" lon="0.42863">
        <ele>144.4</ele>
        <time>2025-07-14T06:35:51Z</time>
      </trkpt>
      <trkpt lat="44.79043" lon="0.4286">
        <ele>144.6</ele>
        <time>2025-07-14T06:35:52Z</time>
      </trkpt>
      <trkpt lat="44.79042" lon="0.42858">
        <ele>144.8</ele>
        <time>2025-07-14T06:35:53Z</time>
      </trkpt>
      <trkpt lat="44.79042" lon="0.42855">
        <ele>145</ele>
        <time>2025-07-14T06:35:54Z</time>
      </trkpt>
      <trkpt lat="44.79042" lon="0.42853">
        <ele>145.2</ele>
        <time>2025-07-14T06:35:55Z</time>
      </trkpt>
      <trkpt lat="44.79042" lon="0.4285">
        <ele>145.4</ele>
        <time>2025-07-14T06:35:56Z</time>
      </trkpt>
      <trkpt lat="44.79042" lon="0.42848">
        <ele>145.6</ele>
        <time>2025-07-14T06:35:57Z</time>
      </trkpt>
      <trkpt lat="44.79042" lon="0.42846">
        <ele>145.8</ele>
        <time>2025-07-14T06:35:58Z</time>
      </trkpt>
      <trkpt lat="44.79042" lon="0.42843">
        <ele>145.8</ele>
        <time>2025-07-14T06:35:59Z</time>
      </trkpt>
      <trkpt lat="44.79041" lon="0.42841">
        <ele>146.2</ele>
        <time>2025-07-14T06:36:00Z</time>
      </trkpt>
      <trkpt lat="44.79041" lon="0.42838">
        <ele>146.2</ele>
        <time>2025-07-14T06:36:01Z</time>
      </trkpt>
      <trkpt lat="44.7904" lon="0.42836">
        <ele>146.4</ele>
        <time>2025-07-14T06:36:02Z</time>
      </trkpt>
      <trkpt lat="44.7904" lon="0.42833">
        <ele>146.6</ele>
        <time>2025-07-14T06:36:03Z</time>
      </trkpt>
      <trkpt lat="44.79039" lon="0.4283">
        <ele>146.8</ele>
        <time>2025-07-14T06:36:04Z</time>
      </trkpt>
      <trkpt lat="44.79039" lon="0.42828">
        <ele>147</ele>
        <time>2025-07-14T06:36:05Z</time>
      </trkpt>
      <trkpt lat="44.7904" lon="0.42826">
        <ele>147.2</ele>
        <time>2025-07-14T06:36:06Z</time>
      </trkpt>
      <trkpt lat="44.7904" lon="0.42823">
        <ele>147.4</ele>
        <time>2025-07-14T06:36:07Z</time>
      </trkpt>
      <trkpt lat="44.7904" lon="0.42821">
        <ele>147.6</ele>
        <time>2025-07-14T06:36:08Z</time>
      </trkpt>
      <trkpt lat="44.7904" lon="0.42818">
        <ele>147.6</ele>
        <time>2025-07-14T06:36:09Z</time>
      </trkpt>
      <trkpt lat="44.79039" lon="0.42815">
        <ele>147.8</ele>
        <time>2025-07-14T06:36:10Z</time>
      </trkpt>
      <trkpt lat="44.79037" lon="0.42814">
        <ele>148</ele>
        <time>2025-07-14T06:36:11Z</time>
      </trkpt>
      <trkpt lat="44.79036" lon="0.42812">
        <ele>148.2</ele>
        <time>2025-07-14T06:36:12Z</time>
      </trkpt>
      <trkpt lat="44.79033" lon="0.42811">
        <ele>148.2</ele>
        <time>2025-07-14T06:36:13Z</time>
      </trkpt>
      <trkpt lat="44.79031" lon="0.4281">
        <ele>148.4</ele>
        <time>2025-07-14T06:36:14Z</time>
      </trkpt>
      <trkpt lat="44.79028" lon="0.42809">
        <ele>148.4</ele>
        <time>2025-07-14T06:36:15Z</time>
      </trkpt>
      <trkpt lat="44.79026" lon="0.42808">
        <ele>148.6</ele>
        <time>2025-07-14T06:36:16Z</time>
      </trkpt>
      <trkpt lat="44.79023" lon="0.42807">
        <ele>148.6</ele>
        <time>2025-07-14T06:36:17Z</time>
      </trkpt>
      <trkpt lat="44.79021" lon="0.42805">
        <ele>148.6</ele>
        <time>2025-07-14T06:36:18Z</time>
      </trkpt>
      <trkpt lat="44.79019" lon="0.42802">
        <ele>148.6</ele>
        <time>2025-07-14T06:36:19Z</time>
      </trkpt>
      <trkpt lat="44.79017" lon="0.42798">
        <ele>148.4</ele>
        <time>2025-07-14T06:36:20Z</time>
      </trkpt>
      <trkpt lat="44.79016" lon="0.42794">
        <ele>148.4</ele>
        <time>2025-07-14T06:36:21Z</time>
      </trkpt>
      <trkpt lat="44.79016" lon="0.4279">
        <ele>148.6</ele>
        <time>2025-07-14T06:36:22Z</time>
      </trkpt>
      <trkpt lat="44.79016" lon="0.42786">
        <ele>148.4</ele>
        <time>2025-07-14T06:36:23Z</time>
      </trkpt>
      <trkpt lat="44.79015" lon="0.42782">
        <ele>148.6</ele>
        <time>2025-07-14T06:36:24Z</time>
      </trkpt>
      <trkpt lat="44.79015" lon="0.42779">
        <ele>148.6</ele>
        <time>2025-07-14T06:36:25Z</time>
      </trkpt>
      <trkpt lat="44.79015" lon="0.42775">
        <ele>148.8</ele>
        <time>2025-07-14T06:36:26Z</time>
      </trkpt>
      <trkpt lat="44.79014" lon="0.42771">
        <ele>148.8</ele>
        <time>2025-07-14T06:36:27Z</time>
      </trkpt>
      <trkpt lat="44.79014" lon="0.42767">
        <ele>149</ele>
        <time>2025-07-14T06:36:28Z</time>
      </trkpt>
      <trkpt lat="44.79014" lon="0.42763">
        <ele>149.2</ele>
        <time>2025-07-14T06:36:29Z</time>
      </trkpt>
      <trkpt lat="44.79014" lon="0.42759">
        <ele>149.4</ele>
        <time>2025-07-14T06:36:30Z</time>
      </trkpt>
      <trkpt lat="44.79014" lon="0.42755">
        <ele>149.6</ele>
        <time>2025-07-14T06:36:31Z</time>
      </trkpt>
      <trkpt lat="44.79014" lon="0.42751">
        <ele>149.6</ele>
        <time>2025-07-14T06:36:32Z</time>
      </trkpt>
      <trkpt lat="44.79013" lon="0.42746">
        <ele>149.8</ele>
        <time>2025-07-14T06:36:33Z</time>
      </trkpt>
      <trkpt lat="44.7901" lon="0.42743">
        <ele>149.8</ele>
        <time>2025-07-14T06:36:34Z</time>
      </trkpt>
      <trkpt lat="44.79006" lon="0.42741">
        <ele>149.8</ele>
        <time>2025-07-14T06:36:35Z</time>
      </trkpt>
      <trkpt lat="44.79002" lon="0.4274">
        <ele>149.6</ele>
        <time>2025-07-14T06:36:36Z</time>
      </trkpt>
      <trkpt lat="44.78997" lon="0.42737">
        <ele>149.6</ele>
        <time>2025-07-14T06:36:37Z</time>
      </trkpt>
      <trkpt lat="44.78992" lon="0.42735">
        <ele>149.2</ele>
        <time>2025-07-14T06:36:38Z</time>
      </trkpt>
      <trkpt lat="44.78987" lon="0.42733">
        <ele>149</ele>
        <time>2025-07-14T06:36:39Z</time>
      </trkpt>
      <trkpt lat="44.78982" lon="0.42731">
        <ele>148.8</ele>
        <time>2025-07-14T06:36:40Z</time>
      </trkpt>
      <trkpt lat="44.78977" lon="0.42729">
        <ele>148.4</ele>
        <time>2025-07-14T06:36:41Z</time>
      </trkpt>
      <trkpt lat="44.78973" lon="0.42726">
        <ele>148.2</ele>
        <time>2025-07-14T06:36:42Z</time>
      </trkpt>
      <trkpt lat="44.78968" lon="0.42724">
        <ele>148.2</ele>
        <time>2025-07-14T06:36:43Z</time>
      </trkpt>
      <trkpt lat="44.78964" lon="0.42721">
        <ele>148</ele>
        <time>2025-07-14T06:36:44Z</time>
      </trkpt>
      <trkpt lat="44.78959" lon="0.42719">
        <ele>147.8</ele>
        <time>2025-07-14T06:36:45Z</time>
      </trkpt>
      <trkpt lat="44.78955" lon="0.42717">
        <ele>147.6</ele>
        <time>2025-07-14T06:36:46Z</time>
      </trkpt>
      <trkpt lat="44.7895" lon="0.42715">
        <ele>147.4</ele>
        <time>2025-07-14T06:36:47Z</time>
      </trkpt>
      <trkpt lat="44.78946" lon="0.42713">
        <ele>147.4</ele>
        <time>2025-07-14T06:36:48Z</time>
      </trkpt>
      <trkpt lat="44.78941" lon="0.42711">
        <ele>147.2</ele>
        <time>2025-07-14T06:36:49Z</time>
      </trkpt>
      <trkpt lat="44.78937" lon="0.42709">
        <ele>147</ele>
        <time>2025-07-14T06:36:50Z</time>
      </trkpt>
      <trkpt lat="44.78933" lon="0.42706">
        <ele>147</ele>
        <time>2025-07-14T06:36:51Z</time>
      </trkpt>
      <trkpt lat="44.78929" lon="0.42704">
        <ele>147</ele>
        <time>2025-07-14T06:36:52Z</time>
      </trkpt>
      <trkpt lat="44.78925" lon="0.42703">
        <ele>147</ele>
        <time>2025-07-14T06:36:53Z</time>
      </trkpt>
      <trkpt lat="44.7892" lon="0.42701">
        <ele>147</ele>
        <time>2025-07-14T06:36:54Z</time>
      </trkpt>
      <trkpt lat="44.78916" lon="0.42699">
        <ele>147.2</ele>
        <time>2025-07-14T06:36:55Z</time>
      </trkpt>
      <trkpt lat="44.78912" lon="0.42697">
        <ele>147.2</ele>
        <time>2025-07-14T06:36:56Z</time>
      </trkpt>
      <trkpt lat="44.78908" lon="0.42695">
        <ele>147.2</ele>
        <time>2025-07-14T06:36:57Z</time>
      </trkpt>
      <trkpt lat="44.78904" lon="0.42693">
        <ele>147.4</ele>
        <time>2025-07-14T06:36:58Z</time>
      </trkpt>
      <trkpt lat="44.789" lon="0.42691">
        <ele>147.4</ele>
        <time>2025-07-14T06:36:59Z</time>
      </trkpt>
      <trkpt lat="44.78896" lon="0.42689">
        <ele>147.4</ele>
        <time>2025-07-14T06:37:00Z</time>
      </trkpt>
      <trkpt lat="44.78892" lon="0.42687">
        <ele>147.4</ele>
        <time>2025-07-14T06:37:01Z</time>
      </trkpt>
      <trkpt lat="44.78888" lon="0.42685">
        <ele>147.6</ele>
        <time>2025-07-14T06:37:02Z</time>
      </trkpt>
      <trkpt lat="44.78884" lon="0.42686">
        <ele>147.6</ele>
        <time>2025-07-14T06:37:03Z</time>
      </trkpt>
      <trkpt lat="44.78882" lon="0.4269">
        <ele>147.8</ele>
        <time>2025-07-14T06:37:04Z</time>
      </trkpt>
      <trkpt lat="44.7888" lon="0.42695">
        <ele>147.8</ele>
        <time>2025-07-14T06:37:05Z</time>
      </trkpt>
      <trkpt lat="44.78878" lon="0.42701">
        <ele>147.8</ele>
        <time>2025-07-14T06:37:06Z</time>
      </trkpt>
      <trkpt lat="44.78876" lon="0.42708">
        <ele>147.8</ele>
        <time>2025-07-14T06:37:07Z</time>
      </trkpt>
      <trkpt lat="44.78875" lon="0.42716">
        <ele>147.6</ele>
        <time>2025-07-14T06:37:08Z</time>
      </trkpt>
      <trkpt lat="44.78873" lon="0.42724">
        <ele>147.4</ele>
        <time>2025-07-14T06:37:09Z</time>
      </trkpt>
      <trkpt lat="44.78871" lon="0.42732">
        <ele>147</ele>
        <time>2025-07-14T06:37:10Z</time>
      </trkpt>
      <trkpt lat="44.78867" lon="0.42738">
        <ele>146.6</ele>
        <time>2025-07-14T06:37:11Z</time>
      </trkpt>
      <trkpt lat="44.78862" lon="0.42742">
        <ele>146.2</ele>
        <time>2025-07-14T06:37:12Z</time>
      </trkpt>
      <trkpt lat="44.78857" lon="0.42741">
        <ele>145.8</ele>
        <time>2025-07-14T06:37:13Z</time>
      </trkpt>
      <trkpt lat="44.78853" lon="0.42739">
        <ele>145.6</ele>
        <time>2025-07-14T06:37:14Z</time>
      </trkpt>
      <trkpt lat="44.78849" lon="0.42737">
        <ele>145.2</ele>
        <time>2025-07-14T06:37:15Z</time>
      </trkpt>
      <trkpt lat="44.78846" lon="0.42735">
        <ele>145.2</ele>
        <time>2025-07-14T06:37:16Z</time>
      </trkpt>
      <trkpt lat="44.78842" lon="0.42733">
        <ele>145</ele>
        <time>2025-07-14T06:37:17Z</time>
      </trkpt>
      <trkpt lat="44.78838" lon="0.42731">
        <ele>145.2</ele>
        <time>2025-07-14T06:37:18Z</time>
      </trkpt>
      <trkpt lat="44.78835" lon="0.42729">
        <ele>145.2</ele>
        <time>2025-07-14T06:37:19Z</time>
      </trkpt>
      <trkpt lat="44.78831" lon="0.42727">
        <ele>145.2</ele>
        <time>2025-07-14T06:37:20Z</time>
      </trkpt>
      <trkpt lat="44.78828" lon="0.42726">
        <ele>145.2</ele>
        <time>2025-07-14T06:37:21Z</time>
      </trkpt>
      <trkpt lat="44.78824" lon="0.42724">
        <ele>145.2</ele>
        <time>2025-07-14T06:37:22Z</time>
      </trkpt>
      <trkpt lat="44.78821" lon="0.42722">
        <ele>145.4</ele>
        <time>2025-07-14T06:37:23Z</time>
      </trkpt>
      <trkpt lat="44.78817" lon="0.4272">
        <ele>145.6</ele>
        <time>2025-07-14T06:37:24Z</time>
      </trkpt>
      <trkpt lat="44.78814" lon="0.42718">
        <ele>145.6</ele>
        <time>2025-07-14T06:37:25Z</time>
      </trkpt>
      <trkpt lat="44.7881" lon="0.42716">
        <ele>145.6</ele>
        <time>2025-07-14T06:37:26Z</time>
      </trkpt>
      <trkpt lat="44.78807" lon="0.42715">
        <ele>145.8</ele>
        <time>2025-07-14T06:37:27Z</time>
      </trkpt>
      <trkpt lat="44.78803" lon="0.42713">
        <ele>145.8</ele>
        <time>2025-07-14T06:37:28Z</time>
      </trkpt>
      <trkpt lat="44.78799" lon="0.4271">
        <ele>145.8</ele>
        <time>2025-07-14T06:37:29Z</time>
      </trkpt>
      <trkpt lat="44.78795" lon="0.42708">
        <ele>145.8</ele>
        <time>2025-07-14T06:37:30Z</time>
      </trkpt>
      <trkpt lat="44.78791" lon="0.42707">
        <ele>146</ele>
        <time>2025-07-14T06:37:31Z</time>
      </trkpt>
      <trkpt lat="44.78787" lon="0.42707">
        <ele>145.8</ele>
        <time>2025-07-14T06:37:32Z</time>
      </trkpt>
      <trkpt lat="44.78783" lon="0.4271">
        <ele>145.8</ele>
        <time>2025-07-14T06:37:33Z</time>
      </trkpt>
      <trkpt lat="44.78779" lon="0.42711">
        <ele>145.8</ele>
        <time>2025-07-14T06:37:34Z</time>
      </trkpt>
      <trkpt lat="44.78774" lon="0.4271">
        <ele>145.8</ele>
        <time>2025-07-14T06:37:35Z</time>
      </trkpt>
      <trkpt lat="44.7877" lon="0.42707">
        <ele>145.8</ele>
        <time>2025-07-14T06:37:36Z</time>
      </trkpt>
      <trkpt lat="44.78766" lon="0.42705">
        <ele>145.8</ele>
        <time>2025-07-14T06:37:37Z</time>
      </trkpt>
      <trkpt lat="44.78762" lon="0.42703">
        <ele>145.6</ele>
        <time>2025-07-14T06:37:38Z</time>
      </trkpt>
      <trkpt lat="44.78757" lon="0.42701">
        <ele>145.6</ele>
        <time>2025-07-14T06:37:39Z</time>
      </trkpt>
      <trkpt lat="44.78753" lon="0.42699">
        <ele>145.4</ele>
        <time>2025-07-14T06:37:40Z</time>
      </trkpt>
      <trkpt lat="44.78749" lon="0.42697">
        <ele>145.4</ele>
        <time>2025-07-14T06:37:41Z</time>
      </trkpt>
      <trkpt lat="44.78745" lon="0.42694">
        <ele>145.4</ele>
        <time>2025-07-14T06:37:42Z</time>
      </trkpt>
      <trkpt lat="44.7874" lon="0.42692">
        <ele>145.2</ele>
        <time>2025-07-14T06:37:43Z</time>
      </trkpt>
      <trkpt lat="44.78735" lon="0.4269">
        <ele>145.2</ele>
        <time>2025-07-14T06:37:44Z</time>
      </trkpt>
      <trkpt lat="44.7873" lon="0.42688">
        <ele>145</ele>
        <time>2025-07-14T06:37:45Z</time>
      </trkpt>
      <trkpt lat="44.78726" lon="0.42686">
        <ele>145</ele>
        <time>2025-07-14T06:37:46Z</time>
      </trkpt>
      <trkpt lat="44.78721" lon="0.42684">
        <ele>145</ele>
        <time>2025-07-14T06:37:47Z</time>
      </trkpt>
      <trkpt lat="44.78717" lon="0.42679">
        <ele>144.8</ele>
        <time>2025-07-14T06:37:48Z</time>
      </trkpt>
      <trkpt lat="44.78715" lon="0.42673">
        <ele>144.8</ele>
        <time>2025-07-14T06:37:49Z</time>
      </trkpt>
      <trkpt lat="44.78715" lon="0.42667">
        <ele>144.8</ele>
        <time>2025-07-14T06:37:50Z</time>
      </trkpt>
      <trkpt lat="44.78716" lon="0.42662">
        <ele>144.6</ele>
        <time>2025-07-14T06:37:51Z</time>
      </trkpt>
      <trkpt lat="44.78717" lon="0.42656">
        <ele>144.6</ele>
        <time>2025-07-14T06:37:52Z</time>
      </trkpt>
      <trkpt lat="44.78719" lon="0.4265">
        <ele>144.6</ele>
        <time>2025-07-14T06:37:53Z</time>
      </trkpt>
      <trkpt lat="44.78721" lon="0.42644">
        <ele>144.6</ele>
        <time>2025-07-14T06:37:54Z</time>
      </trkpt>
      <trkpt lat="44.78722" lon="0.42639">
        <ele>144.6</ele>
        <time>2025-07-14T06:37:55Z</time>
      </trkpt>
      <trkpt lat="44.78724" lon="0.42633">
        <ele>144.8</ele>
        <time>2025-07-14T06:37:56Z</time>
      </trkpt>
      <trkpt lat="44.78725" lon="0.42627">
        <ele>144.8</ele>
        <time>2025-07-14T06:37:57Z</time>
      </trkpt>
      <trkpt lat="44.78726" lon="0.42621">
        <ele>145</ele>
        <time>2025-07-14T06:37:58Z</time>
      </trkpt>
      <trkpt lat="44.78725" lon="0.42615">
        <ele>145</ele>
        <time>2025-07-14T06:37:59Z</time>
      </trkpt>
      <trkpt lat="44.78722" lon="0.42612">
        <ele>145</ele>
        <time>2025-07-14T06:38:00Z</time>
      </trkpt>
      <trkpt lat="44.78718" lon="0.4261">
        <ele>145</ele>
        <time>2025-07-14T06:38:01Z</time>
      </trkpt>
      <trkpt lat="44.78714" lon="0.42609">
        <ele>144.8</ele>
        <time>2025-07-14T06:38:02Z</time>
      </trkpt>
      <trkpt lat="44.78709" lon="0.42608">
        <ele>144.8</ele>
        <time>2025-07-14T06:38:03Z</time>
      </trkpt>
      <trkpt lat="44.78704" lon="0.42606">
        <ele>144.8</ele>
        <time>2025-07-14T06:38:04Z</time>
      </trkpt>
      <trkpt lat="44.78699" lon="0.42605">
        <ele>144.8</ele>
        <time>2025-07-14T06:38:05Z</time>
      </trkpt>
      <trkpt lat="44.78693" lon="0.42604">
        <ele>144.6</ele>
        <time>2025-07-14T06:38:06Z</time>
      </trkpt>
      <trkpt lat="44.78688" lon="0.42603">
        <ele>144.2</ele>
        <time>2025-07-14T06:38:07Z</time>
      </trkpt>
      <trkpt lat="44.78682" lon="0.42602">
        <ele>144</ele>
        <time>2025-07-14T06:38:08Z</time>
      </trkpt>
      <trkpt lat="44.78675" lon="0.42601">
        <ele>143.6</ele>
        <time>2025-07-14T06:38:09Z</time>
      </trkpt>
      <trkpt lat="44.78669" lon="0.426">
        <ele>143.4</ele>
        <time>2025-07-14T06:38:10Z</time>
      </trkpt>
      <trkpt lat="44.78663" lon="0.42599">
        <ele>143.2</ele>
        <time>2025-07-14T06:38:11Z</time>
      </trkpt>
      <trkpt lat="44.78656" lon="0.42598">
        <ele>142.8</ele>
        <time>2025-07-14T06:38:12Z</time>
      </trkpt>
      <trkpt lat="44.78651" lon="0.42596">
        <ele>142.4</ele>
        <time>2025-07-14T06:38:13Z</time>
      </trkpt>
      <trkpt lat="44.78648" lon="0.42591">
        <ele>142</ele>
        <time>2025-07-14T06:38:14Z</time>
      </trkpt>
      <trkpt lat="44.78647" lon="0.42585">
        <ele>141.6</ele>
        <time>2025-07-14T06:38:15Z</time>
      </trkpt>
      <trkpt lat="44.78649" lon="0.42579">
        <ele>141.4</ele>
        <time>2025-07-14T06:38:16Z</time>
      </trkpt>
      <trkpt lat="44.7865" lon="0.42573">
        <ele>141.2</ele>
        <time>2025-07-14T06:38:17Z</time>
      </trkpt>
      <trkpt lat="44.78651" lon="0.42568">
        <ele>141</ele>
        <time>2025-07-14T06:38:18Z</time>
      </trkpt>
      <trkpt lat="44.7865" lon="0.42564">
        <ele>141</ele>
        <time>2025-07-14T06:38:19Z</time>
      </trkpt>
      <trkpt lat="44.78647" lon="0.4256">
        <ele>141</ele>
        <time>2025-07-14T06:38:20Z</time>
      </trkpt>
      <trkpt lat="44.78644" lon="0.42556">
        <ele>140.8</ele>
        <time>2025-07-14T06:38:21Z</time>
      </trkpt>
      <trkpt lat="44.7864" lon="0.42552">
        <ele>140.6</ele>
        <time>2025-07-14T06:38:22Z</time>
      </trkpt>
      <trkpt lat="44.78635" lon="0.42549">
        <ele>140.2</ele>
        <time>2025-07-14T06:38:23Z</time>
      </trkpt>
      <trkpt lat="44.7863" lon="0.42545">
        <ele>140</ele>
        <time>2025-07-14T06:38:24Z</time>
      </trkpt>
      <trkpt lat="44.78626" lon="0.4254">
        <ele>139.2</ele>
        <time>2025-07-14T06:38:25Z</time>
      </trkpt>
      <trkpt lat="44.78622" lon="0.42534">
        <ele>139</ele>
        <time>2025-07-14T06:38:26Z</time>
      </trkpt>
      <trkpt lat="44.78618" lon="0.42527">
        <ele>138.6</ele>
        <time>2025-07-14T06:38:27Z</time>
      </trkpt>
      <trkpt lat="44.78613" lon="0.42519">
        <ele>138.2</ele>
        <time>2025-07-14T06:38:28Z</time>
      </trkpt>
      <trkpt lat="44.78608" lon="0.42512">
        <ele>137.6</ele>
        <time>2025-07-14T06:38:29Z</time>
      </trkpt>
      <trkpt lat="44.78603" lon="0.42507">
        <ele>137</ele>
        <time>2025-07-14T06:38:30Z</time>
      </trkpt>
      <trkpt lat="44.78596" lon="0.42505">
        <ele>136.4</ele>
        <time>2025-07-14T06:38:31Z</time>
      </trkpt>
      <trkpt lat="44.78591" lon="0.42505">
        <ele>135.6</ele>
        <time>2025-07-14T06:38:32Z</time>
      </trkpt>
      <trkpt lat="44.78586" lon="0.42504">
        <ele>134.8</ele>
        <time>2025-07-14T06:38:33Z</time>
      </trkpt>
      <trkpt lat="44.78581" lon="0.42503">
        <ele>134.4</ele>
        <time>2025-07-14T06:38:34Z</time>
      </trkpt>
      <trkpt lat="44.78574" lon="0.42503">
        <ele>133.8</ele>
        <time>2025-07-14T06:38:35Z</time>
      </trkpt>
      <trkpt lat="44.78568" lon="0.42503">
        <ele>133.4</ele>
        <time>2025-07-14T06:38:36Z</time>
      </trkpt>
      <trkpt lat="44.78561" lon="0.42504">
        <ele>133.2</ele>
        <time>2025-07-14T06:38:37Z</time>
      </trkpt>
      <trkpt lat="44.78555" lon="0.42504">
        <ele>132.8</ele>
        <time>2025-07-14T06:38:38Z</time>
      </trkpt>
      <trkpt lat="44.78549" lon="0.42502">
        <ele>132.6</ele>
        <time>2025-07-14T06:38:39Z</time>
      </trkpt>
      <trkpt lat="44.78541" lon="0.42499">
        <ele>132.4</ele>
        <time>2025-07-14T06:38:40Z</time>
      </trkpt>
      <trkpt lat="44.78533" lon="0.42496">
        <ele>131.8</ele>
        <time>2025-07-14T06:38:41Z</time>
      </trkpt>
      <trkpt lat="44.78524" lon="0.42493">
        <ele>131</ele>
        <time>2025-07-14T06:38:42Z</time>
      </trkpt>
      <trkpt lat="44.78518" lon="0.42489">
        <ele>130</ele>
        <time>2025-07-14T06:38:43Z</time>
      </trkpt>
      <trkpt lat="44.78514" lon="0.42483">
        <ele>128.6</ele>
        <time>2025-07-14T06:38:44Z</time>
      </trkpt>
      <trkpt lat="44.78512" lon="0.42474">
        <ele>127.6</ele>
        <time>2025-07-14T06:38:45Z</time>
      </trkpt>
      <trkpt lat="44.78508" lon="0.42467">
        <ele>126.4</ele>
        <time>2025-07-14T06:38:46Z</time>
      </trkpt>
      <trkpt lat="44.78503" lon="0.42462">
        <ele>125.2</ele>
        <time>2025-07-14T06:38:47Z</time>
      </trkpt>
      <trkpt lat="44.78497" lon="0.42461">
        <ele>124</ele>
        <time>2025-07-14T06:38:48Z</time>
      </trkpt>
      <trkpt lat="44.78492" lon="0.42458">
        <ele>122.8</ele>
        <time>2025-07-14T06:38:49Z</time>
      </trkpt>
      <trkpt lat="44.78488" lon="0.42451">
        <ele>121.6</ele>
        <time>2025-07-14T06:38:50Z</time>
      </trkpt>
      <trkpt lat="44.78486" lon="0.42443">
        <ele>120.4</ele>
        <time>2025-07-14T06:38:51Z</time>
      </trkpt>
      <trkpt lat="44.78482" lon="0.42437">
        <ele>118.8</ele>
        <time>2025-07-14T06:38:52Z</time>
      </trkpt>
      <trkpt lat="44.78476" lon="0.42435">
        <ele>117.6</ele>
        <time>2025-07-14T06:38:53Z</time>
      </trkpt>
      <trkpt lat="44.78469" lon="0.42436">
        <ele>116.4</ele>
        <time>2025-07-14T06:38:54Z</time>
      </trkpt>
      <trkpt lat="44.78464" lon="0.42434">
        <ele>115.6</ele>
        <time>2025-07-14T06:38:55Z</time>
      </trkpt>
      <trkpt lat="44.78462" lon="0.42428">
        <ele>114.8</ele>
        <time>2025-07-14T06:38:56Z</time>
      </trkpt>
      <trkpt lat="44.78459" lon="0.4242">
        <ele>113.8</ele>
        <time>2025-07-14T06:38:57Z</time>
      </trkpt>
      <trkpt lat="44.78455" lon="0.42412">
        <ele>112.6</ele>
        <time>2025-07-14T06:38:58Z</time>
      </trkpt>
      <trkpt lat="44.78452" lon="0.42404">
        <ele>111.6</ele>
        <time>2025-07-14T06:38:59Z</time>
      </trkpt>
      <trkpt lat="44.78451" lon="0.42395">
        <ele>110.8</ele>
        <time>2025-07-14T06:39:00Z</time>
      </trkpt>
      <trkpt lat="44.78452" lon="0.42386">
        <ele>110.2</ele>
        <time>2025-07-14T06:39:01Z</time>
      </trkpt>
      <trkpt lat="44.78454" lon="0.42379">
        <ele>109.2</ele>
        <time>2025-07-14T06:39:02Z</time>
      </trkpt>
      <trkpt lat="44.78456" lon="0.42372">
        <ele>108.4</ele>
        <time>2025-07-14T06:39:03Z</time>
      </trkpt>
      <trkpt lat="44.78458" lon="0.42366">
        <ele>107.8</ele>
        <time>2025-07-14T06:39:04Z</time>
      </trkpt>
      <trkpt lat="44.7846" lon="0.4236">
        <ele>107.4</ele>
        <time>2025-07-14T06:39:05Z</time>
      </trkpt>
      <trkpt lat="44.78463" lon="0.42354">
        <ele>107.4</ele>
        <time>2025-07-14T06:39:06Z</time>
      </trkpt>
      <trkpt lat="44.78465" lon="0.42348">
        <ele>107.4</ele>
        <time>2025-07-14T06:39:07Z</time>
      </trkpt>
      <trkpt lat="44.78468" lon="0.42342">
        <ele>107.6</ele>
        <time>2025-07-14T06:39:08Z</time>
      </trkpt>
      <trkpt lat="44.7847" lon="0.42337">
        <ele>108</ele>
        <time>2025-07-14T06:39:09Z</time>
      </trkpt>
      <trkpt lat="44.78471" lon="0.42332">
        <ele>108</ele>
        <time>2025-07-14T06:39:10Z</time>
      </trkpt>
      <trkpt lat="44.78472" lon="0.42328">
        <ele>108.4</ele>
        <time>2025-07-14T06:39:11Z</time>
      </trkpt>
      <trkpt lat="44.78474" lon="0.42324">
        <ele>108.6</ele>
        <time>2025-07-14T06:39:12Z</time>
      </trkpt>
      <trkpt lat="44.78475" lon="0.4232">
        <ele>109</ele>
        <time>2025-07-14T06:39:13Z</time>
      </trkpt>
      <trkpt lat="44.78476" lon="0.42316">
        <ele>109.2</ele>
        <time>2025-07-14T06:39:14Z</time>
      </trkpt>
      <trkpt lat="44.78477" lon="0.42312">
        <ele>109.6</ele>
        <time>2025-07-14T06:39:15Z</time>
      </trkpt>
      <trkpt lat="44.78479" lon="0.42307">
        <ele>109.8</ele>
        <time>2025-07-14T06:39:16Z</time>
      </trkpt>
      <trkpt lat="44.7848" lon="0.42304">
        <ele>110</ele>
        <time>2025-07-14T06:39:17Z</time>
      </trkpt>
      <trkpt lat="44.78481" lon="0.423">
        <ele>110.2</ele>
        <time>2025-07-14T06:39:18Z</time>
      </trkpt>
      <trkpt lat="44.78483" lon="0.42296">
        <ele>110.4</ele>
        <time>2025-07-14T06:39:19Z</time>
      </trkpt>
      <trkpt lat="44.78484" lon="0.42292">
        <ele>110.6</ele>
        <time>2025-07-14T06:39:20Z</time>
      </trkpt>
      <trkpt lat="44.78485" lon="0.42288">
        <ele>110.8</ele>
        <time>2025-07-14T06:39:21Z</time>
      </trkpt>
      <trkpt lat="44.78486" lon="0.42284">
        <ele>111.2</ele>
        <time>2025-07-14T06:39:22Z</time>
      </trkpt>
      <trkpt lat="44.78487" lon="0.42281">
        <ele>111.6</ele>
        <time>2025-07-14T06:39:23Z</time>
      </trkpt>
      <trkpt lat="44.78488" lon="0.42278">
        <ele>111.8</ele>
        <time>2025-07-14T06:39:24Z</time>
      </trkpt>
      <trkpt lat="44.78489" lon="0.42275">
        <ele>112.2</ele>
        <time>2025-07-14T06:39:25Z</time>
      </trkpt>
      <trkpt lat="44.7849" lon="0.42271">
        <ele>112.4</ele>
        <time>2025-07-14T06:39:26Z</time>
      </trkpt>
      <trkpt lat="44.78491" lon="0.42268">
        <ele>112.8</ele>
        <time>2025-07-14T06:39:27Z</time>
      </trkpt>
      <trkpt lat="44.78493" lon="0.42265">
        <ele>113</ele>
        <time>2025-07-14T06:39:28Z</time>
      </trkpt>
      <trkpt lat="44.78494" lon="0.42262">
        <ele>113.2</ele>
        <time>2025-07-14T06:39:29Z</time>
      </trkpt>
      <trkpt lat="44.78494" lon="0.42259">
        <ele>113.4</ele>
        <time>2025-07-14T06:39:30Z</time>
      </trkpt>
      <trkpt lat="44.78496" lon="0.42256">
        <ele>113.8</ele>
        <time>2025-07-14T06:39:31Z</time>
      </trkpt>
      <trkpt lat="44.78497" lon="0.42253">
        <ele>114</ele>
        <time>2025-07-14T06:39:32Z</time>
      </trkpt>
      <trkpt lat="44.78497" lon="0.42251">
        <ele>114.2</ele>
        <time>2025-07-14T06:39:33Z</time>
      </trkpt>
      <trkpt lat="44.78498" lon="0.42248">
        <ele>114.4</ele>
        <time>2025-07-14T06:39:34Z</time>
      </trkpt>
      <trkpt lat="44.78499" lon="0.42246">
        <ele>114.6</ele>
        <time>2025-07-14T06:39:35Z</time>
      </trkpt>
      <trkpt lat="44.785" lon="0.42244">
        <ele>115</ele>
        <time>2025-07-14T06:39:36Z</time>
      </trkpt>
      <trkpt lat="44.78502" lon="0.42241">
        <ele>115.2</ele>
        <time>2025-07-14T06:39:37Z</time>
      </trkpt>
      <trkpt lat="44.78502" lon="0.42239">
        <ele>115.4</ele>
        <time>2025-07-14T06:39:38Z</time>
      </trkpt>
      <trkpt lat="44.78503" lon="0.42236">
        <ele>115.6</ele>
        <time>2025-07-14T06:39:39Z</time>
      </trkpt>
      <trkpt lat="44.78505" lon="0.42234">
        <ele>115.8</ele>
        <time>2025-07-14T06:39:40Z</time>
      </trkpt>
      <trkpt lat="44.78505" lon="0.42232">
        <ele>116</ele>
        <time>2025-07-14T06:39:41Z</time>
      </trkpt>
      <trkpt lat="44.78506" lon="0.42229">
        <ele>116.2</ele>
        <time>2025-07-14T06:39:42Z</time>
      </trkpt>
      <trkpt lat="44.78507" lon="0.42226">
        <ele>116.4</ele>
        <time>2025-07-14T06:39:43Z</time>
      </trkpt>
      <trkpt lat="44.78508" lon="0.42224">
        <ele>116.6</ele>
        <time>2025-07-14T06:39:44Z</time>
      </trkpt>
      <trkpt lat="44.78509" lon="0.42221">
        <ele>116.8</ele>
        <time>2025-07-14T06:39:45Z</time>
      </trkpt>
      <trkpt lat="44.7851" lon="0.42219">
        <ele>117</ele>
        <time>2025-07-14T06:39:46Z</time>
      </trkpt>
      <trkpt lat="44.7851" lon="0.42216">
        <ele>117</ele>
        <time>2025-07-14T06:39:47Z</time>
      </trkpt>
      <trkpt lat="44.78511" lon="0.42213">
        <ele>117.2</ele>
        <time>2025-07-14T06:39:48Z</time>
      </trkpt>
      <trkpt lat="44.78511" lon="0.4221">
        <ele>117.4</ele>
        <time>2025-07-14T06:39:49Z</time>
      </trkpt>
      <trkpt lat="44.78509" lon="0.42208">
        <ele>117.6</ele>
        <time>2025-07-14T06:39:50Z</time>
      </trkpt>
      <trkpt lat="44.78506" lon="0.42207">
        <ele>117.8</ele>
        <time>2025-07-14T06:39:51Z</time>
      </trkpt>
      <trkpt lat="44.78503" lon="0.42206">
        <ele>117.8</ele>
        <time>2025-07-14T06:39:52Z</time>
      </trkpt>
      <trkpt lat="44.785" lon="0.42206">
        <ele>118</ele>
        <time>2025-07-14T06:39:53Z</time>
      </trkpt>
      <trkpt lat="44.78497" lon="0.42205">
        <ele>118</ele>
        <time>2025-07-14T06:39:54Z</time>
      </trkpt>
      <trkpt lat="44.78493" lon="0.42205">
        <ele>118</ele>
        <time>2025-07-14T06:39:55Z</time>
      </trkpt>
      <trkpt lat="44.7849" lon="0.42203">
        <ele>118</ele>
        <time>2025-07-14T06:39:56Z</time>
      </trkpt>
      <trkpt lat="44.78486" lon="0.42202">
        <ele>118</ele>
        <time>2025-07-14T06:39:57Z</time>
      </trkpt>
      <trkpt lat="44.78483" lon="0.42199">
        <ele>118</ele>
        <time>2025-07-14T06:39:58Z</time>
      </trkpt>
      <trkpt lat="44.7848" lon="0.42197">
        <ele>118</ele>
        <time>2025-07-14T06:39:59Z</time>
      </trkpt>
      <trkpt lat="44.78476" lon="0.42194">
        <ele>118</ele>
        <time>2025-07-14T06:40:00Z</time>
      </trkpt>
      <trkpt lat="44.78473" lon="0.42192">
        <ele>117.8</ele>
        <time>2025-07-14T06:40:01Z</time>
      </trkpt>
      <trkpt lat="44.78469" lon="0.42189">
        <ele>117.8</ele>
        <time>2025-07-14T06:40:02Z</time>
      </trkpt>
      <trkpt lat="44.78465" lon="0.42187">
        <ele>117.8</ele>
        <time>2025-07-14T06:40:03Z</time>
      </trkpt>
      <trkpt lat="44.78462" lon="0.42184">
        <ele>117.8</ele>
        <time>2025-07-14T06:40:04Z</time>
      </trkpt>
      <trkpt lat="44.78458" lon="0.42182">
        <ele>117.6</ele>
        <time>2025-07-14T06:40:05Z</time>
      </trkpt>
      <trkpt lat="44.78454" lon="0.4218">
        <ele>117.8</ele>
        <time>2025-07-14T06:40:06Z</time>
      </trkpt>
      <trkpt lat="44.7845" lon="0.42179">
        <ele>117.8</ele>
        <time>2025-07-14T06:40:07Z</time>
      </trkpt>
      <trkpt lat="44.78446" lon="0.42177">
        <ele>117.8</ele>
        <time>2025-07-14T06:40:08Z</time>
      </trkpt>
      <trkpt lat="44.78442" lon="0.42175">
        <ele>117.6</ele>
        <time>2025-07-14T06:40:09Z</time>
      </trkpt>
      <trkpt lat="44.78438" lon="0.42173">
        <ele>117.6</ele>
        <time>2025-07-14T06:40:10Z</time>
      </trkpt>
      <trkpt lat="44.78434" lon="0.42171">
        <ele>117.6</ele>
        <time>2025-07-14T06:40:11Z</time>
      </trkpt>
      <trkpt lat="44.78431" lon="0.42169">
        <ele>117.6</ele>
        <time>2025-07-14T06:40:12Z</time>
      </trkpt>
      <trkpt lat="44.78427" lon="0.42166">
        <ele>117.8</ele>
        <time>2025-07-14T06:40:13Z</time>
      </trkpt>
      <trkpt lat="44.78423" lon="0.42164">
        <ele>117.8</ele>
        <time>2025-07-14T06:40:14Z</time>
      </trkpt>
      <trkpt lat="44.7842" lon="0.42162">
        <ele>117.8</ele>
        <time>2025-07-14T06:40:15Z</time>
      </trkpt>
      <trkpt lat="44.78416" lon="0.4216">
        <ele>117.8</ele>
        <time>2025-07-14T06:40:16Z</time>
      </trkpt>
      <trkpt lat="44.78413" lon="0.42158">
        <ele>117.8</ele>
        <time>2025-07-14T06:40:17Z</time>
      </trkpt>
      <trkpt lat="44.78409" lon="0.42156">
        <ele>118</ele>
        <time>2025-07-14T06:40:18Z</time>
      </trkpt>
      <trkpt lat="44.78406" lon="0.42154">
        <ele>118</ele>
        <time>2025-07-14T06:40:19Z</time>
      </trkpt>
      <trkpt lat="44.78402" lon="0.42152">
        <ele>118</ele>
        <time>2025-07-14T06:40:20Z</time>
      </trkpt>
      <trkpt lat="44.78399" lon="0.4215">
        <ele>118.2</ele>
        <time>2025-07-14T06:40:21Z</time>
      </trkpt>
      <trkpt lat="44.78395" lon="0.42148">
        <ele>118.4</ele>
        <time>2025-07-14T06:40:22Z</time>
      </trkpt>
      <trkpt lat="44.78392" lon="0.42146">
        <ele>118.4</ele>
        <time>2025-07-14T06:40:23Z</time>
      </trkpt>
      <trkpt lat="44.78388" lon="0.42144">
        <ele>118.6</ele>
        <time>2025-07-14T06:40:24Z</time>
      </trkpt>
      <trkpt lat="44.78384" lon="0.42143">
        <ele>118.6</ele>
        <time>2025-07-14T06:40:25Z</time>
      </trkpt>
      <trkpt lat="44.78381" lon="0.42141">
        <ele>118.6</ele>
        <time>2025-07-14T06:40:26Z</time>
      </trkpt>
      <trkpt lat="44.78377" lon="0.42139">
        <ele>118.6</ele>
        <time>2025-07-14T06:40:27Z</time>
      </trkpt>
      <trkpt lat="44.78373" lon="0.42137">
        <ele>118.6</ele>
        <time>2025-07-14T06:40:28Z</time>
      </trkpt>
      <trkpt lat="44.7837" lon="0.42135">
        <ele>118.6</ele>
        <time>2025-07-14T06:40:29Z</time>
      </trkpt>
      <trkpt lat="44.78366" lon="0.42134">
        <ele>118.6</ele>
        <time>2025-07-14T06:40:30Z</time>
      </trkpt>
      <trkpt lat="44.78363" lon="0.42132">
        <ele>118.6</ele>
        <time>2025-07-14T06:40:31Z</time>
      </trkpt>
      <trkpt lat="44.78359" lon="0.4213">
        <ele>118.4</ele>
        <time>2025-07-14T06:40:32Z</time>
      </trkpt>
      <trkpt lat="44.78354" lon="0.42127">
        <ele>118.4</ele>
        <time>2025-07-14T06:40:33Z</time>
      </trkpt>
      <trkpt lat="44.7835" lon="0.42124">
        <ele>118.4</ele>
        <time>2025-07-14T06:40:34Z</time>
      </trkpt>
      <trkpt lat="44.78345" lon="0.42121">
        <ele>118.2</ele>
        <time>2025-07-14T06:40:35Z</time>
      </trkpt>
      <trkpt lat="44.7834" lon="0.42118">
        <ele>118</ele>
        <time>2025-07-14T06:40:36Z</time>
      </trkpt>
      <trkpt lat="44.78334" lon="0.42115">
        <ele>117.8</ele>
        <time>2025-07-14T06:40:37Z</time>
      </trkpt>
      <trkpt lat="44.78329" lon="0.42112">
        <ele>117.6</ele>
        <time>2025-07-14T06:40:38Z</time>
      </trkpt>
      <trkpt lat="44.78323" lon="0.42109">
        <ele>117.2</ele>
        <time>2025-07-14T06:40:39Z</time>
      </trkpt>
      <trkpt lat="44.78317" lon="0.42106">
        <ele>117</ele>
        <time>2025-07-14T06:40:40Z</time>
      </trkpt>
      <trkpt lat="44.78312" lon="0.42103">
        <ele>116.8</ele>
        <time>2025-07-14T06:40:41Z</time>
      </trkpt>
      <trkpt lat="44.78306" lon="0.421">
        <ele>116.4</ele>
        <time>2025-07-14T06:40:42Z</time>
      </trkpt>
      <trkpt lat="44.78301" lon="0.42097">
        <ele>116.2</ele>
        <time>2025-07-14T06:40:43Z</time>
      </trkpt>
      <trkpt lat="44.78296" lon="0.42094">
        <ele>116</ele>
        <time>2025-07-14T06:40:44Z</time>
      </trkpt>
      <trkpt lat="44.78291" lon="0.42091">
        <ele>115.8</ele>
        <time>2025-07-14T06:40:45Z</time>
      </trkpt>
      <trkpt lat="44.78286" lon="0.42088">
        <ele>115.6</ele>
        <time>2025-07-14T06:40:46Z</time>
      </trkpt>
      <trkpt lat="44.78281" lon="0.42086">
        <ele>115.6</ele>
        <time>2025-07-14T06:40:47Z</time>
      </trkpt>
      <trkpt lat="44.78276" lon="0.42083">
        <ele>115.4</ele>
        <time>2025-07-14T06:40:48Z</time>
      </trkpt>
      <trkpt lat="44.78272" lon="0.4208">
        <ele>115.4</ele>
        <time>2025-07-14T06:40:49Z</time>
      </trkpt>
      <trkpt lat="44.78268" lon="0.42077">
        <ele>115.6</ele>
        <time>2025-07-14T06:40:50Z</time>
      </trkpt>
      <trkpt lat="44.78264" lon="0.42075">
        <ele>115.6</ele>
        <time>2025-07-14T06:40:51Z</time>
      </trkpt>
      <trkpt lat="44.7826" lon="0.42072">
        <ele>115.8</ele>
        <time>2025-07-14T06:40:52Z</time>
      </trkpt>
      <trkpt lat="44.78256" lon="0.42071">
        <ele>115.8</ele>
        <time>2025-07-14T06:40:53Z</time>
      </trkpt>
      <trkpt lat="44.78252" lon="0.42073">
        <ele>116</ele>
        <time>2025-07-14T06:40:54Z</time>
      </trkpt>
      <trkpt lat="44.78251" lon="0.42078">
        <ele>116.2</ele>
        <time>2025-07-14T06:40:55Z</time>
      </trkpt>
      <trkpt lat="44.7825" lon="0.42084">
        <ele>116.4</ele>
        <time>2025-07-14T06:40:56Z</time>
      </trkpt>
      <trkpt lat="44.7825" lon="0.4209">
        <ele>116.6</ele>
        <time>2025-07-14T06:40:57Z</time>
      </trkpt>
      <trkpt lat="44.78248" lon="0.42097">
        <ele>116.8</ele>
        <time>2025-07-14T06:40:58Z</time>
      </trkpt>
      <trkpt lat="44.78247" lon="0.42105">
        <ele>116.6</ele>
        <time>2025-07-14T06:40:59Z</time>
      </trkpt>
      <trkpt lat="44.78246" lon="0.42113">
        <ele>116.4</ele>
        <time>2025-07-14T06:41:00Z</time>
      </trkpt>
      <trkpt lat="44.78245" lon="0.42121">
        <ele>116</ele>
        <time>2025-07-14T06:41:01Z</time>
      </trkpt>
      <trkpt lat="44.78244" lon="0.42129">
        <ele>115.8</ele>
        <time>2025-07-14T06:41:02Z</time>
      </trkpt>
      <trkpt lat="44.78242" lon="0.42138">
        <ele>115.2</ele>
        <time>2025-07-14T06:41:03Z</time>
      </trkpt>
      <trkpt lat="44.78241" lon="0.42148">
        <ele>114.8</ele>
        <time>2025-07-14T06:41:04Z</time>
      </trkpt>
      <trkpt lat="44.7824" lon="0.42158">
        <ele>114.4</ele>
        <time>2025-07-14T06:41:05Z</time>
      </trkpt>
      <trkpt lat="44.78238" lon="0.42168">
        <ele>114</ele>
        <time>2025-07-14T06:41:06Z</time>
      </trkpt>
      <trkpt lat="44.78235" lon="0.42177">
        <ele>113.4</ele>
        <time>2025-07-14T06:41:07Z</time>
      </trkpt>
      <trkpt lat="44.78233" lon="0.42185">
        <ele>113</ele>
        <time>2025-07-14T06:41:08Z</time>
      </trkpt>
      <trkpt lat="44.78229" lon="0.4219">
        <ele>112.6</ele>
        <time>2025-07-14T06:41:09Z</time>
      </trkpt>
      <trkpt lat="44.78225" lon="0.42193">
        <ele>112.2</ele>
        <time>2025-07-14T06:41:10Z</time>
      </trkpt>
      <trkpt lat="44.7822" lon="0.42192">
        <ele>111.8</ele>
        <time>2025-07-14T06:41:11Z</time>
      </trkpt>
      <trkpt lat="44.78216" lon="0.42191">
        <ele>111.6</ele>
        <time>2025-07-14T06:41:12Z</time>
      </trkpt>
      <trkpt lat="44.78212" lon="0.42189">
        <ele>111.4</ele>
        <time>2025-07-14T06:41:13Z</time>
      </trkpt>
      <trkpt lat="44.78208" lon="0.42188">
        <ele>111.2</ele>
        <time>2025-07-14T06:41:14Z</time>
      </trkpt>
      <trkpt lat="44.78204" lon="0.42187">
        <ele>111.2</ele>
        <time>2025-07-14T06:41:15Z</time>
      </trkpt>
      <trkpt lat="44.782" lon="0.42185">
        <ele>111.2</ele>
        <time>2025-07-14T06:41:16Z</time>
      </trkpt>
      <trkpt lat="44.78196" lon="0.42184">
        <ele>111.2</ele>
        <time>2025-07-14T06:41:17Z</time>
      </trkpt>
      <trkpt lat="44.78192" lon="0.42182">
        <ele>111.4</ele>
        <time>2025-07-14T06:41:18Z</time>
      </trkpt>
      <trkpt lat="44.78188" lon="0.42181">
        <ele>111.6</ele>
        <time>2025-07-14T06:41:19Z</time>
      </trkpt>
      <trkpt lat="44.78184" lon="0.4218">
        <ele>111.6</ele>
        <time>2025-07-14T06:41:20Z</time>
      </trkpt>
      <trkpt lat="44.7818" lon="0.42178">
        <ele>111.6</ele>
        <time>2025-07-14T06:41:21Z</time>
      </trkpt>
      <trkpt lat="44.78176" lon="0.42177">
        <ele>111.8</ele>
        <time>2025-07-14T06:41:22Z</time>
      </trkpt>
      <trkpt lat="44.78173" lon="0.42176">
        <ele>112</ele>
        <time>2025-07-14T06:41:23Z</time>
      </trkpt>
      <trkpt lat="44.78169" lon="0.42175">
        <ele>112</ele>
        <time>2025-07-14T06:41:24Z</time>
      </trkpt>
      <trkpt lat="44.78165" lon="0.42174">
        <ele>112.2</ele>
        <time>2025-07-14T06:41:25Z</time>
      </trkpt>
      <trkpt lat="44.78161" lon="0.42173">
        <ele>112.4</ele>
        <time>2025-07-14T06:41:26Z</time>
      </trkpt>
      <trkpt lat="44.78157" lon="0.42172">
        <ele>112.4</ele>
        <time>2025-07-14T06:41:27Z</time>
      </trkpt>
      <trkpt lat="44.78153" lon="0.42172">
        <ele>112.6</ele>
        <time>2025-07-14T06:41:28Z</time>
      </trkpt>
      <trkpt lat="44.78149" lon="0.42172">
        <ele>112.8</ele>
        <time>2025-07-14T06:41:29Z</time>
      </trkpt>
      <trkpt lat="44.78145" lon="0.42171">
        <ele>112.8</ele>
        <time>2025-07-14T06:41:30Z</time>
      </trkpt>
      <trkpt lat="44.78141" lon="0.42171">
        <ele>112.8</ele>
        <time>2025-07-14T06:41:31Z</time>
      </trkpt>
      <trkpt lat="44.78137" lon="0.4217">
        <ele>113</ele>
        <time>2025-07-14T06:41:32Z</time>
      </trkpt>
      <trkpt lat="44.78133" lon="0.42168">
        <ele>113.2</ele>
        <time>2025-07-14T06:41:33Z</time>
      </trkpt>
      <trkpt lat="44.7813" lon="0.42167">
        <ele>113.2</ele>
        <time>2025-07-14T06:41:34Z</time>
      </trkpt>
      <trkpt lat="44.78126" lon="0.42165">
        <ele>113.4</ele>
        <time>2025-07-14T06:41:35Z</time>
      </trkpt>
      <trkpt lat="44.78123" lon="0.42163">
        <ele>113.4</ele>
        <time>2025-07-14T06:41:36Z</time>
      </trkpt>
      <trkpt lat="44.78119" lon="0.42162">
        <ele>113.6</ele>
        <time>2025-07-14T06:41:37Z</time>
      </trkpt>
      <trkpt lat="44.78115" lon="0.42162">
        <ele>113.6</ele>
        <time>2025-07-14T06:41:38Z</time>
      </trkpt>
      <trkpt lat="44.78111" lon="0.42163">
        <ele>113.8</ele>
        <time>2025-07-14T06:41:39Z</time>
      </trkpt>
      <trkpt lat="44.78109" lon="0.42166">
        <ele>113.8</ele>
        <time>2025-07-14T06:41:40Z</time>
      </trkpt>
      <trkpt lat="44.78107" lon="0.42171">
        <ele>114</ele>
        <time>2025-07-14T06:41:41Z</time>
      </trkpt>
      <trkpt lat="44.78106" lon="0.42177">
        <ele>114.2</ele>
        <time>2025-07-14T06:41:42Z</time>
      </trkpt>
      <trkpt lat="44.78105" lon="0.42182">
        <ele>114.4</ele>
        <time>2025-07-14T06:41:43Z</time>
      </trkpt>
      <trkpt lat="44.78103" lon="0.42188">
        <ele>114.4</ele>
        <time>2025-07-14T06:41:44Z</time>
      </trkpt>
      <trkpt lat="44.78102" lon="0.42193">
        <ele>114.4</ele>
        <time>2025-07-14T06:41:45Z</time>
      </trkpt>
      <trkpt lat="44.78101" lon="0.422">
        <ele>114.4</ele>
        <time>2025-07-14T06:41:46Z</time>
      </trkpt>
      <trkpt lat="44.78099" lon="0.42206">
        <ele>114.4</ele>
        <time>2025-07-14T06:41:47Z</time>
      </trkpt>
      <trkpt lat="44.78098" lon="0.42213">
        <ele>114.2</ele>
        <time>2025-07-14T06:41:48Z</time>
      </trkpt>
      <trkpt lat="44.78098" lon="0.42221">
        <ele>114</ele>
        <time>2025-07-14T06:41:49Z</time>
      </trkpt>
      <trkpt lat="44.78097" lon="0.42228">
        <ele>113.8</ele>
        <time>2025-07-14T06:41:50Z</time>
      </trkpt>
      <trkpt lat="44.78096" lon="0.42237">
        <ele>113.4</ele>
        <time>2025-07-14T06:41:51Z</time>
      </trkpt>
      <trkpt lat="44.78095" lon="0.42245">
        <ele>113.2</ele>
        <time>2025-07-14T06:41:52Z</time>
      </trkpt>
      <trkpt lat="44.78094" lon="0.42252">
        <ele>113</ele>
        <time>2025-07-14T06:41:53Z</time>
      </trkpt>
      <trkpt lat="44.7809" lon="0.42256">
        <ele>112.8</ele>
        <time>2025-07-14T06:41:54Z</time>
      </trkpt>
      <trkpt lat="44.78086" lon="0.42257">
        <ele>112.4</ele>
        <time>2025-07-14T06:41:55Z</time>
      </trkpt>
      <trkpt lat="44.78082" lon="0.42257">
        <ele>112.4</ele>
        <time>2025-07-14T06:41:56Z</time>
      </trkpt>
      <trkpt lat="44.78077" lon="0.42256">
        <ele>112.2</ele>
        <time>2025-07-14T06:41:57Z</time>
      </trkpt>
      <trkpt lat="44.78073" lon="0.42255">
        <ele>112.2</ele>
        <time>2025-07-14T06:41:58Z</time>
      </trkpt>
      <trkpt lat="44.78069" lon="0.42254">
        <ele>112.2</ele>
        <time>2025-07-14T06:41:59Z</time>
      </trkpt>
      <trkpt lat="44.78065" lon="0.42254">
        <ele>112.2</ele>
        <time>2025-07-14T06:42:00Z</time>
      </trkpt>
      <trkpt lat="44.78061" lon="0.42253">
        <ele>112.4</ele>
        <time>2025-07-14T06:42:01Z</time>
      </trkpt>
      <trkpt lat="44.78058" lon="0.42253">
        <ele>112.4</ele>
        <time>2025-07-14T06:42:02Z</time>
      </trkpt>
      <trkpt lat="44.78054" lon="0.42252">
        <ele>112.4</ele>
        <time>2025-07-14T06:42:03Z</time>
      </trkpt>
      <trkpt lat="44.7805" lon="0.42253">
        <ele>112.6</ele>
        <time>2025-07-14T06:42:04Z</time>
      </trkpt>
      <trkpt lat="44.78046" lon="0.42253">
        <ele>112.8</ele>
        <time>2025-07-14T06:42:05Z</time>
      </trkpt>
      <trkpt lat="44.78042" lon="0.42253">
        <ele>112.8</ele>
        <time>2025-07-14T06:42:06Z</time>
      </trkpt>
      <trkpt lat="44.78038" lon="0.42253">
        <ele>113</ele>
        <time>2025-07-14T06:42:07Z</time>
      </trkpt>
      <trkpt lat="44.78034" lon="0.42253">
        <ele>113</ele>
        <time>2025-07-14T06:42:08Z</time>
      </trkpt>
      <trkpt lat="44.7803" lon="0.42253">
        <ele>113</ele>
        <time>2025-07-14T06:42:09Z</time>
      </trkpt>
      <trkpt lat="44.78026" lon="0.42252">
        <ele>113.2</ele>
        <time>2025-07-14T06:42:10Z</time>
      </trkpt>
      <trkpt lat="44.78022" lon="0.42252">
        <ele>113.2</ele>
        <time>2025-07-14T06:42:11Z</time>
      </trkpt>
      <trkpt lat="44.78018" lon="0.42252">
        <ele>113.4</ele>
        <time>2025-07-14T06:42:12Z</time>
      </trkpt>
      <trkpt lat="44.78014" lon="0.42252">
        <ele>113.4</ele>
        <time>2025-07-14T06:42:13Z</time>
      </trkpt>
      <trkpt lat="44.7801" lon="0.42251">
        <ele>113.4</ele>
        <time>2025-07-14T06:42:14Z</time>
      </trkpt>
      <trkpt lat="44.78006" lon="0.4225">
        <ele>113.6</ele>
        <time>2025-07-14T06:42:15Z</time>
      </trkpt>
      <trkpt lat="44.78002" lon="0.42249">
        <ele>113.4</ele>
        <time>2025-07-14T06:42:16Z</time>
      </trkpt>
      <trkpt lat="44.77998" lon="0.42249">
        <ele>113.4</ele>
        <time>2025-07-14T06:42:17Z</time>
      </trkpt>
      <trkpt lat="44.77994" lon="0.42248">
        <ele>113.4</ele>
        <time>2025-07-14T06:42:18Z</time>
      </trkpt>
      <trkpt lat="44.7799" lon="0.42246">
        <ele>113.2</ele>
        <time>2025-07-14T06:42:19Z</time>
      </trkpt>
      <trkpt lat="44.77985" lon="0.42245">
        <ele>113</ele>
        <time>2025-07-14T06:42:20Z</time>
      </trkpt>
      <trkpt lat="44.77981" lon="0.42243">
        <ele>113</ele>
        <time>2025-07-14T06:42:21Z</time>
      </trkpt>
      <trkpt lat="44.77976" lon="0.42242">
        <ele>112.8</ele>
        <time>2025-07-14T06:42:22Z</time>
      </trkpt>
      <trkpt lat="44.77971" lon="0.42241">
        <ele>112.6</ele>
        <time>2025-07-14T06:42:23Z</time>
      </trkpt>
      <trkpt lat="44.77967" lon="0.42239">
        <ele>112.4</ele>
        <time>2025-07-14T06:42:24Z</time>
      </trkpt>
      <trkpt lat="44.77962" lon="0.42237">
        <ele>112.2</ele>
        <time>2025-07-14T06:42:25Z</time>
      </trkpt>
      <trkpt lat="44.77957" lon="0.42234">
        <ele>111.8</ele>
        <time>2025-07-14T06:42:26Z</time>
      </trkpt>
      <trkpt lat="44.77952" lon="0.42233">
        <ele>111.6</ele>
        <time>2025-07-14T06:42:27Z</time>
      </trkpt>
      <trkpt lat="44.77947" lon="0.42231">
        <ele>111.2</ele>
        <time>2025-07-14T06:42:28Z</time>
      </trkpt>
      <trkpt lat="44.77942" lon="0.42229">
        <ele>111.2</ele>
        <time>2025-07-14T06:42:29Z</time>
      </trkpt>
      <trkpt lat="44.77937" lon="0.42227">
        <ele>111</ele>
        <time>2025-07-14T06:42:30Z</time>
      </trkpt>
      <trkpt lat="44.77931" lon="0.42226">
        <ele>110.6</ele>
        <time>2025-07-14T06:42:31Z</time>
      </trkpt>
      <trkpt lat="44.77926" lon="0.42225">
        <ele>110.4</ele>
        <time>2025-07-14T06:42:32Z</time>
      </trkpt>
      <trkpt lat="44.7792" lon="0.42223">
        <ele>110</ele>
        <time>2025-07-14T06:42:33Z</time>
      </trkpt>
      <trkpt lat="44.77915" lon="0.4222">
        <ele>109.6</ele>
        <time>2025-07-14T06:42:34Z</time>
      </trkpt>
      <trkpt lat="44.77909" lon="0.42218">
        <ele>109.2</ele>
        <time>2025-07-14T06:42:35Z</time>
      </trkpt>
      <trkpt lat="44.77904" lon="0.42216">
        <ele>108.8</ele>
        <time>2025-07-14T06:42:36Z</time>
      </trkpt>
      <trkpt lat="44.77899" lon="0.42214">
        <ele>108.4</ele>
        <time>2025-07-14T06:42:37Z</time>
      </trkpt>
      <trkpt lat="44.77894" lon="0.42213">
        <ele>108.2</ele>
        <time>2025-07-14T06:42:38Z</time>
      </trkpt>
      <trkpt lat="44.7789" lon="0.42211">
        <ele>107.8</ele>
        <time>2025-07-14T06:42:39Z</time>
      </trkpt>
      <trkpt lat="44.77885" lon="0.4221">
        <ele>107.8</ele>
        <time>2025-07-14T06:42:40Z</time>
      </trkpt>
      <trkpt lat="44.77881" lon="0.42209">
        <ele>107.6</ele>
        <time>2025-07-14T06:42:41Z</time>
      </trkpt>
      <trkpt lat="44.77878" lon="0.42207">
        <ele>107.8</ele>
        <time>2025-07-14T06:42:42Z</time>
      </trkpt>
      <trkpt lat="44.77874" lon="0.42206">
        <ele>107.8</ele>
        <time>2025-07-14T06:42:43Z</time>
      </trkpt>
      <trkpt lat="44.77871" lon="0.42205">
        <ele>108</ele>
        <time>2025-07-14T06:42:44Z</time>
      </trkpt>
      <trkpt lat="44.77869" lon="0.42204">
        <ele>108.2</ele>
        <time>2025-07-14T06:42:45Z</time>
      </trkpt>
      <trkpt lat="44.77866" lon="0.42203">
        <ele>108.2</ele>
        <time>2025-07-14T06:42:46Z</time>
      </trkpt>
      <trkpt lat="44.77863" lon="0.42202">
        <ele>108.4</ele>
        <time>2025-07-14T06:42:47Z</time>
      </trkpt>
      <trkpt lat="44.7786" lon="0.42201">
        <ele>108.6</ele>
        <time>2025-07-14T06:42:48Z</time>
      </trkpt>
      <trkpt lat="44.77857" lon="0.422">
        <ele>108.8</ele>
        <time>2025-07-14T06:42:49Z</time>
      </trkpt>
      <trkpt lat="44.77855" lon="0.422">
        <ele>109.2</ele>
        <time>2025-07-14T06:42:50Z</time>
      </trkpt>
      <trkpt lat="44.77852" lon="0.422">
        <ele>109.4</ele>
        <time>2025-07-14T06:42:51Z</time>
      </trkpt>
      <trkpt lat="44.7785" lon="0.422">
        <ele>109.6</ele>
        <time>2025-07-14T06:42:52Z</time>
      </trkpt>
      <trkpt lat="44.77848" lon="0.42199">
        <ele>109.8</ele>
        <time>2025-07-14T06:42:53Z</time>
      </trkpt>
      <trkpt lat="44.77846" lon="0.42198">
        <ele>110</ele>
        <time>2025-07-14T06:42:54Z</time>
      </trkpt>
      <trkpt lat="44.77844" lon="0.42198">
        <ele>110.2</ele>
        <time>2025-07-14T06:42:55Z</time>
      </trkpt>
      <trkpt lat="44.77842" lon="0.42197">
        <ele>110.6</ele>
        <time>2025-07-14T06:42:56Z</time>
      </trkpt>
      <trkpt lat="44.7784" lon="0.42196">
        <ele>110.8</ele>
        <time>2025-07-14T06:42:57Z</time>
      </trkpt>
      <trkpt lat="44.77838" lon="0.42195">
        <ele>111</ele>
        <time>2025-07-14T06:42:58Z</time>
      </trkpt>
      <trkpt lat="44.77835" lon="0.42194">
        <ele>111.2</ele>
        <time>2025-07-14T06:42:59Z</time>
      </trkpt>
      <trkpt lat="44.77833" lon="0.42194">
        <ele>111.4</ele>
        <time>2025-07-14T06:43:00Z</time>
      </trkpt>
      <trkpt lat="44.77831" lon="0.42193">
        <ele>111.6</ele>
        <time>2025-07-14T06:43:01Z</time>
      </trkpt>
      <trkpt lat="44.77829" lon="0.42193">
        <ele>111.8</ele>
        <time>2025-07-14T06:43:02Z</time>
      </trkpt>
      <trkpt lat="44.77827" lon="0.42193">
        <ele>112</ele>
        <time>2025-07-14T06:43:03Z</time>
      </trkpt>
      <trkpt lat="44.77825" lon="0.42192">
        <ele>112.2</ele>
        <time>2025-07-14T06:43:04Z</time>
      </trkpt>
      <trkpt lat="44.77824" lon="0.42191">
        <ele>112.4</ele>
        <time>2025-07-14T06:43:05Z</time>
      </trkpt>
      <trkpt lat="44.77823" lon="0.42189">
        <ele>112.6</ele>
        <time>2025-07-14T06:43:06Z</time>
      </trkpt>
      <trkpt lat="44.77823" lon="0.42187">
        <ele>112.8</ele>
        <time>2025-07-14T06:43:07Z</time>
      </trkpt>
      <trkpt lat="44.77823" lon="0.42184">
        <ele>113</ele>
        <time>2025-07-14T06:43:08Z</time>
      </trkpt>
      <trkpt lat="44.77823" lon="0.42182">
        <ele>113.2</ele>
        <time>2025-07-14T06:43:09Z</time>
      </trkpt>
      <trkpt lat="44.77823" lon="0.4218">
        <ele>113.4</ele>
        <time>2025-07-14T06:43:10Z</time>
      </trkpt>
      <trkpt lat="44.77823" lon="0.42177">
        <ele>113.8</ele>
        <time>2025-07-14T06:43:11Z</time>
      </trkpt>
      <trkpt lat="44.77823" lon="0.42175">
        <ele>114</ele>
        <time>2025-07-14T06:43:12Z</time>
      </trkpt>
      <trkpt lat="44.77824" lon="0.42174">
        <ele>114.4</ele>
        <time>2025-07-14T06:43:13Z</time>
      </trkpt>
      <trkpt lat="44.77823" lon="0.42171">
        <ele>114.6</ele>
        <time>2025-07-14T06:43:14Z</time>
      </trkpt>
      <trkpt lat="44.77824" lon="0.42169">
        <ele>114.8</ele>
        <time>2025-07-14T06:43:15Z</time>
      </trkpt>
      <trkpt lat="44.77824" lon="0.42166">
        <ele>115.2</ele>
        <time>2025-07-14T06:43:16Z</time>
      </trkpt>
      <trkpt lat="44.77824" lon="0.42164">
        <ele>115.4</ele>
        <time>2025-07-14T06:43:17Z</time>
      </trkpt>
      <trkpt lat="44.77824" lon="0.42162">
        <ele>115.6</ele>
        <time>2025-07-14T06:43:18Z</time>
      </trkpt>
      <trkpt lat="44.77824" lon="0.42159">
        <ele>115.8</ele>
        <time>2025-07-14T06:43:19Z</time>
      </trkpt>
      <trkpt lat="44.77824" lon="0.42157">
        <ele>116</ele>
        <time>2025-07-14T06:43:20Z</time>
      </trkpt>
      <trkpt lat="44.77824" lon="0.42154">
        <ele>116.2</ele>
        <time>2025-07-14T06:43:21Z</time>
      </trkpt>
      <trkpt lat="44.77824" lon="0.42151">
        <ele>116.4</ele>
        <time>2025-07-14T06:43:22Z</time>
      </trkpt>
      <trkpt lat="44.77824" lon="0.42148">
        <ele>116.4</ele>
        <time>2025-07-14T06:43:23Z</time>
      </trkpt>
      <trkpt lat="44.77824" lon="0.42145">
        <ele>116.6</ele>
        <time>2025-07-14T06:43:24Z</time>
      </trkpt>
      <trkpt lat="44.77824" lon="0.42142">
        <ele>116.8</ele>
        <time>2025-07-14T06:43:25Z</time>
      </trkpt>
      <trkpt lat="44.77824" lon="0.42139">
        <ele>116.8</ele>
        <time>2025-07-14T06:43:26Z</time>
      </trkpt>
      <trkpt lat="44.77824" lon="0.42135">
        <ele>117</ele>
        <time>2025-07-14T06:43:27Z</time>
      </trkpt>
      <trkpt lat="44.77824" lon="0.42132">
        <ele>117</ele>
        <time>2025-07-14T06:43:28Z</time>
      </trkpt>
      <trkpt lat="44.77824" lon="0.42129">
        <ele>117.2</ele>
        <time>2025-07-14T06:43:29Z</time>
      </trkpt>
      <trkpt lat="44.77824" lon="0.42125">
        <ele>117.4</ele>
        <time>2025-07-14T06:43:30Z</time>
      </trkpt>
      <trkpt lat="44.77824" lon="0.42122">
        <ele>117.4</ele>
        <time>2025-07-14T06:43:31Z</time>
      </trkpt>
      <trkpt lat="44.77824" lon="0.42119">
        <ele>117.6</ele>
        <time>2025-07-14T06:43:32Z</time>
      </trkpt>
      <trkpt lat="44.77824" lon="0.42115">
        <ele>117.6</ele>
        <time>2025-07-14T06:43:33Z</time>
      </trkpt>
      <trkpt lat="44.77824" lon="0.42112">
        <ele>117.8</ele>
        <time>2025-07-14T06:43:34Z</time>
      </trkpt>
      <trkpt lat="44.77824" lon="0.42108">
        <ele>118</ele>
        <time>2025-07-14T06:43:35Z</time>
      </trkpt>
      <trkpt lat="44.77825" lon="0.42105">
        <ele>118</ele>
        <time>2025-07-14T06:43:36Z</time>
      </trkpt>
      <trkpt lat="44.77825" lon="0.42101">
        <ele>118.2</ele>
        <time>2025-07-14T06:43:37Z</time>
      </trkpt>
      <trkpt lat="44.77825" lon="0.42098">
        <ele>118.4</ele>
        <time>2025-07-14T06:43:38Z</time>
      </trkpt>
      <trkpt lat="44.77825" lon="0.42094">
        <ele>118.4</ele>
        <time>2025-07-14T06:43:39Z</time>
      </trkpt>
      <trkpt lat="44.77825" lon="0.4209">
        <ele>118.6</ele>
        <time>2025-07-14T06:43:40Z</time>
      </trkpt>
      <trkpt lat="44.77825" lon="0.42086">
        <ele>118.8</ele>
        <time>2025-07-14T06:43:41Z</time>
      </trkpt>
      <trkpt lat="44.77825" lon="0.42082">
        <ele>118.8</ele>
        <time>2025-07-14T06:43:42Z</time>
      </trkpt>
      <trkpt lat="44.77825" lon="0.42079">
        <ele>119</ele>
        <time>2025-07-14T06:43:43Z</time>
      </trkpt>
      <trkpt lat="44.77825" lon="0.42075">
        <ele>119</ele>
        <time>2025-07-14T06:43:44Z</time>
      </trkpt>
      <trkpt lat="44.77825" lon="0.42072">
        <ele>119.2</ele>
        <time>2025-07-14T06:43:45Z</time>
      </trkpt>
      <trkpt lat="44.77825" lon="0.42068">
        <ele>119.2</ele>
        <time>2025-07-14T06:43:46Z</time>
      </trkpt>
      <trkpt lat="44.77825" lon="0.42064">
        <ele>119.2</ele>
        <time>2025-07-14T06:43:47Z</time>
      </trkpt>
      <trkpt lat="44.77826" lon="0.4206">
        <ele>119.2</ele>
        <time>2025-07-14T06:43:48Z</time>
      </trkpt>
      <trkpt lat="44.77826" lon="0.42056">
        <ele>119.2</ele>
        <time>2025-07-14T06:43:49Z</time>
      </trkpt>
      <trkpt lat="44.77826" lon="0.42052">
        <ele>119.4</ele>
        <time>2025-07-14T06:43:50Z</time>
      </trkpt>
      <trkpt lat="44.77826" lon="0.42048">
        <ele>119.4</ele>
        <time>2025-07-14T06:43:51Z</time>
      </trkpt>
      <trkpt lat="44.77826" lon="0.42044">
        <ele>119.6</ele>
        <time>2025-07-14T06:43:52Z</time>
      </trkpt>
      <trkpt lat="44.77826" lon="0.42039">
        <ele>119.6</ele>
        <time>2025-07-14T06:43:53Z</time>
      </trkpt>
      <trkpt lat="44.77826" lon="0.42034">
        <ele>119.6</ele>
        <time>2025-07-14T06:43:54Z</time>
      </trkpt>
      <trkpt lat="44.77826" lon="0.4203">
        <ele>119.6</ele>
        <time>2025-07-14T06:43:55Z</time>
      </trkpt>
      <trkpt lat="44.77827" lon="0.42025">
        <ele>119.8</ele>
        <time>2025-07-14T06:43:56Z</time>
      </trkpt>
      <trkpt lat="44.77826" lon="0.42021">
        <ele>119.8</ele>
        <time>2025-07-14T06:43:57Z</time>
      </trkpt>
      <trkpt lat="44.77824" lon="0.42019">
        <ele>119.8</ele>
        <time>2025-07-14T06:43:58Z</time>
      </trkpt>
      <trkpt lat="44.7782" lon="0.42018">
        <ele>119.8</ele>
        <time>2025-07-14T06:43:59Z</time>
      </trkpt>
      <trkpt lat="44.77817" lon="0.42018">
        <ele>119.8</ele>
        <time>2025-07-14T06:44:00Z</time>
      </trkpt>
      <trkpt lat="44.77814" lon="0.4202">
        <ele>119.8</ele>
        <time>2025-07-14T06:44:01Z</time>
      </trkpt>
      <trkpt lat="44.7781" lon="0.42021">
        <ele>119.8</ele>
        <time>2025-07-14T06:44:02Z</time>
      </trkpt>
      <trkpt lat="44.77806" lon="0.42022">
        <ele>119.8</ele>
        <time>2025-07-14T06:44:03Z</time>
      </trkpt>
      <trkpt lat="44.77802" lon="0.42023">
        <ele>119.6</ele>
        <time>2025-07-14T06:44:04Z</time>
      </trkpt>
      <trkpt lat="44.77798" lon="0.42024">
        <ele>119.6</ele>
        <time>2025-07-14T06:44:05Z</time>
      </trkpt>
      <trkpt lat="44.77794" lon="0.42025">
        <ele>119.4</ele>
        <time>2025-07-14T06:44:06Z</time>
      </trkpt>
      <trkpt lat="44.7779" lon="0.42026">
        <ele>119.4</ele>
        <time>2025-07-14T06:44:07Z</time>
      </trkpt>
      <trkpt lat="44.77785" lon="0.42026">
        <ele>119.2</ele>
        <time>2025-07-14T06:44:08Z</time>
      </trkpt>
      <trkpt lat="44.77781" lon="0.42027">
        <ele>119.2</ele>
        <time>2025-07-14T06:44:09Z</time>
      </trkpt>
      <trkpt lat="44.77776" lon="0.42027">
        <ele>119.2</ele>
        <time>2025-07-14T06:44:10Z</time>
      </trkpt>
      <trkpt lat="44.77772" lon="0.42028">
        <ele>119.2</ele>
        <time>2025-07-14T06:44:11Z</time>
      </trkpt>
      <trkpt lat="44.77767" lon="0.42028">
        <ele>119</ele>
        <time>2025-07-14T06:44:12Z</time>
      </trkpt>
      <trkpt lat="44.77762" lon="0.42029">
        <ele>118.8</ele>
        <time>2025-07-14T06:44:13Z</time>
      </trkpt>
      <trkpt lat="44.77757" lon="0.42029">
        <ele>118.8</ele>
        <time>2025-07-14T06:44:14Z</time>
      </trkpt>
      <trkpt lat="44.77753" lon="0.42029">
        <ele>118.6</ele>
        <time>2025-07-14T06:44:15Z</time>
      </trkpt>
      <trkpt lat="44.77749" lon="0.42027">
        <ele>118.4</ele>
        <time>2025-07-14T06:44:16Z</time>
      </trkpt>
      <trkpt lat="44.77747" lon="0.42024">
        <ele>118.4</ele>
        <time>2025-07-14T06:44:17Z</time>
      </trkpt>
      <trkpt lat="44.77746" lon="0.42019">
        <ele>118.2</ele>
        <time>2025-07-14T06:44:18Z</time>
      </trkpt>
      <trkpt lat="44.77746" lon="0.42014">
        <ele>118</ele>
        <time>2025-07-14T06:44:19Z</time>
      </trkpt>
      <trkpt lat="44.77746" lon="0.42008">
        <ele>118</ele>
        <time>2025-07-14T06:44:20Z</time>
      </trkpt>
      <trkpt lat="44.77745" lon="0.42004">
        <ele>118</ele>
        <time>2025-07-14T06:44:21Z</time>
      </trkpt>
      <trkpt lat="44.77746" lon="0.42001">
        <ele>117.8</ele>
        <time>2025-07-14T06:44:22Z</time>
      </trkpt>
      <trkpt lat="44.77748" lon="0.42">
        <ele>117.8</ele>
        <time>2025-07-14T06:44:23Z</time>
      </trkpt>
      <trkpt lat="44.77749" lon="0.42003">
        <ele>117.8</ele>
        <time>2025-07-14T06:44:24Z</time>
      </trkpt>
      <trkpt lat="44.77749" lon="0.42006">
        <ele>117.8</ele>
        <time>2025-07-14T06:44:25Z</time>
      </trkpt>
      <trkpt lat="44.77748" lon="0.4201">
        <ele>117.8</ele>
        <time>2025-07-14T06:44:26Z</time>
      </trkpt>
      <trkpt lat="44.77746" lon="0.42015">
        <ele>117.8</ele>
        <time>2025-07-14T06:44:27Z</time>
      </trkpt>
      <trkpt lat="44.77746" lon="0.4202">
        <ele>117.8</ele>
        <time>2025-07-14T06:44:28Z</time>
      </trkpt>
      <trkpt lat="44.77744" lon="0.42025">
        <ele>117.8</ele>
        <time>2025-07-14T06:44:29Z</time>
      </trkpt>
      <trkpt lat="44.77743" lon="0.42029">
        <ele>117.8</ele>
        <time>2025-07-14T06:44:30Z</time>
      </trkpt>
      <trkpt lat="44.77741" lon="0.42032">
        <ele>117.6</ele>
        <time>2025-07-14T06:44:31Z</time>
      </trkpt>
      <trkpt lat="44.77738" lon="0.42032">
        <ele>117.6</ele>
        <time>2025-07-14T06:44:32Z</time>
      </trkpt>
      <trkpt lat="44.77737" lon="0.4203">
        <ele>117.6</ele>
        <time>2025-07-14T06:44:33Z</time>
      </trkpt>
      <trkpt lat="44.77736" lon="0.42026">
        <ele>117.6</ele>
        <time>2025-07-14T06:44:34Z</time>
      </trkpt>
      <trkpt lat="44.77737" lon="0.42021">
        <ele>117.6</ele>
        <time>2025-07-14T06:44:35Z</time>
      </trkpt>
      <trkpt lat="44.77738" lon="0.42016">
        <ele>117.4</ele>
        <time>2025-07-14T06:44:36Z</time>
      </trkpt>
      <trkpt lat="44.77739" lon="0.42011">
        <ele>117.4</ele>
        <time>2025-07-14T06:44:37Z</time>
      </trkpt>
      <trkpt lat="44.7774" lon="0.42006">
        <ele>117.4</ele>
        <time>2025-07-14T06:44:38Z</time>
      </trkpt>
      <trkpt lat="44.7774" lon="0.42001">
        <ele>117.2</ele>
        <time>2025-07-14T06:44:39Z</time>
      </trkpt>
      <trkpt lat="44.77741" lon="0.41996">
        <ele>117.2</ele>
        <time>2025-07-14T06:44:40Z</time>
      </trkpt>
      <trkpt lat="44.77741" lon="0.41991">
        <ele>117.2</ele>
        <time>2025-07-14T06:44:41Z</time>
      </trkpt>
      <trkpt lat="44.77742" lon="0.41987">
        <ele>117.2</ele>
        <time>2025-07-14T06:44:42Z</time>
      </trkpt>
      <trkpt lat="44.77743" lon="0.41982">
        <ele>117.2</ele>
        <time>2025-07-14T06:44:43Z</time>
      </trkpt>
      <trkpt lat="44.77744" lon="0.41978">
        <ele>117.4</ele>
        <time>2025-07-14T06:44:44Z</time>
      </trkpt>
      <trkpt lat="44.77745" lon="0.41973">
        <ele>117.4</ele>
        <time>2025-07-14T06:44:45Z</time>
      </trkpt>
      <trkpt lat="44.77744" lon="0.41969">
        <ele>117.4</ele>
        <time>2025-07-14T06:44:46Z</time>
      </trkpt>
      <trkpt lat="44.77741" lon="0.41966">
        <ele>117.4</ele>
        <time>2025-07-14T06:44:47Z</time>
      </trkpt>
      <trkpt lat="44.77737" lon="0.41964">
        <ele>117.4</ele>
        <time>2025-07-14T06:44:48Z</time>
      </trkpt>
      <trkpt lat="44.77733" lon="0.41963">
        <ele>117.6</ele>
        <time>2025-07-14T06:44:49Z</time>
      </trkpt>
      <trkpt lat="44.7773" lon="0.41963">
        <ele>117.4</ele>
        <time>2025-07-14T06:44:50Z</time>
      </trkpt>
      <trkpt lat="44.77726" lon="0.41962">
        <ele>117.4</ele>
        <time>2025-07-14T06:44:51Z</time>
      </trkpt>
      <trkpt lat="44.77722" lon="0.41962">
        <ele>117.4</ele>
        <time>2025-07-14T06:44:52Z</time>
      </trkpt>
      <trkpt lat="44.77718" lon="0.41961">
        <ele>117.4</ele>
        <time>2025-07-14T06:44:53Z</time>
      </trkpt>
      <trkpt lat="44.77714" lon="0.41961">
        <ele>117.4</ele>
        <time>2025-07-14T06:44:54Z</time>
      </trkpt>
      <trkpt lat="44.7771" lon="0.4196">
        <ele>117.4</ele>
        <time>2025-07-14T06:44:55Z</time>
      </trkpt>
      <trkpt lat="44.77706" lon="0.4196">
        <ele>117.4</ele>
        <time>2025-07-14T06:44:56Z</time>
      </trkpt>
      <trkpt lat="44.77702" lon="0.41959">
        <ele>117.4</ele>
        <time>2025-07-14T06:44:57Z</time>
      </trkpt>
      <trkpt lat="44.77699" lon="0.41959">
        <ele>117.4</ele>
        <time>2025-07-14T06:44:58Z</time>
      </trkpt>
      <trkpt lat="44.77695" lon="0.41959">
        <ele>117.4</ele>
        <time>2025-07-14T06:44:59Z</time>
      </trkpt>
      <trkpt lat="44.77691" lon="0.41958">
        <ele>117.2</ele>
        <time>2025-07-14T06:45:00Z</time>
      </trkpt>
      <trkpt lat="44.77688" lon="0.41958">
        <ele>117.2</ele>
        <time>2025-07-14T06:45:01Z</time>
      </trkpt>
      <trkpt lat="44.77684" lon="0.41957">
        <ele>117.2</ele>
        <time>2025-07-14T06:45:02Z</time>
      </trkpt>
      <trkpt lat="44.7768" lon="0.41957">
        <ele>117.2</ele>
        <time>2025-07-14T06:45:03Z</time>
      </trkpt>
      <trkpt lat="44.77676" lon="0.41957">
        <ele>117.2</ele>
        <time>2025-07-14T06:45:04Z</time>
      </trkpt>
      <trkpt lat="44.77672" lon="0.41956">
        <ele>117.2</ele>
        <time>2025-07-14T06:45:05Z</time>
      </trkpt>
      <trkpt lat="44.77668" lon="0.41956">
        <ele>117.2</ele>
        <time>2025-07-14T06:45:06Z</time>
      </trkpt>
      <trkpt lat="44.77664" lon="0.41955">
        <ele>117.2</ele>
        <time>2025-07-14T06:45:07Z</time>
      </trkpt>
      <trkpt lat="44.7766" lon="0.41954">
        <ele>117.2</ele>
        <time>2025-07-14T06:45:08Z</time>
      </trkpt>
      <trkpt lat="44.77656" lon="0.41953">
        <ele>117.2</ele>
        <time>2025-07-14T06:45:09Z</time>
      </trkpt>
      <trkpt lat="44.77652" lon="0.41953">
        <ele>117</ele>
        <time>2025-07-14T06:45:10Z</time>
      </trkpt>
      <trkpt lat="44.77648" lon="0.41952">
        <ele>117</ele>
        <time>2025-07-14T06:45:11Z</time>
      </trkpt>
      <trkpt lat="44.77644" lon="0.41951">
        <ele>117</ele>
        <time>2025-07-14T06:45:12Z</time>
      </trkpt>
      <trkpt lat="44.7764" lon="0.4195">
        <ele>117</ele>
        <time>2025-07-14T06:45:13Z</time>
      </trkpt>
      <trkpt lat="44.77636" lon="0.41949">
        <ele>117</ele>
        <time>2025-07-14T06:45:14Z</time>
      </trkpt>
      <trkpt lat="44.77633" lon="0.41948">
        <ele>117</ele>
        <time>2025-07-14T06:45:15Z</time>
      </trkpt>
      <trkpt lat="44.77629" lon="0.41946">
        <ele>117</ele>
        <time>2025-07-14T06:45:16Z</time>
      </trkpt>
      <trkpt lat="44.77626" lon="0.41944">
        <ele>117</ele>
        <time>2025-07-14T06:45:17Z</time>
      </trkpt>
      <trkpt lat="44.77622" lon="0.41943">
        <ele>117</ele>
        <time>2025-07-14T06:45:18Z</time>
      </trkpt>
      <trkpt lat="44.77618" lon="0.41942">
        <ele>117</ele>
        <time>2025-07-14T06:45:19Z</time>
      </trkpt>
      <trkpt lat="44.77614" lon="0.41942">
        <ele>117</ele>
        <time>2025-07-14T06:45:20Z</time>
      </trkpt>
      <trkpt lat="44.77611" lon="0.41941">
        <ele>117</ele>
        <time>2025-07-14T06:45:21Z</time>
      </trkpt>
      <trkpt lat="44.77607" lon="0.4194">
        <ele>117</ele>
        <time>2025-07-14T06:45:22Z</time>
      </trkpt>
      <trkpt lat="44.77603" lon="0.4194">
        <ele>117</ele>
        <time>2025-07-14T06:45:23Z</time>
      </trkpt>
      <trkpt lat="44.77599" lon="0.41939">
        <ele>117.2</ele>
        <time>2025-07-14T06:45:24Z</time>
      </trkpt>
      <trkpt lat="44.77596" lon="0.41939">
        <ele>117.2</ele>
        <time>2025-07-14T06:45:25Z</time>
      </trkpt>
      <trkpt lat="44.77592" lon="0.41938">
        <ele>117.2</ele>
        <time>2025-07-14T06:45:26Z</time>
      </trkpt>
      <trkpt lat="44.77589" lon="0.41938">
        <ele>117.4</ele>
        <time>2025-07-14T06:45:27Z</time>
      </trkpt>
      <trkpt lat="44.77586" lon="0.41937">
        <ele>117.4</ele>
        <time>2025-07-14T06:45:28Z</time>
      </trkpt>
      <trkpt lat="44.77582" lon="0.41936">
        <ele>117.6</ele>
        <time>2025-07-14T06:45:29Z</time>
      </trkpt>
      <trkpt lat="44.77579" lon="0.41934">
        <ele>117.6</ele>
        <time>2025-07-14T06:45:30Z</time>
      </trkpt>
      <trkpt lat="44.77576" lon="0.41932">
        <ele>117.6</ele>
        <time>2025-07-14T06:45:31Z</time>
      </trkpt>
      <trkpt lat="44.77572" lon="0.41929">
        <ele>117.8</ele>
        <time>2025-07-14T06:45:32Z</time>
      </trkpt>
      <trkpt lat="44.77568" lon="0.41927">
        <ele>117.8</ele>
        <time>2025-07-14T06:45:33Z</time>
      </trkpt>
      <trkpt lat="44.77565" lon="0.41925">
        <ele>117.8</ele>
        <time>2025-07-14T06:45:34Z</time>
      </trkpt>
      <trkpt lat="44.77561" lon="0.41922">
        <ele>118</ele>
        <time>2025-07-14T06:45:35Z</time>
      </trkpt>
      <trkpt lat="44.77558" lon="0.4192">
        <ele>118</ele>
        <time>2025-07-14T06:45:36Z</time>
      </trkpt>
      <trkpt lat="44.77554" lon="0.41917">
        <ele>118</ele>
        <time>2025-07-14T06:45:37Z</time>
      </trkpt>
      <trkpt lat="44.77551" lon="0.41915">
        <ele>118</ele>
        <time>2025-07-14T06:45:38Z</time>
      </trkpt>
      <trkpt lat="44.77547" lon="0.41912">
        <ele>118</ele>
        <time>2025-07-14T06:45:39Z</time>
      </trkpt>
      <trkpt lat="44.77544" lon="0.4191">
        <ele>118</ele>
        <time>2025-07-14T06:45:40Z</time>
      </trkpt>
      <trkpt lat="44.7754" lon="0.41907">
        <ele>118.2</ele>
        <time>2025-07-14T06:45:41Z</time>
      </trkpt>
      <trkpt lat="44.77536" lon="0.41904">
        <ele>118.2</ele>
        <time>2025-07-14T06:45:42Z</time>
      </trkpt>
      <trkpt lat="44.77532" lon="0.41901">
        <ele>118</ele>
        <time>2025-07-14T06:45:43Z</time>
      </trkpt>
      <trkpt lat="44.77528" lon="0.41899">
        <ele>118</ele>
        <time>2025-07-14T06:45:44Z</time>
      </trkpt>
      <trkpt lat="44.77523" lon="0.41898">
        <ele>118</ele>
        <time>2025-07-14T06:45:45Z</time>
      </trkpt>
      <trkpt lat="44.77519" lon="0.41898">
        <ele>117.8</ele>
        <time>2025-07-14T06:45:46Z</time>
      </trkpt>
      <trkpt lat="44.77515" lon="0.419">
        <ele>117.8</ele>
        <time>2025-07-14T06:45:47Z</time>
      </trkpt>
      <trkpt lat="44.77512" lon="0.41903">
        <ele>117.8</ele>
        <time>2025-07-14T06:45:48Z</time>
      </trkpt>
      <trkpt lat="44.7751" lon="0.41907">
        <ele>117.8</ele>
        <time>2025-07-14T06:45:49Z</time>
      </trkpt>
      <trkpt lat="44.77509" lon="0.41912">
        <ele>117.8</ele>
        <time>2025-07-14T06:45:50Z</time>
      </trkpt>
      <trkpt lat="44.77509" lon="0.41917">
        <ele>117.6</ele>
        <time>2025-07-14T06:45:51Z</time>
      </trkpt>
      <trkpt lat="44.7751" lon="0.41923">
        <ele>117.8</ele>
        <time>2025-07-14T06:45:52Z</time>
      </trkpt>
      <trkpt lat="44.77509" lon="0.41929">
        <ele>117.6</ele>
        <time>2025-07-14T06:45:53Z</time>
      </trkpt>
      <trkpt lat="44.77508" lon="0.41936">
        <ele>117.6</ele>
        <time>2025-07-14T06:45:54Z</time>
      </trkpt>
      <trkpt lat="44.77507" lon="0.41942">
        <ele>117.6</ele>
        <time>2025-07-14T06:45:55Z</time>
      </trkpt>
      <trkpt lat="44.77506" lon="0.41949">
        <ele>117.4</ele>
        <time>2025-07-14T06:45:56Z</time>
      </trkpt>
      <trkpt lat="44.77507" lon="0.41956">
        <ele>117.2</ele>
        <time>2025-07-14T06:45:57Z</time>
      </trkpt>
      <trkpt lat="44.77507" lon="0.41963">
        <ele>117.2</ele>
        <time>2025-07-14T06:45:58Z</time>
      </trkpt>
      <trkpt lat="44.77508" lon="0.41971">
        <ele>117</ele>
        <time>2025-07-14T06:45:59Z</time>
      </trkpt>
      <trkpt lat="44.77508" lon="0.41979">
        <ele>116.8</ele>
        <time>2025-07-14T06:46:00Z</time>
      </trkpt>
      <trkpt lat="44.77508" lon="0.41988">
        <ele>116.6</ele>
        <time>2025-07-14T06:46:01Z</time>
      </trkpt>
      <trkpt lat="44.77507" lon="0.41997">
        <ele>116.4</ele>
        <time>2025-07-14T06:46:02Z</time>
      </trkpt>
      <trkpt lat="44.77505" lon="0.42005">
        <ele>116.2</ele>
        <time>2025-07-14T06:46:03Z</time>
      </trkpt>
      <trkpt lat="44.77502" lon="0.42012">
        <ele>116</ele>
        <time>2025-07-14T06:46:04Z</time>
      </trkpt>
      <trkpt lat="44.77498" lon="0.42018">
        <ele>116</ele>
        <time>2025-07-14T06:46:05Z</time>
      </trkpt>
      <trkpt lat="44.77493" lon="0.42024">
        <ele>115.8</ele>
        <time>2025-07-14T06:46:06Z</time>
      </trkpt>
      <trkpt lat="44.77489" lon="0.4203">
        <ele>115.6</ele>
        <time>2025-07-14T06:46:07Z</time>
      </trkpt>
      <trkpt lat="44.77484" lon="0.42034">
        <ele>115.4</ele>
        <time>2025-07-14T06:46:08Z</time>
      </trkpt>
      <trkpt lat="44.77478" lon="0.42037">
        <ele>115.2</ele>
        <time>2025-07-14T06:46:09Z</time>
      </trkpt>
      <trkpt lat="44.77472" lon="0.42039">
        <ele>115</ele>
        <time>2025-07-14T06:46:10Z</time>
      </trkpt>
      <trkpt lat="44.77466" lon="0.42038">
        <ele>114.8</ele>
        <time>2025-07-14T06:46:11Z</time>
      </trkpt>
      <trkpt lat="44.7746" lon="0.42039">
        <ele>114.8</ele>
        <time>2025-07-14T06:46:12Z</time>
      </trkpt>
      <trkpt lat="44.77454" lon="0.42039">
        <ele>114.6</ele>
        <time>2025-07-14T06:46:13Z</time>
      </trkpt>
      <trkpt lat="44.77448" lon="0.42041">
        <ele>114.6</ele>
        <time>2025-07-14T06:46:14Z</time>
      </trkpt>
      <trkpt lat="44.77442" lon="0.42044">
        <ele>114.4</ele>
        <time>2025-07-14T06:46:15Z</time>
      </trkpt>
      <trkpt lat="44.77437" lon="0.42049">
        <ele>114.4</ele>
        <time>2025-07-14T06:46:16Z</time>
      </trkpt>
      <trkpt lat="44.77433" lon="0.42055">
        <ele>114.4</ele>
        <time>2025-07-14T06:46:17Z</time>
      </trkpt>
      <trkpt lat="44.77432" lon="0.42062">
        <ele>114.4</ele>
        <time>2025-07-14T06:46:18Z</time>
      </trkpt>
      <trkpt lat="44.77432" lon="0.4207">
        <ele>114.4</ele>
        <time>2025-07-14T06:46:19Z</time>
      </trkpt>
      <trkpt lat="44.77433" lon="0.42077">
        <ele>114.2</ele>
        <time>2025-07-14T06:46:20Z</time>
      </trkpt>
      <trkpt lat="44.77435" lon="0.42085">
        <ele>114</ele>
        <time>2025-07-14T06:46:21Z</time>
      </trkpt>
      <trkpt lat="44.77436" lon="0.42093">
        <ele>113.8</ele>
        <time>2025-07-14T06:46:22Z</time>
      </trkpt>
      <trkpt lat="44.77437" lon="0.42102">
        <ele>113.4</ele>
        <time>2025-07-14T06:46:23Z</time>
      </trkpt>
      <trkpt lat="44.77438" lon="0.42112">
        <ele>112.8</ele>
        <time>2025-07-14T06:46:24Z</time>
      </trkpt>
      <trkpt lat="44.7744" lon="0.42122">
        <ele>112.4</ele>
        <time>2025-07-14T06:46:25Z</time>
      </trkpt>
      <trkpt lat="44.77441" lon="0.42131">
        <ele>111.6</ele>
        <time>2025-07-14T06:46:26Z</time>
      </trkpt>
      <trkpt lat="44.77442" lon="0.42138">
        <ele>110.6</ele>
        <time>2025-07-14T06:46:27Z</time>
      </trkpt>
      <trkpt lat="44.77446" lon="0.42144">
        <ele>109.8</ele>
        <time>2025-07-14T06:46:28Z</time>
      </trkpt>
      <trkpt lat="44.7745" lon="0.42148">
        <ele>109.4</ele>
        <time>2025-07-14T06:46:29Z</time>
      </trkpt>
      <trkpt lat="44.77455" lon="0.42152">
        <ele>108.6</ele>
        <time>2025-07-14T06:46:30Z</time>
      </trkpt>
      <trkpt lat="44.7746" lon="0.42156">
        <ele>108.2</ele>
        <time>2025-07-14T06:46:31Z</time>
      </trkpt>
      <trkpt lat="44.77461" lon="0.42162">
        <ele>107</ele>
        <time>2025-07-14T06:46:32Z</time>
      </trkpt>
      <trkpt lat="44.77461" lon="0.42169">
        <ele>106</ele>
        <time>2025-07-14T06:46:33Z</time>
      </trkpt>
      <trkpt lat="44.77459" lon="0.42176">
        <ele>105.2</ele>
        <time>2025-07-14T06:46:34Z</time>
      </trkpt>
      <trkpt lat="44.77458" lon="0.42183">
        <ele>104.4</ele>
        <time>2025-07-14T06:46:35Z</time>
      </trkpt>
      <trkpt lat="44.77456" lon="0.42192">
        <ele>103.8</ele>
        <time>2025-07-14T06:46:36Z</time>
      </trkpt>
      <trkpt lat="44.77454" lon="0.42199">
        <ele>103</ele>
        <time>2025-07-14T06:46:37Z</time>
      </trkpt>
      <trkpt lat="44.7745" lon="0.42207">
        <ele>102</ele>
        <time>2025-07-14T06:46:38Z</time>
      </trkpt>
      <trkpt lat="44.77446" lon="0.42213">
        <ele>101</ele>
        <time>2025-07-14T06:46:39Z</time>
      </trkpt>
      <trkpt lat="44.77441" lon="0.4222">
        <ele>100.4</ele>
        <time>2025-07-14T06:46:40Z</time>
      </trkpt>
      <trkpt lat="44.77436" lon="0.42226">
        <ele>99.8</ele>
        <time>2025-07-14T06:46:41Z</time>
      </trkpt>
      <trkpt lat="44.77432" lon="0.42232">
        <ele>99.6</ele>
        <time>2025-07-14T06:46:42Z</time>
      </trkpt>
      <trkpt lat="44.77426" lon="0.42237">
        <ele>99.4</ele>
        <time>2025-07-14T06:46:43Z</time>
      </trkpt>
      <trkpt lat="44.77421" lon="0.42241">
        <ele>99</ele>
        <time>2025-07-14T06:46:44Z</time>
      </trkpt>
      <trkpt lat="44.77416" lon="0.42245">
        <ele>98.6</ele>
        <time>2025-07-14T06:46:45Z</time>
      </trkpt>
      <trkpt lat="44.7741" lon="0.42249">
        <ele>98.4</ele>
        <time>2025-07-14T06:46:46Z</time>
      </trkpt>
      <trkpt lat="44.77404" lon="0.42253">
        <ele>98.2</ele>
        <time>2025-07-14T06:46:47Z</time>
      </trkpt>
      <trkpt lat="44.77398" lon="0.42256">
        <ele>97.8</ele>
        <time>2025-07-14T06:46:48Z</time>
      </trkpt>
      <trkpt lat="44.77392" lon="0.4226">
        <ele>97.6</ele>
        <time>2025-07-14T06:46:49Z</time>
      </trkpt>
      <trkpt lat="44.77386" lon="0.42267">
        <ele>97.4</ele>
        <time>2025-07-14T06:46:50Z</time>
      </trkpt>
      <trkpt lat="44.7738" lon="0.42273">
        <ele>97.2</ele>
        <time>2025-07-14T06:46:51Z</time>
      </trkpt>
      <trkpt lat="44.77374" lon="0.42277">
        <ele>96.8</ele>
        <time>2025-07-14T06:46:52Z</time>
      </trkpt>
      <trkpt lat="44.77366" lon="0.42281">
        <ele>96.4</ele>
        <time>2025-07-14T06:46:53Z</time>
      </trkpt>
      <trkpt lat="44.77358" lon="0.42284">
        <ele>96</ele>
        <time>2025-07-14T06:46:54Z</time>
      </trkpt>
      <trkpt lat="44.7735" lon="0.42287">
        <ele>95.4</ele>
        <time>2025-07-14T06:46:55Z</time>
      </trkpt>
      <trkpt lat="44.77342" lon="0.42291">
        <ele>94.8</ele>
        <time>2025-07-14T06:46:56Z</time>
      </trkpt>
      <trkpt lat="44.77335" lon="0.42295">
        <ele>94.6</ele>
        <time>2025-07-14T06:46:57Z</time>
      </trkpt>
      <trkpt lat="44.77328" lon="0.423">
        <ele>94.4</ele>
        <time>2025-07-14T06:46:58Z</time>
      </trkpt>
      <trkpt lat="44.77321" lon="0.42306">
        <ele>94</ele>
        <time>2025-07-14T06:46:59Z</time>
      </trkpt>
      <trkpt lat="44.77314" lon="0.42309">
        <ele>93.6</ele>
        <time>2025-07-14T06:47:00Z</time>
      </trkpt>
      <trkpt lat="44.77306" lon="0.42313">
        <ele>93.2</ele>
        <time>2025-07-14T06:47:01Z</time>
      </trkpt>
      <trkpt lat="44.77299" lon="0.42317">
        <ele>93</ele>
        <time>2025-07-14T06:47:02Z</time>
      </trkpt>
      <trkpt lat="44.77291" lon="0.42323">
        <ele>92.8</ele>
        <time>2025-07-14T06:47:03Z</time>
      </trkpt>
      <trkpt lat="44.77284" lon="0.42327">
        <ele>92.6</ele>
        <time>2025-07-14T06:47:04Z</time>
      </trkpt>
      <trkpt lat="44.77277" lon="0.42332">
        <ele>92.2</ele>
        <time>2025-07-14T06:47:05Z</time>
      </trkpt>
      <trkpt lat="44.77271" lon="0.42337">
        <ele>92</ele>
        <time>2025-07-14T06:47:06Z</time>
      </trkpt>
      <trkpt lat="44.77264" lon="0.42342">
        <ele>91.6</ele>
        <time>2025-07-14T06:47:07Z</time>
      </trkpt>
      <trkpt lat="44.77257" lon="0.42345">
        <ele>91.4</ele>
        <time>2025-07-14T06:47:08Z</time>
      </trkpt>
      <trkpt lat="44.7725" lon="0.42346">
        <ele>91.2</ele>
        <time>2025-07-14T06:47:09Z</time>
      </trkpt>
      <trkpt lat="44.77242" lon="0.42347">
        <ele>91</ele>
        <time>2025-07-14T06:47:10Z</time>
      </trkpt>
      <trkpt lat="44.77234" lon="0.42348">
        <ele>90.6</ele>
        <time>2025-07-14T06:47:11Z</time>
      </trkpt>
      <trkpt lat="44.77226" lon="0.42348">
        <ele>90.4</ele>
        <time>2025-07-14T06:47:12Z</time>
      </trkpt>
      <trkpt lat="44.77219" lon="0.42348">
        <ele>90</ele>
        <time>2025-07-14T06:47:13Z</time>
      </trkpt>
      <trkpt lat="44.77214" lon="0.4235">
        <ele>89.6</ele>
        <time>2025-07-14T06:47:14Z</time>
      </trkpt>
      <trkpt lat="44.77208" lon="0.42354">
        <ele>89.4</ele>
        <time>2025-07-14T06:47:15Z</time>
      </trkpt>
      <trkpt lat="44.77201" lon="0.42359">
        <ele>88.8</ele>
        <time>2025-07-14T06:47:16Z</time>
      </trkpt>
      <trkpt lat="44.77194" lon="0.42364">
        <ele>88</ele>
        <time>2025-07-14T06:47:17Z</time>
      </trkpt>
      <trkpt lat="44.77187" lon="0.42368">
        <ele>87.2</ele>
        <time>2025-07-14T06:47:18Z</time>
      </trkpt>
      <trkpt lat="44.7718" lon="0.42374">
        <ele>86.4</ele>
        <time>2025-07-14T06:47:19Z</time>
      </trkpt>
      <trkpt lat="44.77174" lon="0.4238">
        <ele>84.8</ele>
        <time>2025-07-14T06:47:20Z</time>
      </trkpt>
      <trkpt lat="44.77169" lon="0.42386">
        <ele>83</ele>
        <time>2025-07-14T06:47:21Z</time>
      </trkpt>
      <trkpt lat="44.77163" lon="0.42388">
        <ele>81.4</ele>
        <time>2025-07-14T06:47:22Z</time>
      </trkpt>
      <trkpt lat="44.77156" lon="0.4239">
        <ele>79.6</ele>
        <time>2025-07-14T06:47:23Z</time>
      </trkpt>
      <trkpt lat="44.77148" lon="0.42394">
        <ele>78.8</ele>
        <time>2025-07-14T06:47:24Z</time>
      </trkpt>
      <trkpt lat="44.7714" lon="0.42398">
        <ele>77.2</ele>
        <time>2025-07-14T06:47:25Z</time>
      </trkpt>
      <trkpt lat="44.77131" lon="0.42402">
        <ele>75.8</ele>
        <time>2025-07-14T06:47:26Z</time>
      </trkpt>
      <trkpt lat="44.77124" lon="0.42405">
        <ele>74.2</ele>
        <time>2025-07-14T06:47:27Z</time>
      </trkpt>
      <trkpt lat="44.77118" lon="0.42406">
        <ele>72.8</ele>
        <time>2025-07-14T06:47:28Z</time>
      </trkpt>
      <trkpt lat="44.77111" lon="0.42407">
        <ele>71.2</ele>
        <time>2025-07-14T06:47:29Z</time>
      </trkpt>
      <trkpt lat="44.77107" lon="0.42407">
        <ele>70.4</ele>
        <time>2025-07-14T06:47:30Z</time>
      </trkpt>
      <trkpt lat="44.77104" lon="0.42408">
        <ele>69.6</ele>
        <time>2025-07-14T06:47:31Z</time>
      </trkpt>
      <trkpt lat="44.77103" lon="0.42411">
        <ele>68.8</ele>
        <time>2025-07-14T06:47:32Z</time>
      </trkpt>
      <trkpt lat="44.77104" lon="0.42414">
        <ele>67.8</ele>
        <time>2025-07-14T06:47:33Z</time>
      </trkpt>
      <trkpt lat="44.77105" lon="0.42416">
        <ele>67</ele>
        <time>2025-07-14T06:47:34Z</time>
      </trkpt>
      <trkpt lat="44.77106" lon="0.42418">
        <ele>66.6</ele>
        <time>2025-07-14T06:47:35Z</time>
      </trkpt>
      <trkpt lat="44.77107" lon="0.42418">
        <ele>66.2</ele>
        <time>2025-07-14T06:47:36Z</time>
      </trkpt>
      <trkpt lat="44.77108" lon="0.4242">
        <ele>65.8</ele>
        <time>2025-07-14T06:47:37Z</time>
      </trkpt>
      <trkpt lat="44.77109" lon="0.42421">
        <ele>65.6</ele>
        <time>2025-07-14T06:47:38Z</time>
      </trkpt>
      <trkpt lat="44.77111" lon="0.42423">
        <ele>65.6</ele>
        <time>2025-07-14T06:47:39Z</time>
      </trkpt>
      <trkpt lat="44.77115" lon="0.42425">
        <ele>65.4</ele>
        <time>2025-07-14T06:47:40Z</time>
      </trkpt>
      <trkpt lat="44.77118" lon="0.42426">
        <ele>65.4</ele>
        <time>2025-07-14T06:47:41Z</time>
      </trkpt>
      <trkpt lat="44.77122" lon="0.42429">
        <ele>65.2</ele>
        <time>2025-07-14T06:47:42Z</time>
      </trkpt>
      <trkpt lat="44.77125" lon="0.42431">
        <ele>65.2</ele>
        <time>2025-07-14T06:47:43Z</time>
      </trkpt>
      <trkpt lat="44.77128" lon="0.42436">
        <ele>65</ele>
        <time>2025-07-14T06:47:44Z</time>
      </trkpt>
      <trkpt lat="44.7713" lon="0.4244">
        <ele>64.8</ele>
        <time>2025-07-14T06:47:45Z</time>
      </trkpt>
      <trkpt lat="44.77131" lon="0.42442">
        <ele>64.6</ele>
        <time>2025-07-14T06:47:46Z</time>
      </trkpt>
      <trkpt lat="44.77132" lon="0.42446">
        <ele>64.6</ele>
        <time>2025-07-14T06:47:47Z</time>
      </trkpt>
      <trkpt lat="44.77132" lon="0.42448">
        <ele>64.4</ele>
        <time>2025-07-14T06:47:48Z</time>
      </trkpt>
      <trkpt lat="44.77132" lon="0.42451">
        <ele>64.2</ele>
        <time>2025-07-14T06:47:49Z</time>
      </trkpt>
      <trkpt lat="44.77132" lon="0.42453">
        <ele>64</ele>
        <time>2025-07-14T06:47:50Z</time>
      </trkpt>
      <trkpt lat="44.77132" lon="0.42455">
        <ele>63.8</ele>
        <time>2025-07-14T06:47:51Z</time>
      </trkpt>
      <trkpt lat="44.77132" lon="0.42457">
        <ele>63.8</ele>
        <time>2025-07-14T06:47:52Z</time>
      </trkpt>
      <trkpt lat="44.77132" lon="0.42459">
        <ele>63.6</ele>
        <time>2025-07-14T06:47:53Z</time>
      </trkpt>
      <trkpt lat="44.77133" lon="0.4246">
        <ele>63.6</ele>
        <time>2025-07-14T06:47:54Z</time>
      </trkpt>
      <trkpt lat="44.77133" lon="0.42461">
        <ele>63.6</ele>
        <time>2025-07-14T06:47:55Z</time>
      </trkpt>
      <trkpt lat="44.77135" lon="0.42463">
        <ele>63.6</ele>
        <time>2025-07-14T06:47:56Z</time>
      </trkpt>
      <trkpt lat="44.77135" lon="0.42465">
        <ele>63.6</ele>
        <time>2025-07-14T06:47:57Z</time>
      </trkpt>
      <trkpt lat="44.77137" lon="0.42468">
        <ele>63.8</ele>
        <time>2025-07-14T06:47:58Z</time>
      </trkpt>
      <trkpt lat="44.77138" lon="0.42471">
        <ele>64</ele>
        <time>2025-07-14T06:47:59Z</time>
      </trkpt>
      <trkpt lat="44.77139" lon="0.42475">
        <ele>64</ele>
        <time>2025-07-14T06:48:00Z</time>
      </trkpt>
      <trkpt lat="44.77137" lon="0.42478">
        <ele>64.4</ele>
        <time>2025-07-14T06:48:01Z</time>
      </trkpt>
      <trkpt lat="44.77135" lon="0.4248">
        <ele>64.6</ele>
        <time>2025-07-14T06:48:02Z</time>
      </trkpt>
      <trkpt lat="44.77132" lon="0.42482">
        <ele>64.8</ele>
        <time>2025-07-14T06:48:03Z</time>
      </trkpt>
      <trkpt lat="44.77129" lon="0.42483">
        <ele>65</ele>
        <time>2025-07-14T06:48:04Z</time>
      </trkpt>
      <trkpt lat="44.77126" lon="0.42485">
        <ele>65</ele>
        <time>2025-07-14T06:48:05Z</time>
      </trkpt>
      <trkpt lat="44.77123" lon="0.42487">
        <ele>65.2</ele>
        <time>2025-07-14T06:48:06Z</time>
      </trkpt>
      <trkpt lat="44.7712" lon="0.42489">
        <ele>65.2</ele>
        <time>2025-07-14T06:48:07Z</time>
      </trkpt>
      <trkpt lat="44.77116" lon="0.42492">
        <ele>65.2</ele>
        <time>2025-07-14T06:48:08Z</time>
      </trkpt>
      <trkpt lat="44.77113" lon="0.42494">
        <ele>65.2</ele>
        <time>2025-07-14T06:48:09Z</time>
      </trkpt>
      <trkpt lat="44.7711" lon="0.42497">
        <ele>65.2</ele>
        <time>2025-07-14T06:48:10Z</time>
      </trkpt>
      <trkpt lat="44.77106" lon="0.425">
        <ele>65.2</ele>
        <time>2025-07-14T06:48:11Z</time>
      </trkpt>
      <trkpt lat="44.77103" lon="0.42502">
        <ele>65</ele>
        <time>2025-07-14T06:48:12Z</time>
      </trkpt>
      <trkpt lat="44.77099" lon="0.42506">
        <ele>64.8</ele>
        <time>2025-07-14T06:48:13Z</time>
      </trkpt>
      <trkpt lat="44.77095" lon="0.4251">
        <ele>64.8</ele>
        <time>2025-07-14T06:48:14Z</time>
      </trkpt>
      <trkpt lat="44.77091" lon="0.42515">
        <ele>64.6</ele>
        <time>2025-07-14T06:48:15Z</time>
      </trkpt>
      <trkpt lat="44.77088" lon="0.42519">
        <ele>64.6</ele>
        <time>2025-07-14T06:48:16Z</time>
      </trkpt>
      <trkpt lat="44.77084" lon="0.42524">
        <ele>64.6</ele>
        <time>2025-07-14T06:48:17Z</time>
      </trkpt>
      <trkpt lat="44.77081" lon="0.42529">
        <ele>64.6</ele>
        <time>2025-07-14T06:48:18Z</time>
      </trkpt>
      <trkpt lat="44.77077" lon="0.42535">
        <ele>64.6</ele>
        <time>2025-07-14T06:48:19Z</time>
      </trkpt>
      <trkpt lat="44.77074" lon="0.42541">
        <ele>64.6</ele>
        <time>2025-07-14T06:48:20Z</time>
      </trkpt>
      <trkpt lat="44.7707" lon="0.4255">
        <ele>64.4</ele>
        <time>2025-07-14T06:48:21Z</time>
      </trkpt>
      <trkpt lat="44.77066" lon="0.42557">
        <ele>64.4</ele>
        <time>2025-07-14T06:48:22Z</time>
      </trkpt>
      <trkpt lat="44.77062" lon="0.42562">
        <ele>64.2</ele>
        <time>2025-07-14T06:48:23Z</time>
      </trkpt>
      <trkpt lat="44.77058" lon="0.42563">
        <ele>64</ele>
        <time>2025-07-14T06:48:24Z</time>
      </trkpt>
      <trkpt lat="44.77053" lon="0.42563">
        <ele>63.6</ele>
        <time>2025-07-14T06:48:25Z</time>
      </trkpt>
      <trkpt lat="44.77048" lon="0.42562">
        <ele>63.4</ele>
        <time>2025-07-14T06:48:26Z</time>
      </trkpt>
      <trkpt lat="44.77044" lon="0.42562">
        <ele>63.2</ele>
        <time>2025-07-14T06:48:27Z</time>
      </trkpt>
      <trkpt lat="44.77041" lon="0.42565">
        <ele>63.2</ele>
        <time>2025-07-14T06:48:28Z</time>
      </trkpt>
      <trkpt lat="44.7704" lon="0.42569">
        <ele>63</ele>
        <time>2025-07-14T06:48:29Z</time>
      </trkpt>
      <trkpt lat="44.7704" lon="0.42573">
        <ele>62.8</ele>
        <time>2025-07-14T06:48:30Z</time>
      </trkpt>
      <trkpt lat="44.77038" lon="0.42576">
        <ele>62.8</ele>
        <time>2025-07-14T06:48:31Z</time>
      </trkpt>
      <trkpt lat="44.77035" lon="0.4258">
        <ele>62.8</ele>
        <time>2025-07-14T06:48:32Z</time>
      </trkpt>
      <trkpt lat="44.77031" lon="0.42581">
        <ele>62.8</ele>
        <time>2025-07-14T06:48:33Z</time>
      </trkpt>
      <trkpt lat="44.77026" lon="0.4258">
        <ele>62.8</ele>
        <time>2025-07-14T06:48:34Z</time>
      </trkpt>
      <trkpt lat="44.77022" lon="0.42578">
        <ele>62.6</ele>
        <time>2025-07-14T06:48:35Z</time>
      </trkpt>
      <trkpt lat="44.77017" lon="0.42577">
        <ele>62.6</ele>
        <time>2025-07-14T06:48:36Z</time>
      </trkpt>
      <trkpt lat="44.77013" lon="0.42576">
        <ele>62.4</ele>
        <time>2025-07-14T06:48:37Z</time>
      </trkpt>
      <trkpt lat="44.77009" lon="0.42574">
        <ele>62.2</ele>
        <time>2025-07-14T06:48:38Z</time>
      </trkpt>
      <trkpt lat="44.77005" lon="0.42573">
        <ele>62.2</ele>
        <time>2025-07-14T06:48:39Z</time>
      </trkpt>
      <trkpt lat="44.77001" lon="0.42572">
        <ele>62</ele>
        <time>2025-07-14T06:48:40Z</time>
      </trkpt>
      <trkpt lat="44.76997" lon="0.42572">
        <ele>62</ele>
        <time>2025-07-14T06:48:41Z</time>
      </trkpt>
      <trkpt lat="44.76992" lon="0.42571">
        <ele>61.8</ele>
        <time>2025-07-14T06:48:42Z</time>
      </trkpt>
      <trkpt lat="44.76988" lon="0.42569">
        <ele>61.8</ele>
        <time>2025-07-14T06:48:43Z</time>
      </trkpt>
      <trkpt lat="44.76984" lon="0.42568">
        <ele>61.6</ele>
        <time>2025-07-14T06:48:44Z</time>
      </trkpt>
      <trkpt lat="44.7698" lon="0.42566">
        <ele>61.6</ele>
        <time>2025-07-14T06:48:45Z</time>
      </trkpt>
      <trkpt lat="44.76976" lon="0.42565">
        <ele>61.4</ele>
        <time>2025-07-14T06:48:46Z</time>
      </trkpt>
      <trkpt lat="44.76973" lon="0.42563">
        <ele>61.4</ele>
        <time>2025-07-14T06:48:47Z</time>
      </trkpt>
      <trkpt lat="44.76969" lon="0.42564">
        <ele>61.4</ele>
        <time>2025-07-14T06:48:48Z</time>
      </trkpt>
      <trkpt lat="44.76967" lon="0.42566">
        <ele>61.4</ele>
        <time>2025-07-14T06:48:49Z</time>
      </trkpt>
      <trkpt lat="44.76967" lon="0.42569">
        <ele>61.4</ele>
        <time>2025-07-14T06:48:50Z</time>
      </trkpt>
      <trkpt lat="44.76968" lon="0.42572">
        <ele>61.4</ele>
        <time>2025-07-14T06:48:51Z</time>
      </trkpt>
      <trkpt lat="44.76969" lon="0.42575">
        <ele>61.4</ele>
        <time>2025-07-14T06:48:52Z</time>
      </trkpt>
      <trkpt lat="44.76971" lon="0.42578">
        <ele>61.4</ele>
        <time>2025-07-14T06:48:53Z</time>
      </trkpt>
      <trkpt lat="44.76973" lon="0.42581">
        <ele>61.4</ele>
        <time>2025-07-14T06:48:54Z</time>
      </trkpt>
      <trkpt lat="44.76975" lon="0.42585">
        <ele>61.4</ele>
        <time>2025-07-14T06:48:55Z</time>
      </trkpt>
      <trkpt lat="44.76977" lon="0.4259">
        <ele>61.4</ele>
        <time>2025-07-14T06:48:56Z</time>
      </trkpt>
      <trkpt lat="44.76979" lon="0.42595">
        <ele>61.4</ele>
        <time>2025-07-14T06:48:57Z</time>
      </trkpt>
      <trkpt lat="44.76981" lon="0.42599">
        <ele>61.4</ele>
        <time>2025-07-14T06:48:58Z</time>
      </trkpt>
      <trkpt lat="44.76984" lon="0.42604">
        <ele>61.6</ele>
        <time>2025-07-14T06:48:59Z</time>
      </trkpt>
      <trkpt lat="44.76986" lon="0.42609">
        <ele>61.8</ele>
        <time>2025-07-14T06:49:00Z</time>
      </trkpt>
      <trkpt lat="44.76988" lon="0.42614">
        <ele>61.8</ele>
        <time>2025-07-14T06:49:01Z</time>
      </trkpt>
      <trkpt lat="44.76989" lon="0.42619">
        <ele>61.8</ele>
        <time>2025-07-14T06:49:02Z</time>
      </trkpt>
      <trkpt lat="44.76991" lon="0.42625">
        <ele>61.6</ele>
        <time>2025-07-14T06:49:03Z</time>
      </trkpt>
      <trkpt lat="44.76992" lon="0.42631">
        <ele>61.6</ele>
        <time>2025-07-14T06:49:04Z</time>
      </trkpt>
      <trkpt lat="44.76993" lon="0.42636">
        <ele>61.6</ele>
        <time>2025-07-14T06:49:05Z</time>
      </trkpt>
      <trkpt lat="44.76994" lon="0.42642">
        <ele>61.6</ele>
        <time>2025-07-14T06:49:06Z</time>
      </trkpt>
      <trkpt lat="44.76995" lon="0.42647">
        <ele>61.6</ele>
        <time>2025-07-14T06:49:07Z</time>
      </trkpt>
      <trkpt lat="44.76995" lon="0.42653">
        <ele>61.6</ele>
        <time>2025-07-14T06:49:08Z</time>
      </trkpt>
      <trkpt lat="44.76997" lon="0.42659">
        <ele>61.6</ele>
        <time>2025-07-14T06:49:09Z</time>
      </trkpt>
      <trkpt lat="44.76999" lon="0.42664">
        <ele>61.6</ele>
        <time>2025-07-14T06:49:10Z</time>
      </trkpt>
      <trkpt lat="44.77" lon="0.42669">
        <ele>61.4</ele>
        <time>2025-07-14T06:49:11Z</time>
      </trkpt>
      <trkpt lat="44.77001" lon="0.42675">
        <ele>61.6</ele>
        <time>2025-07-14T06:49:12Z</time>
      </trkpt>
      <trkpt lat="44.77002" lon="0.4268">
        <ele>61.6</ele>
        <time>2025-07-14T06:49:13Z</time>
      </trkpt>
      <trkpt lat="44.77001" lon="0.42686">
        <ele>61.4</ele>
        <time>2025-07-14T06:49:14Z</time>
      </trkpt>
      <trkpt lat="44.77001" lon="0.42691">
        <ele>61.4</ele>
        <time>2025-07-14T06:49:15Z</time>
      </trkpt>
      <trkpt lat="44.77" lon="0.42697">
        <ele>61.4</ele>
        <time>2025-07-14T06:49:16Z</time>
      </trkpt>
      <trkpt lat="44.76998" lon="0.42702">
        <ele>61.4</ele>
        <time>2025-07-14T06:49:17Z</time>
      </trkpt>
      <trkpt lat="44.76998" lon="0.42709">
        <ele>61.4</ele>
        <time>2025-07-14T06:49:18Z</time>
      </trkpt>
      <trkpt lat="44.76997" lon="0.42715">
        <ele>61.4</ele>
        <time>2025-07-14T06:49:19Z</time>
      </trkpt>
      <trkpt lat="44.76996" lon="0.4272">
        <ele>61.4</ele>
        <time>2025-07-14T06:49:20Z</time>
      </trkpt>
      <trkpt lat="44.76995" lon="0.42725">
        <ele>61.4</ele>
        <time>2025-07-14T06:49:21Z</time>
      </trkpt>
      <trkpt lat="44.76993" lon="0.4273">
        <ele>61.4</ele>
        <time>2025-07-14T06:49:22Z</time>
      </trkpt>
      <trkpt lat="44.76991" lon="0.42734">
        <ele>61.4</ele>
        <time>2025-07-14T06:49:23Z</time>
      </trkpt>
      <trkpt lat="44.76989" lon="0.42739">
        <ele>61.4</ele>
        <time>2025-07-14T06:49:24Z</time>
      </trkpt>
      <trkpt lat="44.76988" lon="0.42744">
        <ele>61.6</ele>
        <time>2025-07-14T06:49:25Z</time>
      </trkpt>
      <trkpt lat="44.76986" lon="0.42749">
        <ele>61.4</ele>
        <time>2025-07-14T06:49:26Z</time>
      </trkpt>
      <trkpt lat="44.76985" lon="0.42754">
        <ele>61.6</ele>
        <time>2025-07-14T06:49:27Z</time>
      </trkpt>
      <trkpt lat="44.76984" lon="0.42759">
        <ele>61.6</ele>
        <time>2025-07-14T06:49:28Z</time>
      </trkpt>
      <trkpt lat="44.76983" lon="0.42765">
        <ele>61.6</ele>
        <time>2025-07-14T06:49:29Z</time>
      </trkpt>
      <trkpt lat="44.76984" lon="0.4277">
        <ele>61.6</ele>
        <time>2025-07-14T06:49:30Z</time>
      </trkpt>
      <trkpt lat="44.76983" lon="0.42776">
        <ele>61.6</ele>
        <time>2025-07-14T06:49:31Z</time>
      </trkpt>
      <trkpt lat="44.76982" lon="0.42781">
        <ele>61.6</ele>
        <time>2025-07-14T06:49:32Z</time>
      </trkpt>
      <trkpt lat="44.7698" lon="0.42786">
        <ele>61.8</ele>
        <time>2025-07-14T06:49:33Z</time>
      </trkpt>
      <trkpt lat="44.76977" lon="0.4279">
        <ele>61.8</ele>
        <time>2025-07-14T06:49:34Z</time>
      </trkpt>
      <trkpt lat="44.76974" lon="0.42793">
        <ele>62</ele>
        <time>2025-07-14T06:49:35Z</time>
      </trkpt>
      <trkpt lat="44.76971" lon="0.42796">
        <ele>62</ele>
        <time>2025-07-14T06:49:36Z</time>
      </trkpt>
      <trkpt lat="44.76968" lon="0.428">
        <ele>62</ele>
        <time>2025-07-14T06:49:37Z</time>
      </trkpt>
      <trkpt lat="44.76967" lon="0.42806">
        <ele>61.8</ele>
        <time>2025-07-14T06:49:38Z</time>
      </trkpt>
      <trkpt lat="44.76965" lon="0.42812">
        <ele>61.8</ele>
        <time>2025-07-14T06:49:39Z</time>
      </trkpt>
      <trkpt lat="44.76963" lon="0.42817">
        <ele>61.6</ele>
        <time>2025-07-14T06:49:40Z</time>
      </trkpt>
      <trkpt lat="44.76961" lon="0.42822">
        <ele>61.6</ele>
        <time>2025-07-14T06:49:41Z</time>
      </trkpt>
      <trkpt lat="44.76958" lon="0.42827">
        <ele>61.6</ele>
        <time>2025-07-14T06:49:42Z</time>
      </trkpt>
      <trkpt lat="44.76956" lon="0.42831">
        <ele>61.6</ele>
        <time>2025-07-14T06:49:43Z</time>
      </trkpt>
      <trkpt lat="44.76954" lon="0.42835">
        <ele>61.6</ele>
        <time>2025-07-14T06:49:44Z</time>
      </trkpt>
      <trkpt lat="44.76951" lon="0.42838">
        <ele>61.8</ele>
        <time>2025-07-14T06:49:45Z</time>
      </trkpt>
      <trkpt lat="44.76949" lon="0.42842">
        <ele>61.8</ele>
        <time>2025-07-14T06:49:46Z</time>
      </trkpt>
      <trkpt lat="44.76949" lon="0.42847">
        <ele>61.8</ele>
        <time>2025-07-14T06:49:47Z</time>
      </trkpt>
      <trkpt lat="44.76948" lon="0.42854">
        <ele>61.8</ele>
        <time>2025-07-14T06:49:48Z</time>
      </trkpt>
      <trkpt lat="44.76947" lon="0.42859">
        <ele>61.8</ele>
        <time>2025-07-14T06:49:49Z</time>
      </trkpt>
      <trkpt lat="44.76946" lon="0.42865">
        <ele>62</ele>
        <time>2025-07-14T06:49:50Z</time>
      </trkpt>
      <trkpt lat="44.76944" lon="0.4287">
        <ele>62</ele>
        <time>2025-07-14T06:49:51Z</time>
      </trkpt>
      <trkpt lat="44.76943" lon="0.42875">
        <ele>62.2</ele>
        <time>2025-07-14T06:49:52Z</time>
      </trkpt>
      <trkpt lat="44.7694" lon="0.42879">
        <ele>62.2</ele>
        <time>2025-07-14T06:49:53Z</time>
      </trkpt>
      <trkpt lat="44.76938" lon="0.42882">
        <ele>62.4</ele>
        <time>2025-07-14T06:49:54Z</time>
      </trkpt>
      <trkpt lat="44.76934" lon="0.42885">
        <ele>62.4</ele>
        <time>2025-07-14T06:49:55Z</time>
      </trkpt>
      <trkpt lat="44.76931" lon="0.42889">
        <ele>62.4</ele>
        <time>2025-07-14T06:49:56Z</time>
      </trkpt>
      <trkpt lat="44.76928" lon="0.42892">
        <ele>62.4</ele>
        <time>2025-07-14T06:49:57Z</time>
      </trkpt>
      <trkpt lat="44.76925" lon="0.42895">
        <ele>62.4</ele>
        <time>2025-07-14T06:49:58Z</time>
      </trkpt>
      <trkpt lat="44.76922" lon="0.42897">
        <ele>62.4</ele>
        <time>2025-07-14T06:49:59Z</time>
      </trkpt>
      <trkpt lat="44.7692" lon="0.42899">
        <ele>62.4</ele>
        <time>2025-07-14T06:50:00Z</time>
      </trkpt>
      <trkpt lat="44.76917" lon="0.42899">
        <ele>62.4</ele>
        <time>2025-07-14T06:50:01Z</time>
      </trkpt>
      <trkpt lat="44.76916" lon="0.42898">
        <ele>62.6</ele>
        <time>2025-07-14T06:50:02Z</time>
      </trkpt>
      <trkpt lat="44.76915" lon="0.42897">
        <ele>62.6</ele>
        <time>2025-07-14T06:50:03Z</time>
      </trkpt>
      <trkpt lat="44.76913" lon="0.42895">
        <ele>62.8</ele>
        <time>2025-07-14T06:50:04Z</time>
      </trkpt>
      <trkpt lat="44.76911" lon="0.42893">
        <ele>62.8</ele>
        <time>2025-07-14T06:50:05Z</time>
      </trkpt>
      <trkpt lat="44.76908" lon="0.42893">
        <ele>62.8</ele>
        <time>2025-07-14T06:50:06Z</time>
      </trkpt>
      <trkpt lat="44.76906" lon="0.42894">
        <ele>62.6</ele>
        <time>2025-07-14T06:50:07Z</time>
      </trkpt>
      <trkpt lat="44.76903" lon="0.42896">
        <ele>62.4</ele>
        <time>2025-07-14T06:50:08Z</time>
      </trkpt>
      <trkpt lat="44.769" lon="0.42898">
        <ele>62.4</ele>
        <time>2025-07-14T06:50:09Z</time>
      </trkpt>
      <trkpt lat="44.76898" lon="0.429">
        <ele>62.2</ele>
        <time>2025-07-14T06:50:10Z</time>
      </trkpt>
      <trkpt lat="44.76895" lon="0.42903">
        <ele>62.4</ele>
        <time>2025-07-14T06:50:11Z</time>
      </trkpt>
      <trkpt lat="44.76891" lon="0.42905">
        <ele>62.4</ele>
        <time>2025-07-14T06:50:12Z</time>
      </trkpt>
      <trkpt lat="44.76887" lon="0.42906">
        <ele>62.4</ele>
        <time>2025-07-14T06:50:13Z</time>
      </trkpt>
      <trkpt lat="44.76883" lon="0.42907">
        <ele>62.4</ele>
        <time>2025-07-14T06:50:14Z</time>
      </trkpt>
      <trkpt lat="44.76879" lon="0.42907">
        <ele>62.4</ele>
        <time>2025-07-14T06:50:15Z</time>
      </trkpt>
      <trkpt lat="44.76874" lon="0.42906">
        <ele>62.4</ele>
        <time>2025-07-14T06:50:16Z</time>
      </trkpt>
      <trkpt lat="44.7687" lon="0.42907">
        <ele>62.4</ele>
        <time>2025-07-14T06:50:17Z</time>
      </trkpt>
      <trkpt lat="44.76867" lon="0.4291">
        <ele>62.4</ele>
        <time>2025-07-14T06:50:18Z</time>
      </trkpt>
      <trkpt lat="44.76865" lon="0.42914">
        <ele>62.4</ele>
        <time>2025-07-14T06:50:19Z</time>
      </trkpt>
      <trkpt lat="44.76863" lon="0.42919">
        <ele>62.4</ele>
        <time>2025-07-14T06:50:20Z</time>
      </trkpt>
      <trkpt lat="44.76861" lon="0.42924">
        <ele>62.4</ele>
        <time>2025-07-14T06:50:21Z</time>
      </trkpt>
      <trkpt lat="44.76859" lon="0.4293">
        <ele>62.4</ele>
        <time>2025-07-14T06:50:22Z</time>
      </trkpt>
      <trkpt lat="44.76857" lon="0.42935">
        <ele>62.4</ele>
        <time>2025-07-14T06:50:23Z</time>
      </trkpt>
      <trkpt lat="44.76856" lon="0.4294">
        <ele>62.4</ele>
        <time>2025-07-14T06:50:24Z</time>
      </trkpt>
      <trkpt lat="44.76856" lon="0.42944">
        <ele>62.6</ele>
        <time>2025-07-14T06:50:25Z</time>
      </trkpt>
      <trkpt lat="44.76856" lon="0.42949">
        <ele>62.8</ele>
        <time>2025-07-14T06:50:26Z</time>
      </trkpt>
      <trkpt lat="44.76856" lon="0.42954">
        <ele>63</ele>
        <time>2025-07-14T06:50:27Z</time>
      </trkpt>
      <trkpt lat="44.76855" lon="0.4296">
        <ele>63.4</ele>
        <time>2025-07-14T06:50:28Z</time>
      </trkpt>
      <trkpt lat="44.76854" lon="0.42965">
        <ele>63.4</ele>
        <time>2025-07-14T06:50:29Z</time>
      </trkpt>
      <trkpt lat="44.76853" lon="0.42971">
        <ele>63.6</ele>
        <time>2025-07-14T06:50:30Z</time>
      </trkpt>
      <trkpt lat="44.76852" lon="0.42976">
        <ele>63.8</ele>
        <time>2025-07-14T06:50:31Z</time>
      </trkpt>
      <trkpt lat="44.76852" lon="0.42982">
        <ele>64</ele>
        <time>2025-07-14T06:50:32Z</time>
      </trkpt>
      <trkpt lat="44.76851" lon="0.42987">
        <ele>64</ele>
        <time>2025-07-14T06:50:33Z</time>
      </trkpt>
      <trkpt lat="44.7685" lon="0.42992">
        <ele>64.2</ele>
        <time>2025-07-14T06:50:34Z</time>
      </trkpt>
      <trkpt lat="44.76848" lon="0.42997">
        <ele>64.2</ele>
        <time>2025-07-14T06:50:35Z</time>
      </trkpt>
      <trkpt lat="44.76847" lon="0.43003">
        <ele>64.2</ele>
        <time>2025-07-14T06:50:36Z</time>
      </trkpt>
      <trkpt lat="44.76846" lon="0.43009">
        <ele>64.4</ele>
        <time>2025-07-14T06:50:37Z</time>
      </trkpt>
      <trkpt lat="44.76845" lon="0.43016">
        <ele>64.4</ele>
        <time>2025-07-14T06:50:38Z</time>
      </trkpt>
      <trkpt lat="44.76845" lon="0.43022">
        <ele>64.4</ele>
        <time>2025-07-14T06:50:39Z</time>
      </trkpt>
      <trkpt lat="44.76844" lon="0.43028">
        <ele>64.4</ele>
        <time>2025-07-14T06:50:40Z</time>
      </trkpt>
      <trkpt lat="44.76842" lon="0.43035">
        <ele>64.4</ele>
        <time>2025-07-14T06:50:41Z</time>
      </trkpt>
      <trkpt lat="44.76841" lon="0.4304">
        <ele>64.2</ele>
        <time>2025-07-14T06:50:42Z</time>
      </trkpt>
      <trkpt lat="44.7684" lon="0.43046">
        <ele>64.2</ele>
        <time>2025-07-14T06:50:43Z</time>
      </trkpt>
      <trkpt lat="44.76839" lon="0.43052">
        <ele>64.2</ele>
        <time>2025-07-14T06:50:44Z</time>
      </trkpt>
      <trkpt lat="44.76839" lon="0.43058">
        <ele>64.2</ele>
        <time>2025-07-14T06:50:45Z</time>
      </trkpt>
      <trkpt lat="44.76838" lon="0.43064">
        <ele>64.2</ele>
        <time>2025-07-14T06:50:46Z</time>
      </trkpt>
      <trkpt lat="44.76838" lon="0.43071">
        <ele>64</ele>
        <time>2025-07-14T06:50:47Z</time>
      </trkpt>
      <trkpt lat="44.76837" lon="0.43078">
        <ele>64</ele>
        <time>2025-07-14T06:50:48Z</time>
      </trkpt>
      <trkpt lat="44.76836" lon="0.43085">
        <ele>64</ele>
        <time>2025-07-14T06:50:49Z</time>
      </trkpt>
      <trkpt lat="44.76835" lon="0.43091">
        <ele>63.8</ele>
        <time>2025-07-14T06:50:50Z</time>
      </trkpt>
      <trkpt lat="44.76834" lon="0.43098">
        <ele>64</ele>
        <time>2025-07-14T06:50:51Z</time>
      </trkpt>
      <trkpt lat="44.76833" lon="0.43103">
        <ele>63.8</ele>
        <time>2025-07-14T06:50:52Z</time>
      </trkpt>
      <trkpt lat="44.76832" lon="0.43109">
        <ele>63.8</ele>
        <time>2025-07-14T06:50:53Z</time>
      </trkpt>
      <trkpt lat="44.76831" lon="0.43114">
        <ele>63.8</ele>
        <time>2025-07-14T06:50:54Z</time>
      </trkpt>
      <trkpt lat="44.76829" lon="0.43119">
        <ele>64</ele>
        <time>2025-07-14T06:50:55Z</time>
      </trkpt>
      <trkpt lat="44.76827" lon="0.43124">
        <ele>63.8</ele>
        <time>2025-07-14T06:50:56Z</time>
      </trkpt>
      <trkpt lat="44.76825" lon="0.43128">
        <ele>64</ele>
        <time>2025-07-14T06:50:57Z</time>
      </trkpt>
      <trkpt lat="44.76824" lon="0.43133">
        <ele>64.2</ele>
        <time>2025-07-14T06:50:58Z</time>
      </trkpt>
      <trkpt lat="44.76823" lon="0.43138">
        <ele>64.2</ele>
        <time>2025-07-14T06:50:59Z</time>
      </trkpt>
      <trkpt lat="44.76821" lon="0.43144">
        <ele>64.2</ele>
        <time>2025-07-14T06:51:00Z</time>
      </trkpt>
      <trkpt lat="44.76819" lon="0.43148">
        <ele>64.2</ele>
        <time>2025-07-14T06:51:01Z</time>
      </trkpt>
      <trkpt lat="44.76817" lon="0.43153">
        <ele>64.2</ele>
        <time>2025-07-14T06:51:02Z</time>
      </trkpt>
      <trkpt lat="44.76815" lon="0.43157">
        <ele>64.2</ele>
        <time>2025-07-14T06:51:03Z</time>
      </trkpt>
      <trkpt lat="44.76813" lon="0.43162">
        <ele>64.2</ele>
        <time>2025-07-14T06:51:04Z</time>
      </trkpt>
      <trkpt lat="44.76811" lon="0.43167">
        <ele>64.2</ele>
        <time>2025-07-14T06:51:05Z</time>
      </trkpt>
      <trkpt lat="44.76809" lon="0.43172">
        <ele>64.4</ele>
        <time>2025-07-14T06:51:06Z</time>
      </trkpt>
      <trkpt lat="44.76807" lon="0.43177">
        <ele>64.4</ele>
        <time>2025-07-14T06:51:07Z</time>
      </trkpt>
      <trkpt lat="44.76805" lon="0.43183">
        <ele>64.4</ele>
        <time>2025-07-14T06:51:08Z</time>
      </trkpt>
      <trkpt lat="44.76803" lon="0.43188">
        <ele>64.4</ele>
        <time>2025-07-14T06:51:09Z</time>
      </trkpt>
      <trkpt lat="44.76802" lon="0.43193">
        <ele>64.6</ele>
        <time>2025-07-14T06:51:10Z</time>
      </trkpt>
      <trkpt lat="44.768" lon="0.43199">
        <ele>64.6</ele>
        <time>2025-07-14T06:51:11Z</time>
      </trkpt>
      <trkpt lat="44.76798" lon="0.43204">
        <ele>64.6</ele>
        <time>2025-07-14T06:51:12Z</time>
      </trkpt>
      <trkpt lat="44.76796" lon="0.43209">
        <ele>64.6</ele>
        <time>2025-07-14T06:51:13Z</time>
      </trkpt>
      <trkpt lat="44.76794" lon="0.43214">
        <ele>64.6</ele>
        <time>2025-07-14T06:51:14Z</time>
      </trkpt>
      <trkpt lat="44.76792" lon="0.43219">
        <ele>64.6</ele>
        <time>2025-07-14T06:51:15Z</time>
      </trkpt>
      <trkpt lat="44.76791" lon="0.43224">
        <ele>64.6</ele>
        <time>2025-07-14T06:51:16Z</time>
      </trkpt>
      <trkpt lat="44.76788" lon="0.4323">
        <ele>64.8</ele>
        <time>2025-07-14T06:51:17Z</time>
      </trkpt>
      <trkpt lat="44.76786" lon="0.43236">
        <ele>64.8</ele>
        <time>2025-07-14T06:51:18Z</time>
      </trkpt>
      <trkpt lat="44.76784" lon="0.43242">
        <ele>64.6</ele>
        <time>2025-07-14T06:51:19Z</time>
      </trkpt>
      <trkpt lat="44.76782" lon="0.43248">
        <ele>64.8</ele>
        <time>2025-07-14T06:51:20Z</time>
      </trkpt>
      <trkpt lat="44.7678" lon="0.43255">
        <ele>64.6</ele>
        <time>2025-07-14T06:51:21Z</time>
      </trkpt>
      <trkpt lat="44.76778" lon="0.4326">
        <ele>64.4</ele>
        <time>2025-07-14T06:51:22Z</time>
      </trkpt>
      <trkpt lat="44.76774" lon="0.43265">
        <ele>64.4</ele>
        <time>2025-07-14T06:51:23Z</time>
      </trkpt>
      <trkpt lat="44.76771" lon="0.43269">
        <ele>64.4</ele>
        <time>2025-07-14T06:51:24Z</time>
      </trkpt>
      <trkpt lat="44.76767" lon="0.43273">
        <ele>64.2</ele>
        <time>2025-07-14T06:51:25Z</time>
      </trkpt>
      <trkpt lat="44.76763" lon="0.43278">
        <ele>64.2</ele>
        <time>2025-07-14T06:51:26Z</time>
      </trkpt>
      <trkpt lat="44.7676" lon="0.43282">
        <ele>64.2</ele>
        <time>2025-07-14T06:51:27Z</time>
      </trkpt>
      <trkpt lat="44.76758" lon="0.43288">
        <ele>64.2</ele>
        <time>2025-07-14T06:51:28Z</time>
      </trkpt>
      <trkpt lat="44.76757" lon="0.43294">
        <ele>64.4</ele>
        <time>2025-07-14T06:51:29Z</time>
      </trkpt>
      <trkpt lat="44.76756" lon="0.433">
        <ele>64.4</ele>
        <time>2025-07-14T06:51:30Z</time>
      </trkpt>
      <trkpt lat="44.76755" lon="0.43306">
        <ele>64.4</ele>
        <time>2025-07-14T06:51:31Z</time>
      </trkpt>
      <trkpt lat="44.76755" lon="0.43312">
        <ele>64.4</ele>
        <time>2025-07-14T06:51:32Z</time>
      </trkpt>
      <trkpt lat="44.76752" lon="0.43318">
        <ele>64.2</ele>
        <time>2025-07-14T06:51:33Z</time>
      </trkpt>
      <trkpt lat="44.7675" lon="0.43323">
        <ele>64.2</ele>
        <time>2025-07-14T06:51:34Z</time>
      </trkpt>
      <trkpt lat="44.76746" lon="0.43327">
        <ele>64.2</ele>
        <time>2025-07-14T06:51:35Z</time>
      </trkpt>
      <trkpt lat="44.76742" lon="0.43331">
        <ele>64.4</ele>
        <time>2025-07-14T06:51:36Z</time>
      </trkpt>
      <trkpt lat="44.76739" lon="0.43334">
        <ele>64.4</ele>
        <time>2025-07-14T06:51:37Z</time>
      </trkpt>
      <trkpt lat="44.76736" lon="0.43338">
        <ele>64.4</ele>
        <time>2025-07-14T06:51:38Z</time>
      </trkpt>
      <trkpt lat="44.76734" lon="0.43343">
        <ele>64.4</ele>
        <time>2025-07-14T06:51:39Z</time>
      </trkpt>
      <trkpt lat="44.76733" lon="0.43348">
        <ele>64.4</ele>
        <time>2025-07-14T06:51:40Z</time>
      </trkpt>
      <trkpt lat="44.76732" lon="0.43355">
        <ele>64.4</ele>
        <time>2025-07-14T06:51:41Z</time>
      </trkpt>
      <trkpt lat="44.76731" lon="0.43361">
        <ele>64.4</ele>
        <time>2025-07-14T06:51:42Z</time>
      </trkpt>
      <trkpt lat="44.7673" lon="0.43367">
        <ele>64.4</ele>
        <time>2025-07-14T06:51:43Z</time>
      </trkpt>
      <trkpt lat="44.76729" lon="0.43372">
        <ele>64.4</ele>
        <time>2025-07-14T06:51:44Z</time>
      </trkpt>
      <trkpt lat="44.76728" lon="0.43378">
        <ele>64.4</ele>
        <time>2025-07-14T06:51:45Z</time>
      </trkpt>
      <trkpt lat="44.76728" lon="0.43383">
        <ele>64.4</ele>
        <time>2025-07-14T06:51:46Z</time>
      </trkpt>
      <trkpt lat="44.76726" lon="0.43389">
        <ele>64.4</ele>
        <time>2025-07-14T06:51:47Z</time>
      </trkpt>
      <trkpt lat="44.76724" lon="0.43395">
        <ele>64.6</ele>
        <time>2025-07-14T06:51:48Z</time>
      </trkpt>
      <trkpt lat="44.76723" lon="0.434">
        <ele>64.6</ele>
        <time>2025-07-14T06:51:49Z</time>
      </trkpt>
      <trkpt lat="44.7672" lon="0.43405">
        <ele>64.6</ele>
        <time>2025-07-14T06:51:50Z</time>
      </trkpt>
      <trkpt lat="44.76717" lon="0.4341">
        <ele>64.8</ele>
        <time>2025-07-14T06:51:51Z</time>
      </trkpt>
      <trkpt lat="44.76713" lon="0.43414">
        <ele>64.8</ele>
        <time>2025-07-14T06:51:52Z</time>
      </trkpt>
      <trkpt lat="44.7671" lon="0.43418">
        <ele>64.8</ele>
        <time>2025-07-14T06:51:53Z</time>
      </trkpt>
      <trkpt lat="44.76707" lon="0.43421">
        <ele>64.8</ele>
        <time>2025-07-14T06:51:54Z</time>
      </trkpt>
      <trkpt lat="44.76704" lon="0.43425">
        <ele>64.8</ele>
        <time>2025-07-14T06:51:55Z</time>
      </trkpt>
      <trkpt lat="44.76701" lon="0.43429">
        <ele>65</ele>
        <time>2025-07-14T06:51:56Z</time>
      </trkpt>
      <trkpt lat="44.76698" lon="0.43432">
        <ele>65</ele>
        <time>2025-07-14T06:51:57Z</time>
      </trkpt>
      <trkpt lat="44.76695" lon="0.43435">
        <ele>65</ele>
        <time>2025-07-14T06:51:58Z</time>
      </trkpt>
      <trkpt lat="44.76692" lon="0.43438">
        <ele>65.2</ele>
        <time>2025-07-14T06:51:59Z</time>
      </trkpt>
      <trkpt lat="44.7669" lon="0.43443">
        <ele>65.2</ele>
        <time>2025-07-14T06:52:00Z</time>
      </trkpt>
      <trkpt lat="44.76687" lon="0.43449">
        <ele>65.2</ele>
        <time>2025-07-14T06:52:01Z</time>
      </trkpt>
      <trkpt lat="44.76685" lon="0.43455">
        <ele>65.2</ele>
        <time>2025-07-14T06:52:02Z</time>
      </trkpt>
      <trkpt lat="44.76681" lon="0.4346">
        <ele>65.2</ele>
        <time>2025-07-14T06:52:03Z</time>
      </trkpt>
      <trkpt lat="44.76678" lon="0.43464">
        <ele>65</ele>
        <time>2025-07-14T06:52:04Z</time>
      </trkpt>
      <trkpt lat="44.76675" lon="0.43468">
        <ele>65</ele>
        <time>2025-07-14T06:52:05Z</time>
      </trkpt>
      <trkpt lat="44.76673" lon="0.43473">
        <ele>65</ele>
        <time>2025-07-14T06:52:06Z</time>
      </trkpt>
      <trkpt lat="44.76674" lon="0.43478">
        <ele>65</ele>
        <time>2025-07-14T06:52:07Z</time>
      </trkpt>
      <trkpt lat="44.76674" lon="0.43482">
        <ele>65.2</ele>
        <time>2025-07-14T06:52:08Z</time>
      </trkpt>
      <trkpt lat="44.76675" lon="0.43486">
        <ele>65.2</ele>
        <time>2025-07-14T06:52:09Z</time>
      </trkpt>
      <trkpt lat="44.76676" lon="0.4349">
        <ele>65.6</ele>
        <time>2025-07-14T06:52:10Z</time>
      </trkpt>
      <trkpt lat="44.76676" lon="0.43494">
        <ele>65.8</ele>
        <time>2025-07-14T06:52:11Z</time>
      </trkpt>
      <trkpt lat="44.76677" lon="0.43498">
        <ele>66</ele>
        <time>2025-07-14T06:52:12Z</time>
      </trkpt>
      <trkpt lat="44.76677" lon="0.43502">
        <ele>66.2</ele>
        <time>2025-07-14T06:52:13Z</time>
      </trkpt>
      <trkpt lat="44.76677" lon="0.43506">
        <ele>66.4</ele>
        <time>2025-07-14T06:52:14Z</time>
      </trkpt>
      <trkpt lat="44.76677" lon="0.43511">
        <ele>66.6</ele>
        <time>2025-07-14T06:52:15Z</time>
      </trkpt>
      <trkpt lat="44.76678" lon="0.43515">
        <ele>66.8</ele>
        <time>2025-07-14T06:52:16Z</time>
      </trkpt>
      <trkpt lat="44.76677" lon="0.43519">
        <ele>67</ele>
        <time>2025-07-14T06:52:17Z</time>
      </trkpt>
      <trkpt lat="44.76677" lon="0.43524">
        <ele>67.2</ele>
        <time>2025-07-14T06:52:18Z</time>
      </trkpt>
      <trkpt lat="44.76676" lon="0.43529">
        <ele>67.2</ele>
        <time>2025-07-14T06:52:19Z</time>
      </trkpt>
      <trkpt lat="44.76676" lon="0.43534">
        <ele>67.4</ele>
        <time>2025-07-14T06:52:20Z</time>
      </trkpt>
      <trkpt lat="44.76676" lon="0.43539">
        <ele>67.4</ele>
        <time>2025-07-14T06:52:21Z</time>
      </trkpt>
      <trkpt lat="44.76676" lon="0.43545">
        <ele>67.4</ele>
        <time>2025-07-14T06:52:22Z</time>
      </trkpt>
      <trkpt lat="44.76676" lon="0.43551">
        <ele>67.4</ele>
        <time>2025-07-14T06:52:23Z</time>
      </trkpt>
      <trkpt lat="44.76677" lon="0.43556">
        <ele>67.4</ele>
        <time>2025-07-14T06:52:24Z</time>
      </trkpt>
      <trkpt lat="44.76678" lon="0.43562">
        <ele>67.4</ele>
        <time>2025-07-14T06:52:25Z</time>
      </trkpt>
      <trkpt lat="44.76678" lon="0.43568">
        <ele>67.2</ele>
        <time>2025-07-14T06:52:26Z</time>
      </trkpt>
      <trkpt lat="44.76679" lon="0.43574">
        <ele>67.2</ele>
        <time>2025-07-14T06:52:27Z</time>
      </trkpt>
      <trkpt lat="44.76679" lon="0.43579">
        <ele>67.2</ele>
        <time>2025-07-14T06:52:28Z</time>
      </trkpt>
      <trkpt lat="44.7668" lon="0.43585">
        <ele>67.2</ele>
        <time>2025-07-14T06:52:29Z</time>
      </trkpt>
      <trkpt lat="44.7668" lon="0.43591">
        <ele>67.2</ele>
        <time>2025-07-14T06:52:30Z</time>
      </trkpt>
      <trkpt lat="44.76681" lon="0.43596">
        <ele>67.2</ele>
        <time>2025-07-14T06:52:31Z</time>
      </trkpt>
      <trkpt lat="44.76681" lon="0.43601">
        <ele>67.2</ele>
        <time>2025-07-14T06:52:32Z</time>
      </trkpt>
      <trkpt lat="44.76682" lon="0.43607">
        <ele>67.4</ele>
        <time>2025-07-14T06:52:33Z</time>
      </trkpt>
      <trkpt lat="44.76682" lon="0.43613">
        <ele>67.4</ele>
        <time>2025-07-14T06:52:34Z</time>
      </trkpt>
      <trkpt lat="44.76683" lon="0.43618">
        <ele>67.4</ele>
        <time>2025-07-14T06:52:35Z</time>
      </trkpt>
      <trkpt lat="44.76684" lon="0.43624">
        <ele>67.4</ele>
        <time>2025-07-14T06:52:36Z</time>
      </trkpt>
      <trkpt lat="44.76684" lon="0.4363">
        <ele>67.4</ele>
        <time>2025-07-14T06:52:37Z</time>
      </trkpt>
      <trkpt lat="44.76685" lon="0.43635">
        <ele>67.4</ele>
        <time>2025-07-14T06:52:38Z</time>
      </trkpt>
      <trkpt lat="44.76686" lon="0.4364">
        <ele>67.4</ele>
        <time>2025-07-14T06:52:39Z</time>
      </trkpt>
      <trkpt lat="44.76688" lon="0.43644">
        <ele>67.4</ele>
        <time>2025-07-14T06:52:40Z</time>
      </trkpt>
      <trkpt lat="44.76689" lon="0.43649">
        <ele>67.4</ele>
        <time>2025-07-14T06:52:41Z</time>
      </trkpt>
      <trkpt lat="44.7669" lon="0.43654">
        <ele>67.6</ele>
        <time>2025-07-14T06:52:42Z</time>
      </trkpt>
      <trkpt lat="44.76692" lon="0.43659">
        <ele>67.6</ele>
        <time>2025-07-14T06:52:43Z</time>
      </trkpt>
      <trkpt lat="44.76693" lon="0.43665">
        <ele>67.6</ele>
        <time>2025-07-14T06:52:44Z</time>
      </trkpt>
      <trkpt lat="44.76694" lon="0.43671">
        <ele>67.8</ele>
        <time>2025-07-14T06:52:45Z</time>
      </trkpt>
      <trkpt lat="44.76695" lon="0.43677">
        <ele>67.8</ele>
        <time>2025-07-14T06:52:46Z</time>
      </trkpt>
      <trkpt lat="44.76695" lon="0.43683">
        <ele>67.8</ele>
        <time>2025-07-14T06:52:47Z</time>
      </trkpt>
      <trkpt lat="44.76695" lon="0.43688">
        <ele>67.8</ele>
        <time>2025-07-14T06:52:48Z</time>
      </trkpt>
      <trkpt lat="44.76694" lon="0.43693">
        <ele>68</ele>
        <time>2025-07-14T06:52:49Z</time>
      </trkpt>
      <trkpt lat="44.76694" lon="0.43698">
        <ele>68</ele>
        <time>2025-07-14T06:52:50Z</time>
      </trkpt>
      <trkpt lat="44.76693" lon="0.43703">
        <ele>68.2</ele>
        <time>2025-07-14T06:52:51Z</time>
      </trkpt>
      <trkpt lat="44.76693" lon="0.43708">
        <ele>68.2</ele>
        <time>2025-07-14T06:52:52Z</time>
      </trkpt>
      <trkpt lat="44.76692" lon="0.43713">
        <ele>68.4</ele>
        <time>2025-07-14T06:52:53Z</time>
      </trkpt>
      <trkpt lat="44.76691" lon="0.43718">
        <ele>68.4</ele>
        <time>2025-07-14T06:52:54Z</time>
      </trkpt>
      <trkpt lat="44.7669" lon="0.43723">
        <ele>68.6</ele>
        <time>2025-07-14T06:52:55Z</time>
      </trkpt>
      <trkpt lat="44.76689" lon="0.43728">
        <ele>68.8</ele>
        <time>2025-07-14T06:52:56Z</time>
      </trkpt>
      <trkpt lat="44.76689" lon="0.43733">
        <ele>69</ele>
        <time>2025-07-14T06:52:57Z</time>
      </trkpt>
      <trkpt lat="44.76687" lon="0.43737">
        <ele>69.2</ele>
        <time>2025-07-14T06:52:58Z</time>
      </trkpt>
      <trkpt lat="44.76687" lon="0.43741">
        <ele>69.4</ele>
        <time>2025-07-14T06:52:59Z</time>
      </trkpt>
      <trkpt lat="44.76686" lon="0.43746">
        <ele>69.8</ele>
        <time>2025-07-14T06:53:00Z</time>
      </trkpt>
      <trkpt lat="44.76685" lon="0.4375">
        <ele>70</ele>
        <time>2025-07-14T06:53:01Z</time>
      </trkpt>
      <trkpt lat="44.76684" lon="0.43755">
        <ele>70.4</ele>
        <time>2025-07-14T06:53:02Z</time>
      </trkpt>
      <trkpt lat="44.76683" lon="0.43759">
        <ele>70.6</ele>
        <time>2025-07-14T06:53:03Z</time>
      </trkpt>
      <trkpt lat="44.76682" lon="0.43762">
        <ele>70.8</ele>
        <time>2025-07-14T06:53:04Z</time>
      </trkpt>
      <trkpt lat="44.76681" lon="0.43767">
        <ele>71</ele>
        <time>2025-07-14T06:53:05Z</time>
      </trkpt>
      <trkpt lat="44.76681" lon="0.43771">
        <ele>71.2</ele>
        <time>2025-07-14T06:53:06Z</time>
      </trkpt>
      <trkpt lat="44.76681" lon="0.43775">
        <ele>71.4</ele>
        <time>2025-07-14T06:53:07Z</time>
      </trkpt>
      <trkpt lat="44.7668" lon="0.43778">
        <ele>71.6</ele>
        <time>2025-07-14T06:53:08Z</time>
      </trkpt>
      <trkpt lat="44.7668" lon="0.43782">
        <ele>71.8</ele>
        <time>2025-07-14T06:53:09Z</time>
      </trkpt>
      <trkpt lat="44.7668" lon="0.43786">
        <ele>72</ele>
        <time>2025-07-14T06:53:10Z</time>
      </trkpt>
      <trkpt lat="44.76679" lon="0.4379">
        <ele>72.2</ele>
        <time>2025-07-14T06:53:11Z</time>
      </trkpt>
      <trkpt lat="44.76677" lon="0.43795">
        <ele>72.2</ele>
        <time>2025-07-14T06:53:12Z</time>
      </trkpt>
      <trkpt lat="44.76676" lon="0.43799">
        <ele>72.4</ele>
        <time>2025-07-14T06:53:13Z</time>
      </trkpt>
      <trkpt lat="44.76674" lon="0.43804">
        <ele>72.6</ele>
        <time>2025-07-14T06:53:14Z</time>
      </trkpt>
      <trkpt lat="44.76674" lon="0.43808">
        <ele>72.8</ele>
        <time>2025-07-14T06:53:15Z</time>
      </trkpt>
      <trkpt lat="44.76673" lon="0.43812">
        <ele>73</ele>
        <time>2025-07-14T06:53:16Z</time>
      </trkpt>
      <trkpt lat="44.76672" lon="0.43816">
        <ele>73.2</ele>
        <time>2025-07-14T06:53:17Z</time>
      </trkpt>
      <trkpt lat="44.76672" lon="0.43819">
        <ele>73.4</ele>
        <time>2025-07-14T06:53:18Z</time>
      </trkpt>
      <trkpt lat="44.76671" lon="0.43823">
        <ele>73.6</ele>
        <time>2025-07-14T06:53:19Z</time>
      </trkpt>
      <trkpt lat="44.7667" lon="0.43826">
        <ele>73.8</ele>
        <time>2025-07-14T06:53:20Z</time>
      </trkpt>
      <trkpt lat="44.76669" lon="0.4383">
        <ele>74.2</ele>
        <time>2025-07-14T06:53:21Z</time>
      </trkpt>
      <trkpt lat="44.76668" lon="0.43834">
        <ele>74.4</ele>
        <time>2025-07-14T06:53:22Z</time>
      </trkpt>
      <trkpt lat="44.76668" lon="0.43838">
        <ele>74.8</ele>
        <time>2025-07-14T06:53:23Z</time>
      </trkpt>
      <trkpt lat="44.76667" lon="0.43842">
        <ele>75</ele>
        <time>2025-07-14T06:53:24Z</time>
      </trkpt>
      <trkpt lat="44.76665" lon="0.43846">
        <ele>75.2</ele>
        <time>2025-07-14T06:53:25Z</time>
      </trkpt>
      <trkpt lat="44.76665" lon="0.43849">
        <ele>75.6</ele>
        <time>2025-07-14T06:53:26Z</time>
      </trkpt>
      <trkpt lat="44.76664" lon="0.43853">
        <ele>75.8</ele>
        <time>2025-07-14T06:53:27Z</time>
      </trkpt>
      <trkpt lat="44.76664" lon="0.43857">
        <ele>76</ele>
        <time>2025-07-14T06:53:28Z</time>
      </trkpt>
      <trkpt lat="44.76663" lon="0.43862">
        <ele>76.2</ele>
        <time>2025-07-14T06:53:29Z</time>
      </trkpt>
      <trkpt lat="44.76663" lon="0.43866">
        <ele>76.4</ele>
        <time>2025-07-14T06:53:30Z</time>
      </trkpt>
      <trkpt lat="44.76662" lon="0.4387">
        <ele>76.4</ele>
        <time>2025-07-14T06:53:31Z</time>
      </trkpt>
      <trkpt lat="44.76662" lon="0.43874">
        <ele>76.6</ele>
        <time>2025-07-14T06:53:32Z</time>
      </trkpt>
      <trkpt lat="44.76661" lon="0.43879">
        <ele>76.6</ele>
        <time>2025-07-14T06:53:33Z</time>
      </trkpt>
      <trkpt lat="44.76661" lon="0.43885">
        <ele>76.6</ele>
        <time>2025-07-14T06:53:34Z</time>
      </trkpt>
      <trkpt lat="44.76661" lon="0.4389">
        <ele>76.6</ele>
        <time>2025-07-14T06:53:35Z</time>
      </trkpt>
      <trkpt lat="44.76662" lon="0.43896">
        <ele>76.6</ele>
        <time>2025-07-14T06:53:36Z</time>
      </trkpt>
      <trkpt lat="44.76662" lon="0.43904">
        <ele>76.6</ele>
        <time>2025-07-14T06:53:37Z</time>
      </trkpt>
      <trkpt lat="44.76663" lon="0.43911">
        <ele>76.4</ele>
        <time>2025-07-14T06:53:38Z</time>
      </trkpt>
      <trkpt lat="44.76664" lon="0.43918">
        <ele>76.2</ele>
        <time>2025-07-14T06:53:39Z</time>
      </trkpt>
      <trkpt lat="44.76664" lon="0.43926">
        <ele>76</ele>
        <time>2025-07-14T06:53:40Z</time>
      </trkpt>
      <trkpt lat="44.76663" lon="0.43933">
        <ele>75.8</ele>
        <time>2025-07-14T06:53:41Z</time>
      </trkpt>
      <trkpt lat="44.76663" lon="0.4394">
        <ele>75.6</ele>
        <time>2025-07-14T06:53:42Z</time>
      </trkpt>
      <trkpt lat="44.76663" lon="0.43947">
        <ele>75.4</ele>
        <time>2025-07-14T06:53:43Z</time>
      </trkpt>
      <trkpt lat="44.76663" lon="0.43953">
        <ele>75.2</ele>
        <time>2025-07-14T06:53:44Z</time>
      </trkpt>
      <trkpt lat="44.76662" lon="0.4396">
        <ele>75.2</ele>
        <time>2025-07-14T06:53:45Z</time>
      </trkpt>
      <trkpt lat="44.7666" lon="0.43968">
        <ele>75.2</ele>
        <time>2025-07-14T06:53:46Z</time>
      </trkpt>
      <trkpt lat="44.76659" lon="0.43975">
        <ele>75.2</ele>
        <time>2025-07-14T06:53:47Z</time>
      </trkpt>
      <trkpt lat="44.76659" lon="0.43983">
        <ele>75</ele>
        <time>2025-07-14T06:53:48Z</time>
      </trkpt>
      <trkpt lat="44.76657" lon="0.43992">
        <ele>74.8</ele>
        <time>2025-07-14T06:53:49Z</time>
      </trkpt>
      <trkpt lat="44.76657" lon="0.44001">
        <ele>74.8</ele>
        <time>2025-07-14T06:53:50Z</time>
      </trkpt>
      <trkpt lat="44.76656" lon="0.44009">
        <ele>74.6</ele>
        <time>2025-07-14T06:53:51Z</time>
      </trkpt>
      <trkpt lat="44.76654" lon="0.44018">
        <ele>74.4</ele>
        <time>2025-07-14T06:53:52Z</time>
      </trkpt>
      <trkpt lat="44.76652" lon="0.44027">
        <ele>74.2</ele>
        <time>2025-07-14T06:53:53Z</time>
      </trkpt>
      <trkpt lat="44.7665" lon="0.44036">
        <ele>74</ele>
        <time>2025-07-14T06:53:54Z</time>
      </trkpt>
      <trkpt lat="44.76648" lon="0.44044">
        <ele>73.8</ele>
        <time>2025-07-14T06:53:55Z</time>
      </trkpt>
      <trkpt lat="44.76645" lon="0.44054">
        <ele>73.6</ele>
        <time>2025-07-14T06:53:56Z</time>
      </trkpt>
      <trkpt lat="44.76643" lon="0.44062">
        <ele>73.4</ele>
        <time>2025-07-14T06:53:57Z</time>
      </trkpt>
      <trkpt lat="44.7664" lon="0.4407">
        <ele>73.2</ele>
        <time>2025-07-14T06:53:58Z</time>
      </trkpt>
      <trkpt lat="44.76637" lon="0.44078">
        <ele>73.2</ele>
        <time>2025-07-14T06:53:59Z</time>
      </trkpt>
      <trkpt lat="44.76634" lon="0.44085">
        <ele>73</ele>
        <time>2025-07-14T06:54:00Z</time>
      </trkpt>
      <trkpt lat="44.7663" lon="0.4409">
        <ele>73</ele>
        <time>2025-07-14T06:54:01Z</time>
      </trkpt>
      <trkpt lat="44.76626" lon="0.44096">
        <ele>73</ele>
        <time>2025-07-14T06:54:02Z</time>
      </trkpt>
      <trkpt lat="44.76623" lon="0.44101">
        <ele>73.2</ele>
        <time>2025-07-14T06:54:03Z</time>
      </trkpt>
      <trkpt lat="44.76621" lon="0.44106">
        <ele>73.2</ele>
        <time>2025-07-14T06:54:04Z</time>
      </trkpt>
      <trkpt lat="44.76622" lon="0.4411">
        <ele>73.2</ele>
        <time>2025-07-14T06:54:05Z</time>
      </trkpt>
      <trkpt lat="44.76624" lon="0.44113">
        <ele>73.2</ele>
        <time>2025-07-14T06:54:06Z</time>
      </trkpt>
      <trkpt lat="44.76628" lon="0.44112">
        <ele>73.2</ele>
        <time>2025-07-14T06:54:07Z</time>
      </trkpt>
      <trkpt lat="44.76631" lon="0.44113">
        <ele>73</ele>
        <time>2025-07-14T06:54:08Z</time>
      </trkpt>
      <trkpt lat="44.76635" lon="0.44112">
        <ele>72.8</ele>
        <time>2025-07-14T06:54:09Z</time>
      </trkpt>
      <trkpt lat="44.76639" lon="0.4411">
        <ele>72.2</ele>
        <time>2025-07-14T06:54:10Z</time>
      </trkpt>
      <trkpt lat="44.76645" lon="0.44106">
        <ele>71.6</ele>
        <time>2025-07-14T06:54:11Z</time>
      </trkpt>
      <trkpt lat="44.76651" lon="0.44103">
        <ele>71.2</ele>
        <time>2025-07-14T06:54:12Z</time>
      </trkpt>
      <trkpt lat="44.76657" lon="0.44101">
        <ele>70.6</ele>
        <time>2025-07-14T06:54:13Z</time>
      </trkpt>
      <trkpt lat="44.76662" lon="0.44098">
        <ele>70.2</ele>
        <time>2025-07-14T06:54:14Z</time>
      </trkpt>
      <trkpt lat="44.76667" lon="0.44095">
        <ele>70</ele>
        <time>2025-07-14T06:54:15Z</time>
      </trkpt>
      <trkpt lat="44.76672" lon="0.44092">
        <ele>69.2</ele>
        <time>2025-07-14T06:54:16Z</time>
      </trkpt>
      <trkpt lat="44.76678" lon="0.44089">
        <ele>68.4</ele>
        <time>2025-07-14T06:54:17Z</time>
      </trkpt>
      <trkpt lat="44.76683" lon="0.44086">
        <ele>67.8</ele>
        <time>2025-07-14T06:54:18Z</time>
      </trkpt>
      <trkpt lat="44.76687" lon="0.44083">
        <ele>67.6</ele>
        <time>2025-07-14T06:54:19Z</time>
      </trkpt>
      <trkpt lat="44.76692" lon="0.44079">
        <ele>67.6</ele>
        <time>2025-07-14T06:54:20Z</time>
      </trkpt>
      <trkpt lat="44.76696" lon="0.44076">
        <ele>67.6</ele>
        <time>2025-07-14T06:54:21Z</time>
      </trkpt>
      <trkpt lat="44.76699" lon="0.44072">
        <ele>67.6</ele>
        <time>2025-07-14T06:54:22Z</time>
      </trkpt>
      <trkpt lat="44.76703" lon="0.44068">
        <ele>67.6</ele>
        <time>2025-07-14T06:54:23Z</time>
      </trkpt>
      <trkpt lat="44.76707" lon="0.44067">
        <ele>67.4</ele>
        <time>2025-07-14T06:54:24Z</time>
      </trkpt>
      <trkpt lat="44.76709" lon="0.44067">
        <ele>67.4</ele>
        <time>2025-07-14T06:54:25Z</time>
      </trkpt>
      <trkpt lat="44.76711" lon="0.44067">
        <ele>67.4</ele>
        <time>2025-07-14T06:54:26Z</time>
      </trkpt>
      <trkpt lat="44.76714" lon="0.44068">
        <ele>67.4</ele>
        <time>2025-07-14T06:54:27Z</time>
      </trkpt>
      <trkpt lat="44.76717" lon="0.44072">
        <ele>67.4</ele>
        <time>2025-07-14T06:54:28Z</time>
      </trkpt>
      <trkpt lat="44.76718" lon="0.44074">
        <ele>67.2</ele>
        <time>2025-07-14T06:54:29Z</time>
      </trkpt>
      <trkpt lat="44.76719" lon="0.44076">
        <ele>67</ele>
        <time>2025-07-14T06:54:30Z</time>
      </trkpt>
      <trkpt lat="44.76719" lon="0.44078">
        <ele>66.8</ele>
        <time>2025-07-14T06:54:31Z</time>
      </trkpt>
      <trkpt lat="44.7672" lon="0.44079">
        <ele>66.4</ele>
        <time>2025-07-14T06:54:32Z</time>
      </trkpt>
      <trkpt lat="44.76721" lon="0.44081">
        <ele>66.4</ele>
        <time>2025-07-14T06:54:33Z</time>
      </trkpt>
      <trkpt lat="44.76722" lon="0.44084">
        <ele>66.2</ele>
        <time>2025-07-14T06:54:34Z</time>
      </trkpt>
      <trkpt lat="44.76726" lon="0.44087">
        <ele>66.2</ele>
        <time>2025-07-14T06:54:35Z</time>
      </trkpt>
      <trkpt lat="44.76728" lon="0.44093">
        <ele>66.2</ele>
        <time>2025-07-14T06:54:36Z</time>
      </trkpt>
      <trkpt lat="44.76729" lon="0.44098">
        <ele>66.4</ele>
        <time>2025-07-14T06:54:37Z</time>
      </trkpt>
      <trkpt lat="44.76729" lon="0.441">
        <ele>66.4</ele>
        <time>2025-07-14T06:54:38Z</time>
      </trkpt>
      <trkpt lat="44.76728" lon="0.44102">
        <ele>66.4</ele>
        <time>2025-07-14T06:54:39Z</time>
      </trkpt>
      <trkpt lat="44.76728" lon="0.44104">
        <ele>66.8</ele>
        <time>2025-07-14T06:54:40Z</time>
      </trkpt>
      <trkpt lat="44.76727" lon="0.44104">
        <ele>67</ele>
        <time>2025-07-14T06:54:41Z</time>
      </trkpt>
      <trkpt lat="44.76727" lon="0.44105">
        <ele>67.2</ele>
        <time>2025-07-14T06:54:42Z</time>
      </trkpt>
      <trkpt lat="44.76726" lon="0.44106">
        <ele>67.4</ele>
        <time>2025-07-14T06:54:43Z</time>
      </trkpt>
      <trkpt lat="44.76725" lon="0.44107">
        <ele>67.6</ele>
        <time>2025-07-14T06:54:44Z</time>
      </trkpt>
      <trkpt lat="44.76724" lon="0.44108">
        <ele>67.8</ele>
        <time>2025-07-14T06:54:45Z</time>
      </trkpt>
      <trkpt lat="44.76724" lon="0.44108">
        <ele>67.8</ele>
        <time>2025-07-14T06:54:46Z</time>
      </trkpt>
      <trkpt lat="44.76724" lon="0.44108">
        <ele>68</ele>
        <time>2025-07-14T06:54:47Z</time>
      </trkpt>
      <trkpt lat="44.76721" lon="0.44111">
        <ele>68.2</ele>
        <time>2025-07-14T06:54:51Z</time>
      </trkpt>
      <trkpt lat="44.76719" lon="0.44113">
        <ele>68.2</ele>
        <time>2025-07-14T06:54:52Z</time>
      </trkpt>
      <trkpt lat="44.76717" lon="0.44114">
        <ele>68.2</ele>
        <time>2025-07-14T06:54:53Z</time>
      </trkpt>
      <trkpt lat="44.76715" lon="0.44115">
        <ele>68.2</ele>
        <time>2025-07-14T06:54:54Z</time>
      </trkpt>
      <trkpt lat="44.76713" lon="0.44116">
        <ele>68.2</ele>
        <time>2025-07-14T06:54:55Z</time>
      </trkpt>
      <trkpt lat="44.76711" lon="0.44118">
        <ele>68.2</ele>
        <time>2025-07-14T06:54:56Z</time>
      </trkpt>
      <trkpt lat="44.76708" lon="0.44119">
        <ele>68.2</ele>
        <time>2025-07-14T06:54:57Z</time>
      </trkpt>
      <trkpt lat="44.76706" lon="0.4412">
        <ele>68.2</ele>
        <time>2025-07-14T06:54:58Z</time>
      </trkpt>
      <trkpt lat="44.76703" lon="0.44121">
        <ele>68.4</ele>
        <time>2025-07-14T06:54:59Z</time>
      </trkpt>
      <trkpt lat="44.76701" lon="0.44122">
        <ele>68.4</ele>
        <time>2025-07-14T06:55:00Z</time>
      </trkpt>
      <trkpt lat="44.76698" lon="0.44124">
        <ele>68.4</ele>
        <time>2025-07-14T06:55:01Z</time>
      </trkpt>
      <trkpt lat="44.76696" lon="0.44126">
        <ele>68.4</ele>
        <time>2025-07-14T06:55:02Z</time>
      </trkpt>
      <trkpt lat="44.76693" lon="0.44128">
        <ele>68.4</ele>
        <time>2025-07-14T06:55:03Z</time>
      </trkpt>
      <trkpt lat="44.7669" lon="0.44129">
        <ele>68.4</ele>
        <time>2025-07-14T06:55:04Z</time>
      </trkpt>
      <trkpt lat="44.76687" lon="0.4413">
        <ele>68.4</ele>
        <time>2025-07-14T06:55:05Z</time>
      </trkpt>
      <trkpt lat="44.76684" lon="0.44132">
        <ele>68.4</ele>
        <time>2025-07-14T06:55:06Z</time>
      </trkpt>
      <trkpt lat="44.76681" lon="0.44134">
        <ele>68.4</ele>
        <time>2025-07-14T06:55:07Z</time>
      </trkpt>
      <trkpt lat="44.76678" lon="0.44136">
        <ele>68.2</ele>
        <time>2025-07-14T06:55:08Z</time>
      </trkpt>
      <trkpt lat="44.76675" lon="0.44139">
        <ele>68.2</ele>
        <time>2025-07-14T06:55:09Z</time>
      </trkpt>
      <trkpt lat="44.76672" lon="0.44141">
        <ele>68.2</ele>
        <time>2025-07-14T06:55:10Z</time>
      </trkpt>
      <trkpt lat="44.7667" lon="0.44142">
        <ele>68.4</ele>
        <time>2025-07-14T06:55:11Z</time>
      </trkpt>
      <trkpt lat="44.76667" lon="0.44144">
        <ele>68.6</ele>
        <time>2025-07-14T06:55:12Z</time>
      </trkpt>
      <trkpt lat="44.76665" lon="0.44146">
        <ele>68.6</ele>
        <time>2025-07-14T06:55:13Z</time>
      </trkpt>
      <trkpt lat="44.76662" lon="0.44147">
        <ele>68.8</ele>
        <time>2025-07-14T06:55:14Z</time>
      </trkpt>
      <trkpt lat="44.76661" lon="0.4415">
        <ele>68.8</ele>
        <time>2025-07-14T06:55:15Z</time>
      </trkpt>
      <trkpt lat="44.7666" lon="0.44152">
        <ele>68.8</ele>
        <time>2025-07-14T06:55:16Z</time>
      </trkpt>
      <trkpt lat="44.7666" lon="0.44154">
        <ele>69</ele>
        <time>2025-07-14T06:55:17Z</time>
      </trkpt>
      <trkpt lat="44.76659" lon="0.44155">
        <ele>69.2</ele>
        <time>2025-07-14T06:55:18Z</time>
      </trkpt>
      <trkpt lat="44.76659" lon="0.44155">
        <ele>69.2</ele>
        <time>2025-07-14T06:55:19Z</time>
      </trkpt>
      <trkpt lat="44.76659" lon="0.44156">
        <ele>69.4</ele>
        <time>2025-07-14T06:55:20Z</time>
      </trkpt>
      <trkpt lat="44.7666" lon="0.44156">
        <ele>69.4</ele>
        <time>2025-07-14T06:55:21Z</time>
      </trkpt>
      <trkpt lat="44.7666" lon="0.44156">
        <ele>69.6</ele>
        <time>2025-07-14T06:55:22Z</time>
      </trkpt>
      <trkpt lat="44.76656" lon="0.44159">
        <ele>68.6</ele>
        <time>2025-07-14T06:59:18Z</time>
      </trkpt>
      <trkpt lat="44.76654" lon="0.4416">
        <ele>68.8</ele>
        <time>2025-07-14T06:59:19Z</time>
      </trkpt>
      <trkpt lat="44.76652" lon="0.44162">
        <ele>68.8</ele>
        <time>2025-07-14T06:59:20Z</time>
      </trkpt>
      <trkpt lat="44.7665" lon="0.44165">
        <ele>68.8</ele>
        <time>2025-07-14T06:59:21Z</time>
      </trkpt>
      <trkpt lat="44.76648" lon="0.44167">
        <ele>68.8</ele>
        <time>2025-07-14T06:59:22Z</time>
      </trkpt>
      <trkpt lat="44.76645" lon="0.44168">
        <ele>69</ele>
        <time>2025-07-14T06:59:23Z</time>
      </trkpt>
      <trkpt lat="44.76642" lon="0.44168">
        <ele>69.2</ele>
        <time>2025-07-14T06:59:24Z</time>
      </trkpt>
      <trkpt lat="44.76639" lon="0.44168">
        <ele>69.2</ele>
        <time>2025-07-14T06:59:25Z</time>
      </trkpt>
      <trkpt lat="44.76636" lon="0.44166">
        <ele>69.4</ele>
        <time>2025-07-14T06:59:26Z</time>
      </trkpt>
      <trkpt lat="44.76633" lon="0.44164">
        <ele>69.6</ele>
        <time>2025-07-14T06:59:27Z</time>
      </trkpt>
      <trkpt lat="44.76631" lon="0.44163">
        <ele>69.6</ele>
        <time>2025-07-14T06:59:28Z</time>
      </trkpt>
      <trkpt lat="44.76628" lon="0.44161">
        <ele>69.8</ele>
        <time>2025-07-14T06:59:29Z</time>
      </trkpt>
      <trkpt lat="44.76625" lon="0.4416">
        <ele>69.8</ele>
        <time>2025-07-14T06:59:30Z</time>
      </trkpt>
      <trkpt lat="44.76622" lon="0.44158">
        <ele>70</ele>
        <time>2025-07-14T06:59:31Z</time>
      </trkpt>
      <trkpt lat="44.76619" lon="0.44157">
        <ele>70</ele>
        <time>2025-07-14T06:59:32Z</time>
      </trkpt>
      <trkpt lat="44.76616" lon="0.44156">
        <ele>70.2</ele>
        <time>2025-07-14T06:59:33Z</time>
      </trkpt>
      <trkpt lat="44.76612" lon="0.44155">
        <ele>70.2</ele>
        <time>2025-07-14T06:59:34Z</time>
      </trkpt>
      <trkpt lat="44.76609" lon="0.44154">
        <ele>70.4</ele>
        <time>2025-07-14T06:59:35Z</time>
      </trkpt>
      <trkpt lat="44.76607" lon="0.44154">
        <ele>70.6</ele>
        <time>2025-07-14T06:59:36Z</time>
      </trkpt>
      <trkpt lat="44.76604" lon="0.44152">
        <ele>70.6</ele>
        <time>2025-07-14T06:59:37Z</time>
      </trkpt>
      <trkpt lat="44.76601" lon="0.44151">
        <ele>70.8</ele>
        <time>2025-07-14T06:59:38Z</time>
      </trkpt>
      <trkpt lat="44.76598" lon="0.44152">
        <ele>71</ele>
        <time>2025-07-14T06:59:39Z</time>
      </trkpt>
      <trkpt lat="44.76595" lon="0.44153">
        <ele>71.2</ele>
        <time>2025-07-14T06:59:40Z</time>
      </trkpt>
      <trkpt lat="44.76592" lon="0.44157">
        <ele>71.2</ele>
        <time>2025-07-14T06:59:41Z</time>
      </trkpt>
      <trkpt lat="44.7659" lon="0.44163">
        <ele>71.2</ele>
        <time>2025-07-14T06:59:42Z</time>
      </trkpt>
      <trkpt lat="44.76588" lon="0.44169">
        <ele>71.2</ele>
        <time>2025-07-14T06:59:43Z</time>
      </trkpt>
      <trkpt lat="44.76586" lon="0.44175">
        <ele>71.2</ele>
        <time>2025-07-14T06:59:44Z</time>
      </trkpt>
      <trkpt lat="44.76584" lon="0.44182">
        <ele>71.2</ele>
        <time>2025-07-14T06:59:45Z</time>
      </trkpt>
      <trkpt lat="44.76582" lon="0.4419">
        <ele>71</ele>
        <time>2025-07-14T06:59:46Z</time>
      </trkpt>
      <trkpt lat="44.7658" lon="0.44196">
        <ele>70.8</ele>
        <time>2025-07-14T06:59:47Z</time>
      </trkpt>
      <trkpt lat="44.76578" lon="0.44203">
        <ele>70.8</ele>
        <time>2025-07-14T06:59:48Z</time>
      </trkpt>
      <trkpt lat="44.76576" lon="0.44209">
        <ele>70.8</ele>
        <time>2025-07-14T06:59:49Z</time>
      </trkpt>
      <trkpt lat="44.76574" lon="0.44215">
        <ele>70.6</ele>
        <time>2025-07-14T06:59:50Z</time>
      </trkpt>
      <trkpt lat="44.76572" lon="0.44221">
        <ele>70.8</ele>
        <time>2025-07-14T06:59:51Z</time>
      </trkpt>
      <trkpt lat="44.7657" lon="0.44227">
        <ele>70.8</ele>
        <time>2025-07-14T06:59:52Z</time>
      </trkpt>
      <trkpt lat="44.76569" lon="0.44232">
        <ele>71</ele>
        <time>2025-07-14T06:59:53Z</time>
      </trkpt>
      <trkpt lat="44.76567" lon="0.44236">
        <ele>71.2</ele>
        <time>2025-07-14T06:59:54Z</time>
      </trkpt>
      <trkpt lat="44.76565" lon="0.4424">
        <ele>71.4</ele>
        <time>2025-07-14T06:59:55Z</time>
      </trkpt>
      <trkpt lat="44.76564" lon="0.44244">
        <ele>71.8</ele>
        <time>2025-07-14T06:59:56Z</time>
      </trkpt>
      <trkpt lat="44.76563" lon="0.44247">
        <ele>72.2</ele>
        <time>2025-07-14T06:59:57Z</time>
      </trkpt>
      <trkpt lat="44.76563" lon="0.4425">
        <ele>72.6</ele>
        <time>2025-07-14T06:59:58Z</time>
      </trkpt>
      <trkpt lat="44.76562" lon="0.44253">
        <ele>73</ele>
        <time>2025-07-14T06:59:59Z</time>
      </trkpt>
      <trkpt lat="44.76561" lon="0.44256">
        <ele>73.4</ele>
        <time>2025-07-14T07:00:00Z</time>
      </trkpt>
      <trkpt lat="44.7656" lon="0.44259">
        <ele>73.8</ele>
        <time>2025-07-14T07:00:01Z</time>
      </trkpt>
      <trkpt lat="44.76559" lon="0.44261">
        <ele>74.2</ele>
        <time>2025-07-14T07:00:02Z</time>
      </trkpt>
      <trkpt lat="44.76558" lon="0.44264">
        <ele>74.6</ele>
        <time>2025-07-14T07:00:03Z</time>
      </trkpt>
      <trkpt lat="44.76558" lon="0.44266">
        <ele>75</ele>
        <time>2025-07-14T07:00:04Z</time>
      </trkpt>
      <trkpt lat="44.76557" lon="0.44269">
        <ele>75.4</ele>
        <time>2025-07-14T07:00:05Z</time>
      </trkpt>
      <trkpt lat="44.76557" lon="0.44272">
        <ele>75.8</ele>
        <time>2025-07-14T07:00:06Z</time>
      </trkpt>
      <trkpt lat="44.76556" lon="0.44275">
        <ele>76.2</ele>
        <time>2025-07-14T07:00:07Z</time>
      </trkpt>
      <trkpt lat="44.76555" lon="0.44277">
        <ele>76.6</ele>
        <time>2025-07-14T07:00:08Z</time>
      </trkpt>
      <trkpt lat="44.76555" lon="0.4428">
        <ele>77</ele>
        <time>2025-07-14T07:00:09Z</time>
      </trkpt>
      <trkpt lat="44.76554" lon="0.44282">
        <ele>77.4</ele>
        <time>2025-07-14T07:00:10Z</time>
      </trkpt>
      <trkpt lat="44.76554" lon="0.44285">
        <ele>77.8</ele>
        <time>2025-07-14T07:00:11Z</time>
      </trkpt>
      <trkpt lat="44.76553" lon="0.44287">
        <ele>78</ele>
        <time>2025-07-14T07:00:12Z</time>
      </trkpt>
      <trkpt lat="44.76552" lon="0.4429">
        <ele>78.4</ele>
        <time>2025-07-14T07:00:13Z</time>
      </trkpt>
      <trkpt lat="44.76551" lon="0.44293">
        <ele>78.8</ele>
        <time>2025-07-14T07:00:14Z</time>
      </trkpt>
      <trkpt lat="44.76551" lon="0.44296">
        <ele>79.2</ele>
        <time>2025-07-14T07:00:15Z</time>
      </trkpt>
      <trkpt lat="44.7655" lon="0.44299">
        <ele>79.6</ele>
        <time>2025-07-14T07:00:16Z</time>
      </trkpt>
      <trkpt lat="44.76549" lon="0.44301">
        <ele>80</ele>
        <time>2025-07-14T07:00:17Z</time>
      </trkpt>
      <trkpt lat="44.76548" lon="0.44303">
        <ele>80.2</ele>
        <time>2025-07-14T07:00:18Z</time>
      </trkpt>
      <trkpt lat="44.76548" lon="0.44306">
        <ele>80.6</ele>
        <time>2025-07-14T07:00:19Z</time>
      </trkpt>
      <trkpt lat="44.76547" lon="0.44309">
        <ele>81</ele>
        <time>2025-07-14T07:00:20Z</time>
      </trkpt>
      <trkpt lat="44.76546" lon="0.44312">
        <ele>81.4</ele>
        <time>2025-07-14T07:00:21Z</time>
      </trkpt>
      <trkpt lat="44.76545" lon="0.44316">
        <ele>81.6</ele>
        <time>2025-07-14T07:00:22Z</time>
      </trkpt>
      <trkpt lat="44.76544" lon="0.44319">
        <ele>82</ele>
        <time>2025-07-14T07:00:23Z</time>
      </trkpt>
      <trkpt lat="44.76543" lon="0.44323">
        <ele>82.2</ele>
        <time>2025-07-14T07:00:24Z</time>
      </trkpt>
      <trkpt lat="44.76542" lon="0.44327">
        <ele>82.6</ele>
        <time>2025-07-14T07:00:25Z</time>
      </trkpt>
      <trkpt lat="44.7654" lon="0.44331">
        <ele>82.8</ele>
        <time>2025-07-14T07:00:26Z</time>
      </trkpt>
      <trkpt lat="44.76539" lon="0.44334">
        <ele>83.2</ele>
        <time>2025-07-14T07:00:27Z</time>
      </trkpt>
      <trkpt lat="44.76538" lon="0.44338">
        <ele>83.6</ele>
        <time>2025-07-14T07:00:28Z</time>
      </trkpt>
      <trkpt lat="44.76537" lon="0.44342">
        <ele>83.8</ele>
        <time>2025-07-14T07:00:29Z</time>
      </trkpt>
      <trkpt lat="44.76536" lon="0.44346">
        <ele>84.2</ele>
        <time>2025-07-14T07:00:30Z</time>
      </trkpt>
      <trkpt lat="44.76535" lon="0.4435">
        <ele>84.6</ele>
        <time>2025-07-14T07:00:31Z</time>
      </trkpt>
      <trkpt lat="44.76534" lon="0.44354">
        <ele>84.8</ele>
        <time>2025-07-14T07:00:32Z</time>
      </trkpt>
      <trkpt lat="44.76533" lon="0.44358">
        <ele>85.2</ele>
        <time>2025-07-14T07:00:33Z</time>
      </trkpt>
      <trkpt lat="44.76532" lon="0.44362">
        <ele>85.4</ele>
        <time>2025-07-14T07:00:34Z</time>
      </trkpt>
      <trkpt lat="44.76531" lon="0.44365">
        <ele>85.6</ele>
        <time>2025-07-14T07:00:35Z</time>
      </trkpt>
      <trkpt lat="44.76531" lon="0.44369">
        <ele>86</ele>
        <time>2025-07-14T07:00:36Z</time>
      </trkpt>
      <trkpt lat="44.7653" lon="0.44373">
        <ele>86.2</ele>
        <time>2025-07-14T07:00:37Z</time>
      </trkpt>
      <trkpt lat="44.7653" lon="0.44378">
        <ele>86.4</ele>
        <time>2025-07-14T07:00:38Z</time>
      </trkpt>
      <trkpt lat="44.76529" lon="0.44382">
        <ele>86.4</ele>
        <time>2025-07-14T07:00:39Z</time>
      </trkpt>
      <trkpt lat="44.76528" lon="0.44386">
        <ele>86.6</ele>
        <time>2025-07-14T07:00:40Z</time>
      </trkpt>
      <trkpt lat="44.76527" lon="0.4439">
        <ele>86.8</ele>
        <time>2025-07-14T07:00:41Z</time>
      </trkpt>
      <trkpt lat="44.76527" lon="0.44395">
        <ele>86.8</ele>
        <time>2025-07-14T07:00:42Z</time>
      </trkpt>
      <trkpt lat="44.76526" lon="0.44401">
        <ele>87</ele>
        <time>2025-07-14T07:00:43Z</time>
      </trkpt>
      <trkpt lat="44.76525" lon="0.44405">
        <ele>87</ele>
        <time>2025-07-14T07:00:44Z</time>
      </trkpt>
      <trkpt lat="44.76525" lon="0.4441">
        <ele>87.2</ele>
        <time>2025-07-14T07:00:45Z</time>
      </trkpt>
      <trkpt lat="44.76524" lon="0.44416">
        <ele>87.2</ele>
        <time>2025-07-14T07:00:46Z</time>
      </trkpt>
      <trkpt lat="44.76524" lon="0.44422">
        <ele>87.4</ele>
        <time>2025-07-14T07:00:47Z</time>
      </trkpt>
      <trkpt lat="44.76523" lon="0.44427">
        <ele>87.4</ele>
        <time>2025-07-14T07:00:48Z</time>
      </trkpt>
      <trkpt lat="44.76522" lon="0.44433">
        <ele>87.6</ele>
        <time>2025-07-14T07:00:49Z</time>
      </trkpt>
      <trkpt lat="44.76521" lon="0.44438">
        <ele>87.6</ele>
        <time>2025-07-14T07:00:50Z</time>
      </trkpt>
      <trkpt lat="44.7652" lon="0.44444">
        <ele>87.6</ele>
        <time>2025-07-14T07:00:51Z</time>
      </trkpt>
      <trkpt lat="44.76519" lon="0.44449">
        <ele>87.6</ele>
        <time>2025-07-14T07:00:52Z</time>
      </trkpt>
      <trkpt lat="44.76518" lon="0.44454">
        <ele>87.8</ele>
        <time>2025-07-14T07:00:53Z</time>
      </trkpt>
      <trkpt lat="44.76517" lon="0.44459">
        <ele>88</ele>
        <time>2025-07-14T07:00:54Z</time>
      </trkpt>
      <trkpt lat="44.76516" lon="0.44465">
        <ele>88</ele>
        <time>2025-07-14T07:00:55Z</time>
      </trkpt>
      <trkpt lat="44.76514" lon="0.44472">
        <ele>88</ele>
        <time>2025-07-14T07:00:56Z</time>
      </trkpt>
      <trkpt lat="44.76513" lon="0.44478">
        <ele>88.2</ele>
        <time>2025-07-14T07:00:57Z</time>
      </trkpt>
      <trkpt lat="44.76512" lon="0.44484">
        <ele>88.2</ele>
        <time>2025-07-14T07:00:58Z</time>
      </trkpt>
      <trkpt lat="44.7651" lon="0.4449">
        <ele>88.2</ele>
        <time>2025-07-14T07:00:59Z</time>
      </trkpt>
      <trkpt lat="44.76509" lon="0.44496">
        <ele>88.2</ele>
        <time>2025-07-14T07:01:00Z</time>
      </trkpt>
      <trkpt lat="44.76508" lon="0.44503">
        <ele>88.4</ele>
        <time>2025-07-14T07:01:01Z</time>
      </trkpt>
      <trkpt lat="44.76507" lon="0.44509">
        <ele>88.4</ele>
        <time>2025-07-14T07:01:02Z</time>
      </trkpt>
      <trkpt lat="44.76506" lon="0.44515">
        <ele>88.4</ele>
        <time>2025-07-14T07:01:03Z</time>
      </trkpt>
      <trkpt lat="44.76506" lon="0.44521">
        <ele>88.4</ele>
        <time>2025-07-14T07:01:04Z</time>
      </trkpt>
      <trkpt lat="44.76505" lon="0.44527">
        <ele>88.4</ele>
        <time>2025-07-14T07:01:05Z</time>
      </trkpt>
      <trkpt lat="44.76504" lon="0.44533">
        <ele>88.4</ele>
        <time>2025-07-14T07:01:06Z</time>
      </trkpt>
      <trkpt lat="44.76503" lon="0.44539">
        <ele>88.4</ele>
        <time>2025-07-14T07:01:07Z</time>
      </trkpt>
      <trkpt lat="44.76502" lon="0.44546">
        <ele>88.4</ele>
        <time>2025-07-14T07:01:08Z</time>
      </trkpt>
      <trkpt lat="44.76501" lon="0.44552">
        <ele>88.4</ele>
        <time>2025-07-14T07:01:09Z</time>
      </trkpt>
      <trkpt lat="44.765" lon="0.44558">
        <ele>88.4</ele>
        <time>2025-07-14T07:01:10Z</time>
      </trkpt>
      <trkpt lat="44.765" lon="0.44564">
        <ele>88.6</ele>
        <time>2025-07-14T07:01:11Z</time>
      </trkpt>
      <trkpt lat="44.76499" lon="0.4457">
        <ele>88.6</ele>
        <time>2025-07-14T07:01:12Z</time>
      </trkpt>
      <trkpt lat="44.76498" lon="0.44577">
        <ele>88.6</ele>
        <time>2025-07-14T07:01:13Z</time>
      </trkpt>
      <trkpt lat="44.76497" lon="0.44583">
        <ele>88.6</ele>
        <time>2025-07-14T07:01:14Z</time>
      </trkpt>
      <trkpt lat="44.76496" lon="0.44589">
        <ele>88.8</ele>
        <time>2025-07-14T07:01:15Z</time>
      </trkpt>
      <trkpt lat="44.76495" lon="0.44594">
        <ele>88.8</ele>
        <time>2025-07-14T07:01:16Z</time>
      </trkpt>
      <trkpt lat="44.76494" lon="0.446">
        <ele>89</ele>
        <time>2025-07-14T07:01:17Z</time>
      </trkpt>
      <trkpt lat="44.76493" lon="0.44605">
        <ele>89.2</ele>
        <time>2025-07-14T07:01:18Z</time>
      </trkpt>
      <trkpt lat="44.76492" lon="0.44612">
        <ele>89.4</ele>
        <time>2025-07-14T07:01:19Z</time>
      </trkpt>
      <trkpt lat="44.76491" lon="0.44618">
        <ele>89.6</ele>
        <time>2025-07-14T07:01:20Z</time>
      </trkpt>
      <trkpt lat="44.7649" lon="0.44624">
        <ele>89.8</ele>
        <time>2025-07-14T07:01:21Z</time>
      </trkpt>
      <trkpt lat="44.76489" lon="0.44629">
        <ele>90</ele>
        <time>2025-07-14T07:01:22Z</time>
      </trkpt>
      <trkpt lat="44.76487" lon="0.44635">
        <ele>90</ele>
        <time>2025-07-14T07:01:23Z</time>
      </trkpt>
      <trkpt lat="44.76486" lon="0.4464">
        <ele>90.2</ele>
        <time>2025-07-14T07:01:24Z</time>
      </trkpt>
      <trkpt lat="44.76485" lon="0.44646">
        <ele>90.4</ele>
        <time>2025-07-14T07:01:25Z</time>
      </trkpt>
      <trkpt lat="44.76483" lon="0.44653">
        <ele>90.6</ele>
        <time>2025-07-14T07:01:26Z</time>
      </trkpt>
      <trkpt lat="44.76481" lon="0.44659">
        <ele>90.8</ele>
        <time>2025-07-14T07:01:27Z</time>
      </trkpt>
      <trkpt lat="44.7648" lon="0.44665">
        <ele>90.8</ele>
        <time>2025-07-14T07:01:28Z</time>
      </trkpt>
      <trkpt lat="44.76479" lon="0.44672">
        <ele>91</ele>
        <time>2025-07-14T07:01:29Z</time>
      </trkpt>
      <trkpt lat="44.76478" lon="0.44679">
        <ele>91</ele>
        <time>2025-07-14T07:01:30Z</time>
      </trkpt>
      <trkpt lat="44.76476" lon="0.44685">
        <ele>91</ele>
        <time>2025-07-14T07:01:31Z</time>
      </trkpt>
      <trkpt lat="44.76475" lon="0.44693">
        <ele>91.2</ele>
        <time>2025-07-14T07:01:32Z</time>
      </trkpt>
      <trkpt lat="44.76474" lon="0.44701">
        <ele>91</ele>
        <time>2025-07-14T07:01:33Z</time>
      </trkpt>
      <trkpt lat="44.76473" lon="0.4471">
        <ele>91</ele>
        <time>2025-07-14T07:01:34Z</time>
      </trkpt>
      <trkpt lat="44.76474" lon="0.44718">
        <ele>90.8</ele>
        <time>2025-07-14T07:01:35Z</time>
      </trkpt>
      <trkpt lat="44.76474" lon="0.44727">
        <ele>90.6</ele>
        <time>2025-07-14T07:01:36Z</time>
      </trkpt>
      <trkpt lat="44.76475" lon="0.44737">
        <ele>90.2</ele>
        <time>2025-07-14T07:01:37Z</time>
      </trkpt>
      <trkpt lat="44.76477" lon="0.44747">
        <ele>89.8</ele>
        <time>2025-07-14T07:01:38Z</time>
      </trkpt>
      <trkpt lat="44.76479" lon="0.44757">
        <ele>89.6</ele>
        <time>2025-07-14T07:01:39Z</time>
      </trkpt>
      <trkpt lat="44.76482" lon="0.44767">
        <ele>89</ele>
        <time>2025-07-14T07:01:40Z</time>
      </trkpt>
      <trkpt lat="44.76484" lon="0.44776">
        <ele>88.8</ele>
        <time>2025-07-14T07:01:41Z</time>
      </trkpt>
      <trkpt lat="44.76487" lon="0.44785">
        <ele>88.6</ele>
        <time>2025-07-14T07:01:42Z</time>
      </trkpt>
      <trkpt lat="44.7649" lon="0.44794">
        <ele>88.2</ele>
        <time>2025-07-14T07:01:43Z</time>
      </trkpt>
      <trkpt lat="44.76493" lon="0.44802">
        <ele>88.2</ele>
        <time>2025-07-14T07:01:44Z</time>
      </trkpt>
      <trkpt lat="44.76495" lon="0.4481">
        <ele>88</ele>
        <time>2025-07-14T07:01:45Z</time>
      </trkpt>
      <trkpt lat="44.76498" lon="0.44818">
        <ele>88</ele>
        <time>2025-07-14T07:01:46Z</time>
      </trkpt>
      <trkpt lat="44.765" lon="0.44827">
        <ele>87.8</ele>
        <time>2025-07-14T07:01:47Z</time>
      </trkpt>
      <trkpt lat="44.76502" lon="0.44835">
        <ele>88</ele>
        <time>2025-07-14T07:01:48Z</time>
      </trkpt>
      <trkpt lat="44.76504" lon="0.44844">
        <ele>88</ele>
        <time>2025-07-14T07:01:49Z</time>
      </trkpt>
      <trkpt lat="44.76506" lon="0.44852">
        <ele>88</ele>
        <time>2025-07-14T07:01:50Z</time>
      </trkpt>
      <trkpt lat="44.76507" lon="0.44861">
        <ele>88</ele>
        <time>2025-07-14T07:01:51Z</time>
      </trkpt>
      <trkpt lat="44.76507" lon="0.44869">
        <ele>88.2</ele>
        <time>2025-07-14T07:01:52Z</time>
      </trkpt>
      <trkpt lat="44.76507" lon="0.44876">
        <ele>88.2</ele>
        <time>2025-07-14T07:01:53Z</time>
      </trkpt>
      <trkpt lat="44.76508" lon="0.44883">
        <ele>88.2</ele>
        <time>2025-07-14T07:01:54Z</time>
      </trkpt>
      <trkpt lat="44.76508" lon="0.4489">
        <ele>88.4</ele>
        <time>2025-07-14T07:01:55Z</time>
      </trkpt>
      <trkpt lat="44.76509" lon="0.44897">
        <ele>88.8</ele>
        <time>2025-07-14T07:01:56Z</time>
      </trkpt>
      <trkpt lat="44.76509" lon="0.44904">
        <ele>88.8</ele>
        <time>2025-07-14T07:01:57Z</time>
      </trkpt>
      <trkpt lat="44.7651" lon="0.4491">
        <ele>89.2</ele>
        <time>2025-07-14T07:01:58Z</time>
      </trkpt>
      <trkpt lat="44.7651" lon="0.44917">
        <ele>89.4</ele>
        <time>2025-07-14T07:01:59Z</time>
      </trkpt>
      <trkpt lat="44.76511" lon="0.44924">
        <ele>89.6</ele>
        <time>2025-07-14T07:02:00Z</time>
      </trkpt>
      <trkpt lat="44.76512" lon="0.44932">
        <ele>89.8</ele>
        <time>2025-07-14T07:02:01Z</time>
      </trkpt>
      <trkpt lat="44.76512" lon="0.4494">
        <ele>89.8</ele>
        <time>2025-07-14T07:02:02Z</time>
      </trkpt>
      <trkpt lat="44.76513" lon="0.44948">
        <ele>90</ele>
        <time>2025-07-14T07:02:03Z</time>
      </trkpt>
      <trkpt lat="44.76513" lon="0.44956">
        <ele>90</ele>
        <time>2025-07-14T07:02:04Z</time>
      </trkpt>
      <trkpt lat="44.76514" lon="0.44964">
        <ele>90.2</ele>
        <time>2025-07-14T07:02:05Z</time>
      </trkpt>
      <trkpt lat="44.76514" lon="0.44973">
        <ele>90.2</ele>
        <time>2025-07-14T07:02:06Z</time>
      </trkpt>
      <trkpt lat="44.76516" lon="0.4498">
        <ele>90.2</ele>
        <time>2025-07-14T07:02:07Z</time>
      </trkpt>
      <trkpt lat="44.76516" lon="0.44988">
        <ele>90.2</ele>
        <time>2025-07-14T07:02:08Z</time>
      </trkpt>
      <trkpt lat="44.76517" lon="0.44997">
        <ele>90</ele>
        <time>2025-07-14T07:02:09Z</time>
      </trkpt>
      <trkpt lat="44.76517" lon="0.45005">
        <ele>89.8</ele>
        <time>2025-07-14T07:02:10Z</time>
      </trkpt>
      <trkpt lat="44.76515" lon="0.45013">
        <ele>89.8</ele>
        <time>2025-07-14T07:02:11Z</time>
      </trkpt>
      <trkpt lat="44.7651" lon="0.4502">
        <ele>89.6</ele>
        <time>2025-07-14T07:02:12Z</time>
      </trkpt>
      <trkpt lat="44.76505" lon="0.45025">
        <ele>89.4</ele>
        <time>2025-07-14T07:02:13Z</time>
      </trkpt>
      <trkpt lat="44.765" lon="0.45029">
        <ele>89.2</ele>
        <time>2025-07-14T07:02:14Z</time>
      </trkpt>
      <trkpt lat="44.76494" lon="0.45032">
        <ele>89</ele>
        <time>2025-07-14T07:02:15Z</time>
      </trkpt>
      <trkpt lat="44.76489" lon="0.45034">
        <ele>88.6</ele>
        <time>2025-07-14T07:02:16Z</time>
      </trkpt>
      <trkpt lat="44.76483" lon="0.45036">
        <ele>88.6</ele>
        <time>2025-07-14T07:02:17Z</time>
      </trkpt>
      <trkpt lat="44.76477" lon="0.45038">
        <ele>88.4</ele>
        <time>2025-07-14T07:02:18Z</time>
      </trkpt>
      <trkpt lat="44.76472" lon="0.4504">
        <ele>88.4</ele>
        <time>2025-07-14T07:02:19Z</time>
      </trkpt>
      <trkpt lat="44.76466" lon="0.45043">
        <ele>88.4</ele>
        <time>2025-07-14T07:02:20Z</time>
      </trkpt>
      <trkpt lat="44.76459" lon="0.45045">
        <ele>88.4</ele>
        <time>2025-07-14T07:02:21Z</time>
      </trkpt>
      <trkpt lat="44.76454" lon="0.45048">
        <ele>88.4</ele>
        <time>2025-07-14T07:02:22Z</time>
      </trkpt>
      <trkpt lat="44.76448" lon="0.4505">
        <ele>88.6</ele>
        <time>2025-07-14T07:02:23Z</time>
      </trkpt>
      <trkpt lat="44.76442" lon="0.45053">
        <ele>88.6</ele>
        <time>2025-07-14T07:02:24Z</time>
      </trkpt>
      <trkpt lat="44.76438" lon="0.45056">
        <ele>88.6</ele>
        <time>2025-07-14T07:02:25Z</time>
      </trkpt>
      <trkpt lat="44.76432" lon="0.45059">
        <ele>88.6</ele>
        <time>2025-07-14T07:02:26Z</time>
      </trkpt>
      <trkpt lat="44.76427" lon="0.45061">
        <ele>88.6</ele>
        <time>2025-07-14T07:02:27Z</time>
      </trkpt>
      <trkpt lat="44.76422" lon="0.45063">
        <ele>88.8</ele>
        <time>2025-07-14T07:02:28Z</time>
      </trkpt>
      <trkpt lat="44.76417" lon="0.45065">
        <ele>88.8</ele>
        <time>2025-07-14T07:02:29Z</time>
      </trkpt>
      <trkpt lat="44.76412" lon="0.45067">
        <ele>88.8</ele>
        <time>2025-07-14T07:02:30Z</time>
      </trkpt>
      <trkpt lat="44.76407" lon="0.45068">
        <ele>88.8</ele>
        <time>2025-07-14T07:02:31Z</time>
      </trkpt>
      <trkpt lat="44.76402" lon="0.45069">
        <ele>89</ele>
        <time>2025-07-14T07:02:32Z</time>
      </trkpt>
      <trkpt lat="44.76397" lon="0.45068">
        <ele>89</ele>
        <time>2025-07-14T07:02:33Z</time>
      </trkpt>
      <trkpt lat="44.76392" lon="0.45067">
        <ele>89.2</ele>
        <time>2025-07-14T07:02:34Z</time>
      </trkpt>
      <trkpt lat="44.76388" lon="0.45067">
        <ele>89.6</ele>
        <time>2025-07-14T07:02:35Z</time>
      </trkpt>
      <trkpt lat="44.76383" lon="0.45067">
        <ele>89.6</ele>
        <time>2025-07-14T07:02:36Z</time>
      </trkpt>
      <trkpt lat="44.76379" lon="0.45066">
        <ele>89.8</ele>
        <time>2025-07-14T07:02:37Z</time>
      </trkpt>
      <trkpt lat="44.76374" lon="0.45065">
        <ele>90</ele>
        <time>2025-07-14T07:02:38Z</time>
      </trkpt>
      <trkpt lat="44.7637" lon="0.45065">
        <ele>90.2</ele>
        <time>2025-07-14T07:02:39Z</time>
      </trkpt>
      <trkpt lat="44.76366" lon="0.45064">
        <ele>90.4</ele>
        <time>2025-07-14T07:02:40Z</time>
      </trkpt>
      <trkpt lat="44.76361" lon="0.45063">
        <ele>90.6</ele>
        <time>2025-07-14T07:02:41Z</time>
      </trkpt>
      <trkpt lat="44.76357" lon="0.4506">
        <ele>90.8</ele>
        <time>2025-07-14T07:02:42Z</time>
      </trkpt>
      <trkpt lat="44.76353" lon="0.45057">
        <ele>91</ele>
        <time>2025-07-14T07:02:43Z</time>
      </trkpt>
      <trkpt lat="44.76348" lon="0.45055">
        <ele>91</ele>
        <time>2025-07-14T07:02:44Z</time>
      </trkpt>
      <trkpt lat="44.76344" lon="0.45053">
        <ele>91</ele>
        <time>2025-07-14T07:02:45Z</time>
      </trkpt>
      <trkpt lat="44.76339" lon="0.45051">
        <ele>91.2</ele>
        <time>2025-07-14T07:02:46Z</time>
      </trkpt>
      <trkpt lat="44.76334" lon="0.45049">
        <ele>91</ele>
        <time>2025-07-14T07:02:47Z</time>
      </trkpt>
      <trkpt lat="44.76329" lon="0.45048">
        <ele>91</ele>
        <time>2025-07-14T07:02:48Z</time>
      </trkpt>
      <trkpt lat="44.76324" lon="0.45048">
        <ele>91.2</ele>
        <time>2025-07-14T07:02:49Z</time>
      </trkpt>
      <trkpt lat="44.76318" lon="0.45048">
        <ele>91.2</ele>
        <time>2025-07-14T07:02:50Z</time>
      </trkpt>
      <trkpt lat="44.76313" lon="0.45049">
        <ele>91.2</ele>
        <time>2025-07-14T07:02:51Z</time>
      </trkpt>
      <trkpt lat="44.76308" lon="0.4505">
        <ele>91.4</ele>
        <time>2025-07-14T07:02:52Z</time>
      </trkpt>
      <trkpt lat="44.76303" lon="0.45052">
        <ele>91.4</ele>
        <time>2025-07-14T07:02:53Z</time>
      </trkpt>
      <trkpt lat="44.76298" lon="0.45056">
        <ele>91.6</ele>
        <time>2025-07-14T07:02:54Z</time>
      </trkpt>
      <trkpt lat="44.76294" lon="0.4506">
        <ele>91.6</ele>
        <time>2025-07-14T07:02:55Z</time>
      </trkpt>
      <trkpt lat="44.76289" lon="0.45064">
        <ele>91.8</ele>
        <time>2025-07-14T07:02:56Z</time>
      </trkpt>
      <trkpt lat="44.76283" lon="0.45067">
        <ele>92</ele>
        <time>2025-07-14T07:02:57Z</time>
      </trkpt>
      <trkpt lat="44.76278" lon="0.4507">
        <ele>92.2</ele>
        <time>2025-07-14T07:02:58Z</time>
      </trkpt>
      <trkpt lat="44.76273" lon="0.45072">
        <ele>92.2</ele>
        <time>2025-07-14T07:02:59Z</time>
      </trkpt>
      <trkpt lat="44.76269" lon="0.45076">
        <ele>92.4</ele>
        <time>2025-07-14T07:03:00Z</time>
      </trkpt>
      <trkpt lat="44.76265" lon="0.4508">
        <ele>92.4</ele>
        <time>2025-07-14T07:03:01Z</time>
      </trkpt>
      <trkpt lat="44.76261" lon="0.45083">
        <ele>92.6</ele>
        <time>2025-07-14T07:03:02Z</time>
      </trkpt>
      <trkpt lat="44.76257" lon="0.45085">
        <ele>92.8</ele>
        <time>2025-07-14T07:03:03Z</time>
      </trkpt>
      <trkpt lat="44.76252" lon="0.45086">
        <ele>93</ele>
        <time>2025-07-14T07:03:04Z</time>
      </trkpt>
      <trkpt lat="44.76247" lon="0.45085">
        <ele>93</ele>
        <time>2025-07-14T07:03:05Z</time>
      </trkpt>
      <trkpt lat="44.76244" lon="0.45083">
        <ele>93</ele>
        <time>2025-07-14T07:03:06Z</time>
      </trkpt>
      <trkpt lat="44.7624" lon="0.4508">
        <ele>93.2</ele>
        <time>2025-07-14T07:03:07Z</time>
      </trkpt>
      <trkpt lat="44.76237" lon="0.45078">
        <ele>93.2</ele>
        <time>2025-07-14T07:03:08Z</time>
      </trkpt>
      <trkpt lat="44.76233" lon="0.45074">
        <ele>93.4</ele>
        <time>2025-07-14T07:03:09Z</time>
      </trkpt>
      <trkpt lat="44.76229" lon="0.45071">
        <ele>93.6</ele>
        <time>2025-07-14T07:03:10Z</time>
      </trkpt>
      <trkpt lat="44.76224" lon="0.45067">
        <ele>93.8</ele>
        <time>2025-07-14T07:03:11Z</time>
      </trkpt>
      <trkpt lat="44.76219" lon="0.45063">
        <ele>93.6</ele>
        <time>2025-07-14T07:03:12Z</time>
      </trkpt>
      <trkpt lat="44.76215" lon="0.45059">
        <ele>93.6</ele>
        <time>2025-07-14T07:03:13Z</time>
      </trkpt>
      <trkpt lat="44.7621" lon="0.45054">
        <ele>93.4</ele>
        <time>2025-07-14T07:03:14Z</time>
      </trkpt>
      <trkpt lat="44.76205" lon="0.4505">
        <ele>93.4</ele>
        <time>2025-07-14T07:03:15Z</time>
      </trkpt>
      <trkpt lat="44.762" lon="0.45045">
        <ele>93</ele>
        <time>2025-07-14T07:03:16Z</time>
      </trkpt>
      <trkpt lat="44.76196" lon="0.45042">
        <ele>92.6</ele>
        <time>2025-07-14T07:03:17Z</time>
      </trkpt>
      <trkpt lat="44.76192" lon="0.45038">
        <ele>92.4</ele>
        <time>2025-07-14T07:03:18Z</time>
      </trkpt>
      <trkpt lat="44.76188" lon="0.45035">
        <ele>92.2</ele>
        <time>2025-07-14T07:03:19Z</time>
      </trkpt>
      <trkpt lat="44.76184" lon="0.45032">
        <ele>92</ele>
        <time>2025-07-14T07:03:20Z</time>
      </trkpt>
      <trkpt lat="44.7618" lon="0.45029">
        <ele>92</ele>
        <time>2025-07-14T07:03:21Z</time>
      </trkpt>
      <trkpt lat="44.76176" lon="0.45027">
        <ele>92.2</ele>
        <time>2025-07-14T07:03:22Z</time>
      </trkpt>
      <trkpt lat="44.76173" lon="0.45024">
        <ele>92.2</ele>
        <time>2025-07-14T07:03:23Z</time>
      </trkpt>
      <trkpt lat="44.7617" lon="0.45023">
        <ele>92.2</ele>
        <time>2025-07-14T07:03:24Z</time>
      </trkpt>
      <trkpt lat="44.76169" lon="0.45022">
        <ele>92.2</ele>
        <time>2025-07-14T07:03:25Z</time>
      </trkpt>
      <trkpt lat="44.76168" lon="0.45021">
        <ele>92.4</ele>
        <time>2025-07-14T07:03:26Z</time>
      </trkpt>
      <trkpt lat="44.76166" lon="0.45021">
        <ele>92.4</ele>
        <time>2025-07-14T07:03:27Z</time>
      </trkpt>
      <trkpt lat="44.76164" lon="0.45019">
        <ele>92.4</ele>
        <time>2025-07-14T07:03:28Z</time>
      </trkpt>
      <trkpt lat="44.76162" lon="0.45017">
        <ele>92.6</ele>
        <time>2025-07-14T07:03:29Z</time>
      </trkpt>
      <trkpt lat="44.7616" lon="0.45015">
        <ele>92.6</ele>
        <time>2025-07-14T07:03:30Z</time>
      </trkpt>
      <trkpt lat="44.76157" lon="0.45013">
        <ele>92.6</ele>
        <time>2025-07-14T07:03:31Z</time>
      </trkpt>
      <trkpt lat="44.76154" lon="0.45011">
        <ele>92.6</ele>
        <time>2025-07-14T07:03:32Z</time>
      </trkpt>
      <trkpt lat="44.76151" lon="0.45009">
        <ele>92.8</ele>
        <time>2025-07-14T07:03:33Z</time>
      </trkpt>
      <trkpt lat="44.76148" lon="0.45008">
        <ele>92.8</ele>
        <time>2025-07-14T07:03:34Z</time>
      </trkpt>
      <trkpt lat="44.76145" lon="0.45005">
        <ele>93</ele>
        <time>2025-07-14T07:03:35Z</time>
      </trkpt>
      <trkpt lat="44.76142" lon="0.45002">
        <ele>93</ele>
        <time>2025-07-14T07:03:36Z</time>
      </trkpt>
      <trkpt lat="44.76139" lon="0.44999">
        <ele>93</ele>
        <time>2025-07-14T07:03:37Z</time>
      </trkpt>
      <trkpt lat="44.76136" lon="0.44996">
        <ele>93</ele>
        <time>2025-07-14T07:03:38Z</time>
      </trkpt>
      <trkpt lat="44.76133" lon="0.44993">
        <ele>93.2</ele>
        <time>2025-07-14T07:03:39Z</time>
      </trkpt>
      <trkpt lat="44.7613" lon="0.44991">
        <ele>93.2</ele>
        <time>2025-07-14T07:03:40Z</time>
      </trkpt>
      <trkpt lat="44.76128" lon="0.44988">
        <ele>93.4</ele>
        <time>2025-07-14T07:03:41Z</time>
      </trkpt>
      <trkpt lat="44.76125" lon="0.44985">
        <ele>93.6</ele>
        <time>2025-07-14T07:03:42Z</time>
      </trkpt>
      <trkpt lat="44.76123" lon="0.44983">
        <ele>93.6</ele>
        <time>2025-07-14T07:03:43Z</time>
      </trkpt>
      <trkpt lat="44.7612" lon="0.44981">
        <ele>93.8</ele>
        <time>2025-07-14T07:03:44Z</time>
      </trkpt>
      <trkpt lat="44.76117" lon="0.44979">
        <ele>94</ele>
        <time>2025-07-14T07:03:45Z</time>
      </trkpt>
      <trkpt lat="44.76114" lon="0.44977">
        <ele>94.2</ele>
        <time>2025-07-14T07:03:46Z</time>
      </trkpt>
      <trkpt lat="44.7611" lon="0.44976">
        <ele>94.4</ele>
        <time>2025-07-14T07:03:47Z</time>
      </trkpt>
      <trkpt lat="44.76107" lon="0.44975">
        <ele>94.4</ele>
        <time>2025-07-14T07:03:48Z</time>
      </trkpt>
      <trkpt lat="44.76104" lon="0.44974">
        <ele>94.6</ele>
        <time>2025-07-14T07:03:49Z</time>
      </trkpt>
      <trkpt lat="44.761" lon="0.44974">
        <ele>94.6</ele>
        <time>2025-07-14T07:03:50Z</time>
      </trkpt>
      <trkpt lat="44.76097" lon="0.44973">
        <ele>94.8</ele>
        <time>2025-07-14T07:03:51Z</time>
      </trkpt>
      <trkpt lat="44.76094" lon="0.44973">
        <ele>95</ele>
        <time>2025-07-14T07:03:52Z</time>
      </trkpt>
      <trkpt lat="44.76091" lon="0.44972">
        <ele>95.2</ele>
        <time>2025-07-14T07:03:53Z</time>
      </trkpt>
      <trkpt lat="44.76088" lon="0.44971">
        <ele>95.4</ele>
        <time>2025-07-14T07:03:54Z</time>
      </trkpt>
      <trkpt lat="44.76085" lon="0.44969">
        <ele>95.4</ele>
        <time>2025-07-14T07:03:55Z</time>
      </trkpt>
      <trkpt lat="44.76082" lon="0.44968">
        <ele>95.6</ele>
        <time>2025-07-14T07:03:56Z</time>
      </trkpt>
      <trkpt lat="44.7608" lon="0.44966">
        <ele>95.8</ele>
        <time>2025-07-14T07:03:57Z</time>
      </trkpt>
      <trkpt lat="44.76077" lon="0.44963">
        <ele>95.8</ele>
        <time>2025-07-14T07:03:58Z</time>
      </trkpt>
      <trkpt lat="44.76074" lon="0.44961">
        <ele>96</ele>
        <time>2025-07-14T07:03:59Z</time>
      </trkpt>
      <trkpt lat="44.76072" lon="0.44959">
        <ele>96</ele>
        <time>2025-07-14T07:04:00Z</time>
      </trkpt>
      <trkpt lat="44.76069" lon="0.44956">
        <ele>96.2</ele>
        <time>2025-07-14T07:04:01Z</time>
      </trkpt>
      <trkpt lat="44.76067" lon="0.44954">
        <ele>96.2</ele>
        <time>2025-07-14T07:04:02Z</time>
      </trkpt>
      <trkpt lat="44.76064" lon="0.44951">
        <ele>96.2</ele>
        <time>2025-07-14T07:04:03Z</time>
      </trkpt>
      <trkpt lat="44.76062" lon="0.44948">
        <ele>96.4</ele>
        <time>2025-07-14T07:04:04Z</time>
      </trkpt>
      <trkpt lat="44.7606" lon="0.44945">
        <ele>96.4</ele>
        <time>2025-07-14T07:04:05Z</time>
      </trkpt>
      <trkpt lat="44.76058" lon="0.44942">
        <ele>96.4</ele>
        <time>2025-07-14T07:04:06Z</time>
      </trkpt>
      <trkpt lat="44.76055" lon="0.44939">
        <ele>96.6</ele>
        <time>2025-07-14T07:04:07Z</time>
      </trkpt>
      <trkpt lat="44.76053" lon="0.44937">
        <ele>96.8</ele>
        <time>2025-07-14T07:04:08Z</time>
      </trkpt>
      <trkpt lat="44.76052" lon="0.44934">
        <ele>97</ele>
        <time>2025-07-14T07:04:09Z</time>
      </trkpt>
      <trkpt lat="44.76049" lon="0.44931">
        <ele>97.2</ele>
        <time>2025-07-14T07:04:10Z</time>
      </trkpt>
      <trkpt lat="44.76047" lon="0.44928">
        <ele>97.4</ele>
        <time>2025-07-14T07:04:11Z</time>
      </trkpt>
      <trkpt lat="44.76045" lon="0.44925">
        <ele>97.6</ele>
        <time>2025-07-14T07:04:12Z</time>
      </trkpt>
      <trkpt lat="44.76042" lon="0.44922">
        <ele>97.8</ele>
        <time>2025-07-14T07:04:13Z</time>
      </trkpt>
      <trkpt lat="44.7604" lon="0.44919">
        <ele>98</ele>
        <time>2025-07-14T07:04:14Z</time>
      </trkpt>
      <trkpt lat="44.76037" lon="0.44916">
        <ele>98</ele>
        <time>2025-07-14T07:04:15Z</time>
      </trkpt>
      <trkpt lat="44.76035" lon="0.44912">
        <ele>98.2</ele>
        <time>2025-07-14T07:04:16Z</time>
      </trkpt>
      <trkpt lat="44.76032" lon="0.44909">
        <ele>98.4</ele>
        <time>2025-07-14T07:04:17Z</time>
      </trkpt>
      <trkpt lat="44.76029" lon="0.44907">
        <ele>98.4</ele>
        <time>2025-07-14T07:04:18Z</time>
      </trkpt>
      <trkpt lat="44.76026" lon="0.44904">
        <ele>98.4</ele>
        <time>2025-07-14T07:04:19Z</time>
      </trkpt>
      <trkpt lat="44.76023" lon="0.44901">
        <ele>98.6</ele>
        <time>2025-07-14T07:04:20Z</time>
      </trkpt>
      <trkpt lat="44.7602" lon="0.44899">
        <ele>98.8</ele>
        <time>2025-07-14T07:04:21Z</time>
      </trkpt>
      <trkpt lat="44.76018" lon="0.44895">
        <ele>98.8</ele>
        <time>2025-07-14T07:04:22Z</time>
      </trkpt>
      <trkpt lat="44.76015" lon="0.44893">
        <ele>99.2</ele>
        <time>2025-07-14T07:04:23Z</time>
      </trkpt>
      <trkpt lat="44.76012" lon="0.4489">
        <ele>99.4</ele>
        <time>2025-07-14T07:04:24Z</time>
      </trkpt>
      <trkpt lat="44.76009" lon="0.44887">
        <ele>99.4</ele>
        <time>2025-07-14T07:04:25Z</time>
      </trkpt>
      <trkpt lat="44.76007" lon="0.44884">
        <ele>99.6</ele>
        <time>2025-07-14T07:04:26Z</time>
      </trkpt>
      <trkpt lat="44.76004" lon="0.44881">
        <ele>100</ele>
        <time>2025-07-14T07:04:27Z</time>
      </trkpt>
      <trkpt lat="44.76001" lon="0.44878">
        <ele>100.2</ele>
        <time>2025-07-14T07:04:28Z</time>
      </trkpt>
      <trkpt lat="44.75998" lon="0.44875">
        <ele>100.4</ele>
        <time>2025-07-14T07:04:29Z</time>
      </trkpt>
      <trkpt lat="44.75995" lon="0.44872">
        <ele>100.4</ele>
        <time>2025-07-14T07:04:30Z</time>
      </trkpt>
      <trkpt lat="44.75993" lon="0.4487">
        <ele>100.6</ele>
        <time>2025-07-14T07:04:31Z</time>
      </trkpt>
      <trkpt lat="44.7599" lon="0.44867">
        <ele>100.8</ele>
        <time>2025-07-14T07:04:32Z</time>
      </trkpt>
      <trkpt lat="44.75987" lon="0.44864">
        <ele>101</ele>
        <time>2025-07-14T07:04:33Z</time>
      </trkpt>
      <trkpt lat="44.75984" lon="0.44861">
        <ele>101.2</ele>
        <time>2025-07-14T07:04:34Z</time>
      </trkpt>
      <trkpt lat="44.75982" lon="0.44858">
        <ele>101.2</ele>
        <time>2025-07-14T07:04:35Z</time>
      </trkpt>
      <trkpt lat="44.75979" lon="0.44855">
        <ele>101.4</ele>
        <time>2025-07-14T07:04:36Z</time>
      </trkpt>
      <trkpt lat="44.75976" lon="0.44852">
        <ele>101.6</ele>
        <time>2025-07-14T07:04:37Z</time>
      </trkpt>
      <trkpt lat="44.75974" lon="0.44849">
        <ele>101.6</ele>
        <time>2025-07-14T07:04:38Z</time>
      </trkpt>
      <trkpt lat="44.75971" lon="0.44847">
        <ele>101.6</ele>
        <time>2025-07-14T07:04:39Z</time>
      </trkpt>
      <trkpt lat="44.75967" lon="0.44844">
        <ele>101.8</ele>
        <time>2025-07-14T07:04:40Z</time>
      </trkpt>
      <trkpt lat="44.75964" lon="0.44841">
        <ele>101.8</ele>
        <time>2025-07-14T07:04:41Z</time>
      </trkpt>
      <trkpt lat="44.75962" lon="0.44838">
        <ele>102</ele>
        <time>2025-07-14T07:04:42Z</time>
      </trkpt>
      <trkpt lat="44.75959" lon="0.44835">
        <ele>102</ele>
        <time>2025-07-14T07:04:43Z</time>
      </trkpt>
      <trkpt lat="44.75956" lon="0.44833">
        <ele>102</ele>
        <time>2025-07-14T07:04:44Z</time>
      </trkpt>
      <trkpt lat="44.75953" lon="0.4483">
        <ele>102.2</ele>
        <time>2025-07-14T07:04:45Z</time>
      </trkpt>
      <trkpt lat="44.7595" lon="0.44828">
        <ele>102.2</ele>
        <time>2025-07-14T07:04:46Z</time>
      </trkpt>
      <trkpt lat="44.75947" lon="0.44825">
        <ele>102.2</ele>
        <time>2025-07-14T07:04:47Z</time>
      </trkpt>
      <trkpt lat="44.75944" lon="0.44822">
        <ele>102.4</ele>
        <time>2025-07-14T07:04:48Z</time>
      </trkpt>
      <trkpt lat="44.75941" lon="0.4482">
        <ele>102.6</ele>
        <time>2025-07-14T07:04:49Z</time>
      </trkpt>
      <trkpt lat="44.75938" lon="0.44818">
        <ele>102.8</ele>
        <time>2025-07-14T07:04:50Z</time>
      </trkpt>
      <trkpt lat="44.75936" lon="0.44816">
        <ele>103</ele>
        <time>2025-07-14T07:04:51Z</time>
      </trkpt>
      <trkpt lat="44.75933" lon="0.44814">
        <ele>103</ele>
        <time>2025-07-14T07:04:52Z</time>
      </trkpt>
      <trkpt lat="44.7593" lon="0.44812">
        <ele>103.2</ele>
        <time>2025-07-14T07:04:53Z</time>
      </trkpt>
      <trkpt lat="44.75928" lon="0.4481">
        <ele>103.4</ele>
        <time>2025-07-14T07:04:54Z</time>
      </trkpt>
      <trkpt lat="44.75925" lon="0.44808">
        <ele>103.6</ele>
        <time>2025-07-14T07:04:55Z</time>
      </trkpt>
      <trkpt lat="44.75922" lon="0.44806">
        <ele>103.8</ele>
        <time>2025-07-14T07:04:56Z</time>
      </trkpt>
      <trkpt lat="44.7592" lon="0.44804">
        <ele>103.8</ele>
        <time>2025-07-14T07:04:57Z</time>
      </trkpt>
      <trkpt lat="44.75917" lon="0.44802">
        <ele>104</ele>
        <time>2025-07-14T07:04:58Z</time>
      </trkpt>
      <trkpt lat="44.75915" lon="0.448">
        <ele>104.2</ele>
        <time>2025-07-14T07:04:59Z</time>
      </trkpt>
      <trkpt lat="44.75912" lon="0.44797">
        <ele>104.4</ele>
        <time>2025-07-14T07:05:00Z</time>
      </trkpt>
      <trkpt lat="44.7591" lon="0.44795">
        <ele>104.6</ele>
        <time>2025-07-14T07:05:01Z</time>
      </trkpt>
      <trkpt lat="44.75907" lon="0.44793">
        <ele>104.6</ele>
        <time>2025-07-14T07:05:02Z</time>
      </trkpt>
      <trkpt lat="44.75905" lon="0.4479">
        <ele>104.8</ele>
        <time>2025-07-14T07:05:03Z</time>
      </trkpt>
      <trkpt lat="44.75902" lon="0.44788">
        <ele>104.8</ele>
        <time>2025-07-14T07:05:04Z</time>
      </trkpt>
      <trkpt lat="44.75899" lon="0.44785">
        <ele>105</ele>
        <time>2025-07-14T07:05:05Z</time>
      </trkpt>
      <trkpt lat="44.75896" lon="0.44783">
        <ele>105.2</ele>
        <time>2025-07-14T07:05:06Z</time>
      </trkpt>
      <trkpt lat="44.75893" lon="0.44781">
        <ele>105.4</ele>
        <time>2025-07-14T07:05:07Z</time>
      </trkpt>
      <trkpt lat="44.75889" lon="0.4478">
        <ele>105.6</ele>
        <time>2025-07-14T07:05:08Z</time>
      </trkpt>
      <trkpt lat="44.75885" lon="0.44779">
        <ele>105.6</ele>
        <time>2025-07-14T07:05:09Z</time>
      </trkpt>
      <trkpt lat="44.75882" lon="0.44779">
        <ele>105.8</ele>
        <time>2025-07-14T07:05:10Z</time>
      </trkpt>
      <trkpt lat="44.75878" lon="0.4478">
        <ele>105.8</ele>
        <time>2025-07-14T07:05:11Z</time>
      </trkpt>
      <trkpt lat="44.75875" lon="0.44781">
        <ele>106</ele>
        <time>2025-07-14T07:05:12Z</time>
      </trkpt>
      <trkpt lat="44.75872" lon="0.44782">
        <ele>106.2</ele>
        <time>2025-07-14T07:05:13Z</time>
      </trkpt>
      <trkpt lat="44.75869" lon="0.44784">
        <ele>106.4</ele>
        <time>2025-07-14T07:05:14Z</time>
      </trkpt>
      <trkpt lat="44.75865" lon="0.44786">
        <ele>106.4</ele>
        <time>2025-07-14T07:05:15Z</time>
      </trkpt>
      <trkpt lat="44.75862" lon="0.44787">
        <ele>106.4</ele>
        <time>2025-07-14T07:05:16Z</time>
      </trkpt>
      <trkpt lat="44.75858" lon="0.44789">
        <ele>106.4</ele>
        <time>2025-07-14T07:05:17Z</time>
      </trkpt>
      <trkpt lat="44.75855" lon="0.44792">
        <ele>106.6</ele>
        <time>2025-07-14T07:05:18Z</time>
      </trkpt>
      <trkpt lat="44.75852" lon="0.44795">
        <ele>106.6</ele>
        <time>2025-07-14T07:05:19Z</time>
      </trkpt>
      <trkpt lat="44.75851" lon="0.44799">
        <ele>106.6</ele>
        <time>2025-07-14T07:05:20Z</time>
      </trkpt>
      <trkpt lat="44.75851" lon="0.44805">
        <ele>106.6</ele>
        <time>2025-07-14T07:05:21Z</time>
      </trkpt>
      <trkpt lat="44.75852" lon="0.44809">
        <ele>106.8</ele>
        <time>2025-07-14T07:05:22Z</time>
      </trkpt>
      <trkpt lat="44.75854" lon="0.44814">
        <ele>106.8</ele>
        <time>2025-07-14T07:05:23Z</time>
      </trkpt>
      <trkpt lat="44.75855" lon="0.44819">
        <ele>106.8</ele>
        <time>2025-07-14T07:05:24Z</time>
      </trkpt>
      <trkpt lat="44.75857" lon="0.44823">
        <ele>107</ele>
        <time>2025-07-14T07:05:25Z</time>
      </trkpt>
      <trkpt lat="44.75858" lon="0.44828">
        <ele>107</ele>
        <time>2025-07-14T07:05:26Z</time>
      </trkpt>
      <trkpt lat="44.7586" lon="0.44833">
        <ele>107</ele>
        <time>2025-07-14T07:05:27Z</time>
      </trkpt>
      <trkpt lat="44.75861" lon="0.44838">
        <ele>107</ele>
        <time>2025-07-14T07:05:28Z</time>
      </trkpt>
      <trkpt lat="44.75862" lon="0.44842">
        <ele>107</ele>
        <time>2025-07-14T07:05:29Z</time>
      </trkpt>
      <trkpt lat="44.75863" lon="0.44847">
        <ele>107.2</ele>
        <time>2025-07-14T07:05:30Z</time>
      </trkpt>
      <trkpt lat="44.75863" lon="0.44852">
        <ele>107.2</ele>
        <time>2025-07-14T07:05:31Z</time>
      </trkpt>
      <trkpt lat="44.75865" lon="0.44857">
        <ele>107.4</ele>
        <time>2025-07-14T07:05:32Z</time>
      </trkpt>
      <trkpt lat="44.75866" lon="0.44862">
        <ele>107.4</ele>
        <time>2025-07-14T07:05:33Z</time>
      </trkpt>
      <trkpt lat="44.75867" lon="0.44866">
        <ele>107.4</ele>
        <time>2025-07-14T07:05:34Z</time>
      </trkpt>
      <trkpt lat="44.75867" lon="0.44871">
        <ele>107.6</ele>
        <time>2025-07-14T07:05:35Z</time>
      </trkpt>
      <trkpt lat="44.75868" lon="0.44877">
        <ele>107.6</ele>
        <time>2025-07-14T07:05:36Z</time>
      </trkpt>
      <trkpt lat="44.75869" lon="0.44883">
        <ele>107.8</ele>
        <time>2025-07-14T07:05:37Z</time>
      </trkpt>
      <trkpt lat="44.7587" lon="0.44888">
        <ele>108</ele>
        <time>2025-07-14T07:05:38Z</time>
      </trkpt>
      <trkpt lat="44.75871" lon="0.44894">
        <ele>108</ele>
        <time>2025-07-14T07:05:39Z</time>
      </trkpt>
      <trkpt lat="44.75871" lon="0.449">
        <ele>108.2</ele>
        <time>2025-07-14T07:05:40Z</time>
      </trkpt>
      <trkpt lat="44.7587" lon="0.44905">
        <ele>108.2</ele>
        <time>2025-07-14T07:05:41Z</time>
      </trkpt>
      <trkpt lat="44.7587" lon="0.44911">
        <ele>108.2</ele>
        <time>2025-07-14T07:05:42Z</time>
      </trkpt>
      <trkpt lat="44.75869" lon="0.44916">
        <ele>108.4</ele>
        <time>2025-07-14T07:05:43Z</time>
      </trkpt>
      <trkpt lat="44.75869" lon="0.44922">
        <ele>108.4</ele>
        <time>2025-07-14T07:05:44Z</time>
      </trkpt>
      <trkpt lat="44.75869" lon="0.44927">
        <ele>108.4</ele>
        <time>2025-07-14T07:05:45Z</time>
      </trkpt>
      <trkpt lat="44.75869" lon="0.44933">
        <ele>108.4</ele>
        <time>2025-07-14T07:05:46Z</time>
      </trkpt>
      <trkpt lat="44.7587" lon="0.4494">
        <ele>108.4</ele>
        <time>2025-07-14T07:05:47Z</time>
      </trkpt>
      <trkpt lat="44.75871" lon="0.44947">
        <ele>108.4</ele>
        <time>2025-07-14T07:05:48Z</time>
      </trkpt>
      <trkpt lat="44.7587" lon="0.44954">
        <ele>108.4</ele>
        <time>2025-07-14T07:05:49Z</time>
      </trkpt>
      <trkpt lat="44.7587" lon="0.44961">
        <ele>108.2</ele>
        <time>2025-07-14T07:05:50Z</time>
      </trkpt>
      <trkpt lat="44.75868" lon="0.44969">
        <ele>108.2</ele>
        <time>2025-07-14T07:05:51Z</time>
      </trkpt>
      <trkpt lat="44.75867" lon="0.44976">
        <ele>108</ele>
        <time>2025-07-14T07:05:52Z</time>
      </trkpt>
      <trkpt lat="44.75865" lon="0.44983">
        <ele>108</ele>
        <time>2025-07-14T07:05:53Z</time>
      </trkpt>
      <trkpt lat="44.75862" lon="0.44991">
        <ele>107.8</ele>
        <time>2025-07-14T07:05:54Z</time>
      </trkpt>
      <trkpt lat="44.7586" lon="0.44998">
        <ele>107.8</ele>
        <time>2025-07-14T07:05:55Z</time>
      </trkpt>
      <trkpt lat="44.75857" lon="0.45005">
        <ele>107.6</ele>
        <time>2025-07-14T07:05:56Z</time>
      </trkpt>
      <trkpt lat="44.75854" lon="0.45013">
        <ele>107.6</ele>
        <time>2025-07-14T07:05:57Z</time>
      </trkpt>
      <trkpt lat="44.75852" lon="0.4502">
        <ele>107.4</ele>
        <time>2025-07-14T07:05:58Z</time>
      </trkpt>
      <trkpt lat="44.75849" lon="0.45027">
        <ele>107.2</ele>
        <time>2025-07-14T07:05:59Z</time>
      </trkpt>
      <trkpt lat="44.75846" lon="0.45034">
        <ele>107.2</ele>
        <time>2025-07-14T07:06:00Z</time>
      </trkpt>
      <trkpt lat="44.75844" lon="0.45041">
        <ele>107.2</ele>
        <time>2025-07-14T07:06:01Z</time>
      </trkpt>
      <trkpt lat="44.75842" lon="0.45048">
        <ele>107</ele>
        <time>2025-07-14T07:06:02Z</time>
      </trkpt>
      <trkpt lat="44.75839" lon="0.45055">
        <ele>107</ele>
        <time>2025-07-14T07:06:03Z</time>
      </trkpt>
      <trkpt lat="44.75837" lon="0.45062">
        <ele>106.8</ele>
        <time>2025-07-14T07:06:04Z</time>
      </trkpt>
      <trkpt lat="44.75835" lon="0.45068">
        <ele>106.8</ele>
        <time>2025-07-14T07:06:05Z</time>
      </trkpt>
      <trkpt lat="44.75835" lon="0.45075">
        <ele>106.8</ele>
        <time>2025-07-14T07:06:06Z</time>
      </trkpt>
      <trkpt lat="44.75837" lon="0.45082">
        <ele>106.8</ele>
        <time>2025-07-14T07:06:07Z</time>
      </trkpt>
      <trkpt lat="44.7584" lon="0.45087">
        <ele>106.6</ele>
        <time>2025-07-14T07:06:08Z</time>
      </trkpt>
      <trkpt lat="44.75845" lon="0.45091">
        <ele>106.6</ele>
        <time>2025-07-14T07:06:09Z</time>
      </trkpt>
      <trkpt lat="44.75851" lon="0.45095">
        <ele>106.4</ele>
        <time>2025-07-14T07:06:10Z</time>
      </trkpt>
      <trkpt lat="44.75857" lon="0.45097">
        <ele>106.2</ele>
        <time>2025-07-14T07:06:11Z</time>
      </trkpt>
      <trkpt lat="44.75864" lon="0.45101">
        <ele>106</ele>
        <time>2025-07-14T07:06:12Z</time>
      </trkpt>
      <trkpt lat="44.75871" lon="0.45105">
        <ele>105.6</ele>
        <time>2025-07-14T07:06:13Z</time>
      </trkpt>
      <trkpt lat="44.75878" lon="0.4511">
        <ele>105.2</ele>
        <time>2025-07-14T07:06:14Z</time>
      </trkpt>
      <trkpt lat="44.75886" lon="0.45114">
        <ele>104.6</ele>
        <time>2025-07-14T07:06:15Z</time>
      </trkpt>
      <trkpt lat="44.75894" lon="0.45118">
        <ele>104</ele>
        <time>2025-07-14T07:06:16Z</time>
      </trkpt>
      <trkpt lat="44.75903" lon="0.45122">
        <ele>103.4</ele>
        <time>2025-07-14T07:06:17Z</time>
      </trkpt>
      <trkpt lat="44.75912" lon="0.45127">
        <ele>102.6</ele>
        <time>2025-07-14T07:06:18Z</time>
      </trkpt>
      <trkpt lat="44.75921" lon="0.45133">
        <ele>102</ele>
        <time>2025-07-14T07:06:19Z</time>
      </trkpt>
      <trkpt lat="44.7593" lon="0.4514">
        <ele>101.2</ele>
        <time>2025-07-14T07:06:20Z</time>
      </trkpt>
      <trkpt lat="44.75939" lon="0.45146">
        <ele>100.4</ele>
        <time>2025-07-14T07:06:21Z</time>
      </trkpt>
      <trkpt lat="44.75948" lon="0.45153">
        <ele>99.6</ele>
        <time>2025-07-14T07:06:22Z</time>
      </trkpt>
      <trkpt lat="44.75957" lon="0.45161">
        <ele>98.8</ele>
        <time>2025-07-14T07:06:23Z</time>
      </trkpt>
      <trkpt lat="44.75965" lon="0.45168">
        <ele>98</ele>
        <time>2025-07-14T07:06:24Z</time>
      </trkpt>
      <trkpt lat="44.75973" lon="0.45176">
        <ele>97.4</ele>
        <time>2025-07-14T07:06:25Z</time>
      </trkpt>
      <trkpt lat="44.75981" lon="0.45185">
        <ele>96.8</ele>
        <time>2025-07-14T07:06:26Z</time>
      </trkpt>
      <trkpt lat="44.75989" lon="0.45193">
        <ele>96.4</ele>
        <time>2025-07-14T07:06:27Z</time>
      </trkpt>
      <trkpt lat="44.75997" lon="0.45202">
        <ele>96</ele>
        <time>2025-07-14T07:06:28Z</time>
      </trkpt>
      <trkpt lat="44.76004" lon="0.4521">
        <ele>95.6</ele>
        <time>2025-07-14T07:06:29Z</time>
      </trkpt>
      <trkpt lat="44.76012" lon="0.45219">
        <ele>95.2</ele>
        <time>2025-07-14T07:06:30Z</time>
      </trkpt>
      <trkpt lat="44.76018" lon="0.45228">
        <ele>94.8</ele>
        <time>2025-07-14T07:06:31Z</time>
      </trkpt>
      <trkpt lat="44.76025" lon="0.45237">
        <ele>94.6</ele>
        <time>2025-07-14T07:06:32Z</time>
      </trkpt>
      <trkpt lat="44.76031" lon="0.45246">
        <ele>94.4</ele>
        <time>2025-07-14T07:06:33Z</time>
      </trkpt>
      <trkpt lat="44.76037" lon="0.45256">
        <ele>94</ele>
        <time>2025-07-14T07:06:34Z</time>
      </trkpt>
      <trkpt lat="44.76043" lon="0.45266">
        <ele>93.8</ele>
        <time>2025-07-14T07:06:35Z</time>
      </trkpt>
      <trkpt lat="44.76048" lon="0.45276">
        <ele>93.6</ele>
        <time>2025-07-14T07:06:36Z</time>
      </trkpt>
      <trkpt lat="44.76054" lon="0.45286">
        <ele>93.2</ele>
        <time>2025-07-14T07:06:37Z</time>
      </trkpt>
      <trkpt lat="44.76059" lon="0.45297">
        <ele>93</ele>
        <time>2025-07-14T07:06:38Z</time>
      </trkpt>
      <trkpt lat="44.76065" lon="0.45307">
        <ele>92.6</ele>
        <time>2025-07-14T07:06:39Z</time>
      </trkpt>
      <trkpt lat="44.76071" lon="0.45317">
        <ele>92.2</ele>
        <time>2025-07-14T07:06:40Z</time>
      </trkpt>
      <trkpt lat="44.76077" lon="0.45327">
        <ele>91.8</ele>
        <time>2025-07-14T07:06:41Z</time>
      </trkpt>
      <trkpt lat="44.76083" lon="0.45338">
        <ele>91.2</ele>
        <time>2025-07-14T07:06:42Z</time>
      </trkpt>
      <trkpt lat="44.76088" lon="0.45349">
        <ele>90.8</ele>
        <time>2025-07-14T07:06:43Z</time>
      </trkpt>
      <trkpt lat="44.76093" lon="0.45359">
        <ele>90.6</ele>
        <time>2025-07-14T07:06:44Z</time>
      </trkpt>
      <trkpt lat="44.76097" lon="0.45367">
        <ele>90.2</ele>
        <time>2025-07-14T07:06:45Z</time>
      </trkpt>
      <trkpt lat="44.761" lon="0.45374">
        <ele>90</ele>
        <time>2025-07-14T07:06:46Z</time>
      </trkpt>
      <trkpt lat="44.76104" lon="0.45377">
        <ele>90</ele>
        <time>2025-07-14T07:06:47Z</time>
      </trkpt>
      <trkpt lat="44.76108" lon="0.45376">
        <ele>90</ele>
        <time>2025-07-14T07:06:48Z</time>
      </trkpt>
      <trkpt lat="44.7611" lon="0.45373">
        <ele>90</ele>
        <time>2025-07-14T07:06:49Z</time>
      </trkpt>
      <trkpt lat="44.76112" lon="0.4537">
        <ele>90.2</ele>
        <time>2025-07-14T07:06:50Z</time>
      </trkpt>
      <trkpt lat="44.76115" lon="0.45368">
        <ele>90.2</ele>
        <time>2025-07-14T07:06:51Z</time>
      </trkpt>
      <trkpt lat="44.76117" lon="0.45365">
        <ele>90.2</ele>
        <time>2025-07-14T07:06:52Z</time>
      </trkpt>
      <trkpt lat="44.76118" lon="0.45361">
        <ele>90.2</ele>
        <time>2025-07-14T07:06:53Z</time>
      </trkpt>
      <trkpt lat="44.7612" lon="0.45359">
        <ele>90.2</ele>
        <time>2025-07-14T07:06:54Z</time>
      </trkpt>
      <trkpt lat="44.76123" lon="0.45357">
        <ele>90.2</ele>
        <time>2025-07-14T07:06:55Z</time>
      </trkpt>
      <trkpt lat="44.76125" lon="0.45355">
        <ele>90.2</ele>
        <time>2025-07-14T07:06:56Z</time>
      </trkpt>
      <trkpt lat="44.76128" lon="0.45352">
        <ele>90.2</ele>
        <time>2025-07-14T07:06:57Z</time>
      </trkpt>
      <trkpt lat="44.76131" lon="0.45349">
        <ele>90.2</ele>
        <time>2025-07-14T07:06:58Z</time>
      </trkpt>
      <trkpt lat="44.76133" lon="0.45344">
        <ele>90</ele>
        <time>2025-07-14T07:06:59Z</time>
      </trkpt>
      <trkpt lat="44.76136" lon="0.45339">
        <ele>90</ele>
        <time>2025-07-14T07:07:00Z</time>
      </trkpt>
      <trkpt lat="44.76138" lon="0.45336">
        <ele>89.6</ele>
        <time>2025-07-14T07:07:01Z</time>
      </trkpt>
      <trkpt lat="44.76141" lon="0.45331">
        <ele>89.4</ele>
        <time>2025-07-14T07:07:02Z</time>
      </trkpt>
      <trkpt lat="44.76144" lon="0.45327">
        <ele>89</ele>
        <time>2025-07-14T07:07:03Z</time>
      </trkpt>
      <trkpt lat="44.76147" lon="0.45325">
        <ele>88.8</ele>
        <time>2025-07-14T07:07:04Z</time>
      </trkpt>
      <trkpt lat="44.76149" lon="0.45325">
        <ele>88.6</ele>
        <time>2025-07-14T07:07:05Z</time>
      </trkpt>
      <trkpt lat="44.76152" lon="0.45323">
        <ele>88.6</ele>
        <time>2025-07-14T07:07:06Z</time>
      </trkpt>
      <trkpt lat="44.76154" lon="0.45321">
        <ele>88.6</ele>
        <time>2025-07-14T07:07:07Z</time>
      </trkpt>
      <trkpt lat="44.76156" lon="0.45318">
        <ele>88.6</ele>
        <time>2025-07-14T07:07:08Z</time>
      </trkpt>
      <trkpt lat="44.76159" lon="0.45316">
        <ele>88.8</ele>
        <time>2025-07-14T07:07:09Z</time>
      </trkpt>
      <trkpt lat="44.76162" lon="0.45314">
        <ele>88.8</ele>
        <time>2025-07-14T07:07:10Z</time>
      </trkpt>
      <trkpt lat="44.76164" lon="0.45311">
        <ele>89</ele>
        <time>2025-07-14T07:07:11Z</time>
      </trkpt>
      <trkpt lat="44.76167" lon="0.4531">
        <ele>89</ele>
        <time>2025-07-14T07:07:12Z</time>
      </trkpt>
      <trkpt lat="44.76169" lon="0.45308">
        <ele>89.2</ele>
        <time>2025-07-14T07:07:13Z</time>
      </trkpt>
      <trkpt lat="44.76172" lon="0.45306">
        <ele>89.2</ele>
        <time>2025-07-14T07:07:14Z</time>
      </trkpt>
      <trkpt lat="44.76176" lon="0.45305">
        <ele>89.4</ele>
        <time>2025-07-14T07:07:15Z</time>
      </trkpt>
      <trkpt lat="44.76179" lon="0.45305">
        <ele>89.4</ele>
        <time>2025-07-14T07:07:16Z</time>
      </trkpt>
      <trkpt lat="44.76183" lon="0.45304">
        <ele>89.4</ele>
        <time>2025-07-14T07:07:17Z</time>
      </trkpt>
      <trkpt lat="44.76187" lon="0.45302">
        <ele>89.4</ele>
        <time>2025-07-14T07:07:18Z</time>
      </trkpt>
      <trkpt lat="44.76191" lon="0.45301">
        <ele>89.4</ele>
        <time>2025-07-14T07:07:19Z</time>
      </trkpt>
      <trkpt lat="44.76194" lon="0.45301">
        <ele>89.4</ele>
        <time>2025-07-14T07:07:20Z</time>
      </trkpt>
      <trkpt lat="44.76198" lon="0.45302">
        <ele>89.4</ele>
        <time>2025-07-14T07:07:21Z</time>
      </trkpt>
      <trkpt lat="44.76202" lon="0.45301">
        <ele>89.4</ele>
        <time>2025-07-14T07:07:22Z</time>
      </trkpt>
      <trkpt lat="44.76205" lon="0.453">
        <ele>89.4</ele>
        <time>2025-07-14T07:07:23Z</time>
      </trkpt>
      <trkpt lat="44.76208" lon="0.453">
        <ele>89.4</ele>
        <time>2025-07-14T07:07:24Z</time>
      </trkpt>
      <trkpt lat="44.76211" lon="0.453">
        <ele>89.4</ele>
        <time>2025-07-14T07:07:25Z</time>
      </trkpt>
      <trkpt lat="44.76213" lon="0.453">
        <ele>89.6</ele>
        <time>2025-07-14T07:07:26Z</time>
      </trkpt>
      <trkpt lat="44.76216" lon="0.453">
        <ele>89.6</ele>
        <time>2025-07-14T07:07:27Z</time>
      </trkpt>
      <trkpt lat="44.76218" lon="0.453">
        <ele>89.8</ele>
        <time>2025-07-14T07:07:28Z</time>
      </trkpt>
      <trkpt lat="44.76221" lon="0.453">
        <ele>89.8</ele>
        <time>2025-07-14T07:07:29Z</time>
      </trkpt>
      <trkpt lat="44.76223" lon="0.453">
        <ele>89.8</ele>
        <time>2025-07-14T07:07:30Z</time>
      </trkpt>
      <trkpt lat="44.76225" lon="0.45299">
        <ele>89.8</ele>
        <time>2025-07-14T07:07:31Z</time>
      </trkpt>
      <trkpt lat="44.76228" lon="0.45298">
        <ele>89.8</ele>
        <time>2025-07-14T07:07:32Z</time>
      </trkpt>
      <trkpt lat="44.7623" lon="0.45298">
        <ele>89.8</ele>
        <time>2025-07-14T07:07:33Z</time>
      </trkpt>
      <trkpt lat="44.76232" lon="0.45297">
        <ele>89.8</ele>
        <time>2025-07-14T07:07:34Z</time>
      </trkpt>
      <trkpt lat="44.76235" lon="0.45296">
        <ele>90</ele>
        <time>2025-07-14T07:07:35Z</time>
      </trkpt>
      <trkpt lat="44.76238" lon="0.45295">
        <ele>90</ele>
        <time>2025-07-14T07:07:36Z</time>
      </trkpt>
      <trkpt lat="44.7624" lon="0.45295">
        <ele>90.2</ele>
        <time>2025-07-14T07:07:37Z</time>
      </trkpt>
      <trkpt lat="44.76243" lon="0.45293">
        <ele>90.2</ele>
        <time>2025-07-14T07:07:38Z</time>
      </trkpt>
      <trkpt lat="44.76245" lon="0.45291">
        <ele>90.2</ele>
        <time>2025-07-14T07:07:39Z</time>
      </trkpt>
      <trkpt lat="44.76248" lon="0.4529">
        <ele>90.4</ele>
        <time>2025-07-14T07:07:40Z</time>
      </trkpt>
      <trkpt lat="44.76252" lon="0.45289">
        <ele>90.4</ele>
        <time>2025-07-14T07:07:41Z</time>
      </trkpt>
      <trkpt lat="44.76255" lon="0.45289">
        <ele>90.4</ele>
        <time>2025-07-14T07:07:42Z</time>
      </trkpt>
      <trkpt lat="44.76257" lon="0.4529">
        <ele>90.4</ele>
        <time>2025-07-14T07:07:43Z</time>
      </trkpt>
      <trkpt lat="44.7626" lon="0.45289">
        <ele>90.4</ele>
        <time>2025-07-14T07:07:44Z</time>
      </trkpt>
      <trkpt lat="44.76262" lon="0.45287">
        <ele>90.6</ele>
        <time>2025-07-14T07:07:45Z</time>
      </trkpt>
      <trkpt lat="44.76265" lon="0.45285">
        <ele>90.6</ele>
        <time>2025-07-14T07:07:46Z</time>
      </trkpt>
      <trkpt lat="44.76267" lon="0.45282">
        <ele>90.8</ele>
        <time>2025-07-14T07:07:47Z</time>
      </trkpt>
      <trkpt lat="44.7627" lon="0.4528">
        <ele>90.8</ele>
        <time>2025-07-14T07:07:48Z</time>
      </trkpt>
      <trkpt lat="44.76273" lon="0.45277">
        <ele>90.8</ele>
        <time>2025-07-14T07:07:49Z</time>
      </trkpt>
      <trkpt lat="44.76276" lon="0.45275">
        <ele>91</ele>
        <time>2025-07-14T07:07:50Z</time>
      </trkpt>
      <trkpt lat="44.7628" lon="0.45272">
        <ele>91</ele>
        <time>2025-07-14T07:07:51Z</time>
      </trkpt>
      <trkpt lat="44.76283" lon="0.45268">
        <ele>90.8</ele>
        <time>2025-07-14T07:07:52Z</time>
      </trkpt>
      <trkpt lat="44.76285" lon="0.45263">
        <ele>90.8</ele>
        <time>2025-07-14T07:07:53Z</time>
      </trkpt>
      <trkpt lat="44.76288" lon="0.45257">
        <ele>90.8</ele>
        <time>2025-07-14T07:07:54Z</time>
      </trkpt>
      <trkpt lat="44.7629" lon="0.45253">
        <ele>90.6</ele>
        <time>2025-07-14T07:07:55Z</time>
      </trkpt>
      <trkpt lat="44.76293" lon="0.45248">
        <ele>90.6</ele>
        <time>2025-07-14T07:07:56Z</time>
      </trkpt>
      <trkpt lat="44.76297" lon="0.45243">
        <ele>90.6</ele>
        <time>2025-07-14T07:07:57Z</time>
      </trkpt>
      <trkpt lat="44.763" lon="0.45238">
        <ele>90.4</ele>
        <time>2025-07-14T07:07:58Z</time>
      </trkpt>
      <trkpt lat="44.76303" lon="0.45233">
        <ele>90.4</ele>
        <time>2025-07-14T07:07:59Z</time>
      </trkpt>
      <trkpt lat="44.76306" lon="0.45227">
        <ele>90.2</ele>
        <time>2025-07-14T07:08:00Z</time>
      </trkpt>
      <trkpt lat="44.76308" lon="0.45223">
        <ele>90</ele>
        <time>2025-07-14T07:08:01Z</time>
      </trkpt>
      <trkpt lat="44.7631" lon="0.4522">
        <ele>89.6</ele>
        <time>2025-07-14T07:08:02Z</time>
      </trkpt>
      <trkpt lat="44.76312" lon="0.45217">
        <ele>89.4</ele>
        <time>2025-07-14T07:08:03Z</time>
      </trkpt>
      <trkpt lat="44.76314" lon="0.45214">
        <ele>89.2</ele>
        <time>2025-07-14T07:08:04Z</time>
      </trkpt>
      <trkpt lat="44.76316" lon="0.45211">
        <ele>89</ele>
        <time>2025-07-14T07:08:05Z</time>
      </trkpt>
      <trkpt lat="44.76318" lon="0.45209">
        <ele>88.8</ele>
        <time>2025-07-14T07:08:06Z</time>
      </trkpt>
      <trkpt lat="44.7632" lon="0.45208">
        <ele>88.4</ele>
        <time>2025-07-14T07:08:07Z</time>
      </trkpt>
      <trkpt lat="44.76321" lon="0.45206">
        <ele>88.2</ele>
        <time>2025-07-14T07:08:08Z</time>
      </trkpt>
      <trkpt lat="44.76323" lon="0.45204">
        <ele>88</ele>
        <time>2025-07-14T07:08:09Z</time>
      </trkpt>
      <trkpt lat="44.76324" lon="0.45203">
        <ele>87.6</ele>
        <time>2025-07-14T07:08:10Z</time>
      </trkpt>
      <trkpt lat="44.76325" lon="0.452">
        <ele>87.4</ele>
        <time>2025-07-14T07:08:11Z</time>
      </trkpt>
      <trkpt lat="44.76328" lon="0.45199">
        <ele>87.2</ele>
        <time>2025-07-14T07:08:12Z</time>
      </trkpt>
      <trkpt lat="44.76329" lon="0.45197">
        <ele>86.8</ele>
        <time>2025-07-14T07:08:13Z</time>
      </trkpt>
      <trkpt lat="44.76332" lon="0.45196">
        <ele>86.4</ele>
        <time>2025-07-14T07:08:14Z</time>
      </trkpt>
      <trkpt lat="44.76335" lon="0.45194">
        <ele>86</ele>
        <time>2025-07-14T07:08:15Z</time>
      </trkpt>
      <trkpt lat="44.76339" lon="0.45193">
        <ele>85.8</ele>
        <time>2025-07-14T07:08:16Z</time>
      </trkpt>
      <trkpt lat="44.76342" lon="0.45192">
        <ele>85.4</ele>
        <time>2025-07-14T07:08:17Z</time>
      </trkpt>
      <trkpt lat="44.76344" lon="0.45192">
        <ele>85.2</ele>
        <time>2025-07-14T07:08:18Z</time>
      </trkpt>
      <trkpt lat="44.76347" lon="0.45192">
        <ele>84.8</ele>
        <time>2025-07-14T07:08:19Z</time>
      </trkpt>
      <trkpt lat="44.7635" lon="0.45191">
        <ele>84.6</ele>
        <time>2025-07-14T07:08:20Z</time>
      </trkpt>
      <trkpt lat="44.76353" lon="0.45192">
        <ele>84.2</ele>
        <time>2025-07-14T07:08:21Z</time>
      </trkpt>
      <trkpt lat="44.76356" lon="0.45192">
        <ele>84</ele>
        <time>2025-07-14T07:08:22Z</time>
      </trkpt>
      <trkpt lat="44.76359" lon="0.45193">
        <ele>83.8</ele>
        <time>2025-07-14T07:08:23Z</time>
      </trkpt>
      <trkpt lat="44.76363" lon="0.45192">
        <ele>83.6</ele>
        <time>2025-07-14T07:08:24Z</time>
      </trkpt>
      <trkpt lat="44.76367" lon="0.45192">
        <ele>83.6</ele>
        <time>2025-07-14T07:08:25Z</time>
      </trkpt>
      <trkpt lat="44.76371" lon="0.45192">
        <ele>83.6</ele>
        <time>2025-07-14T07:08:26Z</time>
      </trkpt>
      <trkpt lat="44.76375" lon="0.45192">
        <ele>83.2</ele>
        <time>2025-07-14T07:08:27Z</time>
      </trkpt>
      <trkpt lat="44.76378" lon="0.45191">
        <ele>82.6</ele>
        <time>2025-07-14T07:08:28Z</time>
      </trkpt>
      <trkpt lat="44.76383" lon="0.4519">
        <ele>82.2</ele>
        <time>2025-07-14T07:08:29Z</time>
      </trkpt>
      <trkpt lat="44.76387" lon="0.45188">
        <ele>81.8</ele>
        <time>2025-07-14T07:08:30Z</time>
      </trkpt>
      <trkpt lat="44.7639" lon="0.45187">
        <ele>81.6</ele>
        <time>2025-07-14T07:08:31Z</time>
      </trkpt>
      <trkpt lat="44.76393" lon="0.45185">
        <ele>81.2</ele>
        <time>2025-07-14T07:08:32Z</time>
      </trkpt>
      <trkpt lat="44.76397" lon="0.45183">
        <ele>81</ele>
        <time>2025-07-14T07:08:33Z</time>
      </trkpt>
      <trkpt lat="44.764" lon="0.45181">
        <ele>80.6</ele>
        <time>2025-07-14T07:08:34Z</time>
      </trkpt>
      <trkpt lat="44.76404" lon="0.45179">
        <ele>80.4</ele>
        <time>2025-07-14T07:08:35Z</time>
      </trkpt>
      <trkpt lat="44.76408" lon="0.45179">
        <ele>80</ele>
        <time>2025-07-14T07:08:36Z</time>
      </trkpt>
      <trkpt lat="44.76413" lon="0.45178">
        <ele>79.6</ele>
        <time>2025-07-14T07:08:37Z</time>
      </trkpt>
      <trkpt lat="44.76417" lon="0.45176">
        <ele>79.2</ele>
        <time>2025-07-14T07:08:38Z</time>
      </trkpt>
      <trkpt lat="44.76421" lon="0.45175">
        <ele>78.8</ele>
        <time>2025-07-14T07:08:39Z</time>
      </trkpt>
      <trkpt lat="44.76426" lon="0.45174">
        <ele>78.6</ele>
        <time>2025-07-14T07:08:40Z</time>
      </trkpt>
      <trkpt lat="44.76431" lon="0.45171">
        <ele>78.2</ele>
        <time>2025-07-14T07:08:41Z</time>
      </trkpt>
      <trkpt lat="44.76436" lon="0.4517">
        <ele>78.2</ele>
        <time>2025-07-14T07:08:42Z</time>
      </trkpt>
      <trkpt lat="44.7644" lon="0.45168">
        <ele>78</ele>
        <time>2025-07-14T07:08:43Z</time>
      </trkpt>
      <trkpt lat="44.76445" lon="0.45166">
        <ele>77.8</ele>
        <time>2025-07-14T07:08:44Z</time>
      </trkpt>
      <trkpt lat="44.76449" lon="0.45167">
        <ele>77.8</ele>
        <time>2025-07-14T07:08:45Z</time>
      </trkpt>
      <trkpt lat="44.76452" lon="0.45167">
        <ele>77.8</ele>
        <time>2025-07-14T07:08:46Z</time>
      </trkpt>
      <trkpt lat="44.76454" lon="0.45168">
        <ele>77.6</ele>
        <time>2025-07-14T07:08:47Z</time>
      </trkpt>
      <trkpt lat="44.76457" lon="0.45169">
        <ele>77.8</ele>
        <time>2025-07-14T07:08:48Z</time>
      </trkpt>
      <trkpt lat="44.76459" lon="0.4517">
        <ele>78</ele>
        <time>2025-07-14T07:08:49Z</time>
      </trkpt>
      <trkpt lat="44.76461" lon="0.45171">
        <ele>78.4</ele>
        <time>2025-07-14T07:08:50Z</time>
      </trkpt>
      <trkpt lat="44.76463" lon="0.45172">
        <ele>78.6</ele>
        <time>2025-07-14T07:08:51Z</time>
      </trkpt>
      <trkpt lat="44.76465" lon="0.45172">
        <ele>79.2</ele>
        <time>2025-07-14T07:08:52Z</time>
      </trkpt>
      <trkpt lat="44.76466" lon="0.45172">
        <ele>79.6</ele>
        <time>2025-07-14T07:08:53Z</time>
      </trkpt>
      <trkpt lat="44.76468" lon="0.45171">
        <ele>80</ele>
        <time>2025-07-14T07:08:54Z</time>
      </trkpt>
      <trkpt lat="44.76469" lon="0.45171">
        <ele>80.4</ele>
        <time>2025-07-14T07:08:55Z</time>
      </trkpt>
      <trkpt lat="44.7647" lon="0.45169">
        <ele>80.6</ele>
        <time>2025-07-14T07:08:56Z</time>
      </trkpt>
      <trkpt lat="44.76472" lon="0.45168">
        <ele>81</ele>
        <time>2025-07-14T07:08:57Z</time>
      </trkpt>
      <trkpt lat="44.76473" lon="0.45165">
        <ele>81</ele>
        <time>2025-07-14T07:08:58Z</time>
      </trkpt>
      <trkpt lat="44.76475" lon="0.45162">
        <ele>81</ele>
        <time>2025-07-14T07:08:59Z</time>
      </trkpt>
      <trkpt lat="44.76478" lon="0.45158">
        <ele>80.6</ele>
        <time>2025-07-14T07:09:00Z</time>
      </trkpt>
      <trkpt lat="44.76481" lon="0.45156">
        <ele>80.2</ele>
        <time>2025-07-14T07:09:01Z</time>
      </trkpt>
      <trkpt lat="44.76484" lon="0.45156">
        <ele>79.8</ele>
        <time>2025-07-14T07:09:02Z</time>
      </trkpt>
      <trkpt lat="44.76487" lon="0.45155">
        <ele>79.4</ele>
        <time>2025-07-14T07:09:03Z</time>
      </trkpt>
      <trkpt lat="44.76491" lon="0.45155">
        <ele>79</ele>
        <time>2025-07-14T07:09:04Z</time>
      </trkpt>
      <trkpt lat="44.76494" lon="0.45155">
        <ele>78.8</ele>
        <time>2025-07-14T07:09:05Z</time>
      </trkpt>
      <trkpt lat="44.76497" lon="0.45154">
        <ele>78.6</ele>
        <time>2025-07-14T07:09:06Z</time>
      </trkpt>
      <trkpt lat="44.76501" lon="0.45154">
        <ele>78.6</ele>
        <time>2025-07-14T07:09:07Z</time>
      </trkpt>
      <trkpt lat="44.76504" lon="0.45155">
        <ele>78.4</ele>
        <time>2025-07-14T07:09:08Z</time>
      </trkpt>
      <trkpt lat="44.76508" lon="0.45155">
        <ele>78.4</ele>
        <time>2025-07-14T07:09:09Z</time>
      </trkpt>
      <trkpt lat="44.7651" lon="0.45154">
        <ele>78.4</ele>
        <time>2025-07-14T07:09:10Z</time>
      </trkpt>
      <trkpt lat="44.76514" lon="0.45152">
        <ele>78.4</ele>
        <time>2025-07-14T07:09:11Z</time>
      </trkpt>
      <trkpt lat="44.76518" lon="0.45151">
        <ele>78.4</ele>
        <time>2025-07-14T07:09:12Z</time>
      </trkpt>
      <trkpt lat="44.76521" lon="0.45151">
        <ele>78.4</ele>
        <time>2025-07-14T07:09:13Z</time>
      </trkpt>
      <trkpt lat="44.76525" lon="0.45153">
        <ele>78.2</ele>
        <time>2025-07-14T07:09:14Z</time>
      </trkpt>
      <trkpt lat="44.76528" lon="0.45156">
        <ele>77.8</ele>
        <time>2025-07-14T07:09:15Z</time>
      </trkpt>
      <trkpt lat="44.76531" lon="0.4516">
        <ele>77.6</ele>
        <time>2025-07-14T07:09:16Z</time>
      </trkpt>
      <trkpt lat="44.76534" lon="0.45163">
        <ele>77.2</ele>
        <time>2025-07-14T07:09:17Z</time>
      </trkpt>
      <trkpt lat="44.76536" lon="0.45168">
        <ele>76.8</ele>
        <time>2025-07-14T07:09:18Z</time>
      </trkpt>
      <trkpt lat="44.76539" lon="0.45174">
        <ele>76.6</ele>
        <time>2025-07-14T07:09:19Z</time>
      </trkpt>
      <trkpt lat="44.76541" lon="0.45178">
        <ele>76.4</ele>
        <time>2025-07-14T07:09:20Z</time>
      </trkpt>
      <trkpt lat="44.76545" lon="0.45181">
        <ele>76.2</ele>
        <time>2025-07-14T07:09:21Z</time>
      </trkpt>
      <trkpt lat="44.76548" lon="0.45186">
        <ele>76</ele>
        <time>2025-07-14T07:09:22Z</time>
      </trkpt>
      <trkpt lat="44.76552" lon="0.45192">
        <ele>75.8</ele>
        <time>2025-07-14T07:09:23Z</time>
      </trkpt>
      <trkpt lat="44.76555" lon="0.45197">
        <ele>75.4</ele>
        <time>2025-07-14T07:09:24Z</time>
      </trkpt>
      <trkpt lat="44.76557" lon="0.45204">
        <ele>75.2</ele>
        <time>2025-07-14T07:09:25Z</time>
      </trkpt>
      <trkpt lat="44.76559" lon="0.45212">
        <ele>75</ele>
        <time>2025-07-14T07:09:26Z</time>
      </trkpt>
      <trkpt lat="44.76561" lon="0.45219">
        <ele>74.8</ele>
        <time>2025-07-14T07:09:27Z</time>
      </trkpt>
      <trkpt lat="44.76563" lon="0.45227">
        <ele>74.6</ele>
        <time>2025-07-14T07:09:28Z</time>
      </trkpt>
      <trkpt lat="44.76564" lon="0.45234">
        <ele>74.6</ele>
        <time>2025-07-14T07:09:29Z</time>
      </trkpt>
      <trkpt lat="44.76565" lon="0.45241">
        <ele>74.6</ele>
        <time>2025-07-14T07:09:30Z</time>
      </trkpt>
      <trkpt lat="44.76566" lon="0.45249">
        <ele>74.8</ele>
        <time>2025-07-14T07:09:31Z</time>
      </trkpt>
      <trkpt lat="44.76567" lon="0.45256">
        <ele>74.8</ele>
        <time>2025-07-14T07:09:32Z</time>
      </trkpt>
      <trkpt lat="44.76571" lon="0.4526">
        <ele>74.8</ele>
        <time>2025-07-14T07:09:33Z</time>
      </trkpt>
      <trkpt lat="44.76575" lon="0.45264">
        <ele>74.8</ele>
        <time>2025-07-14T07:09:34Z</time>
      </trkpt>
      <trkpt lat="44.76579" lon="0.45269">
        <ele>74.8</ele>
        <time>2025-07-14T07:09:35Z</time>
      </trkpt>
      <trkpt lat="44.76583" lon="0.45274">
        <ele>74.8</ele>
        <time>2025-07-14T07:09:36Z</time>
      </trkpt>
      <trkpt lat="44.76586" lon="0.4528">
        <ele>74.8</ele>
        <time>2025-07-14T07:09:37Z</time>
      </trkpt>
      <trkpt lat="44.76588" lon="0.45286">
        <ele>75</ele>
        <time>2025-07-14T07:09:38Z</time>
      </trkpt>
      <trkpt lat="44.76588" lon="0.45291">
        <ele>75</ele>
        <time>2025-07-14T07:09:39Z</time>
      </trkpt>
      <trkpt lat="44.7659" lon="0.45297">
        <ele>75</ele>
        <time>2025-07-14T07:09:40Z</time>
      </trkpt>
      <trkpt lat="44.76592" lon="0.45303">
        <ele>75.2</ele>
        <time>2025-07-14T07:09:41Z</time>
      </trkpt>
      <trkpt lat="44.76595" lon="0.45309">
        <ele>75.2</ele>
        <time>2025-07-14T07:09:42Z</time>
      </trkpt>
      <trkpt lat="44.76598" lon="0.45314">
        <ele>75.2</ele>
        <time>2025-07-14T07:09:43Z</time>
      </trkpt>
      <trkpt lat="44.766" lon="0.45319">
        <ele>75.2</ele>
        <time>2025-07-14T07:09:44Z</time>
      </trkpt>
      <trkpt lat="44.76601" lon="0.45323">
        <ele>75.2</ele>
        <time>2025-07-14T07:09:45Z</time>
      </trkpt>
      <trkpt lat="44.76602" lon="0.45328">
        <ele>75</ele>
        <time>2025-07-14T07:09:46Z</time>
      </trkpt>
      <trkpt lat="44.76604" lon="0.45331">
        <ele>75</ele>
        <time>2025-07-14T07:09:47Z</time>
      </trkpt>
      <trkpt lat="44.76606" lon="0.45336">
        <ele>75</ele>
        <time>2025-07-14T07:09:48Z</time>
      </trkpt>
      <trkpt lat="44.76608" lon="0.4534">
        <ele>75</ele>
        <time>2025-07-14T07:09:49Z</time>
      </trkpt>
      <trkpt lat="44.76609" lon="0.45345">
        <ele>75</ele>
        <time>2025-07-14T07:09:50Z</time>
      </trkpt>
      <trkpt lat="44.7661" lon="0.4535">
        <ele>75</ele>
        <time>2025-07-14T07:09:51Z</time>
      </trkpt>
      <trkpt lat="44.76611" lon="0.45355">
        <ele>75.2</ele>
        <time>2025-07-14T07:09:52Z</time>
      </trkpt>
      <trkpt lat="44.76615" lon="0.45359">
        <ele>75.4</ele>
        <time>2025-07-14T07:09:53Z</time>
      </trkpt>
      <trkpt lat="44.76617" lon="0.45363">
        <ele>75.4</ele>
        <time>2025-07-14T07:09:54Z</time>
      </trkpt>
      <trkpt lat="44.76621" lon="0.45367">
        <ele>75.4</ele>
        <time>2025-07-14T07:09:55Z</time>
      </trkpt>
      <trkpt lat="44.76625" lon="0.45372">
        <ele>75.4</ele>
        <time>2025-07-14T07:09:56Z</time>
      </trkpt>
      <trkpt lat="44.76628" lon="0.45377">
        <ele>75.4</ele>
        <time>2025-07-14T07:09:57Z</time>
      </trkpt>
      <trkpt lat="44.76631" lon="0.45383">
        <ele>75.4</ele>
        <time>2025-07-14T07:09:58Z</time>
      </trkpt>
      <trkpt lat="44.76634" lon="0.4539">
        <ele>75.4</ele>
        <time>2025-07-14T07:09:59Z</time>
      </trkpt>
      <trkpt lat="44.76638" lon="0.45395">
        <ele>75.4</ele>
        <time>2025-07-14T07:10:00Z</time>
      </trkpt>
      <trkpt lat="44.76641" lon="0.45402">
        <ele>75.4</ele>
        <time>2025-07-14T07:10:01Z</time>
      </trkpt>
      <trkpt lat="44.76642" lon="0.45409">
        <ele>75.4</ele>
        <time>2025-07-14T07:10:02Z</time>
      </trkpt>
      <trkpt lat="44.76643" lon="0.45416">
        <ele>75.4</ele>
        <time>2025-07-14T07:10:03Z</time>
      </trkpt>
      <trkpt lat="44.76647" lon="0.45419">
        <ele>75.4</ele>
        <time>2025-07-14T07:10:04Z</time>
      </trkpt>
      <trkpt lat="44.76651" lon="0.45421">
        <ele>75.6</ele>
        <time>2025-07-14T07:10:05Z</time>
      </trkpt>
      <trkpt lat="44.76655" lon="0.45424">
        <ele>75.6</ele>
        <time>2025-07-14T07:10:06Z</time>
      </trkpt>
      <trkpt lat="44.76659" lon="0.45428">
        <ele>75.6</ele>
        <time>2025-07-14T07:10:07Z</time>
      </trkpt>
      <trkpt lat="44.76663" lon="0.45431">
        <ele>75.6</ele>
        <time>2025-07-14T07:10:08Z</time>
      </trkpt>
      <trkpt lat="44.76666" lon="0.45436">
        <ele>75.6</ele>
        <time>2025-07-14T07:10:09Z</time>
      </trkpt>
      <trkpt lat="44.76667" lon="0.45441">
        <ele>75.6</ele>
        <time>2025-07-14T07:10:10Z</time>
      </trkpt>
      <trkpt lat="44.7667" lon="0.45443">
        <ele>75.6</ele>
        <time>2025-07-14T07:10:11Z</time>
      </trkpt>
      <trkpt lat="44.76672" lon="0.45442">
        <ele>75.6</ele>
        <time>2025-07-14T07:10:12Z</time>
      </trkpt>
      <trkpt lat="44.76674" lon="0.45441">
        <ele>75.8</ele>
        <time>2025-07-14T07:10:13Z</time>
      </trkpt>
      <trkpt lat="44.76677" lon="0.4544">
        <ele>75.8</ele>
        <time>2025-07-14T07:10:14Z</time>
      </trkpt>
      <trkpt lat="44.76681" lon="0.45438">
        <ele>75.8</ele>
        <time>2025-07-14T07:10:15Z</time>
      </trkpt>
      <trkpt lat="44.76685" lon="0.45434">
        <ele>75.8</ele>
        <time>2025-07-14T07:10:16Z</time>
      </trkpt>
      <trkpt lat="44.7669" lon="0.45435">
        <ele>75.8</ele>
        <time>2025-07-14T07:10:17Z</time>
      </trkpt>
      <trkpt lat="44.76692" lon="0.45437">
        <ele>75.8</ele>
        <time>2025-07-14T07:10:18Z</time>
      </trkpt>
      <trkpt lat="44.76693" lon="0.45441">
        <ele>75.8</ele>
        <time>2025-07-14T07:10:19Z</time>
      </trkpt>
      <trkpt lat="44.76694" lon="0.45445">
        <ele>76</ele>
        <time>2025-07-14T07:10:20Z</time>
      </trkpt>
      <trkpt lat="44.76694" lon="0.45452">
        <ele>76</ele>
        <time>2025-07-14T07:10:21Z</time>
      </trkpt>
      <trkpt lat="44.76694" lon="0.45459">
        <ele>76</ele>
        <time>2025-07-14T07:10:22Z</time>
      </trkpt>
      <trkpt lat="44.76695" lon="0.45465">
        <ele>76.2</ele>
        <time>2025-07-14T07:10:23Z</time>
      </trkpt>
      <trkpt lat="44.76696" lon="0.4547">
        <ele>76.2</ele>
        <time>2025-07-14T07:10:24Z</time>
      </trkpt>
      <trkpt lat="44.76699" lon="0.45472">
        <ele>76.2</ele>
        <time>2025-07-14T07:10:25Z</time>
      </trkpt>
      <trkpt lat="44.76701" lon="0.45473">
        <ele>76.2</ele>
        <time>2025-07-14T07:10:26Z</time>
      </trkpt>
      <trkpt lat="44.76703" lon="0.45474">
        <ele>76.2</ele>
        <time>2025-07-14T07:10:27Z</time>
      </trkpt>
      <trkpt lat="44.76705" lon="0.45475">
        <ele>76.2</ele>
        <time>2025-07-14T07:10:28Z</time>
      </trkpt>
      <trkpt lat="44.76707" lon="0.45477">
        <ele>76.2</ele>
        <time>2025-07-14T07:10:29Z</time>
      </trkpt>
      <trkpt lat="44.76708" lon="0.45479">
        <ele>76.2</ele>
        <time>2025-07-14T07:10:30Z</time>
      </trkpt>
      <trkpt lat="44.7671" lon="0.45481">
        <ele>76</ele>
        <time>2025-07-14T07:10:31Z</time>
      </trkpt>
      <trkpt lat="44.76712" lon="0.45483">
        <ele>76</ele>
        <time>2025-07-14T07:10:32Z</time>
      </trkpt>
      <trkpt lat="44.76715" lon="0.45483">
        <ele>76</ele>
        <time>2025-07-14T07:10:33Z</time>
      </trkpt>
      <trkpt lat="44.76717" lon="0.45482">
        <ele>76</ele>
        <time>2025-07-14T07:10:34Z</time>
      </trkpt>
      <trkpt lat="44.7672" lon="0.4548">
        <ele>76</ele>
        <time>2025-07-14T07:10:35Z</time>
      </trkpt>
      <trkpt lat="44.76724" lon="0.45479">
        <ele>76</ele>
        <time>2025-07-14T07:10:36Z</time>
      </trkpt>
      <trkpt lat="44.76728" lon="0.45479">
        <ele>76</ele>
        <time>2025-07-14T07:10:37Z</time>
      </trkpt>
      <trkpt lat="44.76732" lon="0.45481">
        <ele>76</ele>
        <time>2025-07-14T07:10:38Z</time>
      </trkpt>
      <trkpt lat="44.76735" lon="0.45483">
        <ele>76</ele>
        <time>2025-07-14T07:10:39Z</time>
      </trkpt>
      <trkpt lat="44.76738" lon="0.45486">
        <ele>76</ele>
        <time>2025-07-14T07:10:40Z</time>
      </trkpt>
      <trkpt lat="44.76741" lon="0.45489">
        <ele>76</ele>
        <time>2025-07-14T07:10:41Z</time>
      </trkpt>
      <trkpt lat="44.76744" lon="0.45492">
        <ele>76.2</ele>
        <time>2025-07-14T07:10:42Z</time>
      </trkpt>
      <trkpt lat="44.76747" lon="0.45495">
        <ele>76.2</ele>
        <time>2025-07-14T07:10:43Z</time>
      </trkpt>
      <trkpt lat="44.76751" lon="0.45497">
        <ele>76.2</ele>
        <time>2025-07-14T07:10:44Z</time>
      </trkpt>
      <trkpt lat="44.76755" lon="0.45499">
        <ele>76.4</ele>
        <time>2025-07-14T07:10:45Z</time>
      </trkpt>
      <trkpt lat="44.76758" lon="0.455">
        <ele>76.4</ele>
        <time>2025-07-14T07:10:46Z</time>
      </trkpt>
      <trkpt lat="44.76762" lon="0.45503">
        <ele>76.4</ele>
        <time>2025-07-14T07:10:47Z</time>
      </trkpt>
      <trkpt lat="44.76765" lon="0.45507">
        <ele>76.4</ele>
        <time>2025-07-14T07:10:48Z</time>
      </trkpt>
      <trkpt lat="44.76768" lon="0.4551">
        <ele>76.4</ele>
        <time>2025-07-14T07:10:49Z</time>
      </trkpt>
      <trkpt lat="44.76771" lon="0.45512">
        <ele>76.6</ele>
        <time>2025-07-14T07:10:50Z</time>
      </trkpt>
      <trkpt lat="44.76772" lon="0.45514">
        <ele>76.6</ele>
        <time>2025-07-14T07:10:51Z</time>
      </trkpt>
      <trkpt lat="44.76774" lon="0.45517">
        <ele>76.6</ele>
        <time>2025-07-14T07:10:52Z</time>
      </trkpt>
      <trkpt lat="44.76776" lon="0.4552">
        <ele>76.8</ele>
        <time>2025-07-14T07:10:53Z</time>
      </trkpt>
      <trkpt lat="44.76778" lon="0.45522">
        <ele>76.8</ele>
        <time>2025-07-14T07:10:54Z</time>
      </trkpt>
      <trkpt lat="44.7678" lon="0.45526">
        <ele>77</ele>
        <time>2025-07-14T07:10:55Z</time>
      </trkpt>
      <trkpt lat="44.76782" lon="0.45529">
        <ele>77</ele>
        <time>2025-07-14T07:10:56Z</time>
      </trkpt>
      <trkpt lat="44.76783" lon="0.45533">
        <ele>77</ele>
        <time>2025-07-14T07:10:57Z</time>
      </trkpt>
      <trkpt lat="44.76785" lon="0.45535">
        <ele>77</ele>
        <time>2025-07-14T07:10:58Z</time>
      </trkpt>
      <trkpt lat="44.76786" lon="0.45538">
        <ele>77</ele>
        <time>2025-07-14T07:10:59Z</time>
      </trkpt>
      <trkpt lat="44.76787" lon="0.4554">
        <ele>77</ele>
        <time>2025-07-14T07:11:00Z</time>
      </trkpt>
      <trkpt lat="44.76787" lon="0.45541">
        <ele>77</ele>
        <time>2025-07-14T07:11:01Z</time>
      </trkpt>
      <trkpt lat="44.76788" lon="0.45542">
        <ele>77</ele>
        <time>2025-07-14T07:11:02Z</time>
      </trkpt>
      <trkpt lat="44.76788" lon="0.45543">
        <ele>77</ele>
        <time>2025-07-14T07:11:03Z</time>
      </trkpt>
      <trkpt lat="44.76789" lon="0.45545">
        <ele>77</ele>
        <time>2025-07-14T07:11:04Z</time>
      </trkpt>
      <trkpt lat="44.76789" lon="0.45547">
        <ele>77</ele>
        <time>2025-07-14T07:11:05Z</time>
      </trkpt>
      <trkpt lat="44.76788" lon="0.45549">
        <ele>77</ele>
        <time>2025-07-14T07:11:06Z</time>
      </trkpt>
      <trkpt lat="44.76787" lon="0.4555">
        <ele>77</ele>
        <time>2025-07-14T07:11:07Z</time>
      </trkpt>
      <trkpt lat="44.76787" lon="0.45551">
        <ele>77</ele>
        <time>2025-07-14T07:11:08Z</time>
      </trkpt>
      <trkpt lat="44.76786" lon="0.45553">
        <ele>77</ele>
        <time>2025-07-14T07:11:09Z</time>
      </trkpt>
      <trkpt lat="44.76784" lon="0.45554">
        <ele>77</ele>
        <time>2025-07-14T07:11:10Z</time>
      </trkpt>
      <trkpt lat="44.76783" lon="0.45556">
        <ele>77</ele>
        <time>2025-07-14T07:11:11Z</time>
      </trkpt>
      <trkpt lat="44.76781" lon="0.45558">
        <ele>77</ele>
        <time>2025-07-14T07:11:12Z</time>
      </trkpt>
      <trkpt lat="44.76779" lon="0.4556">
        <ele>77</ele>
        <time>2025-07-14T07:11:13Z</time>
      </trkpt>
      <trkpt lat="44.76778" lon="0.45562">
        <ele>77</ele>
        <time>2025-07-14T07:11:14Z</time>
      </trkpt>
      <trkpt lat="44.76776" lon="0.45565">
        <ele>77</ele>
        <time>2025-07-14T07:11:15Z</time>
      </trkpt>
      <trkpt lat="44.76776" lon="0.45567">
        <ele>77</ele>
        <time>2025-07-14T07:11:16Z</time>
      </trkpt>
      <trkpt lat="44.76776" lon="0.45569">
        <ele>77</ele>
        <time>2025-07-14T07:11:17Z</time>
      </trkpt>
      <trkpt lat="44.76777" lon="0.4557">
        <ele>77.2</ele>
        <time>2025-07-14T07:11:18Z</time>
      </trkpt>
      <trkpt lat="44.76778" lon="0.45569">
        <ele>77.6</ele>
        <time>2025-07-14T07:11:19Z</time>
      </trkpt>
      <trkpt lat="44.7678" lon="0.4557">
        <ele>77.8</ele>
        <time>2025-07-14T07:11:20Z</time>
      </trkpt>
      <trkpt lat="44.76782" lon="0.4557">
        <ele>78.2</ele>
        <time>2025-07-14T07:11:21Z</time>
      </trkpt>
      <trkpt lat="44.76784" lon="0.45571">
        <ele>78.4</ele>
        <time>2025-07-14T07:11:22Z</time>
      </trkpt>
      <trkpt lat="44.76786" lon="0.45573">
        <ele>78.8</ele>
        <time>2025-07-14T07:11:23Z</time>
      </trkpt>
      <trkpt lat="44.76788" lon="0.45574">
        <ele>79</ele>
        <time>2025-07-14T07:11:24Z</time>
      </trkpt>
      <trkpt lat="44.76791" lon="0.45576">
        <ele>79.2</ele>
        <time>2025-07-14T07:11:25Z</time>
      </trkpt>
      <trkpt lat="44.76793" lon="0.45579">
        <ele>79.4</ele>
        <time>2025-07-14T07:11:26Z</time>
      </trkpt>
      <trkpt lat="44.76795" lon="0.45581">
        <ele>79.4</ele>
        <time>2025-07-14T07:11:27Z</time>
      </trkpt>
      <trkpt lat="44.76798" lon="0.45584">
        <ele>79.6</ele>
        <time>2025-07-14T07:11:28Z</time>
      </trkpt>
      <trkpt lat="44.76802" lon="0.45586">
        <ele>79.6</ele>
        <time>2025-07-14T07:11:29Z</time>
      </trkpt>
      <trkpt lat="44.76807" lon="0.45589">
        <ele>79.8</ele>
        <time>2025-07-14T07:11:30Z</time>
      </trkpt>
      <trkpt lat="44.76811" lon="0.4559">
        <ele>79.6</ele>
        <time>2025-07-14T07:11:31Z</time>
      </trkpt>
      <trkpt lat="44.76815" lon="0.45592">
        <ele>79.6</ele>
        <time>2025-07-14T07:11:32Z</time>
      </trkpt>
      <trkpt lat="44.76818" lon="0.45594">
        <ele>79.6</ele>
        <time>2025-07-14T07:11:33Z</time>
      </trkpt>
      <trkpt lat="44.76823" lon="0.45592">
        <ele>79.4</ele>
        <time>2025-07-14T07:11:34Z</time>
      </trkpt>
      <trkpt lat="44.76827" lon="0.4559">
        <ele>79.2</ele>
        <time>2025-07-14T07:11:35Z</time>
      </trkpt>
      <trkpt lat="44.76831" lon="0.45591">
        <ele>79</ele>
        <time>2025-07-14T07:11:36Z</time>
      </trkpt>
      <trkpt lat="44.76835" lon="0.45594">
        <ele>78.8</ele>
        <time>2025-07-14T07:11:37Z</time>
      </trkpt>
      <trkpt lat="44.76837" lon="0.45599">
        <ele>78.4</ele>
        <time>2025-07-14T07:11:38Z</time>
      </trkpt>
      <trkpt lat="44.76839" lon="0.45607">
        <ele>78.2</ele>
        <time>2025-07-14T07:11:39Z</time>
      </trkpt>
      <trkpt lat="44.7684" lon="0.45614">
        <ele>78</ele>
        <time>2025-07-14T07:11:40Z</time>
      </trkpt>
      <trkpt lat="44.76842" lon="0.45621">
        <ele>77.8</ele>
        <time>2025-07-14T07:11:41Z</time>
      </trkpt>
      <trkpt lat="44.76842" lon="0.45628">
        <ele>77.8</ele>
        <time>2025-07-14T07:11:42Z</time>
      </trkpt>
      <trkpt lat="44.76843" lon="0.45636">
        <ele>77.8</ele>
        <time>2025-07-14T07:11:43Z</time>
      </trkpt>
      <trkpt lat="44.76843" lon="0.45643">
        <ele>77.8</ele>
        <time>2025-07-14T07:11:44Z</time>
      </trkpt>
      <trkpt lat="44.76844" lon="0.45651">
        <ele>77.8</ele>
        <time>2025-07-14T07:11:45Z</time>
      </trkpt>
      <trkpt lat="44.76844" lon="0.45658">
        <ele>77.8</ele>
        <time>2025-07-14T07:11:46Z</time>
      </trkpt>
      <trkpt lat="44.76844" lon="0.45665">
        <ele>77.8</ele>
        <time>2025-07-14T07:11:47Z</time>
      </trkpt>
      <trkpt lat="44.76842" lon="0.45672">
        <ele>77.8</ele>
        <time>2025-07-14T07:11:48Z</time>
      </trkpt>
      <trkpt lat="44.7684" lon="0.45679">
        <ele>77.8</ele>
        <time>2025-07-14T07:11:49Z</time>
      </trkpt>
      <trkpt lat="44.76837" lon="0.45684">
        <ele>77.8</ele>
        <time>2025-07-14T07:11:50Z</time>
      </trkpt>
      <trkpt lat="44.76833" lon="0.4569">
        <ele>77.8</ele>
        <time>2025-07-14T07:11:51Z</time>
      </trkpt>
      <trkpt lat="44.76828" lon="0.45695">
        <ele>77.8</ele>
        <time>2025-07-14T07:11:52Z</time>
      </trkpt>
      <trkpt lat="44.76824" lon="0.45698">
        <ele>78</ele>
        <time>2025-07-14T07:11:53Z</time>
      </trkpt>
      <trkpt lat="44.76821" lon="0.45701">
        <ele>78</ele>
        <time>2025-07-14T07:11:54Z</time>
      </trkpt>
      <trkpt lat="44.76817" lon="0.45706">
        <ele>78.2</ele>
        <time>2025-07-14T07:11:55Z</time>
      </trkpt>
      <trkpt lat="44.76815" lon="0.45711">
        <ele>78.2</ele>
        <time>2025-07-14T07:11:56Z</time>
      </trkpt>
      <trkpt lat="44.76813" lon="0.45716">
        <ele>78.2</ele>
        <time>2025-07-14T07:11:57Z</time>
      </trkpt>
      <trkpt lat="44.76812" lon="0.45722">
        <ele>78.4</ele>
        <time>2025-07-14T07:11:58Z</time>
      </trkpt>
      <trkpt lat="44.76813" lon="0.45727">
        <ele>78.4</ele>
        <time>2025-07-14T07:11:59Z</time>
      </trkpt>
      <trkpt lat="44.76812" lon="0.45732">
        <ele>78.2</ele>
        <time>2025-07-14T07:12:00Z</time>
      </trkpt>
      <trkpt lat="44.76812" lon="0.45737">
        <ele>78.2</ele>
        <time>2025-07-14T07:12:01Z</time>
      </trkpt>
      <trkpt lat="44.76811" lon="0.45743">
        <ele>78.2</ele>
        <time>2025-07-14T07:12:02Z</time>
      </trkpt>
      <trkpt lat="44.76811" lon="0.45749">
        <ele>78.2</ele>
        <time>2025-07-14T07:12:03Z</time>
      </trkpt>
      <trkpt lat="44.76811" lon="0.45754">
        <ele>78.2</ele>
        <time>2025-07-14T07:12:04Z</time>
      </trkpt>
      <trkpt lat="44.76811" lon="0.4576">
        <ele>78.4</ele>
        <time>2025-07-14T07:12:05Z</time>
      </trkpt>
      <trkpt lat="44.76811" lon="0.45766">
        <ele>78.4</ele>
        <time>2025-07-14T07:12:06Z</time>
      </trkpt>
      <trkpt lat="44.76811" lon="0.45772">
        <ele>78.6</ele>
        <time>2025-07-14T07:12:07Z</time>
      </trkpt>
      <trkpt lat="44.76812" lon="0.45778">
        <ele>78.8</ele>
        <time>2025-07-14T07:12:08Z</time>
      </trkpt>
      <trkpt lat="44.76811" lon="0.45782">
        <ele>79</ele>
        <time>2025-07-14T07:12:09Z</time>
      </trkpt>
      <trkpt lat="44.76811" lon="0.45786">
        <ele>79.4</ele>
        <time>2025-07-14T07:12:10Z</time>
      </trkpt>
      <trkpt lat="44.7681" lon="0.4579">
        <ele>79.8</ele>
        <time>2025-07-14T07:12:11Z</time>
      </trkpt>
      <trkpt lat="44.76808" lon="0.45792">
        <ele>80.2</ele>
        <time>2025-07-14T07:12:12Z</time>
      </trkpt>
      <trkpt lat="44.76806" lon="0.45794">
        <ele>80.6</ele>
        <time>2025-07-14T07:12:13Z</time>
      </trkpt>
      <trkpt lat="44.76804" lon="0.45793">
        <ele>81</ele>
        <time>2025-07-14T07:12:14Z</time>
      </trkpt>
      <trkpt lat="44.76802" lon="0.45792">
        <ele>81.4</ele>
        <time>2025-07-14T07:12:15Z</time>
      </trkpt>
      <trkpt lat="44.76799" lon="0.45793">
        <ele>81.6</ele>
        <time>2025-07-14T07:12:16Z</time>
      </trkpt>
      <trkpt lat="44.76797" lon="0.45793">
        <ele>81.8</ele>
        <time>2025-07-14T07:12:17Z</time>
      </trkpt>
      <trkpt lat="44.76795" lon="0.45794">
        <ele>82</ele>
        <time>2025-07-14T07:12:18Z</time>
      </trkpt>
      <trkpt lat="44.76793" lon="0.45795">
        <ele>82.2</ele>
        <time>2025-07-14T07:12:19Z</time>
      </trkpt>
      <trkpt lat="44.76791" lon="0.45797">
        <ele>82.4</ele>
        <time>2025-07-14T07:12:20Z</time>
      </trkpt>
      <trkpt lat="44.76788" lon="0.45799">
        <ele>82.6</ele>
        <time>2025-07-14T07:12:21Z</time>
      </trkpt>
      <trkpt lat="44.76786" lon="0.45801">
        <ele>82.8</ele>
        <time>2025-07-14T07:12:22Z</time>
      </trkpt>
      <trkpt lat="44.76784" lon="0.45803">
        <ele>83</ele>
        <time>2025-07-14T07:12:23Z</time>
      </trkpt>
      <trkpt lat="44.76782" lon="0.45805">
        <ele>83.2</ele>
        <time>2025-07-14T07:12:24Z</time>
      </trkpt>
      <trkpt lat="44.76781" lon="0.45808">
        <ele>83.4</ele>
        <time>2025-07-14T07:12:25Z</time>
      </trkpt>
      <trkpt lat="44.7678" lon="0.4581">
        <ele>83.8</ele>
        <time>2025-07-14T07:12:26Z</time>
      </trkpt>
      <trkpt lat="44.76779" lon="0.45813">
        <ele>84</ele>
        <time>2025-07-14T07:12:27Z</time>
      </trkpt>
      <trkpt lat="44.76779" lon="0.45816">
        <ele>84</ele>
        <time>2025-07-14T07:12:28Z</time>
      </trkpt>
      <trkpt lat="44.76778" lon="0.45819">
        <ele>84.2</ele>
        <time>2025-07-14T07:12:29Z</time>
      </trkpt>
      <trkpt lat="44.76777" lon="0.45821">
        <ele>84.4</ele>
        <time>2025-07-14T07:12:30Z</time>
      </trkpt>
      <trkpt lat="44.76776" lon="0.45824">
        <ele>84.6</ele>
        <time>2025-07-14T07:12:31Z</time>
      </trkpt>
      <trkpt lat="44.76775" lon="0.45826">
        <ele>84.6</ele>
        <time>2025-07-14T07:12:32Z</time>
      </trkpt>
      <trkpt lat="44.76774" lon="0.45829">
        <ele>84.8</ele>
        <time>2025-07-14T07:12:33Z</time>
      </trkpt>
      <trkpt lat="44.76772" lon="0.45831">
        <ele>85</ele>
        <time>2025-07-14T07:12:34Z</time>
      </trkpt>
      <trkpt lat="44.76771" lon="0.45834">
        <ele>85.2</ele>
        <time>2025-07-14T07:12:35Z</time>
      </trkpt>
      <trkpt lat="44.7677" lon="0.45836">
        <ele>85.2</ele>
        <time>2025-07-14T07:12:36Z</time>
      </trkpt>
      <trkpt lat="44.76769" lon="0.45838">
        <ele>85.4</ele>
        <time>2025-07-14T07:12:37Z</time>
      </trkpt>
      <trkpt lat="44.76768" lon="0.45841">
        <ele>85.6</ele>
        <time>2025-07-14T07:12:38Z</time>
      </trkpt>
      <trkpt lat="44.76767" lon="0.45843">
        <ele>85.8</ele>
        <time>2025-07-14T07:12:39Z</time>
      </trkpt>
      <trkpt lat="44.76767" lon="0.45846">
        <ele>85.8</ele>
        <time>2025-07-14T07:12:40Z</time>
      </trkpt>
      <trkpt lat="44.76766" lon="0.45849">
        <ele>86</ele>
        <time>2025-07-14T07:12:41Z</time>
      </trkpt>
      <trkpt lat="44.76765" lon="0.45851">
        <ele>86.2</ele>
        <time>2025-07-14T07:12:42Z</time>
      </trkpt>
      <trkpt lat="44.76763" lon="0.45854">
        <ele>86.4</ele>
        <time>2025-07-14T07:12:43Z</time>
      </trkpt>
      <trkpt lat="44.76763" lon="0.45857">
        <ele>86.6</ele>
        <time>2025-07-14T07:12:44Z</time>
      </trkpt>
      <trkpt lat="44.76762" lon="0.4586">
        <ele>86.8</ele>
        <time>2025-07-14T07:12:45Z</time>
      </trkpt>
      <trkpt lat="44.76761" lon="0.45863">
        <ele>87</ele>
        <time>2025-07-14T07:12:46Z</time>
      </trkpt>
      <trkpt lat="44.7676" lon="0.45865">
        <ele>87.2</ele>
        <time>2025-07-14T07:12:47Z</time>
      </trkpt>
      <trkpt lat="44.76758" lon="0.45867">
        <ele>87.4</ele>
        <time>2025-07-14T07:12:48Z</time>
      </trkpt>
      <trkpt lat="44.76757" lon="0.4587">
        <ele>87.4</ele>
        <time>2025-07-14T07:12:49Z</time>
      </trkpt>
      <trkpt lat="44.76757" lon="0.45872">
        <ele>87.6</ele>
        <time>2025-07-14T07:12:50Z</time>
      </trkpt>
      <trkpt lat="44.76756" lon="0.45875">
        <ele>87.8</ele>
        <time>2025-07-14T07:12:51Z</time>
      </trkpt>
      <trkpt lat="44.76755" lon="0.45878">
        <ele>87.8</ele>
        <time>2025-07-14T07:12:52Z</time>
      </trkpt>
      <trkpt lat="44.76753" lon="0.4588">
        <ele>88</ele>
        <time>2025-07-14T07:12:53Z</time>
      </trkpt>
      <trkpt lat="44.76752" lon="0.45883">
        <ele>88.2</ele>
        <time>2025-07-14T07:12:54Z</time>
      </trkpt>
      <trkpt lat="44.76751" lon="0.45885">
        <ele>88.4</ele>
        <time>2025-07-14T07:12:55Z</time>
      </trkpt>
      <trkpt lat="44.7675" lon="0.45888">
        <ele>88.4</ele>
        <time>2025-07-14T07:12:56Z</time>
      </trkpt>
      <trkpt lat="44.76749" lon="0.45891">
        <ele>88.6</ele>
        <time>2025-07-14T07:12:57Z</time>
      </trkpt>
      <trkpt lat="44.76748" lon="0.45893">
        <ele>88.8</ele>
        <time>2025-07-14T07:12:58Z</time>
      </trkpt>
      <trkpt lat="44.76746" lon="0.45896">
        <ele>89</ele>
        <time>2025-07-14T07:12:59Z</time>
      </trkpt>
      <trkpt lat="44.76745" lon="0.45898">
        <ele>89.2</ele>
        <time>2025-07-14T07:13:00Z</time>
      </trkpt>
      <trkpt lat="44.76744" lon="0.45901">
        <ele>89.4</ele>
        <time>2025-07-14T07:13:01Z</time>
      </trkpt>
      <trkpt lat="44.76743" lon="0.45903">
        <ele>89.4</ele>
        <time>2025-07-14T07:13:02Z</time>
      </trkpt>
      <trkpt lat="44.76742" lon="0.45906">
        <ele>89.6</ele>
        <time>2025-07-14T07:13:03Z</time>
      </trkpt>
      <trkpt lat="44.7674" lon="0.45908">
        <ele>89.8</ele>
        <time>2025-07-14T07:13:04Z</time>
      </trkpt>
      <trkpt lat="44.76739" lon="0.45911">
        <ele>90</ele>
        <time>2025-07-14T07:13:05Z</time>
      </trkpt>
      <trkpt lat="44.76737" lon="0.45913">
        <ele>90.2</ele>
        <time>2025-07-14T07:13:06Z</time>
      </trkpt>
      <trkpt lat="44.76736" lon="0.45915">
        <ele>90.4</ele>
        <time>2025-07-14T07:13:07Z</time>
      </trkpt>
      <trkpt lat="44.76734" lon="0.45917">
        <ele>90.4</ele>
        <time>2025-07-14T07:13:08Z</time>
      </trkpt>
      <trkpt lat="44.76734" lon="0.4592">
        <ele>90.6</ele>
        <time>2025-07-14T07:13:09Z</time>
      </trkpt>
      <trkpt lat="44.76732" lon="0.45922">
        <ele>90.8</ele>
        <time>2025-07-14T07:13:10Z</time>
      </trkpt>
      <trkpt lat="44.76731" lon="0.45925">
        <ele>91</ele>
        <time>2025-07-14T07:13:11Z</time>
      </trkpt>
      <trkpt lat="44.7673" lon="0.45928">
        <ele>91.2</ele>
        <time>2025-07-14T07:13:12Z</time>
      </trkpt>
      <trkpt lat="44.76729" lon="0.45931">
        <ele>91.4</ele>
        <time>2025-07-14T07:13:13Z</time>
      </trkpt>
      <trkpt lat="44.76728" lon="0.45934">
        <ele>91.8</ele>
        <time>2025-07-14T07:13:14Z</time>
      </trkpt>
      <trkpt lat="44.76728" lon="0.45937">
        <ele>92</ele>
        <time>2025-07-14T07:13:15Z</time>
      </trkpt>
      <trkpt lat="44.76726" lon="0.4594">
        <ele>92.2</ele>
        <time>2025-07-14T07:13:16Z</time>
      </trkpt>
      <trkpt lat="44.76725" lon="0.45942">
        <ele>92.4</ele>
        <time>2025-07-14T07:13:17Z</time>
      </trkpt>
      <trkpt lat="44.76725" lon="0.45945">
        <ele>92.6</ele>
        <time>2025-07-14T07:13:18Z</time>
      </trkpt>
      <trkpt lat="44.76724" lon="0.45947">
        <ele>92.8</ele>
        <time>2025-07-14T07:13:19Z</time>
      </trkpt>
      <trkpt lat="44.76724" lon="0.4595">
        <ele>93</ele>
        <time>2025-07-14T07:13:20Z</time>
      </trkpt>
      <trkpt lat="44.76723" lon="0.45954">
        <ele>93.2</ele>
        <time>2025-07-14T07:13:21Z</time>
      </trkpt>
      <trkpt lat="44.76723" lon="0.45957">
        <ele>93.4</ele>
        <time>2025-07-14T07:13:22Z</time>
      </trkpt>
      <trkpt lat="44.76723" lon="0.45961">
        <ele>93.6</ele>
        <time>2025-07-14T07:13:23Z</time>
      </trkpt>
      <trkpt lat="44.76723" lon="0.45964">
        <ele>93.6</ele>
        <time>2025-07-14T07:13:24Z</time>
      </trkpt>
      <trkpt lat="44.76723" lon="0.45966">
        <ele>93.8</ele>
        <time>2025-07-14T07:13:25Z</time>
      </trkpt>
      <trkpt lat="44.76723" lon="0.4597">
        <ele>94</ele>
        <time>2025-07-14T07:13:26Z</time>
      </trkpt>
      <trkpt lat="44.76724" lon="0.45973">
        <ele>94.2</ele>
        <time>2025-07-14T07:13:27Z</time>
      </trkpt>
      <trkpt lat="44.76725" lon="0.45976">
        <ele>94.4</ele>
        <time>2025-07-14T07:13:28Z</time>
      </trkpt>
      <trkpt lat="44.76726" lon="0.45979">
        <ele>94.6</ele>
        <time>2025-07-14T07:13:29Z</time>
      </trkpt>
      <trkpt lat="44.76728" lon="0.45983">
        <ele>94.6</ele>
        <time>2025-07-14T07:13:30Z</time>
      </trkpt>
      <trkpt lat="44.7673" lon="0.45986">
        <ele>94.8</ele>
        <time>2025-07-14T07:13:31Z</time>
      </trkpt>
      <trkpt lat="44.76731" lon="0.45988">
        <ele>95</ele>
        <time>2025-07-14T07:13:32Z</time>
      </trkpt>
      <trkpt lat="44.76733" lon="0.45991">
        <ele>95.2</ele>
        <time>2025-07-14T07:13:33Z</time>
      </trkpt>
      <trkpt lat="44.76735" lon="0.45994">
        <ele>95.2</ele>
        <time>2025-07-14T07:13:34Z</time>
      </trkpt>
      <trkpt lat="44.76736" lon="0.45997">
        <ele>95.4</ele>
        <time>2025-07-14T07:13:35Z</time>
      </trkpt>
      <trkpt lat="44.76736" lon="0.46001">
        <ele>95.6</ele>
        <time>2025-07-14T07:13:36Z</time>
      </trkpt>
      <trkpt lat="44.76735" lon="0.46004">
        <ele>95.6</ele>
        <time>2025-07-14T07:13:37Z</time>
      </trkpt>
      <trkpt lat="44.76734" lon="0.46007">
        <ele>95.8</ele>
        <time>2025-07-14T07:13:38Z</time>
      </trkpt>
      <trkpt lat="44.76732" lon="0.46008">
        <ele>96</ele>
        <time>2025-07-14T07:13:39Z</time>
      </trkpt>
      <trkpt lat="44.7673" lon="0.4601">
        <ele>96</ele>
        <time>2025-07-14T07:13:40Z</time>
      </trkpt>
      <trkpt lat="44.76727" lon="0.4601">
        <ele>96</ele>
        <time>2025-07-14T07:13:41Z</time>
      </trkpt>
      <trkpt lat="44.76723" lon="0.46011">
        <ele>96</ele>
        <time>2025-07-14T07:13:42Z</time>
      </trkpt>
      <trkpt lat="44.76719" lon="0.46012">
        <ele>96.2</ele>
        <time>2025-07-14T07:13:43Z</time>
      </trkpt>
      <trkpt lat="44.76716" lon="0.46012">
        <ele>96</ele>
        <time>2025-07-14T07:13:44Z</time>
      </trkpt>
      <trkpt lat="44.76712" lon="0.46013">
        <ele>96</ele>
        <time>2025-07-14T07:13:45Z</time>
      </trkpt>
      <trkpt lat="44.76708" lon="0.46013">
        <ele>95.8</ele>
        <time>2025-07-14T07:13:46Z</time>
      </trkpt>
      <trkpt lat="44.76703" lon="0.46014">
        <ele>95.8</ele>
        <time>2025-07-14T07:13:47Z</time>
      </trkpt>
      <trkpt lat="44.76699" lon="0.46014">
        <ele>95.8</ele>
        <time>2025-07-14T07:13:48Z</time>
      </trkpt>
      <trkpt lat="44.76695" lon="0.46015">
        <ele>95.8</ele>
        <time>2025-07-14T07:13:49Z</time>
      </trkpt>
      <trkpt lat="44.7669" lon="0.46016">
        <ele>95.6</ele>
        <time>2025-07-14T07:13:50Z</time>
      </trkpt>
      <trkpt lat="44.76685" lon="0.46016">
        <ele>95.4</ele>
        <time>2025-07-14T07:13:51Z</time>
      </trkpt>
      <trkpt lat="44.76681" lon="0.46017">
        <ele>95.2</ele>
        <time>2025-07-14T07:13:52Z</time>
      </trkpt>
      <trkpt lat="44.76676" lon="0.46017">
        <ele>95</ele>
        <time>2025-07-14T07:13:53Z</time>
      </trkpt>
      <trkpt lat="44.76671" lon="0.46017">
        <ele>95</ele>
        <time>2025-07-14T07:13:54Z</time>
      </trkpt>
      <trkpt lat="44.76667" lon="0.46017">
        <ele>95</ele>
        <time>2025-07-14T07:13:55Z</time>
      </trkpt>
      <trkpt lat="44.76662" lon="0.46017">
        <ele>94.8</ele>
        <time>2025-07-14T07:13:56Z</time>
      </trkpt>
      <trkpt lat="44.76657" lon="0.46017">
        <ele>94.8</ele>
        <time>2025-07-14T07:13:57Z</time>
      </trkpt>
      <trkpt lat="44.76652" lon="0.46016">
        <ele>94.8</ele>
        <time>2025-07-14T07:13:58Z</time>
      </trkpt>
      <trkpt lat="44.76648" lon="0.46016">
        <ele>94.6</ele>
        <time>2025-07-14T07:13:59Z</time>
      </trkpt>
      <trkpt lat="44.76643" lon="0.46015">
        <ele>94.4</ele>
        <time>2025-07-14T07:14:00Z</time>
      </trkpt>
      <trkpt lat="44.76638" lon="0.46014">
        <ele>94.4</ele>
        <time>2025-07-14T07:14:01Z</time>
      </trkpt>
      <trkpt lat="44.76633" lon="0.46013">
        <ele>94.4</ele>
        <time>2025-07-14T07:14:02Z</time>
      </trkpt>
      <trkpt lat="44.76628" lon="0.46011">
        <ele>94.4</ele>
        <time>2025-07-14T07:14:03Z</time>
      </trkpt>
      <trkpt lat="44.76622" lon="0.46008">
        <ele>94.2</ele>
        <time>2025-07-14T07:14:04Z</time>
      </trkpt>
      <trkpt lat="44.76617" lon="0.46006">
        <ele>94.2</ele>
        <time>2025-07-14T07:14:05Z</time>
      </trkpt>
      <trkpt lat="44.76612" lon="0.46005">
        <ele>94</ele>
        <time>2025-07-14T07:14:06Z</time>
      </trkpt>
      <trkpt lat="44.76606" lon="0.46004">
        <ele>93.8</ele>
        <time>2025-07-14T07:14:07Z</time>
      </trkpt>
      <trkpt lat="44.76601" lon="0.46003">
        <ele>93.8</ele>
        <time>2025-07-14T07:14:08Z</time>
      </trkpt>
      <trkpt lat="44.76596" lon="0.46001">
        <ele>93.6</ele>
        <time>2025-07-14T07:14:09Z</time>
      </trkpt>
      <trkpt lat="44.76591" lon="0.46">
        <ele>93.6</ele>
        <time>2025-07-14T07:14:10Z</time>
      </trkpt>
      <trkpt lat="44.76586" lon="0.45998">
        <ele>93.6</ele>
        <time>2025-07-14T07:14:11Z</time>
      </trkpt>
      <trkpt lat="44.76582" lon="0.45996">
        <ele>93.6</ele>
        <time>2025-07-14T07:14:12Z</time>
      </trkpt>
      <trkpt lat="44.76577" lon="0.45993">
        <ele>93.6</ele>
        <time>2025-07-14T07:14:13Z</time>
      </trkpt>
      <trkpt lat="44.76572" lon="0.4599">
        <ele>93.8</ele>
        <time>2025-07-14T07:14:14Z</time>
      </trkpt>
      <trkpt lat="44.76568" lon="0.45986">
        <ele>93.8</ele>
        <time>2025-07-14T07:14:15Z</time>
      </trkpt>
      <trkpt lat="44.76565" lon="0.4598">
        <ele>93.8</ele>
        <time>2025-07-14T07:14:16Z</time>
      </trkpt>
      <trkpt lat="44.76564" lon="0.45974">
        <ele>93.8</ele>
        <time>2025-07-14T07:14:17Z</time>
      </trkpt>
      <trkpt lat="44.76562" lon="0.45968">
        <ele>93.8</ele>
        <time>2025-07-14T07:14:18Z</time>
      </trkpt>
      <trkpt lat="44.76561" lon="0.45961">
        <ele>93.8</ele>
        <time>2025-07-14T07:14:19Z</time>
      </trkpt>
      <trkpt lat="44.76561" lon="0.45954">
        <ele>93.8</ele>
        <time>2025-07-14T07:14:20Z</time>
      </trkpt>
      <trkpt lat="44.7656" lon="0.45947">
        <ele>93.8</ele>
        <time>2025-07-14T07:14:21Z</time>
      </trkpt>
      <trkpt lat="44.7656" lon="0.4594">
        <ele>94</ele>
        <time>2025-07-14T07:14:22Z</time>
      </trkpt>
      <trkpt lat="44.76559" lon="0.45935">
        <ele>94</ele>
        <time>2025-07-14T07:14:23Z</time>
      </trkpt>
      <trkpt lat="44.76559" lon="0.45931">
        <ele>94.2</ele>
        <time>2025-07-14T07:14:24Z</time>
      </trkpt>
      <trkpt lat="44.76558" lon="0.45927">
        <ele>94.4</ele>
        <time>2025-07-14T07:14:25Z</time>
      </trkpt>
      <trkpt lat="44.76558" lon="0.45924">
        <ele>94.6</ele>
        <time>2025-07-14T07:14:26Z</time>
      </trkpt>
      <trkpt lat="44.76557" lon="0.45921">
        <ele>95</ele>
        <time>2025-07-14T07:14:27Z</time>
      </trkpt>
      <trkpt lat="44.76557" lon="0.45918">
        <ele>95.4</ele>
        <time>2025-07-14T07:14:28Z</time>
      </trkpt>
      <trkpt lat="44.76556" lon="0.45915">
        <ele>95.6</ele>
        <time>2025-07-14T07:14:29Z</time>
      </trkpt>
      <trkpt lat="44.76555" lon="0.45912">
        <ele>95.8</ele>
        <time>2025-07-14T07:14:30Z</time>
      </trkpt>
      <trkpt lat="44.76553" lon="0.4591">
        <ele>96.2</ele>
        <time>2025-07-14T07:14:31Z</time>
      </trkpt>
      <trkpt lat="44.76552" lon="0.45907">
        <ele>96.4</ele>
        <time>2025-07-14T07:14:32Z</time>
      </trkpt>
      <trkpt lat="44.7655" lon="0.45905">
        <ele>96.6</ele>
        <time>2025-07-14T07:14:33Z</time>
      </trkpt>
      <trkpt lat="44.76549" lon="0.45902">
        <ele>96.8</ele>
        <time>2025-07-14T07:14:34Z</time>
      </trkpt>
      <trkpt lat="44.76547" lon="0.45901">
        <ele>97</ele>
        <time>2025-07-14T07:14:35Z</time>
      </trkpt>
      <trkpt lat="44.76546" lon="0.45899">
        <ele>97.2</ele>
        <time>2025-07-14T07:14:36Z</time>
      </trkpt>
      <trkpt lat="44.76544" lon="0.45897">
        <ele>97.4</ele>
        <time>2025-07-14T07:14:37Z</time>
      </trkpt>
      <trkpt lat="44.76543" lon="0.45895">
        <ele>97.4</ele>
        <time>2025-07-14T07:14:38Z</time>
      </trkpt>
      <trkpt lat="44.76541" lon="0.45893">
        <ele>97.6</ele>
        <time>2025-07-14T07:14:39Z</time>
      </trkpt>
      <trkpt lat="44.76539" lon="0.45891">
        <ele>97.8</ele>
        <time>2025-07-14T07:14:40Z</time>
      </trkpt>
      <trkpt lat="44.76537" lon="0.4589">
        <ele>98</ele>
        <time>2025-07-14T07:14:41Z</time>
      </trkpt>
      <trkpt lat="44.76535" lon="0.45889">
        <ele>98.2</ele>
        <time>2025-07-14T07:14:42Z</time>
      </trkpt>
      <trkpt lat="44.76533" lon="0.45888">
        <ele>98.6</ele>
        <time>2025-07-14T07:14:43Z</time>
      </trkpt>
      <trkpt lat="44.76531" lon="0.45887">
        <ele>98.8</ele>
        <time>2025-07-14T07:14:44Z</time>
      </trkpt>
      <trkpt lat="44.76529" lon="0.45885">
        <ele>99</ele>
        <time>2025-07-14T07:14:45Z</time>
      </trkpt>
      <trkpt lat="44.76527" lon="0.45884">
        <ele>99</ele>
        <time>2025-07-14T07:14:46Z</time>
      </trkpt>
      <trkpt lat="44.76525" lon="0.45883">
        <ele>99.2</ele>
        <time>2025-07-14T07:14:47Z</time>
      </trkpt>
      <trkpt lat="44.76523" lon="0.45882">
        <ele>99.2</ele>
        <time>2025-07-14T07:14:48Z</time>
      </trkpt>
      <trkpt lat="44.76521" lon="0.4588">
        <ele>99.4</ele>
        <time>2025-07-14T07:14:49Z</time>
      </trkpt>
      <trkpt lat="44.76519" lon="0.45879">
        <ele>99.6</ele>
        <time>2025-07-14T07:14:50Z</time>
      </trkpt>
      <trkpt lat="44.76518" lon="0.45878">
        <ele>99.6</ele>
        <time>2025-07-14T07:14:51Z</time>
      </trkpt>
      <trkpt lat="44.76516" lon="0.45877">
        <ele>99.8</ele>
        <time>2025-07-14T07:14:52Z</time>
      </trkpt>
      <trkpt lat="44.76513" lon="0.45876">
        <ele>100</ele>
        <time>2025-07-14T07:14:53Z</time>
      </trkpt>
      <trkpt lat="44.76511" lon="0.45875">
        <ele>100.2</ele>
        <time>2025-07-14T07:14:54Z</time>
      </trkpt>
      <trkpt lat="44.76509" lon="0.45874">
        <ele>100.2</ele>
        <time>2025-07-14T07:14:55Z</time>
      </trkpt>
      <trkpt lat="44.76507" lon="0.45873">
        <ele>100.4</ele>
        <time>2025-07-14T07:14:56Z</time>
      </trkpt>
      <trkpt lat="44.76505" lon="0.45872">
        <ele>100.6</ele>
        <time>2025-07-14T07:14:57Z</time>
      </trkpt>
      <trkpt lat="44.76503" lon="0.4587">
        <ele>100.8</ele>
        <time>2025-07-14T07:14:58Z</time>
      </trkpt>
      <trkpt lat="44.76501" lon="0.45869">
        <ele>101</ele>
        <time>2025-07-14T07:14:59Z</time>
      </trkpt>
      <trkpt lat="44.76499" lon="0.45868">
        <ele>101</ele>
        <time>2025-07-14T07:15:00Z</time>
      </trkpt>
      <trkpt lat="44.76497" lon="0.45867">
        <ele>101.2</ele>
        <time>2025-07-14T07:15:01Z</time>
      </trkpt>
      <trkpt lat="44.76495" lon="0.45865">
        <ele>101.4</ele>
        <time>2025-07-14T07:15:02Z</time>
      </trkpt>
      <trkpt lat="44.76493" lon="0.45864">
        <ele>101.6</ele>
        <time>2025-07-14T07:15:03Z</time>
      </trkpt>
      <trkpt lat="44.76491" lon="0.45863">
        <ele>101.6</ele>
        <time>2025-07-14T07:15:04Z</time>
      </trkpt>
      <trkpt lat="44.76489" lon="0.45862">
        <ele>101.8</ele>
        <time>2025-07-14T07:15:05Z</time>
      </trkpt>
      <trkpt lat="44.76487" lon="0.45861">
        <ele>102</ele>
        <time>2025-07-14T07:15:06Z</time>
      </trkpt>
      <trkpt lat="44.76485" lon="0.4586">
        <ele>102.2</ele>
        <time>2025-07-14T07:15:07Z</time>
      </trkpt>
      <trkpt lat="44.76483" lon="0.45859">
        <ele>102.2</ele>
        <time>2025-07-14T07:15:08Z</time>
      </trkpt>
      <trkpt lat="44.76481" lon="0.45858">
        <ele>102.4</ele>
        <time>2025-07-14T07:15:09Z</time>
      </trkpt>
      <trkpt lat="44.76478" lon="0.45857">
        <ele>102.4</ele>
        <time>2025-07-14T07:15:10Z</time>
      </trkpt>
      <trkpt lat="44.76477" lon="0.45855">
        <ele>102.6</ele>
        <time>2025-07-14T07:15:11Z</time>
      </trkpt>
      <trkpt lat="44.76475" lon="0.45854">
        <ele>102.8</ele>
        <time>2025-07-14T07:15:12Z</time>
      </trkpt>
      <trkpt lat="44.76472" lon="0.45852">
        <ele>102.8</ele>
        <time>2025-07-14T07:15:13Z</time>
      </trkpt>
      <trkpt lat="44.7647" lon="0.45851">
        <ele>103</ele>
        <time>2025-07-14T07:15:14Z</time>
      </trkpt>
      <trkpt lat="44.76468" lon="0.4585">
        <ele>103.2</ele>
        <time>2025-07-14T07:15:15Z</time>
      </trkpt>
      <trkpt lat="44.76467" lon="0.45848">
        <ele>103.4</ele>
        <time>2025-07-14T07:15:16Z</time>
      </trkpt>
      <trkpt lat="44.76464" lon="0.45847">
        <ele>103.4</ele>
        <time>2025-07-14T07:15:17Z</time>
      </trkpt>
      <trkpt lat="44.76462" lon="0.45846">
        <ele>103.6</ele>
        <time>2025-07-14T07:15:18Z</time>
      </trkpt>
      <trkpt lat="44.76461" lon="0.45844">
        <ele>103.8</ele>
        <time>2025-07-14T07:15:19Z</time>
      </trkpt>
      <trkpt lat="44.76459" lon="0.45843">
        <ele>104</ele>
        <time>2025-07-14T07:15:20Z</time>
      </trkpt>
      <trkpt lat="44.76457" lon="0.45841">
        <ele>104</ele>
        <time>2025-07-14T07:15:21Z</time>
      </trkpt>
      <trkpt lat="44.76455" lon="0.4584">
        <ele>104.2</ele>
        <time>2025-07-14T07:15:22Z</time>
      </trkpt>
      <trkpt lat="44.76453" lon="0.45838">
        <ele>104.4</ele>
        <time>2025-07-14T07:15:23Z</time>
      </trkpt>
      <trkpt lat="44.76451" lon="0.45837">
        <ele>104.6</ele>
        <time>2025-07-14T07:15:24Z</time>
      </trkpt>
      <trkpt lat="44.7645" lon="0.45835">
        <ele>104.6</ele>
        <time>2025-07-14T07:15:25Z</time>
      </trkpt>
      <trkpt lat="44.76448" lon="0.45834">
        <ele>104.8</ele>
        <time>2025-07-14T07:15:26Z</time>
      </trkpt>
      <trkpt lat="44.76446" lon="0.45832">
        <ele>105</ele>
        <time>2025-07-14T07:15:27Z</time>
      </trkpt>
      <trkpt lat="44.76444" lon="0.4583">
        <ele>105.2</ele>
        <time>2025-07-14T07:15:28Z</time>
      </trkpt>
      <trkpt lat="44.76443" lon="0.45828">
        <ele>105.4</ele>
        <time>2025-07-14T07:15:29Z</time>
      </trkpt>
      <trkpt lat="44.76441" lon="0.45826">
        <ele>105.6</ele>
        <time>2025-07-14T07:15:30Z</time>
      </trkpt>
      <trkpt lat="44.76439" lon="0.45824">
        <ele>105.8</ele>
        <time>2025-07-14T07:15:31Z</time>
      </trkpt>
      <trkpt lat="44.76438" lon="0.45822">
        <ele>105.8</ele>
        <time>2025-07-14T07:15:32Z</time>
      </trkpt>
      <trkpt lat="44.76436" lon="0.45819">
        <ele>106</ele>
        <time>2025-07-14T07:15:33Z</time>
      </trkpt>
      <trkpt lat="44.76434" lon="0.45817">
        <ele>106.2</ele>
        <time>2025-07-14T07:15:34Z</time>
      </trkpt>
      <trkpt lat="44.76432" lon="0.45815">
        <ele>106.2</ele>
        <time>2025-07-14T07:15:35Z</time>
      </trkpt>
      <trkpt lat="44.76431" lon="0.45813">
        <ele>106.4</ele>
        <time>2025-07-14T07:15:36Z</time>
      </trkpt>
      <trkpt lat="44.76429" lon="0.4581">
        <ele>106.6</ele>
        <time>2025-07-14T07:15:37Z</time>
      </trkpt>
      <trkpt lat="44.76427" lon="0.45808">
        <ele>106.6</ele>
        <time>2025-07-14T07:15:38Z</time>
      </trkpt>
      <trkpt lat="44.76425" lon="0.45806">
        <ele>106.8</ele>
        <time>2025-07-14T07:15:39Z</time>
      </trkpt>
      <trkpt lat="44.76424" lon="0.45803">
        <ele>107</ele>
        <time>2025-07-14T07:15:40Z</time>
      </trkpt>
      <trkpt lat="44.76423" lon="0.45801">
        <ele>107</ele>
        <time>2025-07-14T07:15:41Z</time>
      </trkpt>
      <trkpt lat="44.76421" lon="0.45799">
        <ele>107</ele>
        <time>2025-07-14T07:15:42Z</time>
      </trkpt>
      <trkpt lat="44.7642" lon="0.45796">
        <ele>107.2</ele>
        <time>2025-07-14T07:15:43Z</time>
      </trkpt>
      <trkpt lat="44.76419" lon="0.45794">
        <ele>107.2</ele>
        <time>2025-07-14T07:15:44Z</time>
      </trkpt>
      <trkpt lat="44.76417" lon="0.45792">
        <ele>107.4</ele>
        <time>2025-07-14T07:15:45Z</time>
      </trkpt>
      <trkpt lat="44.76415" lon="0.45789">
        <ele>107.6</ele>
        <time>2025-07-14T07:15:46Z</time>
      </trkpt>
      <trkpt lat="44.76414" lon="0.45787">
        <ele>107.6</ele>
        <time>2025-07-14T07:15:47Z</time>
      </trkpt>
      <trkpt lat="44.76412" lon="0.45785">
        <ele>107.8</ele>
        <time>2025-07-14T07:15:48Z</time>
      </trkpt>
      <trkpt lat="44.76411" lon="0.45783">
        <ele>108</ele>
        <time>2025-07-14T07:15:49Z</time>
      </trkpt>
      <trkpt lat="44.76409" lon="0.4578">
        <ele>108</ele>
        <time>2025-07-14T07:15:50Z</time>
      </trkpt>
      <trkpt lat="44.76408" lon="0.45778">
        <ele>108.2</ele>
        <time>2025-07-14T07:15:51Z</time>
      </trkpt>
      <trkpt lat="44.76406" lon="0.45775">
        <ele>108.4</ele>
        <time>2025-07-14T07:15:52Z</time>
      </trkpt>
      <trkpt lat="44.76405" lon="0.45773">
        <ele>108.4</ele>
        <time>2025-07-14T07:15:53Z</time>
      </trkpt>
      <trkpt lat="44.76403" lon="0.4577">
        <ele>108.6</ele>
        <time>2025-07-14T07:15:54Z</time>
      </trkpt>
      <trkpt lat="44.76401" lon="0.45768">
        <ele>108.8</ele>
        <time>2025-07-14T07:15:55Z</time>
      </trkpt>
      <trkpt lat="44.764" lon="0.45765">
        <ele>108.8</ele>
        <time>2025-07-14T07:15:56Z</time>
      </trkpt>
      <trkpt lat="44.76398" lon="0.45763">
        <ele>109</ele>
        <time>2025-07-14T07:15:57Z</time>
      </trkpt>
      <trkpt lat="44.76396" lon="0.4576">
        <ele>109</ele>
        <time>2025-07-14T07:15:58Z</time>
      </trkpt>
      <trkpt lat="44.76395" lon="0.45757">
        <ele>109.2</ele>
        <time>2025-07-14T07:15:59Z</time>
      </trkpt>
      <trkpt lat="44.76393" lon="0.45755">
        <ele>109.2</ele>
        <time>2025-07-14T07:16:00Z</time>
      </trkpt>
      <trkpt lat="44.76391" lon="0.45752">
        <ele>109.4</ele>
        <time>2025-07-14T07:16:01Z</time>
      </trkpt>
      <trkpt lat="44.76389" lon="0.4575">
        <ele>109.6</ele>
        <time>2025-07-14T07:16:02Z</time>
      </trkpt>
      <trkpt lat="44.76388" lon="0.45747">
        <ele>109.8</ele>
        <time>2025-07-14T07:16:03Z</time>
      </trkpt>
      <trkpt lat="44.76386" lon="0.45745">
        <ele>109.8</ele>
        <time>2025-07-14T07:16:04Z</time>
      </trkpt>
      <trkpt lat="44.76384" lon="0.45743">
        <ele>110</ele>
        <time>2025-07-14T07:16:05Z</time>
      </trkpt>
      <trkpt lat="44.76382" lon="0.4574">
        <ele>110.2</ele>
        <time>2025-07-14T07:16:06Z</time>
      </trkpt>
      <trkpt lat="44.76381" lon="0.45737">
        <ele>110.4</ele>
        <time>2025-07-14T07:16:07Z</time>
      </trkpt>
      <trkpt lat="44.76379" lon="0.45734">
        <ele>110.6</ele>
        <time>2025-07-14T07:16:08Z</time>
      </trkpt>
      <trkpt lat="44.76377" lon="0.45732">
        <ele>110.8</ele>
        <time>2025-07-14T07:16:09Z</time>
      </trkpt>
      <trkpt lat="44.76375" lon="0.45729">
        <ele>111</ele>
        <time>2025-07-14T07:16:10Z</time>
      </trkpt>
      <trkpt lat="44.76373" lon="0.45726">
        <ele>111.2</ele>
        <time>2025-07-14T07:16:11Z</time>
      </trkpt>
      <trkpt lat="44.76372" lon="0.45724">
        <ele>111.2</ele>
        <time>2025-07-14T07:16:12Z</time>
      </trkpt>
      <trkpt lat="44.7637" lon="0.45721">
        <ele>111.4</ele>
        <time>2025-07-14T07:16:13Z</time>
      </trkpt>
      <trkpt lat="44.76368" lon="0.45719">
        <ele>111.6</ele>
        <time>2025-07-14T07:16:14Z</time>
      </trkpt>
      <trkpt lat="44.76365" lon="0.45716">
        <ele>111.8</ele>
        <time>2025-07-14T07:16:15Z</time>
      </trkpt>
      <trkpt lat="44.76363" lon="0.45714">
        <ele>111.8</ele>
        <time>2025-07-14T07:16:16Z</time>
      </trkpt>
      <trkpt lat="44.76361" lon="0.45712">
        <ele>112</ele>
        <time>2025-07-14T07:16:17Z</time>
      </trkpt>
      <trkpt lat="44.76359" lon="0.4571">
        <ele>112.2</ele>
        <time>2025-07-14T07:16:18Z</time>
      </trkpt>
      <trkpt lat="44.76356" lon="0.45708">
        <ele>112.4</ele>
        <time>2025-07-14T07:16:19Z</time>
      </trkpt>
      <trkpt lat="44.76354" lon="0.45707">
        <ele>112.6</ele>
        <time>2025-07-14T07:16:20Z</time>
      </trkpt>
      <trkpt lat="44.76351" lon="0.45705">
        <ele>112.6</ele>
        <time>2025-07-14T07:16:21Z</time>
      </trkpt>
      <trkpt lat="44.76349" lon="0.45704">
        <ele>112.8</ele>
        <time>2025-07-14T07:16:22Z</time>
      </trkpt>
      <trkpt lat="44.76346" lon="0.45704">
        <ele>113</ele>
        <time>2025-07-14T07:16:23Z</time>
      </trkpt>
      <trkpt lat="44.76343" lon="0.45703">
        <ele>113</ele>
        <time>2025-07-14T07:16:24Z</time>
      </trkpt>
      <trkpt lat="44.76341" lon="0.45702">
        <ele>113.2</ele>
        <time>2025-07-14T07:16:25Z</time>
      </trkpt>
      <trkpt lat="44.76338" lon="0.45701">
        <ele>113.4</ele>
        <time>2025-07-14T07:16:26Z</time>
      </trkpt>
      <trkpt lat="44.76335" lon="0.457">
        <ele>113.4</ele>
        <time>2025-07-14T07:16:27Z</time>
      </trkpt>
      <trkpt lat="44.76331" lon="0.45699">
        <ele>113.4</ele>
        <time>2025-07-14T07:16:28Z</time>
      </trkpt>
      <trkpt lat="44.76328" lon="0.45698">
        <ele>113.6</ele>
        <time>2025-07-14T07:16:29Z</time>
      </trkpt>
      <trkpt lat="44.76324" lon="0.45697">
        <ele>113.6</ele>
        <time>2025-07-14T07:16:30Z</time>
      </trkpt>
      <trkpt lat="44.76321" lon="0.45696">
        <ele>113.8</ele>
        <time>2025-07-14T07:16:31Z</time>
      </trkpt>
      <trkpt lat="44.76318" lon="0.45696">
        <ele>113.8</ele>
        <time>2025-07-14T07:16:32Z</time>
      </trkpt>
      <trkpt lat="44.76315" lon="0.45695">
        <ele>113.8</ele>
        <time>2025-07-14T07:16:33Z</time>
      </trkpt>
      <trkpt lat="44.76312" lon="0.45694">
        <ele>114</ele>
        <time>2025-07-14T07:16:34Z</time>
      </trkpt>
      <trkpt lat="44.76308" lon="0.45693">
        <ele>114</ele>
        <time>2025-07-14T07:16:35Z</time>
      </trkpt>
      <trkpt lat="44.76305" lon="0.45692">
        <ele>114.2</ele>
        <time>2025-07-14T07:16:36Z</time>
      </trkpt>
      <trkpt lat="44.76301" lon="0.45692">
        <ele>114.2</ele>
        <time>2025-07-14T07:16:37Z</time>
      </trkpt>
      <trkpt lat="44.76298" lon="0.45692">
        <ele>114.4</ele>
        <time>2025-07-14T07:16:38Z</time>
      </trkpt>
      <trkpt lat="44.76294" lon="0.45693">
        <ele>114.4</ele>
        <time>2025-07-14T07:16:39Z</time>
      </trkpt>
      <trkpt lat="44.76291" lon="0.45694">
        <ele>114.4</ele>
        <time>2025-07-14T07:16:40Z</time>
      </trkpt>
      <trkpt lat="44.76287" lon="0.45696">
        <ele>114.4</ele>
        <time>2025-07-14T07:16:41Z</time>
      </trkpt>
      <trkpt lat="44.76284" lon="0.45697">
        <ele>114.4</ele>
        <time>2025-07-14T07:16:42Z</time>
      </trkpt>
      <trkpt lat="44.7628" lon="0.45698">
        <ele>114.6</ele>
        <time>2025-07-14T07:16:43Z</time>
      </trkpt>
      <trkpt lat="44.76277" lon="0.45699">
        <ele>114.6</ele>
        <time>2025-07-14T07:16:44Z</time>
      </trkpt>
      <trkpt lat="44.76274" lon="0.45701">
        <ele>114.8</ele>
        <time>2025-07-14T07:16:45Z</time>
      </trkpt>
      <trkpt lat="44.7627" lon="0.45702">
        <ele>115</ele>
        <time>2025-07-14T07:16:46Z</time>
      </trkpt>
      <trkpt lat="44.76267" lon="0.45702">
        <ele>115</ele>
        <time>2025-07-14T07:16:47Z</time>
      </trkpt>
      <trkpt lat="44.76263" lon="0.45703">
        <ele>115.2</ele>
        <time>2025-07-14T07:16:48Z</time>
      </trkpt>
      <trkpt lat="44.7626" lon="0.45704">
        <ele>115.4</ele>
        <time>2025-07-14T07:16:49Z</time>
      </trkpt>
      <trkpt lat="44.76257" lon="0.45705">
        <ele>115.4</ele>
        <time>2025-07-14T07:16:50Z</time>
      </trkpt>
      <trkpt lat="44.76254" lon="0.45707">
        <ele>115.6</ele>
        <time>2025-07-14T07:16:51Z</time>
      </trkpt>
      <trkpt lat="44.76251" lon="0.45708">
        <ele>115.8</ele>
        <time>2025-07-14T07:16:52Z</time>
      </trkpt>
      <trkpt lat="44.76248" lon="0.4571">
        <ele>116</ele>
        <time>2025-07-14T07:16:53Z</time>
      </trkpt>
      <trkpt lat="44.76245" lon="0.45711">
        <ele>116.2</ele>
        <time>2025-07-14T07:16:54Z</time>
      </trkpt>
      <trkpt lat="44.76242" lon="0.45711">
        <ele>116.4</ele>
        <time>2025-07-14T07:16:55Z</time>
      </trkpt>
      <trkpt lat="44.76239" lon="0.45712">
        <ele>116.6</ele>
        <time>2025-07-14T07:16:56Z</time>
      </trkpt>
      <trkpt lat="44.76236" lon="0.45713">
        <ele>116.8</ele>
        <time>2025-07-14T07:16:57Z</time>
      </trkpt>
      <trkpt lat="44.76233" lon="0.45714">
        <ele>117</ele>
        <time>2025-07-14T07:16:58Z</time>
      </trkpt>
      <trkpt lat="44.7623" lon="0.45714">
        <ele>117.2</ele>
        <time>2025-07-14T07:16:59Z</time>
      </trkpt>
      <trkpt lat="44.76227" lon="0.45715">
        <ele>117.4</ele>
        <time>2025-07-14T07:17:00Z</time>
      </trkpt>
      <trkpt lat="44.76224" lon="0.45714">
        <ele>117.6</ele>
        <time>2025-07-14T07:17:01Z</time>
      </trkpt>
      <trkpt lat="44.76221" lon="0.45715">
        <ele>117.8</ele>
        <time>2025-07-14T07:17:02Z</time>
      </trkpt>
      <trkpt lat="44.76218" lon="0.45716">
        <ele>118.2</ele>
        <time>2025-07-14T07:17:03Z</time>
      </trkpt>
      <trkpt lat="44.76216" lon="0.45717">
        <ele>118.2</ele>
        <time>2025-07-14T07:17:04Z</time>
      </trkpt>
      <trkpt lat="44.76213" lon="0.45718">
        <ele>118.4</ele>
        <time>2025-07-14T07:17:05Z</time>
      </trkpt>
      <trkpt lat="44.7621" lon="0.45719">
        <ele>118.6</ele>
        <time>2025-07-14T07:17:06Z</time>
      </trkpt>
      <trkpt lat="44.76207" lon="0.4572">
        <ele>118.8</ele>
        <time>2025-07-14T07:17:07Z</time>
      </trkpt>
      <trkpt lat="44.76204" lon="0.45721">
        <ele>119</ele>
        <time>2025-07-14T07:17:08Z</time>
      </trkpt>
      <trkpt lat="44.76201" lon="0.45722">
        <ele>119.2</ele>
        <time>2025-07-14T07:17:09Z</time>
      </trkpt>
      <trkpt lat="44.76198" lon="0.45723">
        <ele>119.4</ele>
        <time>2025-07-14T07:17:10Z</time>
      </trkpt>
      <trkpt lat="44.76195" lon="0.45724">
        <ele>119.4</ele>
        <time>2025-07-14T07:17:11Z</time>
      </trkpt>
      <trkpt lat="44.76192" lon="0.45725">
        <ele>119.6</ele>
        <time>2025-07-14T07:17:12Z</time>
      </trkpt>
      <trkpt lat="44.7619" lon="0.45726">
        <ele>119.8</ele>
        <time>2025-07-14T07:17:13Z</time>
      </trkpt>
      <trkpt lat="44.76187" lon="0.45727">
        <ele>119.8</ele>
        <time>2025-07-14T07:17:14Z</time>
      </trkpt>
      <trkpt lat="44.76184" lon="0.45728">
        <ele>119.8</ele>
        <time>2025-07-14T07:17:15Z</time>
      </trkpt>
      <trkpt lat="44.7618" lon="0.45729">
        <ele>120</ele>
        <time>2025-07-14T07:17:16Z</time>
      </trkpt>
      <trkpt lat="44.76177" lon="0.4573">
        <ele>120</ele>
        <time>2025-07-14T07:17:17Z</time>
      </trkpt>
      <trkpt lat="44.76173" lon="0.45731">
        <ele>120</ele>
        <time>2025-07-14T07:17:18Z</time>
      </trkpt>
      <trkpt lat="44.7617" lon="0.45732">
        <ele>120.2</ele>
        <time>2025-07-14T07:17:19Z</time>
      </trkpt>
      <trkpt lat="44.76166" lon="0.45733">
        <ele>120.2</ele>
        <time>2025-07-14T07:17:20Z</time>
      </trkpt>
      <trkpt lat="44.76162" lon="0.45735">
        <ele>120.2</ele>
        <time>2025-07-14T07:17:21Z</time>
      </trkpt>
      <trkpt lat="44.76159" lon="0.45737">
        <ele>120.2</ele>
        <time>2025-07-14T07:17:22Z</time>
      </trkpt>
      <trkpt lat="44.76156" lon="0.4574">
        <ele>120.4</ele>
        <time>2025-07-14T07:17:23Z</time>
      </trkpt>
      <trkpt lat="44.76153" lon="0.45741">
        <ele>120.4</ele>
        <time>2025-07-14T07:17:24Z</time>
      </trkpt>
      <trkpt lat="44.76149" lon="0.45743">
        <ele>120.4</ele>
        <time>2025-07-14T07:17:25Z</time>
      </trkpt>
      <trkpt lat="44.76146" lon="0.45745">
        <ele>120.6</ele>
        <time>2025-07-14T07:17:26Z</time>
      </trkpt>
      <trkpt lat="44.76142" lon="0.45748">
        <ele>120.6</ele>
        <time>2025-07-14T07:17:27Z</time>
      </trkpt>
      <trkpt lat="44.76139" lon="0.4575">
        <ele>120.6</ele>
        <time>2025-07-14T07:17:28Z</time>
      </trkpt>
      <trkpt lat="44.76135" lon="0.45752">
        <ele>120.8</ele>
        <time>2025-07-14T07:17:29Z</time>
      </trkpt>
      <trkpt lat="44.76132" lon="0.45754">
        <ele>120.8</ele>
        <time>2025-07-14T07:17:30Z</time>
      </trkpt>
      <trkpt lat="44.76128" lon="0.45756">
        <ele>120.8</ele>
        <time>2025-07-14T07:17:31Z</time>
      </trkpt>
      <trkpt lat="44.76124" lon="0.45759">
        <ele>121</ele>
        <time>2025-07-14T07:17:32Z</time>
      </trkpt>
      <trkpt lat="44.76121" lon="0.45761">
        <ele>121</ele>
        <time>2025-07-14T07:17:33Z</time>
      </trkpt>
      <trkpt lat="44.76117" lon="0.45763">
        <ele>121</ele>
        <time>2025-07-14T07:17:34Z</time>
      </trkpt>
      <trkpt lat="44.76114" lon="0.45766">
        <ele>121</ele>
        <time>2025-07-14T07:17:35Z</time>
      </trkpt>
      <trkpt lat="44.7611" lon="0.45768">
        <ele>121</ele>
        <time>2025-07-14T07:17:36Z</time>
      </trkpt>
      <trkpt lat="44.76106" lon="0.4577">
        <ele>121</ele>
        <time>2025-07-14T07:17:37Z</time>
      </trkpt>
      <trkpt lat="44.76103" lon="0.45773">
        <ele>120.8</ele>
        <time>2025-07-14T07:17:38Z</time>
      </trkpt>
      <trkpt lat="44.76099" lon="0.45775">
        <ele>120.8</ele>
        <time>2025-07-14T07:17:39Z</time>
      </trkpt>
      <trkpt lat="44.76095" lon="0.45777">
        <ele>120.8</ele>
        <time>2025-07-14T07:17:40Z</time>
      </trkpt>
      <trkpt lat="44.76091" lon="0.4578">
        <ele>121</ele>
        <time>2025-07-14T07:17:41Z</time>
      </trkpt>
      <trkpt lat="44.76087" lon="0.45782">
        <ele>121</ele>
        <time>2025-07-14T07:17:42Z</time>
      </trkpt>
      <trkpt lat="44.76083" lon="0.45784">
        <ele>121</ele>
        <time>2025-07-14T07:17:43Z</time>
      </trkpt>
      <trkpt lat="44.7608" lon="0.45786">
        <ele>121.2</ele>
        <time>2025-07-14T07:17:44Z</time>
      </trkpt>
      <trkpt lat="44.76076" lon="0.45789">
        <ele>121.2</ele>
        <time>2025-07-14T07:17:45Z</time>
      </trkpt>
      <trkpt lat="44.76072" lon="0.45791">
        <ele>121.2</ele>
        <time>2025-07-14T07:17:46Z</time>
      </trkpt>
      <trkpt lat="44.76068" lon="0.45794">
        <ele>121.2</ele>
        <time>2025-07-14T07:17:47Z</time>
      </trkpt>
      <trkpt lat="44.76064" lon="0.45796">
        <ele>121</ele>
        <time>2025-07-14T07:17:48Z</time>
      </trkpt>
      <trkpt lat="44.76059" lon="0.45799">
        <ele>121</ele>
        <time>2025-07-14T07:17:49Z</time>
      </trkpt>
      <trkpt lat="44.76055" lon="0.45801">
        <ele>121</ele>
        <time>2025-07-14T07:17:50Z</time>
      </trkpt>
      <trkpt lat="44.76051" lon="0.45804">
        <ele>121</ele>
        <time>2025-07-14T07:17:51Z</time>
      </trkpt>
      <trkpt lat="44.76047" lon="0.45807">
        <ele>121</ele>
        <time>2025-07-14T07:17:52Z</time>
      </trkpt>
      <trkpt lat="44.76043" lon="0.4581">
        <ele>121</ele>
        <time>2025-07-14T07:17:53Z</time>
      </trkpt>
      <trkpt lat="44.76039" lon="0.45814">
        <ele>121</ele>
        <time>2025-07-14T07:17:54Z</time>
      </trkpt>
      <trkpt lat="44.76035" lon="0.45817">
        <ele>120.8</ele>
        <time>2025-07-14T07:17:55Z</time>
      </trkpt>
      <trkpt lat="44.7603" lon="0.45818">
        <ele>120.8</ele>
        <time>2025-07-14T07:17:56Z</time>
      </trkpt>
      <trkpt lat="44.76026" lon="0.45816">
        <ele>120.8</ele>
        <time>2025-07-14T07:17:57Z</time>
      </trkpt>
      <trkpt lat="44.76022" lon="0.45812">
        <ele>120.6</ele>
        <time>2025-07-14T07:17:58Z</time>
      </trkpt>
      <trkpt lat="44.76019" lon="0.45805">
        <ele>120.6</ele>
        <time>2025-07-14T07:17:59Z</time>
      </trkpt>
      <trkpt lat="44.76016" lon="0.45799">
        <ele>120.4</ele>
        <time>2025-07-14T07:18:00Z</time>
      </trkpt>
      <trkpt lat="44.76013" lon="0.45792">
        <ele>120.2</ele>
        <time>2025-07-14T07:18:01Z</time>
      </trkpt>
      <trkpt lat="44.7601" lon="0.45785">
        <ele>120.2</ele>
        <time>2025-07-14T07:18:02Z</time>
      </trkpt>
      <trkpt lat="44.76006" lon="0.45778">
        <ele>120</ele>
        <time>2025-07-14T07:18:03Z</time>
      </trkpt>
      <trkpt lat="44.76002" lon="0.45771">
        <ele>119.8</ele>
        <time>2025-07-14T07:18:04Z</time>
      </trkpt>
      <trkpt lat="44.75998" lon="0.45766">
        <ele>119.6</ele>
        <time>2025-07-14T07:18:05Z</time>
      </trkpt>
      <trkpt lat="44.75995" lon="0.45763">
        <ele>119.4</ele>
        <time>2025-07-14T07:18:06Z</time>
      </trkpt>
      <trkpt lat="44.7599" lon="0.45762">
        <ele>119</ele>
        <time>2025-07-14T07:18:07Z</time>
      </trkpt>
      <trkpt lat="44.75986" lon="0.45764">
        <ele>118.6</ele>
        <time>2025-07-14T07:18:08Z</time>
      </trkpt>
      <trkpt lat="44.75983" lon="0.45767">
        <ele>118.6</ele>
        <time>2025-07-14T07:18:09Z</time>
      </trkpt>
      <trkpt lat="44.75978" lon="0.4577">
        <ele>118.2</ele>
        <time>2025-07-14T07:18:10Z</time>
      </trkpt>
      <trkpt lat="44.75973" lon="0.45774">
        <ele>118</ele>
        <time>2025-07-14T07:18:11Z</time>
      </trkpt>
      <trkpt lat="44.75968" lon="0.45778">
        <ele>118</ele>
        <time>2025-07-14T07:18:12Z</time>
      </trkpt>
      <trkpt lat="44.75963" lon="0.45782">
        <ele>117.8</ele>
        <time>2025-07-14T07:18:13Z</time>
      </trkpt>
      <trkpt lat="44.75957" lon="0.45784">
        <ele>117.6</ele>
        <time>2025-07-14T07:18:14Z</time>
      </trkpt>
      <trkpt lat="44.7595" lon="0.45786">
        <ele>117.4</ele>
        <time>2025-07-14T07:18:15Z</time>
      </trkpt>
      <trkpt lat="44.75944" lon="0.45788">
        <ele>117</ele>
        <time>2025-07-14T07:18:16Z</time>
      </trkpt>
      <trkpt lat="44.75938" lon="0.45789">
        <ele>116.8</ele>
        <time>2025-07-14T07:18:17Z</time>
      </trkpt>
      <trkpt lat="44.75932" lon="0.45788">
        <ele>116.8</ele>
        <time>2025-07-14T07:18:18Z</time>
      </trkpt>
      <trkpt lat="44.75926" lon="0.45789">
        <ele>116.8</ele>
        <time>2025-07-14T07:18:19Z</time>
      </trkpt>
      <trkpt lat="44.7592" lon="0.4579">
        <ele>116.6</ele>
        <time>2025-07-14T07:18:20Z</time>
      </trkpt>
      <trkpt lat="44.75914" lon="0.45791">
        <ele>116.6</ele>
        <time>2025-07-14T07:18:21Z</time>
      </trkpt>
      <trkpt lat="44.75908" lon="0.45793">
        <ele>116.6</ele>
        <time>2025-07-14T07:18:22Z</time>
      </trkpt>
      <trkpt lat="44.75901" lon="0.45794">
        <ele>116.4</ele>
        <time>2025-07-14T07:18:23Z</time>
      </trkpt>
      <trkpt lat="44.75895" lon="0.45796">
        <ele>116.4</ele>
        <time>2025-07-14T07:18:24Z</time>
      </trkpt>
      <trkpt lat="44.75889" lon="0.45799">
        <ele>116.4</ele>
        <time>2025-07-14T07:18:25Z</time>
      </trkpt>
      <trkpt lat="44.75883" lon="0.45802">
        <ele>116.4</ele>
        <time>2025-07-14T07:18:26Z</time>
      </trkpt>
      <trkpt lat="44.75877" lon="0.45805">
        <ele>116.4</ele>
        <time>2025-07-14T07:18:27Z</time>
      </trkpt>
      <trkpt lat="44.75871" lon="0.45809">
        <ele>116.2</ele>
        <time>2025-07-14T07:18:28Z</time>
      </trkpt>
      <trkpt lat="44.75865" lon="0.45812">
        <ele>116.2</ele>
        <time>2025-07-14T07:18:29Z</time>
      </trkpt>
      <trkpt lat="44.75859" lon="0.45816">
        <ele>116</ele>
        <time>2025-07-14T07:18:30Z</time>
      </trkpt>
      <trkpt lat="44.75853" lon="0.45821">
        <ele>115.8</ele>
        <time>2025-07-14T07:18:31Z</time>
      </trkpt>
      <trkpt lat="44.75847" lon="0.45826">
        <ele>115.4</ele>
        <time>2025-07-14T07:18:32Z</time>
      </trkpt>
      <trkpt lat="44.75841" lon="0.45832">
        <ele>115.2</ele>
        <time>2025-07-14T07:18:33Z</time>
      </trkpt>
      <trkpt lat="44.75835" lon="0.45839">
        <ele>115</ele>
        <time>2025-07-14T07:18:34Z</time>
      </trkpt>
      <trkpt lat="44.75828" lon="0.45845">
        <ele>114.6</ele>
        <time>2025-07-14T07:18:35Z</time>
      </trkpt>
      <trkpt lat="44.75823" lon="0.45851">
        <ele>114.2</ele>
        <time>2025-07-14T07:18:36Z</time>
      </trkpt>
      <trkpt lat="44.75818" lon="0.45855">
        <ele>114</ele>
        <time>2025-07-14T07:18:37Z</time>
      </trkpt>
      <trkpt lat="44.75814" lon="0.45861">
        <ele>113.6</ele>
        <time>2025-07-14T07:18:38Z</time>
      </trkpt>
      <trkpt lat="44.7581" lon="0.45868">
        <ele>113.4</ele>
        <time>2025-07-14T07:18:39Z</time>
      </trkpt>
      <trkpt lat="44.75807" lon="0.45874">
        <ele>113</ele>
        <time>2025-07-14T07:18:40Z</time>
      </trkpt>
      <trkpt lat="44.75802" lon="0.45879">
        <ele>112.8</ele>
        <time>2025-07-14T07:18:41Z</time>
      </trkpt>
      <trkpt lat="44.75797" lon="0.45885">
        <ele>112.4</ele>
        <time>2025-07-14T07:18:42Z</time>
      </trkpt>
      <trkpt lat="44.75791" lon="0.45889">
        <ele>111.8</ele>
        <time>2025-07-14T07:18:43Z</time>
      </trkpt>
      <trkpt lat="44.75787" lon="0.45895">
        <ele>111.4</ele>
        <time>2025-07-14T07:18:44Z</time>
      </trkpt>
      <trkpt lat="44.75782" lon="0.45898">
        <ele>111.2</ele>
        <time>2025-07-14T07:18:45Z</time>
      </trkpt>
      <trkpt lat="44.75777" lon="0.45898">
        <ele>110.6</ele>
        <time>2025-07-14T07:18:46Z</time>
      </trkpt>
      <trkpt lat="44.75772" lon="0.45896">
        <ele>110</ele>
        <time>2025-07-14T07:18:47Z</time>
      </trkpt>
      <trkpt lat="44.75767" lon="0.45892">
        <ele>109.4</ele>
        <time>2025-07-14T07:18:48Z</time>
      </trkpt>
      <trkpt lat="44.75763" lon="0.45885">
        <ele>108.4</ele>
        <time>2025-07-14T07:18:49Z</time>
      </trkpt>
      <trkpt lat="44.75758" lon="0.45877">
        <ele>107.8</ele>
        <time>2025-07-14T07:18:50Z</time>
      </trkpt>
      <trkpt lat="44.75754" lon="0.45869">
        <ele>107.2</ele>
        <time>2025-07-14T07:18:51Z</time>
      </trkpt>
      <trkpt lat="44.75749" lon="0.4586">
        <ele>106.6</ele>
        <time>2025-07-14T07:18:52Z</time>
      </trkpt>
      <trkpt lat="44.75742" lon="0.45853">
        <ele>105.6</ele>
        <time>2025-07-14T07:18:53Z</time>
      </trkpt>
      <trkpt lat="44.75735" lon="0.45845">
        <ele>104.8</ele>
        <time>2025-07-14T07:18:54Z</time>
      </trkpt>
      <trkpt lat="44.75728" lon="0.45836">
        <ele>104</ele>
        <time>2025-07-14T07:18:55Z</time>
      </trkpt>
      <trkpt lat="44.75721" lon="0.45827">
        <ele>103</ele>
        <time>2025-07-14T07:18:56Z</time>
      </trkpt>
      <trkpt lat="44.75713" lon="0.45818">
        <ele>101.8</ele>
        <time>2025-07-14T07:18:57Z</time>
      </trkpt>
      <trkpt lat="44.75706" lon="0.45809">
        <ele>101</ele>
        <time>2025-07-14T07:18:58Z</time>
      </trkpt>
      <trkpt lat="44.75699" lon="0.458">
        <ele>100.2</ele>
        <time>2025-07-14T07:18:59Z</time>
      </trkpt>
      <trkpt lat="44.75692" lon="0.45791">
        <ele>99.2</ele>
        <time>2025-07-14T07:19:00Z</time>
      </trkpt>
      <trkpt lat="44.75686" lon="0.45782">
        <ele>98.4</ele>
        <time>2025-07-14T07:19:01Z</time>
      </trkpt>
      <trkpt lat="44.7568" lon="0.45774">
        <ele>97.8</ele>
        <time>2025-07-14T07:19:02Z</time>
      </trkpt>
      <trkpt lat="44.75675" lon="0.45769">
        <ele>97.8</ele>
        <time>2025-07-14T07:19:03Z</time>
      </trkpt>
      <trkpt lat="44.75669" lon="0.45766">
        <ele>97.6</ele>
        <time>2025-07-14T07:19:04Z</time>
      </trkpt>
      <trkpt lat="44.75662" lon="0.45763">
        <ele>97.4</ele>
        <time>2025-07-14T07:19:05Z</time>
      </trkpt>
      <trkpt lat="44.75656" lon="0.45759">
        <ele>97.2</ele>
        <time>2025-07-14T07:19:06Z</time>
      </trkpt>
      <trkpt lat="44.75651" lon="0.45755">
        <ele>97.2</ele>
        <time>2025-07-14T07:19:07Z</time>
      </trkpt>
      <trkpt lat="44.75645" lon="0.45751">
        <ele>97.2</ele>
        <time>2025-07-14T07:19:08Z</time>
      </trkpt>
      <trkpt lat="44.7564" lon="0.45748">
        <ele>97.4</ele>
        <time>2025-07-14T07:19:09Z</time>
      </trkpt>
      <trkpt lat="44.75635" lon="0.45744">
        <ele>97.6</ele>
        <time>2025-07-14T07:19:10Z</time>
      </trkpt>
      <trkpt lat="44.7563" lon="0.45741">
        <ele>97.8</ele>
        <time>2025-07-14T07:19:11Z</time>
      </trkpt>
      <trkpt lat="44.75626" lon="0.45738">
        <ele>98.2</ele>
        <time>2025-07-14T07:19:12Z</time>
      </trkpt>
      <trkpt lat="44.75622" lon="0.45735">
        <ele>98.4</ele>
        <time>2025-07-14T07:19:13Z</time>
      </trkpt>
      <trkpt lat="44.75617" lon="0.45732">
        <ele>98.8</ele>
        <time>2025-07-14T07:19:14Z</time>
      </trkpt>
      <trkpt lat="44.75613" lon="0.45729">
        <ele>99</ele>
        <time>2025-07-14T07:19:15Z</time>
      </trkpt>
      <trkpt lat="44.75609" lon="0.45726">
        <ele>99.6</ele>
        <time>2025-07-14T07:19:16Z</time>
      </trkpt>
      <trkpt lat="44.75605" lon="0.45723">
        <ele>99.8</ele>
        <time>2025-07-14T07:19:17Z</time>
      </trkpt>
      <trkpt lat="44.75602" lon="0.4572">
        <ele>100.2</ele>
        <time>2025-07-14T07:19:18Z</time>
      </trkpt>
      <trkpt lat="44.75598" lon="0.45718">
        <ele>100.4</ele>
        <time>2025-07-14T07:19:19Z</time>
      </trkpt>
      <trkpt lat="44.75595" lon="0.45715">
        <ele>100.6</ele>
        <time>2025-07-14T07:19:20Z</time>
      </trkpt>
      <trkpt lat="44.75591" lon="0.45713">
        <ele>101</ele>
        <time>2025-07-14T07:19:21Z</time>
      </trkpt>
      <trkpt lat="44.75588" lon="0.4571">
        <ele>101.4</ele>
        <time>2025-07-14T07:19:22Z</time>
      </trkpt>
      <trkpt lat="44.75584" lon="0.45707">
        <ele>101.6</ele>
        <time>2025-07-14T07:19:23Z</time>
      </trkpt>
      <trkpt lat="44.7558" lon="0.45705">
        <ele>101.8</ele>
        <time>2025-07-14T07:19:24Z</time>
      </trkpt>
      <trkpt lat="44.75576" lon="0.45702">
        <ele>102</ele>
        <time>2025-07-14T07:19:25Z</time>
      </trkpt>
      <trkpt lat="44.75572" lon="0.457">
        <ele>102.2</ele>
        <time>2025-07-14T07:19:26Z</time>
      </trkpt>
      <trkpt lat="44.75568" lon="0.45697">
        <ele>102.4</ele>
        <time>2025-07-14T07:19:27Z</time>
      </trkpt>
      <trkpt lat="44.75565" lon="0.45695">
        <ele>102.6</ele>
        <time>2025-07-14T07:19:28Z</time>
      </trkpt>
      <trkpt lat="44.75561" lon="0.45692">
        <ele>102.8</ele>
        <time>2025-07-14T07:19:29Z</time>
      </trkpt>
      <trkpt lat="44.75558" lon="0.4569">
        <ele>102.8</ele>
        <time>2025-07-14T07:19:30Z</time>
      </trkpt>
      <trkpt lat="44.75554" lon="0.45687">
        <ele>103</ele>
        <time>2025-07-14T07:19:31Z</time>
      </trkpt>
      <trkpt lat="44.75551" lon="0.45685">
        <ele>103</ele>
        <time>2025-07-14T07:19:32Z</time>
      </trkpt>
      <trkpt lat="44.75547" lon="0.45682">
        <ele>103</ele>
        <time>2025-07-14T07:19:33Z</time>
      </trkpt>
      <trkpt lat="44.75543" lon="0.4568">
        <ele>103</ele>
        <time>2025-07-14T07:19:34Z</time>
      </trkpt>
      <trkpt lat="44.7554" lon="0.45678">
        <ele>103.2</ele>
        <time>2025-07-14T07:19:35Z</time>
      </trkpt>
      <trkpt lat="44.75536" lon="0.45677">
        <ele>103.2</ele>
        <time>2025-07-14T07:19:36Z</time>
      </trkpt>
      <trkpt lat="44.75533" lon="0.45675">
        <ele>103.4</ele>
        <time>2025-07-14T07:19:37Z</time>
      </trkpt>
      <trkpt lat="44.75529" lon="0.45673">
        <ele>103.4</ele>
        <time>2025-07-14T07:19:38Z</time>
      </trkpt>
      <trkpt lat="44.75526" lon="0.45671">
        <ele>103.6</ele>
        <time>2025-07-14T07:19:39Z</time>
      </trkpt>
      <trkpt lat="44.75522" lon="0.4567">
        <ele>103.8</ele>
        <time>2025-07-14T07:19:40Z</time>
      </trkpt>
      <trkpt lat="44.75519" lon="0.45668">
        <ele>104.2</ele>
        <time>2025-07-14T07:19:41Z</time>
      </trkpt>
      <trkpt lat="44.75516" lon="0.45667">
        <ele>104.4</ele>
        <time>2025-07-14T07:19:42Z</time>
      </trkpt>
      <trkpt lat="44.75512" lon="0.45666">
        <ele>104.6</ele>
        <time>2025-07-14T07:19:43Z</time>
      </trkpt>
      <trkpt lat="44.75509" lon="0.45665">
        <ele>104.8</ele>
        <time>2025-07-14T07:19:44Z</time>
      </trkpt>
      <trkpt lat="44.75506" lon="0.45664">
        <ele>105</ele>
        <time>2025-07-14T07:19:45Z</time>
      </trkpt>
      <trkpt lat="44.75503" lon="0.45663">
        <ele>105.2</ele>
        <time>2025-07-14T07:19:46Z</time>
      </trkpt>
      <trkpt lat="44.755" lon="0.45662">
        <ele>105.6</ele>
        <time>2025-07-14T07:19:47Z</time>
      </trkpt>
      <trkpt lat="44.75498" lon="0.45661">
        <ele>105.8</ele>
        <time>2025-07-14T07:19:48Z</time>
      </trkpt>
      <trkpt lat="44.75495" lon="0.4566">
        <ele>106</ele>
        <time>2025-07-14T07:19:49Z</time>
      </trkpt>
      <trkpt lat="44.75492" lon="0.45659">
        <ele>106.4</ele>
        <time>2025-07-14T07:19:50Z</time>
      </trkpt>
      <trkpt lat="44.7549" lon="0.45657">
        <ele>106.6</ele>
        <time>2025-07-14T07:19:51Z</time>
      </trkpt>
      <trkpt lat="44.75487" lon="0.45655">
        <ele>106.8</ele>
        <time>2025-07-14T07:19:52Z</time>
      </trkpt>
      <trkpt lat="44.75485" lon="0.45652">
        <ele>107</ele>
        <time>2025-07-14T07:19:53Z</time>
      </trkpt>
      <trkpt lat="44.75483" lon="0.45649">
        <ele>107</ele>
        <time>2025-07-14T07:19:54Z</time>
      </trkpt>
      <trkpt lat="44.7548" lon="0.45647">
        <ele>107.2</ele>
        <time>2025-07-14T07:19:55Z</time>
      </trkpt>
      <trkpt lat="44.75479" lon="0.45644">
        <ele>107.2</ele>
        <time>2025-07-14T07:19:56Z</time>
      </trkpt>
      <trkpt lat="44.75476" lon="0.45641">
        <ele>107.4</ele>
        <time>2025-07-14T07:19:57Z</time>
      </trkpt>
      <trkpt lat="44.75474" lon="0.45639">
        <ele>107.6</ele>
        <time>2025-07-14T07:19:58Z</time>
      </trkpt>
      <trkpt lat="44.75471" lon="0.45637">
        <ele>107.6</ele>
        <time>2025-07-14T07:19:59Z</time>
      </trkpt>
      <trkpt lat="44.75467" lon="0.45635">
        <ele>107.8</ele>
        <time>2025-07-14T07:20:00Z</time>
      </trkpt>
      <trkpt lat="44.75464" lon="0.45633">
        <ele>108</ele>
        <time>2025-07-14T07:20:01Z</time>
      </trkpt>
      <trkpt lat="44.75461" lon="0.45631">
        <ele>108</ele>
        <time>2025-07-14T07:20:02Z</time>
      </trkpt>
      <trkpt lat="44.75458" lon="0.4563">
        <ele>108.2</ele>
        <time>2025-07-14T07:20:03Z</time>
      </trkpt>
      <trkpt lat="44.75455" lon="0.45629">
        <ele>108.4</ele>
        <time>2025-07-14T07:20:04Z</time>
      </trkpt>
      <trkpt lat="44.75452" lon="0.45628">
        <ele>108.4</ele>
        <time>2025-07-14T07:20:05Z</time>
      </trkpt>
      <trkpt lat="44.75449" lon="0.45626">
        <ele>108.6</ele>
        <time>2025-07-14T07:20:06Z</time>
      </trkpt>
      <trkpt lat="44.75447" lon="0.45625">
        <ele>108.6</ele>
        <time>2025-07-14T07:20:07Z</time>
      </trkpt>
      <trkpt lat="44.75444" lon="0.45623">
        <ele>108.8</ele>
        <time>2025-07-14T07:20:08Z</time>
      </trkpt>
      <trkpt lat="44.7544" lon="0.45621">
        <ele>108.8</ele>
        <time>2025-07-14T07:20:09Z</time>
      </trkpt>
      <trkpt lat="44.75437" lon="0.45619">
        <ele>109</ele>
        <time>2025-07-14T07:20:10Z</time>
      </trkpt>
      <trkpt lat="44.75434" lon="0.45618">
        <ele>109</ele>
        <time>2025-07-14T07:20:11Z</time>
      </trkpt>
      <trkpt lat="44.7543" lon="0.45616">
        <ele>109.2</ele>
        <time>2025-07-14T07:20:12Z</time>
      </trkpt>
      <trkpt lat="44.75427" lon="0.45614">
        <ele>109.2</ele>
        <time>2025-07-14T07:20:13Z</time>
      </trkpt>
      <trkpt lat="44.75424" lon="0.45612">
        <ele>109.2</ele>
        <time>2025-07-14T07:20:14Z</time>
      </trkpt>
      <trkpt lat="44.7542" lon="0.4561">
        <ele>109.2</ele>
        <time>2025-07-14T07:20:15Z</time>
      </trkpt>
      <trkpt lat="44.75416" lon="0.45608">
        <ele>109.2</ele>
        <time>2025-07-14T07:20:16Z</time>
      </trkpt>
      <trkpt lat="44.75412" lon="0.45606">
        <ele>109.2</ele>
        <time>2025-07-14T07:20:17Z</time>
      </trkpt>
      <trkpt lat="44.75409" lon="0.45604">
        <ele>109.4</ele>
        <time>2025-07-14T07:20:18Z</time>
      </trkpt>
      <trkpt lat="44.75405" lon="0.45602">
        <ele>109.4</ele>
        <time>2025-07-14T07:20:19Z</time>
      </trkpt>
      <trkpt lat="44.75401" lon="0.456">
        <ele>109.4</ele>
        <time>2025-07-14T07:20:20Z</time>
      </trkpt>
      <trkpt lat="44.75396" lon="0.45598">
        <ele>109.2</ele>
        <time>2025-07-14T07:20:21Z</time>
      </trkpt>
      <trkpt lat="44.75392" lon="0.45595">
        <ele>109</ele>
        <time>2025-07-14T07:20:22Z</time>
      </trkpt>
      <trkpt lat="44.75387" lon="0.45592">
        <ele>109</ele>
        <time>2025-07-14T07:20:23Z</time>
      </trkpt>
      <trkpt lat="44.75383" lon="0.45588">
        <ele>108.8</ele>
        <time>2025-07-14T07:20:24Z</time>
      </trkpt>
      <trkpt lat="44.7538" lon="0.45583">
        <ele>108.8</ele>
        <time>2025-07-14T07:20:25Z</time>
      </trkpt>
      <trkpt lat="44.75377" lon="0.45578">
        <ele>108.8</ele>
        <time>2025-07-14T07:20:26Z</time>
      </trkpt>
      <trkpt lat="44.75374" lon="0.45573">
        <ele>108.6</ele>
        <time>2025-07-14T07:20:27Z</time>
      </trkpt>
      <trkpt lat="44.75371" lon="0.45568">
        <ele>108.6</ele>
        <time>2025-07-14T07:20:28Z</time>
      </trkpt>
      <trkpt lat="44.75369" lon="0.45563">
        <ele>108.6</ele>
        <time>2025-07-14T07:20:29Z</time>
      </trkpt>
      <trkpt lat="44.75366" lon="0.45559">
        <ele>108.4</ele>
        <time>2025-07-14T07:20:30Z</time>
      </trkpt>
      <trkpt lat="44.75364" lon="0.45556">
        <ele>108.4</ele>
        <time>2025-07-14T07:20:31Z</time>
      </trkpt>
      <trkpt lat="44.75362" lon="0.45552">
        <ele>108.6</ele>
        <time>2025-07-14T07:20:32Z</time>
      </trkpt>
      <trkpt lat="44.75359" lon="0.45548">
        <ele>108.4</ele>
        <time>2025-07-14T07:20:33Z</time>
      </trkpt>
      <trkpt lat="44.75356" lon="0.45545">
        <ele>108.4</ele>
        <time>2025-07-14T07:20:34Z</time>
      </trkpt>
      <trkpt lat="44.75353" lon="0.45544">
        <ele>108.6</ele>
        <time>2025-07-14T07:20:35Z</time>
      </trkpt>
      <trkpt lat="44.75351" lon="0.45543">
        <ele>108.8</ele>
        <time>2025-07-14T07:20:36Z</time>
      </trkpt>
      <trkpt lat="44.75348" lon="0.45543">
        <ele>109</ele>
        <time>2025-07-14T07:20:37Z</time>
      </trkpt>
      <trkpt lat="44.75346" lon="0.45542">
        <ele>109.2</ele>
        <time>2025-07-14T07:20:38Z</time>
      </trkpt>
      <trkpt lat="44.75343" lon="0.45542">
        <ele>109.6</ele>
        <time>2025-07-14T07:20:39Z</time>
      </trkpt>
      <trkpt lat="44.75341" lon="0.45541">
        <ele>109.8</ele>
        <time>2025-07-14T07:20:40Z</time>
      </trkpt>
      <trkpt lat="44.75339" lon="0.45541">
        <ele>110</ele>
        <time>2025-07-14T07:20:41Z</time>
      </trkpt>
      <trkpt lat="44.75336" lon="0.4554">
        <ele>110.2</ele>
        <time>2025-07-14T07:20:42Z</time>
      </trkpt>
      <trkpt lat="44.75334" lon="0.45539">
        <ele>110.4</ele>
        <time>2025-07-14T07:20:43Z</time>
      </trkpt>
      <trkpt lat="44.75331" lon="0.45538">
        <ele>110.6</ele>
        <time>2025-07-14T07:20:44Z</time>
      </trkpt>
      <trkpt lat="44.75329" lon="0.45537">
        <ele>110.8</ele>
        <time>2025-07-14T07:20:45Z</time>
      </trkpt>
      <trkpt lat="44.75327" lon="0.45536">
        <ele>111</ele>
        <time>2025-07-14T07:20:46Z</time>
      </trkpt>
      <trkpt lat="44.75325" lon="0.45535">
        <ele>111.4</ele>
        <time>2025-07-14T07:20:47Z</time>
      </trkpt>
      <trkpt lat="44.75323" lon="0.45533">
        <ele>111.6</ele>
        <time>2025-07-14T07:20:48Z</time>
      </trkpt>
      <trkpt lat="44.75321" lon="0.45532">
        <ele>111.8</ele>
        <time>2025-07-14T07:20:49Z</time>
      </trkpt>
      <trkpt lat="44.75319" lon="0.4553">
        <ele>112.2</ele>
        <time>2025-07-14T07:20:50Z</time>
      </trkpt>
      <trkpt lat="44.75317" lon="0.45529">
        <ele>112.4</ele>
        <time>2025-07-14T07:20:51Z</time>
      </trkpt>
      <trkpt lat="44.75315" lon="0.45527">
        <ele>112.6</ele>
        <time>2025-07-14T07:20:52Z</time>
      </trkpt>
      <trkpt lat="44.75313" lon="0.45525">
        <ele>113</ele>
        <time>2025-07-14T07:20:53Z</time>
      </trkpt>
      <trkpt lat="44.75311" lon="0.45524">
        <ele>113.2</ele>
        <time>2025-07-14T07:20:54Z</time>
      </trkpt>
      <trkpt lat="44.75309" lon="0.45522">
        <ele>113.4</ele>
        <time>2025-07-14T07:20:55Z</time>
      </trkpt>
      <trkpt lat="44.75307" lon="0.4552">
        <ele>113.6</ele>
        <time>2025-07-14T07:20:56Z</time>
      </trkpt>
      <trkpt lat="44.75304" lon="0.45518">
        <ele>113.8</ele>
        <time>2025-07-14T07:20:57Z</time>
      </trkpt>
      <trkpt lat="44.75302" lon="0.45516">
        <ele>114</ele>
        <time>2025-07-14T07:20:58Z</time>
      </trkpt>
      <trkpt lat="44.753" lon="0.45514">
        <ele>114</ele>
        <time>2025-07-14T07:20:59Z</time>
      </trkpt>
      <trkpt lat="44.75298" lon="0.45512">
        <ele>114.2</ele>
        <time>2025-07-14T07:21:00Z</time>
      </trkpt>
      <trkpt lat="44.75296" lon="0.4551">
        <ele>114.4</ele>
        <time>2025-07-14T07:21:01Z</time>
      </trkpt>
      <trkpt lat="44.75294" lon="0.45508">
        <ele>114.6</ele>
        <time>2025-07-14T07:21:02Z</time>
      </trkpt>
      <trkpt lat="44.75292" lon="0.45506">
        <ele>114.8</ele>
        <time>2025-07-14T07:21:03Z</time>
      </trkpt>
      <trkpt lat="44.7529" lon="0.45504">
        <ele>114.8</ele>
        <time>2025-07-14T07:21:04Z</time>
      </trkpt>
      <trkpt lat="44.75288" lon="0.45503">
        <ele>115</ele>
        <time>2025-07-14T07:21:05Z</time>
      </trkpt>
      <trkpt lat="44.75285" lon="0.45501">
        <ele>115</ele>
        <time>2025-07-14T07:21:06Z</time>
      </trkpt>
      <trkpt lat="44.75283" lon="0.455">
        <ele>115.2</ele>
        <time>2025-07-14T07:21:07Z</time>
      </trkpt>
      <trkpt lat="44.75281" lon="0.45499">
        <ele>115.4</ele>
        <time>2025-07-14T07:21:08Z</time>
      </trkpt>
      <trkpt lat="44.75278" lon="0.45497">
        <ele>115.6</ele>
        <time>2025-07-14T07:21:09Z</time>
      </trkpt>
      <trkpt lat="44.75276" lon="0.45495">
        <ele>115.6</ele>
        <time>2025-07-14T07:21:10Z</time>
      </trkpt>
      <trkpt lat="44.75273" lon="0.45494">
        <ele>115.8</ele>
        <time>2025-07-14T07:21:11Z</time>
      </trkpt>
      <trkpt lat="44.75271" lon="0.45492">
        <ele>116</ele>
        <time>2025-07-14T07:21:12Z</time>
      </trkpt>
      <trkpt lat="44.75268" lon="0.4549">
        <ele>116</ele>
        <time>2025-07-14T07:21:13Z</time>
      </trkpt>
      <trkpt lat="44.75266" lon="0.45489">
        <ele>116.2</ele>
        <time>2025-07-14T07:21:14Z</time>
      </trkpt>
      <trkpt lat="44.75263" lon="0.45487">
        <ele>116.2</ele>
        <time>2025-07-14T07:21:15Z</time>
      </trkpt>
      <trkpt lat="44.7526" lon="0.45485">
        <ele>116.2</ele>
        <time>2025-07-14T07:21:16Z</time>
      </trkpt>
      <trkpt lat="44.75258" lon="0.45484">
        <ele>116.4</ele>
        <time>2025-07-14T07:21:17Z</time>
      </trkpt>
      <trkpt lat="44.75255" lon="0.45483">
        <ele>116.4</ele>
        <time>2025-07-14T07:21:18Z</time>
      </trkpt>
      <trkpt lat="44.75252" lon="0.45481">
        <ele>116.4</ele>
        <time>2025-07-14T07:21:19Z</time>
      </trkpt>
      <trkpt lat="44.75249" lon="0.4548">
        <ele>116.6</ele>
        <time>2025-07-14T07:21:20Z</time>
      </trkpt>
      <trkpt lat="44.75246" lon="0.45478">
        <ele>116.6</ele>
        <time>2025-07-14T07:21:21Z</time>
      </trkpt>
      <trkpt lat="44.75243" lon="0.45477">
        <ele>116.8</ele>
        <time>2025-07-14T07:21:22Z</time>
      </trkpt>
      <trkpt lat="44.75239" lon="0.45475">
        <ele>116.8</ele>
        <time>2025-07-14T07:21:23Z</time>
      </trkpt>
      <trkpt lat="44.75236" lon="0.45474">
        <ele>116.8</ele>
        <time>2025-07-14T07:21:24Z</time>
      </trkpt>
      <trkpt lat="44.75233" lon="0.45472">
        <ele>116.8</ele>
        <time>2025-07-14T07:21:25Z</time>
      </trkpt>
      <trkpt lat="44.7523" lon="0.45471">
        <ele>116.8</ele>
        <time>2025-07-14T07:21:26Z</time>
      </trkpt>
      <trkpt lat="44.75227" lon="0.45469">
        <ele>116.8</ele>
        <time>2025-07-14T07:21:27Z</time>
      </trkpt>
      <trkpt lat="44.75223" lon="0.45468">
        <ele>116.8</ele>
        <time>2025-07-14T07:21:28Z</time>
      </trkpt>
      <trkpt lat="44.7522" lon="0.45466">
        <ele>117</ele>
        <time>2025-07-14T07:21:29Z</time>
      </trkpt>
      <trkpt lat="44.75216" lon="0.45465">
        <ele>116.8</ele>
        <time>2025-07-14T07:21:30Z</time>
      </trkpt>
      <trkpt lat="44.75213" lon="0.45463">
        <ele>116.8</ele>
        <time>2025-07-14T07:21:31Z</time>
      </trkpt>
      <trkpt lat="44.75209" lon="0.45462">
        <ele>116.8</ele>
        <time>2025-07-14T07:21:32Z</time>
      </trkpt>
      <trkpt lat="44.75206" lon="0.45461">
        <ele>116.8</ele>
        <time>2025-07-14T07:21:33Z</time>
      </trkpt>
      <trkpt lat="44.75202" lon="0.45459">
        <ele>116.8</ele>
        <time>2025-07-14T07:21:34Z</time>
      </trkpt>
      <trkpt lat="44.75199" lon="0.45458">
        <ele>116.8</ele>
        <time>2025-07-14T07:21:35Z</time>
      </trkpt>
      <trkpt lat="44.75195" lon="0.45456">
        <ele>116.8</ele>
        <time>2025-07-14T07:21:36Z</time>
      </trkpt>
      <trkpt lat="44.75191" lon="0.45455">
        <ele>117</ele>
        <time>2025-07-14T07:21:37Z</time>
      </trkpt>
      <trkpt lat="44.75187" lon="0.45454">
        <ele>117</ele>
        <time>2025-07-14T07:21:38Z</time>
      </trkpt>
      <trkpt lat="44.75184" lon="0.45453">
        <ele>117.2</ele>
        <time>2025-07-14T07:21:39Z</time>
      </trkpt>
      <trkpt lat="44.7518" lon="0.45451">
        <ele>117.2</ele>
        <time>2025-07-14T07:21:40Z</time>
      </trkpt>
      <trkpt lat="44.75176" lon="0.45449">
        <ele>117.2</ele>
        <time>2025-07-14T07:21:41Z</time>
      </trkpt>
      <trkpt lat="44.75173" lon="0.45447">
        <ele>117.4</ele>
        <time>2025-07-14T07:21:42Z</time>
      </trkpt>
      <trkpt lat="44.75168" lon="0.45446">
        <ele>117.2</ele>
        <time>2025-07-14T07:21:43Z</time>
      </trkpt>
      <trkpt lat="44.75164" lon="0.45445">
        <ele>117.2</ele>
        <time>2025-07-14T07:21:44Z</time>
      </trkpt>
      <trkpt lat="44.7516" lon="0.45444">
        <ele>117.2</ele>
        <time>2025-07-14T07:21:45Z</time>
      </trkpt>
      <trkpt lat="44.75156" lon="0.45443">
        <ele>117.2</ele>
        <time>2025-07-14T07:21:46Z</time>
      </trkpt>
      <trkpt lat="44.75152" lon="0.45443">
        <ele>117.2</ele>
        <time>2025-07-14T07:21:47Z</time>
      </trkpt>
      <trkpt lat="44.75148" lon="0.45443">
        <ele>117.4</ele>
        <time>2025-07-14T07:21:48Z</time>
      </trkpt>
      <trkpt lat="44.75144" lon="0.45442">
        <ele>117.4</ele>
        <time>2025-07-14T07:21:49Z</time>
      </trkpt>
      <trkpt lat="44.7514" lon="0.45441">
        <ele>117.4</ele>
        <time>2025-07-14T07:21:50Z</time>
      </trkpt>
      <trkpt lat="44.75136" lon="0.45441">
        <ele>117.4</ele>
        <time>2025-07-14T07:21:51Z</time>
      </trkpt>
      <trkpt lat="44.75132" lon="0.45439">
        <ele>117.4</ele>
        <time>2025-07-14T07:21:52Z</time>
      </trkpt>
      <trkpt lat="44.75128" lon="0.45438">
        <ele>117.4</ele>
        <time>2025-07-14T07:21:53Z</time>
      </trkpt>
      <trkpt lat="44.75124" lon="0.45437">
        <ele>117.2</ele>
        <time>2025-07-14T07:21:54Z</time>
      </trkpt>
      <trkpt lat="44.75119" lon="0.45436">
        <ele>117.2</ele>
        <time>2025-07-14T07:21:55Z</time>
      </trkpt>
      <trkpt lat="44.75115" lon="0.45435">
        <ele>117.2</ele>
        <time>2025-07-14T07:21:56Z</time>
      </trkpt>
      <trkpt lat="44.7511" lon="0.45433">
        <ele>117</ele>
        <time>2025-07-14T07:21:57Z</time>
      </trkpt>
      <trkpt lat="44.75105" lon="0.4543">
        <ele>116.8</ele>
        <time>2025-07-14T07:21:58Z</time>
      </trkpt>
      <trkpt lat="44.75101" lon="0.45428">
        <ele>116.8</ele>
        <time>2025-07-14T07:21:59Z</time>
      </trkpt>
      <trkpt lat="44.75096" lon="0.45426">
        <ele>116.8</ele>
        <time>2025-07-14T07:22:00Z</time>
      </trkpt>
      <trkpt lat="44.75091" lon="0.45422">
        <ele>116.8</ele>
        <time>2025-07-14T07:22:01Z</time>
      </trkpt>
      <trkpt lat="44.75087" lon="0.45419">
        <ele>117</ele>
        <time>2025-07-14T07:22:02Z</time>
      </trkpt>
      <trkpt lat="44.75083" lon="0.45415">
        <ele>117.2</ele>
        <time>2025-07-14T07:22:03Z</time>
      </trkpt>
      <trkpt lat="44.75079" lon="0.45412">
        <ele>117.2</ele>
        <time>2025-07-14T07:22:04Z</time>
      </trkpt>
      <trkpt lat="44.75074" lon="0.4541">
        <ele>117</ele>
        <time>2025-07-14T07:22:05Z</time>
      </trkpt>
      <trkpt lat="44.75069" lon="0.4541">
        <ele>116.8</ele>
        <time>2025-07-14T07:22:06Z</time>
      </trkpt>
      <trkpt lat="44.75065" lon="0.4541">
        <ele>116.8</ele>
        <time>2025-07-14T07:22:07Z</time>
      </trkpt>
      <trkpt lat="44.7506" lon="0.45409">
        <ele>116.8</ele>
        <time>2025-07-14T07:22:08Z</time>
      </trkpt>
      <trkpt lat="44.75056" lon="0.4541">
        <ele>116.8</ele>
        <time>2025-07-14T07:22:09Z</time>
      </trkpt>
      <trkpt lat="44.75051" lon="0.4541">
        <ele>117</ele>
        <time>2025-07-14T07:22:10Z</time>
      </trkpt>
      <trkpt lat="44.75047" lon="0.4541">
        <ele>117.2</ele>
        <time>2025-07-14T07:22:11Z</time>
      </trkpt>
      <trkpt lat="44.75043" lon="0.45409">
        <ele>117.2</ele>
        <time>2025-07-14T07:22:12Z</time>
      </trkpt>
      <trkpt lat="44.7504" lon="0.4541">
        <ele>117.2</ele>
        <time>2025-07-14T07:22:13Z</time>
      </trkpt>
      <trkpt lat="44.75036" lon="0.4541">
        <ele>117.4</ele>
        <time>2025-07-14T07:22:14Z</time>
      </trkpt>
      <trkpt lat="44.75033" lon="0.45412">
        <ele>117.4</ele>
        <time>2025-07-14T07:22:15Z</time>
      </trkpt>
      <trkpt lat="44.7503" lon="0.45412">
        <ele>117.4</ele>
        <time>2025-07-14T07:22:16Z</time>
      </trkpt>
      <trkpt lat="44.75026" lon="0.45413">
        <ele>117.6</ele>
        <time>2025-07-14T07:22:17Z</time>
      </trkpt>
      <trkpt lat="44.75023" lon="0.45413">
        <ele>117.6</ele>
        <time>2025-07-14T07:22:18Z</time>
      </trkpt>
      <trkpt lat="44.7502" lon="0.45414">
        <ele>117.8</ele>
        <time>2025-07-14T07:22:19Z</time>
      </trkpt>
      <trkpt lat="44.75016" lon="0.45416">
        <ele>117.8</ele>
        <time>2025-07-14T07:22:20Z</time>
      </trkpt>
      <trkpt lat="44.75013" lon="0.45417">
        <ele>117.8</ele>
        <time>2025-07-14T07:22:21Z</time>
      </trkpt>
      <trkpt lat="44.75009" lon="0.45419">
        <ele>117.8</ele>
        <time>2025-07-14T07:22:22Z</time>
      </trkpt>
      <trkpt lat="44.75006" lon="0.4542">
        <ele>117.8</ele>
        <time>2025-07-14T07:22:23Z</time>
      </trkpt>
      <trkpt lat="44.75002" lon="0.45421">
        <ele>117.8</ele>
        <time>2025-07-14T07:22:24Z</time>
      </trkpt>
      <trkpt lat="44.74999" lon="0.45423">
        <ele>118</ele>
        <time>2025-07-14T07:22:25Z</time>
      </trkpt>
      <trkpt lat="44.74996" lon="0.45424">
        <ele>118</ele>
        <time>2025-07-14T07:22:26Z</time>
      </trkpt>
      <trkpt lat="44.74993" lon="0.45425">
        <ele>118</ele>
        <time>2025-07-14T07:22:27Z</time>
      </trkpt>
      <trkpt lat="44.74989" lon="0.45427">
        <ele>118.2</ele>
        <time>2025-07-14T07:22:28Z</time>
      </trkpt>
      <trkpt lat="44.74986" lon="0.45428">
        <ele>118.2</ele>
        <time>2025-07-14T07:22:29Z</time>
      </trkpt>
      <trkpt lat="44.74983" lon="0.45429">
        <ele>118.2</ele>
        <time>2025-07-14T07:22:30Z</time>
      </trkpt>
      <trkpt lat="44.74979" lon="0.45431">
        <ele>118.4</ele>
        <time>2025-07-14T07:22:31Z</time>
      </trkpt>
      <trkpt lat="44.74976" lon="0.45432">
        <ele>118.4</ele>
        <time>2025-07-14T07:22:32Z</time>
      </trkpt>
      <trkpt lat="44.74973" lon="0.45433">
        <ele>118.6</ele>
        <time>2025-07-14T07:22:33Z</time>
      </trkpt>
      <trkpt lat="44.7497" lon="0.45434">
        <ele>118.6</ele>
        <time>2025-07-14T07:22:34Z</time>
      </trkpt>
      <trkpt lat="44.74967" lon="0.45436">
        <ele>118.8</ele>
        <time>2025-07-14T07:22:35Z</time>
      </trkpt>
      <trkpt lat="44.74963" lon="0.45437">
        <ele>118.8</ele>
        <time>2025-07-14T07:22:36Z</time>
      </trkpt>
      <trkpt lat="44.7496" lon="0.45438">
        <ele>119</ele>
        <time>2025-07-14T07:22:37Z</time>
      </trkpt>
      <trkpt lat="44.74957" lon="0.45438">
        <ele>119</ele>
        <time>2025-07-14T07:22:38Z</time>
      </trkpt>
      <trkpt lat="44.74954" lon="0.45439">
        <ele>119.2</ele>
        <time>2025-07-14T07:22:39Z</time>
      </trkpt>
      <trkpt lat="44.74951" lon="0.45439">
        <ele>119.2</ele>
        <time>2025-07-14T07:22:40Z</time>
      </trkpt>
      <trkpt lat="44.74947" lon="0.45439">
        <ele>119.4</ele>
        <time>2025-07-14T07:22:41Z</time>
      </trkpt>
      <trkpt lat="44.74944" lon="0.45438">
        <ele>119.4</ele>
        <time>2025-07-14T07:22:42Z</time>
      </trkpt>
      <trkpt lat="44.74941" lon="0.45437">
        <ele>119.6</ele>
        <time>2025-07-14T07:22:43Z</time>
      </trkpt>
      <trkpt lat="44.74938" lon="0.45437">
        <ele>119.6</ele>
        <time>2025-07-14T07:22:44Z</time>
      </trkpt>
      <trkpt lat="44.74934" lon="0.45436">
        <ele>119.8</ele>
        <time>2025-07-14T07:22:45Z</time>
      </trkpt>
      <trkpt lat="44.74931" lon="0.45435">
        <ele>119.8</ele>
        <time>2025-07-14T07:22:46Z</time>
      </trkpt>
      <trkpt lat="44.74928" lon="0.45434">
        <ele>120</ele>
        <time>2025-07-14T07:22:47Z</time>
      </trkpt>
      <trkpt lat="44.74924" lon="0.45433">
        <ele>120</ele>
        <time>2025-07-14T07:22:48Z</time>
      </trkpt>
      <trkpt lat="44.74921" lon="0.45432">
        <ele>120</ele>
        <time>2025-07-14T07:22:49Z</time>
      </trkpt>
      <trkpt lat="44.74917" lon="0.45431">
        <ele>120.2</ele>
        <time>2025-07-14T07:22:50Z</time>
      </trkpt>
      <trkpt lat="44.74914" lon="0.4543">
        <ele>120.2</ele>
        <time>2025-07-14T07:22:51Z</time>
      </trkpt>
      <trkpt lat="44.74911" lon="0.45429">
        <ele>120.2</ele>
        <time>2025-07-14T07:22:52Z</time>
      </trkpt>
      <trkpt lat="44.74907" lon="0.45428">
        <ele>120.2</ele>
        <time>2025-07-14T07:22:53Z</time>
      </trkpt>
      <trkpt lat="44.74904" lon="0.45427">
        <ele>120.4</ele>
        <time>2025-07-14T07:22:54Z</time>
      </trkpt>
      <trkpt lat="44.74901" lon="0.45426">
        <ele>120.4</ele>
        <time>2025-07-14T07:22:55Z</time>
      </trkpt>
      <trkpt lat="44.74897" lon="0.45425">
        <ele>120.4</ele>
        <time>2025-07-14T07:22:56Z</time>
      </trkpt>
      <trkpt lat="44.74894" lon="0.45424">
        <ele>120.6</ele>
        <time>2025-07-14T07:22:57Z</time>
      </trkpt>
      <trkpt lat="44.74891" lon="0.45423">
        <ele>120.6</ele>
        <time>2025-07-14T07:22:58Z</time>
      </trkpt>
      <trkpt lat="44.74887" lon="0.45422">
        <ele>120.8</ele>
        <time>2025-07-14T07:22:59Z</time>
      </trkpt>
      <trkpt lat="44.74884" lon="0.45422">
        <ele>121</ele>
        <time>2025-07-14T07:23:00Z</time>
      </trkpt>
      <trkpt lat="44.74881" lon="0.45421">
        <ele>121</ele>
        <time>2025-07-14T07:23:01Z</time>
      </trkpt>
      <trkpt lat="44.74877" lon="0.4542">
        <ele>121.2</ele>
        <time>2025-07-14T07:23:02Z</time>
      </trkpt>
      <trkpt lat="44.74874" lon="0.45419">
        <ele>121.2</ele>
        <time>2025-07-14T07:23:03Z</time>
      </trkpt>
      <trkpt lat="44.74871" lon="0.45418">
        <ele>121.4</ele>
        <time>2025-07-14T07:23:04Z</time>
      </trkpt>
      <trkpt lat="44.74868" lon="0.45417">
        <ele>121.4</ele>
        <time>2025-07-14T07:23:05Z</time>
      </trkpt>
      <trkpt lat="44.74865" lon="0.45416">
        <ele>121.6</ele>
        <time>2025-07-14T07:23:06Z</time>
      </trkpt>
      <trkpt lat="44.74862" lon="0.45415">
        <ele>121.6</ele>
        <time>2025-07-14T07:23:07Z</time>
      </trkpt>
      <trkpt lat="44.74859" lon="0.45414">
        <ele>121.8</ele>
        <time>2025-07-14T07:23:08Z</time>
      </trkpt>
      <trkpt lat="44.74856" lon="0.45413">
        <ele>121.8</ele>
        <time>2025-07-14T07:23:09Z</time>
      </trkpt>
      <trkpt lat="44.74853" lon="0.45412">
        <ele>121.8</ele>
        <time>2025-07-14T07:23:10Z</time>
      </trkpt>
      <trkpt lat="44.7485" lon="0.45411">
        <ele>122</ele>
        <time>2025-07-14T07:23:11Z</time>
      </trkpt>
      <trkpt lat="44.74847" lon="0.45411">
        <ele>122.2</ele>
        <time>2025-07-14T07:23:12Z</time>
      </trkpt>
      <trkpt lat="44.74844" lon="0.4541">
        <ele>122.2</ele>
        <time>2025-07-14T07:23:13Z</time>
      </trkpt>
      <trkpt lat="44.74842" lon="0.4541">
        <ele>122.4</ele>
        <time>2025-07-14T07:23:14Z</time>
      </trkpt>
      <trkpt lat="44.74839" lon="0.45409">
        <ele>122.6</ele>
        <time>2025-07-14T07:23:15Z</time>
      </trkpt>
      <trkpt lat="44.74837" lon="0.45409">
        <ele>123</ele>
        <time>2025-07-14T07:23:16Z</time>
      </trkpt>
      <trkpt lat="44.74835" lon="0.45408">
        <ele>123.2</ele>
        <time>2025-07-14T07:23:17Z</time>
      </trkpt>
      <trkpt lat="44.74833" lon="0.45408">
        <ele>123.4</ele>
        <time>2025-07-14T07:23:18Z</time>
      </trkpt>
      <trkpt lat="44.74831" lon="0.45408">
        <ele>123.8</ele>
        <time>2025-07-14T07:23:19Z</time>
      </trkpt>
      <trkpt lat="44.74829" lon="0.45407">
        <ele>124</ele>
        <time>2025-07-14T07:23:20Z</time>
      </trkpt>
      <trkpt lat="44.74828" lon="0.45406">
        <ele>124.4</ele>
        <time>2025-07-14T07:23:21Z</time>
      </trkpt>
      <trkpt lat="44.74827" lon="0.45405">
        <ele>124.6</ele>
        <time>2025-07-14T07:23:22Z</time>
      </trkpt>
      <trkpt lat="44.74825" lon="0.45405">
        <ele>124.8</ele>
        <time>2025-07-14T07:23:23Z</time>
      </trkpt>
      <trkpt lat="44.74823" lon="0.45405">
        <ele>125.2</ele>
        <time>2025-07-14T07:23:24Z</time>
      </trkpt>
      <trkpt lat="44.74822" lon="0.45405">
        <ele>125.4</ele>
        <time>2025-07-14T07:23:25Z</time>
      </trkpt>
      <trkpt lat="44.7482" lon="0.45407">
        <ele>125.6</ele>
        <time>2025-07-14T07:23:26Z</time>
      </trkpt>
      <trkpt lat="44.74818" lon="0.45408">
        <ele>125.8</ele>
        <time>2025-07-14T07:23:27Z</time>
      </trkpt>
      <trkpt lat="44.74817" lon="0.4541">
        <ele>126</ele>
        <time>2025-07-14T07:23:28Z</time>
      </trkpt>
      <trkpt lat="44.74814" lon="0.45411">
        <ele>126.2</ele>
        <time>2025-07-14T07:23:29Z</time>
      </trkpt>
      <trkpt lat="44.74812" lon="0.45413">
        <ele>126.4</ele>
        <time>2025-07-14T07:23:30Z</time>
      </trkpt>
      <trkpt lat="44.7481" lon="0.45414">
        <ele>126.4</ele>
        <time>2025-07-14T07:23:31Z</time>
      </trkpt>
      <trkpt lat="44.74808" lon="0.45416">
        <ele>126.6</ele>
        <time>2025-07-14T07:23:32Z</time>
      </trkpt>
      <trkpt lat="44.74807" lon="0.45418">
        <ele>126.8</ele>
        <time>2025-07-14T07:23:33Z</time>
      </trkpt>
      <trkpt lat="44.74805" lon="0.45421">
        <ele>126.8</ele>
        <time>2025-07-14T07:23:34Z</time>
      </trkpt>
      <trkpt lat="44.74803" lon="0.45423">
        <ele>127</ele>
        <time>2025-07-14T07:23:35Z</time>
      </trkpt>
      <trkpt lat="44.74801" lon="0.45425">
        <ele>127.2</ele>
        <time>2025-07-14T07:23:36Z</time>
      </trkpt>
      <trkpt lat="44.748" lon="0.45427">
        <ele>127.2</ele>
        <time>2025-07-14T07:23:37Z</time>
      </trkpt>
      <trkpt lat="44.74798" lon="0.45429">
        <ele>127.4</ele>
        <time>2025-07-14T07:23:38Z</time>
      </trkpt>
      <trkpt lat="44.74796" lon="0.45431">
        <ele>127.4</ele>
        <time>2025-07-14T07:23:39Z</time>
      </trkpt>
      <trkpt lat="44.74794" lon="0.45433">
        <ele>127.6</ele>
        <time>2025-07-14T07:23:40Z</time>
      </trkpt>
      <trkpt lat="44.74792" lon="0.45435">
        <ele>127.6</ele>
        <time>2025-07-14T07:23:41Z</time>
      </trkpt>
      <trkpt lat="44.7479" lon="0.45437">
        <ele>127.8</ele>
        <time>2025-07-14T07:23:42Z</time>
      </trkpt>
      <trkpt lat="44.74789" lon="0.4544">
        <ele>128</ele>
        <time>2025-07-14T07:23:43Z</time>
      </trkpt>
      <trkpt lat="44.74787" lon="0.45442">
        <ele>128</ele>
        <time>2025-07-14T07:23:44Z</time>
      </trkpt>
      <trkpt lat="44.74786" lon="0.45444">
        <ele>128.2</ele>
        <time>2025-07-14T07:23:45Z</time>
      </trkpt>
      <trkpt lat="44.74784" lon="0.45447">
        <ele>128.4</ele>
        <time>2025-07-14T07:23:46Z</time>
      </trkpt>
      <trkpt lat="44.74782" lon="0.4545">
        <ele>128.6</ele>
        <time>2025-07-14T07:23:47Z</time>
      </trkpt>
      <trkpt lat="44.74781" lon="0.45452">
        <ele>128.8</ele>
        <time>2025-07-14T07:23:48Z</time>
      </trkpt>
      <trkpt lat="44.74779" lon="0.45455">
        <ele>129</ele>
        <time>2025-07-14T07:23:49Z</time>
      </trkpt>
      <trkpt lat="44.74777" lon="0.45457">
        <ele>129.2</ele>
        <time>2025-07-14T07:23:50Z</time>
      </trkpt>
      <trkpt lat="44.74775" lon="0.45457">
        <ele>129.4</ele>
        <time>2025-07-14T07:23:51Z</time>
      </trkpt>
      <trkpt lat="44.74773" lon="0.45458">
        <ele>129.6</ele>
        <time>2025-07-14T07:23:52Z</time>
      </trkpt>
      <trkpt lat="44.74771" lon="0.45457">
        <ele>129.8</ele>
        <time>2025-07-14T07:23:53Z</time>
      </trkpt>
      <trkpt lat="44.74769" lon="0.45456">
        <ele>129.8</ele>
        <time>2025-07-14T07:23:54Z</time>
      </trkpt>
      <trkpt lat="44.74768" lon="0.45455">
        <ele>130</ele>
        <time>2025-07-14T07:23:55Z</time>
      </trkpt>
      <trkpt lat="44.74766" lon="0.45454">
        <ele>130.2</ele>
        <time>2025-07-14T07:23:56Z</time>
      </trkpt>
      <trkpt lat="44.74765" lon="0.45453">
        <ele>130.4</ele>
        <time>2025-07-14T07:23:57Z</time>
      </trkpt>
      <trkpt lat="44.74763" lon="0.45452">
        <ele>130.8</ele>
        <time>2025-07-14T07:23:58Z</time>
      </trkpt>
      <trkpt lat="44.74761" lon="0.45452">
        <ele>131</ele>
        <time>2025-07-14T07:23:59Z</time>
      </trkpt>
      <trkpt lat="44.7476" lon="0.45452">
        <ele>131.2</ele>
        <time>2025-07-14T07:24:00Z</time>
      </trkpt>
      <trkpt lat="44.74758" lon="0.45451">
        <ele>131.6</ele>
        <time>2025-07-14T07:24:01Z</time>
      </trkpt>
      <trkpt lat="44.74756" lon="0.45451">
        <ele>131.8</ele>
        <time>2025-07-14T07:24:02Z</time>
      </trkpt>
      <trkpt lat="44.74755" lon="0.4545">
        <ele>132</ele>
        <time>2025-07-14T07:24:03Z</time>
      </trkpt>
      <trkpt lat="44.74753" lon="0.4545">
        <ele>132.4</ele>
        <time>2025-07-14T07:24:04Z</time>
      </trkpt>
      <trkpt lat="44.74751" lon="0.45449">
        <ele>132.6</ele>
        <time>2025-07-14T07:24:05Z</time>
      </trkpt>
      <trkpt lat="44.74749" lon="0.45449">
        <ele>132.8</ele>
        <time>2025-07-14T07:24:06Z</time>
      </trkpt>
      <trkpt lat="44.74747" lon="0.45448">
        <ele>133</ele>
        <time>2025-07-14T07:24:07Z</time>
      </trkpt>
      <trkpt lat="44.74745" lon="0.45449">
        <ele>133.2</ele>
        <time>2025-07-14T07:24:08Z</time>
      </trkpt>
      <trkpt lat="44.74742" lon="0.45449">
        <ele>133.4</ele>
        <time>2025-07-14T07:24:09Z</time>
      </trkpt>
      <trkpt lat="44.7474" lon="0.45448">
        <ele>133.6</ele>
        <time>2025-07-14T07:24:10Z</time>
      </trkpt>
      <trkpt lat="44.74738" lon="0.45448">
        <ele>133.6</ele>
        <time>2025-07-14T07:24:11Z</time>
      </trkpt>
      <trkpt lat="44.74736" lon="0.45448">
        <ele>133.8</ele>
        <time>2025-07-14T07:24:12Z</time>
      </trkpt>
      <trkpt lat="44.74733" lon="0.45448">
        <ele>134</ele>
        <time>2025-07-14T07:24:13Z</time>
      </trkpt>
      <trkpt lat="44.7473" lon="0.45448">
        <ele>134</ele>
        <time>2025-07-14T07:24:14Z</time>
      </trkpt>
      <trkpt lat="44.74728" lon="0.45448">
        <ele>134.2</ele>
        <time>2025-07-14T07:24:15Z</time>
      </trkpt>
      <trkpt lat="44.74726" lon="0.45447">
        <ele>134.4</ele>
        <time>2025-07-14T07:24:16Z</time>
      </trkpt>
      <trkpt lat="44.74723" lon="0.45447">
        <ele>134.6</ele>
        <time>2025-07-14T07:24:17Z</time>
      </trkpt>
      <trkpt lat="44.7472" lon="0.45446">
        <ele>134.6</ele>
        <time>2025-07-14T07:24:18Z</time>
      </trkpt>
      <trkpt lat="44.74717" lon="0.45446">
        <ele>134.8</ele>
        <time>2025-07-14T07:24:19Z</time>
      </trkpt>
      <trkpt lat="44.74715" lon="0.45446">
        <ele>134.8</ele>
        <time>2025-07-14T07:24:20Z</time>
      </trkpt>
      <trkpt lat="44.74712" lon="0.45444">
        <ele>134.8</ele>
        <time>2025-07-14T07:24:21Z</time>
      </trkpt>
      <trkpt lat="44.7471" lon="0.4544">
        <ele>135</ele>
        <time>2025-07-14T07:24:22Z</time>
      </trkpt>
      <trkpt lat="44.7471" lon="0.45436">
        <ele>135</ele>
        <time>2025-07-14T07:24:23Z</time>
      </trkpt>
      <trkpt lat="44.7471" lon="0.45432">
        <ele>135</ele>
        <time>2025-07-14T07:24:24Z</time>
      </trkpt>
      <trkpt lat="44.7471" lon="0.45428">
        <ele>135.2</ele>
        <time>2025-07-14T07:24:25Z</time>
      </trkpt>
      <trkpt lat="44.7471" lon="0.45423">
        <ele>135.2</ele>
        <time>2025-07-14T07:24:26Z</time>
      </trkpt>
      <trkpt lat="44.7471" lon="0.45418">
        <ele>135.2</ele>
        <time>2025-07-14T07:24:27Z</time>
      </trkpt>
      <trkpt lat="44.7471" lon="0.45413">
        <ele>135.2</ele>
        <time>2025-07-14T07:24:28Z</time>
      </trkpt>
      <trkpt lat="44.74709" lon="0.45407">
        <ele>135.2</ele>
        <time>2025-07-14T07:24:29Z</time>
      </trkpt>
      <trkpt lat="44.74709" lon="0.45402">
        <ele>135.2</ele>
        <time>2025-07-14T07:24:30Z</time>
      </trkpt>
      <trkpt lat="44.74709" lon="0.45397">
        <ele>135.2</ele>
        <time>2025-07-14T07:24:31Z</time>
      </trkpt>
      <trkpt lat="44.74709" lon="0.45392">
        <ele>135</ele>
        <time>2025-07-14T07:24:32Z</time>
      </trkpt>
      <trkpt lat="44.7471" lon="0.45386">
        <ele>135</ele>
        <time>2025-07-14T07:24:33Z</time>
      </trkpt>
      <trkpt lat="44.7471" lon="0.4538">
        <ele>135</ele>
        <time>2025-07-14T07:24:34Z</time>
      </trkpt>
      <trkpt lat="44.7471" lon="0.45375">
        <ele>135</ele>
        <time>2025-07-14T07:24:35Z</time>
      </trkpt>
      <trkpt lat="44.7471" lon="0.45369">
        <ele>134.8</ele>
        <time>2025-07-14T07:24:36Z</time>
      </trkpt>
      <trkpt lat="44.7471" lon="0.45364">
        <ele>134.8</ele>
        <time>2025-07-14T07:24:37Z</time>
      </trkpt>
      <trkpt lat="44.7471" lon="0.45358">
        <ele>134.8</ele>
        <time>2025-07-14T07:24:38Z</time>
      </trkpt>
      <trkpt lat="44.74711" lon="0.45353">
        <ele>134.8</ele>
        <time>2025-07-14T07:24:39Z</time>
      </trkpt>
      <trkpt lat="44.74711" lon="0.45347">
        <ele>135</ele>
        <time>2025-07-14T07:24:40Z</time>
      </trkpt>
      <trkpt lat="44.74711" lon="0.45342">
        <ele>135</ele>
        <time>2025-07-14T07:24:41Z</time>
      </trkpt>
      <trkpt lat="44.74711" lon="0.45336">
        <ele>135</ele>
        <time>2025-07-14T07:24:42Z</time>
      </trkpt>
      <trkpt lat="44.74711" lon="0.45331">
        <ele>135</ele>
        <time>2025-07-14T07:24:43Z</time>
      </trkpt>
      <trkpt lat="44.74711" lon="0.45326">
        <ele>135</ele>
        <time>2025-07-14T07:24:44Z</time>
      </trkpt>
      <trkpt lat="44.74711" lon="0.4532">
        <ele>135.2</ele>
        <time>2025-07-14T07:24:45Z</time>
      </trkpt>
      <trkpt lat="44.74711" lon="0.45315">
        <ele>135.2</ele>
        <time>2025-07-14T07:24:46Z</time>
      </trkpt>
      <trkpt lat="44.74711" lon="0.4531">
        <ele>135.4</ele>
        <time>2025-07-14T07:24:47Z</time>
      </trkpt>
      <trkpt lat="44.74711" lon="0.45304">
        <ele>135.4</ele>
        <time>2025-07-14T07:24:48Z</time>
      </trkpt>
      <trkpt lat="44.74711" lon="0.45298">
        <ele>135.6</ele>
        <time>2025-07-14T07:24:49Z</time>
      </trkpt>
      <trkpt lat="44.74711" lon="0.45293">
        <ele>135.6</ele>
        <time>2025-07-14T07:24:50Z</time>
      </trkpt>
      <trkpt lat="44.74712" lon="0.45286">
        <ele>135.6</ele>
        <time>2025-07-14T07:24:51Z</time>
      </trkpt>
      <trkpt lat="44.74712" lon="0.4528">
        <ele>135.6</ele>
        <time>2025-07-14T07:24:52Z</time>
      </trkpt>
      <trkpt lat="44.74712" lon="0.45273">
        <ele>135.6</ele>
        <time>2025-07-14T07:24:53Z</time>
      </trkpt>
      <trkpt lat="44.74712" lon="0.45266">
        <ele>135.8</ele>
        <time>2025-07-14T07:24:54Z</time>
      </trkpt>
      <trkpt lat="44.74712" lon="0.45259">
        <ele>135.6</ele>
        <time>2025-07-14T07:24:55Z</time>
      </trkpt>
      <trkpt lat="44.74712" lon="0.45253">
        <ele>135.6</ele>
        <time>2025-07-14T07:24:56Z</time>
      </trkpt>
      <trkpt lat="44.74711" lon="0.45246">
        <ele>135.6</ele>
        <time>2025-07-14T07:24:57Z</time>
      </trkpt>
      <trkpt lat="44.74711" lon="0.45239">
        <ele>135.4</ele>
        <time>2025-07-14T07:24:58Z</time>
      </trkpt>
      <trkpt lat="44.74711" lon="0.45232">
        <ele>135.4</ele>
        <time>2025-07-14T07:24:59Z</time>
      </trkpt>
      <trkpt lat="44.74711" lon="0.45225">
        <ele>135.2</ele>
        <time>2025-07-14T07:25:00Z</time>
      </trkpt>
      <trkpt lat="44.74711" lon="0.45218">
        <ele>135.2</ele>
        <time>2025-07-14T07:25:01Z</time>
      </trkpt>
      <trkpt lat="44.74711" lon="0.45211">
        <ele>135.2</ele>
        <time>2025-07-14T07:25:02Z</time>
      </trkpt>
      <trkpt lat="44.74711" lon="0.45205">
        <ele>135</ele>
        <time>2025-07-14T07:25:03Z</time>
      </trkpt>
      <trkpt lat="44.74712" lon="0.45199">
        <ele>135.2</ele>
        <time>2025-07-14T07:25:04Z</time>
      </trkpt>
      <trkpt lat="44.74712" lon="0.45192">
        <ele>135.2</ele>
        <time>2025-07-14T07:25:05Z</time>
      </trkpt>
      <trkpt lat="44.74713" lon="0.45186">
        <ele>135.2</ele>
        <time>2025-07-14T07:25:06Z</time>
      </trkpt>
      <trkpt lat="44.74713" lon="0.4518">
        <ele>135.2</ele>
        <time>2025-07-14T07:25:07Z</time>
      </trkpt>
      <trkpt lat="44.74714" lon="0.45173">
        <ele>135.2</ele>
        <time>2025-07-14T07:25:08Z</time>
      </trkpt>
      <trkpt lat="44.74714" lon="0.45167">
        <ele>135.2</ele>
        <time>2025-07-14T07:25:09Z</time>
      </trkpt>
      <trkpt lat="44.74714" lon="0.45161">
        <ele>135.2</ele>
        <time>2025-07-14T07:25:10Z</time>
      </trkpt>
      <trkpt lat="44.74712" lon="0.45155">
        <ele>135.2</ele>
        <time>2025-07-14T07:25:11Z</time>
      </trkpt>
      <trkpt lat="44.74709" lon="0.45149">
        <ele>135.2</ele>
        <time>2025-07-14T07:25:12Z</time>
      </trkpt>
      <trkpt lat="44.74706" lon="0.45144">
        <ele>135.2</ele>
        <time>2025-07-14T07:25:13Z</time>
      </trkpt>
      <trkpt lat="44.74702" lon="0.45141">
        <ele>135.2</ele>
        <time>2025-07-14T07:25:14Z</time>
      </trkpt>
      <trkpt lat="44.74698" lon="0.45139">
        <ele>135.2</ele>
        <time>2025-07-14T07:25:15Z</time>
      </trkpt>
      <trkpt lat="44.74693" lon="0.4514">
        <ele>135.2</ele>
        <time>2025-07-14T07:25:16Z</time>
      </trkpt>
      <trkpt lat="44.74689" lon="0.45141">
        <ele>135.2</ele>
        <time>2025-07-14T07:25:17Z</time>
      </trkpt>
      <trkpt lat="44.74685" lon="0.45144">
        <ele>135.2</ele>
        <time>2025-07-14T07:25:18Z</time>
      </trkpt>
      <trkpt lat="44.74682" lon="0.45145">
        <ele>135.4</ele>
        <time>2025-07-14T07:25:19Z</time>
      </trkpt>
      <trkpt lat="44.74678" lon="0.45146">
        <ele>135.4</ele>
        <time>2025-07-14T07:25:20Z</time>
      </trkpt>
      <trkpt lat="44.74674" lon="0.45147">
        <ele>135.6</ele>
        <time>2025-07-14T07:25:21Z</time>
      </trkpt>
      <trkpt lat="44.74669" lon="0.45147">
        <ele>135.8</ele>
        <time>2025-07-14T07:25:22Z</time>
      </trkpt>
      <trkpt lat="44.74665" lon="0.45148">
        <ele>136</ele>
        <time>2025-07-14T07:25:23Z</time>
      </trkpt>
      <trkpt lat="44.74661" lon="0.45148">
        <ele>136.2</ele>
        <time>2025-07-14T07:25:24Z</time>
      </trkpt>
      <trkpt lat="44.74656" lon="0.45149">
        <ele>136.4</ele>
        <time>2025-07-14T07:25:25Z</time>
      </trkpt>
      <trkpt lat="44.74652" lon="0.45149">
        <ele>136.4</ele>
        <time>2025-07-14T07:25:26Z</time>
      </trkpt>
      <trkpt lat="44.74648" lon="0.45149">
        <ele>136.8</ele>
        <time>2025-07-14T07:25:27Z</time>
      </trkpt>
      <trkpt lat="44.74643" lon="0.45149">
        <ele>137</ele>
        <time>2025-07-14T07:25:28Z</time>
      </trkpt>
      <trkpt lat="44.74638" lon="0.45149">
        <ele>137</ele>
        <time>2025-07-14T07:25:29Z</time>
      </trkpt>
      <trkpt lat="44.74634" lon="0.4515">
        <ele>137.2</ele>
        <time>2025-07-14T07:25:30Z</time>
      </trkpt>
      <trkpt lat="44.74629" lon="0.45151">
        <ele>137.2</ele>
        <time>2025-07-14T07:25:31Z</time>
      </trkpt>
      <trkpt lat="44.74625" lon="0.45152">
        <ele>137.4</ele>
        <time>2025-07-14T07:25:32Z</time>
      </trkpt>
      <trkpt lat="44.7462" lon="0.45153">
        <ele>137.4</ele>
        <time>2025-07-14T07:25:33Z</time>
      </trkpt>
      <trkpt lat="44.74616" lon="0.45154">
        <ele>137.4</ele>
        <time>2025-07-14T07:25:34Z</time>
      </trkpt>
      <trkpt lat="44.74611" lon="0.45156">
        <ele>137.4</ele>
        <time>2025-07-14T07:25:35Z</time>
      </trkpt>
      <trkpt lat="44.74607" lon="0.45157">
        <ele>137.4</ele>
        <time>2025-07-14T07:25:36Z</time>
      </trkpt>
      <trkpt lat="44.74603" lon="0.45159">
        <ele>137.4</ele>
        <time>2025-07-14T07:25:37Z</time>
      </trkpt>
      <trkpt lat="44.74599" lon="0.45161">
        <ele>137.6</ele>
        <time>2025-07-14T07:25:38Z</time>
      </trkpt>
      <trkpt lat="44.74594" lon="0.45164">
        <ele>137.6</ele>
        <time>2025-07-14T07:25:39Z</time>
      </trkpt>
      <trkpt lat="44.7459" lon="0.45166">
        <ele>137.6</ele>
        <time>2025-07-14T07:25:40Z</time>
      </trkpt>
      <trkpt lat="44.74585" lon="0.45169">
        <ele>137.4</ele>
        <time>2025-07-14T07:25:41Z</time>
      </trkpt>
      <trkpt lat="44.74581" lon="0.45172">
        <ele>137.4</ele>
        <time>2025-07-14T07:25:42Z</time>
      </trkpt>
      <trkpt lat="44.74576" lon="0.45174">
        <ele>137.4</ele>
        <time>2025-07-14T07:25:43Z</time>
      </trkpt>
      <trkpt lat="44.74571" lon="0.45177">
        <ele>137.2</ele>
        <time>2025-07-14T07:25:44Z</time>
      </trkpt>
      <trkpt lat="44.74566" lon="0.4518">
        <ele>137</ele>
        <time>2025-07-14T07:25:45Z</time>
      </trkpt>
      <trkpt lat="44.74562" lon="0.45183">
        <ele>137</ele>
        <time>2025-07-14T07:25:46Z</time>
      </trkpt>
      <trkpt lat="44.74557" lon="0.45186">
        <ele>137</ele>
        <time>2025-07-14T07:25:47Z</time>
      </trkpt>
      <trkpt lat="44.74552" lon="0.45189">
        <ele>136.8</ele>
        <time>2025-07-14T07:25:48Z</time>
      </trkpt>
      <trkpt lat="44.74547" lon="0.45192">
        <ele>136.8</ele>
        <time>2025-07-14T07:25:49Z</time>
      </trkpt>
      <trkpt lat="44.74543" lon="0.45194">
        <ele>136.8</ele>
        <time>2025-07-14T07:25:50Z</time>
      </trkpt>
      <trkpt lat="44.74539" lon="0.45197">
        <ele>136.6</ele>
        <time>2025-07-14T07:25:51Z</time>
      </trkpt>
      <trkpt lat="44.74535" lon="0.45199">
        <ele>136.6</ele>
        <time>2025-07-14T07:25:52Z</time>
      </trkpt>
      <trkpt lat="44.7453" lon="0.45201">
        <ele>136.6</ele>
        <time>2025-07-14T07:25:53Z</time>
      </trkpt>
      <trkpt lat="44.74525" lon="0.45204">
        <ele>136.8</ele>
        <time>2025-07-14T07:25:54Z</time>
      </trkpt>
      <trkpt lat="44.74521" lon="0.45207">
        <ele>136.8</ele>
        <time>2025-07-14T07:25:55Z</time>
      </trkpt>
      <trkpt lat="44.74516" lon="0.4521">
        <ele>136.8</ele>
        <time>2025-07-14T07:25:56Z</time>
      </trkpt>
      <trkpt lat="44.74512" lon="0.45213">
        <ele>136.8</ele>
        <time>2025-07-14T07:25:57Z</time>
      </trkpt>
      <trkpt lat="44.74507" lon="0.45216">
        <ele>136.8</ele>
        <time>2025-07-14T07:25:58Z</time>
      </trkpt>
      <trkpt lat="44.74502" lon="0.45218">
        <ele>136.8</ele>
        <time>2025-07-14T07:25:59Z</time>
      </trkpt>
      <trkpt lat="44.74497" lon="0.45221">
        <ele>136.8</ele>
        <time>2025-07-14T07:26:00Z</time>
      </trkpt>
      <trkpt lat="44.74492" lon="0.45224">
        <ele>136.6</ele>
        <time>2025-07-14T07:26:01Z</time>
      </trkpt>
      <trkpt lat="44.74487" lon="0.45227">
        <ele>136.6</ele>
        <time>2025-07-14T07:26:02Z</time>
      </trkpt>
      <trkpt lat="44.74482" lon="0.4523">
        <ele>136.4</ele>
        <time>2025-07-14T07:26:03Z</time>
      </trkpt>
      <trkpt lat="44.74477" lon="0.45234">
        <ele>136.4</ele>
        <time>2025-07-14T07:26:04Z</time>
      </trkpt>
      <trkpt lat="44.74473" lon="0.45237">
        <ele>136.2</ele>
        <time>2025-07-14T07:26:05Z</time>
      </trkpt>
      <trkpt lat="44.74467" lon="0.4524">
        <ele>136</ele>
        <time>2025-07-14T07:26:06Z</time>
      </trkpt>
      <trkpt lat="44.74462" lon="0.45243">
        <ele>136</ele>
        <time>2025-07-14T07:26:07Z</time>
      </trkpt>
      <trkpt lat="44.74457" lon="0.45245">
        <ele>135.8</ele>
        <time>2025-07-14T07:26:08Z</time>
      </trkpt>
      <trkpt lat="44.74451" lon="0.45249">
        <ele>135.6</ele>
        <time>2025-07-14T07:26:09Z</time>
      </trkpt>
      <trkpt lat="44.74446" lon="0.45252">
        <ele>135.4</ele>
        <time>2025-07-14T07:26:10Z</time>
      </trkpt>
      <trkpt lat="44.74441" lon="0.45255">
        <ele>135.2</ele>
        <time>2025-07-14T07:26:11Z</time>
      </trkpt>
      <trkpt lat="44.74436" lon="0.45259">
        <ele>135</ele>
        <time>2025-07-14T07:26:12Z</time>
      </trkpt>
      <trkpt lat="44.7443" lon="0.45262">
        <ele>134.8</ele>
        <time>2025-07-14T07:26:13Z</time>
      </trkpt>
      <trkpt lat="44.74425" lon="0.45265">
        <ele>134.6</ele>
        <time>2025-07-14T07:26:14Z</time>
      </trkpt>
      <trkpt lat="44.74419" lon="0.45268">
        <ele>134.4</ele>
        <time>2025-07-14T07:26:15Z</time>
      </trkpt>
      <trkpt lat="44.74414" lon="0.45271">
        <ele>134.2</ele>
        <time>2025-07-14T07:26:16Z</time>
      </trkpt>
      <trkpt lat="44.74409" lon="0.45275">
        <ele>134</ele>
        <time>2025-07-14T07:26:17Z</time>
      </trkpt>
      <trkpt lat="44.74403" lon="0.45278">
        <ele>133.8</ele>
        <time>2025-07-14T07:26:18Z</time>
      </trkpt>
      <trkpt lat="44.74398" lon="0.45281">
        <ele>133.6</ele>
        <time>2025-07-14T07:26:19Z</time>
      </trkpt>
      <trkpt lat="44.74393" lon="0.45283">
        <ele>133.4</ele>
        <time>2025-07-14T07:26:20Z</time>
      </trkpt>
      <trkpt lat="44.74389" lon="0.45286">
        <ele>133.2</ele>
        <time>2025-07-14T07:26:21Z</time>
      </trkpt>
      <trkpt lat="44.74385" lon="0.45289">
        <ele>133</ele>
        <time>2025-07-14T07:26:22Z</time>
      </trkpt>
      <trkpt lat="44.74382" lon="0.45291">
        <ele>133</ele>
        <time>2025-07-14T07:26:23Z</time>
      </trkpt>
      <trkpt lat="44.74379" lon="0.45293">
        <ele>133</ele>
        <time>2025-07-14T07:26:24Z</time>
      </trkpt>
      <trkpt lat="44.74376" lon="0.45294">
        <ele>133</ele>
        <time>2025-07-14T07:26:25Z</time>
      </trkpt>
      <trkpt lat="44.74372" lon="0.45296">
        <ele>133</ele>
        <time>2025-07-14T07:26:26Z</time>
      </trkpt>
      <trkpt lat="44.74368" lon="0.45297">
        <ele>133</ele>
        <time>2025-07-14T07:26:27Z</time>
      </trkpt>
      <trkpt lat="44.74364" lon="0.45298">
        <ele>132.8</ele>
        <time>2025-07-14T07:26:28Z</time>
      </trkpt>
      <trkpt lat="44.74359" lon="0.45299">
        <ele>132.8</ele>
        <time>2025-07-14T07:26:29Z</time>
      </trkpt>
      <trkpt lat="44.74354" lon="0.45301">
        <ele>132.6</ele>
        <time>2025-07-14T07:26:30Z</time>
      </trkpt>
      <trkpt lat="44.74349" lon="0.45303">
        <ele>132.6</ele>
        <time>2025-07-14T07:26:31Z</time>
      </trkpt>
      <trkpt lat="44.74344" lon="0.45304">
        <ele>132.6</ele>
        <time>2025-07-14T07:26:32Z</time>
      </trkpt>
      <trkpt lat="44.74339" lon="0.45305">
        <ele>132.6</ele>
        <time>2025-07-14T07:26:33Z</time>
      </trkpt>
      <trkpt lat="44.74334" lon="0.45307">
        <ele>132.6</ele>
        <time>2025-07-14T07:26:34Z</time>
      </trkpt>
      <trkpt lat="44.7433" lon="0.45308">
        <ele>132.6</ele>
        <time>2025-07-14T07:26:35Z</time>
      </trkpt>
      <trkpt lat="44.74325" lon="0.45309">
        <ele>132.8</ele>
        <time>2025-07-14T07:26:36Z</time>
      </trkpt>
      <trkpt lat="44.74321" lon="0.45311">
        <ele>132.8</ele>
        <time>2025-07-14T07:26:37Z</time>
      </trkpt>
      <trkpt lat="44.74316" lon="0.45312">
        <ele>132.8</ele>
        <time>2025-07-14T07:26:38Z</time>
      </trkpt>
      <trkpt lat="44.74312" lon="0.45313">
        <ele>132.8</ele>
        <time>2025-07-14T07:26:39Z</time>
      </trkpt>
      <trkpt lat="44.74307" lon="0.45315">
        <ele>133</ele>
        <time>2025-07-14T07:26:40Z</time>
      </trkpt>
      <trkpt lat="44.74303" lon="0.45316">
        <ele>133</ele>
        <time>2025-07-14T07:26:41Z</time>
      </trkpt>
      <trkpt lat="44.74298" lon="0.45318">
        <ele>133.2</ele>
        <time>2025-07-14T07:26:42Z</time>
      </trkpt>
      <trkpt lat="44.74294" lon="0.45319">
        <ele>133.2</ele>
        <time>2025-07-14T07:26:43Z</time>
      </trkpt>
      <trkpt lat="44.7429" lon="0.4532">
        <ele>133.4</ele>
        <time>2025-07-14T07:26:44Z</time>
      </trkpt>
      <trkpt lat="44.74285" lon="0.45322">
        <ele>133.4</ele>
        <time>2025-07-14T07:26:45Z</time>
      </trkpt>
      <trkpt lat="44.74281" lon="0.45324">
        <ele>133.4</ele>
        <time>2025-07-14T07:26:46Z</time>
      </trkpt>
      <trkpt lat="44.74277" lon="0.45325">
        <ele>133.6</ele>
        <time>2025-07-14T07:26:47Z</time>
      </trkpt>
      <trkpt lat="44.74272" lon="0.45327">
        <ele>133.6</ele>
        <time>2025-07-14T07:26:48Z</time>
      </trkpt>
      <trkpt lat="44.74268" lon="0.45328">
        <ele>133.6</ele>
        <time>2025-07-14T07:26:49Z</time>
      </trkpt>
      <trkpt lat="44.74264" lon="0.4533">
        <ele>133.8</ele>
        <time>2025-07-14T07:26:50Z</time>
      </trkpt>
      <trkpt lat="44.7426" lon="0.4533">
        <ele>134</ele>
        <time>2025-07-14T07:26:51Z</time>
      </trkpt>
      <trkpt lat="44.74256" lon="0.45331">
        <ele>134.2</ele>
        <time>2025-07-14T07:26:52Z</time>
      </trkpt>
      <trkpt lat="44.74252" lon="0.45332">
        <ele>134.2</ele>
        <time>2025-07-14T07:26:53Z</time>
      </trkpt>
      <trkpt lat="44.74249" lon="0.45333">
        <ele>134.4</ele>
        <time>2025-07-14T07:26:54Z</time>
      </trkpt>
      <trkpt lat="44.74245" lon="0.45334">
        <ele>134.6</ele>
        <time>2025-07-14T07:26:55Z</time>
      </trkpt>
      <trkpt lat="44.74242" lon="0.45336">
        <ele>134.8</ele>
        <time>2025-07-14T07:26:56Z</time>
      </trkpt>
      <trkpt lat="44.74239" lon="0.45337">
        <ele>134.8</ele>
        <time>2025-07-14T07:26:57Z</time>
      </trkpt>
      <trkpt lat="44.74236" lon="0.45338">
        <ele>135.2</ele>
        <time>2025-07-14T07:26:58Z</time>
      </trkpt>
      <trkpt lat="44.74233" lon="0.45339">
        <ele>135.4</ele>
        <time>2025-07-14T07:26:59Z</time>
      </trkpt>
      <trkpt lat="44.74231" lon="0.4534">
        <ele>135.6</ele>
        <time>2025-07-14T07:27:00Z</time>
      </trkpt>
      <trkpt lat="44.74228" lon="0.45341">
        <ele>135.8</ele>
        <time>2025-07-14T07:27:01Z</time>
      </trkpt>
      <trkpt lat="44.74225" lon="0.45341">
        <ele>136</ele>
        <time>2025-07-14T07:27:02Z</time>
      </trkpt>
      <trkpt lat="44.74222" lon="0.45342">
        <ele>136.2</ele>
        <time>2025-07-14T07:27:03Z</time>
      </trkpt>
      <trkpt lat="44.74219" lon="0.45343">
        <ele>136.4</ele>
        <time>2025-07-14T07:27:04Z</time>
      </trkpt>
      <trkpt lat="44.74217" lon="0.45344">
        <ele>136.6</ele>
        <time>2025-07-14T07:27:05Z</time>
      </trkpt>
      <trkpt lat="44.74215" lon="0.45345">
        <ele>137</ele>
        <time>2025-07-14T07:27:06Z</time>
      </trkpt>
      <trkpt lat="44.74212" lon="0.45346">
        <ele>137.4</ele>
        <time>2025-07-14T07:27:07Z</time>
      </trkpt>
      <trkpt lat="44.7421" lon="0.45347">
        <ele>137.6</ele>
        <time>2025-07-14T07:27:08Z</time>
      </trkpt>
      <trkpt lat="44.74208" lon="0.45348">
        <ele>138</ele>
        <time>2025-07-14T07:27:09Z</time>
      </trkpt>
      <trkpt lat="44.74205" lon="0.45349">
        <ele>138.2</ele>
        <time>2025-07-14T07:27:10Z</time>
      </trkpt>
      <trkpt lat="44.74203" lon="0.4535">
        <ele>138.4</ele>
        <time>2025-07-14T07:27:11Z</time>
      </trkpt>
      <trkpt lat="44.742" lon="0.4535">
        <ele>138.6</ele>
        <time>2025-07-14T07:27:12Z</time>
      </trkpt>
      <trkpt lat="44.74198" lon="0.45351">
        <ele>138.8</ele>
        <time>2025-07-14T07:27:13Z</time>
      </trkpt>
      <trkpt lat="44.74196" lon="0.45351">
        <ele>139</ele>
        <time>2025-07-14T07:27:14Z</time>
      </trkpt>
      <trkpt lat="44.74193" lon="0.45352">
        <ele>139.2</ele>
        <time>2025-07-14T07:27:15Z</time>
      </trkpt>
      <trkpt lat="44.74191" lon="0.45352">
        <ele>139.4</ele>
        <time>2025-07-14T07:27:16Z</time>
      </trkpt>
      <trkpt lat="44.74189" lon="0.45352">
        <ele>139.6</ele>
        <time>2025-07-14T07:27:17Z</time>
      </trkpt>
      <trkpt lat="44.74186" lon="0.45353">
        <ele>139.8</ele>
        <time>2025-07-14T07:27:18Z</time>
      </trkpt>
      <trkpt lat="44.74183" lon="0.45353">
        <ele>140</ele>
        <time>2025-07-14T07:27:19Z</time>
      </trkpt>
      <trkpt lat="44.74181" lon="0.45353">
        <ele>140.2</ele>
        <time>2025-07-14T07:27:20Z</time>
      </trkpt>
      <trkpt lat="44.74179" lon="0.45354">
        <ele>140.2</ele>
        <time>2025-07-14T07:27:21Z</time>
      </trkpt>
      <trkpt lat="44.74176" lon="0.45354">
        <ele>140.4</ele>
        <time>2025-07-14T07:27:22Z</time>
      </trkpt>
      <trkpt lat="44.74174" lon="0.45355">
        <ele>140.6</ele>
        <time>2025-07-14T07:27:23Z</time>
      </trkpt>
      <trkpt lat="44.74171" lon="0.45355">
        <ele>140.8</ele>
        <time>2025-07-14T07:27:24Z</time>
      </trkpt>
      <trkpt lat="44.74169" lon="0.45356">
        <ele>141</ele>
        <time>2025-07-14T07:27:25Z</time>
      </trkpt>
      <trkpt lat="44.74167" lon="0.45356">
        <ele>141</ele>
        <time>2025-07-14T07:27:26Z</time>
      </trkpt>
      <trkpt lat="44.74164" lon="0.45356">
        <ele>141.2</ele>
        <time>2025-07-14T07:27:27Z</time>
      </trkpt>
      <trkpt lat="44.74162" lon="0.45357">
        <ele>141.4</ele>
        <time>2025-07-14T07:27:28Z</time>
      </trkpt>
      <trkpt lat="44.74159" lon="0.45358">
        <ele>141.4</ele>
        <time>2025-07-14T07:27:29Z</time>
      </trkpt>
      <trkpt lat="44.74157" lon="0.45358">
        <ele>141.6</ele>
        <time>2025-07-14T07:27:30Z</time>
      </trkpt>
      <trkpt lat="44.74155" lon="0.45358">
        <ele>141.8</ele>
        <time>2025-07-14T07:27:31Z</time>
      </trkpt>
      <trkpt lat="44.74153" lon="0.45358">
        <ele>142</ele>
        <time>2025-07-14T07:27:32Z</time>
      </trkpt>
      <trkpt lat="44.7415" lon="0.45358">
        <ele>142.2</ele>
        <time>2025-07-14T07:27:33Z</time>
      </trkpt>
      <trkpt lat="44.74149" lon="0.45359">
        <ele>142.6</ele>
        <time>2025-07-14T07:27:34Z</time>
      </trkpt>
      <trkpt lat="44.74147" lon="0.45359">
        <ele>142.8</ele>
        <time>2025-07-14T07:27:35Z</time>
      </trkpt>
      <trkpt lat="44.74145" lon="0.4536">
        <ele>142.8</ele>
        <time>2025-07-14T07:27:36Z</time>
      </trkpt>
      <trkpt lat="44.74143" lon="0.4536">
        <ele>143</ele>
        <time>2025-07-14T07:27:37Z</time>
      </trkpt>
      <trkpt lat="44.74141" lon="0.45361">
        <ele>143.2</ele>
        <time>2025-07-14T07:27:38Z</time>
      </trkpt>
      <trkpt lat="44.74139" lon="0.45361">
        <ele>143.6</ele>
        <time>2025-07-14T07:27:39Z</time>
      </trkpt>
      <trkpt lat="44.74137" lon="0.45362">
        <ele>143.8</ele>
        <time>2025-07-14T07:27:40Z</time>
      </trkpt>
      <trkpt lat="44.74135" lon="0.45363">
        <ele>144</ele>
        <time>2025-07-14T07:27:41Z</time>
      </trkpt>
      <trkpt lat="44.74133" lon="0.45364">
        <ele>144.2</ele>
        <time>2025-07-14T07:27:42Z</time>
      </trkpt>
      <trkpt lat="44.74131" lon="0.45365">
        <ele>144.4</ele>
        <time>2025-07-14T07:27:43Z</time>
      </trkpt>
      <trkpt lat="44.74129" lon="0.45365">
        <ele>144.6</ele>
        <time>2025-07-14T07:27:44Z</time>
      </trkpt>
      <trkpt lat="44.74128" lon="0.45366">
        <ele>144.8</ele>
        <time>2025-07-14T07:27:45Z</time>
      </trkpt>
      <trkpt lat="44.74126" lon="0.45367">
        <ele>145.2</ele>
        <time>2025-07-14T07:27:46Z</time>
      </trkpt>
      <trkpt lat="44.74124" lon="0.45368">
        <ele>145.4</ele>
        <time>2025-07-14T07:27:47Z</time>
      </trkpt>
      <trkpt lat="44.74123" lon="0.45369">
        <ele>145.6</ele>
        <time>2025-07-14T07:27:48Z</time>
      </trkpt>
      <trkpt lat="44.74121" lon="0.4537">
        <ele>145.8</ele>
        <time>2025-07-14T07:27:49Z</time>
      </trkpt>
      <trkpt lat="44.74119" lon="0.45371">
        <ele>146</ele>
        <time>2025-07-14T07:27:50Z</time>
      </trkpt>
      <trkpt lat="44.74118" lon="0.45371">
        <ele>146.2</ele>
        <time>2025-07-14T07:27:51Z</time>
      </trkpt>
      <trkpt lat="44.74116" lon="0.45372">
        <ele>146.6</ele>
        <time>2025-07-14T07:27:52Z</time>
      </trkpt>
      <trkpt lat="44.74115" lon="0.45373">
        <ele>146.8</ele>
        <time>2025-07-14T07:27:53Z</time>
      </trkpt>
      <trkpt lat="44.74113" lon="0.45374">
        <ele>147</ele>
        <time>2025-07-14T07:27:54Z</time>
      </trkpt>
      <trkpt lat="44.74111" lon="0.45374">
        <ele>147.2</ele>
        <time>2025-07-14T07:27:55Z</time>
      </trkpt>
      <trkpt lat="44.7411" lon="0.45374">
        <ele>147.6</ele>
        <time>2025-07-14T07:27:56Z</time>
      </trkpt>
      <trkpt lat="44.74108" lon="0.45375">
        <ele>147.8</ele>
        <time>2025-07-14T07:27:57Z</time>
      </trkpt>
      <trkpt lat="44.74106" lon="0.45375">
        <ele>148</ele>
        <time>2025-07-14T07:27:58Z</time>
      </trkpt>
      <trkpt lat="44.74104" lon="0.45375">
        <ele>148.2</ele>
        <time>2025-07-14T07:27:59Z</time>
      </trkpt>
      <trkpt lat="44.74102" lon="0.45376">
        <ele>148.2</ele>
        <time>2025-07-14T07:28:00Z</time>
      </trkpt>
      <trkpt lat="44.741" lon="0.45376">
        <ele>148.4</ele>
        <time>2025-07-14T07:28:01Z</time>
      </trkpt>
      <trkpt lat="44.74098" lon="0.45376">
        <ele>148.6</ele>
        <time>2025-07-14T07:28:02Z</time>
      </trkpt>
      <trkpt lat="44.74096" lon="0.45376">
        <ele>148.8</ele>
        <time>2025-07-14T07:28:03Z</time>
      </trkpt>
      <trkpt lat="44.74094" lon="0.45375">
        <ele>148.8</ele>
        <time>2025-07-14T07:28:04Z</time>
      </trkpt>
      <trkpt lat="44.74092" lon="0.45375">
        <ele>149</ele>
        <time>2025-07-14T07:28:05Z</time>
      </trkpt>
      <trkpt lat="44.7409" lon="0.45375">
        <ele>149.2</ele>
        <time>2025-07-14T07:28:06Z</time>
      </trkpt>
      <trkpt lat="44.74088" lon="0.45375">
        <ele>149.2</ele>
        <time>2025-07-14T07:28:07Z</time>
      </trkpt>
      <trkpt lat="44.74086" lon="0.45374">
        <ele>149.4</ele>
        <time>2025-07-14T07:28:08Z</time>
      </trkpt>
      <trkpt lat="44.74084" lon="0.45374">
        <ele>149.6</ele>
        <time>2025-07-14T07:28:09Z</time>
      </trkpt>
      <trkpt lat="44.74083" lon="0.45373">
        <ele>149.6</ele>
        <time>2025-07-14T07:28:10Z</time>
      </trkpt>
      <trkpt lat="44.74081" lon="0.45373">
        <ele>149.8</ele>
        <time>2025-07-14T07:28:11Z</time>
      </trkpt>
      <trkpt lat="44.74079" lon="0.45373">
        <ele>150</ele>
        <time>2025-07-14T07:28:12Z</time>
      </trkpt>
      <trkpt lat="44.74077" lon="0.45372">
        <ele>150.2</ele>
        <time>2025-07-14T07:28:13Z</time>
      </trkpt>
      <trkpt lat="44.74075" lon="0.45372">
        <ele>150.4</ele>
        <time>2025-07-14T07:28:14Z</time>
      </trkpt>
      <trkpt lat="44.74073" lon="0.45371">
        <ele>150.6</ele>
        <time>2025-07-14T07:28:15Z</time>
      </trkpt>
      <trkpt lat="44.74071" lon="0.45371">
        <ele>150.6</ele>
        <time>2025-07-14T07:28:16Z</time>
      </trkpt>
      <trkpt lat="44.74069" lon="0.45371">
        <ele>150.8</ele>
        <time>2025-07-14T07:28:17Z</time>
      </trkpt>
      <trkpt lat="44.74067" lon="0.4537">
        <ele>151</ele>
        <time>2025-07-14T07:28:18Z</time>
      </trkpt>
      <trkpt lat="44.74065" lon="0.4537">
        <ele>151</ele>
        <time>2025-07-14T07:28:19Z</time>
      </trkpt>
      <trkpt lat="44.74064" lon="0.4537">
        <ele>151.2</ele>
        <time>2025-07-14T07:28:20Z</time>
      </trkpt>
      <trkpt lat="44.74062" lon="0.4537">
        <ele>151.4</ele>
        <time>2025-07-14T07:28:21Z</time>
      </trkpt>
      <trkpt lat="44.7406" lon="0.45369">
        <ele>151.6</ele>
        <time>2025-07-14T07:28:22Z</time>
      </trkpt>
      <trkpt lat="44.74058" lon="0.45369">
        <ele>151.8</ele>
        <time>2025-07-14T07:28:23Z</time>
      </trkpt>
      <trkpt lat="44.74055" lon="0.45369">
        <ele>152</ele>
        <time>2025-07-14T07:28:24Z</time>
      </trkpt>
      <trkpt lat="44.74053" lon="0.45368">
        <ele>152</ele>
        <time>2025-07-14T07:28:25Z</time>
      </trkpt>
      <trkpt lat="44.74051" lon="0.45368">
        <ele>152.2</ele>
        <time>2025-07-14T07:28:26Z</time>
      </trkpt>
      <trkpt lat="44.74049" lon="0.45368">
        <ele>152.2</ele>
        <time>2025-07-14T07:28:27Z</time>
      </trkpt>
      <trkpt lat="44.74047" lon="0.45368">
        <ele>152.4</ele>
        <time>2025-07-14T07:28:28Z</time>
      </trkpt>
      <trkpt lat="44.74045" lon="0.45367">
        <ele>152.6</ele>
        <time>2025-07-14T07:28:29Z</time>
      </trkpt>
      <trkpt lat="44.74043" lon="0.45367">
        <ele>152.6</ele>
        <time>2025-07-14T07:28:30Z</time>
      </trkpt>
      <trkpt lat="44.74041" lon="0.45366">
        <ele>152.8</ele>
        <time>2025-07-14T07:28:31Z</time>
      </trkpt>
      <trkpt lat="44.74039" lon="0.45366">
        <ele>152.8</ele>
        <time>2025-07-14T07:28:32Z</time>
      </trkpt>
      <trkpt lat="44.74037" lon="0.45366">
        <ele>153</ele>
        <time>2025-07-14T07:28:33Z</time>
      </trkpt>
      <trkpt lat="44.74034" lon="0.45365">
        <ele>153</ele>
        <time>2025-07-14T07:28:34Z</time>
      </trkpt>
      <trkpt lat="44.74032" lon="0.45365">
        <ele>153.2</ele>
        <time>2025-07-14T07:28:35Z</time>
      </trkpt>
      <trkpt lat="44.7403" lon="0.45365">
        <ele>153.4</ele>
        <time>2025-07-14T07:28:36Z</time>
      </trkpt>
      <trkpt lat="44.74028" lon="0.45364">
        <ele>153.4</ele>
        <time>2025-07-14T07:28:37Z</time>
      </trkpt>
      <trkpt lat="44.74026" lon="0.45364">
        <ele>153.6</ele>
        <time>2025-07-14T07:28:38Z</time>
      </trkpt>
      <trkpt lat="44.74023" lon="0.45363">
        <ele>153.8</ele>
        <time>2025-07-14T07:28:39Z</time>
      </trkpt>
      <trkpt lat="44.74021" lon="0.45363">
        <ele>153.8</ele>
        <time>2025-07-14T07:28:40Z</time>
      </trkpt>
      <trkpt lat="44.74019" lon="0.45363">
        <ele>154</ele>
        <time>2025-07-14T07:28:41Z</time>
      </trkpt>
      <trkpt lat="44.74017" lon="0.45362">
        <ele>154.2</ele>
        <time>2025-07-14T07:28:42Z</time>
      </trkpt>
      <trkpt lat="44.74015" lon="0.45362">
        <ele>154.2</ele>
        <time>2025-07-14T07:28:43Z</time>
      </trkpt>
      <trkpt lat="44.74012" lon="0.45362">
        <ele>154.4</ele>
        <time>2025-07-14T07:28:44Z</time>
      </trkpt>
      <trkpt lat="44.7401" lon="0.45361">
        <ele>154.6</ele>
        <time>2025-07-14T07:28:45Z</time>
      </trkpt>
      <trkpt lat="44.74008" lon="0.45362">
        <ele>154.6</ele>
        <time>2025-07-14T07:28:46Z</time>
      </trkpt>
      <trkpt lat="44.74006" lon="0.45361">
        <ele>154.8</ele>
        <time>2025-07-14T07:28:47Z</time>
      </trkpt>
      <trkpt lat="44.74003" lon="0.45361">
        <ele>154.8</ele>
        <time>2025-07-14T07:28:48Z</time>
      </trkpt>
      <trkpt lat="44.74001" lon="0.45361">
        <ele>154.8</ele>
        <time>2025-07-14T07:28:49Z</time>
      </trkpt>
      <trkpt lat="44.73999" lon="0.4536">
        <ele>155</ele>
        <time>2025-07-14T07:28:50Z</time>
      </trkpt>
      <trkpt lat="44.73996" lon="0.4536">
        <ele>155</ele>
        <time>2025-07-14T07:28:51Z</time>
      </trkpt>
      <trkpt lat="44.73994" lon="0.4536">
        <ele>155.2</ele>
        <time>2025-07-14T07:28:52Z</time>
      </trkpt>
      <trkpt lat="44.73991" lon="0.4536">
        <ele>155.2</ele>
        <time>2025-07-14T07:28:53Z</time>
      </trkpt>
      <trkpt lat="44.73989" lon="0.4536">
        <ele>155.4</ele>
        <time>2025-07-14T07:28:54Z</time>
      </trkpt>
      <trkpt lat="44.73986" lon="0.45359">
        <ele>155.6</ele>
        <time>2025-07-14T07:28:55Z</time>
      </trkpt>
      <trkpt lat="44.73984" lon="0.45359">
        <ele>155.6</ele>
        <time>2025-07-14T07:28:56Z</time>
      </trkpt>
      <trkpt lat="44.73982" lon="0.45359">
        <ele>155.8</ele>
        <time>2025-07-14T07:28:57Z</time>
      </trkpt>
      <trkpt lat="44.7398" lon="0.45358">
        <ele>156</ele>
        <time>2025-07-14T07:28:58Z</time>
      </trkpt>
      <trkpt lat="44.73977" lon="0.45358">
        <ele>156.2</ele>
        <time>2025-07-14T07:28:59Z</time>
      </trkpt>
      <trkpt lat="44.73975" lon="0.45358">
        <ele>156.2</ele>
        <time>2025-07-14T07:29:00Z</time>
      </trkpt>
      <trkpt lat="44.73973" lon="0.45358">
        <ele>156.4</ele>
        <time>2025-07-14T07:29:01Z</time>
      </trkpt>
      <trkpt lat="44.73971" lon="0.45358">
        <ele>156.6</ele>
        <time>2025-07-14T07:29:02Z</time>
      </trkpt>
      <trkpt lat="44.73969" lon="0.45358">
        <ele>156.6</ele>
        <time>2025-07-14T07:29:03Z</time>
      </trkpt>
      <trkpt lat="44.73967" lon="0.45358">
        <ele>156.8</ele>
        <time>2025-07-14T07:29:04Z</time>
      </trkpt>
      <trkpt lat="44.73965" lon="0.45357">
        <ele>156.8</ele>
        <time>2025-07-14T07:29:05Z</time>
      </trkpt>
      <trkpt lat="44.73963" lon="0.45357">
        <ele>157</ele>
        <time>2025-07-14T07:29:06Z</time>
      </trkpt>
      <trkpt lat="44.73961" lon="0.45357">
        <ele>157.2</ele>
        <time>2025-07-14T07:29:07Z</time>
      </trkpt>
      <trkpt lat="44.73959" lon="0.45356">
        <ele>157.2</ele>
        <time>2025-07-14T07:29:08Z</time>
      </trkpt>
      <trkpt lat="44.73957" lon="0.45356">
        <ele>157.4</ele>
        <time>2025-07-14T07:29:09Z</time>
      </trkpt>
      <trkpt lat="44.73955" lon="0.45355">
        <ele>157.4</ele>
        <time>2025-07-14T07:29:10Z</time>
      </trkpt>
      <trkpt lat="44.73953" lon="0.45356">
        <ele>157.6</ele>
        <time>2025-07-14T07:29:11Z</time>
      </trkpt>
      <trkpt lat="44.73951" lon="0.45356">
        <ele>157.6</ele>
        <time>2025-07-14T07:29:12Z</time>
      </trkpt>
      <trkpt lat="44.73949" lon="0.45356">
        <ele>157.8</ele>
        <time>2025-07-14T07:29:13Z</time>
      </trkpt>
      <trkpt lat="44.73947" lon="0.45356">
        <ele>157.8</ele>
        <time>2025-07-14T07:29:14Z</time>
      </trkpt>
      <trkpt lat="44.73946" lon="0.45355">
        <ele>158</ele>
        <time>2025-07-14T07:29:15Z</time>
      </trkpt>
      <trkpt lat="44.73944" lon="0.45355">
        <ele>158</ele>
        <time>2025-07-14T07:29:16Z</time>
      </trkpt>
      <trkpt lat="44.73942" lon="0.45355">
        <ele>158.2</ele>
        <time>2025-07-14T07:29:17Z</time>
      </trkpt>
      <trkpt lat="44.7394" lon="0.45354">
        <ele>158.4</ele>
        <time>2025-07-14T07:29:18Z</time>
      </trkpt>
      <trkpt lat="44.73938" lon="0.45354">
        <ele>158.6</ele>
        <time>2025-07-14T07:29:19Z</time>
      </trkpt>
      <trkpt lat="44.73936" lon="0.45354">
        <ele>158.6</ele>
        <time>2025-07-14T07:29:20Z</time>
      </trkpt>
      <trkpt lat="44.73934" lon="0.45353">
        <ele>158.8</ele>
        <time>2025-07-14T07:29:21Z</time>
      </trkpt>
      <trkpt lat="44.73932" lon="0.45353">
        <ele>159</ele>
        <time>2025-07-14T07:29:22Z</time>
      </trkpt>
      <trkpt lat="44.7393" lon="0.45352">
        <ele>159.2</ele>
        <time>2025-07-14T07:29:23Z</time>
      </trkpt>
      <trkpt lat="44.73928" lon="0.45352">
        <ele>159.4</ele>
        <time>2025-07-14T07:29:24Z</time>
      </trkpt>
      <trkpt lat="44.73926" lon="0.45352">
        <ele>159.6</ele>
        <time>2025-07-14T07:29:25Z</time>
      </trkpt>
      <trkpt lat="44.73925" lon="0.45352">
        <ele>159.6</ele>
        <time>2025-07-14T07:29:26Z</time>
      </trkpt>
      <trkpt lat="44.73923" lon="0.45352">
        <ele>159.8</ele>
        <time>2025-07-14T07:29:27Z</time>
      </trkpt>
      <trkpt lat="44.73921" lon="0.45351">
        <ele>160</ele>
        <time>2025-07-14T07:29:28Z</time>
      </trkpt>
      <trkpt lat="44.73919" lon="0.45351">
        <ele>160.2</ele>
        <time>2025-07-14T07:29:29Z</time>
      </trkpt>
      <trkpt lat="44.73917" lon="0.45351">
        <ele>160.4</ele>
        <time>2025-07-14T07:29:30Z</time>
      </trkpt>
      <trkpt lat="44.73916" lon="0.4535">
        <ele>160.4</ele>
        <time>2025-07-14T07:29:31Z</time>
      </trkpt>
      <trkpt lat="44.73914" lon="0.4535">
        <ele>160.6</ele>
        <time>2025-07-14T07:29:32Z</time>
      </trkpt>
      <trkpt lat="44.73912" lon="0.4535">
        <ele>160.8</ele>
        <time>2025-07-14T07:29:33Z</time>
      </trkpt>
      <trkpt lat="44.7391" lon="0.4535">
        <ele>160.8</ele>
        <time>2025-07-14T07:29:34Z</time>
      </trkpt>
      <trkpt lat="44.73908" lon="0.45349">
        <ele>161</ele>
        <time>2025-07-14T07:29:35Z</time>
      </trkpt>
      <trkpt lat="44.73906" lon="0.45349">
        <ele>161.2</ele>
        <time>2025-07-14T07:29:36Z</time>
      </trkpt>
      <trkpt lat="44.73904" lon="0.45349">
        <ele>161.2</ele>
        <time>2025-07-14T07:29:37Z</time>
      </trkpt>
      <trkpt lat="44.73902" lon="0.45348">
        <ele>161.4</ele>
        <time>2025-07-14T07:29:38Z</time>
      </trkpt>
      <trkpt lat="44.739" lon="0.45348">
        <ele>161.4</ele>
        <time>2025-07-14T07:29:39Z</time>
      </trkpt>
      <trkpt lat="44.73899" lon="0.45347">
        <ele>161.6</ele>
        <time>2025-07-14T07:29:40Z</time>
      </trkpt>
      <trkpt lat="44.73897" lon="0.45347">
        <ele>161.8</ele>
        <time>2025-07-14T07:29:41Z</time>
      </trkpt>
      <trkpt lat="44.73895" lon="0.45347">
        <ele>162</ele>
        <time>2025-07-14T07:29:42Z</time>
      </trkpt>
      <trkpt lat="44.73894" lon="0.45347">
        <ele>162.2</ele>
        <time>2025-07-14T07:29:43Z</time>
      </trkpt>
      <trkpt lat="44.73892" lon="0.45347">
        <ele>162.4</ele>
        <time>2025-07-14T07:29:44Z</time>
      </trkpt>
      <trkpt lat="44.73891" lon="0.45346">
        <ele>162.6</ele>
        <time>2025-07-14T07:29:45Z</time>
      </trkpt>
      <trkpt lat="44.73889" lon="0.45346">
        <ele>162.8</ele>
        <time>2025-07-14T07:29:46Z</time>
      </trkpt>
      <trkpt lat="44.73887" lon="0.45346">
        <ele>163</ele>
        <time>2025-07-14T07:29:47Z</time>
      </trkpt>
      <trkpt lat="44.73886" lon="0.45345">
        <ele>163</ele>
        <time>2025-07-14T07:29:48Z</time>
      </trkpt>
      <trkpt lat="44.73884" lon="0.45345">
        <ele>163.2</ele>
        <time>2025-07-14T07:29:49Z</time>
      </trkpt>
      <trkpt lat="44.73882" lon="0.45345">
        <ele>163.4</ele>
        <time>2025-07-14T07:29:50Z</time>
      </trkpt>
      <trkpt lat="44.7388" lon="0.45345">
        <ele>163.6</ele>
        <time>2025-07-14T07:29:51Z</time>
      </trkpt>
      <trkpt lat="44.73879" lon="0.45345">
        <ele>163.6</ele>
        <time>2025-07-14T07:29:52Z</time>
      </trkpt>
      <trkpt lat="44.73877" lon="0.45345">
        <ele>164</ele>
        <time>2025-07-14T07:29:53Z</time>
      </trkpt>
      <trkpt lat="44.73875" lon="0.45344">
        <ele>164.2</ele>
        <time>2025-07-14T07:29:54Z</time>
      </trkpt>
      <trkpt lat="44.73874" lon="0.45344">
        <ele>164.4</ele>
        <time>2025-07-14T07:29:55Z</time>
      </trkpt>
      <trkpt lat="44.73872" lon="0.45344">
        <ele>164.6</ele>
        <time>2025-07-14T07:29:56Z</time>
      </trkpt>
      <trkpt lat="44.7387" lon="0.45343">
        <ele>164.8</ele>
        <time>2025-07-14T07:29:57Z</time>
      </trkpt>
      <trkpt lat="44.73868" lon="0.45343">
        <ele>165</ele>
        <time>2025-07-14T07:29:58Z</time>
      </trkpt>
      <trkpt lat="44.73867" lon="0.45343">
        <ele>165.2</ele>
        <time>2025-07-14T07:29:59Z</time>
      </trkpt>
      <trkpt lat="44.73865" lon="0.45343">
        <ele>165.4</ele>
        <time>2025-07-14T07:30:00Z</time>
      </trkpt>
      <trkpt lat="44.73864" lon="0.45342">
        <ele>165.6</ele>
        <time>2025-07-14T07:30:01Z</time>
      </trkpt>
      <trkpt lat="44.73862" lon="0.45343">
        <ele>165.8</ele>
        <time>2025-07-14T07:30:02Z</time>
      </trkpt>
      <trkpt lat="44.73861" lon="0.45342">
        <ele>166</ele>
        <time>2025-07-14T07:30:03Z</time>
      </trkpt>
      <trkpt lat="44.7386" lon="0.45343">
        <ele>166.2</ele>
        <time>2025-07-14T07:30:04Z</time>
      </trkpt>
      <trkpt lat="44.73858" lon="0.45342">
        <ele>166.4</ele>
        <time>2025-07-14T07:30:05Z</time>
      </trkpt>
      <trkpt lat="44.73857" lon="0.45342">
        <ele>166.6</ele>
        <time>2025-07-14T07:30:06Z</time>
      </trkpt>
      <trkpt lat="44.73855" lon="0.45342">
        <ele>166.8</ele>
        <time>2025-07-14T07:30:07Z</time>
      </trkpt>
      <trkpt lat="44.73853" lon="0.45342">
        <ele>167</ele>
        <time>2025-07-14T07:30:08Z</time>
      </trkpt>
      <trkpt lat="44.73852" lon="0.45342">
        <ele>167.2</ele>
        <time>2025-07-14T07:30:09Z</time>
      </trkpt>
      <trkpt lat="44.73851" lon="0.45342">
        <ele>167.4</ele>
        <time>2025-07-14T07:30:10Z</time>
      </trkpt>
      <trkpt lat="44.73849" lon="0.45342">
        <ele>167.6</ele>
        <time>2025-07-14T07:30:11Z</time>
      </trkpt>
      <trkpt lat="44.73848" lon="0.45342">
        <ele>167.8</ele>
        <time>2025-07-14T07:30:12Z</time>
      </trkpt>
      <trkpt lat="44.73846" lon="0.45341">
        <ele>168</ele>
        <time>2025-07-14T07:30:13Z</time>
      </trkpt>
      <trkpt lat="44.73845" lon="0.45341">
        <ele>168.2</ele>
        <time>2025-07-14T07:30:14Z</time>
      </trkpt>
      <trkpt lat="44.73843" lon="0.45341">
        <ele>168.6</ele>
        <time>2025-07-14T07:30:15Z</time>
      </trkpt>
      <trkpt lat="44.73841" lon="0.4534">
        <ele>168.8</ele>
        <time>2025-07-14T07:30:16Z</time>
      </trkpt>
      <trkpt lat="44.7384" lon="0.4534">
        <ele>169</ele>
        <time>2025-07-14T07:30:17Z</time>
      </trkpt>
      <trkpt lat="44.73838" lon="0.4534">
        <ele>169.2</ele>
        <time>2025-07-14T07:30:18Z</time>
      </trkpt>
      <trkpt lat="44.73837" lon="0.4534">
        <ele>169.4</ele>
        <time>2025-07-14T07:30:19Z</time>
      </trkpt>
      <trkpt lat="44.73835" lon="0.4534">
        <ele>169.8</ele>
        <time>2025-07-14T07:30:20Z</time>
      </trkpt>
      <trkpt lat="44.73833" lon="0.4534">
        <ele>170</ele>
        <time>2025-07-14T07:30:21Z</time>
      </trkpt>
      <trkpt lat="44.73832" lon="0.4534">
        <ele>170.2</ele>
        <time>2025-07-14T07:30:22Z</time>
      </trkpt>
      <trkpt lat="44.7383" lon="0.4534">
        <ele>170.4</ele>
        <time>2025-07-14T07:30:23Z</time>
      </trkpt>
      <trkpt lat="44.73829" lon="0.45341">
        <ele>170.6</ele>
        <time>2025-07-14T07:30:24Z</time>
      </trkpt>
      <trkpt lat="44.73828" lon="0.45341">
        <ele>170.6</ele>
        <time>2025-07-14T07:30:25Z</time>
      </trkpt>
      <trkpt lat="44.73826" lon="0.45341">
        <ele>171</ele>
        <time>2025-07-14T07:30:26Z</time>
      </trkpt>
      <trkpt lat="44.73825" lon="0.45341">
        <ele>171.2</ele>
        <time>2025-07-14T07:30:27Z</time>
      </trkpt>
      <trkpt lat="44.73823" lon="0.45341">
        <ele>171.4</ele>
        <time>2025-07-14T07:30:28Z</time>
      </trkpt>
      <trkpt lat="44.73822" lon="0.4534">
        <ele>171.6</ele>
        <time>2025-07-14T07:30:29Z</time>
      </trkpt>
      <trkpt lat="44.7382" lon="0.4534">
        <ele>171.8</ele>
        <time>2025-07-14T07:30:30Z</time>
      </trkpt>
      <trkpt lat="44.73819" lon="0.45341">
        <ele>172</ele>
        <time>2025-07-14T07:30:31Z</time>
      </trkpt>
      <trkpt lat="44.73817" lon="0.45341">
        <ele>172.2</ele>
        <time>2025-07-14T07:30:32Z</time>
      </trkpt>
      <trkpt lat="44.73816" lon="0.4534">
        <ele>172.4</ele>
        <time>2025-07-14T07:30:33Z</time>
      </trkpt>
      <trkpt lat="44.73815" lon="0.4534">
        <ele>172.8</ele>
        <time>2025-07-14T07:30:34Z</time>
      </trkpt>
      <trkpt lat="44.73813" lon="0.4534">
        <ele>173</ele>
        <time>2025-07-14T07:30:35Z</time>
      </trkpt>
      <trkpt lat="44.73812" lon="0.4534">
        <ele>173.2</ele>
        <time>2025-07-14T07:30:36Z</time>
      </trkpt>
      <trkpt lat="44.7381" lon="0.4534">
        <ele>173.6</ele>
        <time>2025-07-14T07:30:37Z</time>
      </trkpt>
      <trkpt lat="44.73808" lon="0.4534">
        <ele>173.8</ele>
        <time>2025-07-14T07:30:38Z</time>
      </trkpt>
      <trkpt lat="44.73807" lon="0.45339">
        <ele>174.2</ele>
        <time>2025-07-14T07:30:39Z</time>
      </trkpt>
      <trkpt lat="44.73805" lon="0.45339">
        <ele>174.4</ele>
        <time>2025-07-14T07:30:40Z</time>
      </trkpt>
      <trkpt lat="44.73803" lon="0.45338">
        <ele>174.6</ele>
        <time>2025-07-14T07:30:41Z</time>
      </trkpt>
      <trkpt lat="44.73801" lon="0.45338">
        <ele>174.8</ele>
        <time>2025-07-14T07:30:42Z</time>
      </trkpt>
      <trkpt lat="44.738" lon="0.45338">
        <ele>175</ele>
        <time>2025-07-14T07:30:43Z</time>
      </trkpt>
      <trkpt lat="44.73797" lon="0.45339">
        <ele>175.2</ele>
        <time>2025-07-14T07:30:44Z</time>
      </trkpt>
      <trkpt lat="44.73795" lon="0.45339">
        <ele>175.2</ele>
        <time>2025-07-14T07:30:45Z</time>
      </trkpt>
      <trkpt lat="44.73793" lon="0.45339">
        <ele>175.4</ele>
        <time>2025-07-14T07:30:46Z</time>
      </trkpt>
      <trkpt lat="44.73791" lon="0.45338">
        <ele>175.4</ele>
        <time>2025-07-14T07:30:47Z</time>
      </trkpt>
      <trkpt lat="44.73789" lon="0.45338">
        <ele>175.6</ele>
        <time>2025-07-14T07:30:48Z</time>
      </trkpt>
      <trkpt lat="44.73787" lon="0.45338">
        <ele>175.6</ele>
        <time>2025-07-14T07:30:49Z</time>
      </trkpt>
      <trkpt lat="44.73784" lon="0.45337">
        <ele>175.8</ele>
        <time>2025-07-14T07:30:50Z</time>
      </trkpt>
      <trkpt lat="44.73781" lon="0.45337">
        <ele>175.8</ele>
        <time>2025-07-14T07:30:51Z</time>
      </trkpt>
      <trkpt lat="44.73778" lon="0.45336">
        <ele>175.8</ele>
        <time>2025-07-14T07:30:52Z</time>
      </trkpt>
      <trkpt lat="44.73775" lon="0.45334">
        <ele>175.6</ele>
        <time>2025-07-14T07:30:53Z</time>
      </trkpt>
      <trkpt lat="44.73771" lon="0.45332">
        <ele>175.6</ele>
        <time>2025-07-14T07:30:54Z</time>
      </trkpt>
      <trkpt lat="44.73768" lon="0.4533">
        <ele>175.4</ele>
        <time>2025-07-14T07:30:55Z</time>
      </trkpt>
      <trkpt lat="44.73765" lon="0.45325">
        <ele>175.2</ele>
        <time>2025-07-14T07:30:56Z</time>
      </trkpt>
      <trkpt lat="44.73763" lon="0.4532">
        <ele>175</ele>
        <time>2025-07-14T07:30:57Z</time>
      </trkpt>
      <trkpt lat="44.73764" lon="0.45316">
        <ele>175</ele>
        <time>2025-07-14T07:30:58Z</time>
      </trkpt>
      <trkpt lat="44.73765" lon="0.45313">
        <ele>175</ele>
        <time>2025-07-14T07:30:59Z</time>
      </trkpt>
      <trkpt lat="44.73766" lon="0.4531">
        <ele>175</ele>
        <time>2025-07-14T07:31:00Z</time>
      </trkpt>
      <trkpt lat="44.73767" lon="0.45305">
        <ele>175</ele>
        <time>2025-07-14T07:31:01Z</time>
      </trkpt>
      <trkpt lat="44.73769" lon="0.45301">
        <ele>175</ele>
        <time>2025-07-14T07:31:02Z</time>
      </trkpt>
      <trkpt lat="44.7377" lon="0.45296">
        <ele>175.2</ele>
        <time>2025-07-14T07:31:03Z</time>
      </trkpt>
      <trkpt lat="44.73772" lon="0.45291">
        <ele>175.2</ele>
        <time>2025-07-14T07:31:04Z</time>
      </trkpt>
      <trkpt lat="44.73774" lon="0.45286">
        <ele>175.2</ele>
        <time>2025-07-14T07:31:05Z</time>
      </trkpt>
      <trkpt lat="44.73777" lon="0.45281">
        <ele>175.2</ele>
        <time>2025-07-14T07:31:06Z</time>
      </trkpt>
      <trkpt lat="44.73779" lon="0.45275">
        <ele>175.2</ele>
        <time>2025-07-14T07:31:07Z</time>
      </trkpt>
      <trkpt lat="44.73781" lon="0.4527">
        <ele>175.2</ele>
        <time>2025-07-14T07:31:08Z</time>
      </trkpt>
      <trkpt lat="44.73784" lon="0.45264">
        <ele>175.2</ele>
        <time>2025-07-14T07:31:09Z</time>
      </trkpt>
      <trkpt lat="44.73786" lon="0.45259">
        <ele>175.2</ele>
        <time>2025-07-14T07:31:10Z</time>
      </trkpt>
      <trkpt lat="44.73789" lon="0.45254">
        <ele>175.2</ele>
        <time>2025-07-14T07:31:11Z</time>
      </trkpt>
      <trkpt lat="44.73791" lon="0.45248">
        <ele>175.2</ele>
        <time>2025-07-14T07:31:12Z</time>
      </trkpt>
      <trkpt lat="44.73793" lon="0.45242">
        <ele>175</ele>
        <time>2025-07-14T07:31:13Z</time>
      </trkpt>
      <trkpt lat="44.73796" lon="0.45236">
        <ele>175</ele>
        <time>2025-07-14T07:31:14Z</time>
      </trkpt>
      <trkpt lat="44.73798" lon="0.4523">
        <ele>175</ele>
        <time>2025-07-14T07:31:15Z</time>
      </trkpt>
      <trkpt lat="44.73801" lon="0.45222">
        <ele>174.8</ele>
        <time>2025-07-14T07:31:16Z</time>
      </trkpt>
      <trkpt lat="44.73804" lon="0.45214">
        <ele>174.6</ele>
        <time>2025-07-14T07:31:17Z</time>
      </trkpt>
      <trkpt lat="44.73807" lon="0.45206">
        <ele>174.6</ele>
        <time>2025-07-14T07:31:18Z</time>
      </trkpt>
      <trkpt lat="44.7381" lon="0.45196">
        <ele>174.2</ele>
        <time>2025-07-14T07:31:19Z</time>
      </trkpt>
      <trkpt lat="44.73813" lon="0.45187">
        <ele>174</ele>
        <time>2025-07-14T07:31:20Z</time>
      </trkpt>
      <trkpt lat="44.73817" lon="0.45178">
        <ele>173.8</ele>
        <time>2025-07-14T07:31:21Z</time>
      </trkpt>
      <trkpt lat="44.7382" lon="0.4517">
        <ele>173.4</ele>
        <time>2025-07-14T07:31:22Z</time>
      </trkpt>
      <trkpt lat="44.73823" lon="0.4516">
        <ele>173</ele>
        <time>2025-07-14T07:31:23Z</time>
      </trkpt>
      <trkpt lat="44.73827" lon="0.45152">
        <ele>172.8</ele>
        <time>2025-07-14T07:31:24Z</time>
      </trkpt>
      <trkpt lat="44.7383" lon="0.45143">
        <ele>172.6</ele>
        <time>2025-07-14T07:31:25Z</time>
      </trkpt>
      <trkpt lat="44.73832" lon="0.45135">
        <ele>172.2</ele>
        <time>2025-07-14T07:31:26Z</time>
      </trkpt>
      <trkpt lat="44.73833" lon="0.45128">
        <ele>172.2</ele>
        <time>2025-07-14T07:31:27Z</time>
      </trkpt>
      <trkpt lat="44.73834" lon="0.45122">
        <ele>172</ele>
        <time>2025-07-14T07:31:28Z</time>
      </trkpt>
      <trkpt lat="44.73833" lon="0.45117">
        <ele>171.8</ele>
        <time>2025-07-14T07:31:29Z</time>
      </trkpt>
      <trkpt lat="44.7383" lon="0.45114">
        <ele>171.8</ele>
        <time>2025-07-14T07:31:30Z</time>
      </trkpt>
      <trkpt lat="44.73828" lon="0.45113">
        <ele>171.8</ele>
        <time>2025-07-14T07:31:31Z</time>
      </trkpt>
      <trkpt lat="44.73825" lon="0.45113">
        <ele>171.8</ele>
        <time>2025-07-14T07:31:32Z</time>
      </trkpt>
      <trkpt lat="44.73823" lon="0.45113">
        <ele>171.8</ele>
        <time>2025-07-14T07:31:33Z</time>
      </trkpt>
      <trkpt lat="44.7382" lon="0.45113">
        <ele>172</ele>
        <time>2025-07-14T07:31:34Z</time>
      </trkpt>
      <trkpt lat="44.73818" lon="0.45113">
        <ele>172</ele>
        <time>2025-07-14T07:31:35Z</time>
      </trkpt>
      <trkpt lat="44.73815" lon="0.45114">
        <ele>172</ele>
        <time>2025-07-14T07:31:36Z</time>
      </trkpt>
      <trkpt lat="44.73813" lon="0.45113">
        <ele>172</ele>
        <time>2025-07-14T07:31:37Z</time>
      </trkpt>
      <trkpt lat="44.7381" lon="0.45111">
        <ele>172.2</ele>
        <time>2025-07-14T07:31:38Z</time>
      </trkpt>
      <trkpt lat="44.73806" lon="0.45109">
        <ele>172.2</ele>
        <time>2025-07-14T07:31:39Z</time>
      </trkpt>
      <trkpt lat="44.73802" lon="0.45106">
        <ele>172.2</ele>
        <time>2025-07-14T07:31:40Z</time>
      </trkpt>
      <trkpt lat="44.73798" lon="0.45101">
        <ele>172</ele>
        <time>2025-07-14T07:31:41Z</time>
      </trkpt>
      <trkpt lat="44.73794" lon="0.45096">
        <ele>171.8</ele>
        <time>2025-07-14T07:31:42Z</time>
      </trkpt>
      <trkpt lat="44.7379" lon="0.45091">
        <ele>171.4</ele>
        <time>2025-07-14T07:31:43Z</time>
      </trkpt>
      <trkpt lat="44.73786" lon="0.45087">
        <ele>171</ele>
        <time>2025-07-14T07:31:44Z</time>
      </trkpt>
      <trkpt lat="44.73783" lon="0.45082">
        <ele>170.8</ele>
        <time>2025-07-14T07:31:45Z</time>
      </trkpt>
      <trkpt lat="44.73781" lon="0.45078">
        <ele>170.4</ele>
        <time>2025-07-14T07:31:46Z</time>
      </trkpt>
      <trkpt lat="44.73779" lon="0.45071">
        <ele>170.2</ele>
        <time>2025-07-14T07:31:47Z</time>
      </trkpt>
      <trkpt lat="44.73776" lon="0.45064">
        <ele>170</ele>
        <time>2025-07-14T07:31:48Z</time>
      </trkpt>
      <trkpt lat="44.73774" lon="0.45057">
        <ele>169.6</ele>
        <time>2025-07-14T07:31:49Z</time>
      </trkpt>
      <trkpt lat="44.73772" lon="0.4505">
        <ele>169.4</ele>
        <time>2025-07-14T07:31:50Z</time>
      </trkpt>
      <trkpt lat="44.73769" lon="0.45043">
        <ele>168.8</ele>
        <time>2025-07-14T07:31:51Z</time>
      </trkpt>
      <trkpt lat="44.73765" lon="0.45037">
        <ele>168.4</ele>
        <time>2025-07-14T07:31:52Z</time>
      </trkpt>
      <trkpt lat="44.7376" lon="0.4503">
        <ele>168</ele>
        <time>2025-07-14T07:31:53Z</time>
      </trkpt>
      <trkpt lat="44.73754" lon="0.45025">
        <ele>167.2</ele>
        <time>2025-07-14T07:31:54Z</time>
      </trkpt>
      <trkpt lat="44.73747" lon="0.45022">
        <ele>166.8</ele>
        <time>2025-07-14T07:31:55Z</time>
      </trkpt>
      <trkpt lat="44.7374" lon="0.45019">
        <ele>166.4</ele>
        <time>2025-07-14T07:31:56Z</time>
      </trkpt>
      <trkpt lat="44.73733" lon="0.45015">
        <ele>165.6</ele>
        <time>2025-07-14T07:31:57Z</time>
      </trkpt>
      <trkpt lat="44.73725" lon="0.45012">
        <ele>165</ele>
        <time>2025-07-14T07:31:58Z</time>
      </trkpt>
      <trkpt lat="44.73718" lon="0.45011">
        <ele>164.2</ele>
        <time>2025-07-14T07:31:59Z</time>
      </trkpt>
      <trkpt lat="44.73709" lon="0.45008">
        <ele>163.6</ele>
        <time>2025-07-14T07:32:00Z</time>
      </trkpt>
      <trkpt lat="44.73702" lon="0.45004">
        <ele>163</ele>
        <time>2025-07-14T07:32:01Z</time>
      </trkpt>
      <trkpt lat="44.73695" lon="0.44999">
        <ele>162.6</ele>
        <time>2025-07-14T07:32:02Z</time>
      </trkpt>
      <trkpt lat="44.73688" lon="0.44997">
        <ele>162.2</ele>
        <time>2025-07-14T07:32:03Z</time>
      </trkpt>
      <trkpt lat="44.7368" lon="0.44994">
        <ele>161.8</ele>
        <time>2025-07-14T07:32:04Z</time>
      </trkpt>
      <trkpt lat="44.73672" lon="0.4499">
        <ele>161.4</ele>
        <time>2025-07-14T07:32:05Z</time>
      </trkpt>
      <trkpt lat="44.73664" lon="0.44985">
        <ele>160.8</ele>
        <time>2025-07-14T07:32:06Z</time>
      </trkpt>
      <trkpt lat="44.73656" lon="0.44981">
        <ele>160.4</ele>
        <time>2025-07-14T07:32:07Z</time>
      </trkpt>
      <trkpt lat="44.73648" lon="0.44978">
        <ele>159.8</ele>
        <time>2025-07-14T07:32:08Z</time>
      </trkpt>
      <trkpt lat="44.7364" lon="0.44973">
        <ele>159.4</ele>
        <time>2025-07-14T07:32:09Z</time>
      </trkpt>
      <trkpt lat="44.73633" lon="0.44969">
        <ele>158.8</ele>
        <time>2025-07-14T07:32:10Z</time>
      </trkpt>
      <trkpt lat="44.73625" lon="0.44968">
        <ele>158.6</ele>
        <time>2025-07-14T07:32:11Z</time>
      </trkpt>
      <trkpt lat="44.73617" lon="0.44969">
        <ele>158.2</ele>
        <time>2025-07-14T07:32:12Z</time>
      </trkpt>
      <trkpt lat="44.7361" lon="0.4497">
        <ele>157.6</ele>
        <time>2025-07-14T07:32:13Z</time>
      </trkpt>
      <trkpt lat="44.73602" lon="0.44969">
        <ele>157</ele>
        <time>2025-07-14T07:32:14Z</time>
      </trkpt>
      <trkpt lat="44.73595" lon="0.44966">
        <ele>156.6</ele>
        <time>2025-07-14T07:32:15Z</time>
      </trkpt>
      <trkpt lat="44.73588" lon="0.44964">
        <ele>156.6</ele>
        <time>2025-07-14T07:32:16Z</time>
      </trkpt>
      <trkpt lat="44.73581" lon="0.44962">
        <ele>156</ele>
        <time>2025-07-14T07:32:17Z</time>
      </trkpt>
      <trkpt lat="44.73573" lon="0.44963">
        <ele>155.8</ele>
        <time>2025-07-14T07:32:18Z</time>
      </trkpt>
      <trkpt lat="44.73566" lon="0.44965">
        <ele>155.4</ele>
        <time>2025-07-14T07:32:19Z</time>
      </trkpt>
      <trkpt lat="44.73558" lon="0.44963">
        <ele>155</ele>
        <time>2025-07-14T07:32:20Z</time>
      </trkpt>
      <trkpt lat="44.73551" lon="0.44959">
        <ele>154.6</ele>
        <time>2025-07-14T07:32:21Z</time>
      </trkpt>
      <trkpt lat="44.73543" lon="0.44953">
        <ele>153.8</ele>
        <time>2025-07-14T07:32:22Z</time>
      </trkpt>
      <trkpt lat="44.73535" lon="0.44949">
        <ele>153.4</ele>
        <time>2025-07-14T07:32:23Z</time>
      </trkpt>
      <trkpt lat="44.73529" lon="0.44942">
        <ele>152.6</ele>
        <time>2025-07-14T07:32:24Z</time>
      </trkpt>
      <trkpt lat="44.73523" lon="0.44935">
        <ele>152</ele>
        <time>2025-07-14T07:32:25Z</time>
      </trkpt>
      <trkpt lat="44.73517" lon="0.44926">
        <ele>151.6</ele>
        <time>2025-07-14T07:32:26Z</time>
      </trkpt>
      <trkpt lat="44.73512" lon="0.44918">
        <ele>151.2</ele>
        <time>2025-07-14T07:32:27Z</time>
      </trkpt>
      <trkpt lat="44.73508" lon="0.4491">
        <ele>150.8</ele>
        <time>2025-07-14T07:32:28Z</time>
      </trkpt>
      <trkpt lat="44.73503" lon="0.44901">
        <ele>150.4</ele>
        <time>2025-07-14T07:32:29Z</time>
      </trkpt>
      <trkpt lat="44.73499" lon="0.44893">
        <ele>150.2</ele>
        <time>2025-07-14T07:32:30Z</time>
      </trkpt>
      <trkpt lat="44.73494" lon="0.44883">
        <ele>150</ele>
        <time>2025-07-14T07:32:31Z</time>
      </trkpt>
      <trkpt lat="44.73492" lon="0.44875">
        <ele>149.8</ele>
        <time>2025-07-14T07:32:32Z</time>
      </trkpt>
      <trkpt lat="44.73492" lon="0.44867">
        <ele>149.4</ele>
        <time>2025-07-14T07:32:33Z</time>
      </trkpt>
      <trkpt lat="44.73494" lon="0.4486">
        <ele>149.2</ele>
        <time>2025-07-14T07:32:34Z</time>
      </trkpt>
      <trkpt lat="44.73497" lon="0.44853">
        <ele>149.2</ele>
        <time>2025-07-14T07:32:35Z</time>
      </trkpt>
      <trkpt lat="44.73499" lon="0.44847">
        <ele>149.2</ele>
        <time>2025-07-14T07:32:36Z</time>
      </trkpt>
      <trkpt lat="44.73502" lon="0.4484">
        <ele>149</ele>
        <time>2025-07-14T07:32:37Z</time>
      </trkpt>
      <trkpt lat="44.73504" lon="0.44833">
        <ele>148.8</ele>
        <time>2025-07-14T07:32:38Z</time>
      </trkpt>
      <trkpt lat="44.73506" lon="0.44826">
        <ele>148.8</ele>
        <time>2025-07-14T07:32:39Z</time>
      </trkpt>
      <trkpt lat="44.73508" lon="0.44819">
        <ele>148.6</ele>
        <time>2025-07-14T07:32:40Z</time>
      </trkpt>
      <trkpt lat="44.73509" lon="0.44811">
        <ele>148.6</ele>
        <time>2025-07-14T07:32:41Z</time>
      </trkpt>
      <trkpt lat="44.7351" lon="0.44803">
        <ele>148.4</ele>
        <time>2025-07-14T07:32:42Z</time>
      </trkpt>
      <trkpt lat="44.7351" lon="0.44795">
        <ele>148.6</ele>
        <time>2025-07-14T07:32:43Z</time>
      </trkpt>
      <trkpt lat="44.73508" lon="0.44788">
        <ele>148.4</ele>
        <time>2025-07-14T07:32:44Z</time>
      </trkpt>
      <trkpt lat="44.73506" lon="0.44782">
        <ele>148.4</ele>
        <time>2025-07-14T07:32:45Z</time>
      </trkpt>
      <trkpt lat="44.73502" lon="0.44777">
        <ele>148.6</ele>
        <time>2025-07-14T07:32:46Z</time>
      </trkpt>
      <trkpt lat="44.73498" lon="0.44773">
        <ele>148.6</ele>
        <time>2025-07-14T07:32:47Z</time>
      </trkpt>
      <trkpt lat="44.73494" lon="0.44769">
        <ele>148.6</ele>
        <time>2025-07-14T07:32:48Z</time>
      </trkpt>
      <trkpt lat="44.7349" lon="0.44766">
        <ele>148.6</ele>
        <time>2025-07-14T07:32:49Z</time>
      </trkpt>
      <trkpt lat="44.73486" lon="0.44764">
        <ele>148.6</ele>
        <time>2025-07-14T07:32:50Z</time>
      </trkpt>
      <trkpt lat="44.73482" lon="0.44762">
        <ele>148.6</ele>
        <time>2025-07-14T07:32:51Z</time>
      </trkpt>
      <trkpt lat="44.73479" lon="0.4476">
        <ele>148.8</ele>
        <time>2025-07-14T07:32:52Z</time>
      </trkpt>
      <trkpt lat="44.73476" lon="0.44758">
        <ele>149</ele>
        <time>2025-07-14T07:32:53Z</time>
      </trkpt>
      <trkpt lat="44.73473" lon="0.44756">
        <ele>149.2</ele>
        <time>2025-07-14T07:32:54Z</time>
      </trkpt>
      <trkpt lat="44.7347" lon="0.44754">
        <ele>149.4</ele>
        <time>2025-07-14T07:32:55Z</time>
      </trkpt>
      <trkpt lat="44.73468" lon="0.44752">
        <ele>149.6</ele>
        <time>2025-07-14T07:32:56Z</time>
      </trkpt>
      <trkpt lat="44.73465" lon="0.44751">
        <ele>150</ele>
        <time>2025-07-14T07:32:57Z</time>
      </trkpt>
      <trkpt lat="44.73463" lon="0.4475">
        <ele>150.2</ele>
        <time>2025-07-14T07:32:58Z</time>
      </trkpt>
      <trkpt lat="44.73461" lon="0.44747">
        <ele>150.4</ele>
        <time>2025-07-14T07:32:59Z</time>
      </trkpt>
      <trkpt lat="44.73458" lon="0.44746">
        <ele>150.6</ele>
        <time>2025-07-14T07:33:00Z</time>
      </trkpt>
      <trkpt lat="44.73455" lon="0.44744">
        <ele>151</ele>
        <time>2025-07-14T07:33:01Z</time>
      </trkpt>
      <trkpt lat="44.73452" lon="0.44743">
        <ele>151.2</ele>
        <time>2025-07-14T07:33:02Z</time>
      </trkpt>
      <trkpt lat="44.73449" lon="0.44741">
        <ele>151.4</ele>
        <time>2025-07-14T07:33:03Z</time>
      </trkpt>
      <trkpt lat="44.73446" lon="0.4474">
        <ele>151.8</ele>
        <time>2025-07-14T07:33:04Z</time>
      </trkpt>
      <trkpt lat="44.73443" lon="0.44738">
        <ele>152</ele>
        <time>2025-07-14T07:33:05Z</time>
      </trkpt>
      <trkpt lat="44.7344" lon="0.44737">
        <ele>152.2</ele>
        <time>2025-07-14T07:33:06Z</time>
      </trkpt>
      <trkpt lat="44.73437" lon="0.44735">
        <ele>152.4</ele>
        <time>2025-07-14T07:33:07Z</time>
      </trkpt>
      <trkpt lat="44.73433" lon="0.44734">
        <ele>152.6</ele>
        <time>2025-07-14T07:33:08Z</time>
      </trkpt>
      <trkpt lat="44.7343" lon="0.44733">
        <ele>152.8</ele>
        <time>2025-07-14T07:33:09Z</time>
      </trkpt>
      <trkpt lat="44.73427" lon="0.44731">
        <ele>153</ele>
        <time>2025-07-14T07:33:10Z</time>
      </trkpt>
      <trkpt lat="44.73424" lon="0.44729">
        <ele>153</ele>
        <time>2025-07-14T07:33:11Z</time>
      </trkpt>
      <trkpt lat="44.73421" lon="0.44727">
        <ele>153.2</ele>
        <time>2025-07-14T07:33:12Z</time>
      </trkpt>
      <trkpt lat="44.73417" lon="0.44725">
        <ele>153.4</ele>
        <time>2025-07-14T07:33:13Z</time>
      </trkpt>
      <trkpt lat="44.73414" lon="0.44724">
        <ele>153.4</ele>
        <time>2025-07-14T07:33:14Z</time>
      </trkpt>
      <trkpt lat="44.7341" lon="0.44721">
        <ele>153.2</ele>
        <time>2025-07-14T07:33:15Z</time>
      </trkpt>
      <trkpt lat="44.73406" lon="0.44718">
        <ele>153.2</ele>
        <time>2025-07-14T07:33:16Z</time>
      </trkpt>
      <trkpt lat="44.73402" lon="0.44716">
        <ele>153.2</ele>
        <time>2025-07-14T07:33:17Z</time>
      </trkpt>
      <trkpt lat="44.73398" lon="0.44713">
        <ele>153.2</ele>
        <time>2025-07-14T07:33:18Z</time>
      </trkpt>
      <trkpt lat="44.73394" lon="0.44711">
        <ele>153.2</ele>
        <time>2025-07-14T07:33:19Z</time>
      </trkpt>
      <trkpt lat="44.7339" lon="0.4471">
        <ele>153.2</ele>
        <time>2025-07-14T07:33:20Z</time>
      </trkpt>
      <trkpt lat="44.73386" lon="0.44708">
        <ele>153.4</ele>
        <time>2025-07-14T07:33:21Z</time>
      </trkpt>
      <trkpt lat="44.73382" lon="0.44707">
        <ele>153.4</ele>
        <time>2025-07-14T07:33:22Z</time>
      </trkpt>
      <trkpt lat="44.73378" lon="0.44706">
        <ele>153.6</ele>
        <time>2025-07-14T07:33:23Z</time>
      </trkpt>
      <trkpt lat="44.73374" lon="0.44705">
        <ele>154</ele>
        <time>2025-07-14T07:33:24Z</time>
      </trkpt>
      <trkpt lat="44.7337" lon="0.44703">
        <ele>154</ele>
        <time>2025-07-14T07:33:25Z</time>
      </trkpt>
      <trkpt lat="44.73367" lon="0.447">
        <ele>154.2</ele>
        <time>2025-07-14T07:33:26Z</time>
      </trkpt>
      <trkpt lat="44.73364" lon="0.44697">
        <ele>154.4</ele>
        <time>2025-07-14T07:33:27Z</time>
      </trkpt>
      <trkpt lat="44.73361" lon="0.44695">
        <ele>154.6</ele>
        <time>2025-07-14T07:33:28Z</time>
      </trkpt>
      <trkpt lat="44.73358" lon="0.44692">
        <ele>154.8</ele>
        <time>2025-07-14T07:33:29Z</time>
      </trkpt>
      <trkpt lat="44.73354" lon="0.44689">
        <ele>155</ele>
        <time>2025-07-14T07:33:30Z</time>
      </trkpt>
      <trkpt lat="44.73351" lon="0.44687">
        <ele>155</ele>
        <time>2025-07-14T07:33:31Z</time>
      </trkpt>
      <trkpt lat="44.73347" lon="0.44685">
        <ele>155.2</ele>
        <time>2025-07-14T07:33:32Z</time>
      </trkpt>
      <trkpt lat="44.73343" lon="0.44683">
        <ele>155.4</ele>
        <time>2025-07-14T07:33:33Z</time>
      </trkpt>
      <trkpt lat="44.7334" lon="0.4468">
        <ele>155.6</ele>
        <time>2025-07-14T07:33:34Z</time>
      </trkpt>
      <trkpt lat="44.73336" lon="0.44678">
        <ele>155.6</ele>
        <time>2025-07-14T07:33:35Z</time>
      </trkpt>
      <trkpt lat="44.73332" lon="0.44675">
        <ele>155.8</ele>
        <time>2025-07-14T07:33:36Z</time>
      </trkpt>
      <trkpt lat="44.73329" lon="0.44672">
        <ele>155.8</ele>
        <time>2025-07-14T07:33:37Z</time>
      </trkpt>
      <trkpt lat="44.73325" lon="0.44669">
        <ele>155.8</ele>
        <time>2025-07-14T07:33:38Z</time>
      </trkpt>
      <trkpt lat="44.73321" lon="0.44666">
        <ele>155.6</ele>
        <time>2025-07-14T07:33:39Z</time>
      </trkpt>
      <trkpt lat="44.73318" lon="0.44662">
        <ele>155.6</ele>
        <time>2025-07-14T07:33:40Z</time>
      </trkpt>
      <trkpt lat="44.73314" lon="0.44659">
        <ele>155.4</ele>
        <time>2025-07-14T07:33:41Z</time>
      </trkpt>
      <trkpt lat="44.73309" lon="0.44655">
        <ele>155.4</ele>
        <time>2025-07-14T07:33:42Z</time>
      </trkpt>
      <trkpt lat="44.73305" lon="0.44652">
        <ele>155.2</ele>
        <time>2025-07-14T07:33:43Z</time>
      </trkpt>
      <trkpt lat="44.73301" lon="0.44647">
        <ele>155</ele>
        <time>2025-07-14T07:33:44Z</time>
      </trkpt>
      <trkpt lat="44.73297" lon="0.44644">
        <ele>155</ele>
        <time>2025-07-14T07:33:45Z</time>
      </trkpt>
      <trkpt lat="44.73293" lon="0.4464">
        <ele>154.8</ele>
        <time>2025-07-14T07:33:46Z</time>
      </trkpt>
      <trkpt lat="44.73289" lon="0.44636">
        <ele>154.8</ele>
        <time>2025-07-14T07:33:47Z</time>
      </trkpt>
      <trkpt lat="44.73285" lon="0.44633">
        <ele>154.6</ele>
        <time>2025-07-14T07:33:48Z</time>
      </trkpt>
      <trkpt lat="44.7328" lon="0.44629">
        <ele>154.4</ele>
        <time>2025-07-14T07:33:49Z</time>
      </trkpt>
      <trkpt lat="44.73275" lon="0.44625">
        <ele>154.2</ele>
        <time>2025-07-14T07:33:50Z</time>
      </trkpt>
      <trkpt lat="44.73271" lon="0.44622">
        <ele>154</ele>
        <time>2025-07-14T07:33:51Z</time>
      </trkpt>
      <trkpt lat="44.73266" lon="0.44618">
        <ele>154</ele>
        <time>2025-07-14T07:33:52Z</time>
      </trkpt>
      <trkpt lat="44.73261" lon="0.44615">
        <ele>153.8</ele>
        <time>2025-07-14T07:33:53Z</time>
      </trkpt>
      <trkpt lat="44.73256" lon="0.44611">
        <ele>153.6</ele>
        <time>2025-07-14T07:33:54Z</time>
      </trkpt>
      <trkpt lat="44.73251" lon="0.44607">
        <ele>153.6</ele>
        <time>2025-07-14T07:33:55Z</time>
      </trkpt>
      <trkpt lat="44.73245" lon="0.44604">
        <ele>153.4</ele>
        <time>2025-07-14T07:33:56Z</time>
      </trkpt>
      <trkpt lat="44.7324" lon="0.446">
        <ele>153</ele>
        <time>2025-07-14T07:33:57Z</time>
      </trkpt>
      <trkpt lat="44.73235" lon="0.44596">
        <ele>152.8</ele>
        <time>2025-07-14T07:33:58Z</time>
      </trkpt>
      <trkpt lat="44.7323" lon="0.44592">
        <ele>152.6</ele>
        <time>2025-07-14T07:33:59Z</time>
      </trkpt>
      <trkpt lat="44.73224" lon="0.44588">
        <ele>152.2</ele>
        <time>2025-07-14T07:34:00Z</time>
      </trkpt>
      <trkpt lat="44.73219" lon="0.44584">
        <ele>152</ele>
        <time>2025-07-14T07:34:01Z</time>
      </trkpt>
      <trkpt lat="44.73214" lon="0.44581">
        <ele>152</ele>
        <time>2025-07-14T07:34:02Z</time>
      </trkpt>
      <trkpt lat="44.73209" lon="0.44577">
        <ele>151.6</ele>
        <time>2025-07-14T07:34:03Z</time>
      </trkpt>
      <trkpt lat="44.73204" lon="0.44574">
        <ele>151.6</ele>
        <time>2025-07-14T07:34:04Z</time>
      </trkpt>
      <trkpt lat="44.73198" lon="0.44573">
        <ele>151.8</ele>
        <time>2025-07-14T07:34:05Z</time>
      </trkpt>
      <trkpt lat="44.73194" lon="0.44574">
        <ele>151.6</ele>
        <time>2025-07-14T07:34:06Z</time>
      </trkpt>
      <trkpt lat="44.7319" lon="0.44578">
        <ele>151.8</ele>
        <time>2025-07-14T07:34:07Z</time>
      </trkpt>
      <trkpt lat="44.73189" lon="0.44584">
        <ele>151.8</ele>
        <time>2025-07-14T07:34:08Z</time>
      </trkpt>
      <trkpt lat="44.73187" lon="0.4459">
        <ele>151.8</ele>
        <time>2025-07-14T07:34:09Z</time>
      </trkpt>
      <trkpt lat="44.73185" lon="0.44596">
        <ele>152</ele>
        <time>2025-07-14T07:34:10Z</time>
      </trkpt>
      <trkpt lat="44.73183" lon="0.44602">
        <ele>152</ele>
        <time>2025-07-14T07:34:11Z</time>
      </trkpt>
      <trkpt lat="44.73181" lon="0.44608">
        <ele>152.2</ele>
        <time>2025-07-14T07:34:12Z</time>
      </trkpt>
      <trkpt lat="44.73179" lon="0.44614">
        <ele>152.2</ele>
        <time>2025-07-14T07:34:13Z</time>
      </trkpt>
      <trkpt lat="44.73177" lon="0.44619">
        <ele>152.4</ele>
        <time>2025-07-14T07:34:14Z</time>
      </trkpt>
      <trkpt lat="44.73175" lon="0.44625">
        <ele>152.4</ele>
        <time>2025-07-14T07:34:15Z</time>
      </trkpt>
      <trkpt lat="44.73174" lon="0.4463">
        <ele>152.6</ele>
        <time>2025-07-14T07:34:16Z</time>
      </trkpt>
      <trkpt lat="44.73172" lon="0.44636">
        <ele>152.6</ele>
        <time>2025-07-14T07:34:17Z</time>
      </trkpt>
      <trkpt lat="44.7317" lon="0.44641">
        <ele>152.6</ele>
        <time>2025-07-14T07:34:18Z</time>
      </trkpt>
      <trkpt lat="44.73168" lon="0.44647">
        <ele>152.8</ele>
        <time>2025-07-14T07:34:19Z</time>
      </trkpt>
      <trkpt lat="44.73166" lon="0.44653">
        <ele>152.8</ele>
        <time>2025-07-14T07:34:20Z</time>
      </trkpt>
      <trkpt lat="44.73164" lon="0.44658">
        <ele>153</ele>
        <time>2025-07-14T07:34:21Z</time>
      </trkpt>
      <trkpt lat="44.73163" lon="0.44663">
        <ele>153.2</ele>
        <time>2025-07-14T07:34:22Z</time>
      </trkpt>
      <trkpt lat="44.73161" lon="0.44668">
        <ele>153.4</ele>
        <time>2025-07-14T07:34:23Z</time>
      </trkpt>
      <trkpt lat="44.7316" lon="0.44673">
        <ele>153.6</ele>
        <time>2025-07-14T07:34:24Z</time>
      </trkpt>
      <trkpt lat="44.73158" lon="0.44679">
        <ele>153.8</ele>
        <time>2025-07-14T07:34:25Z</time>
      </trkpt>
      <trkpt lat="44.73157" lon="0.44683">
        <ele>154</ele>
        <time>2025-07-14T07:34:26Z</time>
      </trkpt>
      <trkpt lat="44.73156" lon="0.44688">
        <ele>154.2</ele>
        <time>2025-07-14T07:34:27Z</time>
      </trkpt>
      <trkpt lat="44.73155" lon="0.44693">
        <ele>154.4</ele>
        <time>2025-07-14T07:34:28Z</time>
      </trkpt>
      <trkpt lat="44.73154" lon="0.44698">
        <ele>154.6</ele>
        <time>2025-07-14T07:34:29Z</time>
      </trkpt>
      <trkpt lat="44.73152" lon="0.44704">
        <ele>154.6</ele>
        <time>2025-07-14T07:34:30Z</time>
      </trkpt>
      <trkpt lat="44.73151" lon="0.44708">
        <ele>155</ele>
        <time>2025-07-14T07:34:31Z</time>
      </trkpt>
      <trkpt lat="44.73151" lon="0.44713">
        <ele>155</ele>
        <time>2025-07-14T07:34:32Z</time>
      </trkpt>
      <trkpt lat="44.73149" lon="0.44718">
        <ele>155.2</ele>
        <time>2025-07-14T07:34:33Z</time>
      </trkpt>
      <trkpt lat="44.73149" lon="0.44723">
        <ele>155.4</ele>
        <time>2025-07-14T07:34:34Z</time>
      </trkpt>
      <trkpt lat="44.73148" lon="0.44728">
        <ele>155.4</ele>
        <time>2025-07-14T07:34:35Z</time>
      </trkpt>
      <trkpt lat="44.73147" lon="0.44733">
        <ele>155.6</ele>
        <time>2025-07-14T07:34:36Z</time>
      </trkpt>
      <trkpt lat="44.73146" lon="0.44737">
        <ele>155.8</ele>
        <time>2025-07-14T07:34:37Z</time>
      </trkpt>
      <trkpt lat="44.73145" lon="0.44741">
        <ele>156</ele>
        <time>2025-07-14T07:34:38Z</time>
      </trkpt>
      <trkpt lat="44.73144" lon="0.44746">
        <ele>156.2</ele>
        <time>2025-07-14T07:34:39Z</time>
      </trkpt>
      <trkpt lat="44.73143" lon="0.44751">
        <ele>156.4</ele>
        <time>2025-07-14T07:34:40Z</time>
      </trkpt>
      <trkpt lat="44.73142" lon="0.44755">
        <ele>156.6</ele>
        <time>2025-07-14T07:34:41Z</time>
      </trkpt>
      <trkpt lat="44.73142" lon="0.44759">
        <ele>156.8</ele>
        <time>2025-07-14T07:34:42Z</time>
      </trkpt>
      <trkpt lat="44.73141" lon="0.44763">
        <ele>157</ele>
        <time>2025-07-14T07:34:43Z</time>
      </trkpt>
      <trkpt lat="44.7314" lon="0.44767">
        <ele>157.2</ele>
        <time>2025-07-14T07:34:44Z</time>
      </trkpt>
      <trkpt lat="44.7314" lon="0.44771">
        <ele>157.4</ele>
        <time>2025-07-14T07:34:45Z</time>
      </trkpt>
      <trkpt lat="44.73139" lon="0.44775">
        <ele>157.6</ele>
        <time>2025-07-14T07:34:46Z</time>
      </trkpt>
      <trkpt lat="44.73138" lon="0.44779">
        <ele>157.8</ele>
        <time>2025-07-14T07:34:47Z</time>
      </trkpt>
      <trkpt lat="44.73137" lon="0.44783">
        <ele>158</ele>
        <time>2025-07-14T07:34:48Z</time>
      </trkpt>
      <trkpt lat="44.73137" lon="0.44787">
        <ele>158</ele>
        <time>2025-07-14T07:34:49Z</time>
      </trkpt>
      <trkpt lat="44.73136" lon="0.4479">
        <ele>158.2</ele>
        <time>2025-07-14T07:34:50Z</time>
      </trkpt>
      <trkpt lat="44.73135" lon="0.44794">
        <ele>158.4</ele>
        <time>2025-07-14T07:34:51Z</time>
      </trkpt>
      <trkpt lat="44.73135" lon="0.44798">
        <ele>158.6</ele>
        <time>2025-07-14T07:34:52Z</time>
      </trkpt>
      <trkpt lat="44.73134" lon="0.44802">
        <ele>158.8</ele>
        <time>2025-07-14T07:34:53Z</time>
      </trkpt>
      <trkpt lat="44.73133" lon="0.44806">
        <ele>159.2</ele>
        <time>2025-07-14T07:34:54Z</time>
      </trkpt>
      <trkpt lat="44.73132" lon="0.44811">
        <ele>159.2</ele>
        <time>2025-07-14T07:34:55Z</time>
      </trkpt>
      <trkpt lat="44.73132" lon="0.44815">
        <ele>159.4</ele>
        <time>2025-07-14T07:34:56Z</time>
      </trkpt>
      <trkpt lat="44.7313" lon="0.44819">
        <ele>159.6</ele>
        <time>2025-07-14T07:34:57Z</time>
      </trkpt>
      <trkpt lat="44.73128" lon="0.44822">
        <ele>159.8</ele>
        <time>2025-07-14T07:34:58Z</time>
      </trkpt>
      <trkpt lat="44.73125" lon="0.44823">
        <ele>159.8</ele>
        <time>2025-07-14T07:34:59Z</time>
      </trkpt>
      <trkpt lat="44.73122" lon="0.44824">
        <ele>159.8</ele>
        <time>2025-07-14T07:35:00Z</time>
      </trkpt>
      <trkpt lat="44.73119" lon="0.44824">
        <ele>160</ele>
        <time>2025-07-14T07:35:01Z</time>
      </trkpt>
      <trkpt lat="44.73116" lon="0.44824">
        <ele>160</ele>
        <time>2025-07-14T07:35:02Z</time>
      </trkpt>
      <trkpt lat="44.73113" lon="0.44823">
        <ele>160</ele>
        <time>2025-07-14T07:35:03Z</time>
      </trkpt>
      <trkpt lat="44.73109" lon="0.44823">
        <ele>160</ele>
        <time>2025-07-14T07:35:04Z</time>
      </trkpt>
      <trkpt lat="44.73105" lon="0.44822">
        <ele>160</ele>
        <time>2025-07-14T07:35:05Z</time>
      </trkpt>
      <trkpt lat="44.73101" lon="0.44821">
        <ele>160</ele>
        <time>2025-07-14T07:35:06Z</time>
      </trkpt>
      <trkpt lat="44.73097" lon="0.44819">
        <ele>160</ele>
        <time>2025-07-14T07:35:07Z</time>
      </trkpt>
      <trkpt lat="44.73093" lon="0.44818">
        <ele>160</ele>
        <time>2025-07-14T07:35:08Z</time>
      </trkpt>
      <trkpt lat="44.73088" lon="0.44816">
        <ele>159.8</ele>
        <time>2025-07-14T07:35:09Z</time>
      </trkpt>
      <trkpt lat="44.73083" lon="0.44813">
        <ele>159.6</ele>
        <time>2025-07-14T07:35:10Z</time>
      </trkpt>
      <trkpt lat="44.73079" lon="0.44809">
        <ele>159.4</ele>
        <time>2025-07-14T07:35:11Z</time>
      </trkpt>
      <trkpt lat="44.73074" lon="0.44806">
        <ele>159.2</ele>
        <time>2025-07-14T07:35:12Z</time>
      </trkpt>
      <trkpt lat="44.7307" lon="0.44802">
        <ele>158.8</ele>
        <time>2025-07-14T07:35:13Z</time>
      </trkpt>
      <trkpt lat="44.73066" lon="0.44797">
        <ele>158.6</ele>
        <time>2025-07-14T07:35:14Z</time>
      </trkpt>
      <trkpt lat="44.73062" lon="0.44793">
        <ele>158.2</ele>
        <time>2025-07-14T07:35:15Z</time>
      </trkpt>
      <trkpt lat="44.73058" lon="0.44788">
        <ele>158</ele>
        <time>2025-07-14T07:35:16Z</time>
      </trkpt>
      <trkpt lat="44.73054" lon="0.44784">
        <ele>157.8</ele>
        <time>2025-07-14T07:35:17Z</time>
      </trkpt>
      <trkpt lat="44.73048" lon="0.44781">
        <ele>157.4</ele>
        <time>2025-07-14T07:35:18Z</time>
      </trkpt>
      <trkpt lat="44.73042" lon="0.44779">
        <ele>157.2</ele>
        <time>2025-07-14T07:35:19Z</time>
      </trkpt>
      <trkpt lat="44.73036" lon="0.44778">
        <ele>156.8</ele>
        <time>2025-07-14T07:35:20Z</time>
      </trkpt>
      <trkpt lat="44.73028" lon="0.44777">
        <ele>156.6</ele>
        <time>2025-07-14T07:35:21Z</time>
      </trkpt>
      <trkpt lat="44.73021" lon="0.44776">
        <ele>156</ele>
        <time>2025-07-14T07:35:22Z</time>
      </trkpt>
      <trkpt lat="44.73012" lon="0.44776">
        <ele>155.4</ele>
        <time>2025-07-14T07:35:23Z</time>
      </trkpt>
      <trkpt lat="44.73003" lon="0.44776">
        <ele>154.6</ele>
        <time>2025-07-14T07:35:24Z</time>
      </trkpt>
      <trkpt lat="44.72994" lon="0.44775">
        <ele>153.6</ele>
        <time>2025-07-14T07:35:25Z</time>
      </trkpt>
      <trkpt lat="44.72984" lon="0.44775">
        <ele>152.8</ele>
        <time>2025-07-14T07:35:26Z</time>
      </trkpt>
      <trkpt lat="44.72974" lon="0.44775">
        <ele>152</ele>
        <time>2025-07-14T07:35:27Z</time>
      </trkpt>
      <trkpt lat="44.72964" lon="0.44774">
        <ele>150.4</ele>
        <time>2025-07-14T07:35:28Z</time>
      </trkpt>
      <trkpt lat="44.72953" lon="0.44774">
        <ele>148.6</ele>
        <time>2025-07-14T07:35:29Z</time>
      </trkpt>
      <trkpt lat="44.72942" lon="0.44773">
        <ele>147.8</ele>
        <time>2025-07-14T07:35:30Z</time>
      </trkpt>
      <trkpt lat="44.7293" lon="0.44773">
        <ele>146.4</ele>
        <time>2025-07-14T07:35:31Z</time>
      </trkpt>
      <trkpt lat="44.72919" lon="0.44772">
        <ele>145.2</ele>
        <time>2025-07-14T07:35:32Z</time>
      </trkpt>
      <trkpt lat="44.72907" lon="0.44771">
        <ele>144</ele>
        <time>2025-07-14T07:35:33Z</time>
      </trkpt>
      <trkpt lat="44.72895" lon="0.44771">
        <ele>143</ele>
        <time>2025-07-14T07:35:34Z</time>
      </trkpt>
      <trkpt lat="44.72884" lon="0.4477">
        <ele>142</ele>
        <time>2025-07-14T07:35:35Z</time>
      </trkpt>
      <trkpt lat="44.72872" lon="0.4477">
        <ele>140.6</ele>
        <time>2025-07-14T07:35:36Z</time>
      </trkpt>
      <trkpt lat="44.7286" lon="0.4477">
        <ele>139.6</ele>
        <time>2025-07-14T07:35:37Z</time>
      </trkpt>
      <trkpt lat="44.72849" lon="0.44769">
        <ele>138.4</ele>
        <time>2025-07-14T07:35:38Z</time>
      </trkpt>
      <trkpt lat="44.72837" lon="0.44769">
        <ele>137.2</ele>
        <time>2025-07-14T07:35:39Z</time>
      </trkpt>
      <trkpt lat="44.72825" lon="0.44768">
        <ele>136.4</ele>
        <time>2025-07-14T07:35:40Z</time>
      </trkpt>
      <trkpt lat="44.72813" lon="0.44768">
        <ele>135.2</ele>
        <time>2025-07-14T07:35:41Z</time>
      </trkpt>
      <trkpt lat="44.72802" lon="0.44767">
        <ele>134.6</ele>
        <time>2025-07-14T07:35:42Z</time>
      </trkpt>
      <trkpt lat="44.7279" lon="0.44767">
        <ele>133.4</ele>
        <time>2025-07-14T07:35:43Z</time>
      </trkpt>
      <trkpt lat="44.72778" lon="0.44766">
        <ele>132</ele>
        <time>2025-07-14T07:35:44Z</time>
      </trkpt>
      <trkpt lat="44.72766" lon="0.44766">
        <ele>131.2</ele>
        <time>2025-07-14T07:35:45Z</time>
      </trkpt>
      <trkpt lat="44.72755" lon="0.44766">
        <ele>130.4</ele>
        <time>2025-07-14T07:35:46Z</time>
      </trkpt>
      <trkpt lat="44.72744" lon="0.44765">
        <ele>129.6</ele>
        <time>2025-07-14T07:35:47Z</time>
      </trkpt>
      <trkpt lat="44.72734" lon="0.44765">
        <ele>128.6</ele>
        <time>2025-07-14T07:35:48Z</time>
      </trkpt>
      <trkpt lat="44.72723" lon="0.44765">
        <ele>128</ele>
        <time>2025-07-14T07:35:49Z</time>
      </trkpt>
      <trkpt lat="44.72713" lon="0.44766">
        <ele>126.8</ele>
        <time>2025-07-14T07:35:50Z</time>
      </trkpt>
      <trkpt lat="44.72703" lon="0.44765">
        <ele>126.4</ele>
        <time>2025-07-14T07:35:51Z</time>
      </trkpt>
      <trkpt lat="44.72693" lon="0.44765">
        <ele>125.8</ele>
        <time>2025-07-14T07:35:52Z</time>
      </trkpt>
      <trkpt lat="44.72683" lon="0.44765">
        <ele>125.4</ele>
        <time>2025-07-14T07:35:53Z</time>
      </trkpt>
      <trkpt lat="44.72674" lon="0.44766">
        <ele>125</ele>
        <time>2025-07-14T07:35:54Z</time>
      </trkpt>
      <trkpt lat="44.72664" lon="0.44766">
        <ele>124.8</ele>
        <time>2025-07-14T07:35:55Z</time>
      </trkpt>
      <trkpt lat="44.72655" lon="0.44767">
        <ele>124.4</ele>
        <time>2025-07-14T07:35:56Z</time>
      </trkpt>
      <trkpt lat="44.72646" lon="0.44767">
        <ele>123.8</ele>
        <time>2025-07-14T07:35:57Z</time>
      </trkpt>
      <trkpt lat="44.72637" lon="0.44767">
        <ele>123.4</ele>
        <time>2025-07-14T07:35:58Z</time>
      </trkpt>
      <trkpt lat="44.72628" lon="0.44768">
        <ele>122.8</ele>
        <time>2025-07-14T07:35:59Z</time>
      </trkpt>
      <trkpt lat="44.72619" lon="0.44768">
        <ele>122.6</ele>
        <time>2025-07-14T07:36:00Z</time>
      </trkpt>
      <trkpt lat="44.7261" lon="0.44769">
        <ele>122.2</ele>
        <time>2025-07-14T07:36:01Z</time>
      </trkpt>
      <trkpt lat="44.72601" lon="0.44769">
        <ele>121.8</ele>
        <time>2025-07-14T07:36:02Z</time>
      </trkpt>
      <trkpt lat="44.72593" lon="0.44768">
        <ele>121.4</ele>
        <time>2025-07-14T07:36:03Z</time>
      </trkpt>
      <trkpt lat="44.72584" lon="0.44767">
        <ele>121</ele>
        <time>2025-07-14T07:36:04Z</time>
      </trkpt>
      <trkpt lat="44.72575" lon="0.44764">
        <ele>120.6</ele>
        <time>2025-07-14T07:36:05Z</time>
      </trkpt>
      <trkpt lat="44.72566" lon="0.44762">
        <ele>120</ele>
        <time>2025-07-14T07:36:06Z</time>
      </trkpt>
      <trkpt lat="44.72557" lon="0.4476">
        <ele>119</ele>
        <time>2025-07-14T07:36:07Z</time>
      </trkpt>
      <trkpt lat="44.72549" lon="0.44758">
        <ele>118.4</ele>
        <time>2025-07-14T07:36:08Z</time>
      </trkpt>
      <trkpt lat="44.7254" lon="0.44756">
        <ele>118</ele>
        <time>2025-07-14T07:36:09Z</time>
      </trkpt>
      <trkpt lat="44.72531" lon="0.44754">
        <ele>117.4</ele>
        <time>2025-07-14T07:36:10Z</time>
      </trkpt>
      <trkpt lat="44.72522" lon="0.44751">
        <ele>117</ele>
        <time>2025-07-14T07:36:11Z</time>
      </trkpt>
      <trkpt lat="44.72513" lon="0.44749">
        <ele>116.2</ele>
        <time>2025-07-14T07:36:12Z</time>
      </trkpt>
      <trkpt lat="44.72505" lon="0.44746">
        <ele>115.8</ele>
        <time>2025-07-14T07:36:13Z</time>
      </trkpt>
      <trkpt lat="44.72497" lon="0.44744">
        <ele>115.2</ele>
        <time>2025-07-14T07:36:14Z</time>
      </trkpt>
      <trkpt lat="44.72488" lon="0.44742">
        <ele>115</ele>
        <time>2025-07-14T07:36:15Z</time>
      </trkpt>
      <trkpt lat="44.7248" lon="0.44739">
        <ele>114.6</ele>
        <time>2025-07-14T07:36:16Z</time>
      </trkpt>
      <trkpt lat="44.72472" lon="0.44737">
        <ele>114.2</ele>
        <time>2025-07-14T07:36:17Z</time>
      </trkpt>
      <trkpt lat="44.72464" lon="0.44735">
        <ele>113.8</ele>
        <time>2025-07-14T07:36:18Z</time>
      </trkpt>
      <trkpt lat="44.72456" lon="0.44733">
        <ele>113.6</ele>
        <time>2025-07-14T07:36:19Z</time>
      </trkpt>
      <trkpt lat="44.72448" lon="0.44731">
        <ele>113.2</ele>
        <time>2025-07-14T07:36:20Z</time>
      </trkpt>
      <trkpt lat="44.7244" lon="0.44729">
        <ele>113</ele>
        <time>2025-07-14T07:36:21Z</time>
      </trkpt>
      <trkpt lat="44.72432" lon="0.44727">
        <ele>112.6</ele>
        <time>2025-07-14T07:36:22Z</time>
      </trkpt>
      <trkpt lat="44.72424" lon="0.44725">
        <ele>112.4</ele>
        <time>2025-07-14T07:36:23Z</time>
      </trkpt>
      <trkpt lat="44.72416" lon="0.44723">
        <ele>112</ele>
        <time>2025-07-14T07:36:24Z</time>
      </trkpt>
      <trkpt lat="44.72408" lon="0.4472">
        <ele>111.8</ele>
        <time>2025-07-14T07:36:25Z</time>
      </trkpt>
      <trkpt lat="44.724" lon="0.44718">
        <ele>111.8</ele>
        <time>2025-07-14T07:36:26Z</time>
      </trkpt>
      <trkpt lat="44.72392" lon="0.44716">
        <ele>111.6</ele>
        <time>2025-07-14T07:36:27Z</time>
      </trkpt>
      <trkpt lat="44.72385" lon="0.44714">
        <ele>111.4</ele>
        <time>2025-07-14T07:36:28Z</time>
      </trkpt>
      <trkpt lat="44.72377" lon="0.44712">
        <ele>111.2</ele>
        <time>2025-07-14T07:36:29Z</time>
      </trkpt>
      <trkpt lat="44.7237" lon="0.44709">
        <ele>111</ele>
        <time>2025-07-14T07:36:30Z</time>
      </trkpt>
      <trkpt lat="44.72364" lon="0.44707">
        <ele>110.6</ele>
        <time>2025-07-14T07:36:31Z</time>
      </trkpt>
      <trkpt lat="44.7236" lon="0.44706">
        <ele>110.4</ele>
        <time>2025-07-14T07:36:32Z</time>
      </trkpt>
      <trkpt lat="44.72355" lon="0.44706">
        <ele>110.2</ele>
        <time>2025-07-14T07:36:33Z</time>
      </trkpt>
      <trkpt lat="44.72352" lon="0.44708">
        <ele>110</ele>
        <time>2025-07-14T07:36:34Z</time>
      </trkpt>
      <trkpt lat="44.72348" lon="0.44711">
        <ele>110</ele>
        <time>2025-07-14T07:36:35Z</time>
      </trkpt>
      <trkpt lat="44.72346" lon="0.44716">
        <ele>110</ele>
        <time>2025-07-14T07:36:36Z</time>
      </trkpt>
      <trkpt lat="44.72344" lon="0.44722">
        <ele>110</ele>
        <time>2025-07-14T07:36:37Z</time>
      </trkpt>
      <trkpt lat="44.72342" lon="0.44728">
        <ele>110</ele>
        <time>2025-07-14T07:36:38Z</time>
      </trkpt>
      <trkpt lat="44.72339" lon="0.44734">
        <ele>110</ele>
        <time>2025-07-14T07:36:39Z</time>
      </trkpt>
      <trkpt lat="44.72337" lon="0.4474">
        <ele>110</ele>
        <time>2025-07-14T07:36:40Z</time>
      </trkpt>
      <trkpt lat="44.72334" lon="0.44747">
        <ele>110</ele>
        <time>2025-07-14T07:36:41Z</time>
      </trkpt>
      <trkpt lat="44.72332" lon="0.44753">
        <ele>110</ele>
        <time>2025-07-14T07:36:42Z</time>
      </trkpt>
      <trkpt lat="44.72329" lon="0.4476">
        <ele>110</ele>
        <time>2025-07-14T07:36:43Z</time>
      </trkpt>
      <trkpt lat="44.72327" lon="0.44766">
        <ele>110</ele>
        <time>2025-07-14T07:36:44Z</time>
      </trkpt>
      <trkpt lat="44.72324" lon="0.44773">
        <ele>110</ele>
        <time>2025-07-14T07:36:45Z</time>
      </trkpt>
      <trkpt lat="44.72322" lon="0.4478">
        <ele>110</ele>
        <time>2025-07-14T07:36:46Z</time>
      </trkpt>
      <trkpt lat="44.72319" lon="0.44786">
        <ele>110</ele>
        <time>2025-07-14T07:36:47Z</time>
      </trkpt>
      <trkpt lat="44.72317" lon="0.44792">
        <ele>110</ele>
        <time>2025-07-14T07:36:48Z</time>
      </trkpt>
      <trkpt lat="44.72314" lon="0.44799">
        <ele>110</ele>
        <time>2025-07-14T07:36:49Z</time>
      </trkpt>
      <trkpt lat="44.72312" lon="0.44806">
        <ele>110.2</ele>
        <time>2025-07-14T07:36:50Z</time>
      </trkpt>
      <trkpt lat="44.7231" lon="0.44813">
        <ele>110.2</ele>
        <time>2025-07-14T07:36:51Z</time>
      </trkpt>
      <trkpt lat="44.72307" lon="0.4482">
        <ele>110.4</ele>
        <time>2025-07-14T07:36:52Z</time>
      </trkpt>
      <trkpt lat="44.72304" lon="0.44826">
        <ele>110.4</ele>
        <time>2025-07-14T07:36:53Z</time>
      </trkpt>
      <trkpt lat="44.72302" lon="0.44833">
        <ele>110.6</ele>
        <time>2025-07-14T07:36:54Z</time>
      </trkpt>
      <trkpt lat="44.723" lon="0.4484">
        <ele>110.6</ele>
        <time>2025-07-14T07:36:55Z</time>
      </trkpt>
      <trkpt lat="44.72297" lon="0.44847">
        <ele>110.6</ele>
        <time>2025-07-14T07:36:56Z</time>
      </trkpt>
      <trkpt lat="44.72294" lon="0.44854">
        <ele>110.6</ele>
        <time>2025-07-14T07:36:57Z</time>
      </trkpt>
      <trkpt lat="44.72292" lon="0.44861">
        <ele>110.8</ele>
        <time>2025-07-14T07:36:58Z</time>
      </trkpt>
      <trkpt lat="44.72289" lon="0.44869">
        <ele>110.6</ele>
        <time>2025-07-14T07:36:59Z</time>
      </trkpt>
      <trkpt lat="44.72286" lon="0.44876">
        <ele>110.6</ele>
        <time>2025-07-14T07:37:00Z</time>
      </trkpt>
      <trkpt lat="44.72283" lon="0.44884">
        <ele>110.6</ele>
        <time>2025-07-14T07:37:01Z</time>
      </trkpt>
      <trkpt lat="44.7228" lon="0.44892">
        <ele>110.6</ele>
        <time>2025-07-14T07:37:02Z</time>
      </trkpt>
      <trkpt lat="44.72278" lon="0.449">
        <ele>110.6</ele>
        <time>2025-07-14T07:37:03Z</time>
      </trkpt>
      <trkpt lat="44.72275" lon="0.44909">
        <ele>110.4</ele>
        <time>2025-07-14T07:37:04Z</time>
      </trkpt>
      <trkpt lat="44.72272" lon="0.44917">
        <ele>110.2</ele>
        <time>2025-07-14T07:37:05Z</time>
      </trkpt>
      <trkpt lat="44.72269" lon="0.44926">
        <ele>110.2</ele>
        <time>2025-07-14T07:37:06Z</time>
      </trkpt>
      <trkpt lat="44.72267" lon="0.44935">
        <ele>109.8</ele>
        <time>2025-07-14T07:37:07Z</time>
      </trkpt>
      <trkpt lat="44.72265" lon="0.44945">
        <ele>109.6</ele>
        <time>2025-07-14T07:37:08Z</time>
      </trkpt>
      <trkpt lat="44.72262" lon="0.44955">
        <ele>109.4</ele>
        <time>2025-07-14T07:37:09Z</time>
      </trkpt>
      <trkpt lat="44.7226" lon="0.44965">
        <ele>109</ele>
        <time>2025-07-14T07:37:10Z</time>
      </trkpt>
      <trkpt lat="44.72258" lon="0.44976">
        <ele>108.8</ele>
        <time>2025-07-14T07:37:11Z</time>
      </trkpt>
      <trkpt lat="44.72256" lon="0.44987">
        <ele>108.4</ele>
        <time>2025-07-14T07:37:12Z</time>
      </trkpt>
      <trkpt lat="44.72254" lon="0.44997">
        <ele>108</ele>
        <time>2025-07-14T07:37:13Z</time>
      </trkpt>
      <trkpt lat="44.72252" lon="0.45006">
        <ele>107.6</ele>
        <time>2025-07-14T07:37:14Z</time>
      </trkpt>
      <trkpt lat="44.7225" lon="0.45016">
        <ele>107.2</ele>
        <time>2025-07-14T07:37:15Z</time>
      </trkpt>
      <trkpt lat="44.72247" lon="0.45026">
        <ele>107</ele>
        <time>2025-07-14T07:37:16Z</time>
      </trkpt>
      <trkpt lat="44.72245" lon="0.45035">
        <ele>107</ele>
        <time>2025-07-14T07:37:17Z</time>
      </trkpt>
      <trkpt lat="44.72243" lon="0.45044">
        <ele>107</ele>
        <time>2025-07-14T07:37:18Z</time>
      </trkpt>
      <trkpt lat="44.72242" lon="0.45052">
        <ele>107</ele>
        <time>2025-07-14T07:37:19Z</time>
      </trkpt>
      <trkpt lat="44.7224" lon="0.4506">
        <ele>107.2</ele>
        <time>2025-07-14T07:37:20Z</time>
      </trkpt>
      <trkpt lat="44.72239" lon="0.45068">
        <ele>107.4</ele>
        <time>2025-07-14T07:37:21Z</time>
      </trkpt>
      <trkpt lat="44.72238" lon="0.45076">
        <ele>107.8</ele>
        <time>2025-07-14T07:37:22Z</time>
      </trkpt>
      <trkpt lat="44.72237" lon="0.45083">
        <ele>108</ele>
        <time>2025-07-14T07:37:23Z</time>
      </trkpt>
      <trkpt lat="44.72237" lon="0.4509">
        <ele>108.4</ele>
        <time>2025-07-14T07:37:24Z</time>
      </trkpt>
      <trkpt lat="44.72236" lon="0.45098">
        <ele>108.8</ele>
        <time>2025-07-14T07:37:25Z</time>
      </trkpt>
      <trkpt lat="44.72236" lon="0.45105">
        <ele>109</ele>
        <time>2025-07-14T07:37:26Z</time>
      </trkpt>
      <trkpt lat="44.72236" lon="0.45112">
        <ele>109.2</ele>
        <time>2025-07-14T07:37:27Z</time>
      </trkpt>
      <trkpt lat="44.72237" lon="0.45119">
        <ele>109.6</ele>
        <time>2025-07-14T07:37:28Z</time>
      </trkpt>
      <trkpt lat="44.72237" lon="0.45126">
        <ele>109.8</ele>
        <time>2025-07-14T07:37:29Z</time>
      </trkpt>
      <trkpt lat="44.72238" lon="0.45132">
        <ele>110</ele>
        <time>2025-07-14T07:37:30Z</time>
      </trkpt>
      <trkpt lat="44.72238" lon="0.45139">
        <ele>110.2</ele>
        <time>2025-07-14T07:37:31Z</time>
      </trkpt>
      <trkpt lat="44.72238" lon="0.45145">
        <ele>110.4</ele>
        <time>2025-07-14T07:37:32Z</time>
      </trkpt>
      <trkpt lat="44.72239" lon="0.45152">
        <ele>110.4</ele>
        <time>2025-07-14T07:37:33Z</time>
      </trkpt>
      <trkpt lat="44.72239" lon="0.45158">
        <ele>110.6</ele>
        <time>2025-07-14T07:37:34Z</time>
      </trkpt>
      <trkpt lat="44.72239" lon="0.45164">
        <ele>110.8</ele>
        <time>2025-07-14T07:37:35Z</time>
      </trkpt>
      <trkpt lat="44.7224" lon="0.4517">
        <ele>111</ele>
        <time>2025-07-14T07:37:36Z</time>
      </trkpt>
      <trkpt lat="44.7224" lon="0.45177">
        <ele>111</ele>
        <time>2025-07-14T07:37:37Z</time>
      </trkpt>
      <trkpt lat="44.7224" lon="0.45183">
        <ele>111.2</ele>
        <time>2025-07-14T07:37:38Z</time>
      </trkpt>
      <trkpt lat="44.72241" lon="0.45188">
        <ele>111.4</ele>
        <time>2025-07-14T07:37:39Z</time>
      </trkpt>
      <trkpt lat="44.72241" lon="0.45194">
        <ele>111.6</ele>
        <time>2025-07-14T07:37:40Z</time>
      </trkpt>
      <trkpt lat="44.72241" lon="0.452">
        <ele>111.8</ele>
        <time>2025-07-14T07:37:41Z</time>
      </trkpt>
      <trkpt lat="44.72242" lon="0.45206">
        <ele>112</ele>
        <time>2025-07-14T07:37:42Z</time>
      </trkpt>
      <trkpt lat="44.72242" lon="0.45211">
        <ele>112.2</ele>
        <time>2025-07-14T07:37:43Z</time>
      </trkpt>
      <trkpt lat="44.72242" lon="0.45216">
        <ele>112.4</ele>
        <time>2025-07-14T07:37:44Z</time>
      </trkpt>
      <trkpt lat="44.72242" lon="0.45221">
        <ele>112.8</ele>
        <time>2025-07-14T07:37:45Z</time>
      </trkpt>
      <trkpt lat="44.72242" lon="0.45227">
        <ele>113</ele>
        <time>2025-07-14T07:37:46Z</time>
      </trkpt>
      <trkpt lat="44.72241" lon="0.45232">
        <ele>113.2</ele>
        <time>2025-07-14T07:37:47Z</time>
      </trkpt>
      <trkpt lat="44.72241" lon="0.45237">
        <ele>113.4</ele>
        <time>2025-07-14T07:37:48Z</time>
      </trkpt>
      <trkpt lat="44.72241" lon="0.45242">
        <ele>113.6</ele>
        <time>2025-07-14T07:37:49Z</time>
      </trkpt>
      <trkpt lat="44.72242" lon="0.45247">
        <ele>113.8</ele>
        <time>2025-07-14T07:37:50Z</time>
      </trkpt>
      <trkpt lat="44.72244" lon="0.45251">
        <ele>114</ele>
        <time>2025-07-14T07:37:51Z</time>
      </trkpt>
      <trkpt lat="44.72247" lon="0.45254">
        <ele>114.2</ele>
        <time>2025-07-14T07:37:52Z</time>
      </trkpt>
      <trkpt lat="44.72251" lon="0.45255">
        <ele>114.4</ele>
        <time>2025-07-14T07:37:53Z</time>
      </trkpt>
      <trkpt lat="44.72255" lon="0.45257">
        <ele>114.6</ele>
        <time>2025-07-14T07:37:54Z</time>
      </trkpt>
      <trkpt lat="44.72258" lon="0.45258">
        <ele>114.8</ele>
        <time>2025-07-14T07:37:55Z</time>
      </trkpt>
      <trkpt lat="44.72262" lon="0.45259">
        <ele>114.8</ele>
        <time>2025-07-14T07:37:56Z</time>
      </trkpt>
      <trkpt lat="44.72266" lon="0.4526">
        <ele>115</ele>
        <time>2025-07-14T07:37:57Z</time>
      </trkpt>
      <trkpt lat="44.7227" lon="0.45261">
        <ele>115</ele>
        <time>2025-07-14T07:37:58Z</time>
      </trkpt>
      <trkpt lat="44.72274" lon="0.45263">
        <ele>115.2</ele>
        <time>2025-07-14T07:37:59Z</time>
      </trkpt>
      <trkpt lat="44.72278" lon="0.45264">
        <ele>115.2</ele>
        <time>2025-07-14T07:38:00Z</time>
      </trkpt>
      <trkpt lat="44.72282" lon="0.45265">
        <ele>115.4</ele>
        <time>2025-07-14T07:38:01Z</time>
      </trkpt>
      <trkpt lat="44.72286" lon="0.45267">
        <ele>115.4</ele>
        <time>2025-07-14T07:38:02Z</time>
      </trkpt>
      <trkpt lat="44.72291" lon="0.45268">
        <ele>115.4</ele>
        <time>2025-07-14T07:38:03Z</time>
      </trkpt>
      <trkpt lat="44.72296" lon="0.45269">
        <ele>115.4</ele>
        <time>2025-07-14T07:38:04Z</time>
      </trkpt>
      <trkpt lat="44.723" lon="0.45271">
        <ele>115.2</ele>
        <time>2025-07-14T07:38:05Z</time>
      </trkpt>
      <trkpt lat="44.72305" lon="0.45272">
        <ele>115.2</ele>
        <time>2025-07-14T07:38:06Z</time>
      </trkpt>
      <trkpt lat="44.7231" lon="0.45274">
        <ele>115.2</ele>
        <time>2025-07-14T07:38:07Z</time>
      </trkpt>
      <trkpt lat="44.72315" lon="0.45275">
        <ele>115.2</ele>
        <time>2025-07-14T07:38:08Z</time>
      </trkpt>
      <trkpt lat="44.7232" lon="0.45277">
        <ele>115.2</ele>
        <time>2025-07-14T07:38:09Z</time>
      </trkpt>
      <trkpt lat="44.72326" lon="0.45278">
        <ele>115</ele>
        <time>2025-07-14T07:38:10Z</time>
      </trkpt>
      <trkpt lat="44.72331" lon="0.4528">
        <ele>115</ele>
        <time>2025-07-14T07:38:11Z</time>
      </trkpt>
      <trkpt lat="44.72336" lon="0.45282">
        <ele>114.8</ele>
        <time>2025-07-14T07:38:12Z</time>
      </trkpt>
      <trkpt lat="44.72342" lon="0.45285">
        <ele>114.6</ele>
        <time>2025-07-14T07:38:13Z</time>
      </trkpt>
      <trkpt lat="44.72348" lon="0.45286">
        <ele>114.4</ele>
        <time>2025-07-14T07:38:14Z</time>
      </trkpt>
      <trkpt lat="44.72353" lon="0.45287">
        <ele>114.2</ele>
        <time>2025-07-14T07:38:15Z</time>
      </trkpt>
      <trkpt lat="44.72359" lon="0.45289">
        <ele>114</ele>
        <time>2025-07-14T07:38:16Z</time>
      </trkpt>
      <trkpt lat="44.72364" lon="0.4529">
        <ele>114</ele>
        <time>2025-07-14T07:38:17Z</time>
      </trkpt>
      <trkpt lat="44.7237" lon="0.45292">
        <ele>114</ele>
        <time>2025-07-14T07:38:18Z</time>
      </trkpt>
      <trkpt lat="44.72375" lon="0.45294">
        <ele>114</ele>
        <time>2025-07-14T07:38:19Z</time>
      </trkpt>
      <trkpt lat="44.7238" lon="0.45296">
        <ele>113.8</ele>
        <time>2025-07-14T07:38:20Z</time>
      </trkpt>
      <trkpt lat="44.72386" lon="0.45298">
        <ele>114</ele>
        <time>2025-07-14T07:38:21Z</time>
      </trkpt>
      <trkpt lat="44.72392" lon="0.453">
        <ele>113.8</ele>
        <time>2025-07-14T07:38:22Z</time>
      </trkpt>
      <trkpt lat="44.72398" lon="0.45301">
        <ele>113.8</ele>
        <time>2025-07-14T07:38:23Z</time>
      </trkpt>
      <trkpt lat="44.72404" lon="0.45303">
        <ele>113.6</ele>
        <time>2025-07-14T07:38:24Z</time>
      </trkpt>
      <trkpt lat="44.7241" lon="0.45304">
        <ele>113.6</ele>
        <time>2025-07-14T07:38:25Z</time>
      </trkpt>
      <trkpt lat="44.72415" lon="0.45306">
        <ele>113.4</ele>
        <time>2025-07-14T07:38:26Z</time>
      </trkpt>
      <trkpt lat="44.72421" lon="0.45308">
        <ele>113.2</ele>
        <time>2025-07-14T07:38:27Z</time>
      </trkpt>
      <trkpt lat="44.72427" lon="0.4531">
        <ele>113.2</ele>
        <time>2025-07-14T07:38:28Z</time>
      </trkpt>
      <trkpt lat="44.72433" lon="0.45312">
        <ele>113</ele>
        <time>2025-07-14T07:38:29Z</time>
      </trkpt>
      <trkpt lat="44.72439" lon="0.45313">
        <ele>112.8</ele>
        <time>2025-07-14T07:38:30Z</time>
      </trkpt>
      <trkpt lat="44.72445" lon="0.45314">
        <ele>112.6</ele>
        <time>2025-07-14T07:38:31Z</time>
      </trkpt>
      <trkpt lat="44.72451" lon="0.45316">
        <ele>112.6</ele>
        <time>2025-07-14T07:38:32Z</time>
      </trkpt>
      <trkpt lat="44.72457" lon="0.45318">
        <ele>112.4</ele>
        <time>2025-07-14T07:38:33Z</time>
      </trkpt>
      <trkpt lat="44.72463" lon="0.4532">
        <ele>112.4</ele>
        <time>2025-07-14T07:38:34Z</time>
      </trkpt>
      <trkpt lat="44.72468" lon="0.45322">
        <ele>112.4</ele>
        <time>2025-07-14T07:38:35Z</time>
      </trkpt>
      <trkpt lat="44.72474" lon="0.45324">
        <ele>112.4</ele>
        <time>2025-07-14T07:38:36Z</time>
      </trkpt>
      <trkpt lat="44.72479" lon="0.45326">
        <ele>112.2</ele>
        <time>2025-07-14T07:38:37Z</time>
      </trkpt>
      <trkpt lat="44.72484" lon="0.45328">
        <ele>112.4</ele>
        <time>2025-07-14T07:38:38Z</time>
      </trkpt>
      <trkpt lat="44.7249" lon="0.45329">
        <ele>112.4</ele>
        <time>2025-07-14T07:38:39Z</time>
      </trkpt>
      <trkpt lat="44.72495" lon="0.45331">
        <ele>112.6</ele>
        <time>2025-07-14T07:38:40Z</time>
      </trkpt>
      <trkpt lat="44.725" lon="0.45333">
        <ele>112.6</ele>
        <time>2025-07-14T07:38:41Z</time>
      </trkpt>
      <trkpt lat="44.72503" lon="0.45336">
        <ele>112.8</ele>
        <time>2025-07-14T07:38:42Z</time>
      </trkpt>
      <trkpt lat="44.72505" lon="0.45341">
        <ele>112.8</ele>
        <time>2025-07-14T07:38:43Z</time>
      </trkpt>
      <trkpt lat="44.72505" lon="0.45347">
        <ele>113</ele>
        <time>2025-07-14T07:38:44Z</time>
      </trkpt>
      <trkpt lat="44.72505" lon="0.45352">
        <ele>113.2</ele>
        <time>2025-07-14T07:38:45Z</time>
      </trkpt>
      <trkpt lat="44.72505" lon="0.45358">
        <ele>113.2</ele>
        <time>2025-07-14T07:38:46Z</time>
      </trkpt>
      <trkpt lat="44.72504" lon="0.45363">
        <ele>113.4</ele>
        <time>2025-07-14T07:38:47Z</time>
      </trkpt>
      <trkpt lat="44.72504" lon="0.45369">
        <ele>113.6</ele>
        <time>2025-07-14T07:38:48Z</time>
      </trkpt>
      <trkpt lat="44.72504" lon="0.45375">
        <ele>113.8</ele>
        <time>2025-07-14T07:38:49Z</time>
      </trkpt>
      <trkpt lat="44.72504" lon="0.45381">
        <ele>114</ele>
        <time>2025-07-14T07:38:50Z</time>
      </trkpt>
      <trkpt lat="44.72504" lon="0.45388">
        <ele>114</ele>
        <time>2025-07-14T07:38:51Z</time>
      </trkpt>
      <trkpt lat="44.72503" lon="0.45393">
        <ele>114.2</ele>
        <time>2025-07-14T07:38:52Z</time>
      </trkpt>
      <trkpt lat="44.72503" lon="0.45399">
        <ele>114.4</ele>
        <time>2025-07-14T07:38:53Z</time>
      </trkpt>
      <trkpt lat="44.72503" lon="0.45404">
        <ele>114.4</ele>
        <time>2025-07-14T07:38:54Z</time>
      </trkpt>
      <trkpt lat="44.72502" lon="0.45409">
        <ele>114.6</ele>
        <time>2025-07-14T07:38:55Z</time>
      </trkpt>
      <trkpt lat="44.72503" lon="0.45414">
        <ele>114.6</ele>
        <time>2025-07-14T07:38:56Z</time>
      </trkpt>
      <trkpt lat="44.72504" lon="0.45419">
        <ele>114.8</ele>
        <time>2025-07-14T07:38:57Z</time>
      </trkpt>
      <trkpt lat="44.72504" lon="0.45424">
        <ele>115</ele>
        <time>2025-07-14T07:38:58Z</time>
      </trkpt>
      <trkpt lat="44.72506" lon="0.45429">
        <ele>115.2</ele>
        <time>2025-07-14T07:38:59Z</time>
      </trkpt>
      <trkpt lat="44.72507" lon="0.45434">
        <ele>115.4</ele>
        <time>2025-07-14T07:39:00Z</time>
      </trkpt>
      <trkpt lat="44.72509" lon="0.45438">
        <ele>115.6</ele>
        <time>2025-07-14T07:39:01Z</time>
      </trkpt>
      <trkpt lat="44.72511" lon="0.45443">
        <ele>115.6</ele>
        <time>2025-07-14T07:39:02Z</time>
      </trkpt>
      <trkpt lat="44.72513" lon="0.45447">
        <ele>115.8</ele>
        <time>2025-07-14T07:39:03Z</time>
      </trkpt>
      <trkpt lat="44.72515" lon="0.45451">
        <ele>115.8</ele>
        <time>2025-07-14T07:39:04Z</time>
      </trkpt>
      <trkpt lat="44.72517" lon="0.45455">
        <ele>116</ele>
        <time>2025-07-14T07:39:05Z</time>
      </trkpt>
      <trkpt lat="44.72519" lon="0.45459">
        <ele>116.2</ele>
        <time>2025-07-14T07:39:06Z</time>
      </trkpt>
      <trkpt lat="44.72521" lon="0.45463">
        <ele>116.4</ele>
        <time>2025-07-14T07:39:07Z</time>
      </trkpt>
      <trkpt lat="44.72523" lon="0.45466">
        <ele>116.6</ele>
        <time>2025-07-14T07:39:08Z</time>
      </trkpt>
      <trkpt lat="44.72525" lon="0.4547">
        <ele>116.6</ele>
        <time>2025-07-14T07:39:09Z</time>
      </trkpt>
      <trkpt lat="44.72526" lon="0.45474">
        <ele>116.8</ele>
        <time>2025-07-14T07:39:10Z</time>
      </trkpt>
      <trkpt lat="44.72527" lon="0.45478">
        <ele>117</ele>
        <time>2025-07-14T07:39:11Z</time>
      </trkpt>
      <trkpt lat="44.72528" lon="0.45483">
        <ele>117.2</ele>
        <time>2025-07-14T07:39:12Z</time>
      </trkpt>
      <trkpt lat="44.72527" lon="0.45488">
        <ele>117.2</ele>
        <time>2025-07-14T07:39:13Z</time>
      </trkpt>
      <trkpt lat="44.72527" lon="0.45493">
        <ele>117.2</ele>
        <time>2025-07-14T07:39:14Z</time>
      </trkpt>
      <trkpt lat="44.72526" lon="0.45498">
        <ele>117.4</ele>
        <time>2025-07-14T07:39:15Z</time>
      </trkpt>
      <trkpt lat="44.72526" lon="0.45503">
        <ele>117.4</ele>
        <time>2025-07-14T07:39:16Z</time>
      </trkpt>
      <trkpt lat="44.72526" lon="0.45507">
        <ele>117.6</ele>
        <time>2025-07-14T07:39:17Z</time>
      </trkpt>
      <trkpt lat="44.72525" lon="0.45511">
        <ele>117.6</ele>
        <time>2025-07-14T07:39:18Z</time>
      </trkpt>
      <trkpt lat="44.72525" lon="0.45516">
        <ele>117.8</ele>
        <time>2025-07-14T07:39:19Z</time>
      </trkpt>
      <trkpt lat="44.72525" lon="0.4552">
        <ele>117.8</ele>
        <time>2025-07-14T07:39:20Z</time>
      </trkpt>
      <trkpt lat="44.72525" lon="0.45525">
        <ele>118</ele>
        <time>2025-07-14T07:39:21Z</time>
      </trkpt>
      <trkpt lat="44.72524" lon="0.45529">
        <ele>118</ele>
        <time>2025-07-14T07:39:22Z</time>
      </trkpt>
      <trkpt lat="44.72525" lon="0.45534">
        <ele>118.2</ele>
        <time>2025-07-14T07:39:23Z</time>
      </trkpt>
      <trkpt lat="44.72525" lon="0.45539">
        <ele>118.4</ele>
        <time>2025-07-14T07:39:24Z</time>
      </trkpt>
      <trkpt lat="44.72525" lon="0.45543">
        <ele>118.4</ele>
        <time>2025-07-14T07:39:25Z</time>
      </trkpt>
      <trkpt lat="44.72524" lon="0.45547">
        <ele>118.6</ele>
        <time>2025-07-14T07:39:26Z</time>
      </trkpt>
      <trkpt lat="44.72524" lon="0.45551">
        <ele>118.8</ele>
        <time>2025-07-14T07:39:27Z</time>
      </trkpt>
      <trkpt lat="44.72523" lon="0.45555">
        <ele>119</ele>
        <time>2025-07-14T07:39:28Z</time>
      </trkpt>
      <trkpt lat="44.72523" lon="0.45559">
        <ele>119.2</ele>
        <time>2025-07-14T07:39:29Z</time>
      </trkpt>
      <trkpt lat="44.72522" lon="0.45564">
        <ele>119.4</ele>
        <time>2025-07-14T07:39:30Z</time>
      </trkpt>
      <trkpt lat="44.72522" lon="0.45568">
        <ele>119.4</ele>
        <time>2025-07-14T07:39:31Z</time>
      </trkpt>
      <trkpt lat="44.72522" lon="0.45573">
        <ele>119.6</ele>
        <time>2025-07-14T07:39:32Z</time>
      </trkpt>
      <trkpt lat="44.72522" lon="0.45577">
        <ele>119.8</ele>
        <time>2025-07-14T07:39:33Z</time>
      </trkpt>
      <trkpt lat="44.72522" lon="0.45581">
        <ele>120</ele>
        <time>2025-07-14T07:39:34Z</time>
      </trkpt>
      <trkpt lat="44.72521" lon="0.45586">
        <ele>120</ele>
        <time>2025-07-14T07:39:35Z</time>
      </trkpt>
      <trkpt lat="44.72521" lon="0.4559">
        <ele>120.2</ele>
        <time>2025-07-14T07:39:36Z</time>
      </trkpt>
      <trkpt lat="44.72521" lon="0.45594">
        <ele>120.2</ele>
        <time>2025-07-14T07:39:37Z</time>
      </trkpt>
      <trkpt lat="44.72521" lon="0.45598">
        <ele>120.4</ele>
        <time>2025-07-14T07:39:38Z</time>
      </trkpt>
      <trkpt lat="44.72521" lon="0.45603">
        <ele>120.6</ele>
        <time>2025-07-14T07:39:39Z</time>
      </trkpt>
      <trkpt lat="44.72522" lon="0.45607">
        <ele>120.6</ele>
        <time>2025-07-14T07:39:40Z</time>
      </trkpt>
      <trkpt lat="44.72522" lon="0.45611">
        <ele>120.8</ele>
        <time>2025-07-14T07:39:41Z</time>
      </trkpt>
      <trkpt lat="44.72522" lon="0.45616">
        <ele>121</ele>
        <time>2025-07-14T07:39:42Z</time>
      </trkpt>
      <trkpt lat="44.72522" lon="0.4562">
        <ele>121.2</ele>
        <time>2025-07-14T07:39:43Z</time>
      </trkpt>
      <trkpt lat="44.72523" lon="0.45624">
        <ele>121.2</ele>
        <time>2025-07-14T07:39:44Z</time>
      </trkpt>
      <trkpt lat="44.72523" lon="0.45627">
        <ele>121.4</ele>
        <time>2025-07-14T07:39:45Z</time>
      </trkpt>
      <trkpt lat="44.72523" lon="0.45631">
        <ele>121.6</ele>
        <time>2025-07-14T07:39:46Z</time>
      </trkpt>
      <trkpt lat="44.72524" lon="0.45635">
        <ele>121.8</ele>
        <time>2025-07-14T07:39:47Z</time>
      </trkpt>
      <trkpt lat="44.72524" lon="0.45639">
        <ele>122</ele>
        <time>2025-07-14T07:39:48Z</time>
      </trkpt>
      <trkpt lat="44.72524" lon="0.45642">
        <ele>122.2</ele>
        <time>2025-07-14T07:39:49Z</time>
      </trkpt>
      <trkpt lat="44.72525" lon="0.45645">
        <ele>122.4</ele>
        <time>2025-07-14T07:39:50Z</time>
      </trkpt>
      <trkpt lat="44.72525" lon="0.45647">
        <ele>122.6</ele>
        <time>2025-07-14T07:39:51Z</time>
      </trkpt>
      <trkpt lat="44.72525" lon="0.4565">
        <ele>123</ele>
        <time>2025-07-14T07:39:52Z</time>
      </trkpt>
      <trkpt lat="44.72526" lon="0.45652">
        <ele>123.2</ele>
        <time>2025-07-14T07:39:53Z</time>
      </trkpt>
      <trkpt lat="44.72526" lon="0.45654">
        <ele>123.4</ele>
        <time>2025-07-14T07:39:54Z</time>
      </trkpt>
      <trkpt lat="44.72527" lon="0.45656">
        <ele>123.8</ele>
        <time>2025-07-14T07:39:55Z</time>
      </trkpt>
      <trkpt lat="44.72527" lon="0.45658">
        <ele>124</ele>
        <time>2025-07-14T07:39:56Z</time>
      </trkpt>
      <trkpt lat="44.72528" lon="0.45661">
        <ele>124.2</ele>
        <time>2025-07-14T07:39:57Z</time>
      </trkpt>
      <trkpt lat="44.72528" lon="0.45663">
        <ele>124.4</ele>
        <time>2025-07-14T07:39:58Z</time>
      </trkpt>
      <trkpt lat="44.72528" lon="0.45666">
        <ele>124.6</ele>
        <time>2025-07-14T07:39:59Z</time>
      </trkpt>
      <trkpt lat="44.72528" lon="0.45668">
        <ele>124.8</ele>
        <time>2025-07-14T07:40:00Z</time>
      </trkpt>
      <trkpt lat="44.72529" lon="0.45671">
        <ele>125</ele>
        <time>2025-07-14T07:40:01Z</time>
      </trkpt>
      <trkpt lat="44.7253" lon="0.45673">
        <ele>125.2</ele>
        <time>2025-07-14T07:40:02Z</time>
      </trkpt>
      <trkpt lat="44.72531" lon="0.45676">
        <ele>125.2</ele>
        <time>2025-07-14T07:40:03Z</time>
      </trkpt>
      <trkpt lat="44.72531" lon="0.45679">
        <ele>125.4</ele>
        <time>2025-07-14T07:40:04Z</time>
      </trkpt>
      <trkpt lat="44.72532" lon="0.45681">
        <ele>125.6</ele>
        <time>2025-07-14T07:40:05Z</time>
      </trkpt>
      <trkpt lat="44.72532" lon="0.45684">
        <ele>125.6</ele>
        <time>2025-07-14T07:40:06Z</time>
      </trkpt>
      <trkpt lat="44.72533" lon="0.45686">
        <ele>125.8</ele>
        <time>2025-07-14T07:40:07Z</time>
      </trkpt>
      <trkpt lat="44.72533" lon="0.45688">
        <ele>126</ele>
        <time>2025-07-14T07:40:08Z</time>
      </trkpt>
      <trkpt lat="44.72534" lon="0.45691">
        <ele>126.2</ele>
        <time>2025-07-14T07:40:09Z</time>
      </trkpt>
      <trkpt lat="44.72535" lon="0.45693">
        <ele>126.4</ele>
        <time>2025-07-14T07:40:10Z</time>
      </trkpt>
      <trkpt lat="44.72536" lon="0.45696">
        <ele>126.6</ele>
        <time>2025-07-14T07:40:11Z</time>
      </trkpt>
      <trkpt lat="44.72536" lon="0.45698">
        <ele>126.8</ele>
        <time>2025-07-14T07:40:12Z</time>
      </trkpt>
      <trkpt lat="44.72537" lon="0.457">
        <ele>127</ele>
        <time>2025-07-14T07:40:13Z</time>
      </trkpt>
      <trkpt lat="44.72538" lon="0.45703">
        <ele>127.2</ele>
        <time>2025-07-14T07:40:14Z</time>
      </trkpt>
      <trkpt lat="44.72539" lon="0.45705">
        <ele>127.2</ele>
        <time>2025-07-14T07:40:15Z</time>
      </trkpt>
      <trkpt lat="44.72539" lon="0.45708">
        <ele>127.4</ele>
        <time>2025-07-14T07:40:16Z</time>
      </trkpt>
      <trkpt lat="44.7254" lon="0.45711">
        <ele>127.6</ele>
        <time>2025-07-14T07:40:17Z</time>
      </trkpt>
      <trkpt lat="44.7254" lon="0.45714">
        <ele>127.6</ele>
        <time>2025-07-14T07:40:18Z</time>
      </trkpt>
      <trkpt lat="44.72541" lon="0.45717">
        <ele>127.8</ele>
        <time>2025-07-14T07:40:19Z</time>
      </trkpt>
      <trkpt lat="44.72542" lon="0.45721">
        <ele>128</ele>
        <time>2025-07-14T07:40:20Z</time>
      </trkpt>
      <trkpt lat="44.72542" lon="0.45724">
        <ele>128</ele>
        <time>2025-07-14T07:40:21Z</time>
      </trkpt>
      <trkpt lat="44.72543" lon="0.45727">
        <ele>128</ele>
        <time>2025-07-14T07:40:22Z</time>
      </trkpt>
      <trkpt lat="44.72543" lon="0.4573">
        <ele>128.2</ele>
        <time>2025-07-14T07:40:23Z</time>
      </trkpt>
      <trkpt lat="44.72544" lon="0.45733">
        <ele>128.2</ele>
        <time>2025-07-14T07:40:24Z</time>
      </trkpt>
      <trkpt lat="44.72544" lon="0.45736">
        <ele>128.4</ele>
        <time>2025-07-14T07:40:25Z</time>
      </trkpt>
      <trkpt lat="44.72544" lon="0.45739">
        <ele>128.4</ele>
        <time>2025-07-14T07:40:26Z</time>
      </trkpt>
      <trkpt lat="44.72544" lon="0.45742">
        <ele>128.4</ele>
        <time>2025-07-14T07:40:27Z</time>
      </trkpt>
      <trkpt lat="44.72544" lon="0.45745">
        <ele>128.4</ele>
        <time>2025-07-14T07:40:28Z</time>
      </trkpt>
      <trkpt lat="44.72543" lon="0.45749">
        <ele>128.6</ele>
        <time>2025-07-14T07:40:29Z</time>
      </trkpt>
      <trkpt lat="44.72543" lon="0.45752">
        <ele>128.6</ele>
        <time>2025-07-14T07:40:30Z</time>
      </trkpt>
      <trkpt lat="44.72543" lon="0.45755">
        <ele>128.6</ele>
        <time>2025-07-14T07:40:31Z</time>
      </trkpt>
      <trkpt lat="44.72543" lon="0.45759">
        <ele>128.8</ele>
        <time>2025-07-14T07:40:32Z</time>
      </trkpt>
      <trkpt lat="44.72543" lon="0.45762">
        <ele>128.8</ele>
        <time>2025-07-14T07:40:33Z</time>
      </trkpt>
      <trkpt lat="44.72543" lon="0.45765">
        <ele>128.8</ele>
        <time>2025-07-14T07:40:34Z</time>
      </trkpt>
      <trkpt lat="44.72542" lon="0.45769">
        <ele>129</ele>
        <time>2025-07-14T07:40:35Z</time>
      </trkpt>
      <trkpt lat="44.72542" lon="0.45772">
        <ele>129.2</ele>
        <time>2025-07-14T07:40:36Z</time>
      </trkpt>
      <trkpt lat="44.72542" lon="0.45776">
        <ele>129.2</ele>
        <time>2025-07-14T07:40:37Z</time>
      </trkpt>
      <trkpt lat="44.72542" lon="0.45779">
        <ele>129.4</ele>
        <time>2025-07-14T07:40:38Z</time>
      </trkpt>
      <trkpt lat="44.72542" lon="0.45782">
        <ele>129.6</ele>
        <time>2025-07-14T07:40:39Z</time>
      </trkpt>
      <trkpt lat="44.72541" lon="0.45785">
        <ele>129.6</ele>
        <time>2025-07-14T07:40:40Z</time>
      </trkpt>
      <trkpt lat="44.72541" lon="0.45787">
        <ele>129.8</ele>
        <time>2025-07-14T07:40:41Z</time>
      </trkpt>
      <trkpt lat="44.72541" lon="0.4579">
        <ele>130</ele>
        <time>2025-07-14T07:40:42Z</time>
      </trkpt>
      <trkpt lat="44.72541" lon="0.45794">
        <ele>130</ele>
        <time>2025-07-14T07:40:43Z</time>
      </trkpt>
      <trkpt lat="44.7254" lon="0.45797">
        <ele>130</ele>
        <time>2025-07-14T07:40:44Z</time>
      </trkpt>
      <trkpt lat="44.7254" lon="0.458">
        <ele>130.2</ele>
        <time>2025-07-14T07:40:45Z</time>
      </trkpt>
      <trkpt lat="44.7254" lon="0.45804">
        <ele>130.4</ele>
        <time>2025-07-14T07:40:46Z</time>
      </trkpt>
      <trkpt lat="44.7254" lon="0.45807">
        <ele>130.6</ele>
        <time>2025-07-14T07:40:47Z</time>
      </trkpt>
      <trkpt lat="44.7254" lon="0.4581">
        <ele>130.6</ele>
        <time>2025-07-14T07:40:48Z</time>
      </trkpt>
      <trkpt lat="44.7254" lon="0.45814">
        <ele>130.8</ele>
        <time>2025-07-14T07:40:49Z</time>
      </trkpt>
      <trkpt lat="44.7254" lon="0.45817">
        <ele>131</ele>
        <time>2025-07-14T07:40:50Z</time>
      </trkpt>
      <trkpt lat="44.7254" lon="0.4582">
        <ele>131.2</ele>
        <time>2025-07-14T07:40:51Z</time>
      </trkpt>
      <trkpt lat="44.7254" lon="0.45823">
        <ele>131.2</ele>
        <time>2025-07-14T07:40:52Z</time>
      </trkpt>
      <trkpt lat="44.72539" lon="0.45826">
        <ele>131.4</ele>
        <time>2025-07-14T07:40:53Z</time>
      </trkpt>
      <trkpt lat="44.72539" lon="0.45829">
        <ele>131.6</ele>
        <time>2025-07-14T07:40:54Z</time>
      </trkpt>
      <trkpt lat="44.72539" lon="0.45833">
        <ele>131.6</ele>
        <time>2025-07-14T07:40:55Z</time>
      </trkpt>
      <trkpt lat="44.72539" lon="0.45836">
        <ele>131.8</ele>
        <time>2025-07-14T07:40:56Z</time>
      </trkpt>
      <trkpt lat="44.72539" lon="0.45839">
        <ele>132</ele>
        <time>2025-07-14T07:40:57Z</time>
      </trkpt>
      <trkpt lat="44.72538" lon="0.45842">
        <ele>132.2</ele>
        <time>2025-07-14T07:40:58Z</time>
      </trkpt>
      <trkpt lat="44.72538" lon="0.45845">
        <ele>132.2</ele>
        <time>2025-07-14T07:40:59Z</time>
      </trkpt>
      <trkpt lat="44.72538" lon="0.45849">
        <ele>132.4</ele>
        <time>2025-07-14T07:41:00Z</time>
      </trkpt>
      <trkpt lat="44.72537" lon="0.45851">
        <ele>132.6</ele>
        <time>2025-07-14T07:41:01Z</time>
      </trkpt>
      <trkpt lat="44.72537" lon="0.45855">
        <ele>132.6</ele>
        <time>2025-07-14T07:41:02Z</time>
      </trkpt>
      <trkpt lat="44.72536" lon="0.45858">
        <ele>132.8</ele>
        <time>2025-07-14T07:41:03Z</time>
      </trkpt>
      <trkpt lat="44.72536" lon="0.45861">
        <ele>133</ele>
        <time>2025-07-14T07:41:04Z</time>
      </trkpt>
      <trkpt lat="44.72535" lon="0.45864">
        <ele>133.2</ele>
        <time>2025-07-14T07:41:05Z</time>
      </trkpt>
      <trkpt lat="44.72534" lon="0.45866">
        <ele>133.4</ele>
        <time>2025-07-14T07:41:06Z</time>
      </trkpt>
      <trkpt lat="44.72534" lon="0.45869">
        <ele>133.6</ele>
        <time>2025-07-14T07:41:07Z</time>
      </trkpt>
      <trkpt lat="44.72533" lon="0.45871">
        <ele>133.8</ele>
        <time>2025-07-14T07:41:08Z</time>
      </trkpt>
      <trkpt lat="44.72533" lon="0.45874">
        <ele>134</ele>
        <time>2025-07-14T07:41:09Z</time>
      </trkpt>
      <trkpt lat="44.72532" lon="0.45877">
        <ele>134</ele>
        <time>2025-07-14T07:41:10Z</time>
      </trkpt>
      <trkpt lat="44.72532" lon="0.45879">
        <ele>134.2</ele>
        <time>2025-07-14T07:41:11Z</time>
      </trkpt>
      <trkpt lat="44.72531" lon="0.45881">
        <ele>134.4</ele>
        <time>2025-07-14T07:41:12Z</time>
      </trkpt>
      <trkpt lat="44.72531" lon="0.45883">
        <ele>134.6</ele>
        <time>2025-07-14T07:41:13Z</time>
      </trkpt>
      <trkpt lat="44.7253" lon="0.45885">
        <ele>135</ele>
        <time>2025-07-14T07:41:14Z</time>
      </trkpt>
      <trkpt lat="44.7253" lon="0.45888">
        <ele>135.2</ele>
        <time>2025-07-14T07:41:15Z</time>
      </trkpt>
      <trkpt lat="44.72529" lon="0.4589">
        <ele>135.4</ele>
        <time>2025-07-14T07:41:16Z</time>
      </trkpt>
      <trkpt lat="44.72528" lon="0.45892">
        <ele>135.6</ele>
        <time>2025-07-14T07:41:17Z</time>
      </trkpt>
      <trkpt lat="44.72528" lon="0.45894">
        <ele>135.8</ele>
        <time>2025-07-14T07:41:18Z</time>
      </trkpt>
      <trkpt lat="44.72528" lon="0.45897">
        <ele>136</ele>
        <time>2025-07-14T07:41:19Z</time>
      </trkpt>
      <trkpt lat="44.72527" lon="0.45899">
        <ele>136.2</ele>
        <time>2025-07-14T07:41:20Z</time>
      </trkpt>
      <trkpt lat="44.72528" lon="0.45902">
        <ele>136.4</ele>
        <time>2025-07-14T07:41:21Z</time>
      </trkpt>
      <trkpt lat="44.72529" lon="0.45904">
        <ele>136.8</ele>
        <time>2025-07-14T07:41:22Z</time>
      </trkpt>
      <trkpt lat="44.7253" lon="0.45907">
        <ele>136.8</ele>
        <time>2025-07-14T07:41:23Z</time>
      </trkpt>
      <trkpt lat="44.72532" lon="0.45909">
        <ele>137</ele>
        <time>2025-07-14T07:41:24Z</time>
      </trkpt>
      <trkpt lat="44.72534" lon="0.45911">
        <ele>137.2</ele>
        <time>2025-07-14T07:41:25Z</time>
      </trkpt>
      <trkpt lat="44.72536" lon="0.45913">
        <ele>137.2</ele>
        <time>2025-07-14T07:41:26Z</time>
      </trkpt>
      <trkpt lat="44.72538" lon="0.45915">
        <ele>137.4</ele>
        <time>2025-07-14T07:41:27Z</time>
      </trkpt>
      <trkpt lat="44.7254" lon="0.45917">
        <ele>137.4</ele>
        <time>2025-07-14T07:41:28Z</time>
      </trkpt>
      <trkpt lat="44.72543" lon="0.45919">
        <ele>137.4</ele>
        <time>2025-07-14T07:41:29Z</time>
      </trkpt>
      <trkpt lat="44.72546" lon="0.45921">
        <ele>137.6</ele>
        <time>2025-07-14T07:41:30Z</time>
      </trkpt>
      <trkpt lat="44.72548" lon="0.45922">
        <ele>137.6</ele>
        <time>2025-07-14T07:41:31Z</time>
      </trkpt>
      <trkpt lat="44.7255" lon="0.45924">
        <ele>137.8</ele>
        <time>2025-07-14T07:41:32Z</time>
      </trkpt>
      <trkpt lat="44.72552" lon="0.45925">
        <ele>137.8</ele>
        <time>2025-07-14T07:41:33Z</time>
      </trkpt>
      <trkpt lat="44.72555" lon="0.45927">
        <ele>138</ele>
        <time>2025-07-14T07:41:34Z</time>
      </trkpt>
      <trkpt lat="44.72557" lon="0.45929">
        <ele>138</ele>
        <time>2025-07-14T07:41:35Z</time>
      </trkpt>
      <trkpt lat="44.72559" lon="0.45931">
        <ele>138.2</ele>
        <time>2025-07-14T07:41:36Z</time>
      </trkpt>
      <trkpt lat="44.72561" lon="0.45932">
        <ele>138.4</ele>
        <time>2025-07-14T07:41:37Z</time>
      </trkpt>
      <trkpt lat="44.72564" lon="0.45934">
        <ele>138.6</ele>
        <time>2025-07-14T07:41:38Z</time>
      </trkpt>
      <trkpt lat="44.72566" lon="0.45936">
        <ele>138.6</ele>
        <time>2025-07-14T07:41:39Z</time>
      </trkpt>
      <trkpt lat="44.72569" lon="0.45938">
        <ele>138.8</ele>
        <time>2025-07-14T07:41:40Z</time>
      </trkpt>
      <trkpt lat="44.72571" lon="0.4594">
        <ele>138.8</ele>
        <time>2025-07-14T07:41:41Z</time>
      </trkpt>
      <trkpt lat="44.72574" lon="0.45942">
        <ele>139</ele>
        <time>2025-07-14T07:41:42Z</time>
      </trkpt>
      <trkpt lat="44.72577" lon="0.45944">
        <ele>139</ele>
        <time>2025-07-14T07:41:43Z</time>
      </trkpt>
      <trkpt lat="44.72579" lon="0.45946">
        <ele>138.8</ele>
        <time>2025-07-14T07:41:44Z</time>
      </trkpt>
      <trkpt lat="44.72582" lon="0.45949">
        <ele>138.8</ele>
        <time>2025-07-14T07:41:45Z</time>
      </trkpt>
      <trkpt lat="44.72585" lon="0.45952">
        <ele>138.8</ele>
        <time>2025-07-14T07:41:46Z</time>
      </trkpt>
      <trkpt lat="44.72589" lon="0.45954">
        <ele>138.8</ele>
        <time>2025-07-14T07:41:47Z</time>
      </trkpt>
      <trkpt lat="44.72592" lon="0.45957">
        <ele>138.8</ele>
        <time>2025-07-14T07:41:48Z</time>
      </trkpt>
      <trkpt lat="44.72595" lon="0.45959">
        <ele>138.6</ele>
        <time>2025-07-14T07:41:49Z</time>
      </trkpt>
      <trkpt lat="44.72598" lon="0.45961">
        <ele>138.6</ele>
        <time>2025-07-14T07:41:50Z</time>
      </trkpt>
      <trkpt lat="44.72601" lon="0.45964">
        <ele>138.6</ele>
        <time>2025-07-14T07:41:51Z</time>
      </trkpt>
      <trkpt lat="44.72604" lon="0.45966">
        <ele>138.6</ele>
        <time>2025-07-14T07:41:52Z</time>
      </trkpt>
      <trkpt lat="44.72607" lon="0.45969">
        <ele>138.6</ele>
        <time>2025-07-14T07:41:53Z</time>
      </trkpt>
      <trkpt lat="44.7261" lon="0.45971">
        <ele>138.6</ele>
        <time>2025-07-14T07:41:54Z</time>
      </trkpt>
      <trkpt lat="44.72613" lon="0.45973">
        <ele>138.8</ele>
        <time>2025-07-14T07:41:55Z</time>
      </trkpt>
      <trkpt lat="44.72615" lon="0.45976">
        <ele>138.8</ele>
        <time>2025-07-14T07:41:56Z</time>
      </trkpt>
      <trkpt lat="44.72616" lon="0.45979">
        <ele>139</ele>
        <time>2025-07-14T07:41:57Z</time>
      </trkpt>
      <trkpt lat="44.72617" lon="0.45983">
        <ele>139.2</ele>
        <time>2025-07-14T07:41:58Z</time>
      </trkpt>
      <trkpt lat="44.72616" lon="0.45986">
        <ele>139.2</ele>
        <time>2025-07-14T07:41:59Z</time>
      </trkpt>
      <trkpt lat="44.72616" lon="0.4599">
        <ele>139.4</ele>
        <time>2025-07-14T07:42:00Z</time>
      </trkpt>
      <trkpt lat="44.72615" lon="0.45993">
        <ele>139.6</ele>
        <time>2025-07-14T07:42:01Z</time>
      </trkpt>
      <trkpt lat="44.72615" lon="0.45997">
        <ele>139.8</ele>
        <time>2025-07-14T07:42:02Z</time>
      </trkpt>
      <trkpt lat="44.72614" lon="0.46">
        <ele>139.8</ele>
        <time>2025-07-14T07:42:03Z</time>
      </trkpt>
      <trkpt lat="44.72613" lon="0.46003">
        <ele>140</ele>
        <time>2025-07-14T07:42:04Z</time>
      </trkpt>
      <trkpt lat="44.72613" lon="0.46007">
        <ele>140.4</ele>
        <time>2025-07-14T07:42:05Z</time>
      </trkpt>
      <trkpt lat="44.72612" lon="0.4601">
        <ele>140.4</ele>
        <time>2025-07-14T07:42:06Z</time>
      </trkpt>
      <trkpt lat="44.72612" lon="0.46014">
        <ele>140.6</ele>
        <time>2025-07-14T07:42:07Z</time>
      </trkpt>
      <trkpt lat="44.72611" lon="0.46017">
        <ele>140.8</ele>
        <time>2025-07-14T07:42:08Z</time>
      </trkpt>
      <trkpt lat="44.72611" lon="0.4602">
        <ele>141</ele>
        <time>2025-07-14T07:42:09Z</time>
      </trkpt>
      <trkpt lat="44.7261" lon="0.46023">
        <ele>141.2</ele>
        <time>2025-07-14T07:42:10Z</time>
      </trkpt>
      <trkpt lat="44.72609" lon="0.46026">
        <ele>141.4</ele>
        <time>2025-07-14T07:42:11Z</time>
      </trkpt>
      <trkpt lat="44.72609" lon="0.4603">
        <ele>141.6</ele>
        <time>2025-07-14T07:42:12Z</time>
      </trkpt>
      <trkpt lat="44.72608" lon="0.46033">
        <ele>141.8</ele>
        <time>2025-07-14T07:42:13Z</time>
      </trkpt>
      <trkpt lat="44.72607" lon="0.46036">
        <ele>141.8</ele>
        <time>2025-07-14T07:42:14Z</time>
      </trkpt>
      <trkpt lat="44.72606" lon="0.46039">
        <ele>142</ele>
        <time>2025-07-14T07:42:15Z</time>
      </trkpt>
      <trkpt lat="44.72606" lon="0.46042">
        <ele>142.2</ele>
        <time>2025-07-14T07:42:16Z</time>
      </trkpt>
      <trkpt lat="44.72605" lon="0.46045">
        <ele>142.4</ele>
        <time>2025-07-14T07:42:17Z</time>
      </trkpt>
      <trkpt lat="44.72605" lon="0.46048">
        <ele>142.4</ele>
        <time>2025-07-14T07:42:18Z</time>
      </trkpt>
      <trkpt lat="44.72604" lon="0.46051">
        <ele>142.6</ele>
        <time>2025-07-14T07:42:19Z</time>
      </trkpt>
      <trkpt lat="44.72604" lon="0.46054">
        <ele>142.8</ele>
        <time>2025-07-14T07:42:20Z</time>
      </trkpt>
      <trkpt lat="44.72604" lon="0.46057">
        <ele>143</ele>
        <time>2025-07-14T07:42:21Z</time>
      </trkpt>
      <trkpt lat="44.72603" lon="0.4606">
        <ele>143.2</ele>
        <time>2025-07-14T07:42:22Z</time>
      </trkpt>
      <trkpt lat="44.72603" lon="0.46063">
        <ele>143.4</ele>
        <time>2025-07-14T07:42:23Z</time>
      </trkpt>
      <trkpt lat="44.72602" lon="0.46066">
        <ele>143.6</ele>
        <time>2025-07-14T07:42:24Z</time>
      </trkpt>
      <trkpt lat="44.72602" lon="0.46069">
        <ele>143.8</ele>
        <time>2025-07-14T07:42:25Z</time>
      </trkpt>
      <trkpt lat="44.72601" lon="0.46071">
        <ele>144</ele>
        <time>2025-07-14T07:42:26Z</time>
      </trkpt>
      <trkpt lat="44.72601" lon="0.46074">
        <ele>144.2</ele>
        <time>2025-07-14T07:42:27Z</time>
      </trkpt>
      <trkpt lat="44.726" lon="0.46077">
        <ele>144.4</ele>
        <time>2025-07-14T07:42:28Z</time>
      </trkpt>
      <trkpt lat="44.726" lon="0.46079">
        <ele>144.6</ele>
        <time>2025-07-14T07:42:29Z</time>
      </trkpt>
      <trkpt lat="44.726" lon="0.46083">
        <ele>144.8</ele>
        <time>2025-07-14T07:42:30Z</time>
      </trkpt>
      <trkpt lat="44.72599" lon="0.46086">
        <ele>145</ele>
        <time>2025-07-14T07:42:31Z</time>
      </trkpt>
      <trkpt lat="44.72599" lon="0.46089">
        <ele>145.2</ele>
        <time>2025-07-14T07:42:32Z</time>
      </trkpt>
      <trkpt lat="44.72598" lon="0.46091">
        <ele>145.4</ele>
        <time>2025-07-14T07:42:33Z</time>
      </trkpt>
      <trkpt lat="44.72598" lon="0.46094">
        <ele>145.8</ele>
        <time>2025-07-14T07:42:34Z</time>
      </trkpt>
      <trkpt lat="44.72598" lon="0.46097">
        <ele>146</ele>
        <time>2025-07-14T07:42:35Z</time>
      </trkpt>
      <trkpt lat="44.72597" lon="0.461">
        <ele>146.2</ele>
        <time>2025-07-14T07:42:36Z</time>
      </trkpt>
      <trkpt lat="44.72597" lon="0.46103">
        <ele>146.4</ele>
        <time>2025-07-14T07:42:37Z</time>
      </trkpt>
      <trkpt lat="44.72596" lon="0.46106">
        <ele>146.6</ele>
        <time>2025-07-14T07:42:38Z</time>
      </trkpt>
      <trkpt lat="44.72596" lon="0.46109">
        <ele>146.8</ele>
        <time>2025-07-14T07:42:39Z</time>
      </trkpt>
      <trkpt lat="44.72595" lon="0.46112">
        <ele>147</ele>
        <time>2025-07-14T07:42:40Z</time>
      </trkpt>
      <trkpt lat="44.72595" lon="0.46115">
        <ele>147.2</ele>
        <time>2025-07-14T07:42:41Z</time>
      </trkpt>
      <trkpt lat="44.72594" lon="0.46118">
        <ele>147.4</ele>
        <time>2025-07-14T07:42:42Z</time>
      </trkpt>
      <trkpt lat="44.72594" lon="0.46122">
        <ele>147.6</ele>
        <time>2025-07-14T07:42:43Z</time>
      </trkpt>
      <trkpt lat="44.72593" lon="0.46125">
        <ele>147.8</ele>
        <time>2025-07-14T07:42:44Z</time>
      </trkpt>
      <trkpt lat="44.72593" lon="0.46128">
        <ele>147.8</ele>
        <time>2025-07-14T07:42:45Z</time>
      </trkpt>
      <trkpt lat="44.72592" lon="0.46131">
        <ele>148</ele>
        <time>2025-07-14T07:42:46Z</time>
      </trkpt>
      <trkpt lat="44.72592" lon="0.46135">
        <ele>148.2</ele>
        <time>2025-07-14T07:42:47Z</time>
      </trkpt>
      <trkpt lat="44.72591" lon="0.46138">
        <ele>148.2</ele>
        <time>2025-07-14T07:42:48Z</time>
      </trkpt>
      <trkpt lat="44.72591" lon="0.46143">
        <ele>148.4</ele>
        <time>2025-07-14T07:42:49Z</time>
      </trkpt>
      <trkpt lat="44.72591" lon="0.46147">
        <ele>148.6</ele>
        <time>2025-07-14T07:42:50Z</time>
      </trkpt>
      <trkpt lat="44.7259" lon="0.46151">
        <ele>148.6</ele>
        <time>2025-07-14T07:42:51Z</time>
      </trkpt>
      <trkpt lat="44.7259" lon="0.46155">
        <ele>148.6</ele>
        <time>2025-07-14T07:42:52Z</time>
      </trkpt>
      <trkpt lat="44.72591" lon="0.46159">
        <ele>148.6</ele>
        <time>2025-07-14T07:42:53Z</time>
      </trkpt>
      <trkpt lat="44.72593" lon="0.46163">
        <ele>148.6</ele>
        <time>2025-07-14T07:42:54Z</time>
      </trkpt>
      <trkpt lat="44.72596" lon="0.46166">
        <ele>148.6</ele>
        <time>2025-07-14T07:42:55Z</time>
      </trkpt>
      <trkpt lat="44.72599" lon="0.46169">
        <ele>148.6</ele>
        <time>2025-07-14T07:42:56Z</time>
      </trkpt>
      <trkpt lat="44.72602" lon="0.46173">
        <ele>148.6</ele>
        <time>2025-07-14T07:42:57Z</time>
      </trkpt>
      <trkpt lat="44.72606" lon="0.46176">
        <ele>148.4</ele>
        <time>2025-07-14T07:42:58Z</time>
      </trkpt>
      <trkpt lat="44.7261" lon="0.46179">
        <ele>148.4</ele>
        <time>2025-07-14T07:42:59Z</time>
      </trkpt>
      <trkpt lat="44.72615" lon="0.46182">
        <ele>148.2</ele>
        <time>2025-07-14T07:43:00Z</time>
      </trkpt>
      <trkpt lat="44.7262" lon="0.46183">
        <ele>148</ele>
        <time>2025-07-14T07:43:01Z</time>
      </trkpt>
      <trkpt lat="44.72626" lon="0.46184">
        <ele>147.8</ele>
        <time>2025-07-14T07:43:02Z</time>
      </trkpt>
      <trkpt lat="44.72631" lon="0.46185">
        <ele>147.6</ele>
        <time>2025-07-14T07:43:03Z</time>
      </trkpt>
      <trkpt lat="44.72636" lon="0.46185">
        <ele>147.4</ele>
        <time>2025-07-14T07:43:04Z</time>
      </trkpt>
      <trkpt lat="44.72642" lon="0.46186">
        <ele>147.4</ele>
        <time>2025-07-14T07:43:05Z</time>
      </trkpt>
      <trkpt lat="44.72647" lon="0.46187">
        <ele>147.2</ele>
        <time>2025-07-14T07:43:06Z</time>
      </trkpt>
      <trkpt lat="44.72653" lon="0.46188">
        <ele>147.2</ele>
        <time>2025-07-14T07:43:07Z</time>
      </trkpt>
      <trkpt lat="44.72658" lon="0.46188">
        <ele>147</ele>
        <time>2025-07-14T07:43:08Z</time>
      </trkpt>
      <trkpt lat="44.72663" lon="0.46189">
        <ele>146.8</ele>
        <time>2025-07-14T07:43:09Z</time>
      </trkpt>
      <trkpt lat="44.72668" lon="0.46189">
        <ele>146.8</ele>
        <time>2025-07-14T07:43:10Z</time>
      </trkpt>
      <trkpt lat="44.72673" lon="0.4619">
        <ele>146.6</ele>
        <time>2025-07-14T07:43:11Z</time>
      </trkpt>
      <trkpt lat="44.72678" lon="0.4619">
        <ele>146.6</ele>
        <time>2025-07-14T07:43:12Z</time>
      </trkpt>
      <trkpt lat="44.72683" lon="0.4619">
        <ele>146.6</ele>
        <time>2025-07-14T07:43:13Z</time>
      </trkpt>
      <trkpt lat="44.72688" lon="0.46191">
        <ele>146.6</ele>
        <time>2025-07-14T07:43:14Z</time>
      </trkpt>
      <trkpt lat="44.72693" lon="0.46191">
        <ele>146.4</ele>
        <time>2025-07-14T07:43:15Z</time>
      </trkpt>
      <trkpt lat="44.72697" lon="0.46192">
        <ele>146.4</ele>
        <time>2025-07-14T07:43:16Z</time>
      </trkpt>
      <trkpt lat="44.72702" lon="0.46192">
        <ele>146.4</ele>
        <time>2025-07-14T07:43:17Z</time>
      </trkpt>
      <trkpt lat="44.72707" lon="0.46193">
        <ele>146.4</ele>
        <time>2025-07-14T07:43:18Z</time>
      </trkpt>
      <trkpt lat="44.72712" lon="0.46193">
        <ele>146.4</ele>
        <time>2025-07-14T07:43:19Z</time>
      </trkpt>
      <trkpt lat="44.72717" lon="0.46194">
        <ele>146.6</ele>
        <time>2025-07-14T07:43:20Z</time>
      </trkpt>
      <trkpt lat="44.72721" lon="0.46194">
        <ele>146.6</ele>
        <time>2025-07-14T07:43:21Z</time>
      </trkpt>
      <trkpt lat="44.72726" lon="0.46195">
        <ele>146.6</ele>
        <time>2025-07-14T07:43:22Z</time>
      </trkpt>
      <trkpt lat="44.72731" lon="0.46196">
        <ele>146.6</ele>
        <time>2025-07-14T07:43:23Z</time>
      </trkpt>
      <trkpt lat="44.72736" lon="0.46197">
        <ele>146.6</ele>
        <time>2025-07-14T07:43:24Z</time>
      </trkpt>
      <trkpt lat="44.7274" lon="0.46198">
        <ele>146.6</ele>
        <time>2025-07-14T07:43:25Z</time>
      </trkpt>
      <trkpt lat="44.72745" lon="0.46198">
        <ele>146.8</ele>
        <time>2025-07-14T07:43:26Z</time>
      </trkpt>
      <trkpt lat="44.7275" lon="0.462">
        <ele>146.8</ele>
        <time>2025-07-14T07:43:27Z</time>
      </trkpt>
      <trkpt lat="44.72754" lon="0.46201">
        <ele>146.8</ele>
        <time>2025-07-14T07:43:28Z</time>
      </trkpt>
      <trkpt lat="44.72759" lon="0.46202">
        <ele>147</ele>
        <time>2025-07-14T07:43:29Z</time>
      </trkpt>
      <trkpt lat="44.72763" lon="0.46204">
        <ele>147</ele>
        <time>2025-07-14T07:43:30Z</time>
      </trkpt>
      <trkpt lat="44.72768" lon="0.46205">
        <ele>147</ele>
        <time>2025-07-14T07:43:31Z</time>
      </trkpt>
      <trkpt lat="44.72773" lon="0.46207">
        <ele>147</ele>
        <time>2025-07-14T07:43:32Z</time>
      </trkpt>
      <trkpt lat="44.72777" lon="0.46208">
        <ele>147.2</ele>
        <time>2025-07-14T07:43:33Z</time>
      </trkpt>
      <trkpt lat="44.72782" lon="0.4621">
        <ele>147.2</ele>
        <time>2025-07-14T07:43:34Z</time>
      </trkpt>
      <trkpt lat="44.72786" lon="0.46211">
        <ele>147.4</ele>
        <time>2025-07-14T07:43:35Z</time>
      </trkpt>
      <trkpt lat="44.7279" lon="0.46213">
        <ele>147.4</ele>
        <time>2025-07-14T07:43:36Z</time>
      </trkpt>
      <trkpt lat="44.72794" lon="0.46214">
        <ele>147.6</ele>
        <time>2025-07-14T07:43:37Z</time>
      </trkpt>
      <trkpt lat="44.72799" lon="0.46216">
        <ele>147.6</ele>
        <time>2025-07-14T07:43:38Z</time>
      </trkpt>
      <trkpt lat="44.72803" lon="0.46219">
        <ele>147.8</ele>
        <time>2025-07-14T07:43:39Z</time>
      </trkpt>
      <trkpt lat="44.72808" lon="0.46221">
        <ele>148</ele>
        <time>2025-07-14T07:43:40Z</time>
      </trkpt>
      <trkpt lat="44.72812" lon="0.46224">
        <ele>148</ele>
        <time>2025-07-14T07:43:41Z</time>
      </trkpt>
      <trkpt lat="44.72816" lon="0.46228">
        <ele>148.2</ele>
        <time>2025-07-14T07:43:42Z</time>
      </trkpt>
      <trkpt lat="44.7282" lon="0.46231">
        <ele>148.2</ele>
        <time>2025-07-14T07:43:43Z</time>
      </trkpt>
      <trkpt lat="44.72824" lon="0.46234">
        <ele>148.4</ele>
        <time>2025-07-14T07:43:44Z</time>
      </trkpt>
      <trkpt lat="44.72827" lon="0.46237">
        <ele>148.6</ele>
        <time>2025-07-14T07:43:45Z</time>
      </trkpt>
      <trkpt lat="44.7283" lon="0.4624">
        <ele>148.8</ele>
        <time>2025-07-14T07:43:46Z</time>
      </trkpt>
      <trkpt lat="44.72833" lon="0.46243">
        <ele>149</ele>
        <time>2025-07-14T07:43:47Z</time>
      </trkpt>
      <trkpt lat="44.72836" lon="0.46246">
        <ele>149.2</ele>
        <time>2025-07-14T07:43:48Z</time>
      </trkpt>
      <trkpt lat="44.72838" lon="0.46249">
        <ele>149.4</ele>
        <time>2025-07-14T07:43:49Z</time>
      </trkpt>
      <trkpt lat="44.7284" lon="0.46252">
        <ele>149.8</ele>
        <time>2025-07-14T07:43:50Z</time>
      </trkpt>
      <trkpt lat="44.72843" lon="0.46254">
        <ele>150</ele>
        <time>2025-07-14T07:43:51Z</time>
      </trkpt>
      <trkpt lat="44.72845" lon="0.46256">
        <ele>150.4</ele>
        <time>2025-07-14T07:43:52Z</time>
      </trkpt>
      <trkpt lat="44.72847" lon="0.46259">
        <ele>150.6</ele>
        <time>2025-07-14T07:43:53Z</time>
      </trkpt>
      <trkpt lat="44.72849" lon="0.46261">
        <ele>150.8</ele>
        <time>2025-07-14T07:43:54Z</time>
      </trkpt>
      <trkpt lat="44.72852" lon="0.46263">
        <ele>151</ele>
        <time>2025-07-14T07:43:55Z</time>
      </trkpt>
      <trkpt lat="44.72854" lon="0.46264">
        <ele>151.4</ele>
        <time>2025-07-14T07:43:56Z</time>
      </trkpt>
      <trkpt lat="44.72856" lon="0.46265">
        <ele>151.6</ele>
        <time>2025-07-14T07:43:57Z</time>
      </trkpt>
      <trkpt lat="44.72859" lon="0.46267">
        <ele>151.8</ele>
        <time>2025-07-14T07:43:58Z</time>
      </trkpt>
      <trkpt lat="44.72861" lon="0.46268">
        <ele>152</ele>
        <time>2025-07-14T07:43:59Z</time>
      </trkpt>
      <trkpt lat="44.72864" lon="0.46268">
        <ele>152.4</ele>
        <time>2025-07-14T07:44:00Z</time>
      </trkpt>
      <trkpt lat="44.72866" lon="0.46269">
        <ele>152.6</ele>
        <time>2025-07-14T07:44:01Z</time>
      </trkpt>
      <trkpt lat="44.72869" lon="0.46269">
        <ele>152.8</ele>
        <time>2025-07-14T07:44:02Z</time>
      </trkpt>
      <trkpt lat="44.72872" lon="0.46269">
        <ele>153</ele>
        <time>2025-07-14T07:44:03Z</time>
      </trkpt>
      <trkpt lat="44.72874" lon="0.46269">
        <ele>153.4</ele>
        <time>2025-07-14T07:44:04Z</time>
      </trkpt>
      <trkpt lat="44.72876" lon="0.46268">
        <ele>153.6</ele>
        <time>2025-07-14T07:44:05Z</time>
      </trkpt>
      <trkpt lat="44.72879" lon="0.46268">
        <ele>153.8</ele>
        <time>2025-07-14T07:44:06Z</time>
      </trkpt>
      <trkpt lat="44.72881" lon="0.46267">
        <ele>154</ele>
        <time>2025-07-14T07:44:07Z</time>
      </trkpt>
      <trkpt lat="44.72884" lon="0.46266">
        <ele>154.4</ele>
        <time>2025-07-14T07:44:08Z</time>
      </trkpt>
      <trkpt lat="44.72886" lon="0.46266">
        <ele>154.6</ele>
        <time>2025-07-14T07:44:09Z</time>
      </trkpt>
      <trkpt lat="44.72889" lon="0.46266">
        <ele>154.8</ele>
        <time>2025-07-14T07:44:10Z</time>
      </trkpt>
      <trkpt lat="44.72892" lon="0.46265">
        <ele>155</ele>
        <time>2025-07-14T07:44:11Z</time>
      </trkpt>
      <trkpt lat="44.72894" lon="0.46265">
        <ele>155.2</ele>
        <time>2025-07-14T07:44:12Z</time>
      </trkpt>
      <trkpt lat="44.72896" lon="0.46263">
        <ele>155.4</ele>
        <time>2025-07-14T07:44:13Z</time>
      </trkpt>
      <trkpt lat="44.72899" lon="0.4626">
        <ele>155.8</ele>
        <time>2025-07-14T07:44:14Z</time>
      </trkpt>
      <trkpt lat="44.729" lon="0.46257">
        <ele>156</ele>
        <time>2025-07-14T07:44:15Z</time>
      </trkpt>
      <trkpt lat="44.72901" lon="0.46254">
        <ele>156.2</ele>
        <time>2025-07-14T07:44:16Z</time>
      </trkpt>
      <trkpt lat="44.72902" lon="0.4625">
        <ele>156.2</ele>
        <time>2025-07-14T07:44:17Z</time>
      </trkpt>
      <trkpt lat="44.72902" lon="0.46246">
        <ele>156.4</ele>
        <time>2025-07-14T07:44:18Z</time>
      </trkpt>
      <trkpt lat="44.72902" lon="0.46242">
        <ele>156.6</ele>
        <time>2025-07-14T07:44:19Z</time>
      </trkpt>
      <trkpt lat="44.72903" lon="0.46238">
        <ele>156.8</ele>
        <time>2025-07-14T07:44:20Z</time>
      </trkpt>
      <trkpt lat="44.72904" lon="0.46235">
        <ele>157</ele>
        <time>2025-07-14T07:44:21Z</time>
      </trkpt>
      <trkpt lat="44.72905" lon="0.46231">
        <ele>157.2</ele>
        <time>2025-07-14T07:44:22Z</time>
      </trkpt>
      <trkpt lat="44.72906" lon="0.46227">
        <ele>157.2</ele>
        <time>2025-07-14T07:44:23Z</time>
      </trkpt>
      <trkpt lat="44.72907" lon="0.46224">
        <ele>157.4</ele>
        <time>2025-07-14T07:44:24Z</time>
      </trkpt>
      <trkpt lat="44.72908" lon="0.4622">
        <ele>157.6</ele>
        <time>2025-07-14T07:44:25Z</time>
      </trkpt>
      <trkpt lat="44.72909" lon="0.46216">
        <ele>157.8</ele>
        <time>2025-07-14T07:44:26Z</time>
      </trkpt>
      <trkpt lat="44.7291" lon="0.46213">
        <ele>158</ele>
        <time>2025-07-14T07:44:27Z</time>
      </trkpt>
      <trkpt lat="44.72912" lon="0.46209">
        <ele>158.2</ele>
        <time>2025-07-14T07:44:28Z</time>
      </trkpt>
      <trkpt lat="44.72913" lon="0.46204">
        <ele>158.2</ele>
        <time>2025-07-14T07:44:29Z</time>
      </trkpt>
      <trkpt lat="44.72914" lon="0.46201">
        <ele>158.6</ele>
        <time>2025-07-14T07:44:30Z</time>
      </trkpt>
      <trkpt lat="44.72915" lon="0.46197">
        <ele>158.8</ele>
        <time>2025-07-14T07:44:31Z</time>
      </trkpt>
      <trkpt lat="44.72916" lon="0.46193">
        <ele>159</ele>
        <time>2025-07-14T07:44:32Z</time>
      </trkpt>
      <trkpt lat="44.72917" lon="0.46189">
        <ele>159.2</ele>
        <time>2025-07-14T07:44:33Z</time>
      </trkpt>
      <trkpt lat="44.72918" lon="0.46186">
        <ele>159.2</ele>
        <time>2025-07-14T07:44:34Z</time>
      </trkpt>
      <trkpt lat="44.72919" lon="0.46182">
        <ele>159.4</ele>
        <time>2025-07-14T07:44:35Z</time>
      </trkpt>
      <trkpt lat="44.7292" lon="0.46178">
        <ele>159.6</ele>
        <time>2025-07-14T07:44:36Z</time>
      </trkpt>
      <trkpt lat="44.72921" lon="0.46174">
        <ele>159.8</ele>
        <time>2025-07-14T07:44:37Z</time>
      </trkpt>
      <trkpt lat="44.72922" lon="0.4617">
        <ele>159.8</ele>
        <time>2025-07-14T07:44:38Z</time>
      </trkpt>
      <trkpt lat="44.72924" lon="0.46166">
        <ele>160</ele>
        <time>2025-07-14T07:44:39Z</time>
      </trkpt>
      <trkpt lat="44.72925" lon="0.46161">
        <ele>160.2</ele>
        <time>2025-07-14T07:44:40Z</time>
      </trkpt>
      <trkpt lat="44.72927" lon="0.46156">
        <ele>160.4</ele>
        <time>2025-07-14T07:44:41Z</time>
      </trkpt>
      <trkpt lat="44.72928" lon="0.46152">
        <ele>160.4</ele>
        <time>2025-07-14T07:44:42Z</time>
      </trkpt>
      <trkpt lat="44.7293" lon="0.46147">
        <ele>160.4</ele>
        <time>2025-07-14T07:44:43Z</time>
      </trkpt>
      <trkpt lat="44.72931" lon="0.46143">
        <ele>160.6</ele>
        <time>2025-07-14T07:44:44Z</time>
      </trkpt>
      <trkpt lat="44.72932" lon="0.46139">
        <ele>160.8</ele>
        <time>2025-07-14T07:44:45Z</time>
      </trkpt>
      <trkpt lat="44.72934" lon="0.46134">
        <ele>160.8</ele>
        <time>2025-07-14T07:44:46Z</time>
      </trkpt>
      <trkpt lat="44.72935" lon="0.46129">
        <ele>161</ele>
        <time>2025-07-14T07:44:47Z</time>
      </trkpt>
      <trkpt lat="44.72936" lon="0.46125">
        <ele>161</ele>
        <time>2025-07-14T07:44:48Z</time>
      </trkpt>
      <trkpt lat="44.72938" lon="0.46121">
        <ele>161.2</ele>
        <time>2025-07-14T07:44:49Z</time>
      </trkpt>
      <trkpt lat="44.72939" lon="0.46116">
        <ele>161.2</ele>
        <time>2025-07-14T07:44:50Z</time>
      </trkpt>
      <trkpt lat="44.7294" lon="0.46112">
        <ele>161.4</ele>
        <time>2025-07-14T07:44:51Z</time>
      </trkpt>
      <trkpt lat="44.72941" lon="0.46107">
        <ele>161.4</ele>
        <time>2025-07-14T07:44:52Z</time>
      </trkpt>
      <trkpt lat="44.72942" lon="0.46103">
        <ele>161.6</ele>
        <time>2025-07-14T07:44:53Z</time>
      </trkpt>
      <trkpt lat="44.72944" lon="0.46098">
        <ele>161.6</ele>
        <time>2025-07-14T07:44:54Z</time>
      </trkpt>
      <trkpt lat="44.72944" lon="0.46093">
        <ele>161.8</ele>
        <time>2025-07-14T07:44:55Z</time>
      </trkpt>
      <trkpt lat="44.72946" lon="0.46088">
        <ele>161.8</ele>
        <time>2025-07-14T07:44:56Z</time>
      </trkpt>
      <trkpt lat="44.72947" lon="0.46084">
        <ele>162</ele>
        <time>2025-07-14T07:44:57Z</time>
      </trkpt>
      <trkpt lat="44.72949" lon="0.46079">
        <ele>162</ele>
        <time>2025-07-14T07:44:58Z</time>
      </trkpt>
      <trkpt lat="44.7295" lon="0.46074">
        <ele>162.2</ele>
        <time>2025-07-14T07:44:59Z</time>
      </trkpt>
      <trkpt lat="44.72952" lon="0.46068">
        <ele>162.2</ele>
        <time>2025-07-14T07:45:00Z</time>
      </trkpt>
      <trkpt lat="44.72953" lon="0.46063">
        <ele>162.2</ele>
        <time>2025-07-14T07:45:01Z</time>
      </trkpt>
      <trkpt lat="44.72955" lon="0.46057">
        <ele>162.4</ele>
        <time>2025-07-14T07:45:02Z</time>
      </trkpt>
      <trkpt lat="44.72957" lon="0.46053">
        <ele>162.4</ele>
        <time>2025-07-14T07:45:03Z</time>
      </trkpt>
      <trkpt lat="44.72958" lon="0.46048">
        <ele>162.6</ele>
        <time>2025-07-14T07:45:04Z</time>
      </trkpt>
      <trkpt lat="44.72959" lon="0.46043">
        <ele>162.6</ele>
        <time>2025-07-14T07:45:05Z</time>
      </trkpt>
      <trkpt lat="44.7296" lon="0.46038">
        <ele>162.8</ele>
        <time>2025-07-14T07:45:06Z</time>
      </trkpt>
      <trkpt lat="44.72961" lon="0.46033">
        <ele>162.8</ele>
        <time>2025-07-14T07:45:07Z</time>
      </trkpt>
      <trkpt lat="44.72963" lon="0.46027">
        <ele>162.8</ele>
        <time>2025-07-14T07:45:08Z</time>
      </trkpt>
      <trkpt lat="44.72964" lon="0.46023">
        <ele>163</ele>
        <time>2025-07-14T07:45:09Z</time>
      </trkpt>
      <trkpt lat="44.72965" lon="0.46017">
        <ele>163</ele>
        <time>2025-07-14T07:45:10Z</time>
      </trkpt>
      <trkpt lat="44.72965" lon="0.46012">
        <ele>163</ele>
        <time>2025-07-14T07:45:11Z</time>
      </trkpt>
      <trkpt lat="44.72966" lon="0.46007">
        <ele>163.2</ele>
        <time>2025-07-14T07:45:12Z</time>
      </trkpt>
      <trkpt lat="44.72967" lon="0.46002">
        <ele>163.2</ele>
        <time>2025-07-14T07:45:13Z</time>
      </trkpt>
      <trkpt lat="44.72968" lon="0.45997">
        <ele>163.4</ele>
        <time>2025-07-14T07:45:14Z</time>
      </trkpt>
      <trkpt lat="44.72968" lon="0.45991">
        <ele>163.4</ele>
        <time>2025-07-14T07:45:15Z</time>
      </trkpt>
      <trkpt lat="44.72969" lon="0.45985">
        <ele>163.6</ele>
        <time>2025-07-14T07:45:16Z</time>
      </trkpt>
      <trkpt lat="44.7297" lon="0.45979">
        <ele>163.6</ele>
        <time>2025-07-14T07:45:17Z</time>
      </trkpt>
      <trkpt lat="44.7297" lon="0.45974">
        <ele>163.8</ele>
        <time>2025-07-14T07:45:18Z</time>
      </trkpt>
      <trkpt lat="44.72971" lon="0.45968">
        <ele>163.8</ele>
        <time>2025-07-14T07:45:19Z</time>
      </trkpt>
      <trkpt lat="44.72972" lon="0.45963">
        <ele>164</ele>
        <time>2025-07-14T07:45:20Z</time>
      </trkpt>
      <trkpt lat="44.72972" lon="0.45957">
        <ele>164</ele>
        <time>2025-07-14T07:45:21Z</time>
      </trkpt>
      <trkpt lat="44.72973" lon="0.45951">
        <ele>164.2</ele>
        <time>2025-07-14T07:45:22Z</time>
      </trkpt>
      <trkpt lat="44.72973" lon="0.45946">
        <ele>164.2</ele>
        <time>2025-07-14T07:45:23Z</time>
      </trkpt>
      <trkpt lat="44.72974" lon="0.4594">
        <ele>164.2</ele>
        <time>2025-07-14T07:45:24Z</time>
      </trkpt>
      <trkpt lat="44.72975" lon="0.45935">
        <ele>164.4</ele>
        <time>2025-07-14T07:45:25Z</time>
      </trkpt>
      <trkpt lat="44.72975" lon="0.45929">
        <ele>164.6</ele>
        <time>2025-07-14T07:45:26Z</time>
      </trkpt>
      <trkpt lat="44.72977" lon="0.45924">
        <ele>164.6</ele>
        <time>2025-07-14T07:45:27Z</time>
      </trkpt>
      <trkpt lat="44.72978" lon="0.45919">
        <ele>164.8</ele>
        <time>2025-07-14T07:45:28Z</time>
      </trkpt>
      <trkpt lat="44.7298" lon="0.45914">
        <ele>164.8</ele>
        <time>2025-07-14T07:45:29Z</time>
      </trkpt>
      <trkpt lat="44.72982" lon="0.45909">
        <ele>165</ele>
        <time>2025-07-14T07:45:30Z</time>
      </trkpt>
      <trkpt lat="44.72985" lon="0.45904">
        <ele>165</ele>
        <time>2025-07-14T07:45:31Z</time>
      </trkpt>
      <trkpt lat="44.72988" lon="0.45899">
        <ele>165.2</ele>
        <time>2025-07-14T07:45:32Z</time>
      </trkpt>
      <trkpt lat="44.7299" lon="0.45896">
        <ele>165.4</ele>
        <time>2025-07-14T07:45:33Z</time>
      </trkpt>
      <trkpt lat="44.72993" lon="0.45892">
        <ele>165.4</ele>
        <time>2025-07-14T07:45:34Z</time>
      </trkpt>
      <trkpt lat="44.72996" lon="0.45889">
        <ele>165.6</ele>
        <time>2025-07-14T07:45:35Z</time>
      </trkpt>
      <trkpt lat="44.72999" lon="0.45885">
        <ele>165.6</ele>
        <time>2025-07-14T07:45:36Z</time>
      </trkpt>
      <trkpt lat="44.73002" lon="0.45881">
        <ele>165.8</ele>
        <time>2025-07-14T07:45:37Z</time>
      </trkpt>
      <trkpt lat="44.73004" lon="0.45877">
        <ele>165.8</ele>
        <time>2025-07-14T07:45:38Z</time>
      </trkpt>
      <trkpt lat="44.73007" lon="0.45873">
        <ele>166</ele>
        <time>2025-07-14T07:45:39Z</time>
      </trkpt>
      <trkpt lat="44.7301" lon="0.45869">
        <ele>166</ele>
        <time>2025-07-14T07:45:40Z</time>
      </trkpt>
      <trkpt lat="44.73014" lon="0.45866">
        <ele>166.2</ele>
        <time>2025-07-14T07:45:41Z</time>
      </trkpt>
      <trkpt lat="44.73017" lon="0.45863">
        <ele>166.2</ele>
        <time>2025-07-14T07:45:42Z</time>
      </trkpt>
      <trkpt lat="44.73021" lon="0.4586">
        <ele>166.4</ele>
        <time>2025-07-14T07:45:43Z</time>
      </trkpt>
      <trkpt lat="44.73024" lon="0.45857">
        <ele>166.4</ele>
        <time>2025-07-14T07:45:44Z</time>
      </trkpt>
      <trkpt lat="44.73028" lon="0.45855">
        <ele>166.6</ele>
        <time>2025-07-14T07:45:45Z</time>
      </trkpt>
      <trkpt lat="44.73031" lon="0.45852">
        <ele>166.8</ele>
        <time>2025-07-14T07:45:46Z</time>
      </trkpt>
      <trkpt lat="44.73034" lon="0.4585">
        <ele>166.8</ele>
        <time>2025-07-14T07:45:47Z</time>
      </trkpt>
      <trkpt lat="44.73037" lon="0.45847">
        <ele>167</ele>
        <time>2025-07-14T07:45:48Z</time>
      </trkpt>
      <trkpt lat="44.7304" lon="0.45844">
        <ele>167.2</ele>
        <time>2025-07-14T07:45:49Z</time>
      </trkpt>
      <trkpt lat="44.73044" lon="0.45841">
        <ele>167.2</ele>
        <time>2025-07-14T07:45:50Z</time>
      </trkpt>
      <trkpt lat="44.73048" lon="0.45838">
        <ele>167.4</ele>
        <time>2025-07-14T07:45:51Z</time>
      </trkpt>
      <trkpt lat="44.73051" lon="0.45835">
        <ele>167.4</ele>
        <time>2025-07-14T07:45:52Z</time>
      </trkpt>
      <trkpt lat="44.73055" lon="0.45832">
        <ele>167.6</ele>
        <time>2025-07-14T07:45:53Z</time>
      </trkpt>
      <trkpt lat="44.73058" lon="0.45829">
        <ele>167.6</ele>
        <time>2025-07-14T07:45:54Z</time>
      </trkpt>
      <trkpt lat="44.73062" lon="0.45825">
        <ele>167.8</ele>
        <time>2025-07-14T07:45:55Z</time>
      </trkpt>
      <trkpt lat="44.73066" lon="0.45821">
        <ele>167.8</ele>
        <time>2025-07-14T07:45:56Z</time>
      </trkpt>
      <trkpt lat="44.7307" lon="0.45818">
        <ele>168</ele>
        <time>2025-07-14T07:45:57Z</time>
      </trkpt>
      <trkpt lat="44.73074" lon="0.45816">
        <ele>168</ele>
        <time>2025-07-14T07:45:58Z</time>
      </trkpt>
      <trkpt lat="44.73078" lon="0.45813">
        <ele>168.2</ele>
        <time>2025-07-14T07:45:59Z</time>
      </trkpt>
      <trkpt lat="44.73082" lon="0.45811">
        <ele>168.2</ele>
        <time>2025-07-14T07:46:00Z</time>
      </trkpt>
      <trkpt lat="44.73085" lon="0.45808">
        <ele>168.4</ele>
        <time>2025-07-14T07:46:01Z</time>
      </trkpt>
      <trkpt lat="44.73089" lon="0.45806">
        <ele>168.4</ele>
        <time>2025-07-14T07:46:02Z</time>
      </trkpt>
      <trkpt lat="44.73092" lon="0.45803">
        <ele>168.6</ele>
        <time>2025-07-14T07:46:03Z</time>
      </trkpt>
      <trkpt lat="44.73095" lon="0.458">
        <ele>168.6</ele>
        <time>2025-07-14T07:46:04Z</time>
      </trkpt>
      <trkpt lat="44.73098" lon="0.45797">
        <ele>168.8</ele>
        <time>2025-07-14T07:46:05Z</time>
      </trkpt>
      <trkpt lat="44.73102" lon="0.45794">
        <ele>168.8</ele>
        <time>2025-07-14T07:46:06Z</time>
      </trkpt>
      <trkpt lat="44.73105" lon="0.4579">
        <ele>169</ele>
        <time>2025-07-14T07:46:07Z</time>
      </trkpt>
      <trkpt lat="44.73108" lon="0.45787">
        <ele>169</ele>
        <time>2025-07-14T07:46:08Z</time>
      </trkpt>
      <trkpt lat="44.73111" lon="0.45783">
        <ele>169.2</ele>
        <time>2025-07-14T07:46:09Z</time>
      </trkpt>
      <trkpt lat="44.73114" lon="0.4578">
        <ele>169.2</ele>
        <time>2025-07-14T07:46:10Z</time>
      </trkpt>
      <trkpt lat="44.73118" lon="0.45777">
        <ele>169.2</ele>
        <time>2025-07-14T07:46:11Z</time>
      </trkpt>
      <trkpt lat="44.7312" lon="0.45773">
        <ele>169.4</ele>
        <time>2025-07-14T07:46:12Z</time>
      </trkpt>
      <trkpt lat="44.73123" lon="0.45769">
        <ele>169.4</ele>
        <time>2025-07-14T07:46:13Z</time>
      </trkpt>
      <trkpt lat="44.73126" lon="0.45766">
        <ele>169.4</ele>
        <time>2025-07-14T07:46:14Z</time>
      </trkpt>
      <trkpt lat="44.73129" lon="0.45764">
        <ele>169.6</ele>
        <time>2025-07-14T07:46:15Z</time>
      </trkpt>
      <trkpt lat="44.73133" lon="0.45761">
        <ele>169.6</ele>
        <time>2025-07-14T07:46:16Z</time>
      </trkpt>
      <trkpt lat="44.73136" lon="0.45758">
        <ele>169.6</ele>
        <time>2025-07-14T07:46:17Z</time>
      </trkpt>
      <trkpt lat="44.7314" lon="0.45754">
        <ele>169.8</ele>
        <time>2025-07-14T07:46:18Z</time>
      </trkpt>
      <trkpt lat="44.73144" lon="0.45752">
        <ele>169.8</ele>
        <time>2025-07-14T07:46:19Z</time>
      </trkpt>
      <trkpt lat="44.73147" lon="0.45749">
        <ele>169.8</ele>
        <time>2025-07-14T07:46:20Z</time>
      </trkpt>
      <trkpt lat="44.73151" lon="0.45746">
        <ele>169.8</ele>
        <time>2025-07-14T07:46:21Z</time>
      </trkpt>
      <trkpt lat="44.73155" lon="0.45743">
        <ele>170</ele>
        <time>2025-07-14T07:46:22Z</time>
      </trkpt>
      <trkpt lat="44.73158" lon="0.4574">
        <ele>170</ele>
        <time>2025-07-14T07:46:23Z</time>
      </trkpt>
      <trkpt lat="44.73161" lon="0.45737">
        <ele>170.2</ele>
        <time>2025-07-14T07:46:24Z</time>
      </trkpt>
      <trkpt lat="44.73165" lon="0.45734">
        <ele>170.2</ele>
        <time>2025-07-14T07:46:25Z</time>
      </trkpt>
      <trkpt lat="44.73168" lon="0.45732">
        <ele>170.2</ele>
        <time>2025-07-14T07:46:26Z</time>
      </trkpt>
      <trkpt lat="44.73172" lon="0.45729">
        <ele>170.2</ele>
        <time>2025-07-14T07:46:27Z</time>
      </trkpt>
      <trkpt lat="44.73175" lon="0.45726">
        <ele>170.4</ele>
        <time>2025-07-14T07:46:28Z</time>
      </trkpt>
      <trkpt lat="44.73178" lon="0.45724">
        <ele>170.4</ele>
        <time>2025-07-14T07:46:29Z</time>
      </trkpt>
      <trkpt lat="44.73181" lon="0.45721">
        <ele>170.6</ele>
        <time>2025-07-14T07:46:30Z</time>
      </trkpt>
      <trkpt lat="44.73185" lon="0.45719">
        <ele>170.6</ele>
        <time>2025-07-14T07:46:31Z</time>
      </trkpt>
      <trkpt lat="44.73189" lon="0.45718">
        <ele>170.8</ele>
        <time>2025-07-14T07:46:32Z</time>
      </trkpt>
      <trkpt lat="44.73193" lon="0.45719">
        <ele>170.8</ele>
        <time>2025-07-14T07:46:33Z</time>
      </trkpt>
      <trkpt lat="44.73195" lon="0.45722">
        <ele>171</ele>
        <time>2025-07-14T07:46:34Z</time>
      </trkpt>
      <trkpt lat="44.73197" lon="0.45725">
        <ele>171</ele>
        <time>2025-07-14T07:46:35Z</time>
      </trkpt>
      <trkpt lat="44.73199" lon="0.4573">
        <ele>171</ele>
        <time>2025-07-14T07:46:36Z</time>
      </trkpt>
      <trkpt lat="44.73202" lon="0.45737">
        <ele>171</ele>
        <time>2025-07-14T07:46:37Z</time>
      </trkpt>
      <trkpt lat="44.73205" lon="0.45744">
        <ele>170.8</ele>
        <time>2025-07-14T07:46:38Z</time>
      </trkpt>
      <trkpt lat="44.73209" lon="0.45752">
        <ele>170.4</ele>
        <time>2025-07-14T07:46:39Z</time>
      </trkpt>
      <trkpt lat="44.73213" lon="0.45762">
        <ele>169.8</ele>
        <time>2025-07-14T07:46:40Z</time>
      </trkpt>
      <trkpt lat="44.73216" lon="0.45773">
        <ele>169.4</ele>
        <time>2025-07-14T07:46:41Z</time>
      </trkpt>
      <trkpt lat="44.7322" lon="0.45784">
        <ele>168.6</ele>
        <time>2025-07-14T07:46:42Z</time>
      </trkpt>
      <trkpt lat="44.73224" lon="0.45796">
        <ele>167.6</ele>
        <time>2025-07-14T07:46:43Z</time>
      </trkpt>
      <trkpt lat="44.73228" lon="0.45809">
        <ele>166.8</ele>
        <time>2025-07-14T07:46:44Z</time>
      </trkpt>
      <trkpt lat="44.73232" lon="0.45823">
        <ele>166</ele>
        <time>2025-07-14T07:46:45Z</time>
      </trkpt>
      <trkpt lat="44.73236" lon="0.45837">
        <ele>164.2</ele>
        <time>2025-07-14T07:46:46Z</time>
      </trkpt>
      <trkpt lat="44.7324" lon="0.45852">
        <ele>162.8</ele>
        <time>2025-07-14T07:46:47Z</time>
      </trkpt>
      <trkpt lat="44.73244" lon="0.45868">
        <ele>161.4</ele>
        <time>2025-07-14T07:46:48Z</time>
      </trkpt>
      <trkpt lat="44.73248" lon="0.45884">
        <ele>160.2</ele>
        <time>2025-07-14T07:46:49Z</time>
      </trkpt>
      <trkpt lat="44.73252" lon="0.459">
        <ele>158.8</ele>
        <time>2025-07-14T07:46:50Z</time>
      </trkpt>
      <trkpt lat="44.73255" lon="0.45915">
        <ele>158</ele>
        <time>2025-07-14T07:46:51Z</time>
      </trkpt>
      <trkpt lat="44.73259" lon="0.45929">
        <ele>157</ele>
        <time>2025-07-14T07:46:52Z</time>
      </trkpt>
      <trkpt lat="44.73263" lon="0.45941">
        <ele>156</ele>
        <time>2025-07-14T07:46:53Z</time>
      </trkpt>
      <trkpt lat="44.73267" lon="0.4595">
        <ele>155</ele>
        <time>2025-07-14T07:46:54Z</time>
      </trkpt>
      <trkpt lat="44.73273" lon="0.45958">
        <ele>154</ele>
        <time>2025-07-14T07:46:55Z</time>
      </trkpt>
      <trkpt lat="44.7328" lon="0.45965">
        <ele>152.8</ele>
        <time>2025-07-14T07:46:56Z</time>
      </trkpt>
      <trkpt lat="44.73286" lon="0.45972">
        <ele>152.8</ele>
        <time>2025-07-14T07:46:57Z</time>
      </trkpt>
      <trkpt lat="44.73292" lon="0.45979">
        <ele>152.4</ele>
        <time>2025-07-14T07:46:58Z</time>
      </trkpt>
      <trkpt lat="44.73298" lon="0.45986">
        <ele>152</ele>
        <time>2025-07-14T07:46:59Z</time>
      </trkpt>
      <trkpt lat="44.73304" lon="0.45994">
        <ele>151.6</ele>
        <time>2025-07-14T07:47:00Z</time>
      </trkpt>
      <trkpt lat="44.7331" lon="0.46002">
        <ele>151</ele>
        <time>2025-07-14T07:47:01Z</time>
      </trkpt>
      <trkpt lat="44.73315" lon="0.4601">
        <ele>150.4</ele>
        <time>2025-07-14T07:47:02Z</time>
      </trkpt>
      <trkpt lat="44.73321" lon="0.46019">
        <ele>149.8</ele>
        <time>2025-07-14T07:47:03Z</time>
      </trkpt>
      <trkpt lat="44.73327" lon="0.46028">
        <ele>149.2</ele>
        <time>2025-07-14T07:47:04Z</time>
      </trkpt>
      <trkpt lat="44.73334" lon="0.46037">
        <ele>148.6</ele>
        <time>2025-07-14T07:47:05Z</time>
      </trkpt>
      <trkpt lat="44.7334" lon="0.46046">
        <ele>147.8</ele>
        <time>2025-07-14T07:47:06Z</time>
      </trkpt>
      <trkpt lat="44.73346" lon="0.46056">
        <ele>147.2</ele>
        <time>2025-07-14T07:47:07Z</time>
      </trkpt>
      <trkpt lat="44.73352" lon="0.46065">
        <ele>146.2</ele>
        <time>2025-07-14T07:47:08Z</time>
      </trkpt>
      <trkpt lat="44.7336" lon="0.46074">
        <ele>145.6</ele>
        <time>2025-07-14T07:47:09Z</time>
      </trkpt>
      <trkpt lat="44.73367" lon="0.46083">
        <ele>145.2</ele>
        <time>2025-07-14T07:47:10Z</time>
      </trkpt>
      <trkpt lat="44.73374" lon="0.46091">
        <ele>144.6</ele>
        <time>2025-07-14T07:47:11Z</time>
      </trkpt>
      <trkpt lat="44.73381" lon="0.46098">
        <ele>144</ele>
        <time>2025-07-14T07:47:12Z</time>
      </trkpt>
      <trkpt lat="44.73387" lon="0.46106">
        <ele>143.6</ele>
        <time>2025-07-14T07:47:13Z</time>
      </trkpt>
      <trkpt lat="44.73393" lon="0.46113">
        <ele>143.4</ele>
        <time>2025-07-14T07:47:14Z</time>
      </trkpt>
      <trkpt lat="44.734" lon="0.46119">
        <ele>143.2</ele>
        <time>2025-07-14T07:47:15Z</time>
      </trkpt>
      <trkpt lat="44.73406" lon="0.46125">
        <ele>143</ele>
        <time>2025-07-14T07:47:16Z</time>
      </trkpt>
      <trkpt lat="44.73411" lon="0.46131">
        <ele>143</ele>
        <time>2025-07-14T07:47:17Z</time>
      </trkpt>
      <trkpt lat="44.73418" lon="0.46137">
        <ele>142.8</ele>
        <time>2025-07-14T07:47:18Z</time>
      </trkpt>
      <trkpt lat="44.73424" lon="0.46142">
        <ele>142.6</ele>
        <time>2025-07-14T07:47:19Z</time>
      </trkpt>
      <trkpt lat="44.73431" lon="0.46146">
        <ele>142.6</ele>
        <time>2025-07-14T07:47:20Z</time>
      </trkpt>
      <trkpt lat="44.73439" lon="0.46151">
        <ele>142.4</ele>
        <time>2025-07-14T07:47:21Z</time>
      </trkpt>
      <trkpt lat="44.73446" lon="0.46156">
        <ele>141.8</ele>
        <time>2025-07-14T07:47:22Z</time>
      </trkpt>
      <trkpt lat="44.73453" lon="0.46162">
        <ele>141.4</ele>
        <time>2025-07-14T07:47:23Z</time>
      </trkpt>
      <trkpt lat="44.73459" lon="0.46168">
        <ele>141</ele>
        <time>2025-07-14T07:47:24Z</time>
      </trkpt>
      <trkpt lat="44.73463" lon="0.46172">
        <ele>140.6</ele>
        <time>2025-07-14T07:47:25Z</time>
      </trkpt>
      <trkpt lat="44.73467" lon="0.46176">
        <ele>140.2</ele>
        <time>2025-07-14T07:47:26Z</time>
      </trkpt>
      <trkpt lat="44.73469" lon="0.46181">
        <ele>140</ele>
        <time>2025-07-14T07:47:27Z</time>
      </trkpt>
      <trkpt lat="44.73471" lon="0.46186">
        <ele>139.8</ele>
        <time>2025-07-14T07:47:28Z</time>
      </trkpt>
      <trkpt lat="44.73474" lon="0.4619">
        <ele>139.6</ele>
        <time>2025-07-14T07:47:29Z</time>
      </trkpt>
      <trkpt lat="44.73476" lon="0.46194">
        <ele>139.4</ele>
        <time>2025-07-14T07:47:30Z</time>
      </trkpt>
      <trkpt lat="44.73479" lon="0.46198">
        <ele>139.2</ele>
        <time>2025-07-14T07:47:31Z</time>
      </trkpt>
      <trkpt lat="44.73483" lon="0.46202">
        <ele>138.8</ele>
        <time>2025-07-14T07:47:32Z</time>
      </trkpt>
      <trkpt lat="44.73487" lon="0.46206">
        <ele>138.4</ele>
        <time>2025-07-14T07:47:33Z</time>
      </trkpt>
      <trkpt lat="44.7349" lon="0.46212">
        <ele>138.2</ele>
        <time>2025-07-14T07:47:34Z</time>
      </trkpt>
      <trkpt lat="44.73493" lon="0.46218">
        <ele>138</ele>
        <time>2025-07-14T07:47:35Z</time>
      </trkpt>
      <trkpt lat="44.73496" lon="0.46225">
        <ele>137.6</ele>
        <time>2025-07-14T07:47:36Z</time>
      </trkpt>
      <trkpt lat="44.73499" lon="0.46231">
        <ele>137.4</ele>
        <time>2025-07-14T07:47:37Z</time>
      </trkpt>
      <trkpt lat="44.73502" lon="0.46238">
        <ele>137</ele>
        <time>2025-07-14T07:47:38Z</time>
      </trkpt>
      <trkpt lat="44.73505" lon="0.46246">
        <ele>136.6</ele>
        <time>2025-07-14T07:47:39Z</time>
      </trkpt>
      <trkpt lat="44.73508" lon="0.46254">
        <ele>136.2</ele>
        <time>2025-07-14T07:47:40Z</time>
      </trkpt>
      <trkpt lat="44.7351" lon="0.46263">
        <ele>136</ele>
        <time>2025-07-14T07:47:41Z</time>
      </trkpt>
      <trkpt lat="44.73512" lon="0.46272">
        <ele>135.4</ele>
        <time>2025-07-14T07:47:42Z</time>
      </trkpt>
      <trkpt lat="44.73515" lon="0.46282">
        <ele>135</ele>
        <time>2025-07-14T07:47:43Z</time>
      </trkpt>
      <trkpt lat="44.73517" lon="0.46293">
        <ele>134.6</ele>
        <time>2025-07-14T07:47:44Z</time>
      </trkpt>
      <trkpt lat="44.73519" lon="0.46303">
        <ele>134</ele>
        <time>2025-07-14T07:47:45Z</time>
      </trkpt>
      <trkpt lat="44.73521" lon="0.46313">
        <ele>133.6</ele>
        <time>2025-07-14T07:47:46Z</time>
      </trkpt>
      <trkpt lat="44.73524" lon="0.46323">
        <ele>133.2</ele>
        <time>2025-07-14T07:47:47Z</time>
      </trkpt>
      <trkpt lat="44.73526" lon="0.46333">
        <ele>132.8</ele>
        <time>2025-07-14T07:47:48Z</time>
      </trkpt>
      <trkpt lat="44.73529" lon="0.46343">
        <ele>132.4</ele>
        <time>2025-07-14T07:47:49Z</time>
      </trkpt>
      <trkpt lat="44.73531" lon="0.46353">
        <ele>132</ele>
        <time>2025-07-14T07:47:50Z</time>
      </trkpt>
      <trkpt lat="44.73533" lon="0.46362">
        <ele>131.8</ele>
        <time>2025-07-14T07:47:51Z</time>
      </trkpt>
      <trkpt lat="44.73535" lon="0.4637">
        <ele>131.6</ele>
        <time>2025-07-14T07:47:52Z</time>
      </trkpt>
      <trkpt lat="44.73537" lon="0.46377">
        <ele>131.4</ele>
        <time>2025-07-14T07:47:53Z</time>
      </trkpt>
      <trkpt lat="44.73539" lon="0.46384">
        <ele>131.4</ele>
        <time>2025-07-14T07:47:54Z</time>
      </trkpt>
      <trkpt lat="44.73542" lon="0.4639">
        <ele>131.2</ele>
        <time>2025-07-14T07:47:55Z</time>
      </trkpt>
      <trkpt lat="44.73545" lon="0.46395">
        <ele>131.4</ele>
        <time>2025-07-14T07:47:56Z</time>
      </trkpt>
      <trkpt lat="44.73549" lon="0.464">
        <ele>131.4</ele>
        <time>2025-07-14T07:47:57Z</time>
      </trkpt>
      <trkpt lat="44.73552" lon="0.46404">
        <ele>131.4</ele>
        <time>2025-07-14T07:47:58Z</time>
      </trkpt>
      <trkpt lat="44.73556" lon="0.46407">
        <ele>131.6</ele>
        <time>2025-07-14T07:47:59Z</time>
      </trkpt>
      <trkpt lat="44.73559" lon="0.46411">
        <ele>131.6</ele>
        <time>2025-07-14T07:48:00Z</time>
      </trkpt>
      <trkpt lat="44.73563" lon="0.46415">
        <ele>131.6</ele>
        <time>2025-07-14T07:48:01Z</time>
      </trkpt>
      <trkpt lat="44.73566" lon="0.46418">
        <ele>131.8</ele>
        <time>2025-07-14T07:48:02Z</time>
      </trkpt>
      <trkpt lat="44.7357" lon="0.46421">
        <ele>131.8</ele>
        <time>2025-07-14T07:48:03Z</time>
      </trkpt>
      <trkpt lat="44.73573" lon="0.46425">
        <ele>132</ele>
        <time>2025-07-14T07:48:04Z</time>
      </trkpt>
      <trkpt lat="44.73577" lon="0.46428">
        <ele>132.2</ele>
        <time>2025-07-14T07:48:05Z</time>
      </trkpt>
      <trkpt lat="44.7358" lon="0.4643">
        <ele>132.4</ele>
        <time>2025-07-14T07:48:06Z</time>
      </trkpt>
      <trkpt lat="44.73583" lon="0.46433">
        <ele>132.6</ele>
        <time>2025-07-14T07:48:07Z</time>
      </trkpt>
      <trkpt lat="44.73586" lon="0.46436">
        <ele>132.8</ele>
        <time>2025-07-14T07:48:08Z</time>
      </trkpt>
      <trkpt lat="44.73589" lon="0.46439">
        <ele>133</ele>
        <time>2025-07-14T07:48:09Z</time>
      </trkpt>
      <trkpt lat="44.73592" lon="0.46442">
        <ele>133.2</ele>
        <time>2025-07-14T07:48:10Z</time>
      </trkpt>
      <trkpt lat="44.73595" lon="0.46444">
        <ele>133.4</ele>
        <time>2025-07-14T07:48:11Z</time>
      </trkpt>
      <trkpt lat="44.73597" lon="0.46447">
        <ele>133.8</ele>
        <time>2025-07-14T07:48:12Z</time>
      </trkpt>
      <trkpt lat="44.736" lon="0.4645">
        <ele>134.2</ele>
        <time>2025-07-14T07:48:13Z</time>
      </trkpt>
      <trkpt lat="44.73602" lon="0.46452">
        <ele>134.4</ele>
        <time>2025-07-14T07:48:14Z</time>
      </trkpt>
      <trkpt lat="44.73605" lon="0.46454">
        <ele>134.6</ele>
        <time>2025-07-14T07:48:15Z</time>
      </trkpt>
      <trkpt lat="44.73607" lon="0.46456">
        <ele>134.6</ele>
        <time>2025-07-14T07:48:16Z</time>
      </trkpt>
      <trkpt lat="44.73609" lon="0.46458">
        <ele>134.6</ele>
        <time>2025-07-14T07:48:17Z</time>
      </trkpt>
      <trkpt lat="44.73611" lon="0.4646">
        <ele>134.8</ele>
        <time>2025-07-14T07:48:18Z</time>
      </trkpt>
      <trkpt lat="44.73614" lon="0.46462">
        <ele>135</ele>
        <time>2025-07-14T07:48:19Z</time>
      </trkpt>
      <trkpt lat="44.73616" lon="0.46464">
        <ele>135.2</ele>
        <time>2025-07-14T07:48:20Z</time>
      </trkpt>
      <trkpt lat="44.73618" lon="0.46466">
        <ele>135.4</ele>
        <time>2025-07-14T07:48:21Z</time>
      </trkpt>
      <trkpt lat="44.73621" lon="0.46468">
        <ele>135.6</ele>
        <time>2025-07-14T07:48:22Z</time>
      </trkpt>
      <trkpt lat="44.73623" lon="0.4647">
        <ele>135.6</ele>
        <time>2025-07-14T07:48:23Z</time>
      </trkpt>
      <trkpt lat="44.73625" lon="0.46473">
        <ele>135.6</ele>
        <time>2025-07-14T07:48:24Z</time>
      </trkpt>
      <trkpt lat="44.73627" lon="0.46475">
        <ele>135.6</ele>
        <time>2025-07-14T07:48:25Z</time>
      </trkpt>
      <trkpt lat="44.73629" lon="0.46478">
        <ele>136</ele>
        <time>2025-07-14T07:48:26Z</time>
      </trkpt>
      <trkpt lat="44.73631" lon="0.46481">
        <ele>136.2</ele>
        <time>2025-07-14T07:48:27Z</time>
      </trkpt>
      <trkpt lat="44.73633" lon="0.46483">
        <ele>136.4</ele>
        <time>2025-07-14T07:48:28Z</time>
      </trkpt>
      <trkpt lat="44.73635" lon="0.46486">
        <ele>136.8</ele>
        <time>2025-07-14T07:48:29Z</time>
      </trkpt>
      <trkpt lat="44.73637" lon="0.46489">
        <ele>137</ele>
        <time>2025-07-14T07:48:30Z</time>
      </trkpt>
      <trkpt lat="44.73638" lon="0.46491">
        <ele>137.2</ele>
        <time>2025-07-14T07:48:31Z</time>
      </trkpt>
      <trkpt lat="44.73639" lon="0.46493">
        <ele>137.4</ele>
        <time>2025-07-14T07:48:32Z</time>
      </trkpt>
      <trkpt lat="44.73641" lon="0.46495">
        <ele>137.6</ele>
        <time>2025-07-14T07:48:33Z</time>
      </trkpt>
      <trkpt lat="44.73642" lon="0.46497">
        <ele>137.8</ele>
        <time>2025-07-14T07:48:34Z</time>
      </trkpt>
      <trkpt lat="44.73644" lon="0.46498">
        <ele>138.2</ele>
        <time>2025-07-14T07:48:35Z</time>
      </trkpt>
      <trkpt lat="44.73645" lon="0.46501">
        <ele>138.6</ele>
        <time>2025-07-14T07:48:36Z</time>
      </trkpt>
      <trkpt lat="44.73646" lon="0.46503">
        <ele>138.8</ele>
        <time>2025-07-14T07:48:37Z</time>
      </trkpt>
      <trkpt lat="44.73648" lon="0.46505">
        <ele>139</ele>
        <time>2025-07-14T07:48:38Z</time>
      </trkpt>
      <trkpt lat="44.73649" lon="0.46508">
        <ele>139.4</ele>
        <time>2025-07-14T07:48:39Z</time>
      </trkpt>
      <trkpt lat="44.7365" lon="0.4651">
        <ele>139.6</ele>
        <time>2025-07-14T07:48:40Z</time>
      </trkpt>
      <trkpt lat="44.73652" lon="0.46513">
        <ele>139.8</ele>
        <time>2025-07-14T07:48:41Z</time>
      </trkpt>
      <trkpt lat="44.73653" lon="0.46515">
        <ele>140</ele>
        <time>2025-07-14T07:48:42Z</time>
      </trkpt>
      <trkpt lat="44.73654" lon="0.46518">
        <ele>140.2</ele>
        <time>2025-07-14T07:48:43Z</time>
      </trkpt>
      <trkpt lat="44.73655" lon="0.46521">
        <ele>140.4</ele>
        <time>2025-07-14T07:48:44Z</time>
      </trkpt>
      <trkpt lat="44.73657" lon="0.46523">
        <ele>140.6</ele>
        <time>2025-07-14T07:48:45Z</time>
      </trkpt>
      <trkpt lat="44.73658" lon="0.46525">
        <ele>140.8</ele>
        <time>2025-07-14T07:48:46Z</time>
      </trkpt>
      <trkpt lat="44.7366" lon="0.46527">
        <ele>141</ele>
        <time>2025-07-14T07:48:47Z</time>
      </trkpt>
      <trkpt lat="44.73662" lon="0.46529">
        <ele>141.2</ele>
        <time>2025-07-14T07:48:48Z</time>
      </trkpt>
      <trkpt lat="44.73664" lon="0.4653">
        <ele>141.2</ele>
        <time>2025-07-14T07:48:49Z</time>
      </trkpt>
      <trkpt lat="44.73666" lon="0.46532">
        <ele>141.4</ele>
        <time>2025-07-14T07:48:50Z</time>
      </trkpt>
      <trkpt lat="44.73669" lon="0.46533">
        <ele>141.6</ele>
        <time>2025-07-14T07:48:51Z</time>
      </trkpt>
      <trkpt lat="44.73671" lon="0.46534">
        <ele>141.8</ele>
        <time>2025-07-14T07:48:52Z</time>
      </trkpt>
      <trkpt lat="44.73674" lon="0.46535">
        <ele>141.8</ele>
        <time>2025-07-14T07:48:53Z</time>
      </trkpt>
      <trkpt lat="44.73676" lon="0.46536">
        <ele>141.8</ele>
        <time>2025-07-14T07:48:54Z</time>
      </trkpt>
      <trkpt lat="44.73678" lon="0.46537">
        <ele>142</ele>
        <time>2025-07-14T07:48:55Z</time>
      </trkpt>
      <trkpt lat="44.73681" lon="0.46537">
        <ele>142.2</ele>
        <time>2025-07-14T07:48:56Z</time>
      </trkpt>
      <trkpt lat="44.73683" lon="0.46537">
        <ele>142.2</ele>
        <time>2025-07-14T07:48:57Z</time>
      </trkpt>
      <trkpt lat="44.73685" lon="0.46537">
        <ele>142.4</ele>
        <time>2025-07-14T07:48:58Z</time>
      </trkpt>
      <trkpt lat="44.73688" lon="0.46538">
        <ele>142.4</ele>
        <time>2025-07-14T07:48:59Z</time>
      </trkpt>
      <trkpt lat="44.7369" lon="0.46538">
        <ele>142.4</ele>
        <time>2025-07-14T07:49:00Z</time>
      </trkpt>
      <trkpt lat="44.73693" lon="0.46539">
        <ele>142.4</ele>
        <time>2025-07-14T07:49:01Z</time>
      </trkpt>
      <trkpt lat="44.73696" lon="0.4654">
        <ele>142.6</ele>
        <time>2025-07-14T07:49:02Z</time>
      </trkpt>
      <trkpt lat="44.73699" lon="0.4654">
        <ele>142.6</ele>
        <time>2025-07-14T07:49:03Z</time>
      </trkpt>
      <trkpt lat="44.73701" lon="0.46541">
        <ele>142.8</ele>
        <time>2025-07-14T07:49:04Z</time>
      </trkpt>
      <trkpt lat="44.73705" lon="0.46542">
        <ele>142.8</ele>
        <time>2025-07-14T07:49:05Z</time>
      </trkpt>
      <trkpt lat="44.73708" lon="0.46543">
        <ele>143</ele>
        <time>2025-07-14T07:49:06Z</time>
      </trkpt>
      <trkpt lat="44.7371" lon="0.46543">
        <ele>143</ele>
        <time>2025-07-14T07:49:07Z</time>
      </trkpt>
      <trkpt lat="44.73713" lon="0.46545">
        <ele>143</ele>
        <time>2025-07-14T07:49:08Z</time>
      </trkpt>
      <trkpt lat="44.73716" lon="0.46546">
        <ele>143.2</ele>
        <time>2025-07-14T07:49:09Z</time>
      </trkpt>
      <trkpt lat="44.73719" lon="0.46547">
        <ele>143.2</ele>
        <time>2025-07-14T07:49:10Z</time>
      </trkpt>
      <trkpt lat="44.73722" lon="0.46548">
        <ele>143.4</ele>
        <time>2025-07-14T07:49:11Z</time>
      </trkpt>
      <trkpt lat="44.73725" lon="0.46549">
        <ele>143.4</ele>
        <time>2025-07-14T07:49:12Z</time>
      </trkpt>
      <trkpt lat="44.73727" lon="0.4655">
        <ele>143.6</ele>
        <time>2025-07-14T07:49:13Z</time>
      </trkpt>
      <trkpt lat="44.7373" lon="0.46551">
        <ele>143.6</ele>
        <time>2025-07-14T07:49:14Z</time>
      </trkpt>
      <trkpt lat="44.73733" lon="0.46551">
        <ele>143.8</ele>
        <time>2025-07-14T07:49:15Z</time>
      </trkpt>
      <trkpt lat="44.73736" lon="0.46551">
        <ele>143.8</ele>
        <time>2025-07-14T07:49:16Z</time>
      </trkpt>
      <trkpt lat="44.73739" lon="0.46552">
        <ele>143.8</ele>
        <time>2025-07-14T07:49:17Z</time>
      </trkpt>
      <trkpt lat="44.73742" lon="0.46553">
        <ele>144</ele>
        <time>2025-07-14T07:49:18Z</time>
      </trkpt>
      <trkpt lat="44.73744" lon="0.46554">
        <ele>144</ele>
        <time>2025-07-14T07:49:19Z</time>
      </trkpt>
      <trkpt lat="44.73747" lon="0.46556">
        <ele>144.2</ele>
        <time>2025-07-14T07:49:20Z</time>
      </trkpt>
      <trkpt lat="44.7375" lon="0.46557">
        <ele>144.4</ele>
        <time>2025-07-14T07:49:21Z</time>
      </trkpt>
      <trkpt lat="44.73753" lon="0.46558">
        <ele>144.4</ele>
        <time>2025-07-14T07:49:22Z</time>
      </trkpt>
      <trkpt lat="44.73756" lon="0.46559">
        <ele>144.6</ele>
        <time>2025-07-14T07:49:23Z</time>
      </trkpt>
      <trkpt lat="44.73759" lon="0.4656">
        <ele>144.8</ele>
        <time>2025-07-14T07:49:24Z</time>
      </trkpt>
      <trkpt lat="44.73762" lon="0.46561">
        <ele>145</ele>
        <time>2025-07-14T07:49:25Z</time>
      </trkpt>
      <trkpt lat="44.73765" lon="0.46562">
        <ele>145</ele>
        <time>2025-07-14T07:49:26Z</time>
      </trkpt>
      <trkpt lat="44.73768" lon="0.46563">
        <ele>145.2</ele>
        <time>2025-07-14T07:49:27Z</time>
      </trkpt>
      <trkpt lat="44.73771" lon="0.46564">
        <ele>145.4</ele>
        <time>2025-07-14T07:49:28Z</time>
      </trkpt>
      <trkpt lat="44.73774" lon="0.46565">
        <ele>145.4</ele>
        <time>2025-07-14T07:49:29Z</time>
      </trkpt>
      <trkpt lat="44.73777" lon="0.46566">
        <ele>145.6</ele>
        <time>2025-07-14T07:49:30Z</time>
      </trkpt>
      <trkpt lat="44.7378" lon="0.46568">
        <ele>145.6</ele>
        <time>2025-07-14T07:49:31Z</time>
      </trkpt>
      <trkpt lat="44.73784" lon="0.46569">
        <ele>145.8</ele>
        <time>2025-07-14T07:49:32Z</time>
      </trkpt>
      <trkpt lat="44.73787" lon="0.46571">
        <ele>145.8</ele>
        <time>2025-07-14T07:49:33Z</time>
      </trkpt>
      <trkpt lat="44.7379" lon="0.46572">
        <ele>146</ele>
        <time>2025-07-14T07:49:34Z</time>
      </trkpt>
      <trkpt lat="44.73793" lon="0.46573">
        <ele>146.2</ele>
        <time>2025-07-14T07:49:35Z</time>
      </trkpt>
      <trkpt lat="44.73796" lon="0.46574">
        <ele>146.2</ele>
        <time>2025-07-14T07:49:36Z</time>
      </trkpt>
      <trkpt lat="44.73799" lon="0.46576">
        <ele>146.4</ele>
        <time>2025-07-14T07:49:37Z</time>
      </trkpt>
      <trkpt lat="44.73802" lon="0.46577">
        <ele>146.6</ele>
        <time>2025-07-14T07:49:38Z</time>
      </trkpt>
      <trkpt lat="44.73805" lon="0.46578">
        <ele>146.8</ele>
        <time>2025-07-14T07:49:39Z</time>
      </trkpt>
      <trkpt lat="44.73808" lon="0.46579">
        <ele>146.8</ele>
        <time>2025-07-14T07:49:40Z</time>
      </trkpt>
      <trkpt lat="44.73811" lon="0.4658">
        <ele>147</ele>
        <time>2025-07-14T07:49:41Z</time>
      </trkpt>
      <trkpt lat="44.73814" lon="0.46581">
        <ele>147.2</ele>
        <time>2025-07-14T07:49:42Z</time>
      </trkpt>
      <trkpt lat="44.73817" lon="0.46582">
        <ele>147.4</ele>
        <time>2025-07-14T07:49:43Z</time>
      </trkpt>
      <trkpt lat="44.73819" lon="0.46583">
        <ele>147.4</ele>
        <time>2025-07-14T07:49:44Z</time>
      </trkpt>
      <trkpt lat="44.73822" lon="0.46584">
        <ele>147.6</ele>
        <time>2025-07-14T07:49:45Z</time>
      </trkpt>
      <trkpt lat="44.73825" lon="0.46585">
        <ele>147.8</ele>
        <time>2025-07-14T07:49:46Z</time>
      </trkpt>
      <trkpt lat="44.73828" lon="0.46586">
        <ele>147.8</ele>
        <time>2025-07-14T07:49:47Z</time>
      </trkpt>
      <trkpt lat="44.73831" lon="0.46587">
        <ele>148</ele>
        <time>2025-07-14T07:49:48Z</time>
      </trkpt>
      <trkpt lat="44.73834" lon="0.46588">
        <ele>148.2</ele>
        <time>2025-07-14T07:49:49Z</time>
      </trkpt>
      <trkpt lat="44.73837" lon="0.46588">
        <ele>148.2</ele>
        <time>2025-07-14T07:49:50Z</time>
      </trkpt>
      <trkpt lat="44.7384" lon="0.46589">
        <ele>148.4</ele>
        <time>2025-07-14T07:49:51Z</time>
      </trkpt>
      <trkpt lat="44.73843" lon="0.46589">
        <ele>148.6</ele>
        <time>2025-07-14T07:49:52Z</time>
      </trkpt>
      <trkpt lat="44.73846" lon="0.4659">
        <ele>148.8</ele>
        <time>2025-07-14T07:49:53Z</time>
      </trkpt>
      <trkpt lat="44.73849" lon="0.46591">
        <ele>148.8</ele>
        <time>2025-07-14T07:49:54Z</time>
      </trkpt>
      <trkpt lat="44.73852" lon="0.46592">
        <ele>149</ele>
        <time>2025-07-14T07:49:55Z</time>
      </trkpt>
      <trkpt lat="44.73855" lon="0.46594">
        <ele>149.2</ele>
        <time>2025-07-14T07:49:56Z</time>
      </trkpt>
      <trkpt lat="44.73857" lon="0.46596">
        <ele>149.2</ele>
        <time>2025-07-14T07:49:57Z</time>
      </trkpt>
      <trkpt lat="44.7386" lon="0.46598">
        <ele>149.4</ele>
        <time>2025-07-14T07:49:58Z</time>
      </trkpt>
      <trkpt lat="44.73862" lon="0.466">
        <ele>149.6</ele>
        <time>2025-07-14T07:49:59Z</time>
      </trkpt>
      <trkpt lat="44.73864" lon="0.46604">
        <ele>149.6</ele>
        <time>2025-07-14T07:50:00Z</time>
      </trkpt>
      <trkpt lat="44.73866" lon="0.46607">
        <ele>149.6</ele>
        <time>2025-07-14T07:50:01Z</time>
      </trkpt>
      <trkpt lat="44.73867" lon="0.46611">
        <ele>149.8</ele>
        <time>2025-07-14T07:50:02Z</time>
      </trkpt>
      <trkpt lat="44.73867" lon="0.46615">
        <ele>149.8</ele>
        <time>2025-07-14T07:50:03Z</time>
      </trkpt>
      <trkpt lat="44.73868" lon="0.4662">
        <ele>149.8</ele>
        <time>2025-07-14T07:50:04Z</time>
      </trkpt>
      <trkpt lat="44.73869" lon="0.46624">
        <ele>149.8</ele>
        <time>2025-07-14T07:50:05Z</time>
      </trkpt>
      <trkpt lat="44.7387" lon="0.46628">
        <ele>150</ele>
        <time>2025-07-14T07:50:06Z</time>
      </trkpt>
      <trkpt lat="44.73871" lon="0.46632">
        <ele>150</ele>
        <time>2025-07-14T07:50:07Z</time>
      </trkpt>
      <trkpt lat="44.73872" lon="0.46635">
        <ele>150.2</ele>
        <time>2025-07-14T07:50:08Z</time>
      </trkpt>
      <trkpt lat="44.73874" lon="0.46639">
        <ele>150.2</ele>
        <time>2025-07-14T07:50:09Z</time>
      </trkpt>
      <trkpt lat="44.73875" lon="0.46643">
        <ele>150.2</ele>
        <time>2025-07-14T07:50:10Z</time>
      </trkpt>
      <trkpt lat="44.73876" lon="0.46647">
        <ele>150.4</ele>
        <time>2025-07-14T07:50:11Z</time>
      </trkpt>
      <trkpt lat="44.73878" lon="0.4665">
        <ele>150.4</ele>
        <time>2025-07-14T07:50:12Z</time>
      </trkpt>
      <trkpt lat="44.7388" lon="0.46654">
        <ele>150.6</ele>
        <time>2025-07-14T07:50:13Z</time>
      </trkpt>
      <trkpt lat="44.73881" lon="0.46657">
        <ele>150.8</ele>
        <time>2025-07-14T07:50:14Z</time>
      </trkpt>
      <trkpt lat="44.73883" lon="0.46661">
        <ele>150.8</ele>
        <time>2025-07-14T07:50:15Z</time>
      </trkpt>
      <trkpt lat="44.73885" lon="0.46664">
        <ele>151</ele>
        <time>2025-07-14T07:50:16Z</time>
      </trkpt>
      <trkpt lat="44.73886" lon="0.46668">
        <ele>151</ele>
        <time>2025-07-14T07:50:17Z</time>
      </trkpt>
      <trkpt lat="44.73888" lon="0.46671">
        <ele>151.2</ele>
        <time>2025-07-14T07:50:18Z</time>
      </trkpt>
      <trkpt lat="44.7389" lon="0.46675">
        <ele>151.2</ele>
        <time>2025-07-14T07:50:19Z</time>
      </trkpt>
      <trkpt lat="44.73892" lon="0.46678">
        <ele>151.4</ele>
        <time>2025-07-14T07:50:20Z</time>
      </trkpt>
      <trkpt lat="44.73894" lon="0.46681">
        <ele>151.6</ele>
        <time>2025-07-14T07:50:21Z</time>
      </trkpt>
      <trkpt lat="44.73896" lon="0.46684">
        <ele>151.8</ele>
        <time>2025-07-14T07:50:22Z</time>
      </trkpt>
      <trkpt lat="44.73898" lon="0.46687">
        <ele>151.8</ele>
        <time>2025-07-14T07:50:23Z</time>
      </trkpt>
      <trkpt lat="44.739" lon="0.4669">
        <ele>152</ele>
        <time>2025-07-14T07:50:24Z</time>
      </trkpt>
      <trkpt lat="44.73902" lon="0.46693">
        <ele>152.2</ele>
        <time>2025-07-14T07:50:25Z</time>
      </trkpt>
      <trkpt lat="44.73904" lon="0.46696">
        <ele>152.4</ele>
        <time>2025-07-14T07:50:26Z</time>
      </trkpt>
      <trkpt lat="44.73906" lon="0.46699">
        <ele>152.6</ele>
        <time>2025-07-14T07:50:27Z</time>
      </trkpt>
      <trkpt lat="44.73909" lon="0.46702">
        <ele>152.8</ele>
        <time>2025-07-14T07:50:28Z</time>
      </trkpt>
      <trkpt lat="44.73911" lon="0.46705">
        <ele>153</ele>
        <time>2025-07-14T07:50:29Z</time>
      </trkpt>
      <trkpt lat="44.73913" lon="0.46707">
        <ele>153.2</ele>
        <time>2025-07-14T07:50:30Z</time>
      </trkpt>
      <trkpt lat="44.73915" lon="0.4671">
        <ele>153.4</ele>
        <time>2025-07-14T07:50:31Z</time>
      </trkpt>
      <trkpt lat="44.73917" lon="0.46713">
        <ele>153.8</ele>
        <time>2025-07-14T07:50:32Z</time>
      </trkpt>
      <trkpt lat="44.73919" lon="0.46716">
        <ele>154</ele>
        <time>2025-07-14T07:50:33Z</time>
      </trkpt>
      <trkpt lat="44.73921" lon="0.46718">
        <ele>154.2</ele>
        <time>2025-07-14T07:50:34Z</time>
      </trkpt>
      <trkpt lat="44.73923" lon="0.46721">
        <ele>154.4</ele>
        <time>2025-07-14T07:50:35Z</time>
      </trkpt>
      <trkpt lat="44.73925" lon="0.46724">
        <ele>154.6</ele>
        <time>2025-07-14T07:50:36Z</time>
      </trkpt>
      <trkpt lat="44.73927" lon="0.46727">
        <ele>154.8</ele>
        <time>2025-07-14T07:50:37Z</time>
      </trkpt>
      <trkpt lat="44.73929" lon="0.4673">
        <ele>155</ele>
        <time>2025-07-14T07:50:38Z</time>
      </trkpt>
      <trkpt lat="44.73932" lon="0.46733">
        <ele>155.2</ele>
        <time>2025-07-14T07:50:39Z</time>
      </trkpt>
      <trkpt lat="44.73934" lon="0.46735">
        <ele>155.4</ele>
        <time>2025-07-14T07:50:40Z</time>
      </trkpt>
      <trkpt lat="44.73936" lon="0.46738">
        <ele>155.6</ele>
        <time>2025-07-14T07:50:41Z</time>
      </trkpt>
      <trkpt lat="44.73938" lon="0.46741">
        <ele>155.8</ele>
        <time>2025-07-14T07:50:42Z</time>
      </trkpt>
      <trkpt lat="44.7394" lon="0.46744">
        <ele>156</ele>
        <time>2025-07-14T07:50:43Z</time>
      </trkpt>
      <trkpt lat="44.73943" lon="0.46747">
        <ele>156</ele>
        <time>2025-07-14T07:50:44Z</time>
      </trkpt>
      <trkpt lat="44.73945" lon="0.4675">
        <ele>156.2</ele>
        <time>2025-07-14T07:50:45Z</time>
      </trkpt>
      <trkpt lat="44.73948" lon="0.46754">
        <ele>156.4</ele>
        <time>2025-07-14T07:50:46Z</time>
      </trkpt>
      <trkpt lat="44.7395" lon="0.46757">
        <ele>156.4</ele>
        <time>2025-07-14T07:50:47Z</time>
      </trkpt>
      <trkpt lat="44.73953" lon="0.46761">
        <ele>156.4</ele>
        <time>2025-07-14T07:50:48Z</time>
      </trkpt>
      <trkpt lat="44.73956" lon="0.46764">
        <ele>156.6</ele>
        <time>2025-07-14T07:50:49Z</time>
      </trkpt>
      <trkpt lat="44.73959" lon="0.46768">
        <ele>156.6</ele>
        <time>2025-07-14T07:50:50Z</time>
      </trkpt>
      <trkpt lat="44.73962" lon="0.46772">
        <ele>156.8</ele>
        <time>2025-07-14T07:50:51Z</time>
      </trkpt>
      <trkpt lat="44.73965" lon="0.46777">
        <ele>156.8</ele>
        <time>2025-07-14T07:50:52Z</time>
      </trkpt>
      <trkpt lat="44.73969" lon="0.46782">
        <ele>156.8</ele>
        <time>2025-07-14T07:50:53Z</time>
      </trkpt>
      <trkpt lat="44.73972" lon="0.46786">
        <ele>156.8</ele>
        <time>2025-07-14T07:50:54Z</time>
      </trkpt>
      <trkpt lat="44.73976" lon="0.46792">
        <ele>156.6</ele>
        <time>2025-07-14T07:50:55Z</time>
      </trkpt>
      <trkpt lat="44.7398" lon="0.46797">
        <ele>156.6</ele>
        <time>2025-07-14T07:50:56Z</time>
      </trkpt>
      <trkpt lat="44.73985" lon="0.46804">
        <ele>156.4</ele>
        <time>2025-07-14T07:50:57Z</time>
      </trkpt>
      <trkpt lat="44.73991" lon="0.4681">
        <ele>156.2</ele>
        <time>2025-07-14T07:50:58Z</time>
      </trkpt>
      <trkpt lat="44.73997" lon="0.46816">
        <ele>155.8</ele>
        <time>2025-07-14T07:50:59Z</time>
      </trkpt>
      <trkpt lat="44.74003" lon="0.46824">
        <ele>155.6</ele>
        <time>2025-07-14T07:51:00Z</time>
      </trkpt>
      <trkpt lat="44.74009" lon="0.4683">
        <ele>155</ele>
        <time>2025-07-14T07:51:01Z</time>
      </trkpt>
      <trkpt lat="44.74016" lon="0.46837">
        <ele>154.4</ele>
        <time>2025-07-14T07:51:02Z</time>
      </trkpt>
      <trkpt lat="44.74023" lon="0.46844">
        <ele>153.8</ele>
        <time>2025-07-14T07:51:03Z</time>
      </trkpt>
      <trkpt lat="44.7403" lon="0.46851">
        <ele>153.2</ele>
        <time>2025-07-14T07:51:04Z</time>
      </trkpt>
      <trkpt lat="44.74038" lon="0.46857">
        <ele>152.4</ele>
        <time>2025-07-14T07:51:05Z</time>
      </trkpt>
      <trkpt lat="44.74045" lon="0.46864">
        <ele>151.6</ele>
        <time>2025-07-14T07:51:06Z</time>
      </trkpt>
      <trkpt lat="44.74053" lon="0.46871">
        <ele>150.8</ele>
        <time>2025-07-14T07:51:07Z</time>
      </trkpt>
      <trkpt lat="44.7406" lon="0.46876">
        <ele>150.4</ele>
        <time>2025-07-14T07:51:08Z</time>
      </trkpt>
      <trkpt lat="44.74068" lon="0.46881">
        <ele>149.8</ele>
        <time>2025-07-14T07:51:09Z</time>
      </trkpt>
      <trkpt lat="44.74076" lon="0.46887">
        <ele>149.2</ele>
        <time>2025-07-14T07:51:10Z</time>
      </trkpt>
      <trkpt lat="44.74084" lon="0.46892">
        <ele>148.6</ele>
        <time>2025-07-14T07:51:11Z</time>
      </trkpt>
      <trkpt lat="44.74092" lon="0.46897">
        <ele>148.2</ele>
        <time>2025-07-14T07:51:12Z</time>
      </trkpt>
      <trkpt lat="44.741" lon="0.46902">
        <ele>147.6</ele>
        <time>2025-07-14T07:51:13Z</time>
      </trkpt>
      <trkpt lat="44.74107" lon="0.46908">
        <ele>147.2</ele>
        <time>2025-07-14T07:51:14Z</time>
      </trkpt>
      <trkpt lat="44.74115" lon="0.46915">
        <ele>146.6</ele>
        <time>2025-07-14T07:51:15Z</time>
      </trkpt>
      <trkpt lat="44.74122" lon="0.46922">
        <ele>146.2</ele>
        <time>2025-07-14T07:51:16Z</time>
      </trkpt>
      <trkpt lat="44.74128" lon="0.46929">
        <ele>145.6</ele>
        <time>2025-07-14T07:51:17Z</time>
      </trkpt>
      <trkpt lat="44.74135" lon="0.46936">
        <ele>145.4</ele>
        <time>2025-07-14T07:51:18Z</time>
      </trkpt>
      <trkpt lat="44.74141" lon="0.46943">
        <ele>145</ele>
        <time>2025-07-14T07:51:19Z</time>
      </trkpt>
      <trkpt lat="44.74147" lon="0.4695">
        <ele>144.4</ele>
        <time>2025-07-14T07:51:20Z</time>
      </trkpt>
      <trkpt lat="44.74152" lon="0.46957">
        <ele>144.2</ele>
        <time>2025-07-14T07:51:21Z</time>
      </trkpt>
      <trkpt lat="44.74157" lon="0.46963">
        <ele>143.8</ele>
        <time>2025-07-14T07:51:22Z</time>
      </trkpt>
      <trkpt lat="44.74161" lon="0.46968">
        <ele>143.4</ele>
        <time>2025-07-14T07:51:23Z</time>
      </trkpt>
      <trkpt lat="44.74165" lon="0.46974">
        <ele>143.2</ele>
        <time>2025-07-14T07:51:24Z</time>
      </trkpt>
      <trkpt lat="44.7417" lon="0.46979">
        <ele>143.2</ele>
        <time>2025-07-14T07:51:25Z</time>
      </trkpt>
      <trkpt lat="44.74174" lon="0.46983">
        <ele>143.4</ele>
        <time>2025-07-14T07:51:26Z</time>
      </trkpt>
      <trkpt lat="44.74178" lon="0.46987">
        <ele>143.4</ele>
        <time>2025-07-14T07:51:27Z</time>
      </trkpt>
      <trkpt lat="44.74182" lon="0.46991">
        <ele>143.4</ele>
        <time>2025-07-14T07:51:28Z</time>
      </trkpt>
      <trkpt lat="44.74185" lon="0.46995">
        <ele>143.4</ele>
        <time>2025-07-14T07:51:29Z</time>
      </trkpt>
      <trkpt lat="44.74189" lon="0.47">
        <ele>143.4</ele>
        <time>2025-07-14T07:51:30Z</time>
      </trkpt>
      <trkpt lat="44.74193" lon="0.47003">
        <ele>143.2</ele>
        <time>2025-07-14T07:51:31Z</time>
      </trkpt>
      <trkpt lat="44.74197" lon="0.47006">
        <ele>143.2</ele>
        <time>2025-07-14T07:51:32Z</time>
      </trkpt>
      <trkpt lat="44.74201" lon="0.4701">
        <ele>143.4</ele>
        <time>2025-07-14T07:51:33Z</time>
      </trkpt>
      <trkpt lat="44.74205" lon="0.47015">
        <ele>143.4</ele>
        <time>2025-07-14T07:51:34Z</time>
      </trkpt>
      <trkpt lat="44.74209" lon="0.4702">
        <ele>143.6</ele>
        <time>2025-07-14T07:51:35Z</time>
      </trkpt>
      <trkpt lat="44.74213" lon="0.47024">
        <ele>143.6</ele>
        <time>2025-07-14T07:51:36Z</time>
      </trkpt>
      <trkpt lat="44.74217" lon="0.47028">
        <ele>143.4</ele>
        <time>2025-07-14T07:51:37Z</time>
      </trkpt>
      <trkpt lat="44.74222" lon="0.47031">
        <ele>143.4</ele>
        <time>2025-07-14T07:51:38Z</time>
      </trkpt>
      <trkpt lat="44.74226" lon="0.47035">
        <ele>143.4</ele>
        <time>2025-07-14T07:51:39Z</time>
      </trkpt>
      <trkpt lat="44.7423" lon="0.47038">
        <ele>143.4</ele>
        <time>2025-07-14T07:51:40Z</time>
      </trkpt>
      <trkpt lat="44.74235" lon="0.47042">
        <ele>143.4</ele>
        <time>2025-07-14T07:51:41Z</time>
      </trkpt>
      <trkpt lat="44.74238" lon="0.47047">
        <ele>143.4</ele>
        <time>2025-07-14T07:51:42Z</time>
      </trkpt>
      <trkpt lat="44.74242" lon="0.4705">
        <ele>143.6</ele>
        <time>2025-07-14T07:51:43Z</time>
      </trkpt>
      <trkpt lat="44.74246" lon="0.47053">
        <ele>143.4</ele>
        <time>2025-07-14T07:51:44Z</time>
      </trkpt>
      <trkpt lat="44.7425" lon="0.47057">
        <ele>143.2</ele>
        <time>2025-07-14T07:51:45Z</time>
      </trkpt>
      <trkpt lat="44.74254" lon="0.47061">
        <ele>143.2</ele>
        <time>2025-07-14T07:51:46Z</time>
      </trkpt>
      <trkpt lat="44.74257" lon="0.47065">
        <ele>143.2</ele>
        <time>2025-07-14T07:51:47Z</time>
      </trkpt>
      <trkpt lat="44.7426" lon="0.47069">
        <ele>143</ele>
        <time>2025-07-14T07:51:48Z</time>
      </trkpt>
      <trkpt lat="44.74263" lon="0.47073">
        <ele>142.8</ele>
        <time>2025-07-14T07:51:49Z</time>
      </trkpt>
      <trkpt lat="44.74264" lon="0.47076">
        <ele>142.8</ele>
        <time>2025-07-14T07:51:50Z</time>
      </trkpt>
      <trkpt lat="44.74266" lon="0.47079">
        <ele>142.6</ele>
        <time>2025-07-14T07:51:51Z</time>
      </trkpt>
      <trkpt lat="44.74266" lon="0.47082">
        <ele>142.4</ele>
        <time>2025-07-14T07:51:52Z</time>
      </trkpt>
      <trkpt lat="44.74266" lon="0.47083">
        <ele>142.4</ele>
        <time>2025-07-14T07:51:53Z</time>
      </trkpt>
      <trkpt lat="44.74266" lon="0.47083">
        <ele>142.2</ele>
        <time>2025-07-14T07:51:54Z</time>
      </trkpt>
      <trkpt lat="44.74266" lon="0.47083">
        <ele>142.2</ele>
        <time>2025-07-14T07:51:55Z</time>
      </trkpt>
      <trkpt lat="44.74268" lon="0.47086">
        <ele>141</ele>
        <time>2025-07-14T07:54:00Z</time>
      </trkpt>
      <trkpt lat="44.74267" lon="0.47089">
        <ele>141</ele>
        <time>2025-07-14T07:54:01Z</time>
      </trkpt>
      <trkpt lat="44.74267" lon="0.47092">
        <ele>141</ele>
        <time>2025-07-14T07:54:02Z</time>
      </trkpt>
      <trkpt lat="44.74265" lon="0.47095">
        <ele>141</ele>
        <time>2025-07-14T07:54:03Z</time>
      </trkpt>
      <trkpt lat="44.74264" lon="0.47098">
        <ele>141</ele>
        <time>2025-07-14T07:54:04Z</time>
      </trkpt>
      <trkpt lat="44.74262" lon="0.47102">
        <ele>141</ele>
        <time>2025-07-14T07:54:05Z</time>
      </trkpt>
      <trkpt lat="44.74261" lon="0.47106">
        <ele>141.2</ele>
        <time>2025-07-14T07:54:06Z</time>
      </trkpt>
      <trkpt lat="44.7426" lon="0.4711">
        <ele>141.4</ele>
        <time>2025-07-14T07:54:07Z</time>
      </trkpt>
      <trkpt lat="44.74259" lon="0.47113">
        <ele>141.6</ele>
        <time>2025-07-14T07:54:08Z</time>
      </trkpt>
      <trkpt lat="44.74258" lon="0.47117">
        <ele>141.8</ele>
        <time>2025-07-14T07:54:09Z</time>
      </trkpt>
      <trkpt lat="44.74256" lon="0.47121">
        <ele>141.8</ele>
        <time>2025-07-14T07:54:10Z</time>
      </trkpt>
      <trkpt lat="44.74255" lon="0.47125">
        <ele>142.2</ele>
        <time>2025-07-14T07:54:11Z</time>
      </trkpt>
      <trkpt lat="44.74253" lon="0.47129">
        <ele>142.2</ele>
        <time>2025-07-14T07:54:12Z</time>
      </trkpt>
      <trkpt lat="44.74251" lon="0.47133">
        <ele>142.4</ele>
        <time>2025-07-14T07:54:13Z</time>
      </trkpt>
      <trkpt lat="44.74249" lon="0.47137">
        <ele>142.6</ele>
        <time>2025-07-14T07:54:14Z</time>
      </trkpt>
      <trkpt lat="44.74247" lon="0.47141">
        <ele>142.8</ele>
        <time>2025-07-14T07:54:15Z</time>
      </trkpt>
      <trkpt lat="44.74245" lon="0.47145">
        <ele>142.8</ele>
        <time>2025-07-14T07:54:16Z</time>
      </trkpt>
      <trkpt lat="44.74243" lon="0.47149">
        <ele>143</ele>
        <time>2025-07-14T07:54:17Z</time>
      </trkpt>
      <trkpt lat="44.74241" lon="0.47153">
        <ele>143</ele>
        <time>2025-07-14T07:54:18Z</time>
      </trkpt>
      <trkpt lat="44.74239" lon="0.47157">
        <ele>143.2</ele>
        <time>2025-07-14T07:54:19Z</time>
      </trkpt>
      <trkpt lat="44.74237" lon="0.47161">
        <ele>143.2</ele>
        <time>2025-07-14T07:54:20Z</time>
      </trkpt>
      <trkpt lat="44.74235" lon="0.47164">
        <ele>143.4</ele>
        <time>2025-07-14T07:54:21Z</time>
      </trkpt>
      <trkpt lat="44.74233" lon="0.47168">
        <ele>143.4</ele>
        <time>2025-07-14T07:54:22Z</time>
      </trkpt>
      <trkpt lat="44.74231" lon="0.47172">
        <ele>143.4</ele>
        <time>2025-07-14T07:54:23Z</time>
      </trkpt>
      <trkpt lat="44.74228" lon="0.47176">
        <ele>143.6</ele>
        <time>2025-07-14T07:54:24Z</time>
      </trkpt>
      <trkpt lat="44.74226" lon="0.4718">
        <ele>143.6</ele>
        <time>2025-07-14T07:54:25Z</time>
      </trkpt>
      <trkpt lat="44.74224" lon="0.47184">
        <ele>143.6</ele>
        <time>2025-07-14T07:54:26Z</time>
      </trkpt>
      <trkpt lat="44.74221" lon="0.47188">
        <ele>143.6</ele>
        <time>2025-07-14T07:54:27Z</time>
      </trkpt>
      <trkpt lat="44.74219" lon="0.47192">
        <ele>143.8</ele>
        <time>2025-07-14T07:54:28Z</time>
      </trkpt>
      <trkpt lat="44.74216" lon="0.47196">
        <ele>143.8</ele>
        <time>2025-07-14T07:54:29Z</time>
      </trkpt>
      <trkpt lat="44.74214" lon="0.472">
        <ele>144</ele>
        <time>2025-07-14T07:54:30Z</time>
      </trkpt>
      <trkpt lat="44.74211" lon="0.47204">
        <ele>144</ele>
        <time>2025-07-14T07:54:31Z</time>
      </trkpt>
      <trkpt lat="44.74209" lon="0.47208">
        <ele>144</ele>
        <time>2025-07-14T07:54:32Z</time>
      </trkpt>
      <trkpt lat="44.74207" lon="0.47212">
        <ele>144.2</ele>
        <time>2025-07-14T07:54:33Z</time>
      </trkpt>
      <trkpt lat="44.74205" lon="0.47216">
        <ele>144.2</ele>
        <time>2025-07-14T07:54:34Z</time>
      </trkpt>
      <trkpt lat="44.74203" lon="0.4722">
        <ele>144.2</ele>
        <time>2025-07-14T07:54:35Z</time>
      </trkpt>
      <trkpt lat="44.742" lon="0.47224">
        <ele>144.2</ele>
        <time>2025-07-14T07:54:36Z</time>
      </trkpt>
      <trkpt lat="44.74198" lon="0.47228">
        <ele>144.4</ele>
        <time>2025-07-14T07:54:37Z</time>
      </trkpt>
      <trkpt lat="44.74197" lon="0.47232">
        <ele>144.4</ele>
        <time>2025-07-14T07:54:38Z</time>
      </trkpt>
      <trkpt lat="44.74195" lon="0.47237">
        <ele>144.6</ele>
        <time>2025-07-14T07:54:39Z</time>
      </trkpt>
      <trkpt lat="44.74193" lon="0.47241">
        <ele>144.8</ele>
        <time>2025-07-14T07:54:40Z</time>
      </trkpt>
      <trkpt lat="44.74192" lon="0.47245">
        <ele>144.8</ele>
        <time>2025-07-14T07:54:41Z</time>
      </trkpt>
      <trkpt lat="44.7419" lon="0.47249">
        <ele>145</ele>
        <time>2025-07-14T07:54:42Z</time>
      </trkpt>
      <trkpt lat="44.74189" lon="0.47253">
        <ele>145.2</ele>
        <time>2025-07-14T07:54:43Z</time>
      </trkpt>
      <trkpt lat="44.74188" lon="0.47256">
        <ele>145.4</ele>
        <time>2025-07-14T07:54:44Z</time>
      </trkpt>
      <trkpt lat="44.74187" lon="0.4726">
        <ele>145.4</ele>
        <time>2025-07-14T07:54:45Z</time>
      </trkpt>
      <trkpt lat="44.74185" lon="0.47264">
        <ele>145.6</ele>
        <time>2025-07-14T07:54:46Z</time>
      </trkpt>
      <trkpt lat="44.74184" lon="0.47268">
        <ele>145.8</ele>
        <time>2025-07-14T07:54:47Z</time>
      </trkpt>
      <trkpt lat="44.74183" lon="0.47272">
        <ele>145.8</ele>
        <time>2025-07-14T07:54:48Z</time>
      </trkpt>
      <trkpt lat="44.74182" lon="0.47275">
        <ele>146</ele>
        <time>2025-07-14T07:54:49Z</time>
      </trkpt>
      <trkpt lat="44.74181" lon="0.47278">
        <ele>146.2</ele>
        <time>2025-07-14T07:54:50Z</time>
      </trkpt>
      <trkpt lat="44.7418" lon="0.47282">
        <ele>146.4</ele>
        <time>2025-07-14T07:54:51Z</time>
      </trkpt>
      <trkpt lat="44.74178" lon="0.47285">
        <ele>146.6</ele>
        <time>2025-07-14T07:54:52Z</time>
      </trkpt>
      <trkpt lat="44.74177" lon="0.47288">
        <ele>146.8</ele>
        <time>2025-07-14T07:54:53Z</time>
      </trkpt>
      <trkpt lat="44.74176" lon="0.47291">
        <ele>147</ele>
        <time>2025-07-14T07:54:54Z</time>
      </trkpt>
      <trkpt lat="44.74175" lon="0.47294">
        <ele>147.2</ele>
        <time>2025-07-14T07:54:55Z</time>
      </trkpt>
      <trkpt lat="44.74174" lon="0.47297">
        <ele>147.4</ele>
        <time>2025-07-14T07:54:56Z</time>
      </trkpt>
      <trkpt lat="44.74173" lon="0.473">
        <ele>147.6</ele>
        <time>2025-07-14T07:54:57Z</time>
      </trkpt>
      <trkpt lat="44.74172" lon="0.47303">
        <ele>148</ele>
        <time>2025-07-14T07:54:58Z</time>
      </trkpt>
      <trkpt lat="44.74171" lon="0.47306">
        <ele>148</ele>
        <time>2025-07-14T07:54:59Z</time>
      </trkpt>
      <trkpt lat="44.7417" lon="0.47309">
        <ele>148.2</ele>
        <time>2025-07-14T07:55:00Z</time>
      </trkpt>
      <trkpt lat="44.74169" lon="0.47313">
        <ele>148.4</ele>
        <time>2025-07-14T07:55:01Z</time>
      </trkpt>
      <trkpt lat="44.74168" lon="0.47316">
        <ele>148.6</ele>
        <time>2025-07-14T07:55:02Z</time>
      </trkpt>
      <trkpt lat="44.74167" lon="0.47319">
        <ele>148.8</ele>
        <time>2025-07-14T07:55:03Z</time>
      </trkpt>
      <trkpt lat="44.74166" lon="0.47322">
        <ele>149</ele>
        <time>2025-07-14T07:55:04Z</time>
      </trkpt>
      <trkpt lat="44.74165" lon="0.47325">
        <ele>149.4</ele>
        <time>2025-07-14T07:55:05Z</time>
      </trkpt>
      <trkpt lat="44.74164" lon="0.47329">
        <ele>149.6</ele>
        <time>2025-07-14T07:55:06Z</time>
      </trkpt>
      <trkpt lat="44.74162" lon="0.47332">
        <ele>149.8</ele>
        <time>2025-07-14T07:55:07Z</time>
      </trkpt>
      <trkpt lat="44.74161" lon="0.47335">
        <ele>150</ele>
        <time>2025-07-14T07:55:08Z</time>
      </trkpt>
      <trkpt lat="44.7416" lon="0.47338">
        <ele>150.2</ele>
        <time>2025-07-14T07:55:09Z</time>
      </trkpt>
      <trkpt lat="44.74159" lon="0.47341">
        <ele>150.4</ele>
        <time>2025-07-14T07:55:10Z</time>
      </trkpt>
      <trkpt lat="44.74158" lon="0.47344">
        <ele>150.6</ele>
        <time>2025-07-14T07:55:11Z</time>
      </trkpt>
      <trkpt lat="44.74157" lon="0.47348">
        <ele>150.8</ele>
        <time>2025-07-14T07:55:12Z</time>
      </trkpt>
      <trkpt lat="44.74156" lon="0.47351">
        <ele>151</ele>
        <time>2025-07-14T07:55:13Z</time>
      </trkpt>
      <trkpt lat="44.74155" lon="0.47354">
        <ele>151.2</ele>
        <time>2025-07-14T07:55:14Z</time>
      </trkpt>
      <trkpt lat="44.74154" lon="0.47357">
        <ele>151.4</ele>
        <time>2025-07-14T07:55:15Z</time>
      </trkpt>
      <trkpt lat="44.74152" lon="0.4736">
        <ele>151.6</ele>
        <time>2025-07-14T07:55:16Z</time>
      </trkpt>
      <trkpt lat="44.74151" lon="0.47363">
        <ele>151.8</ele>
        <time>2025-07-14T07:55:17Z</time>
      </trkpt>
      <trkpt lat="44.7415" lon="0.47366">
        <ele>152</ele>
        <time>2025-07-14T07:55:18Z</time>
      </trkpt>
      <trkpt lat="44.74149" lon="0.47369">
        <ele>152.2</ele>
        <time>2025-07-14T07:55:19Z</time>
      </trkpt>
      <trkpt lat="44.74147" lon="0.47373">
        <ele>152.4</ele>
        <time>2025-07-14T07:55:20Z</time>
      </trkpt>
      <trkpt lat="44.74146" lon="0.47376">
        <ele>152.6</ele>
        <time>2025-07-14T07:55:21Z</time>
      </trkpt>
      <trkpt lat="44.74144" lon="0.47379">
        <ele>152.8</ele>
        <time>2025-07-14T07:55:22Z</time>
      </trkpt>
      <trkpt lat="44.74142" lon="0.47382">
        <ele>153</ele>
        <time>2025-07-14T07:55:23Z</time>
      </trkpt>
      <trkpt lat="44.7414" lon="0.47385">
        <ele>153.2</ele>
        <time>2025-07-14T07:55:24Z</time>
      </trkpt>
      <trkpt lat="44.74139" lon="0.47389">
        <ele>153.2</ele>
        <time>2025-07-14T07:55:25Z</time>
      </trkpt>
      <trkpt lat="44.74137" lon="0.47392">
        <ele>153.4</ele>
        <time>2025-07-14T07:55:26Z</time>
      </trkpt>
      <trkpt lat="44.74135" lon="0.47396">
        <ele>153.4</ele>
        <time>2025-07-14T07:55:27Z</time>
      </trkpt>
      <trkpt lat="44.74133" lon="0.474">
        <ele>153.4</ele>
        <time>2025-07-14T07:55:28Z</time>
      </trkpt>
      <trkpt lat="44.74131" lon="0.47404">
        <ele>153.6</ele>
        <time>2025-07-14T07:55:29Z</time>
      </trkpt>
      <trkpt lat="44.74129" lon="0.47408">
        <ele>153.6</ele>
        <time>2025-07-14T07:55:30Z</time>
      </trkpt>
      <trkpt lat="44.74127" lon="0.47413">
        <ele>153.6</ele>
        <time>2025-07-14T07:55:31Z</time>
      </trkpt>
      <trkpt lat="44.74125" lon="0.47417">
        <ele>153.6</ele>
        <time>2025-07-14T07:55:32Z</time>
      </trkpt>
      <trkpt lat="44.74123" lon="0.47422">
        <ele>153.6</ele>
        <time>2025-07-14T07:55:33Z</time>
      </trkpt>
      <trkpt lat="44.74121" lon="0.47426">
        <ele>153.6</ele>
        <time>2025-07-14T07:55:34Z</time>
      </trkpt>
      <trkpt lat="44.74119" lon="0.4743">
        <ele>153.8</ele>
        <time>2025-07-14T07:55:35Z</time>
      </trkpt>
      <trkpt lat="44.74116" lon="0.47434">
        <ele>153.8</ele>
        <time>2025-07-14T07:55:36Z</time>
      </trkpt>
      <trkpt lat="44.74113" lon="0.47436">
        <ele>153.8</ele>
        <time>2025-07-14T07:55:37Z</time>
      </trkpt>
      <trkpt lat="44.7411" lon="0.47435">
        <ele>153.8</ele>
        <time>2025-07-14T07:55:38Z</time>
      </trkpt>
      <trkpt lat="44.74107" lon="0.47433">
        <ele>153.8</ele>
        <time>2025-07-14T07:55:39Z</time>
      </trkpt>
      <trkpt lat="44.74103" lon="0.47432">
        <ele>154</ele>
        <time>2025-07-14T07:55:40Z</time>
      </trkpt>
      <trkpt lat="44.741" lon="0.47431">
        <ele>154</ele>
        <time>2025-07-14T07:55:41Z</time>
      </trkpt>
      <trkpt lat="44.74097" lon="0.47429">
        <ele>154</ele>
        <time>2025-07-14T07:55:42Z</time>
      </trkpt>
      <trkpt lat="44.74093" lon="0.47427">
        <ele>154</ele>
        <time>2025-07-14T07:55:43Z</time>
      </trkpt>
      <trkpt lat="44.7409" lon="0.47424">
        <ele>154</ele>
        <time>2025-07-14T07:55:44Z</time>
      </trkpt>
      <trkpt lat="44.74087" lon="0.47421">
        <ele>154</ele>
        <time>2025-07-14T07:55:45Z</time>
      </trkpt>
      <trkpt lat="44.74084" lon="0.47417">
        <ele>154.2</ele>
        <time>2025-07-14T07:55:46Z</time>
      </trkpt>
      <trkpt lat="44.74082" lon="0.47413">
        <ele>154</ele>
        <time>2025-07-14T07:55:47Z</time>
      </trkpt>
      <trkpt lat="44.74079" lon="0.47409">
        <ele>154</ele>
        <time>2025-07-14T07:55:48Z</time>
      </trkpt>
      <trkpt lat="44.74076" lon="0.47403">
        <ele>154</ele>
        <time>2025-07-14T07:55:49Z</time>
      </trkpt>
      <trkpt lat="44.74072" lon="0.474">
        <ele>153.8</ele>
        <time>2025-07-14T07:55:50Z</time>
      </trkpt>
      <trkpt lat="44.74069" lon="0.474">
        <ele>153.8</ele>
        <time>2025-07-14T07:55:51Z</time>
      </trkpt>
      <trkpt lat="44.74065" lon="0.47402">
        <ele>153.8</ele>
        <time>2025-07-14T07:55:52Z</time>
      </trkpt>
      <trkpt lat="44.74062" lon="0.47405">
        <ele>153.8</ele>
        <time>2025-07-14T07:55:53Z</time>
      </trkpt>
      <trkpt lat="44.7406" lon="0.47408">
        <ele>153.8</ele>
        <time>2025-07-14T07:55:54Z</time>
      </trkpt>
      <trkpt lat="44.74057" lon="0.47411">
        <ele>153.8</ele>
        <time>2025-07-14T07:55:55Z</time>
      </trkpt>
      <trkpt lat="44.74054" lon="0.47414">
        <ele>154</ele>
        <time>2025-07-14T07:55:56Z</time>
      </trkpt>
      <trkpt lat="44.74051" lon="0.47417">
        <ele>154</ele>
        <time>2025-07-14T07:55:57Z</time>
      </trkpt>
      <trkpt lat="44.74049" lon="0.47421">
        <ele>154.2</ele>
        <time>2025-07-14T07:55:58Z</time>
      </trkpt>
      <trkpt lat="44.74046" lon="0.47425">
        <ele>154.2</ele>
        <time>2025-07-14T07:55:59Z</time>
      </trkpt>
      <trkpt lat="44.74044" lon="0.47428">
        <ele>154.4</ele>
        <time>2025-07-14T07:56:00Z</time>
      </trkpt>
      <trkpt lat="44.74041" lon="0.47431">
        <ele>154.4</ele>
        <time>2025-07-14T07:56:01Z</time>
      </trkpt>
      <trkpt lat="44.74039" lon="0.47435">
        <ele>154.6</ele>
        <time>2025-07-14T07:56:02Z</time>
      </trkpt>
      <trkpt lat="44.74036" lon="0.47438">
        <ele>154.8</ele>
        <time>2025-07-14T07:56:03Z</time>
      </trkpt>
      <trkpt lat="44.74034" lon="0.47441">
        <ele>154.8</ele>
        <time>2025-07-14T07:56:04Z</time>
      </trkpt>
      <trkpt lat="44.74032" lon="0.47444">
        <ele>155</ele>
        <time>2025-07-14T07:56:05Z</time>
      </trkpt>
      <trkpt lat="44.74029" lon="0.47447">
        <ele>155.4</ele>
        <time>2025-07-14T07:56:06Z</time>
      </trkpt>
      <trkpt lat="44.74027" lon="0.47451">
        <ele>155.6</ele>
        <time>2025-07-14T07:56:07Z</time>
      </trkpt>
      <trkpt lat="44.74025" lon="0.47454">
        <ele>155.8</ele>
        <time>2025-07-14T07:56:08Z</time>
      </trkpt>
      <trkpt lat="44.74022" lon="0.47457">
        <ele>156</ele>
        <time>2025-07-14T07:56:09Z</time>
      </trkpt>
      <trkpt lat="44.7402" lon="0.4746">
        <ele>156.2</ele>
        <time>2025-07-14T07:56:10Z</time>
      </trkpt>
      <trkpt lat="44.74018" lon="0.47463">
        <ele>156.4</ele>
        <time>2025-07-14T07:56:11Z</time>
      </trkpt>
      <trkpt lat="44.74015" lon="0.47465">
        <ele>156.6</ele>
        <time>2025-07-14T07:56:12Z</time>
      </trkpt>
      <trkpt lat="44.74013" lon="0.47468">
        <ele>156.8</ele>
        <time>2025-07-14T07:56:13Z</time>
      </trkpt>
      <trkpt lat="44.74011" lon="0.47471">
        <ele>157</ele>
        <time>2025-07-14T07:56:14Z</time>
      </trkpt>
      <trkpt lat="44.74008" lon="0.47474">
        <ele>157.2</ele>
        <time>2025-07-14T07:56:15Z</time>
      </trkpt>
      <trkpt lat="44.74006" lon="0.47476">
        <ele>157.4</ele>
        <time>2025-07-14T07:56:16Z</time>
      </trkpt>
      <trkpt lat="44.74004" lon="0.4748">
        <ele>157.4</ele>
        <time>2025-07-14T07:56:17Z</time>
      </trkpt>
      <trkpt lat="44.74001" lon="0.47483">
        <ele>157.6</ele>
        <time>2025-07-14T07:56:18Z</time>
      </trkpt>
      <trkpt lat="44.73999" lon="0.47486">
        <ele>157.8</ele>
        <time>2025-07-14T07:56:19Z</time>
      </trkpt>
      <trkpt lat="44.73998" lon="0.4749">
        <ele>158</ele>
        <time>2025-07-14T07:56:20Z</time>
      </trkpt>
      <trkpt lat="44.73996" lon="0.47493">
        <ele>158</ele>
        <time>2025-07-14T07:56:21Z</time>
      </trkpt>
      <trkpt lat="44.73995" lon="0.47497">
        <ele>158.2</ele>
        <time>2025-07-14T07:56:22Z</time>
      </trkpt>
      <trkpt lat="44.73993" lon="0.47502">
        <ele>158.4</ele>
        <time>2025-07-14T07:56:23Z</time>
      </trkpt>
      <trkpt lat="44.73992" lon="0.47506">
        <ele>158.4</ele>
        <time>2025-07-14T07:56:24Z</time>
      </trkpt>
      <trkpt lat="44.7399" lon="0.4751">
        <ele>158.6</ele>
        <time>2025-07-14T07:56:25Z</time>
      </trkpt>
      <trkpt lat="44.73989" lon="0.47515">
        <ele>158.6</ele>
        <time>2025-07-14T07:56:26Z</time>
      </trkpt>
      <trkpt lat="44.73987" lon="0.47519">
        <ele>158.6</ele>
        <time>2025-07-14T07:56:27Z</time>
      </trkpt>
      <trkpt lat="44.73986" lon="0.47524">
        <ele>158.6</ele>
        <time>2025-07-14T07:56:28Z</time>
      </trkpt>
      <trkpt lat="44.73985" lon="0.47528">
        <ele>158.6</ele>
        <time>2025-07-14T07:56:29Z</time>
      </trkpt>
      <trkpt lat="44.73983" lon="0.47533">
        <ele>158.8</ele>
        <time>2025-07-14T07:56:30Z</time>
      </trkpt>
      <trkpt lat="44.73982" lon="0.47538">
        <ele>158.8</ele>
        <time>2025-07-14T07:56:31Z</time>
      </trkpt>
      <trkpt lat="44.73981" lon="0.47542">
        <ele>158.8</ele>
        <time>2025-07-14T07:56:32Z</time>
      </trkpt>
      <trkpt lat="44.7398" lon="0.47546">
        <ele>159</ele>
        <time>2025-07-14T07:56:33Z</time>
      </trkpt>
      <trkpt lat="44.73979" lon="0.4755">
        <ele>159.2</ele>
        <time>2025-07-14T07:56:34Z</time>
      </trkpt>
      <trkpt lat="44.73977" lon="0.47555">
        <ele>159.2</ele>
        <time>2025-07-14T07:56:35Z</time>
      </trkpt>
      <trkpt lat="44.73976" lon="0.47559">
        <ele>159.4</ele>
        <time>2025-07-14T07:56:36Z</time>
      </trkpt>
      <trkpt lat="44.73974" lon="0.47564">
        <ele>159.4</ele>
        <time>2025-07-14T07:56:37Z</time>
      </trkpt>
      <trkpt lat="44.73973" lon="0.47569">
        <ele>159.4</ele>
        <time>2025-07-14T07:56:38Z</time>
      </trkpt>
      <trkpt lat="44.73971" lon="0.47574">
        <ele>159.4</ele>
        <time>2025-07-14T07:56:39Z</time>
      </trkpt>
      <trkpt lat="44.73969" lon="0.4758">
        <ele>159.4</ele>
        <time>2025-07-14T07:56:40Z</time>
      </trkpt>
      <trkpt lat="44.73968" lon="0.47585">
        <ele>159.4</ele>
        <time>2025-07-14T07:56:41Z</time>
      </trkpt>
      <trkpt lat="44.73966" lon="0.47591">
        <ele>159.4</ele>
        <time>2025-07-14T07:56:42Z</time>
      </trkpt>
      <trkpt lat="44.73964" lon="0.47596">
        <ele>159.4</ele>
        <time>2025-07-14T07:56:43Z</time>
      </trkpt>
      <trkpt lat="44.73963" lon="0.47602">
        <ele>159.2</ele>
        <time>2025-07-14T07:56:44Z</time>
      </trkpt>
      <trkpt lat="44.73961" lon="0.47609">
        <ele>159.2</ele>
        <time>2025-07-14T07:56:45Z</time>
      </trkpt>
      <trkpt lat="44.7396" lon="0.47614">
        <ele>159</ele>
        <time>2025-07-14T07:56:46Z</time>
      </trkpt>
      <trkpt lat="44.73958" lon="0.4762">
        <ele>159</ele>
        <time>2025-07-14T07:56:47Z</time>
      </trkpt>
      <trkpt lat="44.73956" lon="0.47626">
        <ele>158.8</ele>
        <time>2025-07-14T07:56:48Z</time>
      </trkpt>
      <trkpt lat="44.73954" lon="0.47632">
        <ele>158.8</ele>
        <time>2025-07-14T07:56:49Z</time>
      </trkpt>
      <trkpt lat="44.73952" lon="0.47638">
        <ele>158.8</ele>
        <time>2025-07-14T07:56:50Z</time>
      </trkpt>
      <trkpt lat="44.7395" lon="0.47644">
        <ele>158.8</ele>
        <time>2025-07-14T07:56:51Z</time>
      </trkpt>
      <trkpt lat="44.73948" lon="0.4765">
        <ele>158.8</ele>
        <time>2025-07-14T07:56:52Z</time>
      </trkpt>
      <trkpt lat="44.73947" lon="0.47656">
        <ele>158.8</ele>
        <time>2025-07-14T07:56:53Z</time>
      </trkpt>
      <trkpt lat="44.73946" lon="0.47663">
        <ele>158.8</ele>
        <time>2025-07-14T07:56:54Z</time>
      </trkpt>
      <trkpt lat="44.73946" lon="0.4767">
        <ele>158.8</ele>
        <time>2025-07-14T07:56:55Z</time>
      </trkpt>
      <trkpt lat="44.73947" lon="0.47679">
        <ele>158.8</ele>
        <time>2025-07-14T07:56:56Z</time>
      </trkpt>
      <trkpt lat="44.73949" lon="0.47687">
        <ele>158.6</ele>
        <time>2025-07-14T07:56:57Z</time>
      </trkpt>
      <trkpt lat="44.73952" lon="0.47696">
        <ele>158.4</ele>
        <time>2025-07-14T07:56:58Z</time>
      </trkpt>
      <trkpt lat="44.73955" lon="0.47706">
        <ele>157.8</ele>
        <time>2025-07-14T07:56:59Z</time>
      </trkpt>
      <trkpt lat="44.73959" lon="0.47717">
        <ele>157.4</ele>
        <time>2025-07-14T07:57:00Z</time>
      </trkpt>
      <trkpt lat="44.73963" lon="0.47727">
        <ele>156.6</ele>
        <time>2025-07-14T07:57:01Z</time>
      </trkpt>
      <trkpt lat="44.73968" lon="0.47738">
        <ele>156</ele>
        <time>2025-07-14T07:57:02Z</time>
      </trkpt>
      <trkpt lat="44.73972" lon="0.47747">
        <ele>155.2</ele>
        <time>2025-07-14T07:57:03Z</time>
      </trkpt>
      <trkpt lat="44.73977" lon="0.47757">
        <ele>154.6</ele>
        <time>2025-07-14T07:57:04Z</time>
      </trkpt>
      <trkpt lat="44.73981" lon="0.47767">
        <ele>154</ele>
        <time>2025-07-14T07:57:05Z</time>
      </trkpt>
      <trkpt lat="44.73986" lon="0.47776">
        <ele>153.6</ele>
        <time>2025-07-14T07:57:06Z</time>
      </trkpt>
      <trkpt lat="44.7399" lon="0.47785">
        <ele>153.2</ele>
        <time>2025-07-14T07:57:07Z</time>
      </trkpt>
      <trkpt lat="44.73995" lon="0.47793">
        <ele>153</ele>
        <time>2025-07-14T07:57:08Z</time>
      </trkpt>
      <trkpt lat="44.73999" lon="0.47801">
        <ele>152.8</ele>
        <time>2025-07-14T07:57:09Z</time>
      </trkpt>
      <trkpt lat="44.74004" lon="0.47808">
        <ele>152.8</ele>
        <time>2025-07-14T07:57:10Z</time>
      </trkpt>
      <trkpt lat="44.74009" lon="0.47815">
        <ele>152.6</ele>
        <time>2025-07-14T07:57:11Z</time>
      </trkpt>
      <trkpt lat="44.74014" lon="0.47822">
        <ele>152.6</ele>
        <time>2025-07-14T07:57:12Z</time>
      </trkpt>
      <trkpt lat="44.74018" lon="0.47828">
        <ele>152.4</ele>
        <time>2025-07-14T07:57:13Z</time>
      </trkpt>
      <trkpt lat="44.74022" lon="0.47833">
        <ele>152.2</ele>
        <time>2025-07-14T07:57:14Z</time>
      </trkpt>
      <trkpt lat="44.74024" lon="0.47837">
        <ele>152</ele>
        <time>2025-07-14T07:57:15Z</time>
      </trkpt>
      <trkpt lat="44.74025" lon="0.47841">
        <ele>151.6</ele>
        <time>2025-07-14T07:57:16Z</time>
      </trkpt>
      <trkpt lat="44.74025" lon="0.47846">
        <ele>151.4</ele>
        <time>2025-07-14T07:57:17Z</time>
      </trkpt>
      <trkpt lat="44.74024" lon="0.47851">
        <ele>151.2</ele>
        <time>2025-07-14T07:57:18Z</time>
      </trkpt>
      <trkpt lat="44.74025" lon="0.47856">
        <ele>151</ele>
        <time>2025-07-14T07:57:19Z</time>
      </trkpt>
      <trkpt lat="44.74025" lon="0.47861">
        <ele>150.6</ele>
        <time>2025-07-14T07:57:20Z</time>
      </trkpt>
      <trkpt lat="44.74024" lon="0.47865">
        <ele>150.4</ele>
        <time>2025-07-14T07:57:21Z</time>
      </trkpt>
      <trkpt lat="44.74022" lon="0.4787">
        <ele>150.4</ele>
        <time>2025-07-14T07:57:22Z</time>
      </trkpt>
      <trkpt lat="44.7402" lon="0.47874">
        <ele>150.4</ele>
        <time>2025-07-14T07:57:23Z</time>
      </trkpt>
      <trkpt lat="44.74017" lon="0.47877">
        <ele>150.2</ele>
        <time>2025-07-14T07:57:24Z</time>
      </trkpt>
      <trkpt lat="44.74014" lon="0.47881">
        <ele>150.4</ele>
        <time>2025-07-14T07:57:25Z</time>
      </trkpt>
      <trkpt lat="44.74011" lon="0.47884">
        <ele>150.4</ele>
        <time>2025-07-14T07:57:26Z</time>
      </trkpt>
      <trkpt lat="44.74009" lon="0.47888">
        <ele>150.4</ele>
        <time>2025-07-14T07:57:27Z</time>
      </trkpt>
      <trkpt lat="44.74006" lon="0.47891">
        <ele>150.6</ele>
        <time>2025-07-14T07:57:28Z</time>
      </trkpt>
      <trkpt lat="44.74004" lon="0.47895">
        <ele>150.8</ele>
        <time>2025-07-14T07:57:29Z</time>
      </trkpt>
      <trkpt lat="44.74002" lon="0.47898">
        <ele>151</ele>
        <time>2025-07-14T07:57:30Z</time>
      </trkpt>
      <trkpt lat="44.74" lon="0.47901">
        <ele>151.2</ele>
        <time>2025-07-14T07:57:31Z</time>
      </trkpt>
      <trkpt lat="44.73997" lon="0.47904">
        <ele>151.4</ele>
        <time>2025-07-14T07:57:32Z</time>
      </trkpt>
      <trkpt lat="44.73995" lon="0.47907">
        <ele>151.6</ele>
        <time>2025-07-14T07:57:33Z</time>
      </trkpt>
      <trkpt lat="44.73993" lon="0.47911">
        <ele>151.8</ele>
        <time>2025-07-14T07:57:34Z</time>
      </trkpt>
      <trkpt lat="44.73991" lon="0.47914">
        <ele>152.2</ele>
        <time>2025-07-14T07:57:35Z</time>
      </trkpt>
      <trkpt lat="44.73989" lon="0.47918">
        <ele>152.4</ele>
        <time>2025-07-14T07:57:36Z</time>
      </trkpt>
      <trkpt lat="44.73987" lon="0.47923">
        <ele>152.6</ele>
        <time>2025-07-14T07:57:37Z</time>
      </trkpt>
      <trkpt lat="44.73986" lon="0.47928">
        <ele>152.8</ele>
        <time>2025-07-14T07:57:38Z</time>
      </trkpt>
      <trkpt lat="44.73986" lon="0.47933">
        <ele>153</ele>
        <time>2025-07-14T07:57:39Z</time>
      </trkpt>
      <trkpt lat="44.73987" lon="0.47938">
        <ele>153</ele>
        <time>2025-07-14T07:57:40Z</time>
      </trkpt>
      <trkpt lat="44.73989" lon="0.47942">
        <ele>153.2</ele>
        <time>2025-07-14T07:57:41Z</time>
      </trkpt>
      <trkpt lat="44.7399" lon="0.47946">
        <ele>153.2</ele>
        <time>2025-07-14T07:57:42Z</time>
      </trkpt>
      <trkpt lat="44.73992" lon="0.47951">
        <ele>153.4</ele>
        <time>2025-07-14T07:57:43Z</time>
      </trkpt>
      <trkpt lat="44.73993" lon="0.47955">
        <ele>153.6</ele>
        <time>2025-07-14T07:57:44Z</time>
      </trkpt>
      <trkpt lat="44.73995" lon="0.47959">
        <ele>153.6</ele>
        <time>2025-07-14T07:57:45Z</time>
      </trkpt>
      <trkpt lat="44.73997" lon="0.47963">
        <ele>153.8</ele>
        <time>2025-07-14T07:57:46Z</time>
      </trkpt>
      <trkpt lat="44.73998" lon="0.47967">
        <ele>153.8</ele>
        <time>2025-07-14T07:57:47Z</time>
      </trkpt>
      <trkpt lat="44.74" lon="0.47971">
        <ele>154</ele>
        <time>2025-07-14T07:57:48Z</time>
      </trkpt>
      <trkpt lat="44.74002" lon="0.47975">
        <ele>154.2</ele>
        <time>2025-07-14T07:57:49Z</time>
      </trkpt>
      <trkpt lat="44.74005" lon="0.47979">
        <ele>154.2</ele>
        <time>2025-07-14T07:57:50Z</time>
      </trkpt>
      <trkpt lat="44.74007" lon="0.47983">
        <ele>154.2</ele>
        <time>2025-07-14T07:57:51Z</time>
      </trkpt>
      <trkpt lat="44.74009" lon="0.47987">
        <ele>154.4</ele>
        <time>2025-07-14T07:57:52Z</time>
      </trkpt>
      <trkpt lat="44.74011" lon="0.47991">
        <ele>154.4</ele>
        <time>2025-07-14T07:57:53Z</time>
      </trkpt>
      <trkpt lat="44.74013" lon="0.47994">
        <ele>154.4</ele>
        <time>2025-07-14T07:57:54Z</time>
      </trkpt>
      <trkpt lat="44.74015" lon="0.47999">
        <ele>154.6</ele>
        <time>2025-07-14T07:57:55Z</time>
      </trkpt>
      <trkpt lat="44.74018" lon="0.48003">
        <ele>154.8</ele>
        <time>2025-07-14T07:57:56Z</time>
      </trkpt>
      <trkpt lat="44.7402" lon="0.48006">
        <ele>154.8</ele>
        <time>2025-07-14T07:57:57Z</time>
      </trkpt>
      <trkpt lat="44.74022" lon="0.4801">
        <ele>155</ele>
        <time>2025-07-14T07:57:58Z</time>
      </trkpt>
      <trkpt lat="44.74024" lon="0.48015">
        <ele>155</ele>
        <time>2025-07-14T07:57:59Z</time>
      </trkpt>
      <trkpt lat="44.74026" lon="0.48019">
        <ele>155.2</ele>
        <time>2025-07-14T07:58:00Z</time>
      </trkpt>
      <trkpt lat="44.74028" lon="0.48022">
        <ele>155.2</ele>
        <time>2025-07-14T07:58:01Z</time>
      </trkpt>
      <trkpt lat="44.7403" lon="0.48026">
        <ele>155.4</ele>
        <time>2025-07-14T07:58:02Z</time>
      </trkpt>
      <trkpt lat="44.74032" lon="0.4803">
        <ele>155.6</ele>
        <time>2025-07-14T07:58:03Z</time>
      </trkpt>
      <trkpt lat="44.74034" lon="0.48034">
        <ele>155.6</ele>
        <time>2025-07-14T07:58:04Z</time>
      </trkpt>
      <trkpt lat="44.74036" lon="0.48038">
        <ele>155.8</ele>
        <time>2025-07-14T07:58:05Z</time>
      </trkpt>
      <trkpt lat="44.74038" lon="0.48042">
        <ele>156</ele>
        <time>2025-07-14T07:58:06Z</time>
      </trkpt>
      <trkpt lat="44.7404" lon="0.48045">
        <ele>156.2</ele>
        <time>2025-07-14T07:58:07Z</time>
      </trkpt>
      <trkpt lat="44.74042" lon="0.48049">
        <ele>156.4</ele>
        <time>2025-07-14T07:58:08Z</time>
      </trkpt>
      <trkpt lat="44.74045" lon="0.48053">
        <ele>156.6</ele>
        <time>2025-07-14T07:58:09Z</time>
      </trkpt>
      <trkpt lat="44.74047" lon="0.48056">
        <ele>156.8</ele>
        <time>2025-07-14T07:58:10Z</time>
      </trkpt>
      <trkpt lat="44.74049" lon="0.4806">
        <ele>157</ele>
        <time>2025-07-14T07:58:11Z</time>
      </trkpt>
      <trkpt lat="44.74051" lon="0.48063">
        <ele>157.2</ele>
        <time>2025-07-14T07:58:12Z</time>
      </trkpt>
      <trkpt lat="44.74053" lon="0.48067">
        <ele>157.2</ele>
        <time>2025-07-14T07:58:13Z</time>
      </trkpt>
      <trkpt lat="44.74056" lon="0.48071">
        <ele>157.4</ele>
        <time>2025-07-14T07:58:14Z</time>
      </trkpt>
      <trkpt lat="44.74058" lon="0.48075">
        <ele>157.6</ele>
        <time>2025-07-14T07:58:15Z</time>
      </trkpt>
      <trkpt lat="44.7406" lon="0.48079">
        <ele>157.6</ele>
        <time>2025-07-14T07:58:16Z</time>
      </trkpt>
      <trkpt lat="44.74063" lon="0.48082">
        <ele>157.8</ele>
        <time>2025-07-14T07:58:17Z</time>
      </trkpt>
      <trkpt lat="44.74065" lon="0.48086">
        <ele>158</ele>
        <time>2025-07-14T07:58:18Z</time>
      </trkpt>
      <trkpt lat="44.74067" lon="0.4809">
        <ele>158</ele>
        <time>2025-07-14T07:58:19Z</time>
      </trkpt>
      <trkpt lat="44.74069" lon="0.48093">
        <ele>158.2</ele>
        <time>2025-07-14T07:58:20Z</time>
      </trkpt>
      <trkpt lat="44.74072" lon="0.48097">
        <ele>158.4</ele>
        <time>2025-07-14T07:58:21Z</time>
      </trkpt>
      <trkpt lat="44.74074" lon="0.48101">
        <ele>158.6</ele>
        <time>2025-07-14T07:58:22Z</time>
      </trkpt>
      <trkpt lat="44.74076" lon="0.48104">
        <ele>158.6</ele>
        <time>2025-07-14T07:58:23Z</time>
      </trkpt>
      <trkpt lat="44.74079" lon="0.48108">
        <ele>158.8</ele>
        <time>2025-07-14T07:58:24Z</time>
      </trkpt>
      <trkpt lat="44.74081" lon="0.48112">
        <ele>159</ele>
        <time>2025-07-14T07:58:25Z</time>
      </trkpt>
      <trkpt lat="44.74083" lon="0.48115">
        <ele>159</ele>
        <time>2025-07-14T07:58:26Z</time>
      </trkpt>
      <trkpt lat="44.74086" lon="0.48119">
        <ele>159.2</ele>
        <time>2025-07-14T07:58:27Z</time>
      </trkpt>
      <trkpt lat="44.74088" lon="0.48123">
        <ele>159.2</ele>
        <time>2025-07-14T07:58:28Z</time>
      </trkpt>
      <trkpt lat="44.74091" lon="0.48126">
        <ele>159.4</ele>
        <time>2025-07-14T07:58:29Z</time>
      </trkpt>
      <trkpt lat="44.74093" lon="0.4813">
        <ele>159.4</ele>
        <time>2025-07-14T07:58:30Z</time>
      </trkpt>
      <trkpt lat="44.74096" lon="0.48134">
        <ele>159.6</ele>
        <time>2025-07-14T07:58:31Z</time>
      </trkpt>
      <trkpt lat="44.74098" lon="0.48138">
        <ele>159.6</ele>
        <time>2025-07-14T07:58:32Z</time>
      </trkpt>
      <trkpt lat="44.741" lon="0.48143">
        <ele>159.8</ele>
        <time>2025-07-14T07:58:33Z</time>
      </trkpt>
      <trkpt lat="44.74103" lon="0.48147">
        <ele>159.8</ele>
        <time>2025-07-14T07:58:34Z</time>
      </trkpt>
      <trkpt lat="44.74106" lon="0.48151">
        <ele>160</ele>
        <time>2025-07-14T07:58:35Z</time>
      </trkpt>
      <trkpt lat="44.74108" lon="0.48155">
        <ele>160</ele>
        <time>2025-07-14T07:58:36Z</time>
      </trkpt>
      <trkpt lat="44.74111" lon="0.48159">
        <ele>160</ele>
        <time>2025-07-14T07:58:37Z</time>
      </trkpt>
      <trkpt lat="44.74113" lon="0.48163">
        <ele>160.2</ele>
        <time>2025-07-14T07:58:38Z</time>
      </trkpt>
      <trkpt lat="44.74116" lon="0.48168">
        <ele>160.2</ele>
        <time>2025-07-14T07:58:39Z</time>
      </trkpt>
      <trkpt lat="44.74118" lon="0.48173">
        <ele>160.4</ele>
        <time>2025-07-14T07:58:40Z</time>
      </trkpt>
      <trkpt lat="44.74121" lon="0.48178">
        <ele>160.4</ele>
        <time>2025-07-14T07:58:41Z</time>
      </trkpt>
      <trkpt lat="44.74124" lon="0.48182">
        <ele>160.4</ele>
        <time>2025-07-14T07:58:42Z</time>
      </trkpt>
      <trkpt lat="44.74126" lon="0.48186">
        <ele>160.4</ele>
        <time>2025-07-14T07:58:43Z</time>
      </trkpt>
      <trkpt lat="44.74129" lon="0.48191">
        <ele>160.4</ele>
        <time>2025-07-14T07:58:44Z</time>
      </trkpt>
      <trkpt lat="44.74132" lon="0.48195">
        <ele>160.6</ele>
        <time>2025-07-14T07:58:45Z</time>
      </trkpt>
      <trkpt lat="44.74134" lon="0.48199">
        <ele>160.6</ele>
        <time>2025-07-14T07:58:46Z</time>
      </trkpt>
      <trkpt lat="44.74137" lon="0.48202">
        <ele>160.6</ele>
        <time>2025-07-14T07:58:47Z</time>
      </trkpt>
      <trkpt lat="44.7414" lon="0.48206">
        <ele>160.8</ele>
        <time>2025-07-14T07:58:48Z</time>
      </trkpt>
      <trkpt lat="44.74143" lon="0.4821">
        <ele>160.8</ele>
        <time>2025-07-14T07:58:49Z</time>
      </trkpt>
      <trkpt lat="44.74145" lon="0.48214">
        <ele>160.8</ele>
        <time>2025-07-14T07:58:50Z</time>
      </trkpt>
      <trkpt lat="44.74148" lon="0.48218">
        <ele>161</ele>
        <time>2025-07-14T07:58:51Z</time>
      </trkpt>
      <trkpt lat="44.74151" lon="0.48223">
        <ele>161</ele>
        <time>2025-07-14T07:58:52Z</time>
      </trkpt>
      <trkpt lat="44.74153" lon="0.48227">
        <ele>161</ele>
        <time>2025-07-14T07:58:53Z</time>
      </trkpt>
      <trkpt lat="44.74156" lon="0.48231">
        <ele>161.2</ele>
        <time>2025-07-14T07:58:54Z</time>
      </trkpt>
      <trkpt lat="44.74159" lon="0.48235">
        <ele>161.2</ele>
        <time>2025-07-14T07:58:55Z</time>
      </trkpt>
      <trkpt lat="44.74162" lon="0.4824">
        <ele>161.4</ele>
        <time>2025-07-14T07:58:56Z</time>
      </trkpt>
      <trkpt lat="44.74164" lon="0.48244">
        <ele>161.4</ele>
        <time>2025-07-14T07:58:57Z</time>
      </trkpt>
      <trkpt lat="44.74167" lon="0.48249">
        <ele>161.4</ele>
        <time>2025-07-14T07:58:58Z</time>
      </trkpt>
      <trkpt lat="44.74169" lon="0.48254">
        <ele>161.4</ele>
        <time>2025-07-14T07:58:59Z</time>
      </trkpt>
      <trkpt lat="44.74171" lon="0.48259">
        <ele>161.4</ele>
        <time>2025-07-14T07:59:00Z</time>
      </trkpt>
      <trkpt lat="44.74172" lon="0.48264">
        <ele>161.4</ele>
        <time>2025-07-14T07:59:01Z</time>
      </trkpt>
      <trkpt lat="44.74171" lon="0.48269">
        <ele>161.4</ele>
        <time>2025-07-14T07:59:02Z</time>
      </trkpt>
      <trkpt lat="44.7417" lon="0.48274">
        <ele>161.6</ele>
        <time>2025-07-14T07:59:03Z</time>
      </trkpt>
      <trkpt lat="44.74168" lon="0.48279">
        <ele>161.6</ele>
        <time>2025-07-14T07:59:04Z</time>
      </trkpt>
      <trkpt lat="44.74166" lon="0.48283">
        <ele>161.6</ele>
        <time>2025-07-14T07:59:05Z</time>
      </trkpt>
      <trkpt lat="44.74164" lon="0.48287">
        <ele>161.8</ele>
        <time>2025-07-14T07:59:06Z</time>
      </trkpt>
      <trkpt lat="44.74162" lon="0.48292">
        <ele>161.8</ele>
        <time>2025-07-14T07:59:07Z</time>
      </trkpt>
      <trkpt lat="44.7416" lon="0.48296">
        <ele>162</ele>
        <time>2025-07-14T07:59:08Z</time>
      </trkpt>
      <trkpt lat="44.74158" lon="0.48301">
        <ele>162</ele>
        <time>2025-07-14T07:59:09Z</time>
      </trkpt>
      <trkpt lat="44.74158" lon="0.48307">
        <ele>162.2</ele>
        <time>2025-07-14T07:59:10Z</time>
      </trkpt>
      <trkpt lat="44.74159" lon="0.48312">
        <ele>162.4</ele>
        <time>2025-07-14T07:59:11Z</time>
      </trkpt>
      <trkpt lat="44.74162" lon="0.48316">
        <ele>162.6</ele>
        <time>2025-07-14T07:59:12Z</time>
      </trkpt>
      <trkpt lat="44.74165" lon="0.4832">
        <ele>162.8</ele>
        <time>2025-07-14T07:59:13Z</time>
      </trkpt>
      <trkpt lat="44.74169" lon="0.48322">
        <ele>162.8</ele>
        <time>2025-07-14T07:59:14Z</time>
      </trkpt>
      <trkpt lat="44.74173" lon="0.48325">
        <ele>162.8</ele>
        <time>2025-07-14T07:59:15Z</time>
      </trkpt>
      <trkpt lat="44.74177" lon="0.48329">
        <ele>162.8</ele>
        <time>2025-07-14T07:59:16Z</time>
      </trkpt>
      <trkpt lat="44.7418" lon="0.48332">
        <ele>162.8</ele>
        <time>2025-07-14T07:59:17Z</time>
      </trkpt>
      <trkpt lat="44.74184" lon="0.48337">
        <ele>162.6</ele>
        <time>2025-07-14T07:59:18Z</time>
      </trkpt>
      <trkpt lat="44.74189" lon="0.48341">
        <ele>162.6</ele>
        <time>2025-07-14T07:59:19Z</time>
      </trkpt>
      <trkpt lat="44.74193" lon="0.48346">
        <ele>162.4</ele>
        <time>2025-07-14T07:59:20Z</time>
      </trkpt>
      <trkpt lat="44.74196" lon="0.48351">
        <ele>162.4</ele>
        <time>2025-07-14T07:59:21Z</time>
      </trkpt>
      <trkpt lat="44.742" lon="0.48356">
        <ele>162.2</ele>
        <time>2025-07-14T07:59:22Z</time>
      </trkpt>
      <trkpt lat="44.74204" lon="0.48362">
        <ele>162.2</ele>
        <time>2025-07-14T07:59:23Z</time>
      </trkpt>
      <trkpt lat="44.74207" lon="0.48367">
        <ele>162.2</ele>
        <time>2025-07-14T07:59:24Z</time>
      </trkpt>
      <trkpt lat="44.74211" lon="0.48373">
        <ele>162.2</ele>
        <time>2025-07-14T07:59:25Z</time>
      </trkpt>
      <trkpt lat="44.74214" lon="0.48379">
        <ele>162.2</ele>
        <time>2025-07-14T07:59:26Z</time>
      </trkpt>
      <trkpt lat="44.74217" lon="0.48384">
        <ele>162.2</ele>
        <time>2025-07-14T07:59:27Z</time>
      </trkpt>
      <trkpt lat="44.74221" lon="0.48389">
        <ele>162</ele>
        <time>2025-07-14T07:59:28Z</time>
      </trkpt>
      <trkpt lat="44.74225" lon="0.48391">
        <ele>161.8</ele>
        <time>2025-07-14T07:59:29Z</time>
      </trkpt>
      <trkpt lat="44.74227" lon="0.48388">
        <ele>161.6</ele>
        <time>2025-07-14T07:59:30Z</time>
      </trkpt>
      <trkpt lat="44.7423" lon="0.48384">
        <ele>161.4</ele>
        <time>2025-07-14T07:59:31Z</time>
      </trkpt>
      <trkpt lat="44.74233" lon="0.48379">
        <ele>161.2</ele>
        <time>2025-07-14T07:59:32Z</time>
      </trkpt>
      <trkpt lat="44.74237" lon="0.48374">
        <ele>161</ele>
        <time>2025-07-14T07:59:33Z</time>
      </trkpt>
      <trkpt lat="44.74241" lon="0.48368">
        <ele>160.8</ele>
        <time>2025-07-14T07:59:34Z</time>
      </trkpt>
      <trkpt lat="44.74245" lon="0.48363">
        <ele>160.6</ele>
        <time>2025-07-14T07:59:35Z</time>
      </trkpt>
      <trkpt lat="44.74249" lon="0.48357">
        <ele>160.4</ele>
        <time>2025-07-14T07:59:36Z</time>
      </trkpt>
      <trkpt lat="44.74253" lon="0.48351">
        <ele>160</ele>
        <time>2025-07-14T07:59:37Z</time>
      </trkpt>
      <trkpt lat="44.74258" lon="0.48345">
        <ele>159.8</ele>
        <time>2025-07-14T07:59:38Z</time>
      </trkpt>
      <trkpt lat="44.74262" lon="0.48339">
        <ele>159.6</ele>
        <time>2025-07-14T07:59:39Z</time>
      </trkpt>
      <trkpt lat="44.74267" lon="0.48333">
        <ele>159.2</ele>
        <time>2025-07-14T07:59:40Z</time>
      </trkpt>
      <trkpt lat="44.74271" lon="0.48327">
        <ele>159.2</ele>
        <time>2025-07-14T07:59:41Z</time>
      </trkpt>
      <trkpt lat="44.74276" lon="0.4832">
        <ele>159</ele>
        <time>2025-07-14T07:59:42Z</time>
      </trkpt>
      <trkpt lat="44.7428" lon="0.48313">
        <ele>158.8</ele>
        <time>2025-07-14T07:59:43Z</time>
      </trkpt>
      <trkpt lat="44.74283" lon="0.48306">
        <ele>158.8</ele>
        <time>2025-07-14T07:59:44Z</time>
      </trkpt>
      <trkpt lat="44.74287" lon="0.483">
        <ele>158.8</ele>
        <time>2025-07-14T07:59:45Z</time>
      </trkpt>
      <trkpt lat="44.74292" lon="0.48293">
        <ele>158.8</ele>
        <time>2025-07-14T07:59:46Z</time>
      </trkpt>
      <trkpt lat="44.74297" lon="0.48286">
        <ele>158.8</ele>
        <time>2025-07-14T07:59:47Z</time>
      </trkpt>
      <trkpt lat="44.74301" lon="0.48279">
        <ele>158.8</ele>
        <time>2025-07-14T07:59:48Z</time>
      </trkpt>
      <trkpt lat="44.74305" lon="0.48272">
        <ele>158.6</ele>
        <time>2025-07-14T07:59:49Z</time>
      </trkpt>
      <trkpt lat="44.74309" lon="0.48264">
        <ele>158.4</ele>
        <time>2025-07-14T07:59:50Z</time>
      </trkpt>
      <trkpt lat="44.74314" lon="0.48255">
        <ele>158.2</ele>
        <time>2025-07-14T07:59:51Z</time>
      </trkpt>
      <trkpt lat="44.7432" lon="0.48247">
        <ele>157.8</ele>
        <time>2025-07-14T07:59:52Z</time>
      </trkpt>
      <trkpt lat="44.74327" lon="0.48239">
        <ele>157.2</ele>
        <time>2025-07-14T07:59:53Z</time>
      </trkpt>
      <trkpt lat="44.74333" lon="0.48231">
        <ele>156.2</ele>
        <time>2025-07-14T07:59:54Z</time>
      </trkpt>
      <trkpt lat="44.7434" lon="0.48222">
        <ele>155.4</ele>
        <time>2025-07-14T07:59:55Z</time>
      </trkpt>
      <trkpt lat="44.74347" lon="0.48212">
        <ele>154.8</ele>
        <time>2025-07-14T07:59:56Z</time>
      </trkpt>
      <trkpt lat="44.74354" lon="0.48204">
        <ele>154</ele>
        <time>2025-07-14T07:59:57Z</time>
      </trkpt>
      <trkpt lat="44.74362" lon="0.48196">
        <ele>153</ele>
        <time>2025-07-14T07:59:58Z</time>
      </trkpt>
      <trkpt lat="44.74368" lon="0.48188">
        <ele>152.2</ele>
        <time>2025-07-14T07:59:59Z</time>
      </trkpt>
      <trkpt lat="44.74373" lon="0.4818">
        <ele>151.4</ele>
        <time>2025-07-14T08:00:00Z</time>
      </trkpt>
      <trkpt lat="44.74379" lon="0.48172">
        <ele>151</ele>
        <time>2025-07-14T08:00:01Z</time>
      </trkpt>
      <trkpt lat="44.74384" lon="0.48164">
        <ele>150.6</ele>
        <time>2025-07-14T08:00:02Z</time>
      </trkpt>
      <trkpt lat="44.7439" lon="0.48156">
        <ele>150.2</ele>
        <time>2025-07-14T08:00:03Z</time>
      </trkpt>
      <trkpt lat="44.74395" lon="0.48148">
        <ele>149.8</ele>
        <time>2025-07-14T08:00:04Z</time>
      </trkpt>
      <trkpt lat="44.74401" lon="0.48141">
        <ele>149.6</ele>
        <time>2025-07-14T08:00:05Z</time>
      </trkpt>
      <trkpt lat="44.74407" lon="0.48133">
        <ele>149.4</ele>
        <time>2025-07-14T08:00:06Z</time>
      </trkpt>
      <trkpt lat="44.74413" lon="0.48125">
        <ele>149.4</ele>
        <time>2025-07-14T08:00:07Z</time>
      </trkpt>
      <trkpt lat="44.74418" lon="0.48117">
        <ele>149.2</ele>
        <time>2025-07-14T08:00:08Z</time>
      </trkpt>
      <trkpt lat="44.74424" lon="0.48109">
        <ele>148.8</ele>
        <time>2025-07-14T08:00:09Z</time>
      </trkpt>
      <trkpt lat="44.74429" lon="0.48102">
        <ele>148.6</ele>
        <time>2025-07-14T08:00:10Z</time>
      </trkpt>
      <trkpt lat="44.74434" lon="0.48095">
        <ele>148.6</ele>
        <time>2025-07-14T08:00:11Z</time>
      </trkpt>
      <trkpt lat="44.7444" lon="0.48088">
        <ele>148.2</ele>
        <time>2025-07-14T08:00:12Z</time>
      </trkpt>
      <trkpt lat="44.74445" lon="0.48081">
        <ele>148</ele>
        <time>2025-07-14T08:00:13Z</time>
      </trkpt>
      <trkpt lat="44.74451" lon="0.48074">
        <ele>147.8</ele>
        <time>2025-07-14T08:00:14Z</time>
      </trkpt>
      <trkpt lat="44.74456" lon="0.48066">
        <ele>147.8</ele>
        <time>2025-07-14T08:00:15Z</time>
      </trkpt>
      <trkpt lat="44.74461" lon="0.48058">
        <ele>147.6</ele>
        <time>2025-07-14T08:00:16Z</time>
      </trkpt>
      <trkpt lat="44.74467" lon="0.48051">
        <ele>147.4</ele>
        <time>2025-07-14T08:00:17Z</time>
      </trkpt>
      <trkpt lat="44.74473" lon="0.48042">
        <ele>147.2</ele>
        <time>2025-07-14T08:00:18Z</time>
      </trkpt>
      <trkpt lat="44.74479" lon="0.48034">
        <ele>147</ele>
        <time>2025-07-14T08:00:19Z</time>
      </trkpt>
      <trkpt lat="44.74486" lon="0.48026">
        <ele>146.6</ele>
        <time>2025-07-14T08:00:20Z</time>
      </trkpt>
      <trkpt lat="44.74493" lon="0.48017">
        <ele>146.2</ele>
        <time>2025-07-14T08:00:21Z</time>
      </trkpt>
      <trkpt lat="44.74499" lon="0.4801">
        <ele>145.8</ele>
        <time>2025-07-14T08:00:22Z</time>
      </trkpt>
      <trkpt lat="44.74505" lon="0.48003">
        <ele>145.6</ele>
        <time>2025-07-14T08:00:23Z</time>
      </trkpt>
      <trkpt lat="44.74511" lon="0.47997">
        <ele>145.2</ele>
        <time>2025-07-14T08:00:24Z</time>
      </trkpt>
      <trkpt lat="44.74517" lon="0.47992">
        <ele>144.8</ele>
        <time>2025-07-14T08:00:25Z</time>
      </trkpt>
      <trkpt lat="44.74524" lon="0.4799">
        <ele>144.6</ele>
        <time>2025-07-14T08:00:26Z</time>
      </trkpt>
      <trkpt lat="44.74531" lon="0.47987">
        <ele>144.4</ele>
        <time>2025-07-14T08:00:27Z</time>
      </trkpt>
      <trkpt lat="44.74538" lon="0.47984">
        <ele>144</ele>
        <time>2025-07-14T08:00:28Z</time>
      </trkpt>
      <trkpt lat="44.74546" lon="0.47982">
        <ele>143.8</ele>
        <time>2025-07-14T08:00:29Z</time>
      </trkpt>
      <trkpt lat="44.74553" lon="0.47982">
        <ele>143.2</ele>
        <time>2025-07-14T08:00:30Z</time>
      </trkpt>
      <trkpt lat="44.7456" lon="0.47982">
        <ele>142.8</ele>
        <time>2025-07-14T08:00:31Z</time>
      </trkpt>
      <trkpt lat="44.74568" lon="0.47982">
        <ele>142.4</ele>
        <time>2025-07-14T08:00:32Z</time>
      </trkpt>
      <trkpt lat="44.74575" lon="0.47981">
        <ele>142</ele>
        <time>2025-07-14T08:00:33Z</time>
      </trkpt>
      <trkpt lat="44.74582" lon="0.47976">
        <ele>141.4</ele>
        <time>2025-07-14T08:00:34Z</time>
      </trkpt>
      <trkpt lat="44.74588" lon="0.47971">
        <ele>140.6</ele>
        <time>2025-07-14T08:00:35Z</time>
      </trkpt>
      <trkpt lat="44.74595" lon="0.47965">
        <ele>139.8</ele>
        <time>2025-07-14T08:00:36Z</time>
      </trkpt>
      <trkpt lat="44.74602" lon="0.47958">
        <ele>139</ele>
        <time>2025-07-14T08:00:37Z</time>
      </trkpt>
      <trkpt lat="44.74608" lon="0.47952">
        <ele>138.4</ele>
        <time>2025-07-14T08:00:38Z</time>
      </trkpt>
      <trkpt lat="44.74614" lon="0.47944">
        <ele>137.6</ele>
        <time>2025-07-14T08:00:39Z</time>
      </trkpt>
      <trkpt lat="44.74622" lon="0.47938">
        <ele>136.8</ele>
        <time>2025-07-14T08:00:40Z</time>
      </trkpt>
      <trkpt lat="44.7463" lon="0.47933">
        <ele>136</ele>
        <time>2025-07-14T08:00:41Z</time>
      </trkpt>
      <trkpt lat="44.74638" lon="0.47929">
        <ele>135.4</ele>
        <time>2025-07-14T08:00:42Z</time>
      </trkpt>
      <trkpt lat="44.74646" lon="0.47925">
        <ele>134.8</ele>
        <time>2025-07-14T08:00:43Z</time>
      </trkpt>
      <trkpt lat="44.74654" lon="0.47921">
        <ele>134.4</ele>
        <time>2025-07-14T08:00:44Z</time>
      </trkpt>
      <trkpt lat="44.7466" lon="0.47917">
        <ele>134.2</ele>
        <time>2025-07-14T08:00:45Z</time>
      </trkpt>
      <trkpt lat="44.74665" lon="0.47916">
        <ele>133.8</ele>
        <time>2025-07-14T08:00:46Z</time>
      </trkpt>
      <trkpt lat="44.74669" lon="0.47914">
        <ele>133.4</ele>
        <time>2025-07-14T08:00:47Z</time>
      </trkpt>
      <trkpt lat="44.74673" lon="0.47914">
        <ele>133.2</ele>
        <time>2025-07-14T08:00:48Z</time>
      </trkpt>
      <trkpt lat="44.74676" lon="0.47917">
        <ele>133</ele>
        <time>2025-07-14T08:00:49Z</time>
      </trkpt>
      <trkpt lat="44.74679" lon="0.47921">
        <ele>133</ele>
        <time>2025-07-14T08:00:50Z</time>
      </trkpt>
      <trkpt lat="44.74681" lon="0.47927">
        <ele>132.8</ele>
        <time>2025-07-14T08:00:51Z</time>
      </trkpt>
      <trkpt lat="44.74684" lon="0.47933">
        <ele>132.6</ele>
        <time>2025-07-14T08:00:52Z</time>
      </trkpt>
      <trkpt lat="44.74685" lon="0.4794">
        <ele>132.4</ele>
        <time>2025-07-14T08:00:53Z</time>
      </trkpt>
      <trkpt lat="44.74687" lon="0.47947">
        <ele>132</ele>
        <time>2025-07-14T08:00:54Z</time>
      </trkpt>
      <trkpt lat="44.74688" lon="0.47955">
        <ele>131.8</ele>
        <time>2025-07-14T08:00:55Z</time>
      </trkpt>
      <trkpt lat="44.74689" lon="0.47963">
        <ele>131.6</ele>
        <time>2025-07-14T08:00:56Z</time>
      </trkpt>
      <trkpt lat="44.74689" lon="0.47972">
        <ele>131.4</ele>
        <time>2025-07-14T08:00:57Z</time>
      </trkpt>
      <trkpt lat="44.7469" lon="0.47981">
        <ele>131.2</ele>
        <time>2025-07-14T08:00:58Z</time>
      </trkpt>
      <trkpt lat="44.7469" lon="0.47989">
        <ele>131</ele>
        <time>2025-07-14T08:00:59Z</time>
      </trkpt>
      <trkpt lat="44.74691" lon="0.47998">
        <ele>130.8</ele>
        <time>2025-07-14T08:01:00Z</time>
      </trkpt>
      <trkpt lat="44.74691" lon="0.48007">
        <ele>130.8</ele>
        <time>2025-07-14T08:01:01Z</time>
      </trkpt>
      <trkpt lat="44.74692" lon="0.48016">
        <ele>130.6</ele>
        <time>2025-07-14T08:01:02Z</time>
      </trkpt>
      <trkpt lat="44.74692" lon="0.48025">
        <ele>130.6</ele>
        <time>2025-07-14T08:01:03Z</time>
      </trkpt>
      <trkpt lat="44.74692" lon="0.48034">
        <ele>130.4</ele>
        <time>2025-07-14T08:01:04Z</time>
      </trkpt>
      <trkpt lat="44.74693" lon="0.48044">
        <ele>130.4</ele>
        <time>2025-07-14T08:01:05Z</time>
      </trkpt>
      <trkpt lat="44.74693" lon="0.48053">
        <ele>130.4</ele>
        <time>2025-07-14T08:01:06Z</time>
      </trkpt>
      <trkpt lat="44.74693" lon="0.48062">
        <ele>130.2</ele>
        <time>2025-07-14T08:01:07Z</time>
      </trkpt>
      <trkpt lat="44.74693" lon="0.48071">
        <ele>130.2</ele>
        <time>2025-07-14T08:01:08Z</time>
      </trkpt>
      <trkpt lat="44.74693" lon="0.4808">
        <ele>130.2</ele>
        <time>2025-07-14T08:01:09Z</time>
      </trkpt>
      <trkpt lat="44.74694" lon="0.4809">
        <ele>130.2</ele>
        <time>2025-07-14T08:01:10Z</time>
      </trkpt>
      <trkpt lat="44.74694" lon="0.48099">
        <ele>130.2</ele>
        <time>2025-07-14T08:01:11Z</time>
      </trkpt>
      <trkpt lat="44.74695" lon="0.48109">
        <ele>130</ele>
        <time>2025-07-14T08:01:12Z</time>
      </trkpt>
      <trkpt lat="44.74696" lon="0.48118">
        <ele>130</ele>
        <time>2025-07-14T08:01:13Z</time>
      </trkpt>
      <trkpt lat="44.74697" lon="0.48127">
        <ele>129.8</ele>
        <time>2025-07-14T08:01:14Z</time>
      </trkpt>
      <trkpt lat="44.74698" lon="0.48137">
        <ele>129.6</ele>
        <time>2025-07-14T08:01:15Z</time>
      </trkpt>
      <trkpt lat="44.74698" lon="0.48146">
        <ele>129.6</ele>
        <time>2025-07-14T08:01:16Z</time>
      </trkpt>
      <trkpt lat="44.74699" lon="0.48156">
        <ele>129.6</ele>
        <time>2025-07-14T08:01:17Z</time>
      </trkpt>
      <trkpt lat="44.747" lon="0.48166">
        <ele>129.6</ele>
        <time>2025-07-14T08:01:18Z</time>
      </trkpt>
      <trkpt lat="44.747" lon="0.48175">
        <ele>129.6</ele>
        <time>2025-07-14T08:01:19Z</time>
      </trkpt>
      <trkpt lat="44.74701" lon="0.48185">
        <ele>129.6</ele>
        <time>2025-07-14T08:01:20Z</time>
      </trkpt>
      <trkpt lat="44.74701" lon="0.48194">
        <ele>129.6</ele>
        <time>2025-07-14T08:01:21Z</time>
      </trkpt>
      <trkpt lat="44.74702" lon="0.48204">
        <ele>129.6</ele>
        <time>2025-07-14T08:01:22Z</time>
      </trkpt>
      <trkpt lat="44.74702" lon="0.48213">
        <ele>129.6</ele>
        <time>2025-07-14T08:01:23Z</time>
      </trkpt>
      <trkpt lat="44.74703" lon="0.48223">
        <ele>129.6</ele>
        <time>2025-07-14T08:01:24Z</time>
      </trkpt>
      <trkpt lat="44.74703" lon="0.48232">
        <ele>129.6</ele>
        <time>2025-07-14T08:01:25Z</time>
      </trkpt>
      <trkpt lat="44.74704" lon="0.48242">
        <ele>129.4</ele>
        <time>2025-07-14T08:01:26Z</time>
      </trkpt>
      <trkpt lat="44.74704" lon="0.48252">
        <ele>129.4</ele>
        <time>2025-07-14T08:01:27Z</time>
      </trkpt>
      <trkpt lat="44.74706" lon="0.48261">
        <ele>129.4</ele>
        <time>2025-07-14T08:01:28Z</time>
      </trkpt>
      <trkpt lat="44.74708" lon="0.4827">
        <ele>129.2</ele>
        <time>2025-07-14T08:01:29Z</time>
      </trkpt>
      <trkpt lat="44.74711" lon="0.48279">
        <ele>129.2</ele>
        <time>2025-07-14T08:01:30Z</time>
      </trkpt>
      <trkpt lat="44.74714" lon="0.48288">
        <ele>129</ele>
        <time>2025-07-14T08:01:31Z</time>
      </trkpt>
      <trkpt lat="44.74718" lon="0.48297">
        <ele>129</ele>
        <time>2025-07-14T08:01:32Z</time>
      </trkpt>
      <trkpt lat="44.74723" lon="0.48305">
        <ele>128.8</ele>
        <time>2025-07-14T08:01:33Z</time>
      </trkpt>
      <trkpt lat="44.74727" lon="0.48312">
        <ele>128.8</ele>
        <time>2025-07-14T08:01:34Z</time>
      </trkpt>
      <trkpt lat="44.74731" lon="0.4832">
        <ele>128.8</ele>
        <time>2025-07-14T08:01:35Z</time>
      </trkpt>
      <trkpt lat="44.74735" lon="0.48327">
        <ele>128.6</ele>
        <time>2025-07-14T08:01:36Z</time>
      </trkpt>
      <trkpt lat="44.74739" lon="0.48334">
        <ele>128.4</ele>
        <time>2025-07-14T08:01:37Z</time>
      </trkpt>
      <trkpt lat="44.74741" lon="0.48339">
        <ele>128.4</ele>
        <time>2025-07-14T08:01:38Z</time>
      </trkpt>
      <trkpt lat="44.74741" lon="0.48346">
        <ele>128.4</ele>
        <time>2025-07-14T08:01:39Z</time>
      </trkpt>
      <trkpt lat="44.74738" lon="0.48351">
        <ele>128.4</ele>
        <time>2025-07-14T08:01:40Z</time>
      </trkpt>
      <trkpt lat="44.74735" lon="0.48354">
        <ele>128.4</ele>
        <time>2025-07-14T08:01:41Z</time>
      </trkpt>
      <trkpt lat="44.74731" lon="0.48358">
        <ele>128.4</ele>
        <time>2025-07-14T08:01:42Z</time>
      </trkpt>
      <trkpt lat="44.74728" lon="0.48361">
        <ele>128.6</ele>
        <time>2025-07-14T08:01:43Z</time>
      </trkpt>
      <trkpt lat="44.74724" lon="0.48365">
        <ele>128.6</ele>
        <time>2025-07-14T08:01:44Z</time>
      </trkpt>
      <trkpt lat="44.74721" lon="0.48368">
        <ele>128.8</ele>
        <time>2025-07-14T08:01:45Z</time>
      </trkpt>
      <trkpt lat="44.74717" lon="0.4837">
        <ele>128.8</ele>
        <time>2025-07-14T08:01:46Z</time>
      </trkpt>
      <trkpt lat="44.74714" lon="0.48373">
        <ele>128.8</ele>
        <time>2025-07-14T08:01:47Z</time>
      </trkpt>
      <trkpt lat="44.74711" lon="0.48376">
        <ele>129</ele>
        <time>2025-07-14T08:01:48Z</time>
      </trkpt>
      <trkpt lat="44.74708" lon="0.48379">
        <ele>129.2</ele>
        <time>2025-07-14T08:01:49Z</time>
      </trkpt>
      <trkpt lat="44.74704" lon="0.48382">
        <ele>129.4</ele>
        <time>2025-07-14T08:01:50Z</time>
      </trkpt>
      <trkpt lat="44.74701" lon="0.48384">
        <ele>129.6</ele>
        <time>2025-07-14T08:01:51Z</time>
      </trkpt>
      <trkpt lat="44.74698" lon="0.48386">
        <ele>130</ele>
        <time>2025-07-14T08:01:52Z</time>
      </trkpt>
      <trkpt lat="44.74695" lon="0.48389">
        <ele>130.2</ele>
        <time>2025-07-14T08:01:53Z</time>
      </trkpt>
      <trkpt lat="44.74692" lon="0.48391">
        <ele>130.4</ele>
        <time>2025-07-14T08:01:54Z</time>
      </trkpt>
      <trkpt lat="44.74689" lon="0.48394">
        <ele>130.4</ele>
        <time>2025-07-14T08:01:55Z</time>
      </trkpt>
      <trkpt lat="44.74686" lon="0.48396">
        <ele>130.6</ele>
        <time>2025-07-14T08:01:56Z</time>
      </trkpt>
      <trkpt lat="44.74683" lon="0.48398">
        <ele>130.8</ele>
        <time>2025-07-14T08:01:57Z</time>
      </trkpt>
      <trkpt lat="44.74679" lon="0.484">
        <ele>131</ele>
        <time>2025-07-14T08:01:58Z</time>
      </trkpt>
      <trkpt lat="44.74676" lon="0.48402">
        <ele>131</ele>
        <time>2025-07-14T08:01:59Z</time>
      </trkpt>
      <trkpt lat="44.74673" lon="0.48404">
        <ele>131.2</ele>
        <time>2025-07-14T08:02:00Z</time>
      </trkpt>
      <trkpt lat="44.74671" lon="0.48407">
        <ele>131.2</ele>
        <time>2025-07-14T08:02:01Z</time>
      </trkpt>
      <trkpt lat="44.74667" lon="0.48409">
        <ele>131.4</ele>
        <time>2025-07-14T08:02:02Z</time>
      </trkpt>
      <trkpt lat="44.74665" lon="0.48411">
        <ele>131.6</ele>
        <time>2025-07-14T08:02:03Z</time>
      </trkpt>
      <trkpt lat="44.74662" lon="0.48412">
        <ele>131.8</ele>
        <time>2025-07-14T08:02:04Z</time>
      </trkpt>
      <trkpt lat="44.7466" lon="0.48414">
        <ele>132</ele>
        <time>2025-07-14T08:02:05Z</time>
      </trkpt>
      <trkpt lat="44.74658" lon="0.48415">
        <ele>132.4</ele>
        <time>2025-07-14T08:02:06Z</time>
      </trkpt>
      <trkpt lat="44.74656" lon="0.48416">
        <ele>132.6</ele>
        <time>2025-07-14T08:02:07Z</time>
      </trkpt>
      <trkpt lat="44.74654" lon="0.48417">
        <ele>132.8</ele>
        <time>2025-07-14T08:02:08Z</time>
      </trkpt>
      <trkpt lat="44.74652" lon="0.48416">
        <ele>133.2</ele>
        <time>2025-07-14T08:02:09Z</time>
      </trkpt>
      <trkpt lat="44.7465" lon="0.48416">
        <ele>133.4</ele>
        <time>2025-07-14T08:02:10Z</time>
      </trkpt>
      <trkpt lat="44.74648" lon="0.48417">
        <ele>133.8</ele>
        <time>2025-07-14T08:02:11Z</time>
      </trkpt>
      <trkpt lat="44.74645" lon="0.48418">
        <ele>133.8</ele>
        <time>2025-07-14T08:02:12Z</time>
      </trkpt>
      <trkpt lat="44.74643" lon="0.48419">
        <ele>134</ele>
        <time>2025-07-14T08:02:13Z</time>
      </trkpt>
      <trkpt lat="44.74641" lon="0.48419">
        <ele>134.2</ele>
        <time>2025-07-14T08:02:14Z</time>
      </trkpt>
      <trkpt lat="44.74638" lon="0.4842">
        <ele>134.2</ele>
        <time>2025-07-14T08:02:15Z</time>
      </trkpt>
      <trkpt lat="44.74636" lon="0.48421">
        <ele>134.4</ele>
        <time>2025-07-14T08:02:16Z</time>
      </trkpt>
      <trkpt lat="44.74633" lon="0.48422">
        <ele>134.4</ele>
        <time>2025-07-14T08:02:17Z</time>
      </trkpt>
      <trkpt lat="44.74631" lon="0.48422">
        <ele>134.6</ele>
        <time>2025-07-14T08:02:18Z</time>
      </trkpt>
      <trkpt lat="44.74628" lon="0.48424">
        <ele>134.8</ele>
        <time>2025-07-14T08:02:19Z</time>
      </trkpt>
      <trkpt lat="44.74625" lon="0.48425">
        <ele>135</ele>
        <time>2025-07-14T08:02:20Z</time>
      </trkpt>
      <trkpt lat="44.74623" lon="0.48426">
        <ele>135.2</ele>
        <time>2025-07-14T08:02:21Z</time>
      </trkpt>
      <trkpt lat="44.74621" lon="0.48427">
        <ele>135.4</ele>
        <time>2025-07-14T08:02:22Z</time>
      </trkpt>
      <trkpt lat="44.74619" lon="0.48428">
        <ele>135.8</ele>
        <time>2025-07-14T08:02:23Z</time>
      </trkpt>
      <trkpt lat="44.74617" lon="0.48429">
        <ele>136</ele>
        <time>2025-07-14T08:02:24Z</time>
      </trkpt>
      <trkpt lat="44.74615" lon="0.4843">
        <ele>136.2</ele>
        <time>2025-07-14T08:02:25Z</time>
      </trkpt>
      <trkpt lat="44.74613" lon="0.48431">
        <ele>136.6</ele>
        <time>2025-07-14T08:02:26Z</time>
      </trkpt>
      <trkpt lat="44.74611" lon="0.48432">
        <ele>136.8</ele>
        <time>2025-07-14T08:02:27Z</time>
      </trkpt>
      <trkpt lat="44.74609" lon="0.48433">
        <ele>137</ele>
        <time>2025-07-14T08:02:28Z</time>
      </trkpt>
      <trkpt lat="44.74607" lon="0.48434">
        <ele>137.2</ele>
        <time>2025-07-14T08:02:29Z</time>
      </trkpt>
      <trkpt lat="44.74606" lon="0.48435">
        <ele>137.4</ele>
        <time>2025-07-14T08:02:30Z</time>
      </trkpt>
      <trkpt lat="44.74603" lon="0.48436">
        <ele>137.8</ele>
        <time>2025-07-14T08:02:31Z</time>
      </trkpt>
      <trkpt lat="44.74601" lon="0.48438">
        <ele>137.8</ele>
        <time>2025-07-14T08:02:32Z</time>
      </trkpt>
      <trkpt lat="44.74599" lon="0.48439">
        <ele>138.2</ele>
        <time>2025-07-14T08:02:33Z</time>
      </trkpt>
      <trkpt lat="44.74597" lon="0.48441">
        <ele>138.4</ele>
        <time>2025-07-14T08:02:34Z</time>
      </trkpt>
      <trkpt lat="44.74595" lon="0.48443">
        <ele>138.6</ele>
        <time>2025-07-14T08:02:35Z</time>
      </trkpt>
      <trkpt lat="44.74592" lon="0.48444">
        <ele>138.6</ele>
        <time>2025-07-14T08:02:36Z</time>
      </trkpt>
      <trkpt lat="44.7459" lon="0.48446">
        <ele>138.8</ele>
        <time>2025-07-14T08:02:37Z</time>
      </trkpt>
      <trkpt lat="44.74588" lon="0.48448">
        <ele>138.8</ele>
        <time>2025-07-14T08:02:38Z</time>
      </trkpt>
      <trkpt lat="44.74586" lon="0.4845">
        <ele>139</ele>
        <time>2025-07-14T08:02:39Z</time>
      </trkpt>
      <trkpt lat="44.74584" lon="0.48451">
        <ele>139</ele>
        <time>2025-07-14T08:02:40Z</time>
      </trkpt>
      <trkpt lat="44.74583" lon="0.48453">
        <ele>139.2</ele>
        <time>2025-07-14T08:02:41Z</time>
      </trkpt>
      <trkpt lat="44.74581" lon="0.48455">
        <ele>139.2</ele>
        <time>2025-07-14T08:02:42Z</time>
      </trkpt>
      <trkpt lat="44.74579" lon="0.48457">
        <ele>139.4</ele>
        <time>2025-07-14T08:02:43Z</time>
      </trkpt>
      <trkpt lat="44.74577" lon="0.48459">
        <ele>139.6</ele>
        <time>2025-07-14T08:02:44Z</time>
      </trkpt>
      <trkpt lat="44.74575" lon="0.48461">
        <ele>139.6</ele>
        <time>2025-07-14T08:02:45Z</time>
      </trkpt>
      <trkpt lat="44.74573" lon="0.48463">
        <ele>139.6</ele>
        <time>2025-07-14T08:02:46Z</time>
      </trkpt>
      <trkpt lat="44.74571" lon="0.48465">
        <ele>139.8</ele>
        <time>2025-07-14T08:02:47Z</time>
      </trkpt>
      <trkpt lat="44.74569" lon="0.48467">
        <ele>140</ele>
        <time>2025-07-14T08:02:48Z</time>
      </trkpt>
      <trkpt lat="44.74567" lon="0.4847">
        <ele>140</ele>
        <time>2025-07-14T08:02:49Z</time>
      </trkpt>
      <trkpt lat="44.74565" lon="0.48472">
        <ele>140.2</ele>
        <time>2025-07-14T08:02:50Z</time>
      </trkpt>
      <trkpt lat="44.74563" lon="0.48473">
        <ele>140.2</ele>
        <time>2025-07-14T08:02:51Z</time>
      </trkpt>
      <trkpt lat="44.7456" lon="0.48475">
        <ele>140.4</ele>
        <time>2025-07-14T08:02:52Z</time>
      </trkpt>
      <trkpt lat="44.74558" lon="0.48477">
        <ele>140.4</ele>
        <time>2025-07-14T08:02:53Z</time>
      </trkpt>
      <trkpt lat="44.74556" lon="0.4848">
        <ele>140.4</ele>
        <time>2025-07-14T08:02:54Z</time>
      </trkpt>
      <trkpt lat="44.74554" lon="0.48482">
        <ele>140.6</ele>
        <time>2025-07-14T08:02:55Z</time>
      </trkpt>
      <trkpt lat="44.74552" lon="0.48485">
        <ele>140.8</ele>
        <time>2025-07-14T08:02:56Z</time>
      </trkpt>
      <trkpt lat="44.74551" lon="0.48487">
        <ele>140.8</ele>
        <time>2025-07-14T08:02:57Z</time>
      </trkpt>
      <trkpt lat="44.74549" lon="0.48489">
        <ele>141</ele>
        <time>2025-07-14T08:02:58Z</time>
      </trkpt>
      <trkpt lat="44.74547" lon="0.48491">
        <ele>141</ele>
        <time>2025-07-14T08:02:59Z</time>
      </trkpt>
      <trkpt lat="44.74545" lon="0.48493">
        <ele>141.2</ele>
        <time>2025-07-14T08:03:00Z</time>
      </trkpt>
      <trkpt lat="44.74543" lon="0.48495">
        <ele>141.2</ele>
        <time>2025-07-14T08:03:01Z</time>
      </trkpt>
      <trkpt lat="44.74541" lon="0.48498">
        <ele>141.4</ele>
        <time>2025-07-14T08:03:02Z</time>
      </trkpt>
      <trkpt lat="44.74539" lon="0.48499">
        <ele>141.6</ele>
        <time>2025-07-14T08:03:03Z</time>
      </trkpt>
      <trkpt lat="44.74537" lon="0.48501">
        <ele>141.8</ele>
        <time>2025-07-14T08:03:04Z</time>
      </trkpt>
      <trkpt lat="44.74536" lon="0.48503">
        <ele>141.8</ele>
        <time>2025-07-14T08:03:05Z</time>
      </trkpt>
      <trkpt lat="44.74534" lon="0.48505">
        <ele>142</ele>
        <time>2025-07-14T08:03:06Z</time>
      </trkpt>
      <trkpt lat="44.74532" lon="0.48507">
        <ele>142.2</ele>
        <time>2025-07-14T08:03:07Z</time>
      </trkpt>
      <trkpt lat="44.7453" lon="0.48509">
        <ele>142.4</ele>
        <time>2025-07-14T08:03:08Z</time>
      </trkpt>
      <trkpt lat="44.74528" lon="0.48512">
        <ele>142.4</ele>
        <time>2025-07-14T08:03:09Z</time>
      </trkpt>
      <trkpt lat="44.74525" lon="0.48514">
        <ele>142.6</ele>
        <time>2025-07-14T08:03:10Z</time>
      </trkpt>
      <trkpt lat="44.74523" lon="0.48516">
        <ele>142.6</ele>
        <time>2025-07-14T08:03:11Z</time>
      </trkpt>
      <trkpt lat="44.7452" lon="0.48518">
        <ele>142.8</ele>
        <time>2025-07-14T08:03:12Z</time>
      </trkpt>
      <trkpt lat="44.74518" lon="0.4852">
        <ele>143</ele>
        <time>2025-07-14T08:03:13Z</time>
      </trkpt>
      <trkpt lat="44.74516" lon="0.48521">
        <ele>143</ele>
        <time>2025-07-14T08:03:14Z</time>
      </trkpt>
      <trkpt lat="44.74513" lon="0.48523">
        <ele>143.2</ele>
        <time>2025-07-14T08:03:15Z</time>
      </trkpt>
      <trkpt lat="44.74511" lon="0.48525">
        <ele>143.4</ele>
        <time>2025-07-14T08:03:16Z</time>
      </trkpt>
      <trkpt lat="44.74509" lon="0.48527">
        <ele>143.4</ele>
        <time>2025-07-14T08:03:17Z</time>
      </trkpt>
      <trkpt lat="44.74506" lon="0.48529">
        <ele>143.6</ele>
        <time>2025-07-14T08:03:18Z</time>
      </trkpt>
      <trkpt lat="44.74504" lon="0.48531">
        <ele>143.6</ele>
        <time>2025-07-14T08:03:19Z</time>
      </trkpt>
      <trkpt lat="44.74502" lon="0.48532">
        <ele>143.8</ele>
        <time>2025-07-14T08:03:20Z</time>
      </trkpt>
      <trkpt lat="44.745" lon="0.48534">
        <ele>143.8</ele>
        <time>2025-07-14T08:03:21Z</time>
      </trkpt>
      <trkpt lat="44.74497" lon="0.48536">
        <ele>144</ele>
        <time>2025-07-14T08:03:22Z</time>
      </trkpt>
      <trkpt lat="44.74495" lon="0.48538">
        <ele>144.2</ele>
        <time>2025-07-14T08:03:23Z</time>
      </trkpt>
      <trkpt lat="44.74493" lon="0.48541">
        <ele>144.2</ele>
        <time>2025-07-14T08:03:24Z</time>
      </trkpt>
      <trkpt lat="44.7449" lon="0.48543">
        <ele>144.2</ele>
        <time>2025-07-14T08:03:25Z</time>
      </trkpt>
      <trkpt lat="44.74488" lon="0.48545">
        <ele>144.4</ele>
        <time>2025-07-14T08:03:26Z</time>
      </trkpt>
      <trkpt lat="44.74486" lon="0.48547">
        <ele>144.4</ele>
        <time>2025-07-14T08:03:27Z</time>
      </trkpt>
      <trkpt lat="44.74483" lon="0.48548">
        <ele>144.6</ele>
        <time>2025-07-14T08:03:28Z</time>
      </trkpt>
      <trkpt lat="44.7448" lon="0.4855">
        <ele>144.6</ele>
        <time>2025-07-14T08:03:29Z</time>
      </trkpt>
      <trkpt lat="44.74478" lon="0.48551">
        <ele>144.6</ele>
        <time>2025-07-14T08:03:30Z</time>
      </trkpt>
      <trkpt lat="44.74474" lon="0.48554">
        <ele>144.6</ele>
        <time>2025-07-14T08:03:31Z</time>
      </trkpt>
      <trkpt lat="44.74471" lon="0.48555">
        <ele>144.6</ele>
        <time>2025-07-14T08:03:32Z</time>
      </trkpt>
      <trkpt lat="44.74468" lon="0.48556">
        <ele>144.8</ele>
        <time>2025-07-14T08:03:33Z</time>
      </trkpt>
      <trkpt lat="44.74465" lon="0.48558">
        <ele>144.8</ele>
        <time>2025-07-14T08:03:34Z</time>
      </trkpt>
      <trkpt lat="44.74462" lon="0.4856">
        <ele>145</ele>
        <time>2025-07-14T08:03:35Z</time>
      </trkpt>
      <trkpt lat="44.74459" lon="0.48561">
        <ele>145</ele>
        <time>2025-07-14T08:03:36Z</time>
      </trkpt>
      <trkpt lat="44.74456" lon="0.48563">
        <ele>145</ele>
        <time>2025-07-14T08:03:37Z</time>
      </trkpt>
      <trkpt lat="44.74453" lon="0.48565">
        <ele>145</ele>
        <time>2025-07-14T08:03:38Z</time>
      </trkpt>
      <trkpt lat="44.74451" lon="0.48567">
        <ele>145.2</ele>
        <time>2025-07-14T08:03:39Z</time>
      </trkpt>
      <trkpt lat="44.74448" lon="0.4857">
        <ele>145.4</ele>
        <time>2025-07-14T08:03:40Z</time>
      </trkpt>
      <trkpt lat="44.74445" lon="0.48573">
        <ele>145.4</ele>
        <time>2025-07-14T08:03:41Z</time>
      </trkpt>
      <trkpt lat="44.74442" lon="0.48576">
        <ele>145.6</ele>
        <time>2025-07-14T08:03:42Z</time>
      </trkpt>
      <trkpt lat="44.7444" lon="0.48579">
        <ele>145.6</ele>
        <time>2025-07-14T08:03:43Z</time>
      </trkpt>
      <trkpt lat="44.74438" lon="0.48581">
        <ele>145.8</ele>
        <time>2025-07-14T08:03:44Z</time>
      </trkpt>
      <trkpt lat="44.74435" lon="0.48583">
        <ele>145.8</ele>
        <time>2025-07-14T08:03:45Z</time>
      </trkpt>
      <trkpt lat="44.74433" lon="0.48585">
        <ele>146.2</ele>
        <time>2025-07-14T08:03:46Z</time>
      </trkpt>
      <trkpt lat="44.7443" lon="0.48587">
        <ele>146.4</ele>
        <time>2025-07-14T08:03:47Z</time>
      </trkpt>
      <trkpt lat="44.74427" lon="0.48588">
        <ele>146.6</ele>
        <time>2025-07-14T08:03:48Z</time>
      </trkpt>
      <trkpt lat="44.74425" lon="0.4859">
        <ele>146.8</ele>
        <time>2025-07-14T08:03:49Z</time>
      </trkpt>
      <trkpt lat="44.74422" lon="0.48592">
        <ele>147</ele>
        <time>2025-07-14T08:03:50Z</time>
      </trkpt>
      <trkpt lat="44.74419" lon="0.48594">
        <ele>147.2</ele>
        <time>2025-07-14T08:03:51Z</time>
      </trkpt>
      <trkpt lat="44.74415" lon="0.48596">
        <ele>147.4</ele>
        <time>2025-07-14T08:03:52Z</time>
      </trkpt>
      <trkpt lat="44.74412" lon="0.48598">
        <ele>147.6</ele>
        <time>2025-07-14T08:03:53Z</time>
      </trkpt>
      <trkpt lat="44.7441" lon="0.486">
        <ele>147.8</ele>
        <time>2025-07-14T08:03:54Z</time>
      </trkpt>
      <trkpt lat="44.74407" lon="0.48601">
        <ele>148</ele>
        <time>2025-07-14T08:03:55Z</time>
      </trkpt>
      <trkpt lat="44.74404" lon="0.48603">
        <ele>148.2</ele>
        <time>2025-07-14T08:03:56Z</time>
      </trkpt>
      <trkpt lat="44.74402" lon="0.48605">
        <ele>148.2</ele>
        <time>2025-07-14T08:03:57Z</time>
      </trkpt>
      <trkpt lat="44.74399" lon="0.48607">
        <ele>148.4</ele>
        <time>2025-07-14T08:03:58Z</time>
      </trkpt>
      <trkpt lat="44.74397" lon="0.4861">
        <ele>148.4</ele>
        <time>2025-07-14T08:03:59Z</time>
      </trkpt>
      <trkpt lat="44.74395" lon="0.48614">
        <ele>148.6</ele>
        <time>2025-07-14T08:04:00Z</time>
      </trkpt>
      <trkpt lat="44.74393" lon="0.48617">
        <ele>148.8</ele>
        <time>2025-07-14T08:04:01Z</time>
      </trkpt>
      <trkpt lat="44.74392" lon="0.4862">
        <ele>149</ele>
        <time>2025-07-14T08:04:02Z</time>
      </trkpt>
      <trkpt lat="44.74391" lon="0.48624">
        <ele>149.2</ele>
        <time>2025-07-14T08:04:03Z</time>
      </trkpt>
      <trkpt lat="44.7439" lon="0.48628">
        <ele>149.2</ele>
        <time>2025-07-14T08:04:04Z</time>
      </trkpt>
      <trkpt lat="44.74389" lon="0.48631">
        <ele>149.4</ele>
        <time>2025-07-14T08:04:05Z</time>
      </trkpt>
      <trkpt lat="44.74387" lon="0.48633">
        <ele>149.6</ele>
        <time>2025-07-14T08:04:06Z</time>
      </trkpt>
      <trkpt lat="44.74385" lon="0.48636">
        <ele>149.8</ele>
        <time>2025-07-14T08:04:07Z</time>
      </trkpt>
      <trkpt lat="44.74383" lon="0.48638">
        <ele>150.2</ele>
        <time>2025-07-14T08:04:08Z</time>
      </trkpt>
      <trkpt lat="44.74381" lon="0.4864">
        <ele>150.4</ele>
        <time>2025-07-14T08:04:09Z</time>
      </trkpt>
      <trkpt lat="44.74379" lon="0.48642">
        <ele>150.6</ele>
        <time>2025-07-14T08:04:10Z</time>
      </trkpt>
      <trkpt lat="44.74377" lon="0.48644">
        <ele>150.8</ele>
        <time>2025-07-14T08:04:11Z</time>
      </trkpt>
      <trkpt lat="44.74375" lon="0.48646">
        <ele>151</ele>
        <time>2025-07-14T08:04:12Z</time>
      </trkpt>
      <trkpt lat="44.74372" lon="0.48647">
        <ele>151.2</ele>
        <time>2025-07-14T08:04:13Z</time>
      </trkpt>
      <trkpt lat="44.7437" lon="0.48649">
        <ele>151.4</ele>
        <time>2025-07-14T08:04:14Z</time>
      </trkpt>
      <trkpt lat="44.74368" lon="0.48651">
        <ele>151.6</ele>
        <time>2025-07-14T08:04:15Z</time>
      </trkpt>
      <trkpt lat="44.74366" lon="0.48653">
        <ele>151.6</ele>
        <time>2025-07-14T08:04:16Z</time>
      </trkpt>
      <trkpt lat="44.74364" lon="0.48656">
        <ele>151.8</ele>
        <time>2025-07-14T08:04:17Z</time>
      </trkpt>
      <trkpt lat="44.74362" lon="0.48658">
        <ele>152</ele>
        <time>2025-07-14T08:04:18Z</time>
      </trkpt>
      <trkpt lat="44.7436" lon="0.4866">
        <ele>152.2</ele>
        <time>2025-07-14T08:04:19Z</time>
      </trkpt>
      <trkpt lat="44.74358" lon="0.48662">
        <ele>152.2</ele>
        <time>2025-07-14T08:04:20Z</time>
      </trkpt>
      <trkpt lat="44.74355" lon="0.48664">
        <ele>152.4</ele>
        <time>2025-07-14T08:04:21Z</time>
      </trkpt>
      <trkpt lat="44.74353" lon="0.48666">
        <ele>152.4</ele>
        <time>2025-07-14T08:04:22Z</time>
      </trkpt>
      <trkpt lat="44.74351" lon="0.48668">
        <ele>152.6</ele>
        <time>2025-07-14T08:04:23Z</time>
      </trkpt>
      <trkpt lat="44.74349" lon="0.48671">
        <ele>152.8</ele>
        <time>2025-07-14T08:04:24Z</time>
      </trkpt>
      <trkpt lat="44.74347" lon="0.48673">
        <ele>153</ele>
        <time>2025-07-14T08:04:25Z</time>
      </trkpt>
      <trkpt lat="44.74344" lon="0.48676">
        <ele>153</ele>
        <time>2025-07-14T08:04:26Z</time>
      </trkpt>
      <trkpt lat="44.74342" lon="0.48678">
        <ele>153.2</ele>
        <time>2025-07-14T08:04:27Z</time>
      </trkpt>
      <trkpt lat="44.7434" lon="0.4868">
        <ele>153.4</ele>
        <time>2025-07-14T08:04:28Z</time>
      </trkpt>
      <trkpt lat="44.74338" lon="0.48682">
        <ele>153.4</ele>
        <time>2025-07-14T08:04:29Z</time>
      </trkpt>
      <trkpt lat="44.74336" lon="0.48683">
        <ele>153.6</ele>
        <time>2025-07-14T08:04:30Z</time>
      </trkpt>
      <trkpt lat="44.74333" lon="0.48685">
        <ele>153.8</ele>
        <time>2025-07-14T08:04:31Z</time>
      </trkpt>
      <trkpt lat="44.7433" lon="0.48686">
        <ele>154</ele>
        <time>2025-07-14T08:04:32Z</time>
      </trkpt>
      <trkpt lat="44.74328" lon="0.48688">
        <ele>154.2</ele>
        <time>2025-07-14T08:04:33Z</time>
      </trkpt>
      <trkpt lat="44.74325" lon="0.4869">
        <ele>154.4</ele>
        <time>2025-07-14T08:04:34Z</time>
      </trkpt>
      <trkpt lat="44.74323" lon="0.48691">
        <ele>154.6</ele>
        <time>2025-07-14T08:04:35Z</time>
      </trkpt>
      <trkpt lat="44.74322" lon="0.48693">
        <ele>154.8</ele>
        <time>2025-07-14T08:04:36Z</time>
      </trkpt>
      <trkpt lat="44.74319" lon="0.48694">
        <ele>155</ele>
        <time>2025-07-14T08:04:37Z</time>
      </trkpt>
      <trkpt lat="44.74317" lon="0.48696">
        <ele>155.2</ele>
        <time>2025-07-14T08:04:38Z</time>
      </trkpt>
      <trkpt lat="44.74315" lon="0.48698">
        <ele>155.6</ele>
        <time>2025-07-14T08:04:39Z</time>
      </trkpt>
      <trkpt lat="44.74313" lon="0.487">
        <ele>155.8</ele>
        <time>2025-07-14T08:04:40Z</time>
      </trkpt>
      <trkpt lat="44.7431" lon="0.48702">
        <ele>156</ele>
        <time>2025-07-14T08:04:41Z</time>
      </trkpt>
      <trkpt lat="44.74307" lon="0.48704">
        <ele>156.2</ele>
        <time>2025-07-14T08:04:42Z</time>
      </trkpt>
      <trkpt lat="44.74305" lon="0.48706">
        <ele>156.4</ele>
        <time>2025-07-14T08:04:43Z</time>
      </trkpt>
      <trkpt lat="44.74302" lon="0.48708">
        <ele>156.6</ele>
        <time>2025-07-14T08:04:44Z</time>
      </trkpt>
      <trkpt lat="44.74299" lon="0.4871">
        <ele>156.8</ele>
        <time>2025-07-14T08:04:45Z</time>
      </trkpt>
      <trkpt lat="44.74296" lon="0.48713">
        <ele>157</ele>
        <time>2025-07-14T08:04:46Z</time>
      </trkpt>
      <trkpt lat="44.74294" lon="0.48715">
        <ele>157.2</ele>
        <time>2025-07-14T08:04:47Z</time>
      </trkpt>
      <trkpt lat="44.74292" lon="0.48716">
        <ele>157.4</ele>
        <time>2025-07-14T08:04:48Z</time>
      </trkpt>
      <trkpt lat="44.74289" lon="0.48717">
        <ele>157.6</ele>
        <time>2025-07-14T08:04:49Z</time>
      </trkpt>
      <trkpt lat="44.74286" lon="0.48718">
        <ele>157.8</ele>
        <time>2025-07-14T08:04:50Z</time>
      </trkpt>
      <trkpt lat="44.74283" lon="0.4872">
        <ele>158</ele>
        <time>2025-07-14T08:04:51Z</time>
      </trkpt>
      <trkpt lat="44.74281" lon="0.48723">
        <ele>158.2</ele>
        <time>2025-07-14T08:04:52Z</time>
      </trkpt>
      <trkpt lat="44.74278" lon="0.48725">
        <ele>158.4</ele>
        <time>2025-07-14T08:04:53Z</time>
      </trkpt>
      <trkpt lat="44.74275" lon="0.48727">
        <ele>158.6</ele>
        <time>2025-07-14T08:04:54Z</time>
      </trkpt>
      <trkpt lat="44.74273" lon="0.4873">
        <ele>158.8</ele>
        <time>2025-07-14T08:04:55Z</time>
      </trkpt>
      <trkpt lat="44.7427" lon="0.48732">
        <ele>158.8</ele>
        <time>2025-07-14T08:04:56Z</time>
      </trkpt>
      <trkpt lat="44.74268" lon="0.48735">
        <ele>158.8</ele>
        <time>2025-07-14T08:04:57Z</time>
      </trkpt>
      <trkpt lat="44.74266" lon="0.48737">
        <ele>159</ele>
        <time>2025-07-14T08:04:58Z</time>
      </trkpt>
      <trkpt lat="44.74263" lon="0.48739">
        <ele>159</ele>
        <time>2025-07-14T08:04:59Z</time>
      </trkpt>
      <trkpt lat="44.74261" lon="0.48742">
        <ele>159</ele>
        <time>2025-07-14T08:05:00Z</time>
      </trkpt>
      <trkpt lat="44.74259" lon="0.48745">
        <ele>159.2</ele>
        <time>2025-07-14T08:05:01Z</time>
      </trkpt>
      <trkpt lat="44.74256" lon="0.48748">
        <ele>159.2</ele>
        <time>2025-07-14T08:05:02Z</time>
      </trkpt>
      <trkpt lat="44.74254" lon="0.48751">
        <ele>159.2</ele>
        <time>2025-07-14T08:05:03Z</time>
      </trkpt>
      <trkpt lat="44.74252" lon="0.48754">
        <ele>159.2</ele>
        <time>2025-07-14T08:05:04Z</time>
      </trkpt>
      <trkpt lat="44.74249" lon="0.48756">
        <ele>159.2</ele>
        <time>2025-07-14T08:05:05Z</time>
      </trkpt>
      <trkpt lat="44.74246" lon="0.48758">
        <ele>159.2</ele>
        <time>2025-07-14T08:05:06Z</time>
      </trkpt>
      <trkpt lat="44.74243" lon="0.4876">
        <ele>159.2</ele>
        <time>2025-07-14T08:05:07Z</time>
      </trkpt>
      <trkpt lat="44.7424" lon="0.48762">
        <ele>159.4</ele>
        <time>2025-07-14T08:05:08Z</time>
      </trkpt>
      <trkpt lat="44.74238" lon="0.48765">
        <ele>159.4</ele>
        <time>2025-07-14T08:05:09Z</time>
      </trkpt>
      <trkpt lat="44.74235" lon="0.48767">
        <ele>159.4</ele>
        <time>2025-07-14T08:05:10Z</time>
      </trkpt>
      <trkpt lat="44.74232" lon="0.48769">
        <ele>159.6</ele>
        <time>2025-07-14T08:05:11Z</time>
      </trkpt>
      <trkpt lat="44.7423" lon="0.48771">
        <ele>159.8</ele>
        <time>2025-07-14T08:05:12Z</time>
      </trkpt>
      <trkpt lat="44.74227" lon="0.48772">
        <ele>159.8</ele>
        <time>2025-07-14T08:05:13Z</time>
      </trkpt>
      <trkpt lat="44.74224" lon="0.48774">
        <ele>159.8</ele>
        <time>2025-07-14T08:05:14Z</time>
      </trkpt>
      <trkpt lat="44.74221" lon="0.48776">
        <ele>160</ele>
        <time>2025-07-14T08:05:15Z</time>
      </trkpt>
      <trkpt lat="44.74218" lon="0.48778">
        <ele>160.2</ele>
        <time>2025-07-14T08:05:16Z</time>
      </trkpt>
      <trkpt lat="44.74215" lon="0.4878">
        <ele>160.2</ele>
        <time>2025-07-14T08:05:17Z</time>
      </trkpt>
      <trkpt lat="44.74213" lon="0.48782">
        <ele>160.4</ele>
        <time>2025-07-14T08:05:18Z</time>
      </trkpt>
      <trkpt lat="44.74211" lon="0.48784">
        <ele>160.6</ele>
        <time>2025-07-14T08:05:19Z</time>
      </trkpt>
      <trkpt lat="44.74209" lon="0.48787">
        <ele>160.6</ele>
        <time>2025-07-14T08:05:20Z</time>
      </trkpt>
      <trkpt lat="44.74207" lon="0.4879">
        <ele>160.8</ele>
        <time>2025-07-14T08:05:21Z</time>
      </trkpt>
      <trkpt lat="44.74205" lon="0.48792">
        <ele>161</ele>
        <time>2025-07-14T08:05:22Z</time>
      </trkpt>
      <trkpt lat="44.74202" lon="0.48796">
        <ele>161.2</ele>
        <time>2025-07-14T08:05:23Z</time>
      </trkpt>
      <trkpt lat="44.742" lon="0.48799">
        <ele>161.4</ele>
        <time>2025-07-14T08:05:24Z</time>
      </trkpt>
      <trkpt lat="44.74198" lon="0.48802">
        <ele>161.4</ele>
        <time>2025-07-14T08:05:25Z</time>
      </trkpt>
      <trkpt lat="44.74196" lon="0.48806">
        <ele>161.6</ele>
        <time>2025-07-14T08:05:26Z</time>
      </trkpt>
      <trkpt lat="44.74193" lon="0.48809">
        <ele>161.8</ele>
        <time>2025-07-14T08:05:27Z</time>
      </trkpt>
      <trkpt lat="44.74191" lon="0.48811">
        <ele>162</ele>
        <time>2025-07-14T08:05:28Z</time>
      </trkpt>
      <trkpt lat="44.74188" lon="0.48814">
        <ele>162</ele>
        <time>2025-07-14T08:05:29Z</time>
      </trkpt>
      <trkpt lat="44.74186" lon="0.48816">
        <ele>162.2</ele>
        <time>2025-07-14T08:05:30Z</time>
      </trkpt>
      <trkpt lat="44.74183" lon="0.48818">
        <ele>162.4</ele>
        <time>2025-07-14T08:05:31Z</time>
      </trkpt>
      <trkpt lat="44.74181" lon="0.4882">
        <ele>162.6</ele>
        <time>2025-07-14T08:05:32Z</time>
      </trkpt>
      <trkpt lat="44.74178" lon="0.48822">
        <ele>162.6</ele>
        <time>2025-07-14T08:05:33Z</time>
      </trkpt>
      <trkpt lat="44.74176" lon="0.48825">
        <ele>162.8</ele>
        <time>2025-07-14T08:05:34Z</time>
      </trkpt>
      <trkpt lat="44.74174" lon="0.48827">
        <ele>162.8</ele>
        <time>2025-07-14T08:05:35Z</time>
      </trkpt>
      <trkpt lat="44.74172" lon="0.4883">
        <ele>163</ele>
        <time>2025-07-14T08:05:36Z</time>
      </trkpt>
      <trkpt lat="44.7417" lon="0.48831">
        <ele>163.2</ele>
        <time>2025-07-14T08:05:37Z</time>
      </trkpt>
      <trkpt lat="44.74168" lon="0.48834">
        <ele>163.4</ele>
        <time>2025-07-14T08:05:38Z</time>
      </trkpt>
      <trkpt lat="44.74166" lon="0.48836">
        <ele>163.6</ele>
        <time>2025-07-14T08:05:39Z</time>
      </trkpt>
      <trkpt lat="44.74164" lon="0.48838">
        <ele>163.8</ele>
        <time>2025-07-14T08:05:40Z</time>
      </trkpt>
      <trkpt lat="44.74161" lon="0.4884">
        <ele>163.8</ele>
        <time>2025-07-14T08:05:41Z</time>
      </trkpt>
      <trkpt lat="44.74159" lon="0.48843">
        <ele>164</ele>
        <time>2025-07-14T08:05:42Z</time>
      </trkpt>
      <trkpt lat="44.74156" lon="0.48845">
        <ele>164.2</ele>
        <time>2025-07-14T08:05:43Z</time>
      </trkpt>
      <trkpt lat="44.74153" lon="0.48848">
        <ele>164.2</ele>
        <time>2025-07-14T08:05:44Z</time>
      </trkpt>
      <trkpt lat="44.7415" lon="0.4885">
        <ele>164.4</ele>
        <time>2025-07-14T08:05:45Z</time>
      </trkpt>
      <trkpt lat="44.74147" lon="0.48853">
        <ele>164.6</ele>
        <time>2025-07-14T08:05:46Z</time>
      </trkpt>
      <trkpt lat="44.74144" lon="0.48855">
        <ele>164.6</ele>
        <time>2025-07-14T08:05:47Z</time>
      </trkpt>
      <trkpt lat="44.74142" lon="0.48857">
        <ele>164.8</ele>
        <time>2025-07-14T08:05:48Z</time>
      </trkpt>
      <trkpt lat="44.74139" lon="0.4886">
        <ele>164.8</ele>
        <time>2025-07-14T08:05:49Z</time>
      </trkpt>
      <trkpt lat="44.74136" lon="0.48862">
        <ele>164.8</ele>
        <time>2025-07-14T08:05:50Z</time>
      </trkpt>
      <trkpt lat="44.74133" lon="0.48865">
        <ele>165</ele>
        <time>2025-07-14T08:05:51Z</time>
      </trkpt>
      <trkpt lat="44.7413" lon="0.48867">
        <ele>165</ele>
        <time>2025-07-14T08:05:52Z</time>
      </trkpt>
      <trkpt lat="44.74127" lon="0.48869">
        <ele>165.2</ele>
        <time>2025-07-14T08:05:53Z</time>
      </trkpt>
      <trkpt lat="44.74124" lon="0.48871">
        <ele>165.2</ele>
        <time>2025-07-14T08:05:54Z</time>
      </trkpt>
      <trkpt lat="44.74122" lon="0.48873">
        <ele>165.4</ele>
        <time>2025-07-14T08:05:55Z</time>
      </trkpt>
      <trkpt lat="44.74119" lon="0.48876">
        <ele>165.6</ele>
        <time>2025-07-14T08:05:56Z</time>
      </trkpt>
      <trkpt lat="44.74117" lon="0.48879">
        <ele>165.6</ele>
        <time>2025-07-14T08:05:57Z</time>
      </trkpt>
      <trkpt lat="44.74117" lon="0.48884">
        <ele>165.8</ele>
        <time>2025-07-14T08:05:58Z</time>
      </trkpt>
      <trkpt lat="44.74117" lon="0.48889">
        <ele>165.8</ele>
        <time>2025-07-14T08:05:59Z</time>
      </trkpt>
      <trkpt lat="44.74119" lon="0.48895">
        <ele>165.6</ele>
        <time>2025-07-14T08:06:00Z</time>
      </trkpt>
      <trkpt lat="44.74122" lon="0.489">
        <ele>165.4</ele>
        <time>2025-07-14T08:06:01Z</time>
      </trkpt>
      <trkpt lat="44.74126" lon="0.48903">
        <ele>165.2</ele>
        <time>2025-07-14T08:06:02Z</time>
      </trkpt>
      <trkpt lat="44.7413" lon="0.48906">
        <ele>165</ele>
        <time>2025-07-14T08:06:03Z</time>
      </trkpt>
      <trkpt lat="44.74135" lon="0.4891">
        <ele>164.8</ele>
        <time>2025-07-14T08:06:04Z</time>
      </trkpt>
      <trkpt lat="44.7414" lon="0.48914">
        <ele>164.6</ele>
        <time>2025-07-14T08:06:05Z</time>
      </trkpt>
      <trkpt lat="44.74145" lon="0.48919">
        <ele>164.2</ele>
        <time>2025-07-14T08:06:06Z</time>
      </trkpt>
      <trkpt lat="44.74148" lon="0.48926">
        <ele>163.8</ele>
        <time>2025-07-14T08:06:07Z</time>
      </trkpt>
      <trkpt lat="44.7415" lon="0.48934">
        <ele>163.6</ele>
        <time>2025-07-14T08:06:08Z</time>
      </trkpt>
      <trkpt lat="44.74153" lon="0.48942">
        <ele>163.4</ele>
        <time>2025-07-14T08:06:09Z</time>
      </trkpt>
      <trkpt lat="44.74157" lon="0.4895">
        <ele>163.2</ele>
        <time>2025-07-14T08:06:10Z</time>
      </trkpt>
      <trkpt lat="44.74161" lon="0.48958">
        <ele>162.8</ele>
        <time>2025-07-14T08:06:11Z</time>
      </trkpt>
      <trkpt lat="44.74164" lon="0.48966">
        <ele>162.4</ele>
        <time>2025-07-14T08:06:12Z</time>
      </trkpt>
      <trkpt lat="44.74168" lon="0.48973">
        <ele>162.2</ele>
        <time>2025-07-14T08:06:13Z</time>
      </trkpt>
      <trkpt lat="44.74171" lon="0.4898">
        <ele>162</ele>
        <time>2025-07-14T08:06:14Z</time>
      </trkpt>
      <trkpt lat="44.74174" lon="0.48986">
        <ele>161.6</ele>
        <time>2025-07-14T08:06:15Z</time>
      </trkpt>
      <trkpt lat="44.74177" lon="0.48993">
        <ele>161.4</ele>
        <time>2025-07-14T08:06:16Z</time>
      </trkpt>
      <trkpt lat="44.74179" lon="0.49">
        <ele>161.2</ele>
        <time>2025-07-14T08:06:17Z</time>
      </trkpt>
      <trkpt lat="44.74182" lon="0.49006">
        <ele>161.2</ele>
        <time>2025-07-14T08:06:18Z</time>
      </trkpt>
      <trkpt lat="44.74185" lon="0.49012">
        <ele>161</ele>
        <time>2025-07-14T08:06:19Z</time>
      </trkpt>
      <trkpt lat="44.7419" lon="0.49018">
        <ele>160.8</ele>
        <time>2025-07-14T08:06:20Z</time>
      </trkpt>
      <trkpt lat="44.74195" lon="0.49021">
        <ele>160.8</ele>
        <time>2025-07-14T08:06:21Z</time>
      </trkpt>
      <trkpt lat="44.742" lon="0.49022">
        <ele>160.8</ele>
        <time>2025-07-14T08:06:22Z</time>
      </trkpt>
      <trkpt lat="44.74204" lon="0.49022">
        <ele>160.6</ele>
        <time>2025-07-14T08:06:23Z</time>
      </trkpt>
      <trkpt lat="44.74209" lon="0.49021">
        <ele>160.6</ele>
        <time>2025-07-14T08:06:24Z</time>
      </trkpt>
      <trkpt lat="44.74214" lon="0.49019">
        <ele>160.6</ele>
        <time>2025-07-14T08:06:25Z</time>
      </trkpt>
      <trkpt lat="44.74219" lon="0.49016">
        <ele>160.4</ele>
        <time>2025-07-14T08:06:26Z</time>
      </trkpt>
      <trkpt lat="44.74225" lon="0.49012">
        <ele>160</ele>
        <time>2025-07-14T08:06:27Z</time>
      </trkpt>
      <trkpt lat="44.74231" lon="0.49008">
        <ele>160</ele>
        <time>2025-07-14T08:06:28Z</time>
      </trkpt>
      <trkpt lat="44.74237" lon="0.49004">
        <ele>159.6</ele>
        <time>2025-07-14T08:06:29Z</time>
      </trkpt>
      <trkpt lat="44.74244" lon="0.49">
        <ele>159.2</ele>
        <time>2025-07-14T08:06:30Z</time>
      </trkpt>
      <trkpt lat="44.7425" lon="0.48997">
        <ele>159</ele>
        <time>2025-07-14T08:06:31Z</time>
      </trkpt>
      <trkpt lat="44.74257" lon="0.48993">
        <ele>158.8</ele>
        <time>2025-07-14T08:06:32Z</time>
      </trkpt>
      <trkpt lat="44.74263" lon="0.4899">
        <ele>158.6</ele>
        <time>2025-07-14T08:06:33Z</time>
      </trkpt>
      <trkpt lat="44.7427" lon="0.48988">
        <ele>158</ele>
        <time>2025-07-14T08:06:34Z</time>
      </trkpt>
      <trkpt lat="44.74276" lon="0.48987">
        <ele>157.6</ele>
        <time>2025-07-14T08:06:35Z</time>
      </trkpt>
      <trkpt lat="44.74283" lon="0.48989">
        <ele>157.2</ele>
        <time>2025-07-14T08:06:36Z</time>
      </trkpt>
      <trkpt lat="44.74287" lon="0.48994">
        <ele>157</ele>
        <time>2025-07-14T08:06:37Z</time>
      </trkpt>
      <trkpt lat="44.74291" lon="0.49001">
        <ele>156.8</ele>
        <time>2025-07-14T08:06:38Z</time>
      </trkpt>
      <trkpt lat="44.74294" lon="0.49007">
        <ele>156.8</ele>
        <time>2025-07-14T08:06:39Z</time>
      </trkpt>
      <trkpt lat="44.74297" lon="0.49014">
        <ele>156.6</ele>
        <time>2025-07-14T08:06:40Z</time>
      </trkpt>
      <trkpt lat="44.74301" lon="0.49021">
        <ele>156.6</ele>
        <time>2025-07-14T08:06:41Z</time>
      </trkpt>
      <trkpt lat="44.74305" lon="0.49027">
        <ele>156.8</ele>
        <time>2025-07-14T08:06:42Z</time>
      </trkpt>
      <trkpt lat="44.74308" lon="0.49034">
        <ele>156.8</ele>
        <time>2025-07-14T08:06:43Z</time>
      </trkpt>
      <trkpt lat="44.74311" lon="0.4904">
        <ele>156.8</ele>
        <time>2025-07-14T08:06:44Z</time>
      </trkpt>
      <trkpt lat="44.74315" lon="0.49046">
        <ele>157</ele>
        <time>2025-07-14T08:06:45Z</time>
      </trkpt>
      <trkpt lat="44.74318" lon="0.49053">
        <ele>157.2</ele>
        <time>2025-07-14T08:06:46Z</time>
      </trkpt>
      <trkpt lat="44.74321" lon="0.4906">
        <ele>157.2</ele>
        <time>2025-07-14T08:06:47Z</time>
      </trkpt>
      <trkpt lat="44.74323" lon="0.49066">
        <ele>157.2</ele>
        <time>2025-07-14T08:06:48Z</time>
      </trkpt>
      <trkpt lat="44.74326" lon="0.49072">
        <ele>157.4</ele>
        <time>2025-07-14T08:06:49Z</time>
      </trkpt>
      <trkpt lat="44.74329" lon="0.49079">
        <ele>157.6</ele>
        <time>2025-07-14T08:06:50Z</time>
      </trkpt>
      <trkpt lat="44.74331" lon="0.49085">
        <ele>157.8</ele>
        <time>2025-07-14T08:06:51Z</time>
      </trkpt>
      <trkpt lat="44.74334" lon="0.49092">
        <ele>157.8</ele>
        <time>2025-07-14T08:06:52Z</time>
      </trkpt>
      <trkpt lat="44.74338" lon="0.49098">
        <ele>157.8</ele>
        <time>2025-07-14T08:06:53Z</time>
      </trkpt>
      <trkpt lat="44.74342" lon="0.49102">
        <ele>157.8</ele>
        <time>2025-07-14T08:06:54Z</time>
      </trkpt>
      <trkpt lat="44.74347" lon="0.49106">
        <ele>157.6</ele>
        <time>2025-07-14T08:06:55Z</time>
      </trkpt>
      <trkpt lat="44.74353" lon="0.4911">
        <ele>157.4</ele>
        <time>2025-07-14T08:06:56Z</time>
      </trkpt>
      <trkpt lat="44.74359" lon="0.49114">
        <ele>157.4</ele>
        <time>2025-07-14T08:06:57Z</time>
      </trkpt>
      <trkpt lat="44.74365" lon="0.49118">
        <ele>157</ele>
        <time>2025-07-14T08:06:58Z</time>
      </trkpt>
      <trkpt lat="44.74371" lon="0.49124">
        <ele>156.6</ele>
        <time>2025-07-14T08:06:59Z</time>
      </trkpt>
      <trkpt lat="44.74377" lon="0.49131">
        <ele>156.2</ele>
        <time>2025-07-14T08:07:00Z</time>
      </trkpt>
      <trkpt lat="44.74382" lon="0.49139">
        <ele>155.2</ele>
        <time>2025-07-14T08:07:01Z</time>
      </trkpt>
      <trkpt lat="44.74387" lon="0.49146">
        <ele>155</ele>
        <time>2025-07-14T08:07:02Z</time>
      </trkpt>
      <trkpt lat="44.74393" lon="0.49153">
        <ele>154.4</ele>
        <time>2025-07-14T08:07:03Z</time>
      </trkpt>
      <trkpt lat="44.74399" lon="0.49159">
        <ele>154</ele>
        <time>2025-07-14T08:07:04Z</time>
      </trkpt>
      <trkpt lat="44.74404" lon="0.49165">
        <ele>153.6</ele>
        <time>2025-07-14T08:07:05Z</time>
      </trkpt>
      <trkpt lat="44.74409" lon="0.49172">
        <ele>153.4</ele>
        <time>2025-07-14T08:07:06Z</time>
      </trkpt>
      <trkpt lat="44.74413" lon="0.49178">
        <ele>153.2</ele>
        <time>2025-07-14T08:07:07Z</time>
      </trkpt>
      <trkpt lat="44.74418" lon="0.49185">
        <ele>153</ele>
        <time>2025-07-14T08:07:08Z</time>
      </trkpt>
      <trkpt lat="44.74422" lon="0.49191">
        <ele>153.2</ele>
        <time>2025-07-14T08:07:09Z</time>
      </trkpt>
      <trkpt lat="44.74424" lon="0.49196">
        <ele>153</ele>
        <time>2025-07-14T08:07:10Z</time>
      </trkpt>
      <trkpt lat="44.74424" lon="0.49198">
        <ele>153</ele>
        <time>2025-07-14T08:07:11Z</time>
      </trkpt>
      <trkpt lat="44.74423" lon="0.49197">
        <ele>153</ele>
        <time>2025-07-14T08:07:12Z</time>
      </trkpt>
      <trkpt lat="44.74422" lon="0.49198">
        <ele>153</ele>
        <time>2025-07-14T08:07:13Z</time>
      </trkpt>
      <trkpt lat="44.7442" lon="0.49199">
        <ele>153</ele>
        <time>2025-07-14T08:07:14Z</time>
      </trkpt>
      <trkpt lat="44.74419" lon="0.49202">
        <ele>153.2</ele>
        <time>2025-07-14T08:07:15Z</time>
      </trkpt>
      <trkpt lat="44.74418" lon="0.49204">
        <ele>153.4</ele>
        <time>2025-07-14T08:07:16Z</time>
      </trkpt>
      <trkpt lat="44.74417" lon="0.49207">
        <ele>153.4</ele>
        <time>2025-07-14T08:07:17Z</time>
      </trkpt>
      <trkpt lat="44.74416" lon="0.4921">
        <ele>153.4</ele>
        <time>2025-07-14T08:07:18Z</time>
      </trkpt>
      <trkpt lat="44.74414" lon="0.49214">
        <ele>153.4</ele>
        <time>2025-07-14T08:07:19Z</time>
      </trkpt>
      <trkpt lat="44.74413" lon="0.49218">
        <ele>153.4</ele>
        <time>2025-07-14T08:07:20Z</time>
      </trkpt>
      <trkpt lat="44.74411" lon="0.49221">
        <ele>153.4</ele>
        <time>2025-07-14T08:07:21Z</time>
      </trkpt>
      <trkpt lat="44.7441" lon="0.49225">
        <ele>153.2</ele>
        <time>2025-07-14T08:07:22Z</time>
      </trkpt>
      <trkpt lat="44.74409" lon="0.49229">
        <ele>153.4</ele>
        <time>2025-07-14T08:07:23Z</time>
      </trkpt>
      <trkpt lat="44.74408" lon="0.49233">
        <ele>153.4</ele>
        <time>2025-07-14T08:07:24Z</time>
      </trkpt>
      <trkpt lat="44.74407" lon="0.49237">
        <ele>153.6</ele>
        <time>2025-07-14T08:07:25Z</time>
      </trkpt>
      <trkpt lat="44.74406" lon="0.49241">
        <ele>153.6</ele>
        <time>2025-07-14T08:07:26Z</time>
      </trkpt>
      <trkpt lat="44.74404" lon="0.49244">
        <ele>153.8</ele>
        <time>2025-07-14T08:07:27Z</time>
      </trkpt>
      <trkpt lat="44.74403" lon="0.49247">
        <ele>153.8</ele>
        <time>2025-07-14T08:07:28Z</time>
      </trkpt>
      <trkpt lat="44.74402" lon="0.49251">
        <ele>154</ele>
        <time>2025-07-14T08:07:29Z</time>
      </trkpt>
      <trkpt lat="44.744" lon="0.49255">
        <ele>154.2</ele>
        <time>2025-07-14T08:07:30Z</time>
      </trkpt>
      <trkpt lat="44.74399" lon="0.49258">
        <ele>154.4</ele>
        <time>2025-07-14T08:07:31Z</time>
      </trkpt>
      <trkpt lat="44.74398" lon="0.49262">
        <ele>154.4</ele>
        <time>2025-07-14T08:07:32Z</time>
      </trkpt>
      <trkpt lat="44.74397" lon="0.49266">
        <ele>154.6</ele>
        <time>2025-07-14T08:07:33Z</time>
      </trkpt>
      <trkpt lat="44.74395" lon="0.49269">
        <ele>154.8</ele>
        <time>2025-07-14T08:07:34Z</time>
      </trkpt>
      <trkpt lat="44.74394" lon="0.49273">
        <ele>155</ele>
        <time>2025-07-14T08:07:35Z</time>
      </trkpt>
      <trkpt lat="44.74393" lon="0.49276">
        <ele>155.2</ele>
        <time>2025-07-14T08:07:36Z</time>
      </trkpt>
      <trkpt lat="44.74392" lon="0.4928">
        <ele>155.4</ele>
        <time>2025-07-14T08:07:37Z</time>
      </trkpt>
      <trkpt lat="44.7439" lon="0.49284">
        <ele>155.6</ele>
        <time>2025-07-14T08:07:38Z</time>
      </trkpt>
      <trkpt lat="44.74389" lon="0.49287">
        <ele>156</ele>
        <time>2025-07-14T08:07:39Z</time>
      </trkpt>
      <trkpt lat="44.74388" lon="0.49291">
        <ele>156.4</ele>
        <time>2025-07-14T08:07:40Z</time>
      </trkpt>
      <trkpt lat="44.74387" lon="0.49295">
        <ele>156.8</ele>
        <time>2025-07-14T08:07:41Z</time>
      </trkpt>
      <trkpt lat="44.74386" lon="0.49298">
        <ele>157</ele>
        <time>2025-07-14T08:07:42Z</time>
      </trkpt>
      <trkpt lat="44.74385" lon="0.49302">
        <ele>157.4</ele>
        <time>2025-07-14T08:07:43Z</time>
      </trkpt>
      <trkpt lat="44.74383" lon="0.49306">
        <ele>157.6</ele>
        <time>2025-07-14T08:07:44Z</time>
      </trkpt>
      <trkpt lat="44.74382" lon="0.4931">
        <ele>157.8</ele>
        <time>2025-07-14T08:07:45Z</time>
      </trkpt>
      <trkpt lat="44.74381" lon="0.49313">
        <ele>158.2</ele>
        <time>2025-07-14T08:07:46Z</time>
      </trkpt>
      <trkpt lat="44.7438" lon="0.49318">
        <ele>158.2</ele>
        <time>2025-07-14T08:07:47Z</time>
      </trkpt>
      <trkpt lat="44.74379" lon="0.49321">
        <ele>158.4</ele>
        <time>2025-07-14T08:07:48Z</time>
      </trkpt>
      <trkpt lat="44.74378" lon="0.49325">
        <ele>158.6</ele>
        <time>2025-07-14T08:07:49Z</time>
      </trkpt>
      <trkpt lat="44.74377" lon="0.49329">
        <ele>158.8</ele>
        <time>2025-07-14T08:07:50Z</time>
      </trkpt>
      <trkpt lat="44.74377" lon="0.49332">
        <ele>159</ele>
        <time>2025-07-14T08:07:51Z</time>
      </trkpt>
      <trkpt lat="44.74376" lon="0.49336">
        <ele>159.2</ele>
        <time>2025-07-14T08:07:52Z</time>
      </trkpt>
      <trkpt lat="44.74375" lon="0.4934">
        <ele>159.4</ele>
        <time>2025-07-14T08:07:53Z</time>
      </trkpt>
      <trkpt lat="44.74374" lon="0.49344">
        <ele>159.6</ele>
        <time>2025-07-14T08:07:54Z</time>
      </trkpt>
      <trkpt lat="44.74372" lon="0.49348">
        <ele>159.6</ele>
        <time>2025-07-14T08:07:55Z</time>
      </trkpt>
      <trkpt lat="44.7437" lon="0.49351">
        <ele>159.8</ele>
        <time>2025-07-14T08:07:56Z</time>
      </trkpt>
      <trkpt lat="44.74369" lon="0.49355">
        <ele>160</ele>
        <time>2025-07-14T08:07:57Z</time>
      </trkpt>
      <trkpt lat="44.74369" lon="0.49359">
        <ele>160.2</ele>
        <time>2025-07-14T08:07:58Z</time>
      </trkpt>
      <trkpt lat="44.74369" lon="0.49363">
        <ele>160.2</ele>
        <time>2025-07-14T08:07:59Z</time>
      </trkpt>
      <trkpt lat="44.74368" lon="0.49367">
        <ele>160.4</ele>
        <time>2025-07-14T08:08:00Z</time>
      </trkpt>
      <trkpt lat="44.74368" lon="0.4937">
        <ele>160.4</ele>
        <time>2025-07-14T08:08:01Z</time>
      </trkpt>
      <trkpt lat="44.74367" lon="0.49374">
        <ele>160.6</ele>
        <time>2025-07-14T08:08:02Z</time>
      </trkpt>
      <trkpt lat="44.74366" lon="0.49379">
        <ele>160.8</ele>
        <time>2025-07-14T08:08:03Z</time>
      </trkpt>
      <trkpt lat="44.74366" lon="0.49384">
        <ele>161</ele>
        <time>2025-07-14T08:08:04Z</time>
      </trkpt>
      <trkpt lat="44.74365" lon="0.49389">
        <ele>161</ele>
        <time>2025-07-14T08:08:05Z</time>
      </trkpt>
      <trkpt lat="44.74363" lon="0.49394">
        <ele>161.2</ele>
        <time>2025-07-14T08:08:06Z</time>
      </trkpt>
      <trkpt lat="44.74362" lon="0.49398">
        <ele>161.2</ele>
        <time>2025-07-14T08:08:07Z</time>
      </trkpt>
      <trkpt lat="44.74362" lon="0.49404">
        <ele>161.4</ele>
        <time>2025-07-14T08:08:08Z</time>
      </trkpt>
      <trkpt lat="44.74361" lon="0.49409">
        <ele>161.6</ele>
        <time>2025-07-14T08:08:09Z</time>
      </trkpt>
      <trkpt lat="44.74361" lon="0.49414">
        <ele>161.6</ele>
        <time>2025-07-14T08:08:10Z</time>
      </trkpt>
      <trkpt lat="44.74361" lon="0.49419">
        <ele>161.8</ele>
        <time>2025-07-14T08:08:11Z</time>
      </trkpt>
      <trkpt lat="44.7436" lon="0.49424">
        <ele>162</ele>
        <time>2025-07-14T08:08:12Z</time>
      </trkpt>
      <trkpt lat="44.74359" lon="0.49428">
        <ele>162.2</ele>
        <time>2025-07-14T08:08:13Z</time>
      </trkpt>
      <trkpt lat="44.74358" lon="0.49431">
        <ele>162.4</ele>
        <time>2025-07-14T08:08:14Z</time>
      </trkpt>
      <trkpt lat="44.74357" lon="0.49434">
        <ele>162.6</ele>
        <time>2025-07-14T08:08:15Z</time>
      </trkpt>
      <trkpt lat="44.74356" lon="0.49438">
        <ele>162.6</ele>
        <time>2025-07-14T08:08:16Z</time>
      </trkpt>
      <trkpt lat="44.74355" lon="0.49441">
        <ele>162.8</ele>
        <time>2025-07-14T08:08:17Z</time>
      </trkpt>
      <trkpt lat="44.74354" lon="0.49445">
        <ele>163</ele>
        <time>2025-07-14T08:08:18Z</time>
      </trkpt>
      <trkpt lat="44.74352" lon="0.49449">
        <ele>163.2</ele>
        <time>2025-07-14T08:08:19Z</time>
      </trkpt>
      <trkpt lat="44.7435" lon="0.49452">
        <ele>163.4</ele>
        <time>2025-07-14T08:08:20Z</time>
      </trkpt>
      <trkpt lat="44.74349" lon="0.49456">
        <ele>163.6</ele>
        <time>2025-07-14T08:08:21Z</time>
      </trkpt>
      <trkpt lat="44.74347" lon="0.4946">
        <ele>163.8</ele>
        <time>2025-07-14T08:08:22Z</time>
      </trkpt>
      <trkpt lat="44.74346" lon="0.49464">
        <ele>163.8</ele>
        <time>2025-07-14T08:08:23Z</time>
      </trkpt>
      <trkpt lat="44.74344" lon="0.49467">
        <ele>164</ele>
        <time>2025-07-14T08:08:24Z</time>
      </trkpt>
      <trkpt lat="44.74342" lon="0.49472">
        <ele>164.2</ele>
        <time>2025-07-14T08:08:25Z</time>
      </trkpt>
      <trkpt lat="44.7434" lon="0.49475">
        <ele>164.4</ele>
        <time>2025-07-14T08:08:26Z</time>
      </trkpt>
      <trkpt lat="44.74338" lon="0.49479">
        <ele>164.4</ele>
        <time>2025-07-14T08:08:27Z</time>
      </trkpt>
      <trkpt lat="44.74336" lon="0.49483">
        <ele>164.6</ele>
        <time>2025-07-14T08:08:28Z</time>
      </trkpt>
      <trkpt lat="44.74334" lon="0.49487">
        <ele>164.6</ele>
        <time>2025-07-14T08:08:29Z</time>
      </trkpt>
      <trkpt lat="44.74332" lon="0.49491">
        <ele>164.8</ele>
        <time>2025-07-14T08:08:30Z</time>
      </trkpt>
      <trkpt lat="44.74331" lon="0.49495">
        <ele>165</ele>
        <time>2025-07-14T08:08:31Z</time>
      </trkpt>
      <trkpt lat="44.7433" lon="0.495">
        <ele>165</ele>
        <time>2025-07-14T08:08:32Z</time>
      </trkpt>
      <trkpt lat="44.74328" lon="0.49504">
        <ele>165.2</ele>
        <time>2025-07-14T08:08:33Z</time>
      </trkpt>
      <trkpt lat="44.74325" lon="0.49509">
        <ele>165.2</ele>
        <time>2025-07-14T08:08:34Z</time>
      </trkpt>
      <trkpt lat="44.74323" lon="0.49514">
        <ele>165.2</ele>
        <time>2025-07-14T08:08:35Z</time>
      </trkpt>
      <trkpt lat="44.74321" lon="0.49519">
        <ele>165.2</ele>
        <time>2025-07-14T08:08:36Z</time>
      </trkpt>
      <trkpt lat="44.74319" lon="0.49525">
        <ele>165.4</ele>
        <time>2025-07-14T08:08:37Z</time>
      </trkpt>
      <trkpt lat="44.74317" lon="0.49531">
        <ele>165.4</ele>
        <time>2025-07-14T08:08:38Z</time>
      </trkpt>
      <trkpt lat="44.74315" lon="0.49536">
        <ele>165.4</ele>
        <time>2025-07-14T08:08:39Z</time>
      </trkpt>
      <trkpt lat="44.74312" lon="0.49542">
        <ele>165.4</ele>
        <time>2025-07-14T08:08:40Z</time>
      </trkpt>
      <trkpt lat="44.74309" lon="0.49547">
        <ele>165.4</ele>
        <time>2025-07-14T08:08:41Z</time>
      </trkpt>
      <trkpt lat="44.74307" lon="0.49551">
        <ele>165.4</ele>
        <time>2025-07-14T08:08:42Z</time>
      </trkpt>
      <trkpt lat="44.74303" lon="0.49557">
        <ele>165.4</ele>
        <time>2025-07-14T08:08:43Z</time>
      </trkpt>
      <trkpt lat="44.74301" lon="0.49563">
        <ele>165.6</ele>
        <time>2025-07-14T08:08:44Z</time>
      </trkpt>
      <trkpt lat="44.74299" lon="0.4957">
        <ele>165.6</ele>
        <time>2025-07-14T08:08:45Z</time>
      </trkpt>
      <trkpt lat="44.74297" lon="0.49576">
        <ele>165.8</ele>
        <time>2025-07-14T08:08:46Z</time>
      </trkpt>
      <trkpt lat="44.74296" lon="0.49582">
        <ele>165.8</ele>
        <time>2025-07-14T08:08:47Z</time>
      </trkpt>
      <trkpt lat="44.74293" lon="0.49588">
        <ele>165.8</ele>
        <time>2025-07-14T08:08:48Z</time>
      </trkpt>
      <trkpt lat="44.74291" lon="0.49594">
        <ele>165.8</ele>
        <time>2025-07-14T08:08:49Z</time>
      </trkpt>
      <trkpt lat="44.74287" lon="0.49599">
        <ele>166</ele>
        <time>2025-07-14T08:08:50Z</time>
      </trkpt>
      <trkpt lat="44.74285" lon="0.49604">
        <ele>166</ele>
        <time>2025-07-14T08:08:51Z</time>
      </trkpt>
      <trkpt lat="44.74281" lon="0.4961">
        <ele>166.2</ele>
        <time>2025-07-14T08:08:52Z</time>
      </trkpt>
      <trkpt lat="44.74278" lon="0.49617">
        <ele>166.4</ele>
        <time>2025-07-14T08:08:53Z</time>
      </trkpt>
      <trkpt lat="44.74275" lon="0.49623">
        <ele>166.4</ele>
        <time>2025-07-14T08:08:54Z</time>
      </trkpt>
      <trkpt lat="44.74273" lon="0.4963">
        <ele>166.6</ele>
        <time>2025-07-14T08:08:55Z</time>
      </trkpt>
      <trkpt lat="44.74272" lon="0.49635">
        <ele>166.8</ele>
        <time>2025-07-14T08:08:56Z</time>
      </trkpt>
      <trkpt lat="44.7427" lon="0.49641">
        <ele>166.6</ele>
        <time>2025-07-14T08:08:57Z</time>
      </trkpt>
      <trkpt lat="44.74268" lon="0.49647">
        <ele>166.6</ele>
        <time>2025-07-14T08:08:58Z</time>
      </trkpt>
      <trkpt lat="44.74267" lon="0.49652">
        <ele>166.6</ele>
        <time>2025-07-14T08:08:59Z</time>
      </trkpt>
      <trkpt lat="44.74265" lon="0.49658">
        <ele>166.6</ele>
        <time>2025-07-14T08:09:00Z</time>
      </trkpt>
      <trkpt lat="44.74264" lon="0.49664">
        <ele>166.6</ele>
        <time>2025-07-14T08:09:01Z</time>
      </trkpt>
      <trkpt lat="44.74263" lon="0.49669">
        <ele>166.8</ele>
        <time>2025-07-14T08:09:02Z</time>
      </trkpt>
      <trkpt lat="44.74262" lon="0.49674">
        <ele>166.8</ele>
        <time>2025-07-14T08:09:03Z</time>
      </trkpt>
      <trkpt lat="44.7426" lon="0.4968">
        <ele>166.8</ele>
        <time>2025-07-14T08:09:04Z</time>
      </trkpt>
      <trkpt lat="44.74259" lon="0.49685">
        <ele>166.8</ele>
        <time>2025-07-14T08:09:05Z</time>
      </trkpt>
      <trkpt lat="44.74258" lon="0.4969">
        <ele>167</ele>
        <time>2025-07-14T08:09:06Z</time>
      </trkpt>
      <trkpt lat="44.74257" lon="0.49696">
        <ele>167.2</ele>
        <time>2025-07-14T08:09:07Z</time>
      </trkpt>
      <trkpt lat="44.74256" lon="0.497">
        <ele>167.2</ele>
        <time>2025-07-14T08:09:08Z</time>
      </trkpt>
      <trkpt lat="44.74254" lon="0.49705">
        <ele>167.2</ele>
        <time>2025-07-14T08:09:09Z</time>
      </trkpt>
      <trkpt lat="44.74253" lon="0.4971">
        <ele>167.4</ele>
        <time>2025-07-14T08:09:10Z</time>
      </trkpt>
      <trkpt lat="44.74252" lon="0.49714">
        <ele>167.6</ele>
        <time>2025-07-14T08:09:11Z</time>
      </trkpt>
      <trkpt lat="44.74251" lon="0.49719">
        <ele>167.8</ele>
        <time>2025-07-14T08:09:12Z</time>
      </trkpt>
      <trkpt lat="44.7425" lon="0.49723">
        <ele>168</ele>
        <time>2025-07-14T08:09:13Z</time>
      </trkpt>
      <trkpt lat="44.74249" lon="0.49726">
        <ele>168.2</ele>
        <time>2025-07-14T08:09:14Z</time>
      </trkpt>
      <trkpt lat="44.74248" lon="0.4973">
        <ele>168.4</ele>
        <time>2025-07-14T08:09:15Z</time>
      </trkpt>
      <trkpt lat="44.74247" lon="0.49734">
        <ele>168.8</ele>
        <time>2025-07-14T08:09:16Z</time>
      </trkpt>
      <trkpt lat="44.74246" lon="0.49738">
        <ele>169</ele>
        <time>2025-07-14T08:09:17Z</time>
      </trkpt>
      <trkpt lat="44.74245" lon="0.49741">
        <ele>169.2</ele>
        <time>2025-07-14T08:09:18Z</time>
      </trkpt>
      <trkpt lat="44.74244" lon="0.49746">
        <ele>169.4</ele>
        <time>2025-07-14T08:09:19Z</time>
      </trkpt>
      <trkpt lat="44.74243" lon="0.4975">
        <ele>169.6</ele>
        <time>2025-07-14T08:09:20Z</time>
      </trkpt>
      <trkpt lat="44.74242" lon="0.49753">
        <ele>169.8</ele>
        <time>2025-07-14T08:09:21Z</time>
      </trkpt>
      <trkpt lat="44.74241" lon="0.49757">
        <ele>170</ele>
        <time>2025-07-14T08:09:22Z</time>
      </trkpt>
      <trkpt lat="44.7424" lon="0.49761">
        <ele>170.2</ele>
        <time>2025-07-14T08:09:23Z</time>
      </trkpt>
      <trkpt lat="44.74239" lon="0.49765">
        <ele>170.4</ele>
        <time>2025-07-14T08:09:24Z</time>
      </trkpt>
      <trkpt lat="44.74238" lon="0.49769">
        <ele>170.6</ele>
        <time>2025-07-14T08:09:25Z</time>
      </trkpt>
      <trkpt lat="44.74237" lon="0.49772">
        <ele>170.8</ele>
        <time>2025-07-14T08:09:26Z</time>
      </trkpt>
      <trkpt lat="44.74235" lon="0.49777">
        <ele>171</ele>
        <time>2025-07-14T08:09:27Z</time>
      </trkpt>
      <trkpt lat="44.74234" lon="0.4978">
        <ele>171</ele>
        <time>2025-07-14T08:09:28Z</time>
      </trkpt>
      <trkpt lat="44.74232" lon="0.49784">
        <ele>171.2</ele>
        <time>2025-07-14T08:09:29Z</time>
      </trkpt>
      <trkpt lat="44.7423" lon="0.49787">
        <ele>171.4</ele>
        <time>2025-07-14T08:09:30Z</time>
      </trkpt>
      <trkpt lat="44.74228" lon="0.4979">
        <ele>171.4</ele>
        <time>2025-07-14T08:09:31Z</time>
      </trkpt>
      <trkpt lat="44.74226" lon="0.49794">
        <ele>171.6</ele>
        <time>2025-07-14T08:09:32Z</time>
      </trkpt>
      <trkpt lat="44.74224" lon="0.49797">
        <ele>171.8</ele>
        <time>2025-07-14T08:09:33Z</time>
      </trkpt>
      <trkpt lat="44.74223" lon="0.49802">
        <ele>172</ele>
        <time>2025-07-14T08:09:34Z</time>
      </trkpt>
      <trkpt lat="44.74222" lon="0.49806">
        <ele>172</ele>
        <time>2025-07-14T08:09:35Z</time>
      </trkpt>
      <trkpt lat="44.7422" lon="0.49811">
        <ele>172.2</ele>
        <time>2025-07-14T08:09:36Z</time>
      </trkpt>
      <trkpt lat="44.74219" lon="0.49816">
        <ele>172.2</ele>
        <time>2025-07-14T08:09:37Z</time>
      </trkpt>
      <trkpt lat="44.74217" lon="0.49822">
        <ele>172.2</ele>
        <time>2025-07-14T08:09:38Z</time>
      </trkpt>
      <trkpt lat="44.74215" lon="0.49827">
        <ele>172.2</ele>
        <time>2025-07-14T08:09:39Z</time>
      </trkpt>
      <trkpt lat="44.74214" lon="0.49833">
        <ele>172.4</ele>
        <time>2025-07-14T08:09:40Z</time>
      </trkpt>
      <trkpt lat="44.74212" lon="0.4984">
        <ele>172.2</ele>
        <time>2025-07-14T08:09:41Z</time>
      </trkpt>
      <trkpt lat="44.7421" lon="0.49846">
        <ele>172.4</ele>
        <time>2025-07-14T08:09:42Z</time>
      </trkpt>
      <trkpt lat="44.74208" lon="0.49852">
        <ele>172.2</ele>
        <time>2025-07-14T08:09:43Z</time>
      </trkpt>
      <trkpt lat="44.74205" lon="0.49859">
        <ele>172.2</ele>
        <time>2025-07-14T08:09:44Z</time>
      </trkpt>
      <trkpt lat="44.74203" lon="0.49866">
        <ele>172</ele>
        <time>2025-07-14T08:09:45Z</time>
      </trkpt>
      <trkpt lat="44.74201" lon="0.49874">
        <ele>171.8</ele>
        <time>2025-07-14T08:09:46Z</time>
      </trkpt>
      <trkpt lat="44.742" lon="0.49881">
        <ele>171.6</ele>
        <time>2025-07-14T08:09:47Z</time>
      </trkpt>
      <trkpt lat="44.742" lon="0.49889">
        <ele>171.4</ele>
        <time>2025-07-14T08:09:48Z</time>
      </trkpt>
      <trkpt lat="44.74201" lon="0.49896">
        <ele>171.4</ele>
        <time>2025-07-14T08:09:49Z</time>
      </trkpt>
      <trkpt lat="44.74201" lon="0.49903">
        <ele>171.2</ele>
        <time>2025-07-14T08:09:50Z</time>
      </trkpt>
      <trkpt lat="44.74199" lon="0.49909">
        <ele>171.2</ele>
        <time>2025-07-14T08:09:51Z</time>
      </trkpt>
      <trkpt lat="44.74197" lon="0.49916">
        <ele>171.2</ele>
        <time>2025-07-14T08:09:52Z</time>
      </trkpt>
      <trkpt lat="44.74195" lon="0.49923">
        <ele>171.4</ele>
        <time>2025-07-14T08:09:53Z</time>
      </trkpt>
      <trkpt lat="44.74194" lon="0.49931">
        <ele>171.2</ele>
        <time>2025-07-14T08:09:54Z</time>
      </trkpt>
      <trkpt lat="44.74192" lon="0.49938">
        <ele>171.2</ele>
        <time>2025-07-14T08:09:55Z</time>
      </trkpt>
      <trkpt lat="44.74189" lon="0.49945">
        <ele>171.2</ele>
        <time>2025-07-14T08:09:56Z</time>
      </trkpt>
      <trkpt lat="44.74186" lon="0.49951">
        <ele>171.2</ele>
        <time>2025-07-14T08:09:57Z</time>
      </trkpt>
      <trkpt lat="44.74185" lon="0.49957">
        <ele>171.2</ele>
        <time>2025-07-14T08:09:58Z</time>
      </trkpt>
      <trkpt lat="44.74185" lon="0.49962">
        <ele>171.2</ele>
        <time>2025-07-14T08:09:59Z</time>
      </trkpt>
      <trkpt lat="44.74184" lon="0.49969">
        <ele>171.2</ele>
        <time>2025-07-14T08:10:00Z</time>
      </trkpt>
      <trkpt lat="44.74182" lon="0.49974">
        <ele>171.2</ele>
        <time>2025-07-14T08:10:01Z</time>
      </trkpt>
      <trkpt lat="44.7418" lon="0.49979">
        <ele>171.2</ele>
        <time>2025-07-14T08:10:02Z</time>
      </trkpt>
      <trkpt lat="44.74177" lon="0.49985">
        <ele>171.2</ele>
        <time>2025-07-14T08:10:03Z</time>
      </trkpt>
      <trkpt lat="44.74175" lon="0.49991">
        <ele>171.4</ele>
        <time>2025-07-14T08:10:04Z</time>
      </trkpt>
      <trkpt lat="44.74173" lon="0.49999">
        <ele>171.4</ele>
        <time>2025-07-14T08:10:05Z</time>
      </trkpt>
      <trkpt lat="44.7417" lon="0.50005">
        <ele>171.2</ele>
        <time>2025-07-14T08:10:06Z</time>
      </trkpt>
      <trkpt lat="44.74168" lon="0.50012">
        <ele>171.2</ele>
        <time>2025-07-14T08:10:07Z</time>
      </trkpt>
      <trkpt lat="44.74167" lon="0.50019">
        <ele>171.2</ele>
        <time>2025-07-14T08:10:08Z</time>
      </trkpt>
      <trkpt lat="44.74165" lon="0.50027">
        <ele>171</ele>
        <time>2025-07-14T08:10:09Z</time>
      </trkpt>
      <trkpt lat="44.74163" lon="0.50035">
        <ele>171</ele>
        <time>2025-07-14T08:10:10Z</time>
      </trkpt>
      <trkpt lat="44.74159" lon="0.50043">
        <ele>170.8</ele>
        <time>2025-07-14T08:10:11Z</time>
      </trkpt>
      <trkpt lat="44.74156" lon="0.50052">
        <ele>170.4</ele>
        <time>2025-07-14T08:10:12Z</time>
      </trkpt>
      <trkpt lat="44.74154" lon="0.50061">
        <ele>170</ele>
        <time>2025-07-14T08:10:13Z</time>
      </trkpt>
      <trkpt lat="44.74151" lon="0.50071">
        <ele>169.6</ele>
        <time>2025-07-14T08:10:14Z</time>
      </trkpt>
      <trkpt lat="44.74148" lon="0.50081">
        <ele>169.2</ele>
        <time>2025-07-14T08:10:15Z</time>
      </trkpt>
      <trkpt lat="44.74144" lon="0.50091">
        <ele>168.8</ele>
        <time>2025-07-14T08:10:16Z</time>
      </trkpt>
      <trkpt lat="44.74142" lon="0.50097">
        <ele>168.2</ele>
        <time>2025-07-14T08:10:17Z</time>
      </trkpt>
      <trkpt lat="44.7414" lon="0.50101">
        <ele>168</ele>
        <time>2025-07-14T08:10:18Z</time>
      </trkpt>
      <trkpt lat="44.74139" lon="0.50105">
        <ele>167.8</ele>
        <time>2025-07-14T08:10:19Z</time>
      </trkpt>
      <trkpt lat="44.74139" lon="0.50107">
        <ele>167.4</ele>
        <time>2025-07-14T08:10:20Z</time>
      </trkpt>
      <trkpt lat="44.7414" lon="0.50109">
        <ele>167.2</ele>
        <time>2025-07-14T08:10:21Z</time>
      </trkpt>
      <trkpt lat="44.74141" lon="0.50111">
        <ele>167</ele>
        <time>2025-07-14T08:10:22Z</time>
      </trkpt>
      <trkpt lat="44.74144" lon="0.50114">
        <ele>166.8</ele>
        <time>2025-07-14T08:10:23Z</time>
      </trkpt>
      <trkpt lat="44.74146" lon="0.50114">
        <ele>166.6</ele>
        <time>2025-07-14T08:10:24Z</time>
      </trkpt>
      <trkpt lat="44.74149" lon="0.50115">
        <ele>166.4</ele>
        <time>2025-07-14T08:10:25Z</time>
      </trkpt>
      <trkpt lat="44.74153" lon="0.50116">
        <ele>166.2</ele>
        <time>2025-07-14T08:10:26Z</time>
      </trkpt>
      <trkpt lat="44.74156" lon="0.50117">
        <ele>166.2</ele>
        <time>2025-07-14T08:10:27Z</time>
      </trkpt>
      <trkpt lat="44.7416" lon="0.50119">
        <ele>166</ele>
        <time>2025-07-14T08:10:28Z</time>
      </trkpt>
      <trkpt lat="44.74165" lon="0.5012">
        <ele>165.8</ele>
        <time>2025-07-14T08:10:29Z</time>
      </trkpt>
      <trkpt lat="44.74171" lon="0.5012">
        <ele>165.6</ele>
        <time>2025-07-14T08:10:30Z</time>
      </trkpt>
      <trkpt lat="44.74176" lon="0.50119">
        <ele>165.4</ele>
        <time>2025-07-14T08:10:31Z</time>
      </trkpt>
      <trkpt lat="44.74183" lon="0.50116">
        <ele>165</ele>
        <time>2025-07-14T08:10:32Z</time>
      </trkpt>
      <trkpt lat="44.74189" lon="0.50114">
        <ele>164.6</ele>
        <time>2025-07-14T08:10:33Z</time>
      </trkpt>
      <trkpt lat="44.74195" lon="0.50113">
        <ele>164.2</ele>
        <time>2025-07-14T08:10:34Z</time>
      </trkpt>
      <trkpt lat="44.74202" lon="0.50112">
        <ele>164</ele>
        <time>2025-07-14T08:10:35Z</time>
      </trkpt>
      <trkpt lat="44.74209" lon="0.50112">
        <ele>163.6</ele>
        <time>2025-07-14T08:10:36Z</time>
      </trkpt>
      <trkpt lat="44.74215" lon="0.5011">
        <ele>163.2</ele>
        <time>2025-07-14T08:10:37Z</time>
      </trkpt>
      <trkpt lat="44.74221" lon="0.5011">
        <ele>162.8</ele>
        <time>2025-07-14T08:10:38Z</time>
      </trkpt>
      <trkpt lat="44.74228" lon="0.5011">
        <ele>162.2</ele>
        <time>2025-07-14T08:10:39Z</time>
      </trkpt>
      <trkpt lat="44.74235" lon="0.5011">
        <ele>161.6</ele>
        <time>2025-07-14T08:10:40Z</time>
      </trkpt>
      <trkpt lat="44.74239" lon="0.5011">
        <ele>161</ele>
        <time>2025-07-14T08:10:41Z</time>
      </trkpt>
      <trkpt lat="44.74244" lon="0.50109">
        <ele>160.6</ele>
        <time>2025-07-14T08:10:42Z</time>
      </trkpt>
      <trkpt lat="44.74245" lon="0.50105">
        <ele>160.4</ele>
        <time>2025-07-14T08:10:43Z</time>
      </trkpt>
      <trkpt lat="44.74247" lon="0.50101">
        <ele>160</ele>
        <time>2025-07-14T08:10:44Z</time>
      </trkpt>
      <trkpt lat="44.7425" lon="0.50097">
        <ele>159.6</ele>
        <time>2025-07-14T08:10:45Z</time>
      </trkpt>
      <trkpt lat="44.74255" lon="0.50094">
        <ele>159.4</ele>
        <time>2025-07-14T08:10:46Z</time>
      </trkpt>
      <trkpt lat="44.74258" lon="0.50092">
        <ele>159.2</ele>
        <time>2025-07-14T08:10:47Z</time>
      </trkpt>
      <trkpt lat="44.74262" lon="0.5009">
        <ele>158.8</ele>
        <time>2025-07-14T08:10:48Z</time>
      </trkpt>
      <trkpt lat="44.74268" lon="0.50088">
        <ele>158.6</ele>
        <time>2025-07-14T08:10:49Z</time>
      </trkpt>
      <trkpt lat="44.74273" lon="0.50087">
        <ele>158.4</ele>
        <time>2025-07-14T08:10:50Z</time>
      </trkpt>
      <trkpt lat="44.74279" lon="0.50084">
        <ele>158</ele>
        <time>2025-07-14T08:10:51Z</time>
      </trkpt>
      <trkpt lat="44.74284" lon="0.50082">
        <ele>157.8</ele>
        <time>2025-07-14T08:10:52Z</time>
      </trkpt>
      <trkpt lat="44.74291" lon="0.50081">
        <ele>157.6</ele>
        <time>2025-07-14T08:10:53Z</time>
      </trkpt>
      <trkpt lat="44.74298" lon="0.50081">
        <ele>157.4</ele>
        <time>2025-07-14T08:10:54Z</time>
      </trkpt>
      <trkpt lat="44.74305" lon="0.50082">
        <ele>157.2</ele>
        <time>2025-07-14T08:10:55Z</time>
      </trkpt>
      <trkpt lat="44.74312" lon="0.50082">
        <ele>157.2</ele>
        <time>2025-07-14T08:10:56Z</time>
      </trkpt>
      <trkpt lat="44.74319" lon="0.50082">
        <ele>157</ele>
        <time>2025-07-14T08:10:57Z</time>
      </trkpt>
      <trkpt lat="44.74325" lon="0.50081">
        <ele>156.8</ele>
        <time>2025-07-14T08:10:58Z</time>
      </trkpt>
      <trkpt lat="44.74331" lon="0.5008">
        <ele>156.6</ele>
        <time>2025-07-14T08:10:59Z</time>
      </trkpt>
      <trkpt lat="44.74338" lon="0.50077">
        <ele>156.4</ele>
        <time>2025-07-14T08:11:00Z</time>
      </trkpt>
      <trkpt lat="44.74345" lon="0.50073">
        <ele>156</ele>
        <time>2025-07-14T08:11:01Z</time>
      </trkpt>
      <trkpt lat="44.74351" lon="0.50074">
        <ele>155.6</ele>
        <time>2025-07-14T08:11:02Z</time>
      </trkpt>
      <trkpt lat="44.74357" lon="0.50075">
        <ele>155.4</ele>
        <time>2025-07-14T08:11:03Z</time>
      </trkpt>
      <trkpt lat="44.74364" lon="0.50079">
        <ele>155</ele>
        <time>2025-07-14T08:11:04Z</time>
      </trkpt>
      <trkpt lat="44.74371" lon="0.50083">
        <ele>154.8</ele>
        <time>2025-07-14T08:11:05Z</time>
      </trkpt>
      <trkpt lat="44.74378" lon="0.50087">
        <ele>154.6</ele>
        <time>2025-07-14T08:11:06Z</time>
      </trkpt>
      <trkpt lat="44.74385" lon="0.50091">
        <ele>154.2</ele>
        <time>2025-07-14T08:11:07Z</time>
      </trkpt>
      <trkpt lat="44.74392" lon="0.50095">
        <ele>153.8</ele>
        <time>2025-07-14T08:11:08Z</time>
      </trkpt>
      <trkpt lat="44.74399" lon="0.501">
        <ele>153.4</ele>
        <time>2025-07-14T08:11:09Z</time>
      </trkpt>
      <trkpt lat="44.74407" lon="0.50105">
        <ele>153</ele>
        <time>2025-07-14T08:11:10Z</time>
      </trkpt>
      <trkpt lat="44.74416" lon="0.50108">
        <ele>152.6</ele>
        <time>2025-07-14T08:11:11Z</time>
      </trkpt>
      <trkpt lat="44.74424" lon="0.5011">
        <ele>152.4</ele>
        <time>2025-07-14T08:11:12Z</time>
      </trkpt>
      <trkpt lat="44.74432" lon="0.50112">
        <ele>152.2</ele>
        <time>2025-07-14T08:11:13Z</time>
      </trkpt>
      <trkpt lat="44.7444" lon="0.50113">
        <ele>151.8</ele>
        <time>2025-07-14T08:11:14Z</time>
      </trkpt>
      <trkpt lat="44.74448" lon="0.50115">
        <ele>151.6</ele>
        <time>2025-07-14T08:11:15Z</time>
      </trkpt>
      <trkpt lat="44.74456" lon="0.50114">
        <ele>151.2</ele>
        <time>2025-07-14T08:11:16Z</time>
      </trkpt>
      <trkpt lat="44.74463" lon="0.50114">
        <ele>151.2</ele>
        <time>2025-07-14T08:11:17Z</time>
      </trkpt>
      <trkpt lat="44.74471" lon="0.50113">
        <ele>151.2</ele>
        <time>2025-07-14T08:11:18Z</time>
      </trkpt>
      <trkpt lat="44.74477" lon="0.50111">
        <ele>151</ele>
        <time>2025-07-14T08:11:19Z</time>
      </trkpt>
      <trkpt lat="44.74484" lon="0.50108">
        <ele>151.2</ele>
        <time>2025-07-14T08:11:20Z</time>
      </trkpt>
      <trkpt lat="44.74491" lon="0.50104">
        <ele>151</ele>
        <time>2025-07-14T08:11:21Z</time>
      </trkpt>
      <trkpt lat="44.74497" lon="0.50099">
        <ele>151</ele>
        <time>2025-07-14T08:11:22Z</time>
      </trkpt>
      <trkpt lat="44.74503" lon="0.50094">
        <ele>151</ele>
        <time>2025-07-14T08:11:23Z</time>
      </trkpt>
      <trkpt lat="44.74509" lon="0.5009">
        <ele>151.2</ele>
        <time>2025-07-14T08:11:24Z</time>
      </trkpt>
      <trkpt lat="44.74516" lon="0.50086">
        <ele>150.8</ele>
        <time>2025-07-14T08:11:25Z</time>
      </trkpt>
      <trkpt lat="44.74523" lon="0.50083">
        <ele>150.8</ele>
        <time>2025-07-14T08:11:26Z</time>
      </trkpt>
      <trkpt lat="44.7453" lon="0.5008">
        <ele>150.8</ele>
        <time>2025-07-14T08:11:27Z</time>
      </trkpt>
      <trkpt lat="44.74537" lon="0.50077">
        <ele>150.2</ele>
        <time>2025-07-14T08:11:28Z</time>
      </trkpt>
      <trkpt lat="44.74545" lon="0.50074">
        <ele>149.8</ele>
        <time>2025-07-14T08:11:29Z</time>
      </trkpt>
      <trkpt lat="44.74552" lon="0.50071">
        <ele>149.4</ele>
        <time>2025-07-14T08:11:30Z</time>
      </trkpt>
      <trkpt lat="44.7456" lon="0.50067">
        <ele>149</ele>
        <time>2025-07-14T08:11:31Z</time>
      </trkpt>
      <trkpt lat="44.74567" lon="0.50063">
        <ele>148.6</ele>
        <time>2025-07-14T08:11:32Z</time>
      </trkpt>
      <trkpt lat="44.74575" lon="0.5006">
        <ele>148.2</ele>
        <time>2025-07-14T08:11:33Z</time>
      </trkpt>
      <trkpt lat="44.74584" lon="0.50059">
        <ele>147.8</ele>
        <time>2025-07-14T08:11:34Z</time>
      </trkpt>
      <trkpt lat="44.74592" lon="0.50059">
        <ele>146</ele>
        <time>2025-07-14T08:11:35Z</time>
      </trkpt>
      <trkpt lat="44.74599" lon="0.5006">
        <ele>145</ele>
        <time>2025-07-14T08:11:36Z</time>
      </trkpt>
      <trkpt lat="44.74608" lon="0.50063">
        <ele>144.2</ele>
        <time>2025-07-14T08:11:37Z</time>
      </trkpt>
      <trkpt lat="44.74615" lon="0.50068">
        <ele>143.6</ele>
        <time>2025-07-14T08:11:38Z</time>
      </trkpt>
      <trkpt lat="44.74624" lon="0.50072">
        <ele>143.2</ele>
        <time>2025-07-14T08:11:39Z</time>
      </trkpt>
      <trkpt lat="44.74632" lon="0.50074">
        <ele>142.2</ele>
        <time>2025-07-14T08:11:40Z</time>
      </trkpt>
      <trkpt lat="44.74641" lon="0.50074">
        <ele>141.6</ele>
        <time>2025-07-14T08:11:41Z</time>
      </trkpt>
      <trkpt lat="44.7465" lon="0.50073">
        <ele>141</ele>
        <time>2025-07-14T08:11:42Z</time>
      </trkpt>
      <trkpt lat="44.74659" lon="0.50073">
        <ele>140.6</ele>
        <time>2025-07-14T08:11:43Z</time>
      </trkpt>
      <trkpt lat="44.74667" lon="0.50073">
        <ele>140.2</ele>
        <time>2025-07-14T08:11:44Z</time>
      </trkpt>
      <trkpt lat="44.74675" lon="0.50072">
        <ele>140</ele>
        <time>2025-07-14T08:11:45Z</time>
      </trkpt>
      <trkpt lat="44.74683" lon="0.50071">
        <ele>139.8</ele>
        <time>2025-07-14T08:11:46Z</time>
      </trkpt>
      <trkpt lat="44.74691" lon="0.5007">
        <ele>139.6</ele>
        <time>2025-07-14T08:11:47Z</time>
      </trkpt>
      <trkpt lat="44.74699" lon="0.5007">
        <ele>139.6</ele>
        <time>2025-07-14T08:11:48Z</time>
      </trkpt>
      <trkpt lat="44.74706" lon="0.50071">
        <ele>139.6</ele>
        <time>2025-07-14T08:11:49Z</time>
      </trkpt>
      <trkpt lat="44.74714" lon="0.50074">
        <ele>139.6</ele>
        <time>2025-07-14T08:11:50Z</time>
      </trkpt>
      <trkpt lat="44.74722" lon="0.50076">
        <ele>139.6</ele>
        <time>2025-07-14T08:11:51Z</time>
      </trkpt>
      <trkpt lat="44.74729" lon="0.5008">
        <ele>139.6</ele>
        <time>2025-07-14T08:11:52Z</time>
      </trkpt>
      <trkpt lat="44.74736" lon="0.50084">
        <ele>139.6</ele>
        <time>2025-07-14T08:11:53Z</time>
      </trkpt>
      <trkpt lat="44.74743" lon="0.50088">
        <ele>139.6</ele>
        <time>2025-07-14T08:11:54Z</time>
      </trkpt>
      <trkpt lat="44.74751" lon="0.50092">
        <ele>139.4</ele>
        <time>2025-07-14T08:11:55Z</time>
      </trkpt>
      <trkpt lat="44.74759" lon="0.50096">
        <ele>139.2</ele>
        <time>2025-07-14T08:11:56Z</time>
      </trkpt>
      <trkpt lat="44.74766" lon="0.50102">
        <ele>139</ele>
        <time>2025-07-14T08:11:57Z</time>
      </trkpt>
      <trkpt lat="44.74771" lon="0.50109">
        <ele>138.6</ele>
        <time>2025-07-14T08:11:58Z</time>
      </trkpt>
      <trkpt lat="44.74775" lon="0.50118">
        <ele>138.2</ele>
        <time>2025-07-14T08:11:59Z</time>
      </trkpt>
      <trkpt lat="44.7478" lon="0.50129">
        <ele>138</ele>
        <time>2025-07-14T08:12:00Z</time>
      </trkpt>
      <trkpt lat="44.74785" lon="0.50137">
        <ele>137.6</ele>
        <time>2025-07-14T08:12:01Z</time>
      </trkpt>
      <trkpt lat="44.74793" lon="0.5014">
        <ele>137</ele>
        <time>2025-07-14T08:12:02Z</time>
      </trkpt>
      <trkpt lat="44.74801" lon="0.50142">
        <ele>136.4</ele>
        <time>2025-07-14T08:12:03Z</time>
      </trkpt>
      <trkpt lat="44.74809" lon="0.50144">
        <ele>135.8</ele>
        <time>2025-07-14T08:12:04Z</time>
      </trkpt>
      <trkpt lat="44.74817" lon="0.50146">
        <ele>135.6</ele>
        <time>2025-07-14T08:12:05Z</time>
      </trkpt>
      <trkpt lat="44.74825" lon="0.50148">
        <ele>135.2</ele>
        <time>2025-07-14T08:12:06Z</time>
      </trkpt>
      <trkpt lat="44.74833" lon="0.5015">
        <ele>134.8</ele>
        <time>2025-07-14T08:12:07Z</time>
      </trkpt>
      <trkpt lat="44.74841" lon="0.50152">
        <ele>134.4</ele>
        <time>2025-07-14T08:12:08Z</time>
      </trkpt>
      <trkpt lat="44.74849" lon="0.50153">
        <ele>134</ele>
        <time>2025-07-14T08:12:09Z</time>
      </trkpt>
      <trkpt lat="44.74856" lon="0.50155">
        <ele>133.6</ele>
        <time>2025-07-14T08:12:10Z</time>
      </trkpt>
      <trkpt lat="44.74864" lon="0.50156">
        <ele>133.2</ele>
        <time>2025-07-14T08:12:11Z</time>
      </trkpt>
      <trkpt lat="44.74872" lon="0.50157">
        <ele>133</ele>
        <time>2025-07-14T08:12:12Z</time>
      </trkpt>
      <trkpt lat="44.7488" lon="0.50159">
        <ele>132.8</ele>
        <time>2025-07-14T08:12:13Z</time>
      </trkpt>
      <trkpt lat="44.74887" lon="0.5016">
        <ele>132.8</ele>
        <time>2025-07-14T08:12:14Z</time>
      </trkpt>
      <trkpt lat="44.74895" lon="0.5016">
        <ele>132.8</ele>
        <time>2025-07-14T08:12:15Z</time>
      </trkpt>
      <trkpt lat="44.74902" lon="0.50161">
        <ele>132.4</ele>
        <time>2025-07-14T08:12:16Z</time>
      </trkpt>
      <trkpt lat="44.7491" lon="0.50161">
        <ele>132.4</ele>
        <time>2025-07-14T08:12:17Z</time>
      </trkpt>
      <trkpt lat="44.74918" lon="0.50161">
        <ele>132</ele>
        <time>2025-07-14T08:12:18Z</time>
      </trkpt>
      <trkpt lat="44.74925" lon="0.50161">
        <ele>131.8</ele>
        <time>2025-07-14T08:12:19Z</time>
      </trkpt>
      <trkpt lat="44.74933" lon="0.50162">
        <ele>131.4</ele>
        <time>2025-07-14T08:12:20Z</time>
      </trkpt>
      <trkpt lat="44.7494" lon="0.50164">
        <ele>131.4</ele>
        <time>2025-07-14T08:12:21Z</time>
      </trkpt>
      <trkpt lat="44.74947" lon="0.50166">
        <ele>131.2</ele>
        <time>2025-07-14T08:12:22Z</time>
      </trkpt>
      <trkpt lat="44.74954" lon="0.50168">
        <ele>131.2</ele>
        <time>2025-07-14T08:12:23Z</time>
      </trkpt>
      <trkpt lat="44.7496" lon="0.50169">
        <ele>131.2</ele>
        <time>2025-07-14T08:12:24Z</time>
      </trkpt>
      <trkpt lat="44.74967" lon="0.50168">
        <ele>131</ele>
        <time>2025-07-14T08:12:25Z</time>
      </trkpt>
      <trkpt lat="44.74973" lon="0.50168">
        <ele>131</ele>
        <time>2025-07-14T08:12:26Z</time>
      </trkpt>
      <trkpt lat="44.74978" lon="0.50167">
        <ele>131</ele>
        <time>2025-07-14T08:12:27Z</time>
      </trkpt>
      <trkpt lat="44.74984" lon="0.50167">
        <ele>130.8</ele>
        <time>2025-07-14T08:12:28Z</time>
      </trkpt>
      <trkpt lat="44.74989" lon="0.50168">
        <ele>131</ele>
        <time>2025-07-14T08:12:29Z</time>
      </trkpt>
      <trkpt lat="44.74994" lon="0.50168">
        <ele>131.2</ele>
        <time>2025-07-14T08:12:30Z</time>
      </trkpt>
      <trkpt lat="44.75" lon="0.50168">
        <ele>131.4</ele>
        <time>2025-07-14T08:12:31Z</time>
      </trkpt>
      <trkpt lat="44.75005" lon="0.50168">
        <ele>131.6</ele>
        <time>2025-07-14T08:12:32Z</time>
      </trkpt>
      <trkpt lat="44.7501" lon="0.50168">
        <ele>131.6</ele>
        <time>2025-07-14T08:12:33Z</time>
      </trkpt>
      <trkpt lat="44.75015" lon="0.50168">
        <ele>131.8</ele>
        <time>2025-07-14T08:12:34Z</time>
      </trkpt>
      <trkpt lat="44.75019" lon="0.50168">
        <ele>131.8</ele>
        <time>2025-07-14T08:12:35Z</time>
      </trkpt>
      <trkpt lat="44.75024" lon="0.50168">
        <ele>132</ele>
        <time>2025-07-14T08:12:36Z</time>
      </trkpt>
      <trkpt lat="44.75028" lon="0.50168">
        <ele>132</ele>
        <time>2025-07-14T08:12:37Z</time>
      </trkpt>
      <trkpt lat="44.75033" lon="0.50167">
        <ele>132.2</ele>
        <time>2025-07-14T08:12:38Z</time>
      </trkpt>
      <trkpt lat="44.75037" lon="0.50167">
        <ele>132.4</ele>
        <time>2025-07-14T08:12:39Z</time>
      </trkpt>
      <trkpt lat="44.7504" lon="0.50168">
        <ele>132.4</ele>
        <time>2025-07-14T08:12:40Z</time>
      </trkpt>
      <trkpt lat="44.75044" lon="0.50168">
        <ele>132.6</ele>
        <time>2025-07-14T08:12:41Z</time>
      </trkpt>
      <trkpt lat="44.75047" lon="0.50168">
        <ele>132.8</ele>
        <time>2025-07-14T08:12:42Z</time>
      </trkpt>
      <trkpt lat="44.7505" lon="0.50168">
        <ele>133</ele>
        <time>2025-07-14T08:12:43Z</time>
      </trkpt>
      <trkpt lat="44.75053" lon="0.50168">
        <ele>133.4</ele>
        <time>2025-07-14T08:12:44Z</time>
      </trkpt>
      <trkpt lat="44.75057" lon="0.50168">
        <ele>133.6</ele>
        <time>2025-07-14T08:12:45Z</time>
      </trkpt>
      <trkpt lat="44.75059" lon="0.50168">
        <ele>133.8</ele>
        <time>2025-07-14T08:12:46Z</time>
      </trkpt>
      <trkpt lat="44.75062" lon="0.50168">
        <ele>134</ele>
        <time>2025-07-14T08:12:47Z</time>
      </trkpt>
      <trkpt lat="44.75065" lon="0.50167">
        <ele>134</ele>
        <time>2025-07-14T08:12:48Z</time>
      </trkpt>
      <trkpt lat="44.75069" lon="0.50167">
        <ele>134.2</ele>
        <time>2025-07-14T08:12:49Z</time>
      </trkpt>
      <trkpt lat="44.75072" lon="0.50167">
        <ele>134.4</ele>
        <time>2025-07-14T08:12:50Z</time>
      </trkpt>
      <trkpt lat="44.75074" lon="0.50166">
        <ele>134.4</ele>
        <time>2025-07-14T08:12:51Z</time>
      </trkpt>
      <trkpt lat="44.75077" lon="0.50166">
        <ele>134.6</ele>
        <time>2025-07-14T08:12:52Z</time>
      </trkpt>
      <trkpt lat="44.7508" lon="0.50165">
        <ele>134.8</ele>
        <time>2025-07-14T08:12:53Z</time>
      </trkpt>
      <trkpt lat="44.75083" lon="0.50165">
        <ele>135</ele>
        <time>2025-07-14T08:12:54Z</time>
      </trkpt>
      <trkpt lat="44.75086" lon="0.50165">
        <ele>135.2</ele>
        <time>2025-07-14T08:12:55Z</time>
      </trkpt>
      <trkpt lat="44.75089" lon="0.50164">
        <ele>135.2</ele>
        <time>2025-07-14T08:12:56Z</time>
      </trkpt>
      <trkpt lat="44.75092" lon="0.50164">
        <ele>135.4</ele>
        <time>2025-07-14T08:12:57Z</time>
      </trkpt>
      <trkpt lat="44.75094" lon="0.50163">
        <ele>135.4</ele>
        <time>2025-07-14T08:12:58Z</time>
      </trkpt>
      <trkpt lat="44.75097" lon="0.50162">
        <ele>135.6</ele>
        <time>2025-07-14T08:12:59Z</time>
      </trkpt>
      <trkpt lat="44.751" lon="0.50162">
        <ele>135.8</ele>
        <time>2025-07-14T08:13:00Z</time>
      </trkpt>
      <trkpt lat="44.75102" lon="0.50161">
        <ele>135.8</ele>
        <time>2025-07-14T08:13:01Z</time>
      </trkpt>
      <trkpt lat="44.75103" lon="0.50161">
        <ele>136</ele>
        <time>2025-07-14T08:13:02Z</time>
      </trkpt>
      <trkpt lat="44.75105" lon="0.50161">
        <ele>136</ele>
        <time>2025-07-14T08:13:03Z</time>
      </trkpt>
      <trkpt lat="44.75107" lon="0.50161">
        <ele>136.2</ele>
        <time>2025-07-14T08:13:04Z</time>
      </trkpt>
      <trkpt lat="44.75109" lon="0.50161">
        <ele>136.2</ele>
        <time>2025-07-14T08:13:05Z</time>
      </trkpt>
      <trkpt lat="44.75111" lon="0.5016">
        <ele>136.4</ele>
        <time>2025-07-14T08:13:06Z</time>
      </trkpt>
      <trkpt lat="44.75114" lon="0.5016">
        <ele>136.4</ele>
        <time>2025-07-14T08:13:07Z</time>
      </trkpt>
      <trkpt lat="44.75117" lon="0.5016">
        <ele>136.4</ele>
        <time>2025-07-14T08:13:08Z</time>
      </trkpt>
      <trkpt lat="44.7512" lon="0.5016">
        <ele>136.6</ele>
        <time>2025-07-14T08:13:09Z</time>
      </trkpt>
      <trkpt lat="44.75123" lon="0.5016">
        <ele>136.6</ele>
        <time>2025-07-14T08:13:10Z</time>
      </trkpt>
      <trkpt lat="44.75126" lon="0.50159">
        <ele>136.6</ele>
        <time>2025-07-14T08:13:11Z</time>
      </trkpt>
      <trkpt lat="44.75129" lon="0.50159">
        <ele>136.8</ele>
        <time>2025-07-14T08:13:12Z</time>
      </trkpt>
      <trkpt lat="44.75132" lon="0.50159">
        <ele>136.8</ele>
        <time>2025-07-14T08:13:13Z</time>
      </trkpt>
      <trkpt lat="44.75135" lon="0.50159">
        <ele>137</ele>
        <time>2025-07-14T08:13:14Z</time>
      </trkpt>
      <trkpt lat="44.75137" lon="0.50159">
        <ele>137</ele>
        <time>2025-07-14T08:13:15Z</time>
      </trkpt>
      <trkpt lat="44.7514" lon="0.50159">
        <ele>137.2</ele>
        <time>2025-07-14T08:13:16Z</time>
      </trkpt>
      <trkpt lat="44.75143" lon="0.50159">
        <ele>137.4</ele>
        <time>2025-07-14T08:13:17Z</time>
      </trkpt>
      <trkpt lat="44.75146" lon="0.50159">
        <ele>137.6</ele>
        <time>2025-07-14T08:13:18Z</time>
      </trkpt>
      <trkpt lat="44.75148" lon="0.50159">
        <ele>137.6</ele>
        <time>2025-07-14T08:13:19Z</time>
      </trkpt>
      <trkpt lat="44.75151" lon="0.50159">
        <ele>137.8</ele>
        <time>2025-07-14T08:13:20Z</time>
      </trkpt>
      <trkpt lat="44.75154" lon="0.50159">
        <ele>138</ele>
        <time>2025-07-14T08:13:21Z</time>
      </trkpt>
      <trkpt lat="44.75157" lon="0.50159">
        <ele>138.2</ele>
        <time>2025-07-14T08:13:22Z</time>
      </trkpt>
      <trkpt lat="44.75159" lon="0.50159">
        <ele>138.4</ele>
        <time>2025-07-14T08:13:23Z</time>
      </trkpt>
      <trkpt lat="44.75162" lon="0.5016">
        <ele>138.4</ele>
        <time>2025-07-14T08:13:24Z</time>
      </trkpt>
      <trkpt lat="44.75165" lon="0.5016">
        <ele>138.6</ele>
        <time>2025-07-14T08:13:25Z</time>
      </trkpt>
      <trkpt lat="44.75168" lon="0.5016">
        <ele>138.8</ele>
        <time>2025-07-14T08:13:26Z</time>
      </trkpt>
      <trkpt lat="44.7517" lon="0.5016">
        <ele>139</ele>
        <time>2025-07-14T08:13:27Z</time>
      </trkpt>
      <trkpt lat="44.75173" lon="0.5016">
        <ele>139.2</ele>
        <time>2025-07-14T08:13:28Z</time>
      </trkpt>
      <trkpt lat="44.75175" lon="0.5016">
        <ele>139.6</ele>
        <time>2025-07-14T08:13:29Z</time>
      </trkpt>
      <trkpt lat="44.75177" lon="0.5016">
        <ele>139.8</ele>
        <time>2025-07-14T08:13:30Z</time>
      </trkpt>
      <trkpt lat="44.75179" lon="0.5016">
        <ele>140</ele>
        <time>2025-07-14T08:13:31Z</time>
      </trkpt>
      <trkpt lat="44.75181" lon="0.50161">
        <ele>140.2</ele>
        <time>2025-07-14T08:13:32Z</time>
      </trkpt>
      <trkpt lat="44.75182" lon="0.50162">
        <ele>140.4</ele>
        <time>2025-07-14T08:13:33Z</time>
      </trkpt>
      <trkpt lat="44.75183" lon="0.50165">
        <ele>140.8</ele>
        <time>2025-07-14T08:13:34Z</time>
      </trkpt>
      <trkpt lat="44.75183" lon="0.50168">
        <ele>141</ele>
        <time>2025-07-14T08:13:35Z</time>
      </trkpt>
      <trkpt lat="44.75183" lon="0.50172">
        <ele>141</ele>
        <time>2025-07-14T08:13:36Z</time>
      </trkpt>
      <trkpt lat="44.75182" lon="0.50177">
        <ele>141.2</ele>
        <time>2025-07-14T08:13:37Z</time>
      </trkpt>
      <trkpt lat="44.75181" lon="0.50182">
        <ele>141.2</ele>
        <time>2025-07-14T08:13:38Z</time>
      </trkpt>
      <trkpt lat="44.7518" lon="0.50189">
        <ele>141</ele>
        <time>2025-07-14T08:13:39Z</time>
      </trkpt>
      <trkpt lat="44.75179" lon="0.50196">
        <ele>141</ele>
        <time>2025-07-14T08:13:40Z</time>
      </trkpt>
      <trkpt lat="44.75178" lon="0.50204">
        <ele>140.8</ele>
        <time>2025-07-14T08:13:41Z</time>
      </trkpt>
      <trkpt lat="44.75177" lon="0.50212">
        <ele>140.6</ele>
        <time>2025-07-14T08:13:42Z</time>
      </trkpt>
      <trkpt lat="44.75175" lon="0.50219">
        <ele>140.4</ele>
        <time>2025-07-14T08:13:43Z</time>
      </trkpt>
      <trkpt lat="44.75174" lon="0.50227">
        <ele>140.2</ele>
        <time>2025-07-14T08:13:44Z</time>
      </trkpt>
      <trkpt lat="44.75173" lon="0.50235">
        <ele>139.8</ele>
        <time>2025-07-14T08:13:45Z</time>
      </trkpt>
      <trkpt lat="44.75171" lon="0.50244">
        <ele>139.6</ele>
        <time>2025-07-14T08:13:46Z</time>
      </trkpt>
      <trkpt lat="44.7517" lon="0.50251">
        <ele>139.2</ele>
        <time>2025-07-14T08:13:47Z</time>
      </trkpt>
      <trkpt lat="44.75169" lon="0.50259">
        <ele>139</ele>
        <time>2025-07-14T08:13:48Z</time>
      </trkpt>
      <trkpt lat="44.75168" lon="0.50266">
        <ele>138.8</ele>
        <time>2025-07-14T08:13:49Z</time>
      </trkpt>
      <trkpt lat="44.75167" lon="0.50274">
        <ele>138.8</ele>
        <time>2025-07-14T08:13:50Z</time>
      </trkpt>
      <trkpt lat="44.75166" lon="0.50282">
        <ele>138.6</ele>
        <time>2025-07-14T08:13:51Z</time>
      </trkpt>
      <trkpt lat="44.75165" lon="0.50289">
        <ele>138.6</ele>
        <time>2025-07-14T08:13:52Z</time>
      </trkpt>
      <trkpt lat="44.75164" lon="0.50297">
        <ele>138.4</ele>
        <time>2025-07-14T08:13:53Z</time>
      </trkpt>
      <trkpt lat="44.75163" lon="0.50305">
        <ele>138.4</ele>
        <time>2025-07-14T08:13:54Z</time>
      </trkpt>
      <trkpt lat="44.75162" lon="0.50313">
        <ele>138.4</ele>
        <time>2025-07-14T08:13:55Z</time>
      </trkpt>
      <trkpt lat="44.75161" lon="0.5032">
        <ele>138.2</ele>
        <time>2025-07-14T08:13:56Z</time>
      </trkpt>
      <trkpt lat="44.75159" lon="0.50328">
        <ele>138.4</ele>
        <time>2025-07-14T08:13:57Z</time>
      </trkpt>
      <trkpt lat="44.75157" lon="0.50335">
        <ele>138.4</ele>
        <time>2025-07-14T08:13:58Z</time>
      </trkpt>
      <trkpt lat="44.75157" lon="0.50343">
        <ele>138.2</ele>
        <time>2025-07-14T08:13:59Z</time>
      </trkpt>
      <trkpt lat="44.75156" lon="0.5035">
        <ele>138.4</ele>
        <time>2025-07-14T08:14:00Z</time>
      </trkpt>
      <trkpt lat="44.75154" lon="0.50358">
        <ele>138.4</ele>
        <time>2025-07-14T08:14:01Z</time>
      </trkpt>
      <trkpt lat="44.75153" lon="0.50365">
        <ele>138.6</ele>
        <time>2025-07-14T08:14:02Z</time>
      </trkpt>
      <trkpt lat="44.75152" lon="0.50372">
        <ele>138.8</ele>
        <time>2025-07-14T08:14:03Z</time>
      </trkpt>
      <trkpt lat="44.75151" lon="0.50379">
        <ele>138.8</ele>
        <time>2025-07-14T08:14:04Z</time>
      </trkpt>
      <trkpt lat="44.7515" lon="0.50386">
        <ele>139</ele>
        <time>2025-07-14T08:14:05Z</time>
      </trkpt>
      <trkpt lat="44.7515" lon="0.50394">
        <ele>139</ele>
        <time>2025-07-14T08:14:06Z</time>
      </trkpt>
      <trkpt lat="44.7515" lon="0.50401">
        <ele>139.2</ele>
        <time>2025-07-14T08:14:07Z</time>
      </trkpt>
      <trkpt lat="44.75149" lon="0.50408">
        <ele>139.2</ele>
        <time>2025-07-14T08:14:08Z</time>
      </trkpt>
      <trkpt lat="44.75149" lon="0.50414">
        <ele>139.4</ele>
        <time>2025-07-14T08:14:09Z</time>
      </trkpt>
      <trkpt lat="44.75148" lon="0.50421">
        <ele>139.6</ele>
        <time>2025-07-14T08:14:10Z</time>
      </trkpt>
      <trkpt lat="44.75147" lon="0.50428">
        <ele>139.6</ele>
        <time>2025-07-14T08:14:11Z</time>
      </trkpt>
      <trkpt lat="44.75146" lon="0.50434">
        <ele>139.8</ele>
        <time>2025-07-14T08:14:12Z</time>
      </trkpt>
      <trkpt lat="44.75144" lon="0.50439">
        <ele>140</ele>
        <time>2025-07-14T08:14:13Z</time>
      </trkpt>
      <trkpt lat="44.75143" lon="0.50445">
        <ele>140.2</ele>
        <time>2025-07-14T08:14:14Z</time>
      </trkpt>
      <trkpt lat="44.75142" lon="0.5045">
        <ele>140.4</ele>
        <time>2025-07-14T08:14:15Z</time>
      </trkpt>
      <trkpt lat="44.75141" lon="0.50455">
        <ele>140.6</ele>
        <time>2025-07-14T08:14:16Z</time>
      </trkpt>
      <trkpt lat="44.7514" lon="0.5046">
        <ele>140.8</ele>
        <time>2025-07-14T08:14:17Z</time>
      </trkpt>
      <trkpt lat="44.75139" lon="0.50465">
        <ele>141</ele>
        <time>2025-07-14T08:14:18Z</time>
      </trkpt>
      <trkpt lat="44.75137" lon="0.5047">
        <ele>141.4</ele>
        <time>2025-07-14T08:14:19Z</time>
      </trkpt>
      <trkpt lat="44.75136" lon="0.50475">
        <ele>141.4</ele>
        <time>2025-07-14T08:14:20Z</time>
      </trkpt>
      <trkpt lat="44.75135" lon="0.5048">
        <ele>141.6</ele>
        <time>2025-07-14T08:14:21Z</time>
      </trkpt>
      <trkpt lat="44.75133" lon="0.50486">
        <ele>142</ele>
        <time>2025-07-14T08:14:22Z</time>
      </trkpt>
      <trkpt lat="44.75132" lon="0.5049">
        <ele>142</ele>
        <time>2025-07-14T08:14:23Z</time>
      </trkpt>
      <trkpt lat="44.7513" lon="0.50495">
        <ele>142.4</ele>
        <time>2025-07-14T08:14:24Z</time>
      </trkpt>
      <trkpt lat="44.75129" lon="0.505">
        <ele>142.4</ele>
        <time>2025-07-14T08:14:25Z</time>
      </trkpt>
      <trkpt lat="44.75127" lon="0.50506">
        <ele>142.6</ele>
        <time>2025-07-14T08:14:26Z</time>
      </trkpt>
      <trkpt lat="44.75126" lon="0.50511">
        <ele>142.8</ele>
        <time>2025-07-14T08:14:27Z</time>
      </trkpt>
      <trkpt lat="44.75124" lon="0.50516">
        <ele>143</ele>
        <time>2025-07-14T08:14:28Z</time>
      </trkpt>
      <trkpt lat="44.75123" lon="0.50521">
        <ele>143.2</ele>
        <time>2025-07-14T08:14:29Z</time>
      </trkpt>
      <trkpt lat="44.75122" lon="0.50526">
        <ele>143.4</ele>
        <time>2025-07-14T08:14:30Z</time>
      </trkpt>
      <trkpt lat="44.7512" lon="0.50531">
        <ele>143.6</ele>
        <time>2025-07-14T08:14:31Z</time>
      </trkpt>
      <trkpt lat="44.75119" lon="0.50536">
        <ele>143.6</ele>
        <time>2025-07-14T08:14:32Z</time>
      </trkpt>
      <trkpt lat="44.75118" lon="0.5054">
        <ele>143.8</ele>
        <time>2025-07-14T08:14:33Z</time>
      </trkpt>
      <trkpt lat="44.75117" lon="0.50545">
        <ele>144</ele>
        <time>2025-07-14T08:14:34Z</time>
      </trkpt>
      <trkpt lat="44.75115" lon="0.50551">
        <ele>144.2</ele>
        <time>2025-07-14T08:14:35Z</time>
      </trkpt>
      <trkpt lat="44.75113" lon="0.50558">
        <ele>144.2</ele>
        <time>2025-07-14T08:14:36Z</time>
      </trkpt>
      <trkpt lat="44.75111" lon="0.50564">
        <ele>144.4</ele>
        <time>2025-07-14T08:14:37Z</time>
      </trkpt>
      <trkpt lat="44.7511" lon="0.5057">
        <ele>144.4</ele>
        <time>2025-07-14T08:14:38Z</time>
      </trkpt>
      <trkpt lat="44.75108" lon="0.50577">
        <ele>144.2</ele>
        <time>2025-07-14T08:14:39Z</time>
      </trkpt>
      <trkpt lat="44.75106" lon="0.50584">
        <ele>144.2</ele>
        <time>2025-07-14T08:14:40Z</time>
      </trkpt>
      <trkpt lat="44.75105" lon="0.50591">
        <ele>144</ele>
        <time>2025-07-14T08:14:41Z</time>
      </trkpt>
      <trkpt lat="44.75104" lon="0.50598">
        <ele>143.8</ele>
        <time>2025-07-14T08:14:42Z</time>
      </trkpt>
      <trkpt lat="44.75104" lon="0.50605">
        <ele>143.6</ele>
        <time>2025-07-14T08:14:43Z</time>
      </trkpt>
      <trkpt lat="44.75105" lon="0.50613">
        <ele>143.6</ele>
        <time>2025-07-14T08:14:44Z</time>
      </trkpt>
      <trkpt lat="44.75105" lon="0.5062">
        <ele>143.4</ele>
        <time>2025-07-14T08:14:45Z</time>
      </trkpt>
      <trkpt lat="44.75106" lon="0.50628">
        <ele>143.4</ele>
        <time>2025-07-14T08:14:46Z</time>
      </trkpt>
      <trkpt lat="44.75107" lon="0.50635">
        <ele>143.2</ele>
        <time>2025-07-14T08:14:47Z</time>
      </trkpt>
      <trkpt lat="44.75109" lon="0.50642">
        <ele>143.2</ele>
        <time>2025-07-14T08:14:48Z</time>
      </trkpt>
      <trkpt lat="44.75109" lon="0.5065">
        <ele>143</ele>
        <time>2025-07-14T08:14:49Z</time>
      </trkpt>
      <trkpt lat="44.7511" lon="0.50657">
        <ele>143.2</ele>
        <time>2025-07-14T08:14:50Z</time>
      </trkpt>
      <trkpt lat="44.7511" lon="0.50665">
        <ele>143.2</ele>
        <time>2025-07-14T08:14:51Z</time>
      </trkpt>
      <trkpt lat="44.7511" lon="0.50673">
        <ele>143.2</ele>
        <time>2025-07-14T08:14:52Z</time>
      </trkpt>
      <trkpt lat="44.7511" lon="0.5068">
        <ele>143.4</ele>
        <time>2025-07-14T08:14:53Z</time>
      </trkpt>
      <trkpt lat="44.75109" lon="0.50687">
        <ele>143.6</ele>
        <time>2025-07-14T08:14:54Z</time>
      </trkpt>
      <trkpt lat="44.75109" lon="0.50694">
        <ele>143.6</ele>
        <time>2025-07-14T08:14:55Z</time>
      </trkpt>
      <trkpt lat="44.75109" lon="0.50701">
        <ele>143.8</ele>
        <time>2025-07-14T08:14:56Z</time>
      </trkpt>
      <trkpt lat="44.75109" lon="0.50707">
        <ele>143.8</ele>
        <time>2025-07-14T08:14:57Z</time>
      </trkpt>
      <trkpt lat="44.75108" lon="0.50714">
        <ele>144</ele>
        <time>2025-07-14T08:14:58Z</time>
      </trkpt>
      <trkpt lat="44.75108" lon="0.5072">
        <ele>144</ele>
        <time>2025-07-14T08:14:59Z</time>
      </trkpt>
      <trkpt lat="44.75109" lon="0.50727">
        <ele>144.2</ele>
        <time>2025-07-14T08:15:00Z</time>
      </trkpt>
      <trkpt lat="44.75109" lon="0.50734">
        <ele>144.4</ele>
        <time>2025-07-14T08:15:01Z</time>
      </trkpt>
      <trkpt lat="44.75109" lon="0.50741">
        <ele>144.4</ele>
        <time>2025-07-14T08:15:02Z</time>
      </trkpt>
      <trkpt lat="44.75109" lon="0.50747">
        <ele>144.4</ele>
        <time>2025-07-14T08:15:03Z</time>
      </trkpt>
      <trkpt lat="44.75108" lon="0.50754">
        <ele>144.4</ele>
        <time>2025-07-14T08:15:04Z</time>
      </trkpt>
      <trkpt lat="44.75107" lon="0.50761">
        <ele>144.4</ele>
        <time>2025-07-14T08:15:05Z</time>
      </trkpt>
      <trkpt lat="44.75106" lon="0.50769">
        <ele>144.2</ele>
        <time>2025-07-14T08:15:06Z</time>
      </trkpt>
      <trkpt lat="44.75105" lon="0.50776">
        <ele>144.2</ele>
        <time>2025-07-14T08:15:07Z</time>
      </trkpt>
      <trkpt lat="44.75105" lon="0.50784">
        <ele>144</ele>
        <time>2025-07-14T08:15:08Z</time>
      </trkpt>
      <trkpt lat="44.75104" lon="0.50793">
        <ele>144</ele>
        <time>2025-07-14T08:15:09Z</time>
      </trkpt>
      <trkpt lat="44.75102" lon="0.50801">
        <ele>143.8</ele>
        <time>2025-07-14T08:15:10Z</time>
      </trkpt>
      <trkpt lat="44.75101" lon="0.5081">
        <ele>143.6</ele>
        <time>2025-07-14T08:15:11Z</time>
      </trkpt>
      <trkpt lat="44.751" lon="0.50818">
        <ele>143.6</ele>
        <time>2025-07-14T08:15:12Z</time>
      </trkpt>
      <trkpt lat="44.75097" lon="0.50826">
        <ele>143.4</ele>
        <time>2025-07-14T08:15:13Z</time>
      </trkpt>
      <trkpt lat="44.75095" lon="0.50833">
        <ele>143.2</ele>
        <time>2025-07-14T08:15:14Z</time>
      </trkpt>
      <trkpt lat="44.75093" lon="0.50841">
        <ele>143</ele>
        <time>2025-07-14T08:15:15Z</time>
      </trkpt>
      <trkpt lat="44.75092" lon="0.50849">
        <ele>143</ele>
        <time>2025-07-14T08:15:16Z</time>
      </trkpt>
      <trkpt lat="44.7509" lon="0.50857">
        <ele>142.8</ele>
        <time>2025-07-14T08:15:17Z</time>
      </trkpt>
      <trkpt lat="44.75088" lon="0.50866">
        <ele>142.8</ele>
        <time>2025-07-14T08:15:18Z</time>
      </trkpt>
      <trkpt lat="44.75086" lon="0.50874">
        <ele>142.8</ele>
        <time>2025-07-14T08:15:19Z</time>
      </trkpt>
      <trkpt lat="44.75085" lon="0.50881">
        <ele>142.8</ele>
        <time>2025-07-14T08:15:20Z</time>
      </trkpt>
      <trkpt lat="44.75083" lon="0.50889">
        <ele>142.6</ele>
        <time>2025-07-14T08:15:21Z</time>
      </trkpt>
      <trkpt lat="44.75081" lon="0.50896">
        <ele>142.8</ele>
        <time>2025-07-14T08:15:22Z</time>
      </trkpt>
      <trkpt lat="44.75079" lon="0.50904">
        <ele>142.8</ele>
        <time>2025-07-14T08:15:23Z</time>
      </trkpt>
      <trkpt lat="44.75078" lon="0.50911">
        <ele>142.8</ele>
        <time>2025-07-14T08:15:24Z</time>
      </trkpt>
      <trkpt lat="44.75076" lon="0.50918">
        <ele>142.8</ele>
        <time>2025-07-14T08:15:25Z</time>
      </trkpt>
      <trkpt lat="44.75075" lon="0.50925">
        <ele>143</ele>
        <time>2025-07-14T08:15:26Z</time>
      </trkpt>
      <trkpt lat="44.75074" lon="0.50931">
        <ele>143.2</ele>
        <time>2025-07-14T08:15:27Z</time>
      </trkpt>
      <trkpt lat="44.75073" lon="0.50937">
        <ele>143.4</ele>
        <time>2025-07-14T08:15:28Z</time>
      </trkpt>
      <trkpt lat="44.75072" lon="0.50943">
        <ele>143.4</ele>
        <time>2025-07-14T08:15:29Z</time>
      </trkpt>
      <trkpt lat="44.75071" lon="0.50949">
        <ele>143.6</ele>
        <time>2025-07-14T08:15:30Z</time>
      </trkpt>
      <trkpt lat="44.75071" lon="0.50955">
        <ele>143.8</ele>
        <time>2025-07-14T08:15:31Z</time>
      </trkpt>
      <trkpt lat="44.7507" lon="0.50962">
        <ele>144</ele>
        <time>2025-07-14T08:15:32Z</time>
      </trkpt>
      <trkpt lat="44.7507" lon="0.50968">
        <ele>144.2</ele>
        <time>2025-07-14T08:15:33Z</time>
      </trkpt>
      <trkpt lat="44.75069" lon="0.50975">
        <ele>144.4</ele>
        <time>2025-07-14T08:15:34Z</time>
      </trkpt>
      <trkpt lat="44.75068" lon="0.50982">
        <ele>144.4</ele>
        <time>2025-07-14T08:15:35Z</time>
      </trkpt>
      <trkpt lat="44.75067" lon="0.50989">
        <ele>144.4</ele>
        <time>2025-07-14T08:15:36Z</time>
      </trkpt>
      <trkpt lat="44.75066" lon="0.50995">
        <ele>144.2</ele>
        <time>2025-07-14T08:15:37Z</time>
      </trkpt>
      <trkpt lat="44.75065" lon="0.51001">
        <ele>144.2</ele>
        <time>2025-07-14T08:15:38Z</time>
      </trkpt>
      <trkpt lat="44.75063" lon="0.51008">
        <ele>144.2</ele>
        <time>2025-07-14T08:15:39Z</time>
      </trkpt>
      <trkpt lat="44.75064" lon="0.51015">
        <ele>144.2</ele>
        <time>2025-07-14T08:15:40Z</time>
      </trkpt>
      <trkpt lat="44.75066" lon="0.51021">
        <ele>144.2</ele>
        <time>2025-07-14T08:15:41Z</time>
      </trkpt>
      <trkpt lat="44.75069" lon="0.51025">
        <ele>144.2</ele>
        <time>2025-07-14T08:15:42Z</time>
      </trkpt>
      <trkpt lat="44.75072" lon="0.51026">
        <ele>144.2</ele>
        <time>2025-07-14T08:15:43Z</time>
      </trkpt>
      <trkpt lat="44.75075" lon="0.51027">
        <ele>144.2</ele>
        <time>2025-07-14T08:15:44Z</time>
      </trkpt>
      <trkpt lat="44.75077" lon="0.51028">
        <ele>144.4</ele>
        <time>2025-07-14T08:15:45Z</time>
      </trkpt>
      <trkpt lat="44.75079" lon="0.51029">
        <ele>144.4</ele>
        <time>2025-07-14T08:15:46Z</time>
      </trkpt>
      <trkpt lat="44.75082" lon="0.5103">
        <ele>144.6</ele>
        <time>2025-07-14T08:15:47Z</time>
      </trkpt>
      <trkpt lat="44.75084" lon="0.51031">
        <ele>144.8</ele>
        <time>2025-07-14T08:15:48Z</time>
      </trkpt>
      <trkpt lat="44.75086" lon="0.51032">
        <ele>145.2</ele>
        <time>2025-07-14T08:15:49Z</time>
      </trkpt>
      <trkpt lat="44.75088" lon="0.51032">
        <ele>145.4</ele>
        <time>2025-07-14T08:15:50Z</time>
      </trkpt>
      <trkpt lat="44.75091" lon="0.51033">
        <ele>145.6</ele>
        <time>2025-07-14T08:15:51Z</time>
      </trkpt>
      <trkpt lat="44.75093" lon="0.51034">
        <ele>145.8</ele>
        <time>2025-07-14T08:15:52Z</time>
      </trkpt>
      <trkpt lat="44.75095" lon="0.51035">
        <ele>146</ele>
        <time>2025-07-14T08:15:53Z</time>
      </trkpt>
      <trkpt lat="44.75097" lon="0.51036">
        <ele>146.2</ele>
        <time>2025-07-14T08:15:54Z</time>
      </trkpt>
      <trkpt lat="44.75099" lon="0.51037">
        <ele>146.4</ele>
        <time>2025-07-14T08:15:55Z</time>
      </trkpt>
      <trkpt lat="44.75101" lon="0.51038">
        <ele>146.8</ele>
        <time>2025-07-14T08:15:56Z</time>
      </trkpt>
      <trkpt lat="44.75103" lon="0.5104">
        <ele>146.8</ele>
        <time>2025-07-14T08:15:57Z</time>
      </trkpt>
      <trkpt lat="44.75105" lon="0.51041">
        <ele>147</ele>
        <time>2025-07-14T08:15:58Z</time>
      </trkpt>
      <trkpt lat="44.75106" lon="0.51042">
        <ele>147.2</ele>
        <time>2025-07-14T08:15:59Z</time>
      </trkpt>
      <trkpt lat="44.75108" lon="0.51043">
        <ele>147.4</ele>
        <time>2025-07-14T08:16:00Z</time>
      </trkpt>
      <trkpt lat="44.7511" lon="0.51043">
        <ele>147.6</ele>
        <time>2025-07-14T08:16:01Z</time>
      </trkpt>
      <trkpt lat="44.75111" lon="0.51044">
        <ele>147.8</ele>
        <time>2025-07-14T08:16:02Z</time>
      </trkpt>
      <trkpt lat="44.75113" lon="0.51045">
        <ele>148</ele>
        <time>2025-07-14T08:16:03Z</time>
      </trkpt>
      <trkpt lat="44.75115" lon="0.51046">
        <ele>148.2</ele>
        <time>2025-07-14T08:16:04Z</time>
      </trkpt>
      <trkpt lat="44.75116" lon="0.51047">
        <ele>148.6</ele>
        <time>2025-07-14T08:16:05Z</time>
      </trkpt>
      <trkpt lat="44.75117" lon="0.51047">
        <ele>148.8</ele>
        <time>2025-07-14T08:16:06Z</time>
      </trkpt>
      <trkpt lat="44.75119" lon="0.51048">
        <ele>149</ele>
        <time>2025-07-14T08:16:07Z</time>
      </trkpt>
      <trkpt lat="44.7512" lon="0.5105">
        <ele>149.2</ele>
        <time>2025-07-14T08:16:08Z</time>
      </trkpt>
      <trkpt lat="44.75122" lon="0.51051">
        <ele>149.4</ele>
        <time>2025-07-14T08:16:09Z</time>
      </trkpt>
      <trkpt lat="44.75124" lon="0.51052">
        <ele>149.6</ele>
        <time>2025-07-14T08:16:10Z</time>
      </trkpt>
      <trkpt lat="44.75125" lon="0.51053">
        <ele>149.8</ele>
        <time>2025-07-14T08:16:11Z</time>
      </trkpt>
      <trkpt lat="44.75127" lon="0.51054">
        <ele>150</ele>
        <time>2025-07-14T08:16:12Z</time>
      </trkpt>
      <trkpt lat="44.75129" lon="0.51055">
        <ele>150</ele>
        <time>2025-07-14T08:16:13Z</time>
      </trkpt>
      <trkpt lat="44.7513" lon="0.51056">
        <ele>150.2</ele>
        <time>2025-07-14T08:16:14Z</time>
      </trkpt>
      <trkpt lat="44.75132" lon="0.51057">
        <ele>150.4</ele>
        <time>2025-07-14T08:16:15Z</time>
      </trkpt>
      <trkpt lat="44.75134" lon="0.51057">
        <ele>150.6</ele>
        <time>2025-07-14T08:16:16Z</time>
      </trkpt>
      <trkpt lat="44.75136" lon="0.51058">
        <ele>150.8</ele>
        <time>2025-07-14T08:16:17Z</time>
      </trkpt>
      <trkpt lat="44.75137" lon="0.51059">
        <ele>151</ele>
        <time>2025-07-14T08:16:18Z</time>
      </trkpt>
      <trkpt lat="44.75139" lon="0.5106">
        <ele>151.2</ele>
        <time>2025-07-14T08:16:19Z</time>
      </trkpt>
      <trkpt lat="44.75141" lon="0.51061">
        <ele>151.2</ele>
        <time>2025-07-14T08:16:20Z</time>
      </trkpt>
      <trkpt lat="44.75143" lon="0.51062">
        <ele>151.4</ele>
        <time>2025-07-14T08:16:21Z</time>
      </trkpt>
      <trkpt lat="44.75144" lon="0.51063">
        <ele>151.8</ele>
        <time>2025-07-14T08:16:22Z</time>
      </trkpt>
      <trkpt lat="44.75145" lon="0.51066">
        <ele>152</ele>
        <time>2025-07-14T08:16:23Z</time>
      </trkpt>
      <trkpt lat="44.75144" lon="0.51068">
        <ele>152</ele>
        <time>2025-07-14T08:16:24Z</time>
      </trkpt>
      <trkpt lat="44.75142" lon="0.5107">
        <ele>152.2</ele>
        <time>2025-07-14T08:16:25Z</time>
      </trkpt>
      <trkpt lat="44.75141" lon="0.51072">
        <ele>152.4</ele>
        <time>2025-07-14T08:16:26Z</time>
      </trkpt>
      <trkpt lat="44.75139" lon="0.51074">
        <ele>152.6</ele>
        <time>2025-07-14T08:16:27Z</time>
      </trkpt>
      <trkpt lat="44.75138" lon="0.51077">
        <ele>152.6</ele>
        <time>2025-07-14T08:16:28Z</time>
      </trkpt>
      <trkpt lat="44.75137" lon="0.5108">
        <ele>152.8</ele>
        <time>2025-07-14T08:16:29Z</time>
      </trkpt>
      <trkpt lat="44.75136" lon="0.51083">
        <ele>152.8</ele>
        <time>2025-07-14T08:16:30Z</time>
      </trkpt>
      <trkpt lat="44.75135" lon="0.51085">
        <ele>152.8</ele>
        <time>2025-07-14T08:16:31Z</time>
      </trkpt>
      <trkpt lat="44.75134" lon="0.51088">
        <ele>153</ele>
        <time>2025-07-14T08:16:32Z</time>
      </trkpt>
      <trkpt lat="44.75132" lon="0.51091">
        <ele>153.2</ele>
        <time>2025-07-14T08:16:33Z</time>
      </trkpt>
      <trkpt lat="44.75131" lon="0.51094">
        <ele>153.2</ele>
        <time>2025-07-14T08:16:34Z</time>
      </trkpt>
      <trkpt lat="44.7513" lon="0.51097">
        <ele>153.4</ele>
        <time>2025-07-14T08:16:35Z</time>
      </trkpt>
      <trkpt lat="44.75129" lon="0.51101">
        <ele>153.4</ele>
        <time>2025-07-14T08:16:36Z</time>
      </trkpt>
      <trkpt lat="44.75127" lon="0.51104">
        <ele>153.4</ele>
        <time>2025-07-14T08:16:37Z</time>
      </trkpt>
      <trkpt lat="44.75126" lon="0.51108">
        <ele>153.4</ele>
        <time>2025-07-14T08:16:38Z</time>
      </trkpt>
      <trkpt lat="44.75124" lon="0.51111">
        <ele>153.6</ele>
        <time>2025-07-14T08:16:39Z</time>
      </trkpt>
      <trkpt lat="44.75123" lon="0.51115">
        <ele>153.6</ele>
        <time>2025-07-14T08:16:40Z</time>
      </trkpt>
      <trkpt lat="44.75121" lon="0.51118">
        <ele>153.6</ele>
        <time>2025-07-14T08:16:41Z</time>
      </trkpt>
      <trkpt lat="44.7512" lon="0.51122">
        <ele>153.6</ele>
        <time>2025-07-14T08:16:42Z</time>
      </trkpt>
      <trkpt lat="44.75118" lon="0.51125">
        <ele>153.8</ele>
        <time>2025-07-14T08:16:43Z</time>
      </trkpt>
      <trkpt lat="44.75117" lon="0.51129">
        <ele>153.8</ele>
        <time>2025-07-14T08:16:44Z</time>
      </trkpt>
      <trkpt lat="44.75115" lon="0.51132">
        <ele>153.8</ele>
        <time>2025-07-14T08:16:45Z</time>
      </trkpt>
      <trkpt lat="44.75113" lon="0.51136">
        <ele>153.8</ele>
        <time>2025-07-14T08:16:46Z</time>
      </trkpt>
      <trkpt lat="44.75111" lon="0.5114">
        <ele>153.8</ele>
        <time>2025-07-14T08:16:47Z</time>
      </trkpt>
      <trkpt lat="44.7511" lon="0.51143">
        <ele>153.8</ele>
        <time>2025-07-14T08:16:48Z</time>
      </trkpt>
      <trkpt lat="44.75108" lon="0.51147">
        <ele>153.8</ele>
        <time>2025-07-14T08:16:49Z</time>
      </trkpt>
      <trkpt lat="44.75106" lon="0.51151">
        <ele>154</ele>
        <time>2025-07-14T08:16:50Z</time>
      </trkpt>
      <trkpt lat="44.75105" lon="0.51155">
        <ele>154</ele>
        <time>2025-07-14T08:16:51Z</time>
      </trkpt>
      <trkpt lat="44.75104" lon="0.51159">
        <ele>154.2</ele>
        <time>2025-07-14T08:16:52Z</time>
      </trkpt>
      <trkpt lat="44.75103" lon="0.51164">
        <ele>154.2</ele>
        <time>2025-07-14T08:16:53Z</time>
      </trkpt>
      <trkpt lat="44.75102" lon="0.51168">
        <ele>154.2</ele>
        <time>2025-07-14T08:16:54Z</time>
      </trkpt>
      <trkpt lat="44.75102" lon="0.51172">
        <ele>154.4</ele>
        <time>2025-07-14T08:16:55Z</time>
      </trkpt>
      <trkpt lat="44.75101" lon="0.51177">
        <ele>154.4</ele>
        <time>2025-07-14T08:16:56Z</time>
      </trkpt>
      <trkpt lat="44.75101" lon="0.51181">
        <ele>154.4</ele>
        <time>2025-07-14T08:16:57Z</time>
      </trkpt>
      <trkpt lat="44.75101" lon="0.51186">
        <ele>154.6</ele>
        <time>2025-07-14T08:16:58Z</time>
      </trkpt>
      <trkpt lat="44.75101" lon="0.5119">
        <ele>154.6</ele>
        <time>2025-07-14T08:16:59Z</time>
      </trkpt>
      <trkpt lat="44.75101" lon="0.51195">
        <ele>154.6</ele>
        <time>2025-07-14T08:17:00Z</time>
      </trkpt>
      <trkpt lat="44.75101" lon="0.512">
        <ele>154.6</ele>
        <time>2025-07-14T08:17:01Z</time>
      </trkpt>
      <trkpt lat="44.751" lon="0.51205">
        <ele>154.6</ele>
        <time>2025-07-14T08:17:02Z</time>
      </trkpt>
      <trkpt lat="44.751" lon="0.51209">
        <ele>154.6</ele>
        <time>2025-07-14T08:17:03Z</time>
      </trkpt>
      <trkpt lat="44.75101" lon="0.51214">
        <ele>154.6</ele>
        <time>2025-07-14T08:17:04Z</time>
      </trkpt>
      <trkpt lat="44.751" lon="0.51219">
        <ele>154.8</ele>
        <time>2025-07-14T08:17:05Z</time>
      </trkpt>
      <trkpt lat="44.751" lon="0.51224">
        <ele>154.8</ele>
        <time>2025-07-14T08:17:06Z</time>
      </trkpt>
      <trkpt lat="44.751" lon="0.5123">
        <ele>154.6</ele>
        <time>2025-07-14T08:17:07Z</time>
      </trkpt>
      <trkpt lat="44.751" lon="0.51237">
        <ele>154.6</ele>
        <time>2025-07-14T08:17:08Z</time>
      </trkpt>
      <trkpt lat="44.75099" lon="0.51243">
        <ele>154.6</ele>
        <time>2025-07-14T08:17:09Z</time>
      </trkpt>
      <trkpt lat="44.75099" lon="0.51251">
        <ele>154.4</ele>
        <time>2025-07-14T08:17:10Z</time>
      </trkpt>
      <trkpt lat="44.75098" lon="0.51258">
        <ele>154.4</ele>
        <time>2025-07-14T08:17:11Z</time>
      </trkpt>
      <trkpt lat="44.75098" lon="0.51265">
        <ele>154.2</ele>
        <time>2025-07-14T08:17:12Z</time>
      </trkpt>
      <trkpt lat="44.75097" lon="0.51272">
        <ele>154.2</ele>
        <time>2025-07-14T08:17:13Z</time>
      </trkpt>
      <trkpt lat="44.75096" lon="0.51279">
        <ele>154</ele>
        <time>2025-07-14T08:17:14Z</time>
      </trkpt>
      <trkpt lat="44.75096" lon="0.51285">
        <ele>154</ele>
        <time>2025-07-14T08:17:15Z</time>
      </trkpt>
      <trkpt lat="44.75095" lon="0.51291">
        <ele>153.8</ele>
        <time>2025-07-14T08:17:16Z</time>
      </trkpt>
      <trkpt lat="44.75094" lon="0.51297">
        <ele>153.8</ele>
        <time>2025-07-14T08:17:17Z</time>
      </trkpt>
      <trkpt lat="44.75094" lon="0.51302">
        <ele>153.8</ele>
        <time>2025-07-14T08:17:18Z</time>
      </trkpt>
      <trkpt lat="44.75096" lon="0.51307">
        <ele>153.8</ele>
        <time>2025-07-14T08:17:19Z</time>
      </trkpt>
      <trkpt lat="44.75098" lon="0.5131">
        <ele>153.8</ele>
        <time>2025-07-14T08:17:20Z</time>
      </trkpt>
      <trkpt lat="44.751" lon="0.51312">
        <ele>153.8</ele>
        <time>2025-07-14T08:17:21Z</time>
      </trkpt>
      <trkpt lat="44.75103" lon="0.51315">
        <ele>154</ele>
        <time>2025-07-14T08:17:22Z</time>
      </trkpt>
      <trkpt lat="44.75105" lon="0.51317">
        <ele>154.2</ele>
        <time>2025-07-14T08:17:23Z</time>
      </trkpt>
      <trkpt lat="44.75107" lon="0.51319">
        <ele>154.4</ele>
        <time>2025-07-14T08:17:24Z</time>
      </trkpt>
      <trkpt lat="44.75109" lon="0.51321">
        <ele>154.4</ele>
        <time>2025-07-14T08:17:25Z</time>
      </trkpt>
      <trkpt lat="44.75112" lon="0.51323">
        <ele>154.6</ele>
        <time>2025-07-14T08:17:26Z</time>
      </trkpt>
      <trkpt lat="44.75114" lon="0.51326">
        <ele>154.8</ele>
        <time>2025-07-14T08:17:27Z</time>
      </trkpt>
      <trkpt lat="44.75116" lon="0.51328">
        <ele>154.8</ele>
        <time>2025-07-14T08:17:28Z</time>
      </trkpt>
      <trkpt lat="44.75118" lon="0.5133">
        <ele>155</ele>
        <time>2025-07-14T08:17:29Z</time>
      </trkpt>
      <trkpt lat="44.75121" lon="0.51333">
        <ele>155.2</ele>
        <time>2025-07-14T08:17:30Z</time>
      </trkpt>
      <trkpt lat="44.75123" lon="0.51335">
        <ele>155.2</ele>
        <time>2025-07-14T08:17:31Z</time>
      </trkpt>
      <trkpt lat="44.75125" lon="0.51337">
        <ele>155.4</ele>
        <time>2025-07-14T08:17:32Z</time>
      </trkpt>
      <trkpt lat="44.75128" lon="0.51339">
        <ele>155.4</ele>
        <time>2025-07-14T08:17:33Z</time>
      </trkpt>
      <trkpt lat="44.7513" lon="0.51341">
        <ele>155.6</ele>
        <time>2025-07-14T08:17:34Z</time>
      </trkpt>
      <trkpt lat="44.75132" lon="0.51344">
        <ele>155.8</ele>
        <time>2025-07-14T08:17:35Z</time>
      </trkpt>
      <trkpt lat="44.75135" lon="0.51346">
        <ele>155.8</ele>
        <time>2025-07-14T08:17:36Z</time>
      </trkpt>
      <trkpt lat="44.75137" lon="0.51347">
        <ele>156</ele>
        <time>2025-07-14T08:17:37Z</time>
      </trkpt>
      <trkpt lat="44.7514" lon="0.51349">
        <ele>156.2</ele>
        <time>2025-07-14T08:17:38Z</time>
      </trkpt>
      <trkpt lat="44.75143" lon="0.51351">
        <ele>156.4</ele>
        <time>2025-07-14T08:17:39Z</time>
      </trkpt>
      <trkpt lat="44.75145" lon="0.51353">
        <ele>156.4</ele>
        <time>2025-07-14T08:17:40Z</time>
      </trkpt>
      <trkpt lat="44.75148" lon="0.51355">
        <ele>156.6</ele>
        <time>2025-07-14T08:17:41Z</time>
      </trkpt>
      <trkpt lat="44.7515" lon="0.51357">
        <ele>156.8</ele>
        <time>2025-07-14T08:17:42Z</time>
      </trkpt>
      <trkpt lat="44.75153" lon="0.51359">
        <ele>157</ele>
        <time>2025-07-14T08:17:43Z</time>
      </trkpt>
      <trkpt lat="44.75156" lon="0.51361">
        <ele>157</ele>
        <time>2025-07-14T08:17:44Z</time>
      </trkpt>
      <trkpt lat="44.75158" lon="0.51362">
        <ele>157.2</ele>
        <time>2025-07-14T08:17:45Z</time>
      </trkpt>
      <trkpt lat="44.75161" lon="0.51364">
        <ele>157.4</ele>
        <time>2025-07-14T08:17:46Z</time>
      </trkpt>
      <trkpt lat="44.75163" lon="0.51366">
        <ele>157.6</ele>
        <time>2025-07-14T08:17:47Z</time>
      </trkpt>
      <trkpt lat="44.75166" lon="0.51367">
        <ele>157.6</ele>
        <time>2025-07-14T08:17:48Z</time>
      </trkpt>
      <trkpt lat="44.75169" lon="0.51369">
        <ele>157.8</ele>
        <time>2025-07-14T08:17:49Z</time>
      </trkpt>
      <trkpt lat="44.75172" lon="0.5137">
        <ele>158</ele>
        <time>2025-07-14T08:17:50Z</time>
      </trkpt>
      <trkpt lat="44.75175" lon="0.51371">
        <ele>158.2</ele>
        <time>2025-07-14T08:17:51Z</time>
      </trkpt>
      <trkpt lat="44.75177" lon="0.51373">
        <ele>158.4</ele>
        <time>2025-07-14T08:17:52Z</time>
      </trkpt>
      <trkpt lat="44.7518" lon="0.51374">
        <ele>158.6</ele>
        <time>2025-07-14T08:17:53Z</time>
      </trkpt>
      <trkpt lat="44.75183" lon="0.51375">
        <ele>158.6</ele>
        <time>2025-07-14T08:17:54Z</time>
      </trkpt>
      <trkpt lat="44.75185" lon="0.51376">
        <ele>158.8</ele>
        <time>2025-07-14T08:17:55Z</time>
      </trkpt>
      <trkpt lat="44.75188" lon="0.51377">
        <ele>159</ele>
        <time>2025-07-14T08:17:56Z</time>
      </trkpt>
      <trkpt lat="44.7519" lon="0.51378">
        <ele>159.2</ele>
        <time>2025-07-14T08:17:57Z</time>
      </trkpt>
      <trkpt lat="44.75193" lon="0.51379">
        <ele>159.4</ele>
        <time>2025-07-14T08:17:58Z</time>
      </trkpt>
      <trkpt lat="44.75196" lon="0.5138">
        <ele>159.8</ele>
        <time>2025-07-14T08:17:59Z</time>
      </trkpt>
      <trkpt lat="44.75198" lon="0.51381">
        <ele>160</ele>
        <time>2025-07-14T08:18:00Z</time>
      </trkpt>
      <trkpt lat="44.75201" lon="0.51382">
        <ele>160.2</ele>
        <time>2025-07-14T08:18:01Z</time>
      </trkpt>
      <trkpt lat="44.75203" lon="0.51382">
        <ele>160.4</ele>
        <time>2025-07-14T08:18:02Z</time>
      </trkpt>
      <trkpt lat="44.75206" lon="0.51383">
        <ele>160.6</ele>
        <time>2025-07-14T08:18:03Z</time>
      </trkpt>
      <trkpt lat="44.75209" lon="0.51383">
        <ele>161</ele>
        <time>2025-07-14T08:18:04Z</time>
      </trkpt>
      <trkpt lat="44.75212" lon="0.51383">
        <ele>161.2</ele>
        <time>2025-07-14T08:18:05Z</time>
      </trkpt>
      <trkpt lat="44.75215" lon="0.51384">
        <ele>161.4</ele>
        <time>2025-07-14T08:18:06Z</time>
      </trkpt>
      <trkpt lat="44.75218" lon="0.51385">
        <ele>161.6</ele>
        <time>2025-07-14T08:18:07Z</time>
      </trkpt>
      <trkpt lat="44.75221" lon="0.51385">
        <ele>161.8</ele>
        <time>2025-07-14T08:18:08Z</time>
      </trkpt>
      <trkpt lat="44.75223" lon="0.51385">
        <ele>162.2</ele>
        <time>2025-07-14T08:18:09Z</time>
      </trkpt>
      <trkpt lat="44.75226" lon="0.51386">
        <ele>162.4</ele>
        <time>2025-07-14T08:18:10Z</time>
      </trkpt>
      <trkpt lat="44.75229" lon="0.51386">
        <ele>162.6</ele>
        <time>2025-07-14T08:18:11Z</time>
      </trkpt>
      <trkpt lat="44.75232" lon="0.51387">
        <ele>162.6</ele>
        <time>2025-07-14T08:18:12Z</time>
      </trkpt>
      <trkpt lat="44.75235" lon="0.51387">
        <ele>162.8</ele>
        <time>2025-07-14T08:18:13Z</time>
      </trkpt>
      <trkpt lat="44.75238" lon="0.51387">
        <ele>163</ele>
        <time>2025-07-14T08:18:14Z</time>
      </trkpt>
      <trkpt lat="44.75241" lon="0.51387">
        <ele>163.2</ele>
        <time>2025-07-14T08:18:15Z</time>
      </trkpt>
      <trkpt lat="44.75245" lon="0.51387">
        <ele>163.2</ele>
        <time>2025-07-14T08:18:16Z</time>
      </trkpt>
      <trkpt lat="44.75248" lon="0.51387">
        <ele>163.4</ele>
        <time>2025-07-14T08:18:17Z</time>
      </trkpt>
      <trkpt lat="44.75252" lon="0.51387">
        <ele>163.4</ele>
        <time>2025-07-14T08:18:18Z</time>
      </trkpt>
      <trkpt lat="44.75255" lon="0.51387">
        <ele>163.6</ele>
        <time>2025-07-14T08:18:19Z</time>
      </trkpt>
      <trkpt lat="44.75259" lon="0.51388">
        <ele>163.8</ele>
        <time>2025-07-14T08:18:20Z</time>
      </trkpt>
      <trkpt lat="44.75263" lon="0.51388">
        <ele>163.8</ele>
        <time>2025-07-14T08:18:21Z</time>
      </trkpt>
      <trkpt lat="44.75267" lon="0.51389">
        <ele>163.6</ele>
        <time>2025-07-14T08:18:22Z</time>
      </trkpt>
      <trkpt lat="44.75272" lon="0.5139">
        <ele>163.6</ele>
        <time>2025-07-14T08:18:23Z</time>
      </trkpt>
      <trkpt lat="44.75276" lon="0.5139">
        <ele>163.4</ele>
        <time>2025-07-14T08:18:24Z</time>
      </trkpt>
      <trkpt lat="44.75282" lon="0.5139">
        <ele>163.2</ele>
        <time>2025-07-14T08:18:25Z</time>
      </trkpt>
      <trkpt lat="44.75287" lon="0.51391">
        <ele>163</ele>
        <time>2025-07-14T08:18:26Z</time>
      </trkpt>
      <trkpt lat="44.75293" lon="0.51391">
        <ele>163</ele>
        <time>2025-07-14T08:18:27Z</time>
      </trkpt>
      <trkpt lat="44.75299" lon="0.51392">
        <ele>162.6</ele>
        <time>2025-07-14T08:18:28Z</time>
      </trkpt>
      <trkpt lat="44.75305" lon="0.51393">
        <ele>162.2</ele>
        <time>2025-07-14T08:18:29Z</time>
      </trkpt>
      <trkpt lat="44.75312" lon="0.51393">
        <ele>162</ele>
        <time>2025-07-14T08:18:30Z</time>
      </trkpt>
      <trkpt lat="44.75319" lon="0.51394">
        <ele>161.4</ele>
        <time>2025-07-14T08:18:31Z</time>
      </trkpt>
      <trkpt lat="44.75326" lon="0.51394">
        <ele>161</ele>
        <time>2025-07-14T08:18:32Z</time>
      </trkpt>
      <trkpt lat="44.75334" lon="0.51395">
        <ele>160.6</ele>
        <time>2025-07-14T08:18:33Z</time>
      </trkpt>
      <trkpt lat="44.75341" lon="0.51396">
        <ele>160.2</ele>
        <time>2025-07-14T08:18:34Z</time>
      </trkpt>
      <trkpt lat="44.75348" lon="0.51396">
        <ele>159.8</ele>
        <time>2025-07-14T08:18:35Z</time>
      </trkpt>
      <trkpt lat="44.75356" lon="0.51397">
        <ele>159.4</ele>
        <time>2025-07-14T08:18:36Z</time>
      </trkpt>
      <trkpt lat="44.75363" lon="0.51397">
        <ele>159</ele>
        <time>2025-07-14T08:18:37Z</time>
      </trkpt>
      <trkpt lat="44.75371" lon="0.51398">
        <ele>158.6</ele>
        <time>2025-07-14T08:18:38Z</time>
      </trkpt>
      <trkpt lat="44.75379" lon="0.51399">
        <ele>158.2</ele>
        <time>2025-07-14T08:18:39Z</time>
      </trkpt>
      <trkpt lat="44.75386" lon="0.51399">
        <ele>158</ele>
        <time>2025-07-14T08:18:40Z</time>
      </trkpt>
      <trkpt lat="44.75394" lon="0.51399">
        <ele>157.6</ele>
        <time>2025-07-14T08:18:41Z</time>
      </trkpt>
      <trkpt lat="44.75403" lon="0.514">
        <ele>157</ele>
        <time>2025-07-14T08:18:42Z</time>
      </trkpt>
      <trkpt lat="44.75412" lon="0.51401">
        <ele>156.6</ele>
        <time>2025-07-14T08:18:43Z</time>
      </trkpt>
      <trkpt lat="44.75421" lon="0.51403">
        <ele>156</ele>
        <time>2025-07-14T08:18:44Z</time>
      </trkpt>
      <trkpt lat="44.75432" lon="0.51404">
        <ele>155.4</ele>
        <time>2025-07-14T08:18:45Z</time>
      </trkpt>
      <trkpt lat="44.75443" lon="0.51405">
        <ele>154.4</ele>
        <time>2025-07-14T08:18:46Z</time>
      </trkpt>
      <trkpt lat="44.75454" lon="0.51406">
        <ele>153.4</ele>
        <time>2025-07-14T08:18:47Z</time>
      </trkpt>
      <trkpt lat="44.75465" lon="0.51408">
        <ele>152</ele>
        <time>2025-07-14T08:18:48Z</time>
      </trkpt>
      <trkpt lat="44.75477" lon="0.51409">
        <ele>151</ele>
        <time>2025-07-14T08:18:49Z</time>
      </trkpt>
      <trkpt lat="44.75488" lon="0.5141">
        <ele>150</ele>
        <time>2025-07-14T08:18:50Z</time>
      </trkpt>
      <trkpt lat="44.75499" lon="0.51411">
        <ele>149</ele>
        <time>2025-07-14T08:18:51Z</time>
      </trkpt>
      <trkpt lat="44.75508" lon="0.51412">
        <ele>148.2</ele>
        <time>2025-07-14T08:18:52Z</time>
      </trkpt>
      <trkpt lat="44.75515" lon="0.51413">
        <ele>147.4</ele>
        <time>2025-07-14T08:18:53Z</time>
      </trkpt>
      <trkpt lat="44.75521" lon="0.51413">
        <ele>146.8</ele>
        <time>2025-07-14T08:18:54Z</time>
      </trkpt>
      <trkpt lat="44.75526" lon="0.51414">
        <ele>146.4</ele>
        <time>2025-07-14T08:18:55Z</time>
      </trkpt>
      <trkpt lat="44.7553" lon="0.51412">
        <ele>146.2</ele>
        <time>2025-07-14T08:18:56Z</time>
      </trkpt>
      <trkpt lat="44.75534" lon="0.51408">
        <ele>146</ele>
        <time>2025-07-14T08:18:57Z</time>
      </trkpt>
      <trkpt lat="44.75535" lon="0.51402">
        <ele>146</ele>
        <time>2025-07-14T08:18:58Z</time>
      </trkpt>
      <trkpt lat="44.75538" lon="0.51396">
        <ele>145.8</ele>
        <time>2025-07-14T08:18:59Z</time>
      </trkpt>
      <trkpt lat="44.75543" lon="0.51393">
        <ele>145.6</ele>
        <time>2025-07-14T08:19:00Z</time>
      </trkpt>
      <trkpt lat="44.75549" lon="0.51392">
        <ele>145.4</ele>
        <time>2025-07-14T08:19:01Z</time>
      </trkpt>
      <trkpt lat="44.75556" lon="0.51393">
        <ele>145</ele>
        <time>2025-07-14T08:19:02Z</time>
      </trkpt>
      <trkpt lat="44.75563" lon="0.51394">
        <ele>144.8</ele>
        <time>2025-07-14T08:19:03Z</time>
      </trkpt>
      <trkpt lat="44.7557" lon="0.51396">
        <ele>144.4</ele>
        <time>2025-07-14T08:19:04Z</time>
      </trkpt>
      <trkpt lat="44.75577" lon="0.51398">
        <ele>143.8</ele>
        <time>2025-07-14T08:19:05Z</time>
      </trkpt>
      <trkpt lat="44.75585" lon="0.514">
        <ele>143.4</ele>
        <time>2025-07-14T08:19:06Z</time>
      </trkpt>
      <trkpt lat="44.75592" lon="0.51402">
        <ele>143</ele>
        <time>2025-07-14T08:19:07Z</time>
      </trkpt>
      <trkpt lat="44.75599" lon="0.51404">
        <ele>142.6</ele>
        <time>2025-07-14T08:19:08Z</time>
      </trkpt>
      <trkpt lat="44.75607" lon="0.51405">
        <ele>142.4</ele>
        <time>2025-07-14T08:19:09Z</time>
      </trkpt>
      <trkpt lat="44.75615" lon="0.51407">
        <ele>142</ele>
        <time>2025-07-14T08:19:10Z</time>
      </trkpt>
      <trkpt lat="44.75622" lon="0.51409">
        <ele>141.8</ele>
        <time>2025-07-14T08:19:11Z</time>
      </trkpt>
      <trkpt lat="44.75629" lon="0.51411">
        <ele>141.8</ele>
        <time>2025-07-14T08:19:12Z</time>
      </trkpt>
      <trkpt lat="44.75637" lon="0.51413">
        <ele>141.6</ele>
        <time>2025-07-14T08:19:13Z</time>
      </trkpt>
      <trkpt lat="44.75644" lon="0.51415">
        <ele>141.6</ele>
        <time>2025-07-14T08:19:14Z</time>
      </trkpt>
      <trkpt lat="44.75651" lon="0.51417">
        <ele>141.4</ele>
        <time>2025-07-14T08:19:15Z</time>
      </trkpt>
      <trkpt lat="44.75658" lon="0.51419">
        <ele>141.4</ele>
        <time>2025-07-14T08:19:16Z</time>
      </trkpt>
      <trkpt lat="44.75665" lon="0.51422">
        <ele>141.2</ele>
        <time>2025-07-14T08:19:17Z</time>
      </trkpt>
      <trkpt lat="44.75672" lon="0.51422">
        <ele>141</ele>
        <time>2025-07-14T08:19:18Z</time>
      </trkpt>
      <trkpt lat="44.75679" lon="0.5142">
        <ele>140.8</ele>
        <time>2025-07-14T08:19:19Z</time>
      </trkpt>
      <trkpt lat="44.75685" lon="0.51415">
        <ele>140.8</ele>
        <time>2025-07-14T08:19:20Z</time>
      </trkpt>
      <trkpt lat="44.75689" lon="0.51409">
        <ele>140.6</ele>
        <time>2025-07-14T08:19:21Z</time>
      </trkpt>
      <trkpt lat="44.75692" lon="0.51401">
        <ele>140.4</ele>
        <time>2025-07-14T08:19:22Z</time>
      </trkpt>
      <trkpt lat="44.75695" lon="0.51393">
        <ele>140.4</ele>
        <time>2025-07-14T08:19:23Z</time>
      </trkpt>
      <trkpt lat="44.75697" lon="0.51385">
        <ele>140.2</ele>
        <time>2025-07-14T08:19:24Z</time>
      </trkpt>
      <trkpt lat="44.757" lon="0.51377">
        <ele>140</ele>
        <time>2025-07-14T08:19:25Z</time>
      </trkpt>
      <trkpt lat="44.75702" lon="0.51369">
        <ele>140</ele>
        <time>2025-07-14T08:19:26Z</time>
      </trkpt>
      <trkpt lat="44.75706" lon="0.51362">
        <ele>140</ele>
        <time>2025-07-14T08:19:27Z</time>
      </trkpt>
      <trkpt lat="44.7571" lon="0.51356">
        <ele>139.8</ele>
        <time>2025-07-14T08:19:28Z</time>
      </trkpt>
      <trkpt lat="44.75716" lon="0.51351">
        <ele>139.8</ele>
        <time>2025-07-14T08:19:29Z</time>
      </trkpt>
      <trkpt lat="44.75722" lon="0.5135">
        <ele>139.8</ele>
        <time>2025-07-14T08:19:30Z</time>
      </trkpt>
      <trkpt lat="44.75728" lon="0.51352">
        <ele>139.6</ele>
        <time>2025-07-14T08:19:31Z</time>
      </trkpt>
      <trkpt lat="44.75734" lon="0.51355">
        <ele>139.4</ele>
        <time>2025-07-14T08:19:32Z</time>
      </trkpt>
      <trkpt lat="44.7574" lon="0.51358">
        <ele>139.2</ele>
        <time>2025-07-14T08:19:33Z</time>
      </trkpt>
      <trkpt lat="44.75745" lon="0.51361">
        <ele>139</ele>
        <time>2025-07-14T08:19:34Z</time>
      </trkpt>
      <trkpt lat="44.75751" lon="0.51364">
        <ele>139</ele>
        <time>2025-07-14T08:19:35Z</time>
      </trkpt>
      <trkpt lat="44.75757" lon="0.51367">
        <ele>138.8</ele>
        <time>2025-07-14T08:19:36Z</time>
      </trkpt>
      <trkpt lat="44.75763" lon="0.5137">
        <ele>139</ele>
        <time>2025-07-14T08:19:37Z</time>
      </trkpt>
      <trkpt lat="44.75768" lon="0.51373">
        <ele>139</ele>
        <time>2025-07-14T08:19:38Z</time>
      </trkpt>
      <trkpt lat="44.75773" lon="0.51377">
        <ele>139.2</ele>
        <time>2025-07-14T08:19:39Z</time>
      </trkpt>
      <trkpt lat="44.75778" lon="0.5138">
        <ele>139.4</ele>
        <time>2025-07-14T08:19:40Z</time>
      </trkpt>
      <trkpt lat="44.75783" lon="0.51383">
        <ele>139.6</ele>
        <time>2025-07-14T08:19:41Z</time>
      </trkpt>
      <trkpt lat="44.75788" lon="0.51386">
        <ele>139.8</ele>
        <time>2025-07-14T08:19:42Z</time>
      </trkpt>
      <trkpt lat="44.75792" lon="0.51389">
        <ele>140</ele>
        <time>2025-07-14T08:19:43Z</time>
      </trkpt>
      <trkpt lat="44.75796" lon="0.51392">
        <ele>140.2</ele>
        <time>2025-07-14T08:19:44Z</time>
      </trkpt>
      <trkpt lat="44.75801" lon="0.51394">
        <ele>140.6</ele>
        <time>2025-07-14T08:19:45Z</time>
      </trkpt>
      <trkpt lat="44.75805" lon="0.51397">
        <ele>140.6</ele>
        <time>2025-07-14T08:19:46Z</time>
      </trkpt>
      <trkpt lat="44.75809" lon="0.51399">
        <ele>140.8</ele>
        <time>2025-07-14T08:19:47Z</time>
      </trkpt>
      <trkpt lat="44.75814" lon="0.51402">
        <ele>141</ele>
        <time>2025-07-14T08:19:48Z</time>
      </trkpt>
      <trkpt lat="44.75818" lon="0.51405">
        <ele>141.2</ele>
        <time>2025-07-14T08:19:49Z</time>
      </trkpt>
      <trkpt lat="44.75823" lon="0.51406">
        <ele>141.4</ele>
        <time>2025-07-14T08:19:50Z</time>
      </trkpt>
      <trkpt lat="44.75827" lon="0.51408">
        <ele>141.6</ele>
        <time>2025-07-14T08:19:51Z</time>
      </trkpt>
      <trkpt lat="44.75831" lon="0.51408">
        <ele>141.8</ele>
        <time>2025-07-14T08:19:52Z</time>
      </trkpt>
      <trkpt lat="44.75836" lon="0.51408">
        <ele>142</ele>
        <time>2025-07-14T08:19:53Z</time>
      </trkpt>
      <trkpt lat="44.7584" lon="0.51407">
        <ele>142</ele>
        <time>2025-07-14T08:19:54Z</time>
      </trkpt>
      <trkpt lat="44.75845" lon="0.51405">
        <ele>142.2</ele>
        <time>2025-07-14T08:19:55Z</time>
      </trkpt>
      <trkpt lat="44.7585" lon="0.51406">
        <ele>142.2</ele>
        <time>2025-07-14T08:19:56Z</time>
      </trkpt>
      <trkpt lat="44.75856" lon="0.51408">
        <ele>142.4</ele>
        <time>2025-07-14T08:19:57Z</time>
      </trkpt>
      <trkpt lat="44.75861" lon="0.51411">
        <ele>142.4</ele>
        <time>2025-07-14T08:19:58Z</time>
      </trkpt>
      <trkpt lat="44.75866" lon="0.51414">
        <ele>142.4</ele>
        <time>2025-07-14T08:19:59Z</time>
      </trkpt>
      <trkpt lat="44.75872" lon="0.51417">
        <ele>142.4</ele>
        <time>2025-07-14T08:20:00Z</time>
      </trkpt>
      <trkpt lat="44.75877" lon="0.5142">
        <ele>142.2</ele>
        <time>2025-07-14T08:20:01Z</time>
      </trkpt>
      <trkpt lat="44.75883" lon="0.51423">
        <ele>141.8</ele>
        <time>2025-07-14T08:20:02Z</time>
      </trkpt>
      <trkpt lat="44.75889" lon="0.51427">
        <ele>141.4</ele>
        <time>2025-07-14T08:20:03Z</time>
      </trkpt>
      <trkpt lat="44.75896" lon="0.5143">
        <ele>141.2</ele>
        <time>2025-07-14T08:20:04Z</time>
      </trkpt>
      <trkpt lat="44.75902" lon="0.51434">
        <ele>141</ele>
        <time>2025-07-14T08:20:05Z</time>
      </trkpt>
      <trkpt lat="44.75909" lon="0.51437">
        <ele>140.8</ele>
        <time>2025-07-14T08:20:06Z</time>
      </trkpt>
      <trkpt lat="44.75916" lon="0.51441">
        <ele>140.4</ele>
        <time>2025-07-14T08:20:07Z</time>
      </trkpt>
      <trkpt lat="44.75923" lon="0.51444">
        <ele>140.2</ele>
        <time>2025-07-14T08:20:08Z</time>
      </trkpt>
      <trkpt lat="44.75929" lon="0.51448">
        <ele>140</ele>
        <time>2025-07-14T08:20:09Z</time>
      </trkpt>
      <trkpt lat="44.75936" lon="0.51452">
        <ele>139.6</ele>
        <time>2025-07-14T08:20:10Z</time>
      </trkpt>
      <trkpt lat="44.75943" lon="0.51456">
        <ele>139.4</ele>
        <time>2025-07-14T08:20:11Z</time>
      </trkpt>
      <trkpt lat="44.7595" lon="0.5146">
        <ele>139</ele>
        <time>2025-07-14T08:20:12Z</time>
      </trkpt>
      <trkpt lat="44.75956" lon="0.51464">
        <ele>138.8</ele>
        <time>2025-07-14T08:20:13Z</time>
      </trkpt>
      <trkpt lat="44.75962" lon="0.51468">
        <ele>138.6</ele>
        <time>2025-07-14T08:20:14Z</time>
      </trkpt>
      <trkpt lat="44.75968" lon="0.51471">
        <ele>138.4</ele>
        <time>2025-07-14T08:20:15Z</time>
      </trkpt>
      <trkpt lat="44.75974" lon="0.51475">
        <ele>138.4</ele>
        <time>2025-07-14T08:20:16Z</time>
      </trkpt>
      <trkpt lat="44.7598" lon="0.5148">
        <ele>138.4</ele>
        <time>2025-07-14T08:20:17Z</time>
      </trkpt>
      <trkpt lat="44.75985" lon="0.51485">
        <ele>138.4</ele>
        <time>2025-07-14T08:20:18Z</time>
      </trkpt>
      <trkpt lat="44.75991" lon="0.5149">
        <ele>138.4</ele>
        <time>2025-07-14T08:20:19Z</time>
      </trkpt>
      <trkpt lat="44.75997" lon="0.51494">
        <ele>138.4</ele>
        <time>2025-07-14T08:20:20Z</time>
      </trkpt>
      <trkpt lat="44.76003" lon="0.51495">
        <ele>138.2</ele>
        <time>2025-07-14T08:20:21Z</time>
      </trkpt>
      <trkpt lat="44.76009" lon="0.51496">
        <ele>138.4</ele>
        <time>2025-07-14T08:20:22Z</time>
      </trkpt>
      <trkpt lat="44.76016" lon="0.51497">
        <ele>138.4</ele>
        <time>2025-07-14T08:20:23Z</time>
      </trkpt>
      <trkpt lat="44.76022" lon="0.51497">
        <ele>138.4</ele>
        <time>2025-07-14T08:20:24Z</time>
      </trkpt>
      <trkpt lat="44.76027" lon="0.51498">
        <ele>138.4</ele>
        <time>2025-07-14T08:20:25Z</time>
      </trkpt>
      <trkpt lat="44.76032" lon="0.51503">
        <ele>138.4</ele>
        <time>2025-07-14T08:20:26Z</time>
      </trkpt>
      <trkpt lat="44.76034" lon="0.51508">
        <ele>138.4</ele>
        <time>2025-07-14T08:20:27Z</time>
      </trkpt>
      <trkpt lat="44.76034" lon="0.51514">
        <ele>138.4</ele>
        <time>2025-07-14T08:20:28Z</time>
      </trkpt>
      <trkpt lat="44.76032" lon="0.5152">
        <ele>138.4</ele>
        <time>2025-07-14T08:20:29Z</time>
      </trkpt>
      <trkpt lat="44.7603" lon="0.51524">
        <ele>138.4</ele>
        <time>2025-07-14T08:20:30Z</time>
      </trkpt>
      <trkpt lat="44.76028" lon="0.5153">
        <ele>138.6</ele>
        <time>2025-07-14T08:20:31Z</time>
      </trkpt>
      <trkpt lat="44.76026" lon="0.51536">
        <ele>138.6</ele>
        <time>2025-07-14T08:20:32Z</time>
      </trkpt>
      <trkpt lat="44.76023" lon="0.51542">
        <ele>138.8</ele>
        <time>2025-07-14T08:20:33Z</time>
      </trkpt>
      <trkpt lat="44.76021" lon="0.51549">
        <ele>138.8</ele>
        <time>2025-07-14T08:20:34Z</time>
      </trkpt>
      <trkpt lat="44.76019" lon="0.51556">
        <ele>138.6</ele>
        <time>2025-07-14T08:20:35Z</time>
      </trkpt>
      <trkpt lat="44.76017" lon="0.51563">
        <ele>138.6</ele>
        <time>2025-07-14T08:20:36Z</time>
      </trkpt>
      <trkpt lat="44.76015" lon="0.51571">
        <ele>138.6</ele>
        <time>2025-07-14T08:20:37Z</time>
      </trkpt>
      <trkpt lat="44.76012" lon="0.51578">
        <ele>138.4</ele>
        <time>2025-07-14T08:20:38Z</time>
      </trkpt>
      <trkpt lat="44.7601" lon="0.51586">
        <ele>138.4</ele>
        <time>2025-07-14T08:20:39Z</time>
      </trkpt>
      <trkpt lat="44.76008" lon="0.51593">
        <ele>138.4</ele>
        <time>2025-07-14T08:20:40Z</time>
      </trkpt>
      <trkpt lat="44.76006" lon="0.51601">
        <ele>138.4</ele>
        <time>2025-07-14T08:20:41Z</time>
      </trkpt>
      <trkpt lat="44.76004" lon="0.51609">
        <ele>138.2</ele>
        <time>2025-07-14T08:20:42Z</time>
      </trkpt>
      <trkpt lat="44.76003" lon="0.51617">
        <ele>138</ele>
        <time>2025-07-14T08:20:43Z</time>
      </trkpt>
      <trkpt lat="44.76001" lon="0.51625">
        <ele>137.6</ele>
        <time>2025-07-14T08:20:44Z</time>
      </trkpt>
      <trkpt lat="44.76" lon="0.51634">
        <ele>137.4</ele>
        <time>2025-07-14T08:20:45Z</time>
      </trkpt>
      <trkpt lat="44.75998" lon="0.51642">
        <ele>137</ele>
        <time>2025-07-14T08:20:46Z</time>
      </trkpt>
      <trkpt lat="44.75997" lon="0.5165">
        <ele>136.8</ele>
        <time>2025-07-14T08:20:47Z</time>
      </trkpt>
      <trkpt lat="44.75996" lon="0.51658">
        <ele>136.8</ele>
        <time>2025-07-14T08:20:48Z</time>
      </trkpt>
      <trkpt lat="44.75995" lon="0.51666">
        <ele>137</ele>
        <time>2025-07-14T08:20:49Z</time>
      </trkpt>
      <trkpt lat="44.75993" lon="0.51674">
        <ele>137</ele>
        <time>2025-07-14T08:20:50Z</time>
      </trkpt>
      <trkpt lat="44.75991" lon="0.51681">
        <ele>137</ele>
        <time>2025-07-14T08:20:51Z</time>
      </trkpt>
      <trkpt lat="44.75988" lon="0.51688">
        <ele>137</ele>
        <time>2025-07-14T08:20:52Z</time>
      </trkpt>
      <trkpt lat="44.75985" lon="0.51693">
        <ele>137</ele>
        <time>2025-07-14T08:20:53Z</time>
      </trkpt>
      <trkpt lat="44.75981" lon="0.51699">
        <ele>137</ele>
        <time>2025-07-14T08:20:54Z</time>
      </trkpt>
      <trkpt lat="44.75978" lon="0.51704">
        <ele>137</ele>
        <time>2025-07-14T08:20:55Z</time>
      </trkpt>
      <trkpt lat="44.75975" lon="0.5171">
        <ele>137</ele>
        <time>2025-07-14T08:20:56Z</time>
      </trkpt>
      <trkpt lat="44.75971" lon="0.51715">
        <ele>137</ele>
        <time>2025-07-14T08:20:57Z</time>
      </trkpt>
      <trkpt lat="44.75967" lon="0.5172">
        <ele>137</ele>
        <time>2025-07-14T08:20:58Z</time>
      </trkpt>
      <trkpt lat="44.75962" lon="0.51724">
        <ele>137</ele>
        <time>2025-07-14T08:20:59Z</time>
      </trkpt>
      <trkpt lat="44.75957" lon="0.51726">
        <ele>137</ele>
        <time>2025-07-14T08:21:00Z</time>
      </trkpt>
      <trkpt lat="44.75951" lon="0.51729">
        <ele>137</ele>
        <time>2025-07-14T08:21:01Z</time>
      </trkpt>
      <trkpt lat="44.75946" lon="0.51731">
        <ele>137.2</ele>
        <time>2025-07-14T08:21:02Z</time>
      </trkpt>
      <trkpt lat="44.75941" lon="0.51732">
        <ele>137.2</ele>
        <time>2025-07-14T08:21:03Z</time>
      </trkpt>
      <trkpt lat="44.75935" lon="0.51733">
        <ele>137.2</ele>
        <time>2025-07-14T08:21:04Z</time>
      </trkpt>
      <trkpt lat="44.75929" lon="0.51734">
        <ele>137.2</ele>
        <time>2025-07-14T08:21:05Z</time>
      </trkpt>
      <trkpt lat="44.75925" lon="0.51736">
        <ele>137.2</ele>
        <time>2025-07-14T08:21:06Z</time>
      </trkpt>
      <trkpt lat="44.75921" lon="0.51739">
        <ele>137.2</ele>
        <time>2025-07-14T08:21:07Z</time>
      </trkpt>
      <trkpt lat="44.75916" lon="0.51741">
        <ele>137.2</ele>
        <time>2025-07-14T08:21:08Z</time>
      </trkpt>
      <trkpt lat="44.7591" lon="0.51743">
        <ele>137</ele>
        <time>2025-07-14T08:21:09Z</time>
      </trkpt>
      <trkpt lat="44.75905" lon="0.51746">
        <ele>137</ele>
        <time>2025-07-14T08:21:10Z</time>
      </trkpt>
      <trkpt lat="44.75899" lon="0.51749">
        <ele>136.8</ele>
        <time>2025-07-14T08:21:11Z</time>
      </trkpt>
      <trkpt lat="44.75894" lon="0.51755">
        <ele>136.6</ele>
        <time>2025-07-14T08:21:12Z</time>
      </trkpt>
      <trkpt lat="44.75889" lon="0.5176">
        <ele>136.2</ele>
        <time>2025-07-14T08:21:13Z</time>
      </trkpt>
      <trkpt lat="44.75886" lon="0.51767">
        <ele>136.2</ele>
        <time>2025-07-14T08:21:14Z</time>
      </trkpt>
      <trkpt lat="44.75883" lon="0.51775">
        <ele>136</ele>
        <time>2025-07-14T08:21:15Z</time>
      </trkpt>
      <trkpt lat="44.75881" lon="0.51782">
        <ele>136</ele>
        <time>2025-07-14T08:21:16Z</time>
      </trkpt>
      <trkpt lat="44.7588" lon="0.5179">
        <ele>136</ele>
        <time>2025-07-14T08:21:17Z</time>
      </trkpt>
      <trkpt lat="44.7588" lon="0.51798">
        <ele>136</ele>
        <time>2025-07-14T08:21:18Z</time>
      </trkpt>
      <trkpt lat="44.75879" lon="0.51806">
        <ele>136</ele>
        <time>2025-07-14T08:21:19Z</time>
      </trkpt>
      <trkpt lat="44.75878" lon="0.51814">
        <ele>136</ele>
        <time>2025-07-14T08:21:20Z</time>
      </trkpt>
      <trkpt lat="44.75877" lon="0.51822">
        <ele>136</ele>
        <time>2025-07-14T08:21:21Z</time>
      </trkpt>
      <trkpt lat="44.75877" lon="0.5183">
        <ele>136</ele>
        <time>2025-07-14T08:21:22Z</time>
      </trkpt>
      <trkpt lat="44.75878" lon="0.51838">
        <ele>136</ele>
        <time>2025-07-14T08:21:23Z</time>
      </trkpt>
      <trkpt lat="44.75879" lon="0.51846">
        <ele>135.8</ele>
        <time>2025-07-14T08:21:24Z</time>
      </trkpt>
      <trkpt lat="44.75881" lon="0.51854">
        <ele>135.8</ele>
        <time>2025-07-14T08:21:25Z</time>
      </trkpt>
      <trkpt lat="44.75884" lon="0.51861">
        <ele>135.8</ele>
        <time>2025-07-14T08:21:26Z</time>
      </trkpt>
      <trkpt lat="44.75886" lon="0.51867">
        <ele>135.6</ele>
        <time>2025-07-14T08:21:27Z</time>
      </trkpt>
      <trkpt lat="44.75889" lon="0.51874">
        <ele>135.6</ele>
        <time>2025-07-14T08:21:28Z</time>
      </trkpt>
      <trkpt lat="44.75892" lon="0.51881">
        <ele>135.6</ele>
        <time>2025-07-14T08:21:29Z</time>
      </trkpt>
      <trkpt lat="44.75894" lon="0.51888">
        <ele>135.6</ele>
        <time>2025-07-14T08:21:30Z</time>
      </trkpt>
      <trkpt lat="44.75897" lon="0.51894">
        <ele>135.8</ele>
        <time>2025-07-14T08:21:31Z</time>
      </trkpt>
      <trkpt lat="44.75898" lon="0.519">
        <ele>135.8</ele>
        <time>2025-07-14T08:21:32Z</time>
      </trkpt>
      <trkpt lat="44.759" lon="0.51907">
        <ele>136</ele>
        <time>2025-07-14T08:21:33Z</time>
      </trkpt>
      <trkpt lat="44.75902" lon="0.51913">
        <ele>136</ele>
        <time>2025-07-14T08:21:34Z</time>
      </trkpt>
      <trkpt lat="44.75904" lon="0.5192">
        <ele>136</ele>
        <time>2025-07-14T08:21:35Z</time>
      </trkpt>
      <trkpt lat="44.75905" lon="0.51927">
        <ele>136.2</ele>
        <time>2025-07-14T08:21:36Z</time>
      </trkpt>
      <trkpt lat="44.75906" lon="0.51934">
        <ele>136.4</ele>
        <time>2025-07-14T08:21:37Z</time>
      </trkpt>
      <trkpt lat="44.75907" lon="0.5194">
        <ele>136.4</ele>
        <time>2025-07-14T08:21:38Z</time>
      </trkpt>
      <trkpt lat="44.75908" lon="0.51947">
        <ele>136.6</ele>
        <time>2025-07-14T08:21:39Z</time>
      </trkpt>
      <trkpt lat="44.75909" lon="0.51954">
        <ele>136.6</ele>
        <time>2025-07-14T08:21:40Z</time>
      </trkpt>
      <trkpt lat="44.75909" lon="0.51961">
        <ele>136.8</ele>
        <time>2025-07-14T08:21:41Z</time>
      </trkpt>
      <trkpt lat="44.75909" lon="0.51968">
        <ele>136.6</ele>
        <time>2025-07-14T08:21:42Z</time>
      </trkpt>
      <trkpt lat="44.7591" lon="0.51974">
        <ele>136.8</ele>
        <time>2025-07-14T08:21:43Z</time>
      </trkpt>
      <trkpt lat="44.75911" lon="0.5198">
        <ele>136.8</ele>
        <time>2025-07-14T08:21:44Z</time>
      </trkpt>
      <trkpt lat="44.75913" lon="0.51986">
        <ele>136.8</ele>
        <time>2025-07-14T08:21:45Z</time>
      </trkpt>
      <trkpt lat="44.75914" lon="0.51992">
        <ele>137</ele>
        <time>2025-07-14T08:21:46Z</time>
      </trkpt>
      <trkpt lat="44.75915" lon="0.51998">
        <ele>137</ele>
        <time>2025-07-14T08:21:47Z</time>
      </trkpt>
      <trkpt lat="44.75917" lon="0.52004">
        <ele>137.2</ele>
        <time>2025-07-14T08:21:48Z</time>
      </trkpt>
      <trkpt lat="44.75918" lon="0.52009">
        <ele>137.4</ele>
        <time>2025-07-14T08:21:49Z</time>
      </trkpt>
      <trkpt lat="44.75919" lon="0.52014">
        <ele>137.6</ele>
        <time>2025-07-14T08:21:50Z</time>
      </trkpt>
      <trkpt lat="44.7592" lon="0.52019">
        <ele>137.6</ele>
        <time>2025-07-14T08:21:51Z</time>
      </trkpt>
      <trkpt lat="44.75921" lon="0.52025">
        <ele>137.8</ele>
        <time>2025-07-14T08:21:52Z</time>
      </trkpt>
      <trkpt lat="44.75922" lon="0.5203">
        <ele>138</ele>
        <time>2025-07-14T08:21:53Z</time>
      </trkpt>
      <trkpt lat="44.75923" lon="0.52036">
        <ele>138</ele>
        <time>2025-07-14T08:21:54Z</time>
      </trkpt>
      <trkpt lat="44.75923" lon="0.52041">
        <ele>138.2</ele>
        <time>2025-07-14T08:21:55Z</time>
      </trkpt>
      <trkpt lat="44.75924" lon="0.52045">
        <ele>138.2</ele>
        <time>2025-07-14T08:21:56Z</time>
      </trkpt>
      <trkpt lat="44.75924" lon="0.5205">
        <ele>138.4</ele>
        <time>2025-07-14T08:21:57Z</time>
      </trkpt>
      <trkpt lat="44.75925" lon="0.52055">
        <ele>138.6</ele>
        <time>2025-07-14T08:21:58Z</time>
      </trkpt>
      <trkpt lat="44.75926" lon="0.5206">
        <ele>138.6</ele>
        <time>2025-07-14T08:21:59Z</time>
      </trkpt>
      <trkpt lat="44.75926" lon="0.52064">
        <ele>138.8</ele>
        <time>2025-07-14T08:22:00Z</time>
      </trkpt>
      <trkpt lat="44.75927" lon="0.52069">
        <ele>139</ele>
        <time>2025-07-14T08:22:01Z</time>
      </trkpt>
      <trkpt lat="44.75928" lon="0.52074">
        <ele>139</ele>
        <time>2025-07-14T08:22:02Z</time>
      </trkpt>
      <trkpt lat="44.75928" lon="0.52078">
        <ele>139</ele>
        <time>2025-07-14T08:22:03Z</time>
      </trkpt>
      <trkpt lat="44.75929" lon="0.52083">
        <ele>139.2</ele>
        <time>2025-07-14T08:22:04Z</time>
      </trkpt>
      <trkpt lat="44.7593" lon="0.52087">
        <ele>139.4</ele>
        <time>2025-07-14T08:22:05Z</time>
      </trkpt>
      <trkpt lat="44.75931" lon="0.52092">
        <ele>139.4</ele>
        <time>2025-07-14T08:22:06Z</time>
      </trkpt>
      <trkpt lat="44.75932" lon="0.52096">
        <ele>139.6</ele>
        <time>2025-07-14T08:22:07Z</time>
      </trkpt>
      <trkpt lat="44.75933" lon="0.52101">
        <ele>139.8</ele>
        <time>2025-07-14T08:22:08Z</time>
      </trkpt>
      <trkpt lat="44.75934" lon="0.52106">
        <ele>139.8</ele>
        <time>2025-07-14T08:22:09Z</time>
      </trkpt>
      <trkpt lat="44.75934" lon="0.52111">
        <ele>140</ele>
        <time>2025-07-14T08:22:10Z</time>
      </trkpt>
      <trkpt lat="44.75935" lon="0.52116">
        <ele>140</ele>
        <time>2025-07-14T08:22:11Z</time>
      </trkpt>
      <trkpt lat="44.75935" lon="0.5212">
        <ele>140.2</ele>
        <time>2025-07-14T08:22:12Z</time>
      </trkpt>
      <trkpt lat="44.75936" lon="0.52125">
        <ele>140.2</ele>
        <time>2025-07-14T08:22:13Z</time>
      </trkpt>
      <trkpt lat="44.75937" lon="0.5213">
        <ele>140.4</ele>
        <time>2025-07-14T08:22:14Z</time>
      </trkpt>
      <trkpt lat="44.75937" lon="0.52135">
        <ele>140.4</ele>
        <time>2025-07-14T08:22:15Z</time>
      </trkpt>
      <trkpt lat="44.75938" lon="0.5214">
        <ele>140.6</ele>
        <time>2025-07-14T08:22:16Z</time>
      </trkpt>
      <trkpt lat="44.75938" lon="0.52145">
        <ele>140.6</ele>
        <time>2025-07-14T08:22:17Z</time>
      </trkpt>
      <trkpt lat="44.75939" lon="0.5215">
        <ele>140.8</ele>
        <time>2025-07-14T08:22:18Z</time>
      </trkpt>
      <trkpt lat="44.75939" lon="0.52154">
        <ele>141</ele>
        <time>2025-07-14T08:22:19Z</time>
      </trkpt>
      <trkpt lat="44.75939" lon="0.52159">
        <ele>141.2</ele>
        <time>2025-07-14T08:22:20Z</time>
      </trkpt>
      <trkpt lat="44.7594" lon="0.52164">
        <ele>141.4</ele>
        <time>2025-07-14T08:22:21Z</time>
      </trkpt>
      <trkpt lat="44.75941" lon="0.52168">
        <ele>141.6</ele>
        <time>2025-07-14T08:22:22Z</time>
      </trkpt>
      <trkpt lat="44.75942" lon="0.52172">
        <ele>141.6</ele>
        <time>2025-07-14T08:22:23Z</time>
      </trkpt>
      <trkpt lat="44.75943" lon="0.52174">
        <ele>141.8</ele>
        <time>2025-07-14T08:22:24Z</time>
      </trkpt>
      <trkpt lat="44.75945" lon="0.52176">
        <ele>142</ele>
        <time>2025-07-14T08:22:25Z</time>
      </trkpt>
      <trkpt lat="44.75948" lon="0.52177">
        <ele>142.2</ele>
        <time>2025-07-14T08:22:26Z</time>
      </trkpt>
      <trkpt lat="44.7595" lon="0.52178">
        <ele>142.6</ele>
        <time>2025-07-14T08:22:27Z</time>
      </trkpt>
      <trkpt lat="44.75952" lon="0.52179">
        <ele>142.8</ele>
        <time>2025-07-14T08:22:28Z</time>
      </trkpt>
      <trkpt lat="44.75955" lon="0.52181">
        <ele>143</ele>
        <time>2025-07-14T08:22:29Z</time>
      </trkpt>
      <trkpt lat="44.75957" lon="0.52182">
        <ele>143.4</ele>
        <time>2025-07-14T08:22:30Z</time>
      </trkpt>
      <trkpt lat="44.75959" lon="0.52183">
        <ele>143.6</ele>
        <time>2025-07-14T08:22:31Z</time>
      </trkpt>
      <trkpt lat="44.75961" lon="0.52185">
        <ele>143.8</ele>
        <time>2025-07-14T08:22:32Z</time>
      </trkpt>
      <trkpt lat="44.75964" lon="0.52186">
        <ele>144</ele>
        <time>2025-07-14T08:22:33Z</time>
      </trkpt>
      <trkpt lat="44.75966" lon="0.52188">
        <ele>144.2</ele>
        <time>2025-07-14T08:22:34Z</time>
      </trkpt>
      <trkpt lat="44.75969" lon="0.52191">
        <ele>144.4</ele>
        <time>2025-07-14T08:22:35Z</time>
      </trkpt>
      <trkpt lat="44.75971" lon="0.52193">
        <ele>144.6</ele>
        <time>2025-07-14T08:22:36Z</time>
      </trkpt>
      <trkpt lat="44.75974" lon="0.52196">
        <ele>144.6</ele>
        <time>2025-07-14T08:22:37Z</time>
      </trkpt>
      <trkpt lat="44.75977" lon="0.52198">
        <ele>144.6</ele>
        <time>2025-07-14T08:22:38Z</time>
      </trkpt>
      <trkpt lat="44.75979" lon="0.52201">
        <ele>144.8</ele>
        <time>2025-07-14T08:22:39Z</time>
      </trkpt>
      <trkpt lat="44.75982" lon="0.52203">
        <ele>144.8</ele>
        <time>2025-07-14T08:22:40Z</time>
      </trkpt>
      <trkpt lat="44.75984" lon="0.52205">
        <ele>145</ele>
        <time>2025-07-14T08:22:41Z</time>
      </trkpt>
      <trkpt lat="44.75987" lon="0.52207">
        <ele>145</ele>
        <time>2025-07-14T08:22:42Z</time>
      </trkpt>
      <trkpt lat="44.75989" lon="0.5221">
        <ele>145.2</ele>
        <time>2025-07-14T08:22:43Z</time>
      </trkpt>
      <trkpt lat="44.75992" lon="0.52212">
        <ele>145.2</ele>
        <time>2025-07-14T08:22:44Z</time>
      </trkpt>
      <trkpt lat="44.75994" lon="0.52215">
        <ele>145.2</ele>
        <time>2025-07-14T08:22:45Z</time>
      </trkpt>
      <trkpt lat="44.75996" lon="0.52217">
        <ele>145.4</ele>
        <time>2025-07-14T08:22:46Z</time>
      </trkpt>
      <trkpt lat="44.75999" lon="0.52218">
        <ele>145.6</ele>
        <time>2025-07-14T08:22:47Z</time>
      </trkpt>
      <trkpt lat="44.76002" lon="0.5222">
        <ele>145.6</ele>
        <time>2025-07-14T08:22:48Z</time>
      </trkpt>
      <trkpt lat="44.76006" lon="0.52221">
        <ele>145.8</ele>
        <time>2025-07-14T08:22:49Z</time>
      </trkpt>
      <trkpt lat="44.76009" lon="0.52222">
        <ele>146</ele>
        <time>2025-07-14T08:22:50Z</time>
      </trkpt>
      <trkpt lat="44.76012" lon="0.52223">
        <ele>146.2</ele>
        <time>2025-07-14T08:22:51Z</time>
      </trkpt>
      <trkpt lat="44.76016" lon="0.52223">
        <ele>146.2</ele>
        <time>2025-07-14T08:22:52Z</time>
      </trkpt>
      <trkpt lat="44.7602" lon="0.52224">
        <ele>146.4</ele>
        <time>2025-07-14T08:22:53Z</time>
      </trkpt>
      <trkpt lat="44.76023" lon="0.52225">
        <ele>146.6</ele>
        <time>2025-07-14T08:22:54Z</time>
      </trkpt>
      <trkpt lat="44.76027" lon="0.52226">
        <ele>146.6</ele>
        <time>2025-07-14T08:22:55Z</time>
      </trkpt>
      <trkpt lat="44.7603" lon="0.52228">
        <ele>146.8</ele>
        <time>2025-07-14T08:22:56Z</time>
      </trkpt>
      <trkpt lat="44.76034" lon="0.5223">
        <ele>146.8</ele>
        <time>2025-07-14T08:22:57Z</time>
      </trkpt>
      <trkpt lat="44.76036" lon="0.52233">
        <ele>147</ele>
        <time>2025-07-14T08:22:58Z</time>
      </trkpt>
      <trkpt lat="44.76038" lon="0.52235">
        <ele>147</ele>
        <time>2025-07-14T08:22:59Z</time>
      </trkpt>
      <trkpt lat="44.76041" lon="0.52237">
        <ele>147.2</ele>
        <time>2025-07-14T08:23:00Z</time>
      </trkpt>
      <trkpt lat="44.76043" lon="0.52239">
        <ele>147.4</ele>
        <time>2025-07-14T08:23:01Z</time>
      </trkpt>
      <trkpt lat="44.76045" lon="0.52241">
        <ele>147.6</ele>
        <time>2025-07-14T08:23:02Z</time>
      </trkpt>
      <trkpt lat="44.76048" lon="0.52243">
        <ele>148</ele>
        <time>2025-07-14T08:23:03Z</time>
      </trkpt>
      <trkpt lat="44.7605" lon="0.52245">
        <ele>148.2</ele>
        <time>2025-07-14T08:23:04Z</time>
      </trkpt>
      <trkpt lat="44.76053" lon="0.52247">
        <ele>148.4</ele>
        <time>2025-07-14T08:23:05Z</time>
      </trkpt>
      <trkpt lat="44.76056" lon="0.52246">
        <ele>148.8</ele>
        <time>2025-07-14T08:23:06Z</time>
      </trkpt>
      <trkpt lat="44.76057" lon="0.52244">
        <ele>149</ele>
        <time>2025-07-14T08:23:07Z</time>
      </trkpt>
      <trkpt lat="44.7606" lon="0.5224">
        <ele>149</ele>
        <time>2025-07-14T08:23:08Z</time>
      </trkpt>
      <trkpt lat="44.76064" lon="0.52235">
        <ele>149</ele>
        <time>2025-07-14T08:23:09Z</time>
      </trkpt>
      <trkpt lat="44.7607" lon="0.52233">
        <ele>148.6</ele>
        <time>2025-07-14T08:23:10Z</time>
      </trkpt>
      <trkpt lat="44.76075" lon="0.52232">
        <ele>148.2</ele>
        <time>2025-07-14T08:23:11Z</time>
      </trkpt>
      <trkpt lat="44.76081" lon="0.52234">
        <ele>147.6</ele>
        <time>2025-07-14T08:23:12Z</time>
      </trkpt>
      <trkpt lat="44.76086" lon="0.52238">
        <ele>147.2</ele>
        <time>2025-07-14T08:23:13Z</time>
      </trkpt>
      <trkpt lat="44.76089" lon="0.52244">
        <ele>146.6</ele>
        <time>2025-07-14T08:23:14Z</time>
      </trkpt>
      <trkpt lat="44.76093" lon="0.52251">
        <ele>146.2</ele>
        <time>2025-07-14T08:23:15Z</time>
      </trkpt>
      <trkpt lat="44.76097" lon="0.52256">
        <ele>145.6</ele>
        <time>2025-07-14T08:23:16Z</time>
      </trkpt>
      <trkpt lat="44.76101" lon="0.52261">
        <ele>145.2</ele>
        <time>2025-07-14T08:23:17Z</time>
      </trkpt>
      <trkpt lat="44.76105" lon="0.52264">
        <ele>145</ele>
        <time>2025-07-14T08:23:18Z</time>
      </trkpt>
      <trkpt lat="44.76109" lon="0.52267">
        <ele>145</ele>
        <time>2025-07-14T08:23:19Z</time>
      </trkpt>
      <trkpt lat="44.76114" lon="0.5227">
        <ele>145</ele>
        <time>2025-07-14T08:23:20Z</time>
      </trkpt>
      <trkpt lat="44.76119" lon="0.52272">
        <ele>144.8</ele>
        <time>2025-07-14T08:23:21Z</time>
      </trkpt>
      <trkpt lat="44.76123" lon="0.52274">
        <ele>144.8</ele>
        <time>2025-07-14T08:23:22Z</time>
      </trkpt>
      <trkpt lat="44.76128" lon="0.52276">
        <ele>144.8</ele>
        <time>2025-07-14T08:23:23Z</time>
      </trkpt>
      <trkpt lat="44.76132" lon="0.52278">
        <ele>144.8</ele>
        <time>2025-07-14T08:23:24Z</time>
      </trkpt>
      <trkpt lat="44.76136" lon="0.5228">
        <ele>144.8</ele>
        <time>2025-07-14T08:23:25Z</time>
      </trkpt>
      <trkpt lat="44.76141" lon="0.52281">
        <ele>144.8</ele>
        <time>2025-07-14T08:23:26Z</time>
      </trkpt>
      <trkpt lat="44.76145" lon="0.52282">
        <ele>144.8</ele>
        <time>2025-07-14T08:23:27Z</time>
      </trkpt>
      <trkpt lat="44.76149" lon="0.52285">
        <ele>144.8</ele>
        <time>2025-07-14T08:23:28Z</time>
      </trkpt>
      <trkpt lat="44.76152" lon="0.52288">
        <ele>144.8</ele>
        <time>2025-07-14T08:23:29Z</time>
      </trkpt>
      <trkpt lat="44.76156" lon="0.5229">
        <ele>145</ele>
        <time>2025-07-14T08:23:30Z</time>
      </trkpt>
      <trkpt lat="44.76159" lon="0.52293">
        <ele>145</ele>
        <time>2025-07-14T08:23:31Z</time>
      </trkpt>
      <trkpt lat="44.76162" lon="0.52295">
        <ele>145.2</ele>
        <time>2025-07-14T08:23:32Z</time>
      </trkpt>
      <trkpt lat="44.76165" lon="0.52298">
        <ele>145.2</ele>
        <time>2025-07-14T08:23:33Z</time>
      </trkpt>
      <trkpt lat="44.76169" lon="0.52299">
        <ele>145.4</ele>
        <time>2025-07-14T08:23:34Z</time>
      </trkpt>
      <trkpt lat="44.76173" lon="0.523">
        <ele>145.6</ele>
        <time>2025-07-14T08:23:35Z</time>
      </trkpt>
      <trkpt lat="44.76176" lon="0.523">
        <ele>145.8</ele>
        <time>2025-07-14T08:23:36Z</time>
      </trkpt>
      <trkpt lat="44.76179" lon="0.52302">
        <ele>146</ele>
        <time>2025-07-14T08:23:37Z</time>
      </trkpt>
      <trkpt lat="44.76182" lon="0.52303">
        <ele>146.2</ele>
        <time>2025-07-14T08:23:38Z</time>
      </trkpt>
      <trkpt lat="44.76185" lon="0.52303">
        <ele>146.4</ele>
        <time>2025-07-14T08:23:39Z</time>
      </trkpt>
      <trkpt lat="44.76189" lon="0.52303">
        <ele>146.6</ele>
        <time>2025-07-14T08:23:40Z</time>
      </trkpt>
      <trkpt lat="44.76192" lon="0.52302">
        <ele>147</ele>
        <time>2025-07-14T08:23:41Z</time>
      </trkpt>
      <trkpt lat="44.76195" lon="0.52301">
        <ele>147.2</ele>
        <time>2025-07-14T08:23:42Z</time>
      </trkpt>
      <trkpt lat="44.76198" lon="0.523">
        <ele>147.2</ele>
        <time>2025-07-14T08:23:43Z</time>
      </trkpt>
      <trkpt lat="44.76201" lon="0.52298">
        <ele>147.4</ele>
        <time>2025-07-14T08:23:44Z</time>
      </trkpt>
      <trkpt lat="44.76205" lon="0.52297">
        <ele>147.4</ele>
        <time>2025-07-14T08:23:45Z</time>
      </trkpt>
      <trkpt lat="44.76208" lon="0.52296">
        <ele>147.4</ele>
        <time>2025-07-14T08:23:46Z</time>
      </trkpt>
      <trkpt lat="44.76212" lon="0.52294">
        <ele>147.4</ele>
        <time>2025-07-14T08:23:47Z</time>
      </trkpt>
      <trkpt lat="44.76215" lon="0.52291">
        <ele>147.4</ele>
        <time>2025-07-14T08:23:48Z</time>
      </trkpt>
      <trkpt lat="44.76218" lon="0.52288">
        <ele>147.4</ele>
        <time>2025-07-14T08:23:49Z</time>
      </trkpt>
      <trkpt lat="44.76221" lon="0.52285">
        <ele>147.4</ele>
        <time>2025-07-14T08:23:50Z</time>
      </trkpt>
      <trkpt lat="44.76225" lon="0.52283">
        <ele>147.4</ele>
        <time>2025-07-14T08:23:51Z</time>
      </trkpt>
      <trkpt lat="44.76229" lon="0.52282">
        <ele>147.4</ele>
        <time>2025-07-14T08:23:52Z</time>
      </trkpt>
      <trkpt lat="44.76232" lon="0.52282">
        <ele>147.6</ele>
        <time>2025-07-14T08:23:53Z</time>
      </trkpt>
      <trkpt lat="44.76235" lon="0.52282">
        <ele>147.6</ele>
        <time>2025-07-14T08:23:54Z</time>
      </trkpt>
      <trkpt lat="44.76238" lon="0.52282">
        <ele>147.8</ele>
        <time>2025-07-14T08:23:55Z</time>
      </trkpt>
      <trkpt lat="44.76242" lon="0.52281">
        <ele>148</ele>
        <time>2025-07-14T08:23:56Z</time>
      </trkpt>
      <trkpt lat="44.76245" lon="0.52279">
        <ele>148.2</ele>
        <time>2025-07-14T08:23:57Z</time>
      </trkpt>
      <trkpt lat="44.76248" lon="0.52278">
        <ele>148.4</ele>
        <time>2025-07-14T08:23:58Z</time>
      </trkpt>
      <trkpt lat="44.76252" lon="0.52276">
        <ele>148.4</ele>
        <time>2025-07-14T08:23:59Z</time>
      </trkpt>
      <trkpt lat="44.76255" lon="0.52274">
        <ele>148.6</ele>
        <time>2025-07-14T08:24:00Z</time>
      </trkpt>
      <trkpt lat="44.76258" lon="0.52272">
        <ele>148.8</ele>
        <time>2025-07-14T08:24:01Z</time>
      </trkpt>
      <trkpt lat="44.76262" lon="0.52271">
        <ele>149</ele>
        <time>2025-07-14T08:24:02Z</time>
      </trkpt>
      <trkpt lat="44.76266" lon="0.52269">
        <ele>149.2</ele>
        <time>2025-07-14T08:24:03Z</time>
      </trkpt>
      <trkpt lat="44.7627" lon="0.52265">
        <ele>149.2</ele>
        <time>2025-07-14T08:24:04Z</time>
      </trkpt>
      <trkpt lat="44.76274" lon="0.5226">
        <ele>149.2</ele>
        <time>2025-07-14T08:24:05Z</time>
      </trkpt>
      <trkpt lat="44.76278" lon="0.52255">
        <ele>149.2</ele>
        <time>2025-07-14T08:24:06Z</time>
      </trkpt>
      <trkpt lat="44.76283" lon="0.5225">
        <ele>149</ele>
        <time>2025-07-14T08:24:07Z</time>
      </trkpt>
      <trkpt lat="44.76286" lon="0.52246">
        <ele>148.8</ele>
        <time>2025-07-14T08:24:08Z</time>
      </trkpt>
      <trkpt lat="44.76289" lon="0.52242">
        <ele>148.8</ele>
        <time>2025-07-14T08:24:09Z</time>
      </trkpt>
      <trkpt lat="44.7629" lon="0.52237">
        <ele>148.8</ele>
        <time>2025-07-14T08:24:10Z</time>
      </trkpt>
      <trkpt lat="44.76292" lon="0.52232">
        <ele>148.6</ele>
        <time>2025-07-14T08:24:11Z</time>
      </trkpt>
      <trkpt lat="44.76293" lon="0.52226">
        <ele>148.8</ele>
        <time>2025-07-14T08:24:12Z</time>
      </trkpt>
      <trkpt lat="44.76293" lon="0.5222">
        <ele>149</ele>
        <time>2025-07-14T08:24:13Z</time>
      </trkpt>
      <trkpt lat="44.76293" lon="0.52213">
        <ele>149</ele>
        <time>2025-07-14T08:24:14Z</time>
      </trkpt>
      <trkpt lat="44.76292" lon="0.52205">
        <ele>149</ele>
        <time>2025-07-14T08:24:15Z</time>
      </trkpt>
      <trkpt lat="44.76292" lon="0.52198">
        <ele>149</ele>
        <time>2025-07-14T08:24:16Z</time>
      </trkpt>
      <trkpt lat="44.76293" lon="0.52191">
        <ele>149</ele>
        <time>2025-07-14T08:24:17Z</time>
      </trkpt>
      <trkpt lat="44.76293" lon="0.52184">
        <ele>149</ele>
        <time>2025-07-14T08:24:18Z</time>
      </trkpt>
      <trkpt lat="44.76295" lon="0.52178">
        <ele>148.8</ele>
        <time>2025-07-14T08:24:19Z</time>
      </trkpt>
      <trkpt lat="44.76298" lon="0.52172">
        <ele>148.4</ele>
        <time>2025-07-14T08:24:20Z</time>
      </trkpt>
      <trkpt lat="44.76301" lon="0.52166">
        <ele>148.2</ele>
        <time>2025-07-14T08:24:21Z</time>
      </trkpt>
      <trkpt lat="44.76305" lon="0.52161">
        <ele>148</ele>
        <time>2025-07-14T08:24:22Z</time>
      </trkpt>
      <trkpt lat="44.76308" lon="0.52155">
        <ele>148</ele>
        <time>2025-07-14T08:24:23Z</time>
      </trkpt>
      <trkpt lat="44.76311" lon="0.5215">
        <ele>148</ele>
        <time>2025-07-14T08:24:24Z</time>
      </trkpt>
      <trkpt lat="44.76314" lon="0.52145">
        <ele>148</ele>
        <time>2025-07-14T08:24:25Z</time>
      </trkpt>
      <trkpt lat="44.76317" lon="0.5214">
        <ele>148.2</ele>
        <time>2025-07-14T08:24:26Z</time>
      </trkpt>
      <trkpt lat="44.76319" lon="0.52134">
        <ele>148.4</ele>
        <time>2025-07-14T08:24:27Z</time>
      </trkpt>
      <trkpt lat="44.76322" lon="0.52129">
        <ele>148.4</ele>
        <time>2025-07-14T08:24:28Z</time>
      </trkpt>
      <trkpt lat="44.76323" lon="0.52125">
        <ele>148.6</ele>
        <time>2025-07-14T08:24:29Z</time>
      </trkpt>
      <trkpt lat="44.76324" lon="0.52119">
        <ele>148.8</ele>
        <time>2025-07-14T08:24:30Z</time>
      </trkpt>
      <trkpt lat="44.76325" lon="0.52114">
        <ele>149.2</ele>
        <time>2025-07-14T08:24:31Z</time>
      </trkpt>
      <trkpt lat="44.76324" lon="0.52109">
        <ele>149.4</ele>
        <time>2025-07-14T08:24:32Z</time>
      </trkpt>
      <trkpt lat="44.76323" lon="0.52104">
        <ele>149.6</ele>
        <time>2025-07-14T08:24:33Z</time>
      </trkpt>
      <trkpt lat="44.76321" lon="0.52098">
        <ele>149.8</ele>
        <time>2025-07-14T08:24:34Z</time>
      </trkpt>
      <trkpt lat="44.76318" lon="0.52094">
        <ele>149.8</ele>
        <time>2025-07-14T08:24:35Z</time>
      </trkpt>
      <trkpt lat="44.76315" lon="0.52089">
        <ele>150</ele>
        <time>2025-07-14T08:24:36Z</time>
      </trkpt>
      <trkpt lat="44.76314" lon="0.52084">
        <ele>150.2</ele>
        <time>2025-07-14T08:24:37Z</time>
      </trkpt>
      <trkpt lat="44.76313" lon="0.52079">
        <ele>150.2</ele>
        <time>2025-07-14T08:24:38Z</time>
      </trkpt>
      <trkpt lat="44.76313" lon="0.52074">
        <ele>150.4</ele>
        <time>2025-07-14T08:24:39Z</time>
      </trkpt>
      <trkpt lat="44.76314" lon="0.52069">
        <ele>150.4</ele>
        <time>2025-07-14T08:24:40Z</time>
      </trkpt>
      <trkpt lat="44.76315" lon="0.52066">
        <ele>150.6</ele>
        <time>2025-07-14T08:24:41Z</time>
      </trkpt>
      <trkpt lat="44.76317" lon="0.52062">
        <ele>150.8</ele>
        <time>2025-07-14T08:24:42Z</time>
      </trkpt>
      <trkpt lat="44.76319" lon="0.52058">
        <ele>151</ele>
        <time>2025-07-14T08:24:43Z</time>
      </trkpt>
      <trkpt lat="44.7632" lon="0.52055">
        <ele>151.2</ele>
        <time>2025-07-14T08:24:44Z</time>
      </trkpt>
      <trkpt lat="44.76322" lon="0.52051">
        <ele>151.4</ele>
        <time>2025-07-14T08:24:45Z</time>
      </trkpt>
      <trkpt lat="44.76324" lon="0.52047">
        <ele>151.6</ele>
        <time>2025-07-14T08:24:46Z</time>
      </trkpt>
      <trkpt lat="44.76327" lon="0.52044">
        <ele>151.6</ele>
        <time>2025-07-14T08:24:47Z</time>
      </trkpt>
      <trkpt lat="44.76329" lon="0.52039">
        <ele>151.8</ele>
        <time>2025-07-14T08:24:48Z</time>
      </trkpt>
      <trkpt lat="44.76332" lon="0.52035">
        <ele>151.8</ele>
        <time>2025-07-14T08:24:49Z</time>
      </trkpt>
      <trkpt lat="44.76335" lon="0.5203">
        <ele>151.8</ele>
        <time>2025-07-14T08:24:50Z</time>
      </trkpt>
      <trkpt lat="44.76338" lon="0.52025">
        <ele>151.8</ele>
        <time>2025-07-14T08:24:51Z</time>
      </trkpt>
      <trkpt lat="44.76342" lon="0.5202">
        <ele>151.8</ele>
        <time>2025-07-14T08:24:52Z</time>
      </trkpt>
      <trkpt lat="44.76345" lon="0.52015">
        <ele>151.6</ele>
        <time>2025-07-14T08:24:53Z</time>
      </trkpt>
      <trkpt lat="44.76348" lon="0.5201">
        <ele>151.6</ele>
        <time>2025-07-14T08:24:54Z</time>
      </trkpt>
      <trkpt lat="44.76351" lon="0.52005">
        <ele>151.6</ele>
        <time>2025-07-14T08:24:55Z</time>
      </trkpt>
      <trkpt lat="44.76354" lon="0.52">
        <ele>151.4</ele>
        <time>2025-07-14T08:24:56Z</time>
      </trkpt>
      <trkpt lat="44.76358" lon="0.51994">
        <ele>151.6</ele>
        <time>2025-07-14T08:24:57Z</time>
      </trkpt>
      <trkpt lat="44.76361" lon="0.51989">
        <ele>151.4</ele>
        <time>2025-07-14T08:24:58Z</time>
      </trkpt>
      <trkpt lat="44.76365" lon="0.51987">
        <ele>151.4</ele>
        <time>2025-07-14T08:24:59Z</time>
      </trkpt>
      <trkpt lat="44.76368" lon="0.51986">
        <ele>151.2</ele>
        <time>2025-07-14T08:25:00Z</time>
      </trkpt>
      <trkpt lat="44.7637" lon="0.51983">
        <ele>151.2</ele>
        <time>2025-07-14T08:25:01Z</time>
      </trkpt>
      <trkpt lat="44.76373" lon="0.51981">
        <ele>151.4</ele>
        <time>2025-07-14T08:25:02Z</time>
      </trkpt>
      <trkpt lat="44.76375" lon="0.51979">
        <ele>151.6</ele>
        <time>2025-07-14T08:25:03Z</time>
      </trkpt>
      <trkpt lat="44.76378" lon="0.5198">
        <ele>151.8</ele>
        <time>2025-07-14T08:25:04Z</time>
      </trkpt>
      <trkpt lat="44.7638" lon="0.5198">
        <ele>152</ele>
        <time>2025-07-14T08:25:05Z</time>
      </trkpt>
      <trkpt lat="44.76382" lon="0.51981">
        <ele>152.2</ele>
        <time>2025-07-14T08:25:06Z</time>
      </trkpt>
      <trkpt lat="44.76384" lon="0.51984">
        <ele>152.4</ele>
        <time>2025-07-14T08:25:07Z</time>
      </trkpt>
      <trkpt lat="44.76386" lon="0.51987">
        <ele>152.6</ele>
        <time>2025-07-14T08:25:08Z</time>
      </trkpt>
      <trkpt lat="44.76388" lon="0.51988">
        <ele>153</ele>
        <time>2025-07-14T08:25:09Z</time>
      </trkpt>
      <trkpt lat="44.7639" lon="0.5199">
        <ele>153.4</ele>
        <time>2025-07-14T08:25:10Z</time>
      </trkpt>
      <trkpt lat="44.76392" lon="0.51989">
        <ele>153.6</ele>
        <time>2025-07-14T08:25:11Z</time>
      </trkpt>
      <trkpt lat="44.76395" lon="0.51988">
        <ele>154</ele>
        <time>2025-07-14T08:25:12Z</time>
      </trkpt>
      <trkpt lat="44.76398" lon="0.51987">
        <ele>154.2</ele>
        <time>2025-07-14T08:25:13Z</time>
      </trkpt>
      <trkpt lat="44.764" lon="0.51984">
        <ele>154.4</ele>
        <time>2025-07-14T08:25:14Z</time>
      </trkpt>
      <trkpt lat="44.76404" lon="0.5198">
        <ele>154.4</ele>
        <time>2025-07-14T08:25:15Z</time>
      </trkpt>
      <trkpt lat="44.76408" lon="0.51976">
        <ele>154.4</ele>
        <time>2025-07-14T08:25:16Z</time>
      </trkpt>
      <trkpt lat="44.76411" lon="0.51972">
        <ele>154</ele>
        <time>2025-07-14T08:25:17Z</time>
      </trkpt>
      <trkpt lat="44.76415" lon="0.51968">
        <ele>153.8</ele>
        <time>2025-07-14T08:25:18Z</time>
      </trkpt>
      <trkpt lat="44.7642" lon="0.51963">
        <ele>153.6</ele>
        <time>2025-07-14T08:25:19Z</time>
      </trkpt>
      <trkpt lat="44.76425" lon="0.51958">
        <ele>153.2</ele>
        <time>2025-07-14T08:25:20Z</time>
      </trkpt>
      <trkpt lat="44.76429" lon="0.51952">
        <ele>152.8</ele>
        <time>2025-07-14T08:25:21Z</time>
      </trkpt>
      <trkpt lat="44.76433" lon="0.51946">
        <ele>152.6</ele>
        <time>2025-07-14T08:25:22Z</time>
      </trkpt>
      <trkpt lat="44.76438" lon="0.51939">
        <ele>152.2</ele>
        <time>2025-07-14T08:25:23Z</time>
      </trkpt>
      <trkpt lat="44.76441" lon="0.51932">
        <ele>151.8</ele>
        <time>2025-07-14T08:25:24Z</time>
      </trkpt>
      <trkpt lat="44.76445" lon="0.51926">
        <ele>151.6</ele>
        <time>2025-07-14T08:25:25Z</time>
      </trkpt>
      <trkpt lat="44.76448" lon="0.5192">
        <ele>151.6</ele>
        <time>2025-07-14T08:25:26Z</time>
      </trkpt>
      <trkpt lat="44.76452" lon="0.51914">
        <ele>151.4</ele>
        <time>2025-07-14T08:25:27Z</time>
      </trkpt>
      <trkpt lat="44.76454" lon="0.51909">
        <ele>151.4</ele>
        <time>2025-07-14T08:25:28Z</time>
      </trkpt>
      <trkpt lat="44.76457" lon="0.51903">
        <ele>151.4</ele>
        <time>2025-07-14T08:25:29Z</time>
      </trkpt>
      <trkpt lat="44.7646" lon="0.51897">
        <ele>151.2</ele>
        <time>2025-07-14T08:25:30Z</time>
      </trkpt>
      <trkpt lat="44.76463" lon="0.51892">
        <ele>151.2</ele>
        <time>2025-07-14T08:25:31Z</time>
      </trkpt>
      <trkpt lat="44.76466" lon="0.51887">
        <ele>151.4</ele>
        <time>2025-07-14T08:25:32Z</time>
      </trkpt>
      <trkpt lat="44.76469" lon="0.51883">
        <ele>151.4</ele>
        <time>2025-07-14T08:25:33Z</time>
      </trkpt>
      <trkpt lat="44.76472" lon="0.51878">
        <ele>151.4</ele>
        <time>2025-07-14T08:25:34Z</time>
      </trkpt>
      <trkpt lat="44.76475" lon="0.51873">
        <ele>151.6</ele>
        <time>2025-07-14T08:25:35Z</time>
      </trkpt>
      <trkpt lat="44.76478" lon="0.51869">
        <ele>151.8</ele>
        <time>2025-07-14T08:25:36Z</time>
      </trkpt>
      <trkpt lat="44.76481" lon="0.51864">
        <ele>152</ele>
        <time>2025-07-14T08:25:37Z</time>
      </trkpt>
      <trkpt lat="44.76483" lon="0.5186">
        <ele>152.2</ele>
        <time>2025-07-14T08:25:38Z</time>
      </trkpt>
      <trkpt lat="44.76485" lon="0.51854">
        <ele>152.4</ele>
        <time>2025-07-14T08:25:39Z</time>
      </trkpt>
      <trkpt lat="44.76487" lon="0.51849">
        <ele>152.6</ele>
        <time>2025-07-14T08:25:40Z</time>
      </trkpt>
      <trkpt lat="44.76489" lon="0.51844">
        <ele>152.6</ele>
        <time>2025-07-14T08:25:41Z</time>
      </trkpt>
      <trkpt lat="44.76491" lon="0.51838">
        <ele>152.8</ele>
        <time>2025-07-14T08:25:42Z</time>
      </trkpt>
      <trkpt lat="44.76494" lon="0.51832">
        <ele>152.8</ele>
        <time>2025-07-14T08:25:43Z</time>
      </trkpt>
      <trkpt lat="44.76497" lon="0.51826">
        <ele>152.8</ele>
        <time>2025-07-14T08:25:44Z</time>
      </trkpt>
      <trkpt lat="44.765" lon="0.5182">
        <ele>152.8</ele>
        <time>2025-07-14T08:25:45Z</time>
      </trkpt>
      <trkpt lat="44.76502" lon="0.51814">
        <ele>152.8</ele>
        <time>2025-07-14T08:25:46Z</time>
      </trkpt>
      <trkpt lat="44.76504" lon="0.51807">
        <ele>152.8</ele>
        <time>2025-07-14T08:25:47Z</time>
      </trkpt>
      <trkpt lat="44.76506" lon="0.51798">
        <ele>152.6</ele>
        <time>2025-07-14T08:25:48Z</time>
      </trkpt>
      <trkpt lat="44.76509" lon="0.51789">
        <ele>152.4</ele>
        <time>2025-07-14T08:25:49Z</time>
      </trkpt>
      <trkpt lat="44.76512" lon="0.51781">
        <ele>152</ele>
        <time>2025-07-14T08:25:50Z</time>
      </trkpt>
      <trkpt lat="44.76515" lon="0.51772">
        <ele>151.6</ele>
        <time>2025-07-14T08:25:51Z</time>
      </trkpt>
      <trkpt lat="44.7652" lon="0.51764">
        <ele>151</ele>
        <time>2025-07-14T08:25:52Z</time>
      </trkpt>
      <trkpt lat="44.76525" lon="0.51756">
        <ele>149.8</ele>
        <time>2025-07-14T08:25:53Z</time>
      </trkpt>
      <trkpt lat="44.76531" lon="0.51749">
        <ele>149.4</ele>
        <time>2025-07-14T08:25:54Z</time>
      </trkpt>
      <trkpt lat="44.76538" lon="0.51742">
        <ele>148.6</ele>
        <time>2025-07-14T08:25:55Z</time>
      </trkpt>
      <trkpt lat="44.76546" lon="0.51735">
        <ele>147.8</ele>
        <time>2025-07-14T08:25:56Z</time>
      </trkpt>
      <trkpt lat="44.76554" lon="0.51729">
        <ele>146.8</ele>
        <time>2025-07-14T08:25:57Z</time>
      </trkpt>
      <trkpt lat="44.76561" lon="0.51722">
        <ele>146</ele>
        <time>2025-07-14T08:25:58Z</time>
      </trkpt>
      <trkpt lat="44.76568" lon="0.51715">
        <ele>145</ele>
        <time>2025-07-14T08:25:59Z</time>
      </trkpt>
      <trkpt lat="44.76573" lon="0.51707">
        <ele>144.2</ele>
        <time>2025-07-14T08:26:00Z</time>
      </trkpt>
      <trkpt lat="44.76576" lon="0.51699">
        <ele>143.6</ele>
        <time>2025-07-14T08:26:01Z</time>
      </trkpt>
      <trkpt lat="44.76577" lon="0.51691">
        <ele>143</ele>
        <time>2025-07-14T08:26:02Z</time>
      </trkpt>
      <trkpt lat="44.76576" lon="0.51684">
        <ele>142.6</ele>
        <time>2025-07-14T08:26:03Z</time>
      </trkpt>
      <trkpt lat="44.76573" lon="0.51677">
        <ele>142</ele>
        <time>2025-07-14T08:26:04Z</time>
      </trkpt>
      <trkpt lat="44.7657" lon="0.51671">
        <ele>141.8</ele>
        <time>2025-07-14T08:26:05Z</time>
      </trkpt>
      <trkpt lat="44.76566" lon="0.51665">
        <ele>141.6</ele>
        <time>2025-07-14T08:26:06Z</time>
      </trkpt>
      <trkpt lat="44.76563" lon="0.5166">
        <ele>141.4</ele>
        <time>2025-07-14T08:26:07Z</time>
      </trkpt>
      <trkpt lat="44.76559" lon="0.51655">
        <ele>141.4</ele>
        <time>2025-07-14T08:26:08Z</time>
      </trkpt>
      <trkpt lat="44.76556" lon="0.51649">
        <ele>141.4</ele>
        <time>2025-07-14T08:26:09Z</time>
      </trkpt>
      <trkpt lat="44.76552" lon="0.51644">
        <ele>141.2</ele>
        <time>2025-07-14T08:26:10Z</time>
      </trkpt>
      <trkpt lat="44.76549" lon="0.51638">
        <ele>141.2</ele>
        <time>2025-07-14T08:26:11Z</time>
      </trkpt>
      <trkpt lat="44.76545" lon="0.51632">
        <ele>141</ele>
        <time>2025-07-14T08:26:12Z</time>
      </trkpt>
      <trkpt lat="44.76541" lon="0.51627">
        <ele>141</ele>
        <time>2025-07-14T08:26:13Z</time>
      </trkpt>
      <trkpt lat="44.76537" lon="0.51623">
        <ele>140.8</ele>
        <time>2025-07-14T08:26:14Z</time>
      </trkpt>
      <trkpt lat="44.76534" lon="0.51618">
        <ele>140.8</ele>
        <time>2025-07-14T08:26:15Z</time>
      </trkpt>
      <trkpt lat="44.76532" lon="0.51613">
        <ele>140.8</ele>
        <time>2025-07-14T08:26:16Z</time>
      </trkpt>
      <trkpt lat="44.76533" lon="0.51607">
        <ele>140.8</ele>
        <time>2025-07-14T08:26:17Z</time>
      </trkpt>
      <trkpt lat="44.76535" lon="0.51602">
        <ele>140.8</ele>
        <time>2025-07-14T08:26:18Z</time>
      </trkpt>
      <trkpt lat="44.76539" lon="0.51599">
        <ele>140.6</ele>
        <time>2025-07-14T08:26:19Z</time>
      </trkpt>
      <trkpt lat="44.76544" lon="0.51596">
        <ele>140.4</ele>
        <time>2025-07-14T08:26:20Z</time>
      </trkpt>
      <trkpt lat="44.7655" lon="0.51592">
        <ele>140.2</ele>
        <time>2025-07-14T08:26:21Z</time>
      </trkpt>
      <trkpt lat="44.76555" lon="0.51588">
        <ele>140</ele>
        <time>2025-07-14T08:26:22Z</time>
      </trkpt>
      <trkpt lat="44.76561" lon="0.51584">
        <ele>139.8</ele>
        <time>2025-07-14T08:26:23Z</time>
      </trkpt>
      <trkpt lat="44.76568" lon="0.51579">
        <ele>139.2</ele>
        <time>2025-07-14T08:26:24Z</time>
      </trkpt>
      <trkpt lat="44.76575" lon="0.51574">
        <ele>138.6</ele>
        <time>2025-07-14T08:26:25Z</time>
      </trkpt>
      <trkpt lat="44.76583" lon="0.51568">
        <ele>137.6</ele>
        <time>2025-07-14T08:26:26Z</time>
      </trkpt>
      <trkpt lat="44.76591" lon="0.51562">
        <ele>136.8</ele>
        <time>2025-07-14T08:26:27Z</time>
      </trkpt>
      <trkpt lat="44.76599" lon="0.51556">
        <ele>136</ele>
        <time>2025-07-14T08:26:28Z</time>
      </trkpt>
      <trkpt lat="44.76605" lon="0.5155">
        <ele>135.4</ele>
        <time>2025-07-14T08:26:29Z</time>
      </trkpt>
      <trkpt lat="44.76612" lon="0.51545">
        <ele>134.8</ele>
        <time>2025-07-14T08:26:30Z</time>
      </trkpt>
      <trkpt lat="44.76618" lon="0.5154">
        <ele>134.2</ele>
        <time>2025-07-14T08:26:31Z</time>
      </trkpt>
      <trkpt lat="44.76624" lon="0.51535">
        <ele>133.8</ele>
        <time>2025-07-14T08:26:32Z</time>
      </trkpt>
      <trkpt lat="44.7663" lon="0.51531">
        <ele>133.6</ele>
        <time>2025-07-14T08:26:33Z</time>
      </trkpt>
      <trkpt lat="44.76636" lon="0.51526">
        <ele>133.6</ele>
        <time>2025-07-14T08:26:34Z</time>
      </trkpt>
      <trkpt lat="44.76642" lon="0.51521">
        <ele>133.4</ele>
        <time>2025-07-14T08:26:35Z</time>
      </trkpt>
      <trkpt lat="44.76648" lon="0.51516">
        <ele>133.6</ele>
        <time>2025-07-14T08:26:36Z</time>
      </trkpt>
      <trkpt lat="44.76654" lon="0.51511">
        <ele>133.4</ele>
        <time>2025-07-14T08:26:37Z</time>
      </trkpt>
      <trkpt lat="44.76659" lon="0.51506">
        <ele>133.2</ele>
        <time>2025-07-14T08:26:38Z</time>
      </trkpt>
      <trkpt lat="44.76665" lon="0.51501">
        <ele>132.8</ele>
        <time>2025-07-14T08:26:39Z</time>
      </trkpt>
      <trkpt lat="44.76672" lon="0.51495">
        <ele>132.4</ele>
        <time>2025-07-14T08:26:40Z</time>
      </trkpt>
      <trkpt lat="44.76679" lon="0.5149">
        <ele>131.8</ele>
        <time>2025-07-14T08:26:41Z</time>
      </trkpt>
      <trkpt lat="44.76686" lon="0.51483">
        <ele>131.6</ele>
        <time>2025-07-14T08:26:42Z</time>
      </trkpt>
      <trkpt lat="44.76693" lon="0.51476">
        <ele>130.8</ele>
        <time>2025-07-14T08:26:43Z</time>
      </trkpt>
      <trkpt lat="44.76698" lon="0.51467">
        <ele>130.2</ele>
        <time>2025-07-14T08:26:44Z</time>
      </trkpt>
      <trkpt lat="44.76701" lon="0.51457">
        <ele>129.2</ele>
        <time>2025-07-14T08:26:45Z</time>
      </trkpt>
      <trkpt lat="44.76702" lon="0.51447">
        <ele>128.2</ele>
        <time>2025-07-14T08:26:46Z</time>
      </trkpt>
      <trkpt lat="44.76706" lon="0.51438">
        <ele>127.2</ele>
        <time>2025-07-14T08:26:47Z</time>
      </trkpt>
      <trkpt lat="44.7671" lon="0.51429">
        <ele>126.2</ele>
        <time>2025-07-14T08:26:48Z</time>
      </trkpt>
      <trkpt lat="44.76717" lon="0.51423">
        <ele>125</ele>
        <time>2025-07-14T08:26:49Z</time>
      </trkpt>
      <trkpt lat="44.76725" lon="0.5142">
        <ele>124.6</ele>
        <time>2025-07-14T08:26:50Z</time>
      </trkpt>
      <trkpt lat="44.76733" lon="0.51419">
        <ele>123.8</ele>
        <time>2025-07-14T08:26:51Z</time>
      </trkpt>
      <trkpt lat="44.7674" lon="0.51417">
        <ele>123.2</ele>
        <time>2025-07-14T08:26:52Z</time>
      </trkpt>
      <trkpt lat="44.76746" lon="0.51413">
        <ele>122.6</ele>
        <time>2025-07-14T08:26:53Z</time>
      </trkpt>
      <trkpt lat="44.7675" lon="0.51407">
        <ele>122</ele>
        <time>2025-07-14T08:26:54Z</time>
      </trkpt>
      <trkpt lat="44.76752" lon="0.51399">
        <ele>121.6</ele>
        <time>2025-07-14T08:26:55Z</time>
      </trkpt>
      <trkpt lat="44.76753" lon="0.51391">
        <ele>121.2</ele>
        <time>2025-07-14T08:26:56Z</time>
      </trkpt>
      <trkpt lat="44.76754" lon="0.51383">
        <ele>121</ele>
        <time>2025-07-14T08:26:57Z</time>
      </trkpt>
      <trkpt lat="44.76754" lon="0.51375">
        <ele>121</ele>
        <time>2025-07-14T08:26:58Z</time>
      </trkpt>
      <trkpt lat="44.76755" lon="0.51367">
        <ele>120.8</ele>
        <time>2025-07-14T08:26:59Z</time>
      </trkpt>
      <trkpt lat="44.76757" lon="0.5136">
        <ele>120.4</ele>
        <time>2025-07-14T08:27:00Z</time>
      </trkpt>
      <trkpt lat="44.76759" lon="0.51353">
        <ele>120.2</ele>
        <time>2025-07-14T08:27:01Z</time>
      </trkpt>
      <trkpt lat="44.76763" lon="0.51346">
        <ele>120.2</ele>
        <time>2025-07-14T08:27:02Z</time>
      </trkpt>
      <trkpt lat="44.76767" lon="0.51341">
        <ele>119.8</ele>
        <time>2025-07-14T08:27:03Z</time>
      </trkpt>
      <trkpt lat="44.76771" lon="0.51337">
        <ele>120</ele>
        <time>2025-07-14T08:27:04Z</time>
      </trkpt>
      <trkpt lat="44.76775" lon="0.51333">
        <ele>120</ele>
        <time>2025-07-14T08:27:05Z</time>
      </trkpt>
      <trkpt lat="44.76779" lon="0.51329">
        <ele>120</ele>
        <time>2025-07-14T08:27:06Z</time>
      </trkpt>
      <trkpt lat="44.76784" lon="0.51326">
        <ele>120</ele>
        <time>2025-07-14T08:27:07Z</time>
      </trkpt>
      <trkpt lat="44.76788" lon="0.51322">
        <ele>119.8</ele>
        <time>2025-07-14T08:27:08Z</time>
      </trkpt>
      <trkpt lat="44.76793" lon="0.5132">
        <ele>119.8</ele>
        <time>2025-07-14T08:27:09Z</time>
      </trkpt>
      <trkpt lat="44.76797" lon="0.51317">
        <ele>119.8</ele>
        <time>2025-07-14T08:27:10Z</time>
      </trkpt>
      <trkpt lat="44.76801" lon="0.51316">
        <ele>119.8</ele>
        <time>2025-07-14T08:27:11Z</time>
      </trkpt>
      <trkpt lat="44.76805" lon="0.51315">
        <ele>119.8</ele>
        <time>2025-07-14T08:27:12Z</time>
      </trkpt>
      <trkpt lat="44.76809" lon="0.51314">
        <ele>120</ele>
        <time>2025-07-14T08:27:13Z</time>
      </trkpt>
      <trkpt lat="44.76813" lon="0.51312">
        <ele>120</ele>
        <time>2025-07-14T08:27:14Z</time>
      </trkpt>
      <trkpt lat="44.76817" lon="0.51309">
        <ele>120.2</ele>
        <time>2025-07-14T08:27:15Z</time>
      </trkpt>
      <trkpt lat="44.7682" lon="0.51304">
        <ele>120.2</ele>
        <time>2025-07-14T08:27:16Z</time>
      </trkpt>
      <trkpt lat="44.76822" lon="0.513">
        <ele>120.4</ele>
        <time>2025-07-14T08:27:17Z</time>
      </trkpt>
      <trkpt lat="44.76825" lon="0.51295">
        <ele>120.4</ele>
        <time>2025-07-14T08:27:18Z</time>
      </trkpt>
      <trkpt lat="44.76828" lon="0.51291">
        <ele>120.4</ele>
        <time>2025-07-14T08:27:19Z</time>
      </trkpt>
      <trkpt lat="44.76831" lon="0.51288">
        <ele>120.6</ele>
        <time>2025-07-14T08:27:20Z</time>
      </trkpt>
      <trkpt lat="44.76834" lon="0.51284">
        <ele>120.6</ele>
        <time>2025-07-14T08:27:21Z</time>
      </trkpt>
      <trkpt lat="44.76837" lon="0.51281">
        <ele>120.6</ele>
        <time>2025-07-14T08:27:22Z</time>
      </trkpt>
      <trkpt lat="44.7684" lon="0.51277">
        <ele>120.8</ele>
        <time>2025-07-14T08:27:23Z</time>
      </trkpt>
      <trkpt lat="44.76843" lon="0.51273">
        <ele>120.8</ele>
        <time>2025-07-14T08:27:24Z</time>
      </trkpt>
      <trkpt lat="44.76846" lon="0.51269">
        <ele>120.8</ele>
        <time>2025-07-14T08:27:25Z</time>
      </trkpt>
      <trkpt lat="44.7685" lon="0.51265">
        <ele>120.8</ele>
        <time>2025-07-14T08:27:26Z</time>
      </trkpt>
      <trkpt lat="44.76853" lon="0.51261">
        <ele>121</ele>
        <time>2025-07-14T08:27:27Z</time>
      </trkpt>
      <trkpt lat="44.76856" lon="0.51258">
        <ele>121</ele>
        <time>2025-07-14T08:27:28Z</time>
      </trkpt>
      <trkpt lat="44.7686" lon="0.51254">
        <ele>121</ele>
        <time>2025-07-14T08:27:29Z</time>
      </trkpt>
      <trkpt lat="44.76862" lon="0.51251">
        <ele>121.2</ele>
        <time>2025-07-14T08:27:30Z</time>
      </trkpt>
      <trkpt lat="44.76865" lon="0.51247">
        <ele>121.2</ele>
        <time>2025-07-14T08:27:31Z</time>
      </trkpt>
      <trkpt lat="44.76869" lon="0.51244">
        <ele>121.2</ele>
        <time>2025-07-14T08:27:32Z</time>
      </trkpt>
      <trkpt lat="44.76872" lon="0.51241">
        <ele>121.2</ele>
        <time>2025-07-14T08:27:33Z</time>
      </trkpt>
      <trkpt lat="44.76875" lon="0.51237">
        <ele>121.4</ele>
        <time>2025-07-14T08:27:34Z</time>
      </trkpt>
      <trkpt lat="44.76878" lon="0.51234">
        <ele>121.4</ele>
        <time>2025-07-14T08:27:35Z</time>
      </trkpt>
      <trkpt lat="44.76881" lon="0.5123">
        <ele>121.6</ele>
        <time>2025-07-14T08:27:36Z</time>
      </trkpt>
      <trkpt lat="44.76884" lon="0.51227">
        <ele>121.6</ele>
        <time>2025-07-14T08:27:37Z</time>
      </trkpt>
      <trkpt lat="44.76886" lon="0.51224">
        <ele>121.8</ele>
        <time>2025-07-14T08:27:38Z</time>
      </trkpt>
      <trkpt lat="44.76889" lon="0.51221">
        <ele>122</ele>
        <time>2025-07-14T08:27:39Z</time>
      </trkpt>
      <trkpt lat="44.76892" lon="0.51218">
        <ele>122.2</ele>
        <time>2025-07-14T08:27:40Z</time>
      </trkpt>
      <trkpt lat="44.76895" lon="0.51215">
        <ele>122.2</ele>
        <time>2025-07-14T08:27:41Z</time>
      </trkpt>
      <trkpt lat="44.76898" lon="0.51211">
        <ele>122.4</ele>
        <time>2025-07-14T08:27:42Z</time>
      </trkpt>
      <trkpt lat="44.76901" lon="0.51208">
        <ele>122.6</ele>
        <time>2025-07-14T08:27:43Z</time>
      </trkpt>
      <trkpt lat="44.76904" lon="0.51205">
        <ele>122.6</ele>
        <time>2025-07-14T08:27:44Z</time>
      </trkpt>
      <trkpt lat="44.76907" lon="0.51202">
        <ele>122.8</ele>
        <time>2025-07-14T08:27:45Z</time>
      </trkpt>
      <trkpt lat="44.7691" lon="0.51199">
        <ele>123</ele>
        <time>2025-07-14T08:27:46Z</time>
      </trkpt>
      <trkpt lat="44.76913" lon="0.51196">
        <ele>123.2</ele>
        <time>2025-07-14T08:27:47Z</time>
      </trkpt>
      <trkpt lat="44.76916" lon="0.51192">
        <ele>123.2</ele>
        <time>2025-07-14T08:27:48Z</time>
      </trkpt>
      <trkpt lat="44.7692" lon="0.51189">
        <ele>123.4</ele>
        <time>2025-07-14T08:27:49Z</time>
      </trkpt>
      <trkpt lat="44.76923" lon="0.51187">
        <ele>123.4</ele>
        <time>2025-07-14T08:27:50Z</time>
      </trkpt>
      <trkpt lat="44.76927" lon="0.51184">
        <ele>123.6</ele>
        <time>2025-07-14T08:27:51Z</time>
      </trkpt>
      <trkpt lat="44.7693" lon="0.51181">
        <ele>123.8</ele>
        <time>2025-07-14T08:27:52Z</time>
      </trkpt>
      <trkpt lat="44.76933" lon="0.51177">
        <ele>123.8</ele>
        <time>2025-07-14T08:27:53Z</time>
      </trkpt>
      <trkpt lat="44.76937" lon="0.51173">
        <ele>123.8</ele>
        <time>2025-07-14T08:27:54Z</time>
      </trkpt>
      <trkpt lat="44.76941" lon="0.51169">
        <ele>123.8</ele>
        <time>2025-07-14T08:27:55Z</time>
      </trkpt>
      <trkpt lat="44.76945" lon="0.51165">
        <ele>123.6</ele>
        <time>2025-07-14T08:27:56Z</time>
      </trkpt>
      <trkpt lat="44.76948" lon="0.5116">
        <ele>123.4</ele>
        <time>2025-07-14T08:27:57Z</time>
      </trkpt>
      <trkpt lat="44.76952" lon="0.51155">
        <ele>123.4</ele>
        <time>2025-07-14T08:27:58Z</time>
      </trkpt>
      <trkpt lat="44.76957" lon="0.5115">
        <ele>123.2</ele>
        <time>2025-07-14T08:27:59Z</time>
      </trkpt>
      <trkpt lat="44.76961" lon="0.51145">
        <ele>123</ele>
        <time>2025-07-14T08:28:00Z</time>
      </trkpt>
      <trkpt lat="44.76965" lon="0.5114">
        <ele>122.8</ele>
        <time>2025-07-14T08:28:01Z</time>
      </trkpt>
      <trkpt lat="44.76969" lon="0.51134">
        <ele>122.6</ele>
        <time>2025-07-14T08:28:02Z</time>
      </trkpt>
      <trkpt lat="44.76973" lon="0.5113">
        <ele>122.4</ele>
        <time>2025-07-14T08:28:03Z</time>
      </trkpt>
      <trkpt lat="44.76977" lon="0.51125">
        <ele>122.2</ele>
        <time>2025-07-14T08:28:04Z</time>
      </trkpt>
      <trkpt lat="44.76981" lon="0.5112">
        <ele>122</ele>
        <time>2025-07-14T08:28:05Z</time>
      </trkpt>
      <trkpt lat="44.76985" lon="0.51115">
        <ele>122</ele>
        <time>2025-07-14T08:28:06Z</time>
      </trkpt>
      <trkpt lat="44.7699" lon="0.5111">
        <ele>121.8</ele>
        <time>2025-07-14T08:28:07Z</time>
      </trkpt>
      <trkpt lat="44.76993" lon="0.51105">
        <ele>121.6</ele>
        <time>2025-07-14T08:28:08Z</time>
      </trkpt>
      <trkpt lat="44.76996" lon="0.51099">
        <ele>121.4</ele>
        <time>2025-07-14T08:28:09Z</time>
      </trkpt>
      <trkpt lat="44.76999" lon="0.51093">
        <ele>121.4</ele>
        <time>2025-07-14T08:28:10Z</time>
      </trkpt>
      <trkpt lat="44.77003" lon="0.51087">
        <ele>121.2</ele>
        <time>2025-07-14T08:28:11Z</time>
      </trkpt>
      <trkpt lat="44.77006" lon="0.51081">
        <ele>121.2</ele>
        <time>2025-07-14T08:28:12Z</time>
      </trkpt>
      <trkpt lat="44.77008" lon="0.51075">
        <ele>121</ele>
        <time>2025-07-14T08:28:13Z</time>
      </trkpt>
      <trkpt lat="44.77011" lon="0.51069">
        <ele>121</ele>
        <time>2025-07-14T08:28:14Z</time>
      </trkpt>
      <trkpt lat="44.77013" lon="0.51063">
        <ele>121</ele>
        <time>2025-07-14T08:28:15Z</time>
      </trkpt>
      <trkpt lat="44.77016" lon="0.51057">
        <ele>121</ele>
        <time>2025-07-14T08:28:16Z</time>
      </trkpt>
      <trkpt lat="44.77018" lon="0.51051">
        <ele>120.8</ele>
        <time>2025-07-14T08:28:17Z</time>
      </trkpt>
      <trkpt lat="44.77021" lon="0.51045">
        <ele>120.8</ele>
        <time>2025-07-14T08:28:18Z</time>
      </trkpt>
      <trkpt lat="44.77023" lon="0.51039">
        <ele>120.8</ele>
        <time>2025-07-14T08:28:19Z</time>
      </trkpt>
      <trkpt lat="44.77026" lon="0.51033">
        <ele>121</ele>
        <time>2025-07-14T08:28:20Z</time>
      </trkpt>
      <trkpt lat="44.77028" lon="0.51027">
        <ele>121</ele>
        <time>2025-07-14T08:28:21Z</time>
      </trkpt>
      <trkpt lat="44.77031" lon="0.51021">
        <ele>121.2</ele>
        <time>2025-07-14T08:28:22Z</time>
      </trkpt>
      <trkpt lat="44.77033" lon="0.51015">
        <ele>121.2</ele>
        <time>2025-07-14T08:28:23Z</time>
      </trkpt>
      <trkpt lat="44.77036" lon="0.5101">
        <ele>121.2</ele>
        <time>2025-07-14T08:28:24Z</time>
      </trkpt>
      <trkpt lat="44.77038" lon="0.51004">
        <ele>121.2</ele>
        <time>2025-07-14T08:28:25Z</time>
      </trkpt>
      <trkpt lat="44.7704" lon="0.50998">
        <ele>121.4</ele>
        <time>2025-07-14T08:28:26Z</time>
      </trkpt>
      <trkpt lat="44.77043" lon="0.50993">
        <ele>121.6</ele>
        <time>2025-07-14T08:28:27Z</time>
      </trkpt>
      <trkpt lat="44.77046" lon="0.50988">
        <ele>121.6</ele>
        <time>2025-07-14T08:28:28Z</time>
      </trkpt>
      <trkpt lat="44.77048" lon="0.50984">
        <ele>121.8</ele>
        <time>2025-07-14T08:28:29Z</time>
      </trkpt>
      <trkpt lat="44.77051" lon="0.50979">
        <ele>122</ele>
        <time>2025-07-14T08:28:30Z</time>
      </trkpt>
      <trkpt lat="44.77054" lon="0.50973">
        <ele>122</ele>
        <time>2025-07-14T08:28:31Z</time>
      </trkpt>
      <trkpt lat="44.77056" lon="0.50968">
        <ele>122</ele>
        <time>2025-07-14T08:28:32Z</time>
      </trkpt>
      <trkpt lat="44.77059" lon="0.50963">
        <ele>122.2</ele>
        <time>2025-07-14T08:28:33Z</time>
      </trkpt>
      <trkpt lat="44.77061" lon="0.50957">
        <ele>122.4</ele>
        <time>2025-07-14T08:28:34Z</time>
      </trkpt>
      <trkpt lat="44.77064" lon="0.50952">
        <ele>122.4</ele>
        <time>2025-07-14T08:28:35Z</time>
      </trkpt>
      <trkpt lat="44.77067" lon="0.50946">
        <ele>122.4</ele>
        <time>2025-07-14T08:28:36Z</time>
      </trkpt>
      <trkpt lat="44.77069" lon="0.50941">
        <ele>122.4</ele>
        <time>2025-07-14T08:28:37Z</time>
      </trkpt>
      <trkpt lat="44.77072" lon="0.50935">
        <ele>122.6</ele>
        <time>2025-07-14T08:28:38Z</time>
      </trkpt>
      <trkpt lat="44.77074" lon="0.5093">
        <ele>122.6</ele>
        <time>2025-07-14T08:28:39Z</time>
      </trkpt>
      <trkpt lat="44.77076" lon="0.50925">
        <ele>122.6</ele>
        <time>2025-07-14T08:28:40Z</time>
      </trkpt>
      <trkpt lat="44.77078" lon="0.50919">
        <ele>122.8</ele>
        <time>2025-07-14T08:28:41Z</time>
      </trkpt>
      <trkpt lat="44.7708" lon="0.50914">
        <ele>122.8</ele>
        <time>2025-07-14T08:28:42Z</time>
      </trkpt>
      <trkpt lat="44.77081" lon="0.50909">
        <ele>123</ele>
        <time>2025-07-14T08:28:43Z</time>
      </trkpt>
      <trkpt lat="44.77083" lon="0.50904">
        <ele>123.2</ele>
        <time>2025-07-14T08:28:44Z</time>
      </trkpt>
      <trkpt lat="44.77085" lon="0.50899">
        <ele>123.2</ele>
        <time>2025-07-14T08:28:45Z</time>
      </trkpt>
      <trkpt lat="44.77087" lon="0.50894">
        <ele>123.4</ele>
        <time>2025-07-14T08:28:46Z</time>
      </trkpt>
      <trkpt lat="44.77089" lon="0.50889">
        <ele>123.6</ele>
        <time>2025-07-14T08:28:47Z</time>
      </trkpt>
      <trkpt lat="44.7709" lon="0.50884">
        <ele>123.6</ele>
        <time>2025-07-14T08:28:48Z</time>
      </trkpt>
      <trkpt lat="44.77093" lon="0.50879">
        <ele>123.6</ele>
        <time>2025-07-14T08:28:49Z</time>
      </trkpt>
      <trkpt lat="44.77095" lon="0.50874">
        <ele>123.8</ele>
        <time>2025-07-14T08:28:50Z</time>
      </trkpt>
      <trkpt lat="44.77098" lon="0.5087">
        <ele>123.8</ele>
        <time>2025-07-14T08:28:51Z</time>
      </trkpt>
      <trkpt lat="44.77101" lon="0.50867">
        <ele>124</ele>
        <time>2025-07-14T08:28:52Z</time>
      </trkpt>
      <trkpt lat="44.77104" lon="0.50863">
        <ele>124.2</ele>
        <time>2025-07-14T08:28:53Z</time>
      </trkpt>
      <trkpt lat="44.77107" lon="0.5086">
        <ele>124.4</ele>
        <time>2025-07-14T08:28:54Z</time>
      </trkpt>
      <trkpt lat="44.7711" lon="0.50857">
        <ele>124.6</ele>
        <time>2025-07-14T08:28:55Z</time>
      </trkpt>
      <trkpt lat="44.77113" lon="0.50854">
        <ele>124.6</ele>
        <time>2025-07-14T08:28:56Z</time>
      </trkpt>
      <trkpt lat="44.77117" lon="0.50851">
        <ele>124.8</ele>
        <time>2025-07-14T08:28:57Z</time>
      </trkpt>
      <trkpt lat="44.77121" lon="0.50848">
        <ele>124.8</ele>
        <time>2025-07-14T08:28:58Z</time>
      </trkpt>
      <trkpt lat="44.77125" lon="0.50844">
        <ele>124.8</ele>
        <time>2025-07-14T08:28:59Z</time>
      </trkpt>
      <trkpt lat="44.7713" lon="0.5084">
        <ele>124.8</ele>
        <time>2025-07-14T08:29:00Z</time>
      </trkpt>
      <trkpt lat="44.77136" lon="0.50837">
        <ele>124.6</ele>
        <time>2025-07-14T08:29:01Z</time>
      </trkpt>
      <trkpt lat="44.77142" lon="0.50833">
        <ele>124.6</ele>
        <time>2025-07-14T08:29:02Z</time>
      </trkpt>
      <trkpt lat="44.77147" lon="0.50829">
        <ele>124.4</ele>
        <time>2025-07-14T08:29:03Z</time>
      </trkpt>
      <trkpt lat="44.77152" lon="0.50825">
        <ele>124.2</ele>
        <time>2025-07-14T08:29:04Z</time>
      </trkpt>
      <trkpt lat="44.77157" lon="0.50821">
        <ele>123.8</ele>
        <time>2025-07-14T08:29:05Z</time>
      </trkpt>
      <trkpt lat="44.77162" lon="0.50816">
        <ele>123.6</ele>
        <time>2025-07-14T08:29:06Z</time>
      </trkpt>
      <trkpt lat="44.77167" lon="0.50811">
        <ele>123.4</ele>
        <time>2025-07-14T08:29:07Z</time>
      </trkpt>
      <trkpt lat="44.77172" lon="0.50806">
        <ele>123.2</ele>
        <time>2025-07-14T08:29:08Z</time>
      </trkpt>
      <trkpt lat="44.77177" lon="0.50802">
        <ele>123</ele>
        <time>2025-07-14T08:29:09Z</time>
      </trkpt>
      <trkpt lat="44.77182" lon="0.50797">
        <ele>122.8</ele>
        <time>2025-07-14T08:29:10Z</time>
      </trkpt>
      <trkpt lat="44.77187" lon="0.50793">
        <ele>122.8</ele>
        <time>2025-07-14T08:29:11Z</time>
      </trkpt>
      <trkpt lat="44.77191" lon="0.50789">
        <ele>122.6</ele>
        <time>2025-07-14T08:29:12Z</time>
      </trkpt>
      <trkpt lat="44.77196" lon="0.50785">
        <ele>122.6</ele>
        <time>2025-07-14T08:29:13Z</time>
      </trkpt>
      <trkpt lat="44.772" lon="0.50782">
        <ele>122.6</ele>
        <time>2025-07-14T08:29:14Z</time>
      </trkpt>
      <trkpt lat="44.77205" lon="0.50778">
        <ele>122.6</ele>
        <time>2025-07-14T08:29:15Z</time>
      </trkpt>
      <trkpt lat="44.77209" lon="0.50774">
        <ele>122.6</ele>
        <time>2025-07-14T08:29:16Z</time>
      </trkpt>
      <trkpt lat="44.77213" lon="0.5077">
        <ele>122.4</ele>
        <time>2025-07-14T08:29:17Z</time>
      </trkpt>
      <trkpt lat="44.77217" lon="0.50767">
        <ele>122.4</ele>
        <time>2025-07-14T08:29:18Z</time>
      </trkpt>
      <trkpt lat="44.77222" lon="0.50764">
        <ele>122.4</ele>
        <time>2025-07-14T08:29:19Z</time>
      </trkpt>
      <trkpt lat="44.77226" lon="0.5076">
        <ele>122.4</ele>
        <time>2025-07-14T08:29:20Z</time>
      </trkpt>
      <trkpt lat="44.77231" lon="0.50756">
        <ele>122.2</ele>
        <time>2025-07-14T08:29:21Z</time>
      </trkpt>
      <trkpt lat="44.77235" lon="0.50752">
        <ele>122.4</ele>
        <time>2025-07-14T08:29:22Z</time>
      </trkpt>
      <trkpt lat="44.7724" lon="0.50748">
        <ele>122.4</ele>
        <time>2025-07-14T08:29:23Z</time>
      </trkpt>
      <trkpt lat="44.77244" lon="0.50745">
        <ele>122.4</ele>
        <time>2025-07-14T08:29:24Z</time>
      </trkpt>
      <trkpt lat="44.77248" lon="0.50742">
        <ele>122.4</ele>
        <time>2025-07-14T08:29:25Z</time>
      </trkpt>
      <trkpt lat="44.77252" lon="0.50739">
        <ele>122.4</ele>
        <time>2025-07-14T08:29:26Z</time>
      </trkpt>
      <trkpt lat="44.77257" lon="0.50736">
        <ele>122.2</ele>
        <time>2025-07-14T08:29:27Z</time>
      </trkpt>
      <trkpt lat="44.77261" lon="0.50732">
        <ele>122.2</ele>
        <time>2025-07-14T08:29:28Z</time>
      </trkpt>
      <trkpt lat="44.77265" lon="0.50728">
        <ele>122</ele>
        <time>2025-07-14T08:29:29Z</time>
      </trkpt>
      <trkpt lat="44.77269" lon="0.50725">
        <ele>122</ele>
        <time>2025-07-14T08:29:30Z</time>
      </trkpt>
      <trkpt lat="44.77273" lon="0.50722">
        <ele>122</ele>
        <time>2025-07-14T08:29:31Z</time>
      </trkpt>
      <trkpt lat="44.77278" lon="0.50719">
        <ele>122</ele>
        <time>2025-07-14T08:29:32Z</time>
      </trkpt>
      <trkpt lat="44.77282" lon="0.50716">
        <ele>122.2</ele>
        <time>2025-07-14T08:29:33Z</time>
      </trkpt>
      <trkpt lat="44.77287" lon="0.50713">
        <ele>122.2</ele>
        <time>2025-07-14T08:29:34Z</time>
      </trkpt>
      <trkpt lat="44.77291" lon="0.5071">
        <ele>122.4</ele>
        <time>2025-07-14T08:29:35Z</time>
      </trkpt>
      <trkpt lat="44.77295" lon="0.50707">
        <ele>122.4</ele>
        <time>2025-07-14T08:29:36Z</time>
      </trkpt>
      <trkpt lat="44.77299" lon="0.50704">
        <ele>122.6</ele>
        <time>2025-07-14T08:29:37Z</time>
      </trkpt>
      <trkpt lat="44.77304" lon="0.50701">
        <ele>122.6</ele>
        <time>2025-07-14T08:29:38Z</time>
      </trkpt>
      <trkpt lat="44.77307" lon="0.50699">
        <ele>122.6</ele>
        <time>2025-07-14T08:29:39Z</time>
      </trkpt>
      <trkpt lat="44.77311" lon="0.50698">
        <ele>122.8</ele>
        <time>2025-07-14T08:29:40Z</time>
      </trkpt>
      <trkpt lat="44.77315" lon="0.50698">
        <ele>122.8</ele>
        <time>2025-07-14T08:29:41Z</time>
      </trkpt>
      <trkpt lat="44.77319" lon="0.50696">
        <ele>123.2</ele>
        <time>2025-07-14T08:29:42Z</time>
      </trkpt>
      <trkpt lat="44.77322" lon="0.50695">
        <ele>123.4</ele>
        <time>2025-07-14T08:29:43Z</time>
      </trkpt>
      <trkpt lat="44.77325" lon="0.50694">
        <ele>123.6</ele>
        <time>2025-07-14T08:29:44Z</time>
      </trkpt>
      <trkpt lat="44.77329" lon="0.50694">
        <ele>123.8</ele>
        <time>2025-07-14T08:29:45Z</time>
      </trkpt>
      <trkpt lat="44.77332" lon="0.50693">
        <ele>124.2</ele>
        <time>2025-07-14T08:29:46Z</time>
      </trkpt>
      <trkpt lat="44.77336" lon="0.50694">
        <ele>124.4</ele>
        <time>2025-07-14T08:29:47Z</time>
      </trkpt>
      <trkpt lat="44.77339" lon="0.50694">
        <ele>124.8</ele>
        <time>2025-07-14T08:29:48Z</time>
      </trkpt>
      <trkpt lat="44.77343" lon="0.50693">
        <ele>125.2</ele>
        <time>2025-07-14T08:29:49Z</time>
      </trkpt>
      <trkpt lat="44.77346" lon="0.50693">
        <ele>125.4</ele>
        <time>2025-07-14T08:29:50Z</time>
      </trkpt>
      <trkpt lat="44.77349" lon="0.50692">
        <ele>125.8</ele>
        <time>2025-07-14T08:29:51Z</time>
      </trkpt>
      <trkpt lat="44.77353" lon="0.50691">
        <ele>126</ele>
        <time>2025-07-14T08:29:52Z</time>
      </trkpt>
      <trkpt lat="44.77355" lon="0.5069">
        <ele>126.4</ele>
        <time>2025-07-14T08:29:53Z</time>
      </trkpt>
      <trkpt lat="44.77358" lon="0.50688">
        <ele>126.8</ele>
        <time>2025-07-14T08:29:54Z</time>
      </trkpt>
      <trkpt lat="44.7736" lon="0.50686">
        <ele>127</ele>
        <time>2025-07-14T08:29:55Z</time>
      </trkpt>
      <trkpt lat="44.77362" lon="0.50684">
        <ele>127.4</ele>
        <time>2025-07-14T08:29:56Z</time>
      </trkpt>
      <trkpt lat="44.77364" lon="0.50683">
        <ele>127.6</ele>
        <time>2025-07-14T08:29:57Z</time>
      </trkpt>
      <trkpt lat="44.77367" lon="0.50682">
        <ele>127.8</ele>
        <time>2025-07-14T08:29:58Z</time>
      </trkpt>
      <trkpt lat="44.77369" lon="0.50683">
        <ele>128.2</ele>
        <time>2025-07-14T08:29:59Z</time>
      </trkpt>
      <trkpt lat="44.77371" lon="0.50684">
        <ele>128.4</ele>
        <time>2025-07-14T08:30:00Z</time>
      </trkpt>
      <trkpt lat="44.77374" lon="0.50684">
        <ele>128.6</ele>
        <time>2025-07-14T08:30:01Z</time>
      </trkpt>
      <trkpt lat="44.77376" lon="0.50684">
        <ele>128.8</ele>
        <time>2025-07-14T08:30:02Z</time>
      </trkpt>
      <trkpt lat="44.77378" lon="0.50684">
        <ele>129</ele>
        <time>2025-07-14T08:30:03Z</time>
      </trkpt>
      <trkpt lat="44.77381" lon="0.50683">
        <ele>129.2</ele>
        <time>2025-07-14T08:30:04Z</time>
      </trkpt>
      <trkpt lat="44.77383" lon="0.50682">
        <ele>129.4</ele>
        <time>2025-07-14T08:30:05Z</time>
      </trkpt>
      <trkpt lat="44.77385" lon="0.50681">
        <ele>129.6</ele>
        <time>2025-07-14T08:30:06Z</time>
      </trkpt>
      <trkpt lat="44.77388" lon="0.50681">
        <ele>129.8</ele>
        <time>2025-07-14T08:30:07Z</time>
      </trkpt>
      <trkpt lat="44.77391" lon="0.5068">
        <ele>129.8</ele>
        <time>2025-07-14T08:30:08Z</time>
      </trkpt>
      <trkpt lat="44.77393" lon="0.50679">
        <ele>130</ele>
        <time>2025-07-14T08:30:09Z</time>
      </trkpt>
      <trkpt lat="44.77396" lon="0.50678">
        <ele>130.2</ele>
        <time>2025-07-14T08:30:10Z</time>
      </trkpt>
      <trkpt lat="44.77399" lon="0.50677">
        <ele>130.2</ele>
        <time>2025-07-14T08:30:11Z</time>
      </trkpt>
      <trkpt lat="44.77402" lon="0.50676">
        <ele>130.2</ele>
        <time>2025-07-14T08:30:12Z</time>
      </trkpt>
      <trkpt lat="44.77405" lon="0.50674">
        <ele>130.4</ele>
        <time>2025-07-14T08:30:13Z</time>
      </trkpt>
      <trkpt lat="44.77408" lon="0.50672">
        <ele>130.4</ele>
        <time>2025-07-14T08:30:14Z</time>
      </trkpt>
      <trkpt lat="44.77412" lon="0.50671">
        <ele>130.6</ele>
        <time>2025-07-14T08:30:15Z</time>
      </trkpt>
      <trkpt lat="44.77416" lon="0.50669">
        <ele>130.6</ele>
        <time>2025-07-14T08:30:16Z</time>
      </trkpt>
      <trkpt lat="44.7742" lon="0.50668">
        <ele>130.6</ele>
        <time>2025-07-14T08:30:17Z</time>
      </trkpt>
      <trkpt lat="44.77424" lon="0.50666">
        <ele>130.6</ele>
        <time>2025-07-14T08:30:18Z</time>
      </trkpt>
      <trkpt lat="44.77429" lon="0.50664">
        <ele>130.6</ele>
        <time>2025-07-14T08:30:19Z</time>
      </trkpt>
      <trkpt lat="44.77433" lon="0.50662">
        <ele>130.6</ele>
        <time>2025-07-14T08:30:20Z</time>
      </trkpt>
      <trkpt lat="44.77437" lon="0.5066">
        <ele>130.4</ele>
        <time>2025-07-14T08:30:21Z</time>
      </trkpt>
      <trkpt lat="44.77441" lon="0.50658">
        <ele>130.4</ele>
        <time>2025-07-14T08:30:22Z</time>
      </trkpt>
      <trkpt lat="44.77446" lon="0.50656">
        <ele>130.2</ele>
        <time>2025-07-14T08:30:23Z</time>
      </trkpt>
      <trkpt lat="44.7745" lon="0.50654">
        <ele>130.2</ele>
        <time>2025-07-14T08:30:24Z</time>
      </trkpt>
      <trkpt lat="44.77455" lon="0.50653">
        <ele>130</ele>
        <time>2025-07-14T08:30:25Z</time>
      </trkpt>
      <trkpt lat="44.77459" lon="0.50652">
        <ele>130</ele>
        <time>2025-07-14T08:30:26Z</time>
      </trkpt>
      <trkpt lat="44.77463" lon="0.5065">
        <ele>129.8</ele>
        <time>2025-07-14T08:30:27Z</time>
      </trkpt>
      <trkpt lat="44.77468" lon="0.50648">
        <ele>129.6</ele>
        <time>2025-07-14T08:30:28Z</time>
      </trkpt>
      <trkpt lat="44.77473" lon="0.50646">
        <ele>129.6</ele>
        <time>2025-07-14T08:30:29Z</time>
      </trkpt>
      <trkpt lat="44.77477" lon="0.50644">
        <ele>129.4</ele>
        <time>2025-07-14T08:30:30Z</time>
      </trkpt>
      <trkpt lat="44.77481" lon="0.50642">
        <ele>129.4</ele>
        <time>2025-07-14T08:30:31Z</time>
      </trkpt>
      <trkpt lat="44.77486" lon="0.5064">
        <ele>129.2</ele>
        <time>2025-07-14T08:30:32Z</time>
      </trkpt>
      <trkpt lat="44.7749" lon="0.50638">
        <ele>129.2</ele>
        <time>2025-07-14T08:30:33Z</time>
      </trkpt>
      <trkpt lat="44.77494" lon="0.50635">
        <ele>129.2</ele>
        <time>2025-07-14T08:30:34Z</time>
      </trkpt>
      <trkpt lat="44.77499" lon="0.50633">
        <ele>129</ele>
        <time>2025-07-14T08:30:35Z</time>
      </trkpt>
      <trkpt lat="44.77503" lon="0.5063">
        <ele>128.8</ele>
        <time>2025-07-14T08:30:36Z</time>
      </trkpt>
      <trkpt lat="44.77508" lon="0.50627">
        <ele>128.8</ele>
        <time>2025-07-14T08:30:37Z</time>
      </trkpt>
      <trkpt lat="44.77512" lon="0.50624">
        <ele>128.6</ele>
        <time>2025-07-14T08:30:38Z</time>
      </trkpt>
      <trkpt lat="44.77517" lon="0.50621">
        <ele>128.4</ele>
        <time>2025-07-14T08:30:39Z</time>
      </trkpt>
      <trkpt lat="44.77522" lon="0.50618">
        <ele>128.2</ele>
        <time>2025-07-14T08:30:40Z</time>
      </trkpt>
      <trkpt lat="44.77526" lon="0.50615">
        <ele>128.2</ele>
        <time>2025-07-14T08:30:41Z</time>
      </trkpt>
      <trkpt lat="44.7753" lon="0.50613">
        <ele>128</ele>
        <time>2025-07-14T08:30:42Z</time>
      </trkpt>
      <trkpt lat="44.77533" lon="0.5061">
        <ele>128</ele>
        <time>2025-07-14T08:30:43Z</time>
      </trkpt>
      <trkpt lat="44.77536" lon="0.5061">
        <ele>127.8</ele>
        <time>2025-07-14T08:30:44Z</time>
      </trkpt>
      <trkpt lat="44.77538" lon="0.50611">
        <ele>127.8</ele>
        <time>2025-07-14T08:30:45Z</time>
      </trkpt>
      <trkpt lat="44.7754" lon="0.50611">
        <ele>127.8</ele>
        <time>2025-07-14T08:30:46Z</time>
      </trkpt>
      <trkpt lat="44.77542" lon="0.50609">
        <ele>127.8</ele>
        <time>2025-07-14T08:30:47Z</time>
      </trkpt>
      <trkpt lat="44.77545" lon="0.50605">
        <ele>127.8</ele>
        <time>2025-07-14T08:30:48Z</time>
      </trkpt>
      <trkpt lat="44.77548" lon="0.50602">
        <ele>127.8</ele>
        <time>2025-07-14T08:30:49Z</time>
      </trkpt>
      <trkpt lat="44.77553" lon="0.50598">
        <ele>127.8</ele>
        <time>2025-07-14T08:30:50Z</time>
      </trkpt>
      <trkpt lat="44.77558" lon="0.50595">
        <ele>127.6</ele>
        <time>2025-07-14T08:30:51Z</time>
      </trkpt>
      <trkpt lat="44.77562" lon="0.50591">
        <ele>127.4</ele>
        <time>2025-07-14T08:30:52Z</time>
      </trkpt>
      <trkpt lat="44.77568" lon="0.50588">
        <ele>127</ele>
        <time>2025-07-14T08:30:53Z</time>
      </trkpt>
      <trkpt lat="44.77573" lon="0.50585">
        <ele>126.8</ele>
        <time>2025-07-14T08:30:54Z</time>
      </trkpt>
      <trkpt lat="44.77578" lon="0.50581">
        <ele>126.4</ele>
        <time>2025-07-14T08:30:55Z</time>
      </trkpt>
      <trkpt lat="44.77583" lon="0.50578">
        <ele>126.4</ele>
        <time>2025-07-14T08:30:56Z</time>
      </trkpt>
      <trkpt lat="44.77589" lon="0.50574">
        <ele>126.4</ele>
        <time>2025-07-14T08:30:57Z</time>
      </trkpt>
      <trkpt lat="44.77595" lon="0.5057">
        <ele>126.2</ele>
        <time>2025-07-14T08:30:58Z</time>
      </trkpt>
      <trkpt lat="44.77601" lon="0.50566">
        <ele>125.8</ele>
        <time>2025-07-14T08:30:59Z</time>
      </trkpt>
      <trkpt lat="44.77606" lon="0.50563">
        <ele>125.4</ele>
        <time>2025-07-14T08:31:00Z</time>
      </trkpt>
      <trkpt lat="44.77612" lon="0.50559">
        <ele>125.2</ele>
        <time>2025-07-14T08:31:01Z</time>
      </trkpt>
      <trkpt lat="44.77618" lon="0.50555">
        <ele>125</ele>
        <time>2025-07-14T08:31:02Z</time>
      </trkpt>
      <trkpt lat="44.77624" lon="0.50551">
        <ele>124.8</ele>
        <time>2025-07-14T08:31:03Z</time>
      </trkpt>
      <trkpt lat="44.7763" lon="0.50547">
        <ele>124.8</ele>
        <time>2025-07-14T08:31:04Z</time>
      </trkpt>
      <trkpt lat="44.77636" lon="0.50544">
        <ele>124.6</ele>
        <time>2025-07-14T08:31:05Z</time>
      </trkpt>
      <trkpt lat="44.77641" lon="0.5054">
        <ele>124.4</ele>
        <time>2025-07-14T08:31:06Z</time>
      </trkpt>
      <trkpt lat="44.77646" lon="0.50536">
        <ele>124.2</ele>
        <time>2025-07-14T08:31:07Z</time>
      </trkpt>
      <trkpt lat="44.7765" lon="0.50533">
        <ele>124.2</ele>
        <time>2025-07-14T08:31:08Z</time>
      </trkpt>
      <trkpt lat="44.77656" lon="0.50531">
        <ele>124.4</ele>
        <time>2025-07-14T08:31:09Z</time>
      </trkpt>
      <trkpt lat="44.77661" lon="0.50528">
        <ele>124.4</ele>
        <time>2025-07-14T08:31:10Z</time>
      </trkpt>
      <trkpt lat="44.77666" lon="0.50525">
        <ele>124.4</ele>
        <time>2025-07-14T08:31:11Z</time>
      </trkpt>
      <trkpt lat="44.7767" lon="0.50522">
        <ele>124.4</ele>
        <time>2025-07-14T08:31:12Z</time>
      </trkpt>
      <trkpt lat="44.77672" lon="0.5052">
        <ele>124.4</ele>
        <time>2025-07-14T08:31:13Z</time>
      </trkpt>
      <trkpt lat="44.77673" lon="0.50519">
        <ele>124.2</ele>
        <time>2025-07-14T08:31:14Z</time>
      </trkpt>
      <trkpt lat="44.77674" lon="0.50518">
        <ele>124.2</ele>
        <time>2025-07-14T08:31:15Z</time>
      </trkpt>
      <trkpt lat="44.77673" lon="0.50516">
        <ele>124.2</ele>
        <time>2025-07-14T08:31:16Z</time>
      </trkpt>
      <trkpt lat="44.77672" lon="0.50513">
        <ele>124.2</ele>
        <time>2025-07-14T08:31:17Z</time>
      </trkpt>
      <trkpt lat="44.77671" lon="0.50511">
        <ele>124.2</ele>
        <time>2025-07-14T08:31:18Z</time>
      </trkpt>
      <trkpt lat="44.7767" lon="0.50506">
        <ele>124.2</ele>
        <time>2025-07-14T08:31:19Z</time>
      </trkpt>
      <trkpt lat="44.77669" lon="0.50502">
        <ele>124</ele>
        <time>2025-07-14T08:31:20Z</time>
      </trkpt>
      <trkpt lat="44.77668" lon="0.50496">
        <ele>124</ele>
        <time>2025-07-14T08:31:21Z</time>
      </trkpt>
      <trkpt lat="44.77667" lon="0.5049">
        <ele>123.8</ele>
        <time>2025-07-14T08:31:22Z</time>
      </trkpt>
      <trkpt lat="44.77666" lon="0.50484">
        <ele>123.8</ele>
        <time>2025-07-14T08:31:23Z</time>
      </trkpt>
      <trkpt lat="44.77665" lon="0.50478">
        <ele>123.6</ele>
        <time>2025-07-14T08:31:24Z</time>
      </trkpt>
      <trkpt lat="44.77664" lon="0.50471">
        <ele>123.6</ele>
        <time>2025-07-14T08:31:25Z</time>
      </trkpt>
      <trkpt lat="44.77663" lon="0.50465">
        <ele>123.4</ele>
        <time>2025-07-14T08:31:26Z</time>
      </trkpt>
      <trkpt lat="44.77661" lon="0.50458">
        <ele>123.2</ele>
        <time>2025-07-14T08:31:27Z</time>
      </trkpt>
      <trkpt lat="44.7766" lon="0.50451">
        <ele>123</ele>
        <time>2025-07-14T08:31:28Z</time>
      </trkpt>
      <trkpt lat="44.77659" lon="0.50444">
        <ele>123</ele>
        <time>2025-07-14T08:31:29Z</time>
      </trkpt>
      <trkpt lat="44.77658" lon="0.50437">
        <ele>122.8</ele>
        <time>2025-07-14T08:31:30Z</time>
      </trkpt>
      <trkpt lat="44.77657" lon="0.50429">
        <ele>122.6</ele>
        <time>2025-07-14T08:31:31Z</time>
      </trkpt>
      <trkpt lat="44.77656" lon="0.50422">
        <ele>122.6</ele>
        <time>2025-07-14T08:31:32Z</time>
      </trkpt>
      <trkpt lat="44.77655" lon="0.50415">
        <ele>122.6</ele>
        <time>2025-07-14T08:31:33Z</time>
      </trkpt>
      <trkpt lat="44.77653" lon="0.50408">
        <ele>122.6</ele>
        <time>2025-07-14T08:31:34Z</time>
      </trkpt>
      <trkpt lat="44.77652" lon="0.50401">
        <ele>122.6</ele>
        <time>2025-07-14T08:31:35Z</time>
      </trkpt>
      <trkpt lat="44.7765" lon="0.50395">
        <ele>122.8</ele>
        <time>2025-07-14T08:31:36Z</time>
      </trkpt>
      <trkpt lat="44.77649" lon="0.50388">
        <ele>122.8</ele>
        <time>2025-07-14T08:31:37Z</time>
      </trkpt>
      <trkpt lat="44.77648" lon="0.50382">
        <ele>122.8</ele>
        <time>2025-07-14T08:31:38Z</time>
      </trkpt>
      <trkpt lat="44.77647" lon="0.50375">
        <ele>122.8</ele>
        <time>2025-07-14T08:31:39Z</time>
      </trkpt>
      <trkpt lat="44.77646" lon="0.50368">
        <ele>122.6</ele>
        <time>2025-07-14T08:31:40Z</time>
      </trkpt>
      <trkpt lat="44.77645" lon="0.50362">
        <ele>122.6</ele>
        <time>2025-07-14T08:31:41Z</time>
      </trkpt>
      <trkpt lat="44.77643" lon="0.50356">
        <ele>122.6</ele>
        <time>2025-07-14T08:31:42Z</time>
      </trkpt>
      <trkpt lat="44.77642" lon="0.50349">
        <ele>122.6</ele>
        <time>2025-07-14T08:31:43Z</time>
      </trkpt>
      <trkpt lat="44.77641" lon="0.50343">
        <ele>122.6</ele>
        <time>2025-07-14T08:31:44Z</time>
      </trkpt>
      <trkpt lat="44.7764" lon="0.50336">
        <ele>122.8</ele>
        <time>2025-07-14T08:31:45Z</time>
      </trkpt>
      <trkpt lat="44.77638" lon="0.5033">
        <ele>122.8</ele>
        <time>2025-07-14T08:31:46Z</time>
      </trkpt>
      <trkpt lat="44.77636" lon="0.50324">
        <ele>122.8</ele>
        <time>2025-07-14T08:31:47Z</time>
      </trkpt>
      <trkpt lat="44.77635" lon="0.50317">
        <ele>122.8</ele>
        <time>2025-07-14T08:31:48Z</time>
      </trkpt>
      <trkpt lat="44.77634" lon="0.50312">
        <ele>122.8</ele>
        <time>2025-07-14T08:31:49Z</time>
      </trkpt>
      <trkpt lat="44.77633" lon="0.50305">
        <ele>122.8</ele>
        <time>2025-07-14T08:31:50Z</time>
      </trkpt>
      <trkpt lat="44.77632" lon="0.50299">
        <ele>123</ele>
        <time>2025-07-14T08:31:51Z</time>
      </trkpt>
      <trkpt lat="44.77631" lon="0.50293">
        <ele>123</ele>
        <time>2025-07-14T08:31:52Z</time>
      </trkpt>
      <trkpt lat="44.7763" lon="0.50287">
        <ele>123</ele>
        <time>2025-07-14T08:31:53Z</time>
      </trkpt>
      <trkpt lat="44.77629" lon="0.50282">
        <ele>123</ele>
        <time>2025-07-14T08:31:54Z</time>
      </trkpt>
      <trkpt lat="44.77628" lon="0.50276">
        <ele>123.2</ele>
        <time>2025-07-14T08:31:55Z</time>
      </trkpt>
      <trkpt lat="44.77627" lon="0.50271">
        <ele>123.2</ele>
        <time>2025-07-14T08:31:56Z</time>
      </trkpt>
      <trkpt lat="44.77625" lon="0.50265">
        <ele>123.4</ele>
        <time>2025-07-14T08:31:57Z</time>
      </trkpt>
      <trkpt lat="44.77623" lon="0.5026">
        <ele>123.4</ele>
        <time>2025-07-14T08:31:58Z</time>
      </trkpt>
      <trkpt lat="44.77621" lon="0.50256">
        <ele>123.6</ele>
        <time>2025-07-14T08:31:59Z</time>
      </trkpt>
      <trkpt lat="44.77619" lon="0.50252">
        <ele>123.8</ele>
        <time>2025-07-14T08:32:00Z</time>
      </trkpt>
      <trkpt lat="44.77619" lon="0.50248">
        <ele>123.8</ele>
        <time>2025-07-14T08:32:01Z</time>
      </trkpt>
      <trkpt lat="44.7762" lon="0.50244">
        <ele>124</ele>
        <time>2025-07-14T08:32:02Z</time>
      </trkpt>
      <trkpt lat="44.77623" lon="0.50241">
        <ele>124</ele>
        <time>2025-07-14T08:32:03Z</time>
      </trkpt>
      <trkpt lat="44.77626" lon="0.5024">
        <ele>124.2</ele>
        <time>2025-07-14T08:32:04Z</time>
      </trkpt>
      <trkpt lat="44.77629" lon="0.50239">
        <ele>124.2</ele>
        <time>2025-07-14T08:32:05Z</time>
      </trkpt>
      <trkpt lat="44.77633" lon="0.50239">
        <ele>124.2</ele>
        <time>2025-07-14T08:32:06Z</time>
      </trkpt>
      <trkpt lat="44.77637" lon="0.50239">
        <ele>124</ele>
        <time>2025-07-14T08:32:07Z</time>
      </trkpt>
      <trkpt lat="44.77641" lon="0.50239">
        <ele>123.8</ele>
        <time>2025-07-14T08:32:08Z</time>
      </trkpt>
      <trkpt lat="44.77646" lon="0.50239">
        <ele>123.4</ele>
        <time>2025-07-14T08:32:09Z</time>
      </trkpt>
      <trkpt lat="44.77653" lon="0.50237">
        <ele>123</ele>
        <time>2025-07-14T08:32:10Z</time>
      </trkpt>
      <trkpt lat="44.77659" lon="0.50236">
        <ele>122.8</ele>
        <time>2025-07-14T08:32:11Z</time>
      </trkpt>
      <trkpt lat="44.77667" lon="0.50236">
        <ele>122.4</ele>
        <time>2025-07-14T08:32:12Z</time>
      </trkpt>
      <trkpt lat="44.77674" lon="0.50235">
        <ele>121.8</ele>
        <time>2025-07-14T08:32:13Z</time>
      </trkpt>
      <trkpt lat="44.77682" lon="0.50234">
        <ele>121.2</ele>
        <time>2025-07-14T08:32:14Z</time>
      </trkpt>
      <trkpt lat="44.7769" lon="0.50232">
        <ele>120.4</ele>
        <time>2025-07-14T08:32:15Z</time>
      </trkpt>
      <trkpt lat="44.77698" lon="0.50232">
        <ele>119.8</ele>
        <time>2025-07-14T08:32:16Z</time>
      </trkpt>
      <trkpt lat="44.77706" lon="0.50232">
        <ele>118.8</ele>
        <time>2025-07-14T08:32:17Z</time>
      </trkpt>
      <trkpt lat="44.77712" lon="0.50232">
        <ele>118.2</ele>
        <time>2025-07-14T08:32:18Z</time>
      </trkpt>
      <trkpt lat="44.77717" lon="0.50228">
        <ele>117.2</ele>
        <time>2025-07-14T08:32:19Z</time>
      </trkpt>
      <trkpt lat="44.77721" lon="0.50225">
        <ele>116.8</ele>
        <time>2025-07-14T08:32:20Z</time>
      </trkpt>
      <trkpt lat="44.77723" lon="0.50225">
        <ele>116.2</ele>
        <time>2025-07-14T08:32:21Z</time>
      </trkpt>
      <trkpt lat="44.77725" lon="0.50226">
        <ele>115.8</ele>
        <time>2025-07-14T08:32:22Z</time>
      </trkpt>
      <trkpt lat="44.77727" lon="0.50227">
        <ele>115.6</ele>
        <time>2025-07-14T08:32:23Z</time>
      </trkpt>
      <trkpt lat="44.77728" lon="0.50229">
        <ele>115.4</ele>
        <time>2025-07-14T08:32:24Z</time>
      </trkpt>
      <trkpt lat="44.7773" lon="0.50232">
        <ele>115.4</ele>
        <time>2025-07-14T08:32:25Z</time>
      </trkpt>
      <trkpt lat="44.77732" lon="0.50235">
        <ele>115.2</ele>
        <time>2025-07-14T08:32:26Z</time>
      </trkpt>
      <trkpt lat="44.77734" lon="0.50238">
        <ele>115.2</ele>
        <time>2025-07-14T08:32:27Z</time>
      </trkpt>
      <trkpt lat="44.77736" lon="0.50242">
        <ele>115</ele>
        <time>2025-07-14T08:32:28Z</time>
      </trkpt>
      <trkpt lat="44.77737" lon="0.50244">
        <ele>115</ele>
        <time>2025-07-14T08:32:29Z</time>
      </trkpt>
      <trkpt lat="44.77739" lon="0.50248">
        <ele>115</ele>
        <time>2025-07-14T08:32:30Z</time>
      </trkpt>
      <trkpt lat="44.77741" lon="0.50252">
        <ele>115.2</ele>
        <time>2025-07-14T08:32:31Z</time>
      </trkpt>
      <trkpt lat="44.77742" lon="0.50255">
        <ele>115.2</ele>
        <time>2025-07-14T08:32:32Z</time>
      </trkpt>
      <trkpt lat="44.77744" lon="0.50258">
        <ele>115.4</ele>
        <time>2025-07-14T08:32:33Z</time>
      </trkpt>
      <trkpt lat="44.77746" lon="0.50262">
        <ele>115.6</ele>
        <time>2025-07-14T08:32:34Z</time>
      </trkpt>
      <trkpt lat="44.77747" lon="0.50265">
        <ele>115.8</ele>
        <time>2025-07-14T08:32:35Z</time>
      </trkpt>
      <trkpt lat="44.77749" lon="0.50269">
        <ele>116</ele>
        <time>2025-07-14T08:32:36Z</time>
      </trkpt>
      <trkpt lat="44.77751" lon="0.50273">
        <ele>116.2</ele>
        <time>2025-07-14T08:32:37Z</time>
      </trkpt>
      <trkpt lat="44.77753" lon="0.50277">
        <ele>116.4</ele>
        <time>2025-07-14T08:32:38Z</time>
      </trkpt>
      <trkpt lat="44.77754" lon="0.50281">
        <ele>116.4</ele>
        <time>2025-07-14T08:32:39Z</time>
      </trkpt>
      <trkpt lat="44.77756" lon="0.50286">
        <ele>116.4</ele>
        <time>2025-07-14T08:32:40Z</time>
      </trkpt>
      <trkpt lat="44.77757" lon="0.50291">
        <ele>116.4</ele>
        <time>2025-07-14T08:32:41Z</time>
      </trkpt>
      <trkpt lat="44.7776" lon="0.50297">
        <ele>116.4</ele>
        <time>2025-07-14T08:32:42Z</time>
      </trkpt>
      <trkpt lat="44.77762" lon="0.50302">
        <ele>116.4</ele>
        <time>2025-07-14T08:32:43Z</time>
      </trkpt>
      <trkpt lat="44.77763" lon="0.50308">
        <ele>116.4</ele>
        <time>2025-07-14T08:32:44Z</time>
      </trkpt>
      <trkpt lat="44.77766" lon="0.50314">
        <ele>116.4</ele>
        <time>2025-07-14T08:32:45Z</time>
      </trkpt>
      <trkpt lat="44.77767" lon="0.50319">
        <ele>116.2</ele>
        <time>2025-07-14T08:32:46Z</time>
      </trkpt>
      <trkpt lat="44.77769" lon="0.50324">
        <ele>116.2</ele>
        <time>2025-07-14T08:32:47Z</time>
      </trkpt>
      <trkpt lat="44.77773" lon="0.50329">
        <ele>116.2</ele>
        <time>2025-07-14T08:32:48Z</time>
      </trkpt>
      <trkpt lat="44.77776" lon="0.50332">
        <ele>116.2</ele>
        <time>2025-07-14T08:32:49Z</time>
      </trkpt>
      <trkpt lat="44.77779" lon="0.50336">
        <ele>116</ele>
        <time>2025-07-14T08:32:50Z</time>
      </trkpt>
      <trkpt lat="44.77781" lon="0.50341">
        <ele>116</ele>
        <time>2025-07-14T08:32:51Z</time>
      </trkpt>
      <trkpt lat="44.77783" lon="0.50347">
        <ele>115.8</ele>
        <time>2025-07-14T08:32:52Z</time>
      </trkpt>
      <trkpt lat="44.77784" lon="0.50351">
        <ele>115.8</ele>
        <time>2025-07-14T08:32:53Z</time>
      </trkpt>
      <trkpt lat="44.77785" lon="0.50356">
        <ele>115.8</ele>
        <time>2025-07-14T08:32:54Z</time>
      </trkpt>
      <trkpt lat="44.77787" lon="0.50361">
        <ele>115.8</ele>
        <time>2025-07-14T08:32:55Z</time>
      </trkpt>
      <trkpt lat="44.77789" lon="0.50365">
        <ele>115.8</ele>
        <time>2025-07-14T08:32:56Z</time>
      </trkpt>
      <trkpt lat="44.77791" lon="0.5037">
        <ele>116</ele>
        <time>2025-07-14T08:32:57Z</time>
      </trkpt>
      <trkpt lat="44.77793" lon="0.50375">
        <ele>116.2</ele>
        <time>2025-07-14T08:32:58Z</time>
      </trkpt>
      <trkpt lat="44.77796" lon="0.50379">
        <ele>116.2</ele>
        <time>2025-07-14T08:32:59Z</time>
      </trkpt>
      <trkpt lat="44.77799" lon="0.5038">
        <ele>116.2</ele>
        <time>2025-07-14T08:33:00Z</time>
      </trkpt>
      <trkpt lat="44.77801" lon="0.50379">
        <ele>116.2</ele>
        <time>2025-07-14T08:33:01Z</time>
      </trkpt>
      <trkpt lat="44.77804" lon="0.50377">
        <ele>116.2</ele>
        <time>2025-07-14T08:33:02Z</time>
      </trkpt>
      <trkpt lat="44.77806" lon="0.50375">
        <ele>116</ele>
        <time>2025-07-14T08:33:03Z</time>
      </trkpt>
      <trkpt lat="44.7781" lon="0.50373">
        <ele>115.8</ele>
        <time>2025-07-14T08:33:04Z</time>
      </trkpt>
      <trkpt lat="44.77813" lon="0.50371">
        <ele>115.8</ele>
        <time>2025-07-14T08:33:05Z</time>
      </trkpt>
      <trkpt lat="44.77816" lon="0.50369">
        <ele>115.6</ele>
        <time>2025-07-14T08:33:06Z</time>
      </trkpt>
      <trkpt lat="44.77819" lon="0.50367">
        <ele>115.6</ele>
        <time>2025-07-14T08:33:07Z</time>
      </trkpt>
      <trkpt lat="44.77821" lon="0.50366">
        <ele>115.6</ele>
        <time>2025-07-14T08:33:08Z</time>
      </trkpt>
      <trkpt lat="44.77824" lon="0.50364">
        <ele>115.8</ele>
        <time>2025-07-14T08:33:09Z</time>
      </trkpt>
      <trkpt lat="44.77827" lon="0.50363">
        <ele>115.8</ele>
        <time>2025-07-14T08:33:10Z</time>
      </trkpt>
      <trkpt lat="44.77829" lon="0.50361">
        <ele>116</ele>
        <time>2025-07-14T08:33:11Z</time>
      </trkpt>
      <trkpt lat="44.77831" lon="0.5036">
        <ele>116</ele>
        <time>2025-07-14T08:33:12Z</time>
      </trkpt>
      <trkpt lat="44.77834" lon="0.50358">
        <ele>116.2</ele>
        <time>2025-07-14T08:33:13Z</time>
      </trkpt>
      <trkpt lat="44.77837" lon="0.50357">
        <ele>116.2</ele>
        <time>2025-07-14T08:33:14Z</time>
      </trkpt>
      <trkpt lat="44.77839" lon="0.50355">
        <ele>116.4</ele>
        <time>2025-07-14T08:33:15Z</time>
      </trkpt>
      <trkpt lat="44.77841" lon="0.50353">
        <ele>116.4</ele>
        <time>2025-07-14T08:33:16Z</time>
      </trkpt>
      <trkpt lat="44.77844" lon="0.50351">
        <ele>116.6</ele>
        <time>2025-07-14T08:33:17Z</time>
      </trkpt>
      <trkpt lat="44.77847" lon="0.50349">
        <ele>116.6</ele>
        <time>2025-07-14T08:33:18Z</time>
      </trkpt>
      <trkpt lat="44.77848" lon="0.50348">
        <ele>116.8</ele>
        <time>2025-07-14T08:33:19Z</time>
      </trkpt>
      <trkpt lat="44.7785" lon="0.50346">
        <ele>117</ele>
        <time>2025-07-14T08:33:20Z</time>
      </trkpt>
      <trkpt lat="44.77852" lon="0.50345">
        <ele>117.2</ele>
        <time>2025-07-14T08:33:21Z</time>
      </trkpt>
      <trkpt lat="44.77854" lon="0.50344">
        <ele>117.4</ele>
        <time>2025-07-14T08:33:22Z</time>
      </trkpt>
      <trkpt lat="44.77856" lon="0.50342">
        <ele>117.6</ele>
        <time>2025-07-14T08:33:23Z</time>
      </trkpt>
      <trkpt lat="44.77857" lon="0.50341">
        <ele>117.8</ele>
        <time>2025-07-14T08:33:24Z</time>
      </trkpt>
      <trkpt lat="44.77859" lon="0.50339">
        <ele>118</ele>
        <time>2025-07-14T08:33:25Z</time>
      </trkpt>
      <trkpt lat="44.7786" lon="0.50337">
        <ele>118.2</ele>
        <time>2025-07-14T08:33:26Z</time>
      </trkpt>
      <trkpt lat="44.77861" lon="0.50336">
        <ele>118.4</ele>
        <time>2025-07-14T08:33:27Z</time>
      </trkpt>
      <trkpt lat="44.77862" lon="0.50334">
        <ele>118.6</ele>
        <time>2025-07-14T08:33:28Z</time>
      </trkpt>
      <trkpt lat="44.77864" lon="0.50332">
        <ele>118.8</ele>
        <time>2025-07-14T08:33:29Z</time>
      </trkpt>
      <trkpt lat="44.77865" lon="0.5033">
        <ele>119</ele>
        <time>2025-07-14T08:33:30Z</time>
      </trkpt>
      <trkpt lat="44.77866" lon="0.50329">
        <ele>119.2</ele>
        <time>2025-07-14T08:33:31Z</time>
      </trkpt>
      <trkpt lat="44.77868" lon="0.50327">
        <ele>119.4</ele>
        <time>2025-07-14T08:33:32Z</time>
      </trkpt>
      <trkpt lat="44.7787" lon="0.50325">
        <ele>119.6</ele>
        <time>2025-07-14T08:33:33Z</time>
      </trkpt>
      <trkpt lat="44.77871" lon="0.50323">
        <ele>119.6</ele>
        <time>2025-07-14T08:33:34Z</time>
      </trkpt>
      <trkpt lat="44.77873" lon="0.50321">
        <ele>119.8</ele>
        <time>2025-07-14T08:33:35Z</time>
      </trkpt>
      <trkpt lat="44.77875" lon="0.50318">
        <ele>120</ele>
        <time>2025-07-14T08:33:36Z</time>
      </trkpt>
      <trkpt lat="44.77876" lon="0.50317">
        <ele>120.2</ele>
        <time>2025-07-14T08:33:37Z</time>
      </trkpt>
      <trkpt lat="44.77878" lon="0.50314">
        <ele>120.4</ele>
        <time>2025-07-14T08:33:38Z</time>
      </trkpt>
      <trkpt lat="44.77881" lon="0.50312">
        <ele>120.4</ele>
        <time>2025-07-14T08:33:39Z</time>
      </trkpt>
      <trkpt lat="44.77882" lon="0.50311">
        <ele>120.6</ele>
        <time>2025-07-14T08:33:40Z</time>
      </trkpt>
      <trkpt lat="44.77885" lon="0.50308">
        <ele>120.8</ele>
        <time>2025-07-14T08:33:41Z</time>
      </trkpt>
      <trkpt lat="44.77886" lon="0.50307">
        <ele>120.8</ele>
        <time>2025-07-14T08:33:42Z</time>
      </trkpt>
      <trkpt lat="44.77888" lon="0.50305">
        <ele>121</ele>
        <time>2025-07-14T08:33:43Z</time>
      </trkpt>
      <trkpt lat="44.7789" lon="0.50304">
        <ele>121.2</ele>
        <time>2025-07-14T08:33:44Z</time>
      </trkpt>
      <trkpt lat="44.77893" lon="0.50304">
        <ele>121.4</ele>
        <time>2025-07-14T08:33:45Z</time>
      </trkpt>
      <trkpt lat="44.77895" lon="0.50305">
        <ele>121.4</ele>
        <time>2025-07-14T08:33:46Z</time>
      </trkpt>
      <trkpt lat="44.77897" lon="0.50307">
        <ele>121.6</ele>
        <time>2025-07-14T08:33:47Z</time>
      </trkpt>
      <trkpt lat="44.77899" lon="0.5031">
        <ele>121.6</ele>
        <time>2025-07-14T08:33:48Z</time>
      </trkpt>
      <trkpt lat="44.77901" lon="0.50314">
        <ele>121.6</ele>
        <time>2025-07-14T08:33:49Z</time>
      </trkpt>
      <trkpt lat="44.77902" lon="0.50317">
        <ele>121.6</ele>
        <time>2025-07-14T08:33:50Z</time>
      </trkpt>
      <trkpt lat="44.77904" lon="0.50321">
        <ele>121.6</ele>
        <time>2025-07-14T08:33:51Z</time>
      </trkpt>
      <trkpt lat="44.77907" lon="0.50324">
        <ele>121.4</ele>
        <time>2025-07-14T08:33:52Z</time>
      </trkpt>
      <trkpt lat="44.77911" lon="0.50326">
        <ele>121.4</ele>
        <time>2025-07-14T08:33:53Z</time>
      </trkpt>
      <trkpt lat="44.77914" lon="0.50328">
        <ele>121.4</ele>
        <time>2025-07-14T08:33:54Z</time>
      </trkpt>
      <trkpt lat="44.77918" lon="0.5033">
        <ele>121.4</ele>
        <time>2025-07-14T08:33:55Z</time>
      </trkpt>
      <trkpt lat="44.77921" lon="0.50334">
        <ele>121.6</ele>
        <time>2025-07-14T08:33:56Z</time>
      </trkpt>
      <trkpt lat="44.77924" lon="0.50337">
        <ele>121.6</ele>
        <time>2025-07-14T08:33:57Z</time>
      </trkpt>
      <trkpt lat="44.77927" lon="0.5034">
        <ele>121.8</ele>
        <time>2025-07-14T08:33:58Z</time>
      </trkpt>
      <trkpt lat="44.77929" lon="0.50343">
        <ele>122</ele>
        <time>2025-07-14T08:33:59Z</time>
      </trkpt>
      <trkpt lat="44.77932" lon="0.50346">
        <ele>122</ele>
        <time>2025-07-14T08:34:00Z</time>
      </trkpt>
      <trkpt lat="44.77934" lon="0.50348">
        <ele>122.2</ele>
        <time>2025-07-14T08:34:01Z</time>
      </trkpt>
      <trkpt lat="44.77937" lon="0.50351">
        <ele>122.4</ele>
        <time>2025-07-14T08:34:02Z</time>
      </trkpt>
      <trkpt lat="44.77939" lon="0.50354">
        <ele>122.6</ele>
        <time>2025-07-14T08:34:03Z</time>
      </trkpt>
      <trkpt lat="44.77942" lon="0.50356">
        <ele>122.6</ele>
        <time>2025-07-14T08:34:04Z</time>
      </trkpt>
      <trkpt lat="44.77945" lon="0.50359">
        <ele>122.8</ele>
        <time>2025-07-14T08:34:05Z</time>
      </trkpt>
      <trkpt lat="44.77947" lon="0.50362">
        <ele>122.8</ele>
        <time>2025-07-14T08:34:06Z</time>
      </trkpt>
      <trkpt lat="44.7795" lon="0.50365">
        <ele>123</ele>
        <time>2025-07-14T08:34:07Z</time>
      </trkpt>
      <trkpt lat="44.77952" lon="0.50368">
        <ele>123</ele>
        <time>2025-07-14T08:34:08Z</time>
      </trkpt>
      <trkpt lat="44.77954" lon="0.50371">
        <ele>123.2</ele>
        <time>2025-07-14T08:34:09Z</time>
      </trkpt>
      <trkpt lat="44.77957" lon="0.50373">
        <ele>123.2</ele>
        <time>2025-07-14T08:34:10Z</time>
      </trkpt>
      <trkpt lat="44.77959" lon="0.50375">
        <ele>123.4</ele>
        <time>2025-07-14T08:34:11Z</time>
      </trkpt>
      <trkpt lat="44.77961" lon="0.50377">
        <ele>123.4</ele>
        <time>2025-07-14T08:34:12Z</time>
      </trkpt>
      <trkpt lat="44.77964" lon="0.50378">
        <ele>123.6</ele>
        <time>2025-07-14T08:34:13Z</time>
      </trkpt>
      <trkpt lat="44.77967" lon="0.50377">
        <ele>123.6</ele>
        <time>2025-07-14T08:34:14Z</time>
      </trkpt>
      <trkpt lat="44.77969" lon="0.50377">
        <ele>123.8</ele>
        <time>2025-07-14T08:34:15Z</time>
      </trkpt>
      <trkpt lat="44.77972" lon="0.50376">
        <ele>124.2</ele>
        <time>2025-07-14T08:34:16Z</time>
      </trkpt>
      <trkpt lat="44.77974" lon="0.50375">
        <ele>124.2</ele>
        <time>2025-07-14T08:34:17Z</time>
      </trkpt>
      <trkpt lat="44.77977" lon="0.50373">
        <ele>124.6</ele>
        <time>2025-07-14T08:34:18Z</time>
      </trkpt>
      <trkpt lat="44.77979" lon="0.50371">
        <ele>124.6</ele>
        <time>2025-07-14T08:34:19Z</time>
      </trkpt>
      <trkpt lat="44.77982" lon="0.50369">
        <ele>124.8</ele>
        <time>2025-07-14T08:34:20Z</time>
      </trkpt>
      <trkpt lat="44.77984" lon="0.50368">
        <ele>125</ele>
        <time>2025-07-14T08:34:21Z</time>
      </trkpt>
      <trkpt lat="44.77986" lon="0.50367">
        <ele>125.2</ele>
        <time>2025-07-14T08:34:22Z</time>
      </trkpt>
      <trkpt lat="44.77988" lon="0.50365">
        <ele>125.4</ele>
        <time>2025-07-14T08:34:23Z</time>
      </trkpt>
      <trkpt lat="44.7799" lon="0.50364">
        <ele>125.4</ele>
        <time>2025-07-14T08:34:24Z</time>
      </trkpt>
      <trkpt lat="44.77992" lon="0.50362">
        <ele>125.6</ele>
        <time>2025-07-14T08:34:25Z</time>
      </trkpt>
      <trkpt lat="44.77994" lon="0.5036">
        <ele>125.8</ele>
        <time>2025-07-14T08:34:26Z</time>
      </trkpt>
      <trkpt lat="44.77996" lon="0.50358">
        <ele>126</ele>
        <time>2025-07-14T08:34:27Z</time>
      </trkpt>
      <trkpt lat="44.77999" lon="0.50356">
        <ele>126.2</ele>
        <time>2025-07-14T08:34:28Z</time>
      </trkpt>
      <trkpt lat="44.78001" lon="0.50355">
        <ele>126.4</ele>
        <time>2025-07-14T08:34:29Z</time>
      </trkpt>
      <trkpt lat="44.78003" lon="0.50353">
        <ele>126.6</ele>
        <time>2025-07-14T08:34:30Z</time>
      </trkpt>
      <trkpt lat="44.78006" lon="0.50351">
        <ele>126.8</ele>
        <time>2025-07-14T08:34:31Z</time>
      </trkpt>
      <trkpt lat="44.78008" lon="0.5035">
        <ele>127</ele>
        <time>2025-07-14T08:34:32Z</time>
      </trkpt>
      <trkpt lat="44.78009" lon="0.50348">
        <ele>127.2</ele>
        <time>2025-07-14T08:34:33Z</time>
      </trkpt>
      <trkpt lat="44.78011" lon="0.50345">
        <ele>127.2</ele>
        <time>2025-07-14T08:34:34Z</time>
      </trkpt>
      <trkpt lat="44.78013" lon="0.50343">
        <ele>127.4</ele>
        <time>2025-07-14T08:34:35Z</time>
      </trkpt>
      <trkpt lat="44.78015" lon="0.50341">
        <ele>127.4</ele>
        <time>2025-07-14T08:34:36Z</time>
      </trkpt>
      <trkpt lat="44.78017" lon="0.50339">
        <ele>127.6</ele>
        <time>2025-07-14T08:34:37Z</time>
      </trkpt>
      <trkpt lat="44.78019" lon="0.50338">
        <ele>127.8</ele>
        <time>2025-07-14T08:34:38Z</time>
      </trkpt>
      <trkpt lat="44.78021" lon="0.50337">
        <ele>128</ele>
        <time>2025-07-14T08:34:39Z</time>
      </trkpt>
      <trkpt lat="44.78022" lon="0.50335">
        <ele>128.2</ele>
        <time>2025-07-14T08:34:40Z</time>
      </trkpt>
      <trkpt lat="44.78024" lon="0.50334">
        <ele>128.4</ele>
        <time>2025-07-14T08:34:41Z</time>
      </trkpt>
      <trkpt lat="44.78026" lon="0.50333">
        <ele>128.6</ele>
        <time>2025-07-14T08:34:42Z</time>
      </trkpt>
      <trkpt lat="44.78028" lon="0.50332">
        <ele>128.8</ele>
        <time>2025-07-14T08:34:43Z</time>
      </trkpt>
      <trkpt lat="44.7803" lon="0.50331">
        <ele>129</ele>
        <time>2025-07-14T08:34:44Z</time>
      </trkpt>
      <trkpt lat="44.78032" lon="0.5033">
        <ele>129.2</ele>
        <time>2025-07-14T08:34:45Z</time>
      </trkpt>
      <trkpt lat="44.78033" lon="0.5033">
        <ele>129.4</ele>
        <time>2025-07-14T08:34:46Z</time>
      </trkpt>
      <trkpt lat="44.78036" lon="0.50329">
        <ele>129.6</ele>
        <time>2025-07-14T08:34:47Z</time>
      </trkpt>
      <trkpt lat="44.78038" lon="0.50329">
        <ele>129.6</ele>
        <time>2025-07-14T08:34:48Z</time>
      </trkpt>
      <trkpt lat="44.7804" lon="0.5033">
        <ele>129.8</ele>
        <time>2025-07-14T08:34:49Z</time>
      </trkpt>
      <trkpt lat="44.78042" lon="0.50331">
        <ele>130.2</ele>
        <time>2025-07-14T08:34:50Z</time>
      </trkpt>
      <trkpt lat="44.78044" lon="0.50332">
        <ele>130.2</ele>
        <time>2025-07-14T08:34:51Z</time>
      </trkpt>
      <trkpt lat="44.78046" lon="0.50334">
        <ele>130.4</ele>
        <time>2025-07-14T08:34:52Z</time>
      </trkpt>
      <trkpt lat="44.78049" lon="0.50335">
        <ele>130.6</ele>
        <time>2025-07-14T08:34:53Z</time>
      </trkpt>
      <trkpt lat="44.78051" lon="0.50337">
        <ele>130.8</ele>
        <time>2025-07-14T08:34:54Z</time>
      </trkpt>
      <trkpt lat="44.78053" lon="0.50339">
        <ele>130.8</ele>
        <time>2025-07-14T08:34:55Z</time>
      </trkpt>
      <trkpt lat="44.78055" lon="0.50341">
        <ele>131</ele>
        <time>2025-07-14T08:34:56Z</time>
      </trkpt>
      <trkpt lat="44.78057" lon="0.50343">
        <ele>131</ele>
        <time>2025-07-14T08:34:57Z</time>
      </trkpt>
      <trkpt lat="44.78059" lon="0.50345">
        <ele>131.2</ele>
        <time>2025-07-14T08:34:58Z</time>
      </trkpt>
      <trkpt lat="44.78061" lon="0.50346">
        <ele>131.2</ele>
        <time>2025-07-14T08:34:59Z</time>
      </trkpt>
      <trkpt lat="44.78063" lon="0.50348">
        <ele>131.4</ele>
        <time>2025-07-14T08:35:00Z</time>
      </trkpt>
      <trkpt lat="44.78065" lon="0.5035">
        <ele>131.4</ele>
        <time>2025-07-14T08:35:01Z</time>
      </trkpt>
      <trkpt lat="44.78067" lon="0.50351">
        <ele>131.6</ele>
        <time>2025-07-14T08:35:02Z</time>
      </trkpt>
      <trkpt lat="44.78069" lon="0.50353">
        <ele>131.8</ele>
        <time>2025-07-14T08:35:03Z</time>
      </trkpt>
      <trkpt lat="44.78071" lon="0.50354">
        <ele>131.8</ele>
        <time>2025-07-14T08:35:04Z</time>
      </trkpt>
      <trkpt lat="44.78074" lon="0.50355">
        <ele>131.8</ele>
        <time>2025-07-14T08:35:05Z</time>
      </trkpt>
      <trkpt lat="44.78076" lon="0.50357">
        <ele>132</ele>
        <time>2025-07-14T08:35:06Z</time>
      </trkpt>
      <trkpt lat="44.78078" lon="0.50358">
        <ele>132.2</ele>
        <time>2025-07-14T08:35:07Z</time>
      </trkpt>
      <trkpt lat="44.7808" lon="0.50359">
        <ele>132.2</ele>
        <time>2025-07-14T08:35:08Z</time>
      </trkpt>
      <trkpt lat="44.78083" lon="0.50361">
        <ele>132.2</ele>
        <time>2025-07-14T08:35:09Z</time>
      </trkpt>
      <trkpt lat="44.78086" lon="0.50362">
        <ele>132.4</ele>
        <time>2025-07-14T08:35:10Z</time>
      </trkpt>
      <trkpt lat="44.78088" lon="0.50364">
        <ele>132.4</ele>
        <time>2025-07-14T08:35:11Z</time>
      </trkpt>
      <trkpt lat="44.78091" lon="0.50365">
        <ele>132.6</ele>
        <time>2025-07-14T08:35:12Z</time>
      </trkpt>
      <trkpt lat="44.78093" lon="0.50366">
        <ele>132.8</ele>
        <time>2025-07-14T08:35:13Z</time>
      </trkpt>
      <trkpt lat="44.78096" lon="0.50368">
        <ele>132.8</ele>
        <time>2025-07-14T08:35:14Z</time>
      </trkpt>
      <trkpt lat="44.78099" lon="0.5037">
        <ele>132.8</ele>
        <time>2025-07-14T08:35:15Z</time>
      </trkpt>
      <trkpt lat="44.78101" lon="0.50372">
        <ele>133</ele>
        <time>2025-07-14T08:35:16Z</time>
      </trkpt>
      <trkpt lat="44.78104" lon="0.50374">
        <ele>133</ele>
        <time>2025-07-14T08:35:17Z</time>
      </trkpt>
      <trkpt lat="44.78107" lon="0.50377">
        <ele>133</ele>
        <time>2025-07-14T08:35:18Z</time>
      </trkpt>
      <trkpt lat="44.7811" lon="0.50378">
        <ele>133.2</ele>
        <time>2025-07-14T08:35:19Z</time>
      </trkpt>
      <trkpt lat="44.78113" lon="0.50379">
        <ele>133.2</ele>
        <time>2025-07-14T08:35:20Z</time>
      </trkpt>
      <trkpt lat="44.78115" lon="0.5038">
        <ele>133.2</ele>
        <time>2025-07-14T08:35:21Z</time>
      </trkpt>
      <trkpt lat="44.78118" lon="0.5038">
        <ele>133.2</ele>
        <time>2025-07-14T08:35:22Z</time>
      </trkpt>
      <trkpt lat="44.78122" lon="0.50381">
        <ele>133.4</ele>
        <time>2025-07-14T08:35:23Z</time>
      </trkpt>
      <trkpt lat="44.78125" lon="0.50382">
        <ele>133.4</ele>
        <time>2025-07-14T08:35:24Z</time>
      </trkpt>
      <trkpt lat="44.78128" lon="0.50383">
        <ele>133.4</ele>
        <time>2025-07-14T08:35:25Z</time>
      </trkpt>
      <trkpt lat="44.78131" lon="0.50382">
        <ele>133.6</ele>
        <time>2025-07-14T08:35:26Z</time>
      </trkpt>
      <trkpt lat="44.78134" lon="0.50382">
        <ele>133.6</ele>
        <time>2025-07-14T08:35:27Z</time>
      </trkpt>
      <trkpt lat="44.78137" lon="0.50383">
        <ele>133.6</ele>
        <time>2025-07-14T08:35:28Z</time>
      </trkpt>
      <trkpt lat="44.7814" lon="0.50383">
        <ele>133.6</ele>
        <time>2025-07-14T08:35:29Z</time>
      </trkpt>
      <trkpt lat="44.78144" lon="0.50383">
        <ele>133.8</ele>
        <time>2025-07-14T08:35:30Z</time>
      </trkpt>
      <trkpt lat="44.78147" lon="0.50383">
        <ele>133.8</ele>
        <time>2025-07-14T08:35:31Z</time>
      </trkpt>
      <trkpt lat="44.78151" lon="0.50384">
        <ele>133.8</ele>
        <time>2025-07-14T08:35:32Z</time>
      </trkpt>
      <trkpt lat="44.78154" lon="0.50385">
        <ele>133.8</ele>
        <time>2025-07-14T08:35:33Z</time>
      </trkpt>
      <trkpt lat="44.78158" lon="0.50385">
        <ele>133.8</ele>
        <time>2025-07-14T08:35:34Z</time>
      </trkpt>
      <trkpt lat="44.78162" lon="0.50386">
        <ele>134</ele>
        <time>2025-07-14T08:35:35Z</time>
      </trkpt>
      <trkpt lat="44.78165" lon="0.50386">
        <ele>134</ele>
        <time>2025-07-14T08:35:36Z</time>
      </trkpt>
      <trkpt lat="44.78169" lon="0.50387">
        <ele>134</ele>
        <time>2025-07-14T08:35:37Z</time>
      </trkpt>
      <trkpt lat="44.78173" lon="0.50387">
        <ele>134.2</ele>
        <time>2025-07-14T08:35:38Z</time>
      </trkpt>
      <trkpt lat="44.78176" lon="0.50388">
        <ele>134.2</ele>
        <time>2025-07-14T08:35:39Z</time>
      </trkpt>
      <trkpt lat="44.7818" lon="0.50389">
        <ele>134.4</ele>
        <time>2025-07-14T08:35:40Z</time>
      </trkpt>
      <trkpt lat="44.78183" lon="0.50389">
        <ele>134.4</ele>
        <time>2025-07-14T08:35:41Z</time>
      </trkpt>
      <trkpt lat="44.78187" lon="0.5039">
        <ele>134.6</ele>
        <time>2025-07-14T08:35:42Z</time>
      </trkpt>
      <trkpt lat="44.78191" lon="0.5039">
        <ele>134.6</ele>
        <time>2025-07-14T08:35:43Z</time>
      </trkpt>
      <trkpt lat="44.78195" lon="0.50389">
        <ele>134.6</ele>
        <time>2025-07-14T08:35:44Z</time>
      </trkpt>
      <trkpt lat="44.78198" lon="0.50389">
        <ele>134.6</ele>
        <time>2025-07-14T08:35:45Z</time>
      </trkpt>
      <trkpt lat="44.78202" lon="0.50389">
        <ele>134.6</ele>
        <time>2025-07-14T08:35:46Z</time>
      </trkpt>
      <trkpt lat="44.78205" lon="0.50389">
        <ele>134.6</ele>
        <time>2025-07-14T08:35:47Z</time>
      </trkpt>
      <trkpt lat="44.78209" lon="0.50388">
        <ele>134.6</ele>
        <time>2025-07-14T08:35:48Z</time>
      </trkpt>
      <trkpt lat="44.78213" lon="0.50387">
        <ele>134.6</ele>
        <time>2025-07-14T08:35:49Z</time>
      </trkpt>
      <trkpt lat="44.78216" lon="0.50387">
        <ele>134.8</ele>
        <time>2025-07-14T08:35:50Z</time>
      </trkpt>
      <trkpt lat="44.78219" lon="0.50386">
        <ele>134.8</ele>
        <time>2025-07-14T08:35:51Z</time>
      </trkpt>
      <trkpt lat="44.78222" lon="0.50385">
        <ele>134.8</ele>
        <time>2025-07-14T08:35:52Z</time>
      </trkpt>
      <trkpt lat="44.78225" lon="0.50384">
        <ele>135</ele>
        <time>2025-07-14T08:35:53Z</time>
      </trkpt>
      <trkpt lat="44.78227" lon="0.50383">
        <ele>135</ele>
        <time>2025-07-14T08:35:54Z</time>
      </trkpt>
      <trkpt lat="44.7823" lon="0.50382">
        <ele>135.2</ele>
        <time>2025-07-14T08:35:55Z</time>
      </trkpt>
      <trkpt lat="44.78233" lon="0.50381">
        <ele>135.4</ele>
        <time>2025-07-14T08:35:56Z</time>
      </trkpt>
      <trkpt lat="44.78236" lon="0.50379">
        <ele>135.6</ele>
        <time>2025-07-14T08:35:57Z</time>
      </trkpt>
      <trkpt lat="44.78239" lon="0.50378">
        <ele>135.8</ele>
        <time>2025-07-14T08:35:58Z</time>
      </trkpt>
      <trkpt lat="44.78242" lon="0.50377">
        <ele>135.8</ele>
        <time>2025-07-14T08:35:59Z</time>
      </trkpt>
      <trkpt lat="44.78245" lon="0.50375">
        <ele>136</ele>
        <time>2025-07-14T08:36:00Z</time>
      </trkpt>
      <trkpt lat="44.78248" lon="0.50374">
        <ele>136</ele>
        <time>2025-07-14T08:36:01Z</time>
      </trkpt>
      <trkpt lat="44.7825" lon="0.50373">
        <ele>136.2</ele>
        <time>2025-07-14T08:36:02Z</time>
      </trkpt>
      <trkpt lat="44.78253" lon="0.50372">
        <ele>136.4</ele>
        <time>2025-07-14T08:36:03Z</time>
      </trkpt>
      <trkpt lat="44.78255" lon="0.50371">
        <ele>136.6</ele>
        <time>2025-07-14T08:36:04Z</time>
      </trkpt>
      <trkpt lat="44.78258" lon="0.5037">
        <ele>136.8</ele>
        <time>2025-07-14T08:36:05Z</time>
      </trkpt>
      <trkpt lat="44.78261" lon="0.50368">
        <ele>136.8</ele>
        <time>2025-07-14T08:36:06Z</time>
      </trkpt>
      <trkpt lat="44.78263" lon="0.50367">
        <ele>137</ele>
        <time>2025-07-14T08:36:07Z</time>
      </trkpt>
      <trkpt lat="44.78266" lon="0.50366">
        <ele>137.2</ele>
        <time>2025-07-14T08:36:08Z</time>
      </trkpt>
      <trkpt lat="44.78268" lon="0.50365">
        <ele>137.2</ele>
        <time>2025-07-14T08:36:09Z</time>
      </trkpt>
      <trkpt lat="44.78271" lon="0.50364">
        <ele>137.4</ele>
        <time>2025-07-14T08:36:10Z</time>
      </trkpt>
      <trkpt lat="44.78273" lon="0.50364">
        <ele>137.4</ele>
        <time>2025-07-14T08:36:11Z</time>
      </trkpt>
      <trkpt lat="44.78276" lon="0.50363">
        <ele>137.6</ele>
        <time>2025-07-14T08:36:12Z</time>
      </trkpt>
      <trkpt lat="44.78278" lon="0.50362">
        <ele>137.6</ele>
        <time>2025-07-14T08:36:13Z</time>
      </trkpt>
      <trkpt lat="44.78282" lon="0.50361">
        <ele>137.6</ele>
        <time>2025-07-14T08:36:14Z</time>
      </trkpt>
      <trkpt lat="44.78284" lon="0.50359">
        <ele>137.6</ele>
        <time>2025-07-14T08:36:15Z</time>
      </trkpt>
      <trkpt lat="44.78286" lon="0.50359">
        <ele>137.6</ele>
        <time>2025-07-14T08:36:16Z</time>
      </trkpt>
      <trkpt lat="44.78288" lon="0.50357">
        <ele>137.6</ele>
        <time>2025-07-14T08:36:17Z</time>
      </trkpt>
      <trkpt lat="44.78291" lon="0.50357">
        <ele>137.6</ele>
        <time>2025-07-14T08:36:18Z</time>
      </trkpt>
      <trkpt lat="44.78292" lon="0.50356">
        <ele>137.6</ele>
        <time>2025-07-14T08:36:19Z</time>
      </trkpt>
      <trkpt lat="44.78294" lon="0.50355">
        <ele>137.8</ele>
        <time>2025-07-14T08:36:20Z</time>
      </trkpt>
      <trkpt lat="44.78297" lon="0.50353">
        <ele>137.8</ele>
        <time>2025-07-14T08:36:21Z</time>
      </trkpt>
      <trkpt lat="44.78299" lon="0.50352">
        <ele>137.8</ele>
        <time>2025-07-14T08:36:22Z</time>
      </trkpt>
      <trkpt lat="44.78302" lon="0.50351">
        <ele>137.8</ele>
        <time>2025-07-14T08:36:23Z</time>
      </trkpt>
      <trkpt lat="44.78304" lon="0.50349">
        <ele>138</ele>
        <time>2025-07-14T08:36:24Z</time>
      </trkpt>
      <trkpt lat="44.78306" lon="0.50348">
        <ele>138</ele>
        <time>2025-07-14T08:36:25Z</time>
      </trkpt>
      <trkpt lat="44.78309" lon="0.50346">
        <ele>138</ele>
        <time>2025-07-14T08:36:26Z</time>
      </trkpt>
      <trkpt lat="44.78311" lon="0.50345">
        <ele>138.2</ele>
        <time>2025-07-14T08:36:27Z</time>
      </trkpt>
      <trkpt lat="44.78313" lon="0.50344">
        <ele>138.2</ele>
        <time>2025-07-14T08:36:28Z</time>
      </trkpt>
      <trkpt lat="44.78315" lon="0.50343">
        <ele>138.4</ele>
        <time>2025-07-14T08:36:29Z</time>
      </trkpt>
      <trkpt lat="44.78317" lon="0.50342">
        <ele>138.6</ele>
        <time>2025-07-14T08:36:30Z</time>
      </trkpt>
      <trkpt lat="44.78319" lon="0.50341">
        <ele>138.8</ele>
        <time>2025-07-14T08:36:31Z</time>
      </trkpt>
      <trkpt lat="44.78321" lon="0.5034">
        <ele>139</ele>
        <time>2025-07-14T08:36:32Z</time>
      </trkpt>
      <trkpt lat="44.78323" lon="0.50339">
        <ele>139</ele>
        <time>2025-07-14T08:36:33Z</time>
      </trkpt>
      <trkpt lat="44.78325" lon="0.50338">
        <ele>139.2</ele>
        <time>2025-07-14T08:36:34Z</time>
      </trkpt>
      <trkpt lat="44.78327" lon="0.50337">
        <ele>139.4</ele>
        <time>2025-07-14T08:36:35Z</time>
      </trkpt>
      <trkpt lat="44.78329" lon="0.50336">
        <ele>139.4</ele>
        <time>2025-07-14T08:36:36Z</time>
      </trkpt>
      <trkpt lat="44.78331" lon="0.50335">
        <ele>139.4</ele>
        <time>2025-07-14T08:36:37Z</time>
      </trkpt>
      <trkpt lat="44.78333" lon="0.50334">
        <ele>139.6</ele>
        <time>2025-07-14T08:36:38Z</time>
      </trkpt>
      <trkpt lat="44.78335" lon="0.50332">
        <ele>139.6</ele>
        <time>2025-07-14T08:36:39Z</time>
      </trkpt>
      <trkpt lat="44.78337" lon="0.50331">
        <ele>139.8</ele>
        <time>2025-07-14T08:36:40Z</time>
      </trkpt>
      <trkpt lat="44.78338" lon="0.50331">
        <ele>139.8</ele>
        <time>2025-07-14T08:36:41Z</time>
      </trkpt>
      <trkpt lat="44.7834" lon="0.5033">
        <ele>140</ele>
        <time>2025-07-14T08:36:42Z</time>
      </trkpt>
      <trkpt lat="44.78342" lon="0.5033">
        <ele>140.2</ele>
        <time>2025-07-14T08:36:43Z</time>
      </trkpt>
      <trkpt lat="44.78344" lon="0.50329">
        <ele>140.2</ele>
        <time>2025-07-14T08:36:44Z</time>
      </trkpt>
      <trkpt lat="44.78346" lon="0.50329">
        <ele>140.4</ele>
        <time>2025-07-14T08:36:45Z</time>
      </trkpt>
      <trkpt lat="44.78347" lon="0.50329">
        <ele>140.4</ele>
        <time>2025-07-14T08:36:46Z</time>
      </trkpt>
      <trkpt lat="44.78349" lon="0.50327">
        <ele>140.6</ele>
        <time>2025-07-14T08:36:47Z</time>
      </trkpt>
      <trkpt lat="44.78351" lon="0.50326">
        <ele>140.8</ele>
        <time>2025-07-14T08:36:48Z</time>
      </trkpt>
      <trkpt lat="44.78353" lon="0.50325">
        <ele>140.8</ele>
        <time>2025-07-14T08:36:49Z</time>
      </trkpt>
      <trkpt lat="44.78354" lon="0.50323">
        <ele>141</ele>
        <time>2025-07-14T08:36:50Z</time>
      </trkpt>
      <trkpt lat="44.78356" lon="0.50322">
        <ele>141.2</ele>
        <time>2025-07-14T08:36:51Z</time>
      </trkpt>
      <trkpt lat="44.78358" lon="0.50321">
        <ele>141.4</ele>
        <time>2025-07-14T08:36:52Z</time>
      </trkpt>
      <trkpt lat="44.7836" lon="0.5032">
        <ele>141.4</ele>
        <time>2025-07-14T08:36:53Z</time>
      </trkpt>
      <trkpt lat="44.78361" lon="0.50319">
        <ele>141.6</ele>
        <time>2025-07-14T08:36:54Z</time>
      </trkpt>
      <trkpt lat="44.78363" lon="0.50318">
        <ele>141.8</ele>
        <time>2025-07-14T08:36:55Z</time>
      </trkpt>
      <trkpt lat="44.78365" lon="0.50317">
        <ele>142</ele>
        <time>2025-07-14T08:36:56Z</time>
      </trkpt>
      <trkpt lat="44.78367" lon="0.50316">
        <ele>142.2</ele>
        <time>2025-07-14T08:36:57Z</time>
      </trkpt>
      <trkpt lat="44.78368" lon="0.50315">
        <ele>142.4</ele>
        <time>2025-07-14T08:36:58Z</time>
      </trkpt>
      <trkpt lat="44.7837" lon="0.50314">
        <ele>142.4</ele>
        <time>2025-07-14T08:36:59Z</time>
      </trkpt>
      <trkpt lat="44.78371" lon="0.50314">
        <ele>142.6</ele>
        <time>2025-07-14T08:37:00Z</time>
      </trkpt>
      <trkpt lat="44.78373" lon="0.50313">
        <ele>142.8</ele>
        <time>2025-07-14T08:37:01Z</time>
      </trkpt>
      <trkpt lat="44.78374" lon="0.50312">
        <ele>143</ele>
        <time>2025-07-14T08:37:02Z</time>
      </trkpt>
      <trkpt lat="44.78375" lon="0.5031">
        <ele>143</ele>
        <time>2025-07-14T08:37:03Z</time>
      </trkpt>
      <trkpt lat="44.78376" lon="0.50309">
        <ele>143.2</ele>
        <time>2025-07-14T08:37:04Z</time>
      </trkpt>
      <trkpt lat="44.78377" lon="0.50308">
        <ele>143.4</ele>
        <time>2025-07-14T08:37:05Z</time>
      </trkpt>
      <trkpt lat="44.78378" lon="0.50307">
        <ele>143.6</ele>
        <time>2025-07-14T08:37:06Z</time>
      </trkpt>
      <trkpt lat="44.7838" lon="0.50306">
        <ele>143.8</ele>
        <time>2025-07-14T08:37:07Z</time>
      </trkpt>
      <trkpt lat="44.78381" lon="0.50305">
        <ele>144</ele>
        <time>2025-07-14T08:37:08Z</time>
      </trkpt>
      <trkpt lat="44.78382" lon="0.50303">
        <ele>144.2</ele>
        <time>2025-07-14T08:37:09Z</time>
      </trkpt>
      <trkpt lat="44.78383" lon="0.50302">
        <ele>144.4</ele>
        <time>2025-07-14T08:37:10Z</time>
      </trkpt>
      <trkpt lat="44.78384" lon="0.503">
        <ele>144.6</ele>
        <time>2025-07-14T08:37:11Z</time>
      </trkpt>
      <trkpt lat="44.78386" lon="0.503">
        <ele>144.8</ele>
        <time>2025-07-14T08:37:12Z</time>
      </trkpt>
      <trkpt lat="44.78387" lon="0.50299">
        <ele>145</ele>
        <time>2025-07-14T08:37:13Z</time>
      </trkpt>
      <trkpt lat="44.78388" lon="0.50298">
        <ele>145.2</ele>
        <time>2025-07-14T08:37:14Z</time>
      </trkpt>
      <trkpt lat="44.78389" lon="0.50297">
        <ele>145.4</ele>
        <time>2025-07-14T08:37:15Z</time>
      </trkpt>
      <trkpt lat="44.78391" lon="0.50296">
        <ele>145.6</ele>
        <time>2025-07-14T08:37:16Z</time>
      </trkpt>
      <trkpt lat="44.78392" lon="0.50295">
        <ele>145.8</ele>
        <time>2025-07-14T08:37:17Z</time>
      </trkpt>
      <trkpt lat="44.78393" lon="0.50294">
        <ele>146</ele>
        <time>2025-07-14T08:37:18Z</time>
      </trkpt>
      <trkpt lat="44.78395" lon="0.50293">
        <ele>146.2</ele>
        <time>2025-07-14T08:37:19Z</time>
      </trkpt>
      <trkpt lat="44.78396" lon="0.50292">
        <ele>146.4</ele>
        <time>2025-07-14T08:37:20Z</time>
      </trkpt>
      <trkpt lat="44.78397" lon="0.50291">
        <ele>146.8</ele>
        <time>2025-07-14T08:37:21Z</time>
      </trkpt>
      <trkpt lat="44.78399" lon="0.50289">
        <ele>147</ele>
        <time>2025-07-14T08:37:22Z</time>
      </trkpt>
      <trkpt lat="44.784" lon="0.50288">
        <ele>147.2</ele>
        <time>2025-07-14T08:37:23Z</time>
      </trkpt>
      <trkpt lat="44.78401" lon="0.50287">
        <ele>147.4</ele>
        <time>2025-07-14T08:37:24Z</time>
      </trkpt>
      <trkpt lat="44.78402" lon="0.50285">
        <ele>147.6</ele>
        <time>2025-07-14T08:37:25Z</time>
      </trkpt>
      <trkpt lat="44.78403" lon="0.50284">
        <ele>147.8</ele>
        <time>2025-07-14T08:37:26Z</time>
      </trkpt>
      <trkpt lat="44.78404" lon="0.50283">
        <ele>148</ele>
        <time>2025-07-14T08:37:27Z</time>
      </trkpt>
      <trkpt lat="44.78405" lon="0.50282">
        <ele>148.4</ele>
        <time>2025-07-14T08:37:28Z</time>
      </trkpt>
      <trkpt lat="44.78406" lon="0.50281">
        <ele>148.6</ele>
        <time>2025-07-14T08:37:29Z</time>
      </trkpt>
      <trkpt lat="44.78407" lon="0.5028">
        <ele>148.8</ele>
        <time>2025-07-14T08:37:30Z</time>
      </trkpt>
      <trkpt lat="44.78408" lon="0.50279">
        <ele>149</ele>
        <time>2025-07-14T08:37:31Z</time>
      </trkpt>
      <trkpt lat="44.78409" lon="0.50278">
        <ele>149.4</ele>
        <time>2025-07-14T08:37:32Z</time>
      </trkpt>
      <trkpt lat="44.7841" lon="0.50277">
        <ele>149.6</ele>
        <time>2025-07-14T08:37:33Z</time>
      </trkpt>
      <trkpt lat="44.78411" lon="0.50276">
        <ele>149.8</ele>
        <time>2025-07-14T08:37:34Z</time>
      </trkpt>
      <trkpt lat="44.78413" lon="0.50275">
        <ele>150</ele>
        <time>2025-07-14T08:37:35Z</time>
      </trkpt>
      <trkpt lat="44.78414" lon="0.50274">
        <ele>150.2</ele>
        <time>2025-07-14T08:37:36Z</time>
      </trkpt>
      <trkpt lat="44.78416" lon="0.50274">
        <ele>150.4</ele>
        <time>2025-07-14T08:37:37Z</time>
      </trkpt>
      <trkpt lat="44.78417" lon="0.50274">
        <ele>150.6</ele>
        <time>2025-07-14T08:37:38Z</time>
      </trkpt>
      <trkpt lat="44.78419" lon="0.50272">
        <ele>150.6</ele>
        <time>2025-07-14T08:37:39Z</time>
      </trkpt>
      <trkpt lat="44.7842" lon="0.50271">
        <ele>150.8</ele>
        <time>2025-07-14T08:37:40Z</time>
      </trkpt>
      <trkpt lat="44.78421" lon="0.50269">
        <ele>151</ele>
        <time>2025-07-14T08:37:41Z</time>
      </trkpt>
      <trkpt lat="44.78423" lon="0.50268">
        <ele>151</ele>
        <time>2025-07-14T08:37:42Z</time>
      </trkpt>
      <trkpt lat="44.78424" lon="0.50266">
        <ele>151.2</ele>
        <time>2025-07-14T08:37:43Z</time>
      </trkpt>
      <trkpt lat="44.78425" lon="0.50264">
        <ele>151.4</ele>
        <time>2025-07-14T08:37:44Z</time>
      </trkpt>
      <trkpt lat="44.78426" lon="0.50263">
        <ele>151.4</ele>
        <time>2025-07-14T08:37:45Z</time>
      </trkpt>
      <trkpt lat="44.78428" lon="0.50261">
        <ele>151.6</ele>
        <time>2025-07-14T08:37:46Z</time>
      </trkpt>
      <trkpt lat="44.78429" lon="0.5026">
        <ele>151.8</ele>
        <time>2025-07-14T08:37:47Z</time>
      </trkpt>
      <trkpt lat="44.78431" lon="0.50258">
        <ele>152</ele>
        <time>2025-07-14T08:37:48Z</time>
      </trkpt>
      <trkpt lat="44.78432" lon="0.50257">
        <ele>152.2</ele>
        <time>2025-07-14T08:37:49Z</time>
      </trkpt>
      <trkpt lat="44.78433" lon="0.50256">
        <ele>152.4</ele>
        <time>2025-07-14T08:37:50Z</time>
      </trkpt>
      <trkpt lat="44.78435" lon="0.50255">
        <ele>152.6</ele>
        <time>2025-07-14T08:37:51Z</time>
      </trkpt>
      <trkpt lat="44.78436" lon="0.50253">
        <ele>152.8</ele>
        <time>2025-07-14T08:37:52Z</time>
      </trkpt>
      <trkpt lat="44.78438" lon="0.50251">
        <ele>153</ele>
        <time>2025-07-14T08:37:53Z</time>
      </trkpt>
      <trkpt lat="44.78438" lon="0.5025">
        <ele>153.2</ele>
        <time>2025-07-14T08:37:54Z</time>
      </trkpt>
      <trkpt lat="44.78439" lon="0.50249">
        <ele>153.4</ele>
        <time>2025-07-14T08:37:55Z</time>
      </trkpt>
      <trkpt lat="44.7844" lon="0.50247">
        <ele>153.6</ele>
        <time>2025-07-14T08:37:56Z</time>
      </trkpt>
      <trkpt lat="44.78441" lon="0.50246">
        <ele>153.8</ele>
        <time>2025-07-14T08:37:57Z</time>
      </trkpt>
      <trkpt lat="44.78442" lon="0.50244">
        <ele>154</ele>
        <time>2025-07-14T08:37:58Z</time>
      </trkpt>
      <trkpt lat="44.78443" lon="0.50243">
        <ele>154.2</ele>
        <time>2025-07-14T08:37:59Z</time>
      </trkpt>
      <trkpt lat="44.78444" lon="0.50243">
        <ele>154.4</ele>
        <time>2025-07-14T08:38:00Z</time>
      </trkpt>
      <trkpt lat="44.78445" lon="0.50241">
        <ele>154.6</ele>
        <time>2025-07-14T08:38:01Z</time>
      </trkpt>
      <trkpt lat="44.78446" lon="0.5024">
        <ele>154.8</ele>
        <time>2025-07-14T08:38:02Z</time>
      </trkpt>
      <trkpt lat="44.78447" lon="0.50239">
        <ele>155</ele>
        <time>2025-07-14T08:38:03Z</time>
      </trkpt>
      <trkpt lat="44.78449" lon="0.50238">
        <ele>155.2</ele>
        <time>2025-07-14T08:38:04Z</time>
      </trkpt>
      <trkpt lat="44.7845" lon="0.50237">
        <ele>155.4</ele>
        <time>2025-07-14T08:38:05Z</time>
      </trkpt>
      <trkpt lat="44.78451" lon="0.50236">
        <ele>155.6</ele>
        <time>2025-07-14T08:38:06Z</time>
      </trkpt>
      <trkpt lat="44.78452" lon="0.50235">
        <ele>155.8</ele>
        <time>2025-07-14T08:38:07Z</time>
      </trkpt>
      <trkpt lat="44.78453" lon="0.50234">
        <ele>156</ele>
        <time>2025-07-14T08:38:08Z</time>
      </trkpt>
      <trkpt lat="44.78454" lon="0.50232">
        <ele>156.2</ele>
        <time>2025-07-14T08:38:09Z</time>
      </trkpt>
      <trkpt lat="44.78455" lon="0.5023">
        <ele>156.4</ele>
        <time>2025-07-14T08:38:10Z</time>
      </trkpt>
      <trkpt lat="44.78456" lon="0.50229">
        <ele>156.6</ele>
        <time>2025-07-14T08:38:11Z</time>
      </trkpt>
      <trkpt lat="44.78458" lon="0.50227">
        <ele>156.8</ele>
        <time>2025-07-14T08:38:12Z</time>
      </trkpt>
      <trkpt lat="44.7846" lon="0.50225">
        <ele>157</ele>
        <time>2025-07-14T08:38:13Z</time>
      </trkpt>
      <trkpt lat="44.78461" lon="0.50225">
        <ele>157</ele>
        <time>2025-07-14T08:38:14Z</time>
      </trkpt>
      <trkpt lat="44.78463" lon="0.50223">
        <ele>157.2</ele>
        <time>2025-07-14T08:38:15Z</time>
      </trkpt>
      <trkpt lat="44.78464" lon="0.50222">
        <ele>157.4</ele>
        <time>2025-07-14T08:38:16Z</time>
      </trkpt>
      <trkpt lat="44.78465" lon="0.50219">
        <ele>157.4</ele>
        <time>2025-07-14T08:38:17Z</time>
      </trkpt>
      <trkpt lat="44.78466" lon="0.50217">
        <ele>157.6</ele>
        <time>2025-07-14T08:38:18Z</time>
      </trkpt>
      <trkpt lat="44.78465" lon="0.50215">
        <ele>157.8</ele>
        <time>2025-07-14T08:38:19Z</time>
      </trkpt>
      <trkpt lat="44.78464" lon="0.50213">
        <ele>158</ele>
        <time>2025-07-14T08:38:20Z</time>
      </trkpt>
      <trkpt lat="44.78464" lon="0.50211">
        <ele>158</ele>
        <time>2025-07-14T08:38:21Z</time>
      </trkpt>
      <trkpt lat="44.78463" lon="0.5021">
        <ele>158.4</ele>
        <time>2025-07-14T08:38:22Z</time>
      </trkpt>
      <trkpt lat="44.78462" lon="0.50207">
        <ele>158.4</ele>
        <time>2025-07-14T08:38:23Z</time>
      </trkpt>
      <trkpt lat="44.78461" lon="0.50206">
        <ele>158.6</ele>
        <time>2025-07-14T08:38:24Z</time>
      </trkpt>
      <trkpt lat="44.78459" lon="0.50204">
        <ele>158.8</ele>
        <time>2025-07-14T08:38:25Z</time>
      </trkpt>
      <trkpt lat="44.78458" lon="0.50202">
        <ele>158.8</ele>
        <time>2025-07-14T08:38:26Z</time>
      </trkpt>
      <trkpt lat="44.78457" lon="0.502">
        <ele>159</ele>
        <time>2025-07-14T08:38:27Z</time>
      </trkpt>
      <trkpt lat="44.78455" lon="0.50199">
        <ele>159.2</ele>
        <time>2025-07-14T08:38:28Z</time>
      </trkpt>
      <trkpt lat="44.78454" lon="0.50197">
        <ele>159.2</ele>
        <time>2025-07-14T08:38:29Z</time>
      </trkpt>
      <trkpt lat="44.78453" lon="0.50195">
        <ele>159.4</ele>
        <time>2025-07-14T08:38:30Z</time>
      </trkpt>
      <trkpt lat="44.78452" lon="0.50191">
        <ele>159.4</ele>
        <time>2025-07-14T08:38:31Z</time>
      </trkpt>
      <trkpt lat="44.78452" lon="0.50188">
        <ele>159.4</ele>
        <time>2025-07-14T08:38:32Z</time>
      </trkpt>
      <trkpt lat="44.78453" lon="0.50186">
        <ele>159.6</ele>
        <time>2025-07-14T08:38:33Z</time>
      </trkpt>
      <trkpt lat="44.78455" lon="0.50185">
        <ele>159.6</ele>
        <time>2025-07-14T08:38:34Z</time>
      </trkpt>
      <trkpt lat="44.78457" lon="0.50184">
        <ele>159.8</ele>
        <time>2025-07-14T08:38:35Z</time>
      </trkpt>
      <trkpt lat="44.78459" lon="0.50182">
        <ele>159.8</ele>
        <time>2025-07-14T08:38:36Z</time>
      </trkpt>
      <trkpt lat="44.78461" lon="0.50181">
        <ele>160</ele>
        <time>2025-07-14T08:38:37Z</time>
      </trkpt>
      <trkpt lat="44.78463" lon="0.5018">
        <ele>160.2</ele>
        <time>2025-07-14T08:38:38Z</time>
      </trkpt>
      <trkpt lat="44.78465" lon="0.5018">
        <ele>160.2</ele>
        <time>2025-07-14T08:38:39Z</time>
      </trkpt>
      <trkpt lat="44.78467" lon="0.5018">
        <ele>160.4</ele>
        <time>2025-07-14T08:38:40Z</time>
      </trkpt>
      <trkpt lat="44.78469" lon="0.5018">
        <ele>160.4</ele>
        <time>2025-07-14T08:38:41Z</time>
      </trkpt>
      <trkpt lat="44.78471" lon="0.5018">
        <ele>160.6</ele>
        <time>2025-07-14T08:38:42Z</time>
      </trkpt>
      <trkpt lat="44.78474" lon="0.5018">
        <ele>160.6</ele>
        <time>2025-07-14T08:38:43Z</time>
      </trkpt>
      <trkpt lat="44.78476" lon="0.5018">
        <ele>160.8</ele>
        <time>2025-07-14T08:38:44Z</time>
      </trkpt>
      <trkpt lat="44.78478" lon="0.5018">
        <ele>160.8</ele>
        <time>2025-07-14T08:38:45Z</time>
      </trkpt>
      <trkpt lat="44.78481" lon="0.50181">
        <ele>160.8</ele>
        <time>2025-07-14T08:38:46Z</time>
      </trkpt>
      <trkpt lat="44.78483" lon="0.50181">
        <ele>160.8</ele>
        <time>2025-07-14T08:38:47Z</time>
      </trkpt>
      <trkpt lat="44.78485" lon="0.50181">
        <ele>161</ele>
        <time>2025-07-14T08:38:48Z</time>
      </trkpt>
      <trkpt lat="44.78487" lon="0.50181">
        <ele>161</ele>
        <time>2025-07-14T08:38:49Z</time>
      </trkpt>
      <trkpt lat="44.7849" lon="0.50181">
        <ele>161.2</ele>
        <time>2025-07-14T08:38:50Z</time>
      </trkpt>
      <trkpt lat="44.78492" lon="0.50181">
        <ele>161.2</ele>
        <time>2025-07-14T08:38:51Z</time>
      </trkpt>
      <trkpt lat="44.78494" lon="0.50181">
        <ele>161.4</ele>
        <time>2025-07-14T08:38:52Z</time>
      </trkpt>
      <trkpt lat="44.78497" lon="0.50181">
        <ele>161.6</ele>
        <time>2025-07-14T08:38:53Z</time>
      </trkpt>
      <trkpt lat="44.78499" lon="0.5018">
        <ele>161.6</ele>
        <time>2025-07-14T08:38:54Z</time>
      </trkpt>
      <trkpt lat="44.78502" lon="0.5018">
        <ele>161.6</ele>
        <time>2025-07-14T08:38:55Z</time>
      </trkpt>
      <trkpt lat="44.78504" lon="0.50179">
        <ele>161.8</ele>
        <time>2025-07-14T08:38:56Z</time>
      </trkpt>
      <trkpt lat="44.78507" lon="0.50179">
        <ele>161.8</ele>
        <time>2025-07-14T08:38:57Z</time>
      </trkpt>
      <trkpt lat="44.78509" lon="0.50179">
        <ele>161.8</ele>
        <time>2025-07-14T08:38:58Z</time>
      </trkpt>
      <trkpt lat="44.78511" lon="0.50179">
        <ele>162</ele>
        <time>2025-07-14T08:38:59Z</time>
      </trkpt>
      <trkpt lat="44.78514" lon="0.5018">
        <ele>162</ele>
        <time>2025-07-14T08:39:00Z</time>
      </trkpt>
      <trkpt lat="44.78516" lon="0.50181">
        <ele>162</ele>
        <time>2025-07-14T08:39:01Z</time>
      </trkpt>
      <trkpt lat="44.78519" lon="0.50182">
        <ele>162.2</ele>
        <time>2025-07-14T08:39:02Z</time>
      </trkpt>
      <trkpt lat="44.78521" lon="0.50182">
        <ele>162.2</ele>
        <time>2025-07-14T08:39:03Z</time>
      </trkpt>
      <trkpt lat="44.78523" lon="0.50182">
        <ele>162.4</ele>
        <time>2025-07-14T08:39:04Z</time>
      </trkpt>
      <trkpt lat="44.78525" lon="0.50182">
        <ele>162.6</ele>
        <time>2025-07-14T08:39:05Z</time>
      </trkpt>
      <trkpt lat="44.78527" lon="0.50182">
        <ele>162.6</ele>
        <time>2025-07-14T08:39:06Z</time>
      </trkpt>
      <trkpt lat="44.7853" lon="0.50182">
        <ele>162.8</ele>
        <time>2025-07-14T08:39:07Z</time>
      </trkpt>
      <trkpt lat="44.78532" lon="0.50183">
        <ele>162.8</ele>
        <time>2025-07-14T08:39:08Z</time>
      </trkpt>
      <trkpt lat="44.78535" lon="0.50183">
        <ele>162.8</ele>
        <time>2025-07-14T08:39:09Z</time>
      </trkpt>
      <trkpt lat="44.78538" lon="0.50183">
        <ele>163</ele>
        <time>2025-07-14T08:39:10Z</time>
      </trkpt>
      <trkpt lat="44.78541" lon="0.50184">
        <ele>163</ele>
        <time>2025-07-14T08:39:11Z</time>
      </trkpt>
      <trkpt lat="44.78544" lon="0.50184">
        <ele>163.2</ele>
        <time>2025-07-14T08:39:12Z</time>
      </trkpt>
      <trkpt lat="44.78547" lon="0.50184">
        <ele>163.2</ele>
        <time>2025-07-14T08:39:13Z</time>
      </trkpt>
      <trkpt lat="44.7855" lon="0.50184">
        <ele>163.4</ele>
        <time>2025-07-14T08:39:14Z</time>
      </trkpt>
      <trkpt lat="44.78552" lon="0.50184">
        <ele>163.4</ele>
        <time>2025-07-14T08:39:15Z</time>
      </trkpt>
      <trkpt lat="44.78556" lon="0.50184">
        <ele>163.4</ele>
        <time>2025-07-14T08:39:16Z</time>
      </trkpt>
      <trkpt lat="44.78559" lon="0.50183">
        <ele>163.6</ele>
        <time>2025-07-14T08:39:17Z</time>
      </trkpt>
      <trkpt lat="44.78562" lon="0.50184">
        <ele>163.6</ele>
        <time>2025-07-14T08:39:18Z</time>
      </trkpt>
      <trkpt lat="44.78565" lon="0.50184">
        <ele>163.8</ele>
        <time>2025-07-14T08:39:19Z</time>
      </trkpt>
      <trkpt lat="44.78568" lon="0.50184">
        <ele>164</ele>
        <time>2025-07-14T08:39:20Z</time>
      </trkpt>
      <trkpt lat="44.78571" lon="0.50184">
        <ele>164</ele>
        <time>2025-07-14T08:39:21Z</time>
      </trkpt>
      <trkpt lat="44.78574" lon="0.50185">
        <ele>164.2</ele>
        <time>2025-07-14T08:39:22Z</time>
      </trkpt>
      <trkpt lat="44.78577" lon="0.50185">
        <ele>164.2</ele>
        <time>2025-07-14T08:39:23Z</time>
      </trkpt>
      <trkpt lat="44.78579" lon="0.50185">
        <ele>164.4</ele>
        <time>2025-07-14T08:39:24Z</time>
      </trkpt>
      <trkpt lat="44.78582" lon="0.50185">
        <ele>164.6</ele>
        <time>2025-07-14T08:39:25Z</time>
      </trkpt>
      <trkpt lat="44.78585" lon="0.50185">
        <ele>164.6</ele>
        <time>2025-07-14T08:39:26Z</time>
      </trkpt>
      <trkpt lat="44.78588" lon="0.50186">
        <ele>164.6</ele>
        <time>2025-07-14T08:39:27Z</time>
      </trkpt>
      <trkpt lat="44.78591" lon="0.50186">
        <ele>164.8</ele>
        <time>2025-07-14T08:39:28Z</time>
      </trkpt>
      <trkpt lat="44.78593" lon="0.50186">
        <ele>165</ele>
        <time>2025-07-14T08:39:29Z</time>
      </trkpt>
      <trkpt lat="44.78596" lon="0.50187">
        <ele>165</ele>
        <time>2025-07-14T08:39:30Z</time>
      </trkpt>
      <trkpt lat="44.78599" lon="0.50187">
        <ele>165.2</ele>
        <time>2025-07-14T08:39:31Z</time>
      </trkpt>
      <trkpt lat="44.78602" lon="0.50187">
        <ele>165.4</ele>
        <time>2025-07-14T08:39:32Z</time>
      </trkpt>
      <trkpt lat="44.78605" lon="0.50187">
        <ele>165.6</ele>
        <time>2025-07-14T08:39:33Z</time>
      </trkpt>
      <trkpt lat="44.78608" lon="0.50187">
        <ele>165.8</ele>
        <time>2025-07-14T08:39:34Z</time>
      </trkpt>
      <trkpt lat="44.78611" lon="0.50188">
        <ele>166</ele>
        <time>2025-07-14T08:39:35Z</time>
      </trkpt>
      <trkpt lat="44.78614" lon="0.50188">
        <ele>166</ele>
        <time>2025-07-14T08:39:36Z</time>
      </trkpt>
      <trkpt lat="44.78616" lon="0.50189">
        <ele>166.2</ele>
        <time>2025-07-14T08:39:37Z</time>
      </trkpt>
      <trkpt lat="44.78619" lon="0.5019">
        <ele>166.4</ele>
        <time>2025-07-14T08:39:38Z</time>
      </trkpt>
      <trkpt lat="44.78622" lon="0.50191">
        <ele>166.6</ele>
        <time>2025-07-14T08:39:39Z</time>
      </trkpt>
      <trkpt lat="44.78625" lon="0.50191">
        <ele>166.6</ele>
        <time>2025-07-14T08:39:40Z</time>
      </trkpt>
      <trkpt lat="44.78628" lon="0.50192">
        <ele>166.8</ele>
        <time>2025-07-14T08:39:41Z</time>
      </trkpt>
      <trkpt lat="44.78631" lon="0.50192">
        <ele>166.8</ele>
        <time>2025-07-14T08:39:42Z</time>
      </trkpt>
      <trkpt lat="44.78634" lon="0.50194">
        <ele>167</ele>
        <time>2025-07-14T08:39:43Z</time>
      </trkpt>
      <trkpt lat="44.78637" lon="0.50195">
        <ele>167.2</ele>
        <time>2025-07-14T08:39:44Z</time>
      </trkpt>
      <trkpt lat="44.7864" lon="0.50196">
        <ele>167.2</ele>
        <time>2025-07-14T08:39:45Z</time>
      </trkpt>
      <trkpt lat="44.78643" lon="0.50197">
        <ele>167.4</ele>
        <time>2025-07-14T08:39:46Z</time>
      </trkpt>
      <trkpt lat="44.78646" lon="0.50198">
        <ele>167.6</ele>
        <time>2025-07-14T08:39:47Z</time>
      </trkpt>
      <trkpt lat="44.78649" lon="0.50199">
        <ele>167.6</ele>
        <time>2025-07-14T08:39:48Z</time>
      </trkpt>
      <trkpt lat="44.78652" lon="0.50199">
        <ele>167.8</ele>
        <time>2025-07-14T08:39:49Z</time>
      </trkpt>
      <trkpt lat="44.78656" lon="0.502">
        <ele>167.8</ele>
        <time>2025-07-14T08:39:50Z</time>
      </trkpt>
      <trkpt lat="44.78659" lon="0.502">
        <ele>167.8</ele>
        <time>2025-07-14T08:39:51Z</time>
      </trkpt>
      <trkpt lat="44.78662" lon="0.50201">
        <ele>167.8</ele>
        <time>2025-07-14T08:39:52Z</time>
      </trkpt>
      <trkpt lat="44.78666" lon="0.50201">
        <ele>168</ele>
        <time>2025-07-14T08:39:53Z</time>
      </trkpt>
      <trkpt lat="44.78669" lon="0.50202">
        <ele>168</ele>
        <time>2025-07-14T08:39:54Z</time>
      </trkpt>
      <trkpt lat="44.78673" lon="0.50203">
        <ele>168</ele>
        <time>2025-07-14T08:39:55Z</time>
      </trkpt>
      <trkpt lat="44.78677" lon="0.50204">
        <ele>168</ele>
        <time>2025-07-14T08:39:56Z</time>
      </trkpt>
      <trkpt lat="44.7868" lon="0.50205">
        <ele>168.2</ele>
        <time>2025-07-14T08:39:57Z</time>
      </trkpt>
      <trkpt lat="44.78683" lon="0.50207">
        <ele>168.2</ele>
        <time>2025-07-14T08:39:58Z</time>
      </trkpt>
      <trkpt lat="44.78687" lon="0.50209">
        <ele>168.2</ele>
        <time>2025-07-14T08:39:59Z</time>
      </trkpt>
      <trkpt lat="44.7869" lon="0.50211">
        <ele>168.2</ele>
        <time>2025-07-14T08:40:00Z</time>
      </trkpt>
      <trkpt lat="44.78693" lon="0.50212">
        <ele>168.2</ele>
        <time>2025-07-14T08:40:01Z</time>
      </trkpt>
      <trkpt lat="44.78696" lon="0.50213">
        <ele>168.4</ele>
        <time>2025-07-14T08:40:02Z</time>
      </trkpt>
      <trkpt lat="44.787" lon="0.50213">
        <ele>168.4</ele>
        <time>2025-07-14T08:40:03Z</time>
      </trkpt>
      <trkpt lat="44.78703" lon="0.50214">
        <ele>168.4</ele>
        <time>2025-07-14T08:40:04Z</time>
      </trkpt>
      <trkpt lat="44.78707" lon="0.50215">
        <ele>168.4</ele>
        <time>2025-07-14T08:40:05Z</time>
      </trkpt>
      <trkpt lat="44.7871" lon="0.50216">
        <ele>168.6</ele>
        <time>2025-07-14T08:40:06Z</time>
      </trkpt>
      <trkpt lat="44.78714" lon="0.50217">
        <ele>168.6</ele>
        <time>2025-07-14T08:40:07Z</time>
      </trkpt>
      <trkpt lat="44.78717" lon="0.50217">
        <ele>168.8</ele>
        <time>2025-07-14T08:40:08Z</time>
      </trkpt>
      <trkpt lat="44.78721" lon="0.50218">
        <ele>168.8</ele>
        <time>2025-07-14T08:40:09Z</time>
      </trkpt>
      <trkpt lat="44.78724" lon="0.50218">
        <ele>169</ele>
        <time>2025-07-14T08:40:10Z</time>
      </trkpt>
      <trkpt lat="44.78728" lon="0.50219">
        <ele>169</ele>
        <time>2025-07-14T08:40:11Z</time>
      </trkpt>
      <trkpt lat="44.78731" lon="0.50219">
        <ele>169</ele>
        <time>2025-07-14T08:40:12Z</time>
      </trkpt>
      <trkpt lat="44.78735" lon="0.5022">
        <ele>169.2</ele>
        <time>2025-07-14T08:40:13Z</time>
      </trkpt>
      <trkpt lat="44.78738" lon="0.50221">
        <ele>169.2</ele>
        <time>2025-07-14T08:40:14Z</time>
      </trkpt>
      <trkpt lat="44.78742" lon="0.50221">
        <ele>169.2</ele>
        <time>2025-07-14T08:40:15Z</time>
      </trkpt>
      <trkpt lat="44.78745" lon="0.50222">
        <ele>169.4</ele>
        <time>2025-07-14T08:40:16Z</time>
      </trkpt>
      <trkpt lat="44.78748" lon="0.50224">
        <ele>169.4</ele>
        <time>2025-07-14T08:40:17Z</time>
      </trkpt>
      <trkpt lat="44.78751" lon="0.50225">
        <ele>169.6</ele>
        <time>2025-07-14T08:40:18Z</time>
      </trkpt>
      <trkpt lat="44.78754" lon="0.50226">
        <ele>169.6</ele>
        <time>2025-07-14T08:40:19Z</time>
      </trkpt>
      <trkpt lat="44.78758" lon="0.50227">
        <ele>169.8</ele>
        <time>2025-07-14T08:40:20Z</time>
      </trkpt>
      <trkpt lat="44.78761" lon="0.50229">
        <ele>169.8</ele>
        <time>2025-07-14T08:40:21Z</time>
      </trkpt>
      <trkpt lat="44.78764" lon="0.5023">
        <ele>169.8</ele>
        <time>2025-07-14T08:40:22Z</time>
      </trkpt>
      <trkpt lat="44.78768" lon="0.50232">
        <ele>170</ele>
        <time>2025-07-14T08:40:23Z</time>
      </trkpt>
      <trkpt lat="44.78771" lon="0.50234">
        <ele>170</ele>
        <time>2025-07-14T08:40:24Z</time>
      </trkpt>
      <trkpt lat="44.78774" lon="0.50236">
        <ele>170.2</ele>
        <time>2025-07-14T08:40:25Z</time>
      </trkpt>
      <trkpt lat="44.78778" lon="0.50237">
        <ele>170.2</ele>
        <time>2025-07-14T08:40:26Z</time>
      </trkpt>
      <trkpt lat="44.78781" lon="0.50239">
        <ele>170.4</ele>
        <time>2025-07-14T08:40:27Z</time>
      </trkpt>
      <trkpt lat="44.78784" lon="0.50242">
        <ele>170.4</ele>
        <time>2025-07-14T08:40:28Z</time>
      </trkpt>
      <trkpt lat="44.78788" lon="0.50244">
        <ele>170.6</ele>
        <time>2025-07-14T08:40:29Z</time>
      </trkpt>
      <trkpt lat="44.78791" lon="0.50245">
        <ele>170.6</ele>
        <time>2025-07-14T08:40:30Z</time>
      </trkpt>
      <trkpt lat="44.78795" lon="0.50247">
        <ele>170.8</ele>
        <time>2025-07-14T08:40:31Z</time>
      </trkpt>
      <trkpt lat="44.78799" lon="0.50249">
        <ele>170.8</ele>
        <time>2025-07-14T08:40:32Z</time>
      </trkpt>
      <trkpt lat="44.78803" lon="0.5025">
        <ele>170.8</ele>
        <time>2025-07-14T08:40:33Z</time>
      </trkpt>
      <trkpt lat="44.78807" lon="0.50251">
        <ele>170.8</ele>
        <time>2025-07-14T08:40:34Z</time>
      </trkpt>
      <trkpt lat="44.78811" lon="0.50252">
        <ele>170.8</ele>
        <time>2025-07-14T08:40:35Z</time>
      </trkpt>
      <trkpt lat="44.78815" lon="0.50254">
        <ele>170.8</ele>
        <time>2025-07-14T08:40:36Z</time>
      </trkpt>
      <trkpt lat="44.78818" lon="0.50256">
        <ele>171</ele>
        <time>2025-07-14T08:40:37Z</time>
      </trkpt>
      <trkpt lat="44.78822" lon="0.50258">
        <ele>170.8</ele>
        <time>2025-07-14T08:40:38Z</time>
      </trkpt>
      <trkpt lat="44.78827" lon="0.50261">
        <ele>170.8</ele>
        <time>2025-07-14T08:40:39Z</time>
      </trkpt>
      <trkpt lat="44.78831" lon="0.50263">
        <ele>171</ele>
        <time>2025-07-14T08:40:40Z</time>
      </trkpt>
      <trkpt lat="44.78835" lon="0.50265">
        <ele>171</ele>
        <time>2025-07-14T08:40:41Z</time>
      </trkpt>
      <trkpt lat="44.7884" lon="0.50268">
        <ele>170.8</ele>
        <time>2025-07-14T08:40:42Z</time>
      </trkpt>
      <trkpt lat="44.78844" lon="0.5027">
        <ele>170.8</ele>
        <time>2025-07-14T08:40:43Z</time>
      </trkpt>
      <trkpt lat="44.78849" lon="0.50272">
        <ele>170.8</ele>
        <time>2025-07-14T08:40:44Z</time>
      </trkpt>
      <trkpt lat="44.78853" lon="0.50274">
        <ele>170.8</ele>
        <time>2025-07-14T08:40:45Z</time>
      </trkpt>
      <trkpt lat="44.78857" lon="0.50276">
        <ele>170.8</ele>
        <time>2025-07-14T08:40:46Z</time>
      </trkpt>
      <trkpt lat="44.78862" lon="0.50278">
        <ele>170.8</ele>
        <time>2025-07-14T08:40:47Z</time>
      </trkpt>
      <trkpt lat="44.78866" lon="0.5028">
        <ele>170.8</ele>
        <time>2025-07-14T08:40:48Z</time>
      </trkpt>
      <trkpt lat="44.78871" lon="0.50283">
        <ele>170.8</ele>
        <time>2025-07-14T08:40:49Z</time>
      </trkpt>
      <trkpt lat="44.78876" lon="0.50285">
        <ele>170.8</ele>
        <time>2025-07-14T08:40:50Z</time>
      </trkpt>
      <trkpt lat="44.78881" lon="0.50288">
        <ele>170.8</ele>
        <time>2025-07-14T08:40:51Z</time>
      </trkpt>
      <trkpt lat="44.78886" lon="0.5029">
        <ele>170.8</ele>
        <time>2025-07-14T08:40:52Z</time>
      </trkpt>
      <trkpt lat="44.78891" lon="0.50292">
        <ele>170.8</ele>
        <time>2025-07-14T08:40:53Z</time>
      </trkpt>
      <trkpt lat="44.78895" lon="0.50295">
        <ele>170.8</ele>
        <time>2025-07-14T08:40:54Z</time>
      </trkpt>
      <trkpt lat="44.789" lon="0.50297">
        <ele>171</ele>
        <time>2025-07-14T08:40:55Z</time>
      </trkpt>
      <trkpt lat="44.78905" lon="0.503">
        <ele>171</ele>
        <time>2025-07-14T08:40:56Z</time>
      </trkpt>
      <trkpt lat="44.7891" lon="0.50302">
        <ele>171</ele>
        <time>2025-07-14T08:40:57Z</time>
      </trkpt>
      <trkpt lat="44.78914" lon="0.50304">
        <ele>171</ele>
        <time>2025-07-14T08:40:58Z</time>
      </trkpt>
      <trkpt lat="44.78919" lon="0.50307">
        <ele>171.2</ele>
        <time>2025-07-14T08:40:59Z</time>
      </trkpt>
      <trkpt lat="44.78923" lon="0.50309">
        <ele>171.2</ele>
        <time>2025-07-14T08:41:00Z</time>
      </trkpt>
      <trkpt lat="44.78926" lon="0.50314">
        <ele>171.2</ele>
        <time>2025-07-14T08:41:01Z</time>
      </trkpt>
      <trkpt lat="44.78927" lon="0.5032">
        <ele>171.4</ele>
        <time>2025-07-14T08:41:02Z</time>
      </trkpt>
      <trkpt lat="44.78927" lon="0.50325">
        <ele>171.4</ele>
        <time>2025-07-14T08:41:03Z</time>
      </trkpt>
      <trkpt lat="44.78926" lon="0.50331">
        <ele>171.4</ele>
        <time>2025-07-14T08:41:04Z</time>
      </trkpt>
      <trkpt lat="44.78924" lon="0.50335">
        <ele>171.4</ele>
        <time>2025-07-14T08:41:05Z</time>
      </trkpt>
      <trkpt lat="44.78922" lon="0.50341">
        <ele>171.4</ele>
        <time>2025-07-14T08:41:06Z</time>
      </trkpt>
      <trkpt lat="44.78919" lon="0.50347">
        <ele>171.4</ele>
        <time>2025-07-14T08:41:07Z</time>
      </trkpt>
      <trkpt lat="44.78916" lon="0.50354">
        <ele>171.4</ele>
        <time>2025-07-14T08:41:08Z</time>
      </trkpt>
      <trkpt lat="44.78914" lon="0.50361">
        <ele>171.4</ele>
        <time>2025-07-14T08:41:09Z</time>
      </trkpt>
      <trkpt lat="44.78911" lon="0.50368">
        <ele>171.2</ele>
        <time>2025-07-14T08:41:10Z</time>
      </trkpt>
      <trkpt lat="44.78908" lon="0.50376">
        <ele>171</ele>
        <time>2025-07-14T08:41:11Z</time>
      </trkpt>
      <trkpt lat="44.78905" lon="0.50384">
        <ele>170.8</ele>
        <time>2025-07-14T08:41:12Z</time>
      </trkpt>
      <trkpt lat="44.78902" lon="0.50392">
        <ele>170.6</ele>
        <time>2025-07-14T08:41:13Z</time>
      </trkpt>
      <trkpt lat="44.78899" lon="0.504">
        <ele>170.4</ele>
        <time>2025-07-14T08:41:14Z</time>
      </trkpt>
      <trkpt lat="44.78895" lon="0.50408">
        <ele>170.2</ele>
        <time>2025-07-14T08:41:15Z</time>
      </trkpt>
      <trkpt lat="44.78891" lon="0.50416">
        <ele>169.8</ele>
        <time>2025-07-14T08:41:16Z</time>
      </trkpt>
      <trkpt lat="44.78887" lon="0.50424">
        <ele>169.6</ele>
        <time>2025-07-14T08:41:17Z</time>
      </trkpt>
      <trkpt lat="44.78882" lon="0.50431">
        <ele>169.2</ele>
        <time>2025-07-14T08:41:18Z</time>
      </trkpt>
      <trkpt lat="44.78877" lon="0.50438">
        <ele>168.8</ele>
        <time>2025-07-14T08:41:19Z</time>
      </trkpt>
      <trkpt lat="44.78871" lon="0.50445">
        <ele>168.6</ele>
        <time>2025-07-14T08:41:20Z</time>
      </trkpt>
      <trkpt lat="44.78865" lon="0.50451">
        <ele>168.2</ele>
        <time>2025-07-14T08:41:21Z</time>
      </trkpt>
      <trkpt lat="44.78858" lon="0.50457">
        <ele>167.8</ele>
        <time>2025-07-14T08:41:22Z</time>
      </trkpt>
      <trkpt lat="44.78852" lon="0.50462">
        <ele>167.6</ele>
        <time>2025-07-14T08:41:23Z</time>
      </trkpt>
      <trkpt lat="44.78845" lon="0.50468">
        <ele>167.4</ele>
        <time>2025-07-14T08:41:24Z</time>
      </trkpt>
      <trkpt lat="44.78838" lon="0.50474">
        <ele>167</ele>
        <time>2025-07-14T08:41:25Z</time>
      </trkpt>
      <trkpt lat="44.78832" lon="0.50479">
        <ele>166.8</ele>
        <time>2025-07-14T08:41:26Z</time>
      </trkpt>
      <trkpt lat="44.78826" lon="0.50486">
        <ele>166.4</ele>
        <time>2025-07-14T08:41:27Z</time>
      </trkpt>
      <trkpt lat="44.7882" lon="0.50493">
        <ele>166</ele>
        <time>2025-07-14T08:41:28Z</time>
      </trkpt>
      <trkpt lat="44.78814" lon="0.505">
        <ele>165.8</ele>
        <time>2025-07-14T08:41:29Z</time>
      </trkpt>
      <trkpt lat="44.78809" lon="0.50507">
        <ele>165.4</ele>
        <time>2025-07-14T08:41:30Z</time>
      </trkpt>
      <trkpt lat="44.78804" lon="0.50516">
        <ele>165.2</ele>
        <time>2025-07-14T08:41:31Z</time>
      </trkpt>
      <trkpt lat="44.788" lon="0.50525">
        <ele>164.8</ele>
        <time>2025-07-14T08:41:32Z</time>
      </trkpt>
      <trkpt lat="44.78797" lon="0.50534">
        <ele>164.6</ele>
        <time>2025-07-14T08:41:33Z</time>
      </trkpt>
      <trkpt lat="44.78794" lon="0.50543">
        <ele>164.4</ele>
        <time>2025-07-14T08:41:34Z</time>
      </trkpt>
      <trkpt lat="44.78791" lon="0.50551">
        <ele>164.4</ele>
        <time>2025-07-14T08:41:35Z</time>
      </trkpt>
      <trkpt lat="44.7879" lon="0.50559">
        <ele>164.2</ele>
        <time>2025-07-14T08:41:36Z</time>
      </trkpt>
      <trkpt lat="44.78793" lon="0.50567">
        <ele>164.2</ele>
        <time>2025-07-14T08:41:37Z</time>
      </trkpt>
      <trkpt lat="44.78797" lon="0.50572">
        <ele>164</ele>
        <time>2025-07-14T08:41:38Z</time>
      </trkpt>
      <trkpt lat="44.78801" lon="0.50576">
        <ele>164</ele>
        <time>2025-07-14T08:41:39Z</time>
      </trkpt>
      <trkpt lat="44.78806" lon="0.5058">
        <ele>163.8</ele>
        <time>2025-07-14T08:41:40Z</time>
      </trkpt>
      <trkpt lat="44.7881" lon="0.50584">
        <ele>164</ele>
        <time>2025-07-14T08:41:41Z</time>
      </trkpt>
      <trkpt lat="44.78815" lon="0.50587">
        <ele>163.8</ele>
        <time>2025-07-14T08:41:42Z</time>
      </trkpt>
      <trkpt lat="44.78819" lon="0.50592">
        <ele>164</ele>
        <time>2025-07-14T08:41:43Z</time>
      </trkpt>
      <trkpt lat="44.78824" lon="0.50596">
        <ele>164</ele>
        <time>2025-07-14T08:41:44Z</time>
      </trkpt>
      <trkpt lat="44.78829" lon="0.506">
        <ele>163.8</ele>
        <time>2025-07-14T08:41:45Z</time>
      </trkpt>
      <trkpt lat="44.78835" lon="0.506">
        <ele>163.8</ele>
        <time>2025-07-14T08:41:46Z</time>
      </trkpt>
      <trkpt lat="44.78841" lon="0.50599">
        <ele>163.8</ele>
        <time>2025-07-14T08:41:47Z</time>
      </trkpt>
      <trkpt lat="44.78846" lon="0.50596">
        <ele>163.8</ele>
        <time>2025-07-14T08:41:48Z</time>
      </trkpt>
      <trkpt lat="44.78851" lon="0.50593">
        <ele>163.6</ele>
        <time>2025-07-14T08:41:49Z</time>
      </trkpt>
      <trkpt lat="44.78855" lon="0.50589">
        <ele>163.4</ele>
        <time>2025-07-14T08:41:50Z</time>
      </trkpt>
      <trkpt lat="44.78858" lon="0.50585">
        <ele>163.4</ele>
        <time>2025-07-14T08:41:51Z</time>
      </trkpt>
      <trkpt lat="44.78859" lon="0.50584">
        <ele>163.2</ele>
        <time>2025-07-14T08:41:52Z</time>
      </trkpt>
      <trkpt lat="44.7886" lon="0.50583">
        <ele>163.2</ele>
        <time>2025-07-14T08:41:53Z</time>
      </trkpt>
      <trkpt lat="44.78861" lon="0.50583">
        <ele>163.2</ele>
        <time>2025-07-14T08:41:54Z</time>
      </trkpt>
      <trkpt lat="44.78861" lon="0.50583">
        <ele>163.4</ele>
        <time>2025-07-14T08:41:55Z</time>
      </trkpt>
      <trkpt lat="44.78862" lon="0.50584">
        <ele>163.4</ele>
        <time>2025-07-14T08:41:56Z</time>
      </trkpt>
      <trkpt lat="44.78865" lon="0.5058">
        <ele>162.6</ele>
        <time>2025-07-14T08:44:31Z</time>
      </trkpt>
      <trkpt lat="44.78867" lon="0.50581">
        <ele>162.6</ele>
        <time>2025-07-14T08:44:32Z</time>
      </trkpt>
      <trkpt lat="44.78869" lon="0.50585">
        <ele>162.4</ele>
        <time>2025-07-14T08:44:33Z</time>
      </trkpt>
      <trkpt lat="44.7887" lon="0.50592">
        <ele>162.4</ele>
        <time>2025-07-14T08:44:34Z</time>
      </trkpt>
      <trkpt lat="44.78872" lon="0.50601">
        <ele>162.2</ele>
        <time>2025-07-14T08:44:35Z</time>
      </trkpt>
      <trkpt lat="44.78875" lon="0.50609">
        <ele>162</ele>
        <time>2025-07-14T08:44:36Z</time>
      </trkpt>
      <trkpt lat="44.78879" lon="0.50619">
        <ele>161.4</ele>
        <time>2025-07-14T08:44:37Z</time>
      </trkpt>
      <trkpt lat="44.78883" lon="0.50628">
        <ele>160.8</ele>
        <time>2025-07-14T08:44:38Z</time>
      </trkpt>
      <trkpt lat="44.78886" lon="0.50637">
        <ele>160</ele>
        <time>2025-07-14T08:44:39Z</time>
      </trkpt>
      <trkpt lat="44.7889" lon="0.50645">
        <ele>159.2</ele>
        <time>2025-07-14T08:44:40Z</time>
      </trkpt>
      <trkpt lat="44.78894" lon="0.50652">
        <ele>158.6</ele>
        <time>2025-07-14T08:44:41Z</time>
      </trkpt>
      <trkpt lat="44.78899" lon="0.50657">
        <ele>158</ele>
        <time>2025-07-14T08:44:42Z</time>
      </trkpt>
      <trkpt lat="44.78904" lon="0.50656">
        <ele>157.2</ele>
        <time>2025-07-14T08:44:43Z</time>
      </trkpt>
      <trkpt lat="44.78908" lon="0.50652">
        <ele>156.2</ele>
        <time>2025-07-14T08:44:44Z</time>
      </trkpt>
      <trkpt lat="44.78912" lon="0.50647">
        <ele>155.8</ele>
        <time>2025-07-14T08:44:45Z</time>
      </trkpt>
      <trkpt lat="44.78916" lon="0.50643">
        <ele>155.4</ele>
        <time>2025-07-14T08:44:46Z</time>
      </trkpt>
      <trkpt lat="44.78921" lon="0.50639">
        <ele>155</ele>
        <time>2025-07-14T08:44:47Z</time>
      </trkpt>
      <trkpt lat="44.78926" lon="0.50634">
        <ele>154.6</ele>
        <time>2025-07-14T08:44:48Z</time>
      </trkpt>
      <trkpt lat="44.78931" lon="0.5063">
        <ele>154.4</ele>
        <time>2025-07-14T08:44:49Z</time>
      </trkpt>
      <trkpt lat="44.78935" lon="0.50625">
        <ele>154.2</ele>
        <time>2025-07-14T08:44:50Z</time>
      </trkpt>
      <trkpt lat="44.7894" lon="0.50622">
        <ele>154</ele>
        <time>2025-07-14T08:44:51Z</time>
      </trkpt>
      <trkpt lat="44.78944" lon="0.50617">
        <ele>154</ele>
        <time>2025-07-14T08:44:52Z</time>
      </trkpt>
      <trkpt lat="44.78949" lon="0.50613">
        <ele>153.8</ele>
        <time>2025-07-14T08:44:53Z</time>
      </trkpt>
      <trkpt lat="44.78953" lon="0.50609">
        <ele>153.8</ele>
        <time>2025-07-14T08:44:54Z</time>
      </trkpt>
      <trkpt lat="44.78958" lon="0.50605">
        <ele>153.6</ele>
        <time>2025-07-14T08:44:55Z</time>
      </trkpt>
      <trkpt lat="44.78962" lon="0.50601">
        <ele>153.6</ele>
        <time>2025-07-14T08:44:56Z</time>
      </trkpt>
      <trkpt lat="44.78968" lon="0.50599">
        <ele>153.6</ele>
        <time>2025-07-14T08:44:57Z</time>
      </trkpt>
      <trkpt lat="44.78973" lon="0.50602">
        <ele>153.6</ele>
        <time>2025-07-14T08:44:58Z</time>
      </trkpt>
      <trkpt lat="44.78978" lon="0.50607">
        <ele>153.4</ele>
        <time>2025-07-14T08:44:59Z</time>
      </trkpt>
      <trkpt lat="44.78983" lon="0.50613">
        <ele>153.4</ele>
        <time>2025-07-14T08:45:00Z</time>
      </trkpt>
      <trkpt lat="44.78989" lon="0.50617">
        <ele>152.8</ele>
        <time>2025-07-14T08:45:01Z</time>
      </trkpt>
      <trkpt lat="44.78995" lon="0.50618">
        <ele>152.2</ele>
        <time>2025-07-14T08:45:02Z</time>
      </trkpt>
      <trkpt lat="44.79001" lon="0.50617">
        <ele>151.8</ele>
        <time>2025-07-14T08:45:03Z</time>
      </trkpt>
      <trkpt lat="44.79005" lon="0.50613">
        <ele>151.4</ele>
        <time>2025-07-14T08:45:04Z</time>
      </trkpt>
      <trkpt lat="44.79006" lon="0.50607">
        <ele>151.2</ele>
        <time>2025-07-14T08:45:05Z</time>
      </trkpt>
      <trkpt lat="44.79007" lon="0.50602">
        <ele>151</ele>
        <time>2025-07-14T08:45:06Z</time>
      </trkpt>
      <trkpt lat="44.79008" lon="0.50597">
        <ele>151.2</ele>
        <time>2025-07-14T08:45:07Z</time>
      </trkpt>
      <trkpt lat="44.79011" lon="0.50594">
        <ele>151.2</ele>
        <time>2025-07-14T08:45:08Z</time>
      </trkpt>
      <trkpt lat="44.79014" lon="0.50594">
        <ele>151.4</ele>
        <time>2025-07-14T08:45:09Z</time>
      </trkpt>
      <trkpt lat="44.79016" lon="0.50597">
        <ele>151.6</ele>
        <time>2025-07-14T08:45:10Z</time>
      </trkpt>
      <trkpt lat="44.79018" lon="0.50599">
        <ele>151.8</ele>
        <time>2025-07-14T08:45:11Z</time>
      </trkpt>
      <trkpt lat="44.7902" lon="0.50602">
        <ele>152.2</ele>
        <time>2025-07-14T08:45:12Z</time>
      </trkpt>
      <trkpt lat="44.79022" lon="0.50606">
        <ele>152.4</ele>
        <time>2025-07-14T08:45:13Z</time>
      </trkpt>
      <trkpt lat="44.79024" lon="0.50609">
        <ele>152.6</ele>
        <time>2025-07-14T08:45:14Z</time>
      </trkpt>
      <trkpt lat="44.79026" lon="0.50613">
        <ele>152.6</ele>
        <time>2025-07-14T08:45:15Z</time>
      </trkpt>
      <trkpt lat="44.79029" lon="0.50616">
        <ele>152.8</ele>
        <time>2025-07-14T08:45:16Z</time>
      </trkpt>
      <trkpt lat="44.79031" lon="0.5062">
        <ele>152.8</ele>
        <time>2025-07-14T08:45:17Z</time>
      </trkpt>
      <trkpt lat="44.79034" lon="0.50623">
        <ele>152.8</ele>
        <time>2025-07-14T08:45:18Z</time>
      </trkpt>
      <trkpt lat="44.79037" lon="0.50626">
        <ele>152.8</ele>
        <time>2025-07-14T08:45:19Z</time>
      </trkpt>
      <trkpt lat="44.79039" lon="0.5063">
        <ele>152.8</ele>
        <time>2025-07-14T08:45:20Z</time>
      </trkpt>
      <trkpt lat="44.7904" lon="0.50634">
        <ele>153</ele>
        <time>2025-07-14T08:45:21Z</time>
      </trkpt>
      <trkpt lat="44.7904" lon="0.50639">
        <ele>153</ele>
        <time>2025-07-14T08:45:22Z</time>
      </trkpt>
      <trkpt lat="44.79039" lon="0.50644">
        <ele>153.2</ele>
        <time>2025-07-14T08:45:23Z</time>
      </trkpt>
      <trkpt lat="44.79037" lon="0.50649">
        <ele>153.4</ele>
        <time>2025-07-14T08:45:24Z</time>
      </trkpt>
      <trkpt lat="44.79036" lon="0.50656">
        <ele>153.2</ele>
        <time>2025-07-14T08:45:25Z</time>
      </trkpt>
      <trkpt lat="44.79035" lon="0.50662">
        <ele>153.2</ele>
        <time>2025-07-14T08:45:26Z</time>
      </trkpt>
      <trkpt lat="44.79036" lon="0.50668">
        <ele>153.2</ele>
        <time>2025-07-14T08:45:27Z</time>
      </trkpt>
      <trkpt lat="44.79038" lon="0.50674">
        <ele>152.8</ele>
        <time>2025-07-14T08:45:28Z</time>
      </trkpt>
      <trkpt lat="44.7904" lon="0.50678">
        <ele>152.8</ele>
        <time>2025-07-14T08:45:29Z</time>
      </trkpt>
      <trkpt lat="44.79043" lon="0.50683">
        <ele>152.6</ele>
        <time>2025-07-14T08:45:30Z</time>
      </trkpt>
      <trkpt lat="44.79045" lon="0.50689">
        <ele>152.6</ele>
        <time>2025-07-14T08:45:31Z</time>
      </trkpt>
      <trkpt lat="44.79047" lon="0.50695">
        <ele>152.8</ele>
        <time>2025-07-14T08:45:32Z</time>
      </trkpt>
      <trkpt lat="44.7905" lon="0.50701">
        <ele>152.6</ele>
        <time>2025-07-14T08:45:33Z</time>
      </trkpt>
      <trkpt lat="44.79053" lon="0.50706">
        <ele>152.6</ele>
        <time>2025-07-14T08:45:34Z</time>
      </trkpt>
      <trkpt lat="44.79056" lon="0.50712">
        <ele>152.6</ele>
        <time>2025-07-14T08:45:35Z</time>
      </trkpt>
      <trkpt lat="44.7906" lon="0.50717">
        <ele>152.4</ele>
        <time>2025-07-14T08:45:36Z</time>
      </trkpt>
      <trkpt lat="44.79063" lon="0.50722">
        <ele>152</ele>
        <time>2025-07-14T08:45:37Z</time>
      </trkpt>
      <trkpt lat="44.79067" lon="0.50725">
        <ele>151.8</ele>
        <time>2025-07-14T08:45:38Z</time>
      </trkpt>
      <trkpt lat="44.79071" lon="0.50728">
        <ele>151.8</ele>
        <time>2025-07-14T08:45:39Z</time>
      </trkpt>
      <trkpt lat="44.79075" lon="0.5073">
        <ele>151.6</ele>
        <time>2025-07-14T08:45:40Z</time>
      </trkpt>
      <trkpt lat="44.79079" lon="0.50733">
        <ele>151.6</ele>
        <time>2025-07-14T08:45:41Z</time>
      </trkpt>
      <trkpt lat="44.79084" lon="0.50735">
        <ele>151.6</ele>
        <time>2025-07-14T08:45:42Z</time>
      </trkpt>
      <trkpt lat="44.79088" lon="0.50737">
        <ele>151.6</ele>
        <time>2025-07-14T08:45:43Z</time>
      </trkpt>
      <trkpt lat="44.79093" lon="0.50741">
        <ele>151.4</ele>
        <time>2025-07-14T08:45:44Z</time>
      </trkpt>
      <trkpt lat="44.79097" lon="0.50743">
        <ele>151.4</ele>
        <time>2025-07-14T08:45:45Z</time>
      </trkpt>
      <trkpt lat="44.79101" lon="0.50743">
        <ele>151.4</ele>
        <time>2025-07-14T08:45:46Z</time>
      </trkpt>
      <trkpt lat="44.79105" lon="0.50742">
        <ele>151.4</ele>
        <time>2025-07-14T08:45:47Z</time>
      </trkpt>
      <trkpt lat="44.79108" lon="0.5074">
        <ele>151.4</ele>
        <time>2025-07-14T08:45:48Z</time>
      </trkpt>
      <trkpt lat="44.7911" lon="0.50738">
        <ele>151.6</ele>
        <time>2025-07-14T08:45:49Z</time>
      </trkpt>
      <trkpt lat="44.79113" lon="0.50736">
        <ele>151.6</ele>
        <time>2025-07-14T08:45:50Z</time>
      </trkpt>
      <trkpt lat="44.79116" lon="0.50734">
        <ele>151.8</ele>
        <time>2025-07-14T08:45:51Z</time>
      </trkpt>
      <trkpt lat="44.79119" lon="0.50732">
        <ele>152</ele>
        <time>2025-07-14T08:45:52Z</time>
      </trkpt>
      <trkpt lat="44.79121" lon="0.50731">
        <ele>152.4</ele>
        <time>2025-07-14T08:45:53Z</time>
      </trkpt>
      <trkpt lat="44.79124" lon="0.50729">
        <ele>152.6</ele>
        <time>2025-07-14T08:45:54Z</time>
      </trkpt>
      <trkpt lat="44.79125" lon="0.50726">
        <ele>152.6</ele>
        <time>2025-07-14T08:45:55Z</time>
      </trkpt>
      <trkpt lat="44.79128" lon="0.50723">
        <ele>152.8</ele>
        <time>2025-07-14T08:45:56Z</time>
      </trkpt>
      <trkpt lat="44.79131" lon="0.50721">
        <ele>153</ele>
        <time>2025-07-14T08:45:57Z</time>
      </trkpt>
      <trkpt lat="44.79135" lon="0.5072">
        <ele>153</ele>
        <time>2025-07-14T08:45:58Z</time>
      </trkpt>
      <trkpt lat="44.79138" lon="0.5072">
        <ele>153.2</ele>
        <time>2025-07-14T08:45:59Z</time>
      </trkpt>
      <trkpt lat="44.7914" lon="0.50721">
        <ele>153.2</ele>
        <time>2025-07-14T08:46:00Z</time>
      </trkpt>
      <trkpt lat="44.79142" lon="0.50722">
        <ele>153.2</ele>
        <time>2025-07-14T08:46:01Z</time>
      </trkpt>
      <trkpt lat="44.79144" lon="0.50724">
        <ele>153.4</ele>
        <time>2025-07-14T08:46:02Z</time>
      </trkpt>
      <trkpt lat="44.79147" lon="0.50726">
        <ele>153.6</ele>
        <time>2025-07-14T08:46:03Z</time>
      </trkpt>
      <trkpt lat="44.7915" lon="0.50728">
        <ele>153.8</ele>
        <time>2025-07-14T08:46:04Z</time>
      </trkpt>
      <trkpt lat="44.79154" lon="0.5073">
        <ele>154</ele>
        <time>2025-07-14T08:46:05Z</time>
      </trkpt>
      <trkpt lat="44.79156" lon="0.50734">
        <ele>154</ele>
        <time>2025-07-14T08:46:06Z</time>
      </trkpt>
      <trkpt lat="44.79159" lon="0.50736">
        <ele>153.8</ele>
        <time>2025-07-14T08:46:07Z</time>
      </trkpt>
      <trkpt lat="44.79162" lon="0.50738">
        <ele>153.8</ele>
        <time>2025-07-14T08:46:08Z</time>
      </trkpt>
      <trkpt lat="44.79165" lon="0.50737">
        <ele>153.6</ele>
        <time>2025-07-14T08:46:09Z</time>
      </trkpt>
      <trkpt lat="44.79167" lon="0.50737">
        <ele>153.6</ele>
        <time>2025-07-14T08:46:10Z</time>
      </trkpt>
      <trkpt lat="44.7917" lon="0.50738">
        <ele>153.6</ele>
        <time>2025-07-14T08:46:11Z</time>
      </trkpt>
      <trkpt lat="44.79173" lon="0.50738">
        <ele>153.6</ele>
        <time>2025-07-14T08:46:12Z</time>
      </trkpt>
      <trkpt lat="44.79177" lon="0.50737">
        <ele>153.4</ele>
        <time>2025-07-14T08:46:13Z</time>
      </trkpt>
      <trkpt lat="44.7918" lon="0.50735">
        <ele>153.4</ele>
        <time>2025-07-14T08:46:14Z</time>
      </trkpt>
      <trkpt lat="44.79183" lon="0.50732">
        <ele>153.2</ele>
        <time>2025-07-14T08:46:15Z</time>
      </trkpt>
      <trkpt lat="44.79186" lon="0.50728">
        <ele>153</ele>
        <time>2025-07-14T08:46:16Z</time>
      </trkpt>
      <trkpt lat="44.79187" lon="0.50724">
        <ele>152.8</ele>
        <time>2025-07-14T08:46:17Z</time>
      </trkpt>
      <trkpt lat="44.79189" lon="0.5072">
        <ele>152.8</ele>
        <time>2025-07-14T08:46:18Z</time>
      </trkpt>
      <trkpt lat="44.79189" lon="0.50716">
        <ele>152.6</ele>
        <time>2025-07-14T08:46:19Z</time>
      </trkpt>
      <trkpt lat="44.7919" lon="0.50712">
        <ele>152.8</ele>
        <time>2025-07-14T08:46:20Z</time>
      </trkpt>
      <trkpt lat="44.79191" lon="0.50707">
        <ele>152.8</ele>
        <time>2025-07-14T08:46:21Z</time>
      </trkpt>
      <trkpt lat="44.79192" lon="0.50702">
        <ele>152.8</ele>
        <time>2025-07-14T08:46:22Z</time>
      </trkpt>
      <trkpt lat="44.79193" lon="0.50697">
        <ele>152.8</ele>
        <time>2025-07-14T08:46:23Z</time>
      </trkpt>
      <trkpt lat="44.79194" lon="0.50691">
        <ele>152.6</ele>
        <time>2025-07-14T08:46:24Z</time>
      </trkpt>
      <trkpt lat="44.79195" lon="0.50686">
        <ele>152.6</ele>
        <time>2025-07-14T08:46:25Z</time>
      </trkpt>
      <trkpt lat="44.79197" lon="0.50681">
        <ele>152.6</ele>
        <time>2025-07-14T08:46:26Z</time>
      </trkpt>
      <trkpt lat="44.79199" lon="0.50676">
        <ele>152.6</ele>
        <time>2025-07-14T08:46:27Z</time>
      </trkpt>
      <trkpt lat="44.79199" lon="0.5067">
        <ele>152.6</ele>
        <time>2025-07-14T08:46:28Z</time>
      </trkpt>
      <trkpt lat="44.79201" lon="0.50664">
        <ele>152.6</ele>
        <time>2025-07-14T08:46:29Z</time>
      </trkpt>
      <trkpt lat="44.79202" lon="0.50657">
        <ele>152.6</ele>
        <time>2025-07-14T08:46:30Z</time>
      </trkpt>
      <trkpt lat="44.79202" lon="0.50651">
        <ele>152.4</ele>
        <time>2025-07-14T08:46:31Z</time>
      </trkpt>
      <trkpt lat="44.79202" lon="0.50645">
        <ele>152.6</ele>
        <time>2025-07-14T08:46:32Z</time>
      </trkpt>
      <trkpt lat="44.79202" lon="0.50639">
        <ele>152.6</ele>
        <time>2025-07-14T08:46:33Z</time>
      </trkpt>
      <trkpt lat="44.79202" lon="0.50633">
        <ele>152.6</ele>
        <time>2025-07-14T08:46:34Z</time>
      </trkpt>
      <trkpt lat="44.79203" lon="0.50628">
        <ele>152.6</ele>
        <time>2025-07-14T08:46:35Z</time>
      </trkpt>
      <trkpt lat="44.79203" lon="0.50623">
        <ele>152.8</ele>
        <time>2025-07-14T08:46:36Z</time>
      </trkpt>
      <trkpt lat="44.79203" lon="0.50618">
        <ele>152.8</ele>
        <time>2025-07-14T08:46:37Z</time>
      </trkpt>
      <trkpt lat="44.79203" lon="0.50613">
        <ele>152.8</ele>
        <time>2025-07-14T08:46:38Z</time>
      </trkpt>
      <trkpt lat="44.79203" lon="0.50609">
        <ele>153</ele>
        <time>2025-07-14T08:46:39Z</time>
      </trkpt>
      <trkpt lat="44.79204" lon="0.50605">
        <ele>153.2</ele>
        <time>2025-07-14T08:46:40Z</time>
      </trkpt>
      <trkpt lat="44.79205" lon="0.50601">
        <ele>153.4</ele>
        <time>2025-07-14T08:46:41Z</time>
      </trkpt>
      <trkpt lat="44.79205" lon="0.50597">
        <ele>153.6</ele>
        <time>2025-07-14T08:46:42Z</time>
      </trkpt>
      <trkpt lat="44.79206" lon="0.50593">
        <ele>153.8</ele>
        <time>2025-07-14T08:46:43Z</time>
      </trkpt>
      <trkpt lat="44.79207" lon="0.50589">
        <ele>154</ele>
        <time>2025-07-14T08:46:44Z</time>
      </trkpt>
      <trkpt lat="44.79208" lon="0.50586">
        <ele>154.2</ele>
        <time>2025-07-14T08:46:45Z</time>
      </trkpt>
      <trkpt lat="44.79209" lon="0.50582">
        <ele>154.4</ele>
        <time>2025-07-14T08:46:46Z</time>
      </trkpt>
      <trkpt lat="44.79209" lon="0.50579">
        <ele>154.6</ele>
        <time>2025-07-14T08:46:47Z</time>
      </trkpt>
      <trkpt lat="44.7921" lon="0.50576">
        <ele>155</ele>
        <time>2025-07-14T08:46:48Z</time>
      </trkpt>
      <trkpt lat="44.7921" lon="0.50574">
        <ele>155.2</ele>
        <time>2025-07-14T08:46:49Z</time>
      </trkpt>
      <trkpt lat="44.79211" lon="0.50571">
        <ele>155.4</ele>
        <time>2025-07-14T08:46:50Z</time>
      </trkpt>
      <trkpt lat="44.79211" lon="0.50568">
        <ele>155.8</ele>
        <time>2025-07-14T08:46:51Z</time>
      </trkpt>
      <trkpt lat="44.79212" lon="0.50566">
        <ele>156</ele>
        <time>2025-07-14T08:46:52Z</time>
      </trkpt>
      <trkpt lat="44.79212" lon="0.50563">
        <ele>156.2</ele>
        <time>2025-07-14T08:46:53Z</time>
      </trkpt>
      <trkpt lat="44.79213" lon="0.50561">
        <ele>156.6</ele>
        <time>2025-07-14T08:46:54Z</time>
      </trkpt>
      <trkpt lat="44.79214" lon="0.50559">
        <ele>156.8</ele>
        <time>2025-07-14T08:46:55Z</time>
      </trkpt>
      <trkpt lat="44.79215" lon="0.50557">
        <ele>157.2</ele>
        <time>2025-07-14T08:46:56Z</time>
      </trkpt>
      <trkpt lat="44.79216" lon="0.50555">
        <ele>157.6</ele>
        <time>2025-07-14T08:46:57Z</time>
      </trkpt>
      <trkpt lat="44.79217" lon="0.50552">
        <ele>157.8</ele>
        <time>2025-07-14T08:46:58Z</time>
      </trkpt>
      <trkpt lat="44.79218" lon="0.5055">
        <ele>158.2</ele>
        <time>2025-07-14T08:46:59Z</time>
      </trkpt>
      <trkpt lat="44.7922" lon="0.50548">
        <ele>158.4</ele>
        <time>2025-07-14T08:47:00Z</time>
      </trkpt>
      <trkpt lat="44.79221" lon="0.50546">
        <ele>158.6</ele>
        <time>2025-07-14T08:47:01Z</time>
      </trkpt>
      <trkpt lat="44.79223" lon="0.50543">
        <ele>158.8</ele>
        <time>2025-07-14T08:47:02Z</time>
      </trkpt>
      <trkpt lat="44.79225" lon="0.50541">
        <ele>159</ele>
        <time>2025-07-14T08:47:03Z</time>
      </trkpt>
      <trkpt lat="44.79226" lon="0.50539">
        <ele>159.2</ele>
        <time>2025-07-14T08:47:04Z</time>
      </trkpt>
      <trkpt lat="44.79228" lon="0.50537">
        <ele>159.4</ele>
        <time>2025-07-14T08:47:05Z</time>
      </trkpt>
      <trkpt lat="44.7923" lon="0.50535">
        <ele>159.6</ele>
        <time>2025-07-14T08:47:06Z</time>
      </trkpt>
      <trkpt lat="44.79232" lon="0.50532">
        <ele>159.6</ele>
        <time>2025-07-14T08:47:07Z</time>
      </trkpt>
      <trkpt lat="44.79234" lon="0.5053">
        <ele>159.8</ele>
        <time>2025-07-14T08:47:08Z</time>
      </trkpt>
      <trkpt lat="44.79236" lon="0.50528">
        <ele>160</ele>
        <time>2025-07-14T08:47:09Z</time>
      </trkpt>
      <trkpt lat="44.79239" lon="0.50526">
        <ele>160.2</ele>
        <time>2025-07-14T08:47:10Z</time>
      </trkpt>
      <trkpt lat="44.79242" lon="0.50523">
        <ele>160.4</ele>
        <time>2025-07-14T08:47:11Z</time>
      </trkpt>
      <trkpt lat="44.79245" lon="0.5052">
        <ele>160.4</ele>
        <time>2025-07-14T08:47:12Z</time>
      </trkpt>
      <trkpt lat="44.79248" lon="0.50518">
        <ele>160.6</ele>
        <time>2025-07-14T08:47:13Z</time>
      </trkpt>
      <trkpt lat="44.79251" lon="0.50515">
        <ele>160.6</ele>
        <time>2025-07-14T08:47:14Z</time>
      </trkpt>
      <trkpt lat="44.79255" lon="0.50512">
        <ele>160.6</ele>
        <time>2025-07-14T08:47:15Z</time>
      </trkpt>
      <trkpt lat="44.79259" lon="0.50509">
        <ele>160.4</ele>
        <time>2025-07-14T08:47:16Z</time>
      </trkpt>
      <trkpt lat="44.79262" lon="0.50505">
        <ele>160.4</ele>
        <time>2025-07-14T08:47:17Z</time>
      </trkpt>
      <trkpt lat="44.79266" lon="0.50501">
        <ele>160.4</ele>
        <time>2025-07-14T08:47:18Z</time>
      </trkpt>
      <trkpt lat="44.79269" lon="0.50496">
        <ele>160.4</ele>
        <time>2025-07-14T08:47:19Z</time>
      </trkpt>
      <trkpt lat="44.79273" lon="0.50495">
        <ele>160.4</ele>
        <time>2025-07-14T08:47:20Z</time>
      </trkpt>
      <trkpt lat="44.79277" lon="0.50496">
        <ele>160.4</ele>
        <time>2025-07-14T08:47:21Z</time>
      </trkpt>
      <trkpt lat="44.79282" lon="0.50496">
        <ele>160.2</ele>
        <time>2025-07-14T08:47:22Z</time>
      </trkpt>
      <trkpt lat="44.79288" lon="0.50495">
        <ele>160</ele>
        <time>2025-07-14T08:47:23Z</time>
      </trkpt>
      <trkpt lat="44.79294" lon="0.50496">
        <ele>159.4</ele>
        <time>2025-07-14T08:47:24Z</time>
      </trkpt>
      <trkpt lat="44.79301" lon="0.50496">
        <ele>158.8</ele>
        <time>2025-07-14T08:47:25Z</time>
      </trkpt>
      <trkpt lat="44.79308" lon="0.50497">
        <ele>157.8</ele>
        <time>2025-07-14T08:47:26Z</time>
      </trkpt>
      <trkpt lat="44.79316" lon="0.50498">
        <ele>157</ele>
        <time>2025-07-14T08:47:27Z</time>
      </trkpt>
      <trkpt lat="44.79324" lon="0.50497">
        <ele>156.6</ele>
        <time>2025-07-14T08:47:28Z</time>
      </trkpt>
      <trkpt lat="44.79333" lon="0.50496">
        <ele>156</ele>
        <time>2025-07-14T08:47:29Z</time>
      </trkpt>
      <trkpt lat="44.79341" lon="0.50495">
        <ele>155.6</ele>
        <time>2025-07-14T08:47:30Z</time>
      </trkpt>
      <trkpt lat="44.79349" lon="0.50494">
        <ele>155</ele>
        <time>2025-07-14T08:47:31Z</time>
      </trkpt>
      <trkpt lat="44.79357" lon="0.50494">
        <ele>154.2</ele>
        <time>2025-07-14T08:47:32Z</time>
      </trkpt>
      <trkpt lat="44.79365" lon="0.50493">
        <ele>153.6</ele>
        <time>2025-07-14T08:47:33Z</time>
      </trkpt>
      <trkpt lat="44.79373" lon="0.50493">
        <ele>153.2</ele>
        <time>2025-07-14T08:47:34Z</time>
      </trkpt>
      <trkpt lat="44.79381" lon="0.50492">
        <ele>152.6</ele>
        <time>2025-07-14T08:47:35Z</time>
      </trkpt>
      <trkpt lat="44.79388" lon="0.50493">
        <ele>152.2</ele>
        <time>2025-07-14T08:47:36Z</time>
      </trkpt>
      <trkpt lat="44.79396" lon="0.50494">
        <ele>151.8</ele>
        <time>2025-07-14T08:47:37Z</time>
      </trkpt>
      <trkpt lat="44.79403" lon="0.50493">
        <ele>151.4</ele>
        <time>2025-07-14T08:47:38Z</time>
      </trkpt>
      <trkpt lat="44.7941" lon="0.50494">
        <ele>150.8</ele>
        <time>2025-07-14T08:47:39Z</time>
      </trkpt>
      <trkpt lat="44.79417" lon="0.50494">
        <ele>150.2</ele>
        <time>2025-07-14T08:47:40Z</time>
      </trkpt>
      <trkpt lat="44.79424" lon="0.50493">
        <ele>149.8</ele>
        <time>2025-07-14T08:47:41Z</time>
      </trkpt>
      <trkpt lat="44.79431" lon="0.50492">
        <ele>149.4</ele>
        <time>2025-07-14T08:47:42Z</time>
      </trkpt>
      <trkpt lat="44.79437" lon="0.50493">
        <ele>149.4</ele>
        <time>2025-07-14T08:47:43Z</time>
      </trkpt>
      <trkpt lat="44.79443" lon="0.50493">
        <ele>149.2</ele>
        <time>2025-07-14T08:47:44Z</time>
      </trkpt>
      <trkpt lat="44.79449" lon="0.50492">
        <ele>149.2</ele>
        <time>2025-07-14T08:47:45Z</time>
      </trkpt>
      <trkpt lat="44.79453" lon="0.50488">
        <ele>149.2</ele>
        <time>2025-07-14T08:47:46Z</time>
      </trkpt>
      <trkpt lat="44.79455" lon="0.50483">
        <ele>149</ele>
        <time>2025-07-14T08:47:47Z</time>
      </trkpt>
      <trkpt lat="44.79455" lon="0.50478">
        <ele>149</ele>
        <time>2025-07-14T08:47:48Z</time>
      </trkpt>
      <trkpt lat="44.79455" lon="0.50473">
        <ele>149</ele>
        <time>2025-07-14T08:47:49Z</time>
      </trkpt>
      <trkpt lat="44.79454" lon="0.50469">
        <ele>149</ele>
        <time>2025-07-14T08:47:50Z</time>
      </trkpt>
      <trkpt lat="44.79454" lon="0.50465">
        <ele>149.2</ele>
        <time>2025-07-14T08:47:51Z</time>
      </trkpt>
      <trkpt lat="44.79454" lon="0.50461">
        <ele>149.6</ele>
        <time>2025-07-14T08:47:52Z</time>
      </trkpt>
      <trkpt lat="44.79454" lon="0.50457">
        <ele>149.8</ele>
        <time>2025-07-14T08:47:53Z</time>
      </trkpt>
      <trkpt lat="44.79454" lon="0.50454">
        <ele>150</ele>
        <time>2025-07-14T08:47:54Z</time>
      </trkpt>
      <trkpt lat="44.79454" lon="0.50451">
        <ele>150.2</ele>
        <time>2025-07-14T08:47:55Z</time>
      </trkpt>
      <trkpt lat="44.79454" lon="0.50448">
        <ele>150.4</ele>
        <time>2025-07-14T08:47:56Z</time>
      </trkpt>
      <trkpt lat="44.79454" lon="0.50445">
        <ele>150.8</ele>
        <time>2025-07-14T08:47:57Z</time>
      </trkpt>
      <trkpt lat="44.79454" lon="0.50442">
        <ele>151</ele>
        <time>2025-07-14T08:47:58Z</time>
      </trkpt>
      <trkpt lat="44.79455" lon="0.50439">
        <ele>151.2</ele>
        <time>2025-07-14T08:47:59Z</time>
      </trkpt>
      <trkpt lat="44.79455" lon="0.50435">
        <ele>151.6</ele>
        <time>2025-07-14T08:48:00Z</time>
      </trkpt>
      <trkpt lat="44.79455" lon="0.50432">
        <ele>151.8</ele>
        <time>2025-07-14T08:48:01Z</time>
      </trkpt>
      <trkpt lat="44.79455" lon="0.50429">
        <ele>152</ele>
        <time>2025-07-14T08:48:02Z</time>
      </trkpt>
      <trkpt lat="44.79456" lon="0.50426">
        <ele>152.2</ele>
        <time>2025-07-14T08:48:03Z</time>
      </trkpt>
      <trkpt lat="44.79456" lon="0.50423">
        <ele>152.4</ele>
        <time>2025-07-14T08:48:04Z</time>
      </trkpt>
      <trkpt lat="44.79456" lon="0.5042">
        <ele>152.6</ele>
        <time>2025-07-14T08:48:05Z</time>
      </trkpt>
      <trkpt lat="44.79456" lon="0.50417">
        <ele>152.8</ele>
        <time>2025-07-14T08:48:06Z</time>
      </trkpt>
      <trkpt lat="44.79456" lon="0.50413">
        <ele>153.2</ele>
        <time>2025-07-14T08:48:07Z</time>
      </trkpt>
      <trkpt lat="44.79456" lon="0.5041">
        <ele>153.4</ele>
        <time>2025-07-14T08:48:08Z</time>
      </trkpt>
      <trkpt lat="44.79456" lon="0.50407">
        <ele>153.6</ele>
        <time>2025-07-14T08:48:09Z</time>
      </trkpt>
      <trkpt lat="44.79456" lon="0.50405">
        <ele>153.8</ele>
        <time>2025-07-14T08:48:10Z</time>
      </trkpt>
      <trkpt lat="44.79456" lon="0.50402">
        <ele>154</ele>
        <time>2025-07-14T08:48:11Z</time>
      </trkpt>
      <trkpt lat="44.79456" lon="0.50399">
        <ele>154.2</ele>
        <time>2025-07-14T08:48:12Z</time>
      </trkpt>
      <trkpt lat="44.79456" lon="0.50397">
        <ele>154.4</ele>
        <time>2025-07-14T08:48:13Z</time>
      </trkpt>
      <trkpt lat="44.79456" lon="0.50394">
        <ele>154.8</ele>
        <time>2025-07-14T08:48:14Z</time>
      </trkpt>
      <trkpt lat="44.79456" lon="0.50392">
        <ele>155</ele>
        <time>2025-07-14T08:48:15Z</time>
      </trkpt>
      <trkpt lat="44.79456" lon="0.50389">
        <ele>155.2</ele>
        <time>2025-07-14T08:48:16Z</time>
      </trkpt>
      <trkpt lat="44.79455" lon="0.50387">
        <ele>155.4</ele>
        <time>2025-07-14T08:48:17Z</time>
      </trkpt>
      <trkpt lat="44.79455" lon="0.50384">
        <ele>155.8</ele>
        <time>2025-07-14T08:48:18Z</time>
      </trkpt>
      <trkpt lat="44.79455" lon="0.50382">
        <ele>156</ele>
        <time>2025-07-14T08:48:19Z</time>
      </trkpt>
      <trkpt lat="44.79455" lon="0.5038">
        <ele>156.2</ele>
        <time>2025-07-14T08:48:20Z</time>
      </trkpt>
      <trkpt lat="44.79455" lon="0.50378">
        <ele>156.4</ele>
        <time>2025-07-14T08:48:21Z</time>
      </trkpt>
      <trkpt lat="44.79455" lon="0.50375">
        <ele>156.8</ele>
        <time>2025-07-14T08:48:22Z</time>
      </trkpt>
      <trkpt lat="44.79455" lon="0.50372">
        <ele>157</ele>
        <time>2025-07-14T08:48:23Z</time>
      </trkpt>
      <trkpt lat="44.79456" lon="0.5037">
        <ele>157.2</ele>
        <time>2025-07-14T08:48:24Z</time>
      </trkpt>
      <trkpt lat="44.79456" lon="0.50367">
        <ele>157.2</ele>
        <time>2025-07-14T08:48:25Z</time>
      </trkpt>
      <trkpt lat="44.79456" lon="0.50364">
        <ele>157.4</ele>
        <time>2025-07-14T08:48:26Z</time>
      </trkpt>
      <trkpt lat="44.79456" lon="0.50361">
        <ele>157.4</ele>
        <time>2025-07-14T08:48:27Z</time>
      </trkpt>
      <trkpt lat="44.79456" lon="0.50358">
        <ele>157.6</ele>
        <time>2025-07-14T08:48:28Z</time>
      </trkpt>
      <trkpt lat="44.79456" lon="0.50355">
        <ele>157.8</ele>
        <time>2025-07-14T08:48:29Z</time>
      </trkpt>
      <trkpt lat="44.79457" lon="0.50352">
        <ele>158</ele>
        <time>2025-07-14T08:48:30Z</time>
      </trkpt>
      <trkpt lat="44.79457" lon="0.50348">
        <ele>158</ele>
        <time>2025-07-14T08:48:31Z</time>
      </trkpt>
      <trkpt lat="44.79457" lon="0.50345">
        <ele>158.2</ele>
        <time>2025-07-14T08:48:32Z</time>
      </trkpt>
      <trkpt lat="44.79457" lon="0.50342">
        <ele>158.4</ele>
        <time>2025-07-14T08:48:33Z</time>
      </trkpt>
      <trkpt lat="44.79458" lon="0.50339">
        <ele>158.6</ele>
        <time>2025-07-14T08:48:34Z</time>
      </trkpt>
      <trkpt lat="44.79458" lon="0.50336">
        <ele>158.8</ele>
        <time>2025-07-14T08:48:35Z</time>
      </trkpt>
      <trkpt lat="44.79458" lon="0.50333">
        <ele>159</ele>
        <time>2025-07-14T08:48:36Z</time>
      </trkpt>
      <trkpt lat="44.79459" lon="0.5033">
        <ele>159.2</ele>
        <time>2025-07-14T08:48:37Z</time>
      </trkpt>
      <trkpt lat="44.79459" lon="0.50326">
        <ele>159.2</ele>
        <time>2025-07-14T08:48:38Z</time>
      </trkpt>
      <trkpt lat="44.7946" lon="0.50323">
        <ele>159.6</ele>
        <time>2025-07-14T08:48:39Z</time>
      </trkpt>
      <trkpt lat="44.7946" lon="0.50319">
        <ele>159.6</ele>
        <time>2025-07-14T08:48:40Z</time>
      </trkpt>
      <trkpt lat="44.7946" lon="0.50316">
        <ele>159.8</ele>
        <time>2025-07-14T08:48:41Z</time>
      </trkpt>
      <trkpt lat="44.79461" lon="0.50314">
        <ele>160</ele>
        <time>2025-07-14T08:48:42Z</time>
      </trkpt>
      <trkpt lat="44.79462" lon="0.5031">
        <ele>160.2</ele>
        <time>2025-07-14T08:48:43Z</time>
      </trkpt>
      <trkpt lat="44.79463" lon="0.50307">
        <ele>160.4</ele>
        <time>2025-07-14T08:48:44Z</time>
      </trkpt>
      <trkpt lat="44.79465" lon="0.50304">
        <ele>160.4</ele>
        <time>2025-07-14T08:48:45Z</time>
      </trkpt>
      <trkpt lat="44.79468" lon="0.50302">
        <ele>160.4</ele>
        <time>2025-07-14T08:48:46Z</time>
      </trkpt>
      <trkpt lat="44.79472" lon="0.50301">
        <ele>160.4</ele>
        <time>2025-07-14T08:48:47Z</time>
      </trkpt>
      <trkpt lat="44.79476" lon="0.50299">
        <ele>160.4</ele>
        <time>2025-07-14T08:48:48Z</time>
      </trkpt>
      <trkpt lat="44.7948" lon="0.50295">
        <ele>160.4</ele>
        <time>2025-07-14T08:48:49Z</time>
      </trkpt>
      <trkpt lat="44.79482" lon="0.50291">
        <ele>160.2</ele>
        <time>2025-07-14T08:48:50Z</time>
      </trkpt>
      <trkpt lat="44.79484" lon="0.50287">
        <ele>160.2</ele>
        <time>2025-07-14T08:48:51Z</time>
      </trkpt>
      <trkpt lat="44.79487" lon="0.50282">
        <ele>160.2</ele>
        <time>2025-07-14T08:48:52Z</time>
      </trkpt>
      <trkpt lat="44.79488" lon="0.50276">
        <ele>160.2</ele>
        <time>2025-07-14T08:48:53Z</time>
      </trkpt>
      <trkpt lat="44.7949" lon="0.5027">
        <ele>160.2</ele>
        <time>2025-07-14T08:48:54Z</time>
      </trkpt>
      <trkpt lat="44.79492" lon="0.50264">
        <ele>160.2</ele>
        <time>2025-07-14T08:48:55Z</time>
      </trkpt>
      <trkpt lat="44.79494" lon="0.50257">
        <ele>160</ele>
        <time>2025-07-14T08:48:56Z</time>
      </trkpt>
      <trkpt lat="44.79495" lon="0.5025">
        <ele>160</ele>
        <time>2025-07-14T08:48:57Z</time>
      </trkpt>
      <trkpt lat="44.79496" lon="0.50243">
        <ele>159.8</ele>
        <time>2025-07-14T08:48:58Z</time>
      </trkpt>
      <trkpt lat="44.79497" lon="0.50236">
        <ele>159.6</ele>
        <time>2025-07-14T08:48:59Z</time>
      </trkpt>
      <trkpt lat="44.79498" lon="0.50229">
        <ele>159.6</ele>
        <time>2025-07-14T08:49:00Z</time>
      </trkpt>
      <trkpt lat="44.79499" lon="0.50222">
        <ele>159.4</ele>
        <time>2025-07-14T08:49:01Z</time>
      </trkpt>
      <trkpt lat="44.795" lon="0.50215">
        <ele>159.2</ele>
        <time>2025-07-14T08:49:02Z</time>
      </trkpt>
      <trkpt lat="44.79501" lon="0.50207">
        <ele>159</ele>
        <time>2025-07-14T08:49:03Z</time>
      </trkpt>
      <trkpt lat="44.79502" lon="0.50199">
        <ele>159</ele>
        <time>2025-07-14T08:49:04Z</time>
      </trkpt>
      <trkpt lat="44.79504" lon="0.50191">
        <ele>158.8</ele>
        <time>2025-07-14T08:49:05Z</time>
      </trkpt>
      <trkpt lat="44.79505" lon="0.50182">
        <ele>158.8</ele>
        <time>2025-07-14T08:49:06Z</time>
      </trkpt>
      <trkpt lat="44.79507" lon="0.50174">
        <ele>158.8</ele>
        <time>2025-07-14T08:49:07Z</time>
      </trkpt>
      <trkpt lat="44.79508" lon="0.50166">
        <ele>158.8</ele>
        <time>2025-07-14T08:49:08Z</time>
      </trkpt>
      <trkpt lat="44.7951" lon="0.50158">
        <ele>158.8</ele>
        <time>2025-07-14T08:49:09Z</time>
      </trkpt>
      <trkpt lat="44.79511" lon="0.5015">
        <ele>158.6</ele>
        <time>2025-07-14T08:49:10Z</time>
      </trkpt>
      <trkpt lat="44.79513" lon="0.50141">
        <ele>158.6</ele>
        <time>2025-07-14T08:49:11Z</time>
      </trkpt>
      <trkpt lat="44.79515" lon="0.50133">
        <ele>158.6</ele>
        <time>2025-07-14T08:49:12Z</time>
      </trkpt>
      <trkpt lat="44.79517" lon="0.50125">
        <ele>158.4</ele>
        <time>2025-07-14T08:49:13Z</time>
      </trkpt>
      <trkpt lat="44.79518" lon="0.50116">
        <ele>158.4</ele>
        <time>2025-07-14T08:49:14Z</time>
      </trkpt>
      <trkpt lat="44.7952" lon="0.50108">
        <ele>158.4</ele>
        <time>2025-07-14T08:49:15Z</time>
      </trkpt>
      <trkpt lat="44.79521" lon="0.501">
        <ele>158.4</ele>
        <time>2025-07-14T08:49:16Z</time>
      </trkpt>
      <trkpt lat="44.79523" lon="0.50092">
        <ele>158.4</ele>
        <time>2025-07-14T08:49:17Z</time>
      </trkpt>
      <trkpt lat="44.79524" lon="0.50083">
        <ele>158.4</ele>
        <time>2025-07-14T08:49:18Z</time>
      </trkpt>
      <trkpt lat="44.79526" lon="0.50075">
        <ele>158.4</ele>
        <time>2025-07-14T08:49:19Z</time>
      </trkpt>
      <trkpt lat="44.79528" lon="0.50067">
        <ele>158.4</ele>
        <time>2025-07-14T08:49:20Z</time>
      </trkpt>
      <trkpt lat="44.79529" lon="0.50058">
        <ele>158.4</ele>
        <time>2025-07-14T08:49:21Z</time>
      </trkpt>
      <trkpt lat="44.79531" lon="0.5005">
        <ele>158.4</ele>
        <time>2025-07-14T08:49:22Z</time>
      </trkpt>
      <trkpt lat="44.79533" lon="0.50042">
        <ele>158.2</ele>
        <time>2025-07-14T08:49:23Z</time>
      </trkpt>
      <trkpt lat="44.79535" lon="0.50033">
        <ele>158.2</ele>
        <time>2025-07-14T08:49:24Z</time>
      </trkpt>
      <trkpt lat="44.79536" lon="0.50024">
        <ele>158</ele>
        <time>2025-07-14T08:49:25Z</time>
      </trkpt>
      <trkpt lat="44.79538" lon="0.50015">
        <ele>158</ele>
        <time>2025-07-14T08:49:26Z</time>
      </trkpt>
      <trkpt lat="44.7954" lon="0.50006">
        <ele>157.8</ele>
        <time>2025-07-14T08:49:27Z</time>
      </trkpt>
      <trkpt lat="44.79542" lon="0.49996">
        <ele>157.8</ele>
        <time>2025-07-14T08:49:28Z</time>
      </trkpt>
      <trkpt lat="44.79542" lon="0.49989">
        <ele>157.6</ele>
        <time>2025-07-14T08:49:29Z</time>
      </trkpt>
      <trkpt lat="44.79541" lon="0.49982">
        <ele>157.2</ele>
        <time>2025-07-14T08:49:30Z</time>
      </trkpt>
      <trkpt lat="44.79539" lon="0.49977">
        <ele>157</ele>
        <time>2025-07-14T08:49:31Z</time>
      </trkpt>
      <trkpt lat="44.79536" lon="0.49975">
        <ele>156.8</ele>
        <time>2025-07-14T08:49:32Z</time>
      </trkpt>
      <trkpt lat="44.79533" lon="0.49974">
        <ele>156.8</ele>
        <time>2025-07-14T08:49:33Z</time>
      </trkpt>
      <trkpt lat="44.7953" lon="0.49971">
        <ele>156.6</ele>
        <time>2025-07-14T08:49:34Z</time>
      </trkpt>
      <trkpt lat="44.79528" lon="0.49967">
        <ele>156.8</ele>
        <time>2025-07-14T08:49:35Z</time>
      </trkpt>
      <trkpt lat="44.79526" lon="0.49962">
        <ele>156.8</ele>
        <time>2025-07-14T08:49:36Z</time>
      </trkpt>
      <trkpt lat="44.79525" lon="0.49956">
        <ele>156.8</ele>
        <time>2025-07-14T08:49:37Z</time>
      </trkpt>
      <trkpt lat="44.79524" lon="0.4995">
        <ele>157</ele>
        <time>2025-07-14T08:49:38Z</time>
      </trkpt>
      <trkpt lat="44.79523" lon="0.49944">
        <ele>157</ele>
        <time>2025-07-14T08:49:39Z</time>
      </trkpt>
      <trkpt lat="44.79522" lon="0.49938">
        <ele>157</ele>
        <time>2025-07-14T08:49:40Z</time>
      </trkpt>
      <trkpt lat="44.79521" lon="0.4993">
        <ele>157</ele>
        <time>2025-07-14T08:49:41Z</time>
      </trkpt>
      <trkpt lat="44.79522" lon="0.49924">
        <ele>157</ele>
        <time>2025-07-14T08:49:42Z</time>
      </trkpt>
      <trkpt lat="44.79524" lon="0.49919">
        <ele>156.8</ele>
        <time>2025-07-14T08:49:43Z</time>
      </trkpt>
      <trkpt lat="44.79527" lon="0.49913">
        <ele>156.6</ele>
        <time>2025-07-14T08:49:44Z</time>
      </trkpt>
      <trkpt lat="44.7953" lon="0.49906">
        <ele>156</ele>
        <time>2025-07-14T08:49:45Z</time>
      </trkpt>
      <trkpt lat="44.79534" lon="0.49898">
        <ele>155.6</ele>
        <time>2025-07-14T08:49:46Z</time>
      </trkpt>
      <trkpt lat="44.79537" lon="0.49889">
        <ele>154.8</ele>
        <time>2025-07-14T08:49:47Z</time>
      </trkpt>
      <trkpt lat="44.79541" lon="0.49879">
        <ele>154.2</ele>
        <time>2025-07-14T08:49:48Z</time>
      </trkpt>
      <trkpt lat="44.79546" lon="0.49867">
        <ele>153.6</ele>
        <time>2025-07-14T08:49:49Z</time>
      </trkpt>
      <trkpt lat="44.79551" lon="0.49854">
        <ele>152.4</ele>
        <time>2025-07-14T08:49:50Z</time>
      </trkpt>
      <trkpt lat="44.79558" lon="0.49841">
        <ele>150.6</ele>
        <time>2025-07-14T08:49:51Z</time>
      </trkpt>
      <trkpt lat="44.79566" lon="0.49831">
        <ele>149.4</ele>
        <time>2025-07-14T08:49:52Z</time>
      </trkpt>
      <trkpt lat="44.79575" lon="0.4982">
        <ele>148.2</ele>
        <time>2025-07-14T08:49:53Z</time>
      </trkpt>
      <trkpt lat="44.79584" lon="0.4981">
        <ele>147</ele>
        <time>2025-07-14T08:49:54Z</time>
      </trkpt>
      <trkpt lat="44.7959" lon="0.49799">
        <ele>145.8</ele>
        <time>2025-07-14T08:49:55Z</time>
      </trkpt>
      <trkpt lat="44.79594" lon="0.49791">
        <ele>144.8</ele>
        <time>2025-07-14T08:49:56Z</time>
      </trkpt>
      <trkpt lat="44.79597" lon="0.49783">
        <ele>144</ele>
        <time>2025-07-14T08:49:57Z</time>
      </trkpt>
      <trkpt lat="44.79601" lon="0.49777">
        <ele>143.6</ele>
        <time>2025-07-14T08:49:58Z</time>
      </trkpt>
      <trkpt lat="44.79606" lon="0.49775">
        <ele>143.6</ele>
        <time>2025-07-14T08:49:59Z</time>
      </trkpt>
      <trkpt lat="44.79611" lon="0.49775">
        <ele>143.6</ele>
        <time>2025-07-14T08:50:00Z</time>
      </trkpt>
      <trkpt lat="44.79615" lon="0.49773">
        <ele>143.6</ele>
        <time>2025-07-14T08:50:01Z</time>
      </trkpt>
      <trkpt lat="44.7962" lon="0.4977">
        <ele>143.4</ele>
        <time>2025-07-14T08:50:02Z</time>
      </trkpt>
      <trkpt lat="44.79625" lon="0.49765">
        <ele>143.2</ele>
        <time>2025-07-14T08:50:03Z</time>
      </trkpt>
      <trkpt lat="44.79629" lon="0.49761">
        <ele>143</ele>
        <time>2025-07-14T08:50:04Z</time>
      </trkpt>
      <trkpt lat="44.79632" lon="0.49757">
        <ele>142.6</ele>
        <time>2025-07-14T08:50:05Z</time>
      </trkpt>
      <trkpt lat="44.79634" lon="0.49755">
        <ele>142.4</ele>
        <time>2025-07-14T08:50:06Z</time>
      </trkpt>
      <trkpt lat="44.79635" lon="0.49752">
        <ele>142.2</ele>
        <time>2025-07-14T08:50:07Z</time>
      </trkpt>
      <trkpt lat="44.79637" lon="0.49751">
        <ele>142</ele>
        <time>2025-07-14T08:50:08Z</time>
      </trkpt>
      <trkpt lat="44.79638" lon="0.49749">
        <ele>142</ele>
        <time>2025-07-14T08:50:09Z</time>
      </trkpt>
      <trkpt lat="44.79639" lon="0.49749">
        <ele>141.8</ele>
        <time>2025-07-14T08:50:10Z</time>
      </trkpt>
      <trkpt lat="44.79641" lon="0.49748">
        <ele>141.8</ele>
        <time>2025-07-14T08:50:11Z</time>
      </trkpt>
      <trkpt lat="44.79642" lon="0.49748">
        <ele>141.8</ele>
        <time>2025-07-14T08:50:12Z</time>
      </trkpt>
      <trkpt lat="44.79643" lon="0.49747">
        <ele>141.6</ele>
        <time>2025-07-14T08:50:13Z</time>
      </trkpt>
      <trkpt lat="44.79644" lon="0.49745">
        <ele>141.4</ele>
        <time>2025-07-14T08:50:14Z</time>
      </trkpt>
      <trkpt lat="44.79644" lon="0.49745">
        <ele>141.2</ele>
        <time>2025-07-14T08:50:15Z</time>
      </trkpt>
      <trkpt lat="44.79656" lon="0.49718">
        <ele>142</ele>
        <time>2025-07-14T08:50:41Z</time>
      </trkpt>
      <trkpt lat="44.79657" lon="0.49715">
        <ele>141.8</ele>
        <time>2025-07-14T08:50:42Z</time>
      </trkpt>
      <trkpt lat="44.79658" lon="0.49713">
        <ele>141.8</ele>
        <time>2025-07-14T08:50:43Z</time>
      </trkpt>
      <trkpt lat="44.79659" lon="0.49711">
        <ele>141.8</ele>
        <time>2025-07-14T08:50:44Z</time>
      </trkpt>
      <trkpt lat="44.79659" lon="0.49711">
        <ele>141.8</ele>
        <time>2025-07-14T08:50:45Z</time>
      </trkpt>
      <trkpt lat="44.7966" lon="0.49711">
        <ele>141.8</ele>
        <time>2025-07-14T08:50:46Z</time>
      </trkpt>
      <trkpt lat="44.7966" lon="0.49709">
        <ele>141.8</ele>
        <time>2025-07-14T08:50:47Z</time>
      </trkpt>
      <trkpt lat="44.79661" lon="0.49709">
        <ele>141.8</ele>
        <time>2025-07-14T08:50:48Z</time>
      </trkpt>
      <trkpt lat="44.79661" lon="0.49708">
        <ele>141.8</ele>
        <time>2025-07-14T08:50:49Z</time>
      </trkpt>
      <trkpt lat="44.79662" lon="0.49706">
        <ele>141.8</ele>
        <time>2025-07-14T08:50:50Z</time>
      </trkpt>
      <trkpt lat="44.79663" lon="0.49705">
        <ele>141.6</ele>
        <time>2025-07-14T08:50:51Z</time>
      </trkpt>
      <trkpt lat="44.79664" lon="0.49702">
        <ele>141.6</ele>
        <time>2025-07-14T08:50:52Z</time>
      </trkpt>
      <trkpt lat="44.79666" lon="0.49699">
        <ele>141.4</ele>
        <time>2025-07-14T08:50:53Z</time>
      </trkpt>
      <trkpt lat="44.79667" lon="0.49696">
        <ele>141.2</ele>
        <time>2025-07-14T08:50:54Z</time>
      </trkpt>
      <trkpt lat="44.79668" lon="0.49694">
        <ele>141.2</ele>
        <time>2025-07-14T08:50:55Z</time>
      </trkpt>
      <trkpt lat="44.79669" lon="0.49691">
        <ele>141.2</ele>
        <time>2025-07-14T08:50:56Z</time>
      </trkpt>
      <trkpt lat="44.7967" lon="0.49688">
        <ele>141.2</ele>
        <time>2025-07-14T08:50:57Z</time>
      </trkpt>
      <trkpt lat="44.7967" lon="0.49685">
        <ele>141.2</ele>
        <time>2025-07-14T08:50:58Z</time>
      </trkpt>
      <trkpt lat="44.79671" lon="0.49681">
        <ele>141.2</ele>
        <time>2025-07-14T08:50:59Z</time>
      </trkpt>
      <trkpt lat="44.79672" lon="0.49677">
        <ele>141.4</ele>
        <time>2025-07-14T08:51:00Z</time>
      </trkpt>
      <trkpt lat="44.79672" lon="0.49673">
        <ele>141.4</ele>
        <time>2025-07-14T08:51:01Z</time>
      </trkpt>
      <trkpt lat="44.79673" lon="0.49669">
        <ele>141.6</ele>
        <time>2025-07-14T08:51:02Z</time>
      </trkpt>
      <trkpt lat="44.79673" lon="0.49666">
        <ele>141.6</ele>
        <time>2025-07-14T08:51:03Z</time>
      </trkpt>
      <trkpt lat="44.79674" lon="0.49661">
        <ele>141.6</ele>
        <time>2025-07-14T08:51:04Z</time>
      </trkpt>
      <trkpt lat="44.79674" lon="0.49657">
        <ele>141.8</ele>
        <time>2025-07-14T08:51:05Z</time>
      </trkpt>
      <trkpt lat="44.79675" lon="0.49652">
        <ele>141.8</ele>
        <time>2025-07-14T08:51:06Z</time>
      </trkpt>
      <trkpt lat="44.79676" lon="0.49646">
        <ele>141.8</ele>
        <time>2025-07-14T08:51:07Z</time>
      </trkpt>
      <trkpt lat="44.79678" lon="0.4964">
        <ele>141.8</ele>
        <time>2025-07-14T08:51:08Z</time>
      </trkpt>
      <trkpt lat="44.7968" lon="0.49634">
        <ele>141.6</ele>
        <time>2025-07-14T08:51:09Z</time>
      </trkpt>
      <trkpt lat="44.79681" lon="0.49628">
        <ele>141.6</ele>
        <time>2025-07-14T08:51:10Z</time>
      </trkpt>
      <trkpt lat="44.79683" lon="0.49623">
        <ele>141.4</ele>
        <time>2025-07-14T08:51:11Z</time>
      </trkpt>
      <trkpt lat="44.79684" lon="0.49617">
        <ele>141.4</ele>
        <time>2025-07-14T08:51:12Z</time>
      </trkpt>
      <trkpt lat="44.79686" lon="0.4961">
        <ele>141.2</ele>
        <time>2025-07-14T08:51:13Z</time>
      </trkpt>
      <trkpt lat="44.79689" lon="0.49604">
        <ele>141.2</ele>
        <time>2025-07-14T08:51:14Z</time>
      </trkpt>
      <trkpt lat="44.79693" lon="0.49597">
        <ele>140.8</ele>
        <time>2025-07-14T08:51:15Z</time>
      </trkpt>
      <trkpt lat="44.79698" lon="0.49589">
        <ele>140.4</ele>
        <time>2025-07-14T08:51:16Z</time>
      </trkpt>
      <trkpt lat="44.79704" lon="0.49581">
        <ele>139.8</ele>
        <time>2025-07-14T08:51:17Z</time>
      </trkpt>
      <trkpt lat="44.79709" lon="0.49573">
        <ele>139.2</ele>
        <time>2025-07-14T08:51:18Z</time>
      </trkpt>
      <trkpt lat="44.79713" lon="0.49565">
        <ele>138.4</ele>
        <time>2025-07-14T08:51:19Z</time>
      </trkpt>
      <trkpt lat="44.79718" lon="0.49559">
        <ele>137.8</ele>
        <time>2025-07-14T08:51:20Z</time>
      </trkpt>
      <trkpt lat="44.79723" lon="0.49552">
        <ele>137.4</ele>
        <time>2025-07-14T08:51:21Z</time>
      </trkpt>
      <trkpt lat="44.79729" lon="0.49546">
        <ele>136.8</ele>
        <time>2025-07-14T08:51:22Z</time>
      </trkpt>
      <trkpt lat="44.79734" lon="0.4954">
        <ele>136.2</ele>
        <time>2025-07-14T08:51:23Z</time>
      </trkpt>
      <trkpt lat="44.79738" lon="0.49532">
        <ele>135.8</ele>
        <time>2025-07-14T08:51:24Z</time>
      </trkpt>
      <trkpt lat="44.79739" lon="0.49525">
        <ele>135.4</ele>
        <time>2025-07-14T08:51:25Z</time>
      </trkpt>
      <trkpt lat="44.79741" lon="0.49519">
        <ele>135.2</ele>
        <time>2025-07-14T08:51:26Z</time>
      </trkpt>
      <trkpt lat="44.79742" lon="0.49514">
        <ele>135.2</ele>
        <time>2025-07-14T08:51:27Z</time>
      </trkpt>
      <trkpt lat="44.79743" lon="0.4951">
        <ele>135.2</ele>
        <time>2025-07-14T08:51:28Z</time>
      </trkpt>
      <trkpt lat="44.79744" lon="0.49505">
        <ele>135.2</ele>
        <time>2025-07-14T08:51:29Z</time>
      </trkpt>
      <trkpt lat="44.79745" lon="0.49501">
        <ele>135.4</ele>
        <time>2025-07-14T08:51:30Z</time>
      </trkpt>
      <trkpt lat="44.79746" lon="0.49497">
        <ele>135.6</ele>
        <time>2025-07-14T08:51:31Z</time>
      </trkpt>
      <trkpt lat="44.79747" lon="0.49493">
        <ele>135.8</ele>
        <time>2025-07-14T08:51:32Z</time>
      </trkpt>
      <trkpt lat="44.79747" lon="0.49489">
        <ele>135.8</ele>
        <time>2025-07-14T08:51:33Z</time>
      </trkpt>
      <trkpt lat="44.79748" lon="0.49485">
        <ele>136</ele>
        <time>2025-07-14T08:51:34Z</time>
      </trkpt>
      <trkpt lat="44.7975" lon="0.4948">
        <ele>136.2</ele>
        <time>2025-07-14T08:51:35Z</time>
      </trkpt>
      <trkpt lat="44.79751" lon="0.49475">
        <ele>136.2</ele>
        <time>2025-07-14T08:51:36Z</time>
      </trkpt>
      <trkpt lat="44.79753" lon="0.4947">
        <ele>136.4</ele>
        <time>2025-07-14T08:51:37Z</time>
      </trkpt>
      <trkpt lat="44.79753" lon="0.49466">
        <ele>136.6</ele>
        <time>2025-07-14T08:51:38Z</time>
      </trkpt>
      <trkpt lat="44.79754" lon="0.49461">
        <ele>136.6</ele>
        <time>2025-07-14T08:51:39Z</time>
      </trkpt>
      <trkpt lat="44.79755" lon="0.49457">
        <ele>136.8</ele>
        <time>2025-07-14T08:51:40Z</time>
      </trkpt>
      <trkpt lat="44.79756" lon="0.49452">
        <ele>136.8</ele>
        <time>2025-07-14T08:51:41Z</time>
      </trkpt>
      <trkpt lat="44.79756" lon="0.49448">
        <ele>137</ele>
        <time>2025-07-14T08:51:42Z</time>
      </trkpt>
      <trkpt lat="44.79757" lon="0.49443">
        <ele>137.2</ele>
        <time>2025-07-14T08:51:43Z</time>
      </trkpt>
      <trkpt lat="44.79757" lon="0.49439">
        <ele>137.4</ele>
        <time>2025-07-14T08:51:44Z</time>
      </trkpt>
      <trkpt lat="44.79758" lon="0.49436">
        <ele>137.4</ele>
        <time>2025-07-14T08:51:45Z</time>
      </trkpt>
      <trkpt lat="44.79759" lon="0.49433">
        <ele>137.6</ele>
        <time>2025-07-14T08:51:46Z</time>
      </trkpt>
      <trkpt lat="44.7976" lon="0.4943">
        <ele>138</ele>
        <time>2025-07-14T08:51:47Z</time>
      </trkpt>
      <trkpt lat="44.79761" lon="0.49426">
        <ele>138.2</ele>
        <time>2025-07-14T08:51:48Z</time>
      </trkpt>
      <trkpt lat="44.79762" lon="0.49423">
        <ele>138.4</ele>
        <time>2025-07-14T08:51:49Z</time>
      </trkpt>
      <trkpt lat="44.79763" lon="0.4942">
        <ele>138.8</ele>
        <time>2025-07-14T08:51:50Z</time>
      </trkpt>
      <trkpt lat="44.79763" lon="0.49417">
        <ele>139</ele>
        <time>2025-07-14T08:51:51Z</time>
      </trkpt>
      <trkpt lat="44.79764" lon="0.49414">
        <ele>139.2</ele>
        <time>2025-07-14T08:51:52Z</time>
      </trkpt>
      <trkpt lat="44.79765" lon="0.49412">
        <ele>139.4</ele>
        <time>2025-07-14T08:51:53Z</time>
      </trkpt>
      <trkpt lat="44.79766" lon="0.49409">
        <ele>139.6</ele>
        <time>2025-07-14T08:51:54Z</time>
      </trkpt>
      <trkpt lat="44.79767" lon="0.49406">
        <ele>139.8</ele>
        <time>2025-07-14T08:51:55Z</time>
      </trkpt>
      <trkpt lat="44.79767" lon="0.49403">
        <ele>140</ele>
        <time>2025-07-14T08:51:56Z</time>
      </trkpt>
      <trkpt lat="44.79768" lon="0.49399">
        <ele>140</ele>
        <time>2025-07-14T08:51:57Z</time>
      </trkpt>
      <trkpt lat="44.79769" lon="0.49396">
        <ele>140.2</ele>
        <time>2025-07-14T08:51:58Z</time>
      </trkpt>
      <trkpt lat="44.7977" lon="0.49393">
        <ele>140.4</ele>
        <time>2025-07-14T08:51:59Z</time>
      </trkpt>
      <trkpt lat="44.79771" lon="0.49389">
        <ele>140.6</ele>
        <time>2025-07-14T08:52:00Z</time>
      </trkpt>
      <trkpt lat="44.79772" lon="0.49386">
        <ele>140.6</ele>
        <time>2025-07-14T08:52:01Z</time>
      </trkpt>
      <trkpt lat="44.79773" lon="0.49382">
        <ele>140.8</ele>
        <time>2025-07-14T08:52:02Z</time>
      </trkpt>
      <trkpt lat="44.79775" lon="0.49378">
        <ele>140.8</ele>
        <time>2025-07-14T08:52:03Z</time>
      </trkpt>
      <trkpt lat="44.79776" lon="0.49372">
        <ele>140.8</ele>
        <time>2025-07-14T08:52:04Z</time>
      </trkpt>
      <trkpt lat="44.79777" lon="0.49365">
        <ele>141</ele>
        <time>2025-07-14T08:52:05Z</time>
      </trkpt>
      <trkpt lat="44.79778" lon="0.49359">
        <ele>141</ele>
        <time>2025-07-14T08:52:06Z</time>
      </trkpt>
      <trkpt lat="44.79777" lon="0.49352">
        <ele>140.8</ele>
        <time>2025-07-14T08:52:07Z</time>
      </trkpt>
      <trkpt lat="44.79778" lon="0.49346">
        <ele>140.8</ele>
        <time>2025-07-14T08:52:08Z</time>
      </trkpt>
      <trkpt lat="44.79781" lon="0.49342">
        <ele>140.6</ele>
        <time>2025-07-14T08:52:09Z</time>
      </trkpt>
      <trkpt lat="44.79785" lon="0.4934">
        <ele>140.4</ele>
        <time>2025-07-14T08:52:10Z</time>
      </trkpt>
      <trkpt lat="44.7979" lon="0.49338">
        <ele>140</ele>
        <time>2025-07-14T08:52:11Z</time>
      </trkpt>
      <trkpt lat="44.79796" lon="0.49336">
        <ele>139.6</ele>
        <time>2025-07-14T08:52:12Z</time>
      </trkpt>
      <trkpt lat="44.79802" lon="0.49333">
        <ele>139</ele>
        <time>2025-07-14T08:52:13Z</time>
      </trkpt>
      <trkpt lat="44.79808" lon="0.49329">
        <ele>138.4</ele>
        <time>2025-07-14T08:52:14Z</time>
      </trkpt>
      <trkpt lat="44.79814" lon="0.49323">
        <ele>137.4</ele>
        <time>2025-07-14T08:52:15Z</time>
      </trkpt>
      <trkpt lat="44.79821" lon="0.49319">
        <ele>136.4</ele>
        <time>2025-07-14T08:52:16Z</time>
      </trkpt>
      <trkpt lat="44.79827" lon="0.49314">
        <ele>135.2</ele>
        <time>2025-07-14T08:52:17Z</time>
      </trkpt>
      <trkpt lat="44.79834" lon="0.4931">
        <ele>134.4</ele>
        <time>2025-07-14T08:52:18Z</time>
      </trkpt>
      <trkpt lat="44.79842" lon="0.49308">
        <ele>133.6</ele>
        <time>2025-07-14T08:52:19Z</time>
      </trkpt>
      <trkpt lat="44.7985" lon="0.49308">
        <ele>132.8</ele>
        <time>2025-07-14T08:52:20Z</time>
      </trkpt>
      <trkpt lat="44.79857" lon="0.49308">
        <ele>131.8</ele>
        <time>2025-07-14T08:52:21Z</time>
      </trkpt>
      <trkpt lat="44.79864" lon="0.49308">
        <ele>130.6</ele>
        <time>2025-07-14T08:52:22Z</time>
      </trkpt>
      <trkpt lat="44.79869" lon="0.49309">
        <ele>129.6</ele>
        <time>2025-07-14T08:52:23Z</time>
      </trkpt>
      <trkpt lat="44.79874" lon="0.49309">
        <ele>128.6</ele>
        <time>2025-07-14T08:52:24Z</time>
      </trkpt>
      <trkpt lat="44.79877" lon="0.49308">
        <ele>127.8</ele>
        <time>2025-07-14T08:52:25Z</time>
      </trkpt>
      <trkpt lat="44.7988" lon="0.49305">
        <ele>127.2</ele>
        <time>2025-07-14T08:52:26Z</time>
      </trkpt>
      <trkpt lat="44.79882" lon="0.49302">
        <ele>126.6</ele>
        <time>2025-07-14T08:52:27Z</time>
      </trkpt>
      <trkpt lat="44.79883" lon="0.49298">
        <ele>126</ele>
        <time>2025-07-14T08:52:28Z</time>
      </trkpt>
      <trkpt lat="44.79883" lon="0.49294">
        <ele>125.6</ele>
        <time>2025-07-14T08:52:29Z</time>
      </trkpt>
      <trkpt lat="44.79881" lon="0.4929">
        <ele>125.4</ele>
        <time>2025-07-14T08:52:30Z</time>
      </trkpt>
      <trkpt lat="44.79879" lon="0.49287">
        <ele>125.2</ele>
        <time>2025-07-14T08:52:31Z</time>
      </trkpt>
      <trkpt lat="44.79876" lon="0.49285">
        <ele>125.2</ele>
        <time>2025-07-14T08:52:32Z</time>
      </trkpt>
      <trkpt lat="44.79874" lon="0.49281">
        <ele>125.2</ele>
        <time>2025-07-14T08:52:33Z</time>
      </trkpt>
      <trkpt lat="44.79872" lon="0.49278">
        <ele>125.4</ele>
        <time>2025-07-14T08:52:34Z</time>
      </trkpt>
      <trkpt lat="44.7987" lon="0.49275">
        <ele>125.4</ele>
        <time>2025-07-14T08:52:35Z</time>
      </trkpt>
      <trkpt lat="44.79868" lon="0.49272">
        <ele>125.6</ele>
        <time>2025-07-14T08:52:36Z</time>
      </trkpt>
      <trkpt lat="44.79867" lon="0.49269">
        <ele>125.8</ele>
        <time>2025-07-14T08:52:37Z</time>
      </trkpt>
      <trkpt lat="44.79866" lon="0.49265">
        <ele>126</ele>
        <time>2025-07-14T08:52:38Z</time>
      </trkpt>
      <trkpt lat="44.79865" lon="0.49261">
        <ele>126.2</ele>
        <time>2025-07-14T08:52:39Z</time>
      </trkpt>
      <trkpt lat="44.79863" lon="0.49256">
        <ele>126.6</ele>
        <time>2025-07-14T08:52:40Z</time>
      </trkpt>
      <trkpt lat="44.79861" lon="0.49253">
        <ele>126.6</ele>
        <time>2025-07-14T08:52:41Z</time>
      </trkpt>
      <trkpt lat="44.79859" lon="0.49249">
        <ele>126.8</ele>
        <time>2025-07-14T08:52:42Z</time>
      </trkpt>
      <trkpt lat="44.79857" lon="0.49246">
        <ele>126.8</ele>
        <time>2025-07-14T08:52:43Z</time>
      </trkpt>
      <trkpt lat="44.79855" lon="0.49243">
        <ele>127</ele>
        <time>2025-07-14T08:52:44Z</time>
      </trkpt>
      <trkpt lat="44.79853" lon="0.4924">
        <ele>127</ele>
        <time>2025-07-14T08:52:45Z</time>
      </trkpt>
      <trkpt lat="44.79851" lon="0.49236">
        <ele>127.2</ele>
        <time>2025-07-14T08:52:46Z</time>
      </trkpt>
      <trkpt lat="44.79849" lon="0.49232">
        <ele>127.4</ele>
        <time>2025-07-14T08:52:47Z</time>
      </trkpt>
      <trkpt lat="44.79847" lon="0.49229">
        <ele>127.4</ele>
        <time>2025-07-14T08:52:48Z</time>
      </trkpt>
      <trkpt lat="44.79845" lon="0.49225">
        <ele>127.6</ele>
        <time>2025-07-14T08:52:49Z</time>
      </trkpt>
      <trkpt lat="44.79843" lon="0.49222">
        <ele>127.6</ele>
        <time>2025-07-14T08:52:50Z</time>
      </trkpt>
      <trkpt lat="44.79841" lon="0.49218">
        <ele>127.8</ele>
        <time>2025-07-14T08:52:51Z</time>
      </trkpt>
      <trkpt lat="44.79838" lon="0.49215">
        <ele>127.8</ele>
        <time>2025-07-14T08:52:52Z</time>
      </trkpt>
      <trkpt lat="44.79836" lon="0.49212">
        <ele>128</ele>
        <time>2025-07-14T08:52:53Z</time>
      </trkpt>
      <trkpt lat="44.79833" lon="0.49208">
        <ele>128</ele>
        <time>2025-07-14T08:52:54Z</time>
      </trkpt>
      <trkpt lat="44.79831" lon="0.49205">
        <ele>128.2</ele>
        <time>2025-07-14T08:52:55Z</time>
      </trkpt>
      <trkpt lat="44.79828" lon="0.49203">
        <ele>128.4</ele>
        <time>2025-07-14T08:52:56Z</time>
      </trkpt>
      <trkpt lat="44.79825" lon="0.492">
        <ele>128.4</ele>
        <time>2025-07-14T08:52:57Z</time>
      </trkpt>
      <trkpt lat="44.79823" lon="0.49197">
        <ele>128.6</ele>
        <time>2025-07-14T08:52:58Z</time>
      </trkpt>
      <trkpt lat="44.7982" lon="0.49195">
        <ele>128.8</ele>
        <time>2025-07-14T08:52:59Z</time>
      </trkpt>
      <trkpt lat="44.79817" lon="0.49193">
        <ele>129</ele>
        <time>2025-07-14T08:53:00Z</time>
      </trkpt>
      <trkpt lat="44.79814" lon="0.4919">
        <ele>129.2</ele>
        <time>2025-07-14T08:53:01Z</time>
      </trkpt>
      <trkpt lat="44.79811" lon="0.49189">
        <ele>129.4</ele>
        <time>2025-07-14T08:53:02Z</time>
      </trkpt>
      <trkpt lat="44.79808" lon="0.49187">
        <ele>129.6</ele>
        <time>2025-07-14T08:53:03Z</time>
      </trkpt>
      <trkpt lat="44.79805" lon="0.49185">
        <ele>129.8</ele>
        <time>2025-07-14T08:53:04Z</time>
      </trkpt>
      <trkpt lat="44.79803" lon="0.49184">
        <ele>129.8</ele>
        <time>2025-07-14T08:53:05Z</time>
      </trkpt>
      <trkpt lat="44.798" lon="0.49183">
        <ele>130</ele>
        <time>2025-07-14T08:53:06Z</time>
      </trkpt>
      <trkpt lat="44.79797" lon="0.49182">
        <ele>130.2</ele>
        <time>2025-07-14T08:53:07Z</time>
      </trkpt>
      <trkpt lat="44.79794" lon="0.49182">
        <ele>130.2</ele>
        <time>2025-07-14T08:53:08Z</time>
      </trkpt>
      <trkpt lat="44.79792" lon="0.49182">
        <ele>130.4</ele>
        <time>2025-07-14T08:53:09Z</time>
      </trkpt>
      <trkpt lat="44.79789" lon="0.49181">
        <ele>130.6</ele>
        <time>2025-07-14T08:53:10Z</time>
      </trkpt>
      <trkpt lat="44.79786" lon="0.49181">
        <ele>130.6</ele>
        <time>2025-07-14T08:53:11Z</time>
      </trkpt>
      <trkpt lat="44.79783" lon="0.49182">
        <ele>130.8</ele>
        <time>2025-07-14T08:53:12Z</time>
      </trkpt>
      <trkpt lat="44.79781" lon="0.49182">
        <ele>131</ele>
        <time>2025-07-14T08:53:13Z</time>
      </trkpt>
      <trkpt lat="44.79779" lon="0.49182">
        <ele>131.2</ele>
        <time>2025-07-14T08:53:14Z</time>
      </trkpt>
      <trkpt lat="44.79777" lon="0.49183">
        <ele>131.2</ele>
        <time>2025-07-14T08:53:15Z</time>
      </trkpt>
      <trkpt lat="44.79775" lon="0.49183">
        <ele>131.6</ele>
        <time>2025-07-14T08:53:16Z</time>
      </trkpt>
      <trkpt lat="44.79773" lon="0.49184">
        <ele>131.8</ele>
        <time>2025-07-14T08:53:17Z</time>
      </trkpt>
      <trkpt lat="44.79772" lon="0.49184">
        <ele>132</ele>
        <time>2025-07-14T08:53:18Z</time>
      </trkpt>
      <trkpt lat="44.7977" lon="0.49185">
        <ele>132.4</ele>
        <time>2025-07-14T08:53:19Z</time>
      </trkpt>
      <trkpt lat="44.79768" lon="0.49185">
        <ele>132.6</ele>
        <time>2025-07-14T08:53:20Z</time>
      </trkpt>
      <trkpt lat="44.79766" lon="0.49186">
        <ele>132.8</ele>
        <time>2025-07-14T08:53:21Z</time>
      </trkpt>
      <trkpt lat="44.79764" lon="0.49186">
        <ele>133</ele>
        <time>2025-07-14T08:53:22Z</time>
      </trkpt>
      <trkpt lat="44.79763" lon="0.49187">
        <ele>133.4</ele>
        <time>2025-07-14T08:53:23Z</time>
      </trkpt>
      <trkpt lat="44.79761" lon="0.49188">
        <ele>133.8</ele>
        <time>2025-07-14T08:53:24Z</time>
      </trkpt>
      <trkpt lat="44.7976" lon="0.49188">
        <ele>134</ele>
        <time>2025-07-14T08:53:25Z</time>
      </trkpt>
      <trkpt lat="44.79759" lon="0.49188">
        <ele>134.2</ele>
        <time>2025-07-14T08:53:26Z</time>
      </trkpt>
      <trkpt lat="44.79757" lon="0.49189">
        <ele>134.6</ele>
        <time>2025-07-14T08:53:27Z</time>
      </trkpt>
      <trkpt lat="44.79756" lon="0.49189">
        <ele>134.8</ele>
        <time>2025-07-14T08:53:28Z</time>
      </trkpt>
      <trkpt lat="44.79754" lon="0.4919">
        <ele>135</ele>
        <time>2025-07-14T08:53:29Z</time>
      </trkpt>
      <trkpt lat="44.79753" lon="0.49191">
        <ele>135.4</ele>
        <time>2025-07-14T08:53:30Z</time>
      </trkpt>
      <trkpt lat="44.79751" lon="0.49191">
        <ele>135.6</ele>
        <time>2025-07-14T08:53:31Z</time>
      </trkpt>
      <trkpt lat="44.7975" lon="0.49192">
        <ele>135.8</ele>
        <time>2025-07-14T08:53:32Z</time>
      </trkpt>
      <trkpt lat="44.79748" lon="0.49194">
        <ele>136</ele>
        <time>2025-07-14T08:53:33Z</time>
      </trkpt>
      <trkpt lat="44.79747" lon="0.49195">
        <ele>136.2</ele>
        <time>2025-07-14T08:53:34Z</time>
      </trkpt>
      <trkpt lat="44.79745" lon="0.49196">
        <ele>136.6</ele>
        <time>2025-07-14T08:53:35Z</time>
      </trkpt>
      <trkpt lat="44.79744" lon="0.49197">
        <ele>136.8</ele>
        <time>2025-07-14T08:53:36Z</time>
      </trkpt>
      <trkpt lat="44.79742" lon="0.49197">
        <ele>137</ele>
        <time>2025-07-14T08:53:37Z</time>
      </trkpt>
      <trkpt lat="44.7974" lon="0.49198">
        <ele>137.2</ele>
        <time>2025-07-14T08:53:38Z</time>
      </trkpt>
      <trkpt lat="44.79738" lon="0.49199">
        <ele>137.2</ele>
        <time>2025-07-14T08:53:39Z</time>
      </trkpt>
      <trkpt lat="44.79736" lon="0.49199">
        <ele>137.4</ele>
        <time>2025-07-14T08:53:40Z</time>
      </trkpt>
      <trkpt lat="44.79734" lon="0.49199">
        <ele>137.6</ele>
        <time>2025-07-14T08:53:41Z</time>
      </trkpt>
      <trkpt lat="44.79731" lon="0.49199">
        <ele>137.6</ele>
        <time>2025-07-14T08:53:42Z</time>
      </trkpt>
      <trkpt lat="44.79728" lon="0.492">
        <ele>137.8</ele>
        <time>2025-07-14T08:53:43Z</time>
      </trkpt>
      <trkpt lat="44.79725" lon="0.49201">
        <ele>137.8</ele>
        <time>2025-07-14T08:53:44Z</time>
      </trkpt>
      <trkpt lat="44.79723" lon="0.49202">
        <ele>138</ele>
        <time>2025-07-14T08:53:45Z</time>
      </trkpt>
      <trkpt lat="44.7972" lon="0.49203">
        <ele>138</ele>
        <time>2025-07-14T08:53:46Z</time>
      </trkpt>
      <trkpt lat="44.79717" lon="0.49205">
        <ele>138</ele>
        <time>2025-07-14T08:53:47Z</time>
      </trkpt>
      <trkpt lat="44.79714" lon="0.49206">
        <ele>138.2</ele>
        <time>2025-07-14T08:53:48Z</time>
      </trkpt>
      <trkpt lat="44.79712" lon="0.49207">
        <ele>138.2</ele>
        <time>2025-07-14T08:53:49Z</time>
      </trkpt>
      <trkpt lat="44.79709" lon="0.49209">
        <ele>138.4</ele>
        <time>2025-07-14T08:53:50Z</time>
      </trkpt>
      <trkpt lat="44.79707" lon="0.4921">
        <ele>138.4</ele>
        <time>2025-07-14T08:53:51Z</time>
      </trkpt>
      <trkpt lat="44.79704" lon="0.49211">
        <ele>138.6</ele>
        <time>2025-07-14T08:53:52Z</time>
      </trkpt>
      <trkpt lat="44.79701" lon="0.49213">
        <ele>138.6</ele>
        <time>2025-07-14T08:53:53Z</time>
      </trkpt>
      <trkpt lat="44.79698" lon="0.49214">
        <ele>138.8</ele>
        <time>2025-07-14T08:53:54Z</time>
      </trkpt>
      <trkpt lat="44.79695" lon="0.49215">
        <ele>139</ele>
        <time>2025-07-14T08:53:55Z</time>
      </trkpt>
      <trkpt lat="44.79693" lon="0.49216">
        <ele>139</ele>
        <time>2025-07-14T08:53:56Z</time>
      </trkpt>
      <trkpt lat="44.7969" lon="0.49216">
        <ele>139.2</ele>
        <time>2025-07-14T08:53:57Z</time>
      </trkpt>
      <trkpt lat="44.79687" lon="0.49217">
        <ele>139.2</ele>
        <time>2025-07-14T08:53:58Z</time>
      </trkpt>
      <trkpt lat="44.79684" lon="0.49216">
        <ele>139.2</ele>
        <time>2025-07-14T08:53:59Z</time>
      </trkpt>
      <trkpt lat="44.79681" lon="0.49214">
        <ele>139.4</ele>
        <time>2025-07-14T08:54:00Z</time>
      </trkpt>
      <trkpt lat="44.7968" lon="0.4921">
        <ele>139.6</ele>
        <time>2025-07-14T08:54:01Z</time>
      </trkpt>
      <trkpt lat="44.79678" lon="0.49205">
        <ele>139.6</ele>
        <time>2025-07-14T08:54:02Z</time>
      </trkpt>
      <trkpt lat="44.79677" lon="0.492">
        <ele>139.8</ele>
        <time>2025-07-14T08:54:03Z</time>
      </trkpt>
      <trkpt lat="44.79676" lon="0.49193">
        <ele>139.8</ele>
        <time>2025-07-14T08:54:04Z</time>
      </trkpt>
      <trkpt lat="44.79674" lon="0.49186">
        <ele>139.6</ele>
        <time>2025-07-14T08:54:05Z</time>
      </trkpt>
      <trkpt lat="44.79672" lon="0.49177">
        <ele>139.4</ele>
        <time>2025-07-14T08:54:06Z</time>
      </trkpt>
      <trkpt lat="44.7967" lon="0.49168">
        <ele>139</ele>
        <time>2025-07-14T08:54:07Z</time>
      </trkpt>
      <trkpt lat="44.79668" lon="0.49157">
        <ele>138.4</ele>
        <time>2025-07-14T08:54:08Z</time>
      </trkpt>
      <trkpt lat="44.79666" lon="0.49145">
        <ele>137.6</ele>
        <time>2025-07-14T08:54:09Z</time>
      </trkpt>
      <trkpt lat="44.79663" lon="0.49133">
        <ele>136.8</ele>
        <time>2025-07-14T08:54:10Z</time>
      </trkpt>
      <trkpt lat="44.7966" lon="0.49121">
        <ele>135.8</ele>
        <time>2025-07-14T08:54:11Z</time>
      </trkpt>
      <trkpt lat="44.79657" lon="0.49107">
        <ele>134.8</ele>
        <time>2025-07-14T08:54:12Z</time>
      </trkpt>
      <trkpt lat="44.79655" lon="0.49095">
        <ele>133.8</ele>
        <time>2025-07-14T08:54:13Z</time>
      </trkpt>
      <trkpt lat="44.79652" lon="0.49084">
        <ele>132.8</ele>
        <time>2025-07-14T08:54:14Z</time>
      </trkpt>
      <trkpt lat="44.7965" lon="0.49075">
        <ele>132.2</ele>
        <time>2025-07-14T08:54:15Z</time>
      </trkpt>
      <trkpt lat="44.79649" lon="0.49068">
        <ele>132.2</ele>
        <time>2025-07-14T08:54:16Z</time>
      </trkpt>
      <trkpt lat="44.79647" lon="0.49061">
        <ele>132.2</ele>
        <time>2025-07-14T08:54:17Z</time>
      </trkpt>
      <trkpt lat="44.79646" lon="0.49055">
        <ele>132.6</ele>
        <time>2025-07-14T08:54:18Z</time>
      </trkpt>
      <trkpt lat="44.79645" lon="0.49051">
        <ele>133</ele>
        <time>2025-07-14T08:54:19Z</time>
      </trkpt>
      <trkpt lat="44.79645" lon="0.49047">
        <ele>133.6</ele>
        <time>2025-07-14T08:54:20Z</time>
      </trkpt>
      <trkpt lat="44.79644" lon="0.49044">
        <ele>134.2</ele>
        <time>2025-07-14T08:54:21Z</time>
      </trkpt>
      <trkpt lat="44.79643" lon="0.49041">
        <ele>134.6</ele>
        <time>2025-07-14T08:54:22Z</time>
      </trkpt>
      <trkpt lat="44.79642" lon="0.49038">
        <ele>135</ele>
        <time>2025-07-14T08:54:23Z</time>
      </trkpt>
      <trkpt lat="44.79642" lon="0.49036">
        <ele>135.4</ele>
        <time>2025-07-14T08:54:24Z</time>
      </trkpt>
      <trkpt lat="44.79641" lon="0.49033">
        <ele>135.8</ele>
        <time>2025-07-14T08:54:25Z</time>
      </trkpt>
      <trkpt lat="44.7964" lon="0.49031">
        <ele>136</ele>
        <time>2025-07-14T08:54:26Z</time>
      </trkpt>
      <trkpt lat="44.7964" lon="0.49028">
        <ele>136.4</ele>
        <time>2025-07-14T08:54:27Z</time>
      </trkpt>
      <trkpt lat="44.79639" lon="0.49026">
        <ele>136.6</ele>
        <time>2025-07-14T08:54:28Z</time>
      </trkpt>
      <trkpt lat="44.79637" lon="0.49025">
        <ele>136.8</ele>
        <time>2025-07-14T08:54:29Z</time>
      </trkpt>
      <trkpt lat="44.79636" lon="0.49024">
        <ele>137.2</ele>
        <time>2025-07-14T08:54:30Z</time>
      </trkpt>
      <trkpt lat="44.79634" lon="0.49024">
        <ele>137.4</ele>
        <time>2025-07-14T08:54:31Z</time>
      </trkpt>
      <trkpt lat="44.79633" lon="0.49025">
        <ele>137.8</ele>
        <time>2025-07-14T08:54:32Z</time>
      </trkpt>
      <trkpt lat="44.79632" lon="0.49026">
        <ele>138</ele>
        <time>2025-07-14T08:54:33Z</time>
      </trkpt>
      <trkpt lat="44.79631" lon="0.49027">
        <ele>138.2</ele>
        <time>2025-07-14T08:54:34Z</time>
      </trkpt>
      <trkpt lat="44.79629" lon="0.49028">
        <ele>138.4</ele>
        <time>2025-07-14T08:54:35Z</time>
      </trkpt>
      <trkpt lat="44.79627" lon="0.49029">
        <ele>138.8</ele>
        <time>2025-07-14T08:54:36Z</time>
      </trkpt>
      <trkpt lat="44.79626" lon="0.49029">
        <ele>139</ele>
        <time>2025-07-14T08:54:37Z</time>
      </trkpt>
      <trkpt lat="44.79625" lon="0.4903">
        <ele>139.2</ele>
        <time>2025-07-14T08:54:38Z</time>
      </trkpt>
      <trkpt lat="44.79624" lon="0.49031">
        <ele>139.4</ele>
        <time>2025-07-14T08:54:39Z</time>
      </trkpt>
      <trkpt lat="44.79623" lon="0.49031">
        <ele>139.6</ele>
        <time>2025-07-14T08:54:40Z</time>
      </trkpt>
      <trkpt lat="44.79622" lon="0.49032">
        <ele>139.8</ele>
        <time>2025-07-14T08:54:41Z</time>
      </trkpt>
      <trkpt lat="44.7962" lon="0.49033">
        <ele>140</ele>
        <time>2025-07-14T08:54:42Z</time>
      </trkpt>
      <trkpt lat="44.79619" lon="0.49034">
        <ele>140.2</ele>
        <time>2025-07-14T08:54:43Z</time>
      </trkpt>
      <trkpt lat="44.79618" lon="0.49034">
        <ele>140.4</ele>
        <time>2025-07-14T08:54:44Z</time>
      </trkpt>
      <trkpt lat="44.79616" lon="0.49035">
        <ele>140.6</ele>
        <time>2025-07-14T08:54:45Z</time>
      </trkpt>
      <trkpt lat="44.79615" lon="0.49035">
        <ele>140.8</ele>
        <time>2025-07-14T08:54:46Z</time>
      </trkpt>
      <trkpt lat="44.79613" lon="0.49035">
        <ele>141</ele>
        <time>2025-07-14T08:54:47Z</time>
      </trkpt>
      <trkpt lat="44.79612" lon="0.49034">
        <ele>141.4</ele>
        <time>2025-07-14T08:54:48Z</time>
      </trkpt>
      <trkpt lat="44.79611" lon="0.49033">
        <ele>141.6</ele>
        <time>2025-07-14T08:54:49Z</time>
      </trkpt>
      <trkpt lat="44.79611" lon="0.49032">
        <ele>142</ele>
        <time>2025-07-14T08:54:50Z</time>
      </trkpt>
      <trkpt lat="44.79612" lon="0.49029">
        <ele>142.2</ele>
        <time>2025-07-14T08:54:51Z</time>
      </trkpt>
      <trkpt lat="44.79612" lon="0.49027">
        <ele>142.4</ele>
        <time>2025-07-14T08:54:52Z</time>
      </trkpt>
      <trkpt lat="44.79613" lon="0.49025">
        <ele>142.8</ele>
        <time>2025-07-14T08:54:53Z</time>
      </trkpt>
      <trkpt lat="44.79613" lon="0.49023">
        <ele>142.8</ele>
        <time>2025-07-14T08:54:54Z</time>
      </trkpt>
      <trkpt lat="44.79615" lon="0.4902">
        <ele>143</ele>
        <time>2025-07-14T08:54:55Z</time>
      </trkpt>
      <trkpt lat="44.79617" lon="0.49019">
        <ele>143</ele>
        <time>2025-07-14T08:54:56Z</time>
      </trkpt>
      <trkpt lat="44.7962" lon="0.49017">
        <ele>143</ele>
        <time>2025-07-14T08:54:57Z</time>
      </trkpt>
      <trkpt lat="44.79621" lon="0.49014">
        <ele>143</ele>
        <time>2025-07-14T08:54:58Z</time>
      </trkpt>
      <trkpt lat="44.79623" lon="0.4901">
        <ele>143</ele>
        <time>2025-07-14T08:54:59Z</time>
      </trkpt>
      <trkpt lat="44.79625" lon="0.49007">
        <ele>142.8</ele>
        <time>2025-07-14T08:55:00Z</time>
      </trkpt>
      <trkpt lat="44.79626" lon="0.49004">
        <ele>142.8</ele>
        <time>2025-07-14T08:55:01Z</time>
      </trkpt>
      <trkpt lat="44.79629" lon="0.49">
        <ele>142.6</ele>
        <time>2025-07-14T08:55:02Z</time>
      </trkpt>
      <trkpt lat="44.79632" lon="0.48999">
        <ele>142.6</ele>
        <time>2025-07-14T08:55:03Z</time>
      </trkpt>
      <trkpt lat="44.79635" lon="0.48999">
        <ele>142.6</ele>
        <time>2025-07-14T08:55:04Z</time>
      </trkpt>
      <trkpt lat="44.79638" lon="0.48998">
        <ele>142.6</ele>
        <time>2025-07-14T08:55:05Z</time>
      </trkpt>
      <trkpt lat="44.79643" lon="0.49">
        <ele>142.2</ele>
        <time>2025-07-14T08:55:06Z</time>
      </trkpt>
      <trkpt lat="44.79647" lon="0.48999">
        <ele>142</ele>
        <time>2025-07-14T08:55:07Z</time>
      </trkpt>
      <trkpt lat="44.7965" lon="0.48996">
        <ele>141.6</ele>
        <time>2025-07-14T08:55:08Z</time>
      </trkpt>
      <trkpt lat="44.79653" lon="0.48992">
        <ele>141.2</ele>
        <time>2025-07-14T08:55:09Z</time>
      </trkpt>
      <trkpt lat="44.79656" lon="0.48988">
        <ele>140.6</ele>
        <time>2025-07-14T08:55:10Z</time>
      </trkpt>
      <trkpt lat="44.79659" lon="0.48983">
        <ele>140.2</ele>
        <time>2025-07-14T08:55:11Z</time>
      </trkpt>
      <trkpt lat="44.79662" lon="0.48979">
        <ele>139.8</ele>
        <time>2025-07-14T08:55:12Z</time>
      </trkpt>
      <trkpt lat="44.79665" lon="0.48974">
        <ele>139.6</ele>
        <time>2025-07-14T08:55:13Z</time>
      </trkpt>
      <trkpt lat="44.79668" lon="0.4897">
        <ele>139.4</ele>
        <time>2025-07-14T08:55:14Z</time>
      </trkpt>
      <trkpt lat="44.79671" lon="0.48968">
        <ele>139.2</ele>
        <time>2025-07-14T08:55:15Z</time>
      </trkpt>
      <trkpt lat="44.79675" lon="0.48965">
        <ele>139</ele>
        <time>2025-07-14T08:55:16Z</time>
      </trkpt>
      <trkpt lat="44.79677" lon="0.48961">
        <ele>138.8</ele>
        <time>2025-07-14T08:55:17Z</time>
      </trkpt>
      <trkpt lat="44.79679" lon="0.48957">
        <ele>138.6</ele>
        <time>2025-07-14T08:55:18Z</time>
      </trkpt>
      <trkpt lat="44.7968" lon="0.48954">
        <ele>138.4</ele>
        <time>2025-07-14T08:55:19Z</time>
      </trkpt>
      <trkpt lat="44.79681" lon="0.48951">
        <ele>138.4</ele>
        <time>2025-07-14T08:55:20Z</time>
      </trkpt>
      <trkpt lat="44.79681" lon="0.48948">
        <ele>138.2</ele>
        <time>2025-07-14T08:55:21Z</time>
      </trkpt>
      <trkpt lat="44.79682" lon="0.48945">
        <ele>138.4</ele>
        <time>2025-07-14T08:55:22Z</time>
      </trkpt>
      <trkpt lat="44.79683" lon="0.48941">
        <ele>138.6</ele>
        <time>2025-07-14T08:55:23Z</time>
      </trkpt>
      <trkpt lat="44.79684" lon="0.48938">
        <ele>138.8</ele>
        <time>2025-07-14T08:55:24Z</time>
      </trkpt>
      <trkpt lat="44.79686" lon="0.48936">
        <ele>138.8</ele>
        <time>2025-07-14T08:55:25Z</time>
      </trkpt>
      <trkpt lat="44.79689" lon="0.48934">
        <ele>139</ele>
        <time>2025-07-14T08:55:26Z</time>
      </trkpt>
      <trkpt lat="44.79693" lon="0.48933">
        <ele>139</ele>
        <time>2025-07-14T08:55:27Z</time>
      </trkpt>
      <trkpt lat="44.79698" lon="0.48934">
        <ele>139</ele>
        <time>2025-07-14T08:55:28Z</time>
      </trkpt>
      <trkpt lat="44.79702" lon="0.48937">
        <ele>138.8</ele>
        <time>2025-07-14T08:55:29Z</time>
      </trkpt>
      <trkpt lat="44.79706" lon="0.48938">
        <ele>138.2</ele>
        <time>2025-07-14T08:55:30Z</time>
      </trkpt>
      <trkpt lat="44.7971" lon="0.48937">
        <ele>137.6</ele>
        <time>2025-07-14T08:55:31Z</time>
      </trkpt>
      <trkpt lat="44.79713" lon="0.48935">
        <ele>136.6</ele>
        <time>2025-07-14T08:55:32Z</time>
      </trkpt>
      <trkpt lat="44.79718" lon="0.48932">
        <ele>135.6</ele>
        <time>2025-07-14T08:55:33Z</time>
      </trkpt>
      <trkpt lat="44.79723" lon="0.48929">
        <ele>134.8</ele>
        <time>2025-07-14T08:55:34Z</time>
      </trkpt>
      <trkpt lat="44.79729" lon="0.48928">
        <ele>134</ele>
        <time>2025-07-14T08:55:35Z</time>
      </trkpt>
      <trkpt lat="44.79734" lon="0.48927">
        <ele>133.2</ele>
        <time>2025-07-14T08:55:36Z</time>
      </trkpt>
      <trkpt lat="44.79738" lon="0.48926">
        <ele>132.2</ele>
        <time>2025-07-14T08:55:37Z</time>
      </trkpt>
      <trkpt lat="44.7974" lon="0.48923">
        <ele>131.2</ele>
        <time>2025-07-14T08:55:38Z</time>
      </trkpt>
      <trkpt lat="44.7974" lon="0.4892">
        <ele>130.4</ele>
        <time>2025-07-14T08:55:39Z</time>
      </trkpt>
      <trkpt lat="44.7974" lon="0.48917">
        <ele>129.8</ele>
        <time>2025-07-14T08:55:40Z</time>
      </trkpt>
      <trkpt lat="44.79739" lon="0.48915">
        <ele>129.4</ele>
        <time>2025-07-14T08:55:41Z</time>
      </trkpt>
      <trkpt lat="44.7974" lon="0.48913">
        <ele>129.2</ele>
        <time>2025-07-14T08:55:42Z</time>
      </trkpt>
      <trkpt lat="44.79741" lon="0.4891">
        <ele>129.2</ele>
        <time>2025-07-14T08:55:43Z</time>
      </trkpt>
      <trkpt lat="44.79742" lon="0.48907">
        <ele>129</ele>
        <time>2025-07-14T08:55:44Z</time>
      </trkpt>
      <trkpt lat="44.79743" lon="0.48904">
        <ele>129</ele>
        <time>2025-07-14T08:55:45Z</time>
      </trkpt>
      <trkpt lat="44.79745" lon="0.48901">
        <ele>129.2</ele>
        <time>2025-07-14T08:55:46Z</time>
      </trkpt>
      <trkpt lat="44.79747" lon="0.48898">
        <ele>129.2</ele>
        <time>2025-07-14T08:55:47Z</time>
      </trkpt>
      <trkpt lat="44.79748" lon="0.48893">
        <ele>129.2</ele>
        <time>2025-07-14T08:55:48Z</time>
      </trkpt>
      <trkpt lat="44.79749" lon="0.48889">
        <ele>129.2</ele>
        <time>2025-07-14T08:55:49Z</time>
      </trkpt>
      <trkpt lat="44.7975" lon="0.48885">
        <ele>129.4</ele>
        <time>2025-07-14T08:55:50Z</time>
      </trkpt>
      <trkpt lat="44.79752" lon="0.48881">
        <ele>129.4</ele>
        <time>2025-07-14T08:55:51Z</time>
      </trkpt>
      <trkpt lat="44.79754" lon="0.48877">
        <ele>129.6</ele>
        <time>2025-07-14T08:55:52Z</time>
      </trkpt>
      <trkpt lat="44.79757" lon="0.48875">
        <ele>129.6</ele>
        <time>2025-07-14T08:55:53Z</time>
      </trkpt>
      <trkpt lat="44.79759" lon="0.48873">
        <ele>129.8</ele>
        <time>2025-07-14T08:55:54Z</time>
      </trkpt>
      <trkpt lat="44.79762" lon="0.48874">
        <ele>129.8</ele>
        <time>2025-07-14T08:55:55Z</time>
      </trkpt>
      <trkpt lat="44.79765" lon="0.48873">
        <ele>129.6</ele>
        <time>2025-07-14T08:55:56Z</time>
      </trkpt>
      <trkpt lat="44.79766" lon="0.48871">
        <ele>129.6</ele>
        <time>2025-07-14T08:55:57Z</time>
      </trkpt>
      <trkpt lat="44.79768" lon="0.48868">
        <ele>129.4</ele>
        <time>2025-07-14T08:55:58Z</time>
      </trkpt>
      <trkpt lat="44.79768" lon="0.48865">
        <ele>129.2</ele>
        <time>2025-07-14T08:55:59Z</time>
      </trkpt>
      <trkpt lat="44.79768" lon="0.48862">
        <ele>129</ele>
        <time>2025-07-14T08:56:00Z</time>
      </trkpt>
      <trkpt lat="44.79767" lon="0.48859">
        <ele>129</ele>
        <time>2025-07-14T08:56:01Z</time>
      </trkpt>
      <trkpt lat="44.79766" lon="0.48857">
        <ele>129</ele>
        <time>2025-07-14T08:56:02Z</time>
      </trkpt>
      <trkpt lat="44.79766" lon="0.48854">
        <ele>129</ele>
        <time>2025-07-14T08:56:03Z</time>
      </trkpt>
      <trkpt lat="44.79768" lon="0.48851">
        <ele>129.2</ele>
        <time>2025-07-14T08:56:04Z</time>
      </trkpt>
      <trkpt lat="44.7977" lon="0.48848">
        <ele>129.4</ele>
        <time>2025-07-14T08:56:05Z</time>
      </trkpt>
      <trkpt lat="44.79775" lon="0.48847">
        <ele>129.6</ele>
        <time>2025-07-14T08:56:06Z</time>
      </trkpt>
      <trkpt lat="44.79779" lon="0.48846">
        <ele>129.4</ele>
        <time>2025-07-14T08:56:07Z</time>
      </trkpt>
      <trkpt lat="44.79785" lon="0.48843">
        <ele>129.2</ele>
        <time>2025-07-14T08:56:08Z</time>
      </trkpt>
      <trkpt lat="44.7979" lon="0.48839">
        <ele>128.8</ele>
        <time>2025-07-14T08:56:09Z</time>
      </trkpt>
      <trkpt lat="44.79795" lon="0.48837">
        <ele>128.2</ele>
        <time>2025-07-14T08:56:10Z</time>
      </trkpt>
      <trkpt lat="44.79797" lon="0.48834">
        <ele>127.6</ele>
        <time>2025-07-14T08:56:11Z</time>
      </trkpt>
      <trkpt lat="44.79798" lon="0.48831">
        <ele>127.2</ele>
        <time>2025-07-14T08:56:12Z</time>
      </trkpt>
      <trkpt lat="44.79799" lon="0.48827">
        <ele>127</ele>
        <time>2025-07-14T08:56:13Z</time>
      </trkpt>
      <trkpt lat="44.798" lon="0.48823">
        <ele>126.8</ele>
        <time>2025-07-14T08:56:14Z</time>
      </trkpt>
      <trkpt lat="44.798" lon="0.48819">
        <ele>126.6</ele>
        <time>2025-07-14T08:56:15Z</time>
      </trkpt>
      <trkpt lat="44.798" lon="0.48816">
        <ele>126.6</ele>
        <time>2025-07-14T08:56:16Z</time>
      </trkpt>
      <trkpt lat="44.798" lon="0.48813">
        <ele>126.6</ele>
        <time>2025-07-14T08:56:17Z</time>
      </trkpt>
      <trkpt lat="44.79801" lon="0.4881">
        <ele>126.8</ele>
        <time>2025-07-14T08:56:18Z</time>
      </trkpt>
      <trkpt lat="44.79802" lon="0.48807">
        <ele>127</ele>
        <time>2025-07-14T08:56:19Z</time>
      </trkpt>
      <trkpt lat="44.79804" lon="0.48803">
        <ele>127.2</ele>
        <time>2025-07-14T08:56:20Z</time>
      </trkpt>
      <trkpt lat="44.79805" lon="0.488">
        <ele>127.6</ele>
        <time>2025-07-14T08:56:21Z</time>
      </trkpt>
      <trkpt lat="44.79807" lon="0.48798">
        <ele>127.8</ele>
        <time>2025-07-14T08:56:22Z</time>
      </trkpt>
      <trkpt lat="44.79808" lon="0.48795">
        <ele>128.2</ele>
        <time>2025-07-14T08:56:23Z</time>
      </trkpt>
      <trkpt lat="44.79808" lon="0.48793">
        <ele>128.4</ele>
        <time>2025-07-14T08:56:24Z</time>
      </trkpt>
      <trkpt lat="44.79808" lon="0.48791">
        <ele>128.8</ele>
        <time>2025-07-14T08:56:25Z</time>
      </trkpt>
      <trkpt lat="44.79808" lon="0.48788">
        <ele>129</ele>
        <time>2025-07-14T08:56:26Z</time>
      </trkpt>
      <trkpt lat="44.79807" lon="0.48787">
        <ele>129.2</ele>
        <time>2025-07-14T08:56:27Z</time>
      </trkpt>
      <trkpt lat="44.79806" lon="0.48786">
        <ele>129.4</ele>
        <time>2025-07-14T08:56:28Z</time>
      </trkpt>
      <trkpt lat="44.79805" lon="0.48785">
        <ele>129.6</ele>
        <time>2025-07-14T08:56:29Z</time>
      </trkpt>
      <trkpt lat="44.79804" lon="0.48783">
        <ele>129.8</ele>
        <time>2025-07-14T08:56:30Z</time>
      </trkpt>
      <trkpt lat="44.79804" lon="0.48781">
        <ele>130</ele>
        <time>2025-07-14T08:56:31Z</time>
      </trkpt>
      <trkpt lat="44.79804" lon="0.48778">
        <ele>130.4</ele>
        <time>2025-07-14T08:56:32Z</time>
      </trkpt>
      <trkpt lat="44.79804" lon="0.48776">
        <ele>130.6</ele>
        <time>2025-07-14T08:56:33Z</time>
      </trkpt>
      <trkpt lat="44.79804" lon="0.48773">
        <ele>130.8</ele>
        <time>2025-07-14T08:56:34Z</time>
      </trkpt>
      <trkpt lat="44.79804" lon="0.48772">
        <ele>131</ele>
        <time>2025-07-14T08:56:35Z</time>
      </trkpt>
      <trkpt lat="44.79804" lon="0.4877">
        <ele>131.2</ele>
        <time>2025-07-14T08:56:36Z</time>
      </trkpt>
      <trkpt lat="44.79804" lon="0.48768">
        <ele>131.4</ele>
        <time>2025-07-14T08:56:37Z</time>
      </trkpt>
      <trkpt lat="44.79804" lon="0.48766">
        <ele>131.6</ele>
        <time>2025-07-14T08:56:38Z</time>
      </trkpt>
      <trkpt lat="44.79805" lon="0.48764">
        <ele>131.8</ele>
        <time>2025-07-14T08:56:39Z</time>
      </trkpt>
      <trkpt lat="44.79806" lon="0.48762">
        <ele>132</ele>
        <time>2025-07-14T08:56:40Z</time>
      </trkpt>
      <trkpt lat="44.79806" lon="0.4876">
        <ele>132.2</ele>
        <time>2025-07-14T08:56:41Z</time>
      </trkpt>
      <trkpt lat="44.79807" lon="0.48759">
        <ele>132.4</ele>
        <time>2025-07-14T08:56:42Z</time>
      </trkpt>
      <trkpt lat="44.79807" lon="0.48756">
        <ele>132.6</ele>
        <time>2025-07-14T08:56:43Z</time>
      </trkpt>
      <trkpt lat="44.79807" lon="0.48754">
        <ele>132.8</ele>
        <time>2025-07-14T08:56:44Z</time>
      </trkpt>
      <trkpt lat="44.79807" lon="0.48752">
        <ele>133</ele>
        <time>2025-07-14T08:56:45Z</time>
      </trkpt>
      <trkpt lat="44.79807" lon="0.48749">
        <ele>133.2</ele>
        <time>2025-07-14T08:56:46Z</time>
      </trkpt>
      <trkpt lat="44.79806" lon="0.48748">
        <ele>133.2</ele>
        <time>2025-07-14T08:56:47Z</time>
      </trkpt>
      <trkpt lat="44.79805" lon="0.48747">
        <ele>133.4</ele>
        <time>2025-07-14T08:56:48Z</time>
      </trkpt>
      <trkpt lat="44.79804" lon="0.48745">
        <ele>133.6</ele>
        <time>2025-07-14T08:56:49Z</time>
      </trkpt>
      <trkpt lat="44.79804" lon="0.48744">
        <ele>133.8</ele>
        <time>2025-07-14T08:56:50Z</time>
      </trkpt>
      <trkpt lat="44.79803" lon="0.48742">
        <ele>134.2</ele>
        <time>2025-07-14T08:56:51Z</time>
      </trkpt>
      <trkpt lat="44.79802" lon="0.4874">
        <ele>134.4</ele>
        <time>2025-07-14T08:56:52Z</time>
      </trkpt>
      <trkpt lat="44.79801" lon="0.48738">
        <ele>134.6</ele>
        <time>2025-07-14T08:56:53Z</time>
      </trkpt>
      <trkpt lat="44.79801" lon="0.48736">
        <ele>134.8</ele>
        <time>2025-07-14T08:56:54Z</time>
      </trkpt>
      <trkpt lat="44.79801" lon="0.48734">
        <ele>135</ele>
        <time>2025-07-14T08:56:55Z</time>
      </trkpt>
      <trkpt lat="44.79802" lon="0.48732">
        <ele>135.2</ele>
        <time>2025-07-14T08:56:56Z</time>
      </trkpt>
      <trkpt lat="44.79803" lon="0.4873">
        <ele>135.4</ele>
        <time>2025-07-14T08:56:57Z</time>
      </trkpt>
      <trkpt lat="44.79806" lon="0.48728">
        <ele>135.6</ele>
        <time>2025-07-14T08:56:58Z</time>
      </trkpt>
      <trkpt lat="44.79808" lon="0.48727">
        <ele>135.6</ele>
        <time>2025-07-14T08:56:59Z</time>
      </trkpt>
      <trkpt lat="44.7981" lon="0.48725">
        <ele>135.6</ele>
        <time>2025-07-14T08:57:00Z</time>
      </trkpt>
      <trkpt lat="44.79813" lon="0.48723">
        <ele>135.4</ele>
        <time>2025-07-14T08:57:01Z</time>
      </trkpt>
      <trkpt lat="44.79815" lon="0.4872">
        <ele>135.4</ele>
        <time>2025-07-14T08:57:02Z</time>
      </trkpt>
      <trkpt lat="44.79817" lon="0.48716">
        <ele>135.2</ele>
        <time>2025-07-14T08:57:03Z</time>
      </trkpt>
      <trkpt lat="44.79818" lon="0.48711">
        <ele>135.2</ele>
        <time>2025-07-14T08:57:04Z</time>
      </trkpt>
      <trkpt lat="44.79818" lon="0.48705">
        <ele>135.2</ele>
        <time>2025-07-14T08:57:05Z</time>
      </trkpt>
      <trkpt lat="44.7982" lon="0.48699">
        <ele>135</ele>
        <time>2025-07-14T08:57:06Z</time>
      </trkpt>
      <trkpt lat="44.7982" lon="0.48695">
        <ele>134.8</ele>
        <time>2025-07-14T08:57:07Z</time>
      </trkpt>
      <trkpt lat="44.79821" lon="0.4869">
        <ele>134.8</ele>
        <time>2025-07-14T08:57:08Z</time>
      </trkpt>
      <trkpt lat="44.79822" lon="0.48687">
        <ele>134.6</ele>
        <time>2025-07-14T08:57:09Z</time>
      </trkpt>
      <trkpt lat="44.79821" lon="0.48683">
        <ele>134.6</ele>
        <time>2025-07-14T08:57:10Z</time>
      </trkpt>
      <trkpt lat="44.79822" lon="0.48679">
        <ele>134.6</ele>
        <time>2025-07-14T08:57:11Z</time>
      </trkpt>
      <trkpt lat="44.79822" lon="0.48676">
        <ele>134.6</ele>
        <time>2025-07-14T08:57:12Z</time>
      </trkpt>
      <trkpt lat="44.79823" lon="0.48673">
        <ele>134.6</ele>
        <time>2025-07-14T08:57:13Z</time>
      </trkpt>
      <trkpt lat="44.79823" lon="0.4867">
        <ele>134.4</ele>
        <time>2025-07-14T08:57:14Z</time>
      </trkpt>
      <trkpt lat="44.79822" lon="0.48667">
        <ele>134.6</ele>
        <time>2025-07-14T08:57:15Z</time>
      </trkpt>
      <trkpt lat="44.79821" lon="0.48664">
        <ele>134.6</ele>
        <time>2025-07-14T08:57:16Z</time>
      </trkpt>
      <trkpt lat="44.79821" lon="0.48661">
        <ele>134.6</ele>
        <time>2025-07-14T08:57:17Z</time>
      </trkpt>
      <trkpt lat="44.79822" lon="0.48659">
        <ele>134.6</ele>
        <time>2025-07-14T08:57:18Z</time>
      </trkpt>
      <trkpt lat="44.79822" lon="0.48656">
        <ele>134.6</ele>
        <time>2025-07-14T08:57:19Z</time>
      </trkpt>
      <trkpt lat="44.79823" lon="0.48653">
        <ele>134.8</ele>
        <time>2025-07-14T08:57:20Z</time>
      </trkpt>
      <trkpt lat="44.79823" lon="0.48651">
        <ele>134.8</ele>
        <time>2025-07-14T08:57:21Z</time>
      </trkpt>
      <trkpt lat="44.79824" lon="0.48649">
        <ele>134.8</ele>
        <time>2025-07-14T08:57:22Z</time>
      </trkpt>
      <trkpt lat="44.79823" lon="0.48646">
        <ele>135</ele>
        <time>2025-07-14T08:57:23Z</time>
      </trkpt>
      <trkpt lat="44.79823" lon="0.48644">
        <ele>135</ele>
        <time>2025-07-14T08:57:24Z</time>
      </trkpt>
      <trkpt lat="44.79823" lon="0.48643">
        <ele>135.2</ele>
        <time>2025-07-14T08:57:25Z</time>
      </trkpt>
      <trkpt lat="44.79822" lon="0.4864">
        <ele>135.4</ele>
        <time>2025-07-14T08:57:26Z</time>
      </trkpt>
      <trkpt lat="44.79823" lon="0.48638">
        <ele>135.8</ele>
        <time>2025-07-14T08:57:27Z</time>
      </trkpt>
      <trkpt lat="44.79823" lon="0.48637">
        <ele>136</ele>
        <time>2025-07-14T08:57:28Z</time>
      </trkpt>
      <trkpt lat="44.79824" lon="0.48635">
        <ele>136.2</ele>
        <time>2025-07-14T08:57:29Z</time>
      </trkpt>
      <trkpt lat="44.79824" lon="0.48633">
        <ele>136.4</ele>
        <time>2025-07-14T08:57:30Z</time>
      </trkpt>
      <trkpt lat="44.79824" lon="0.48632">
        <ele>136.8</ele>
        <time>2025-07-14T08:57:31Z</time>
      </trkpt>
      <trkpt lat="44.79824" lon="0.48629">
        <ele>137</ele>
        <time>2025-07-14T08:57:32Z</time>
      </trkpt>
      <trkpt lat="44.79824" lon="0.48628">
        <ele>137.2</ele>
        <time>2025-07-14T08:57:33Z</time>
      </trkpt>
      <trkpt lat="44.79825" lon="0.48626">
        <ele>137.4</ele>
        <time>2025-07-14T08:57:34Z</time>
      </trkpt>
      <trkpt lat="44.79825" lon="0.48624">
        <ele>137.6</ele>
        <time>2025-07-14T08:57:35Z</time>
      </trkpt>
      <trkpt lat="44.79825" lon="0.48622">
        <ele>138</ele>
        <time>2025-07-14T08:57:36Z</time>
      </trkpt>
      <trkpt lat="44.79825" lon="0.48621">
        <ele>138.2</ele>
        <time>2025-07-14T08:57:37Z</time>
      </trkpt>
      <trkpt lat="44.79824" lon="0.48619">
        <ele>138.4</ele>
        <time>2025-07-14T08:57:38Z</time>
      </trkpt>
      <trkpt lat="44.79824" lon="0.48617">
        <ele>138.6</ele>
        <time>2025-07-14T08:57:39Z</time>
      </trkpt>
      <trkpt lat="44.79823" lon="0.48615">
        <ele>138.8</ele>
        <time>2025-07-14T08:57:40Z</time>
      </trkpt>
      <trkpt lat="44.79823" lon="0.48613">
        <ele>139.2</ele>
        <time>2025-07-14T08:57:41Z</time>
      </trkpt>
      <trkpt lat="44.79823" lon="0.48611">
        <ele>139.4</ele>
        <time>2025-07-14T08:57:42Z</time>
      </trkpt>
      <trkpt lat="44.79822" lon="0.48609">
        <ele>139.8</ele>
        <time>2025-07-14T08:57:43Z</time>
      </trkpt>
      <trkpt lat="44.79821" lon="0.48606">
        <ele>140</ele>
        <time>2025-07-14T08:57:44Z</time>
      </trkpt>
      <trkpt lat="44.79821" lon="0.48604">
        <ele>140.2</ele>
        <time>2025-07-14T08:57:45Z</time>
      </trkpt>
      <trkpt lat="44.79821" lon="0.48601">
        <ele>140.2</ele>
        <time>2025-07-14T08:57:46Z</time>
      </trkpt>
      <trkpt lat="44.7982" lon="0.48598">
        <ele>140.4</ele>
        <time>2025-07-14T08:57:47Z</time>
      </trkpt>
      <trkpt lat="44.7982" lon="0.48595">
        <ele>140.4</ele>
        <time>2025-07-14T08:57:48Z</time>
      </trkpt>
      <trkpt lat="44.7982" lon="0.4859">
        <ele>140.4</ele>
        <time>2025-07-14T08:57:49Z</time>
      </trkpt>
      <trkpt lat="44.7982" lon="0.48587">
        <ele>140.4</ele>
        <time>2025-07-14T08:57:50Z</time>
      </trkpt>
      <trkpt lat="44.79821" lon="0.48584">
        <ele>140.4</ele>
        <time>2025-07-14T08:57:51Z</time>
      </trkpt>
      <trkpt lat="44.79821" lon="0.48579">
        <ele>140.2</ele>
        <time>2025-07-14T08:57:52Z</time>
      </trkpt>
      <trkpt lat="44.79822" lon="0.48573">
        <ele>140</ele>
        <time>2025-07-14T08:57:53Z</time>
      </trkpt>
      <trkpt lat="44.79823" lon="0.48566">
        <ele>139.6</ele>
        <time>2025-07-14T08:57:54Z</time>
      </trkpt>
      <trkpt lat="44.79824" lon="0.4856">
        <ele>138.8</ele>
        <time>2025-07-14T08:57:55Z</time>
      </trkpt>
      <trkpt lat="44.79823" lon="0.48556">
        <ele>138</ele>
        <time>2025-07-14T08:57:56Z</time>
      </trkpt>
      <trkpt lat="44.79821" lon="0.48555">
        <ele>137</ele>
        <time>2025-07-14T08:57:57Z</time>
      </trkpt>
      <trkpt lat="44.79819" lon="0.48554">
        <ele>136.2</ele>
        <time>2025-07-14T08:57:58Z</time>
      </trkpt>
      <trkpt lat="44.79816" lon="0.48553">
        <ele>135.6</ele>
        <time>2025-07-14T08:57:59Z</time>
      </trkpt>
      <trkpt lat="44.79814" lon="0.48552">
        <ele>135</ele>
        <time>2025-07-14T08:58:00Z</time>
      </trkpt>
      <trkpt lat="44.79811" lon="0.48552">
        <ele>134.4</ele>
        <time>2025-07-14T08:58:01Z</time>
      </trkpt>
      <trkpt lat="44.79808" lon="0.48551">
        <ele>134.2</ele>
        <time>2025-07-14T08:58:02Z</time>
      </trkpt>
      <trkpt lat="44.79806" lon="0.4855">
        <ele>134</ele>
        <time>2025-07-14T08:58:03Z</time>
      </trkpt>
      <trkpt lat="44.79803" lon="0.4855">
        <ele>133.8</ele>
        <time>2025-07-14T08:58:04Z</time>
      </trkpt>
      <trkpt lat="44.798" lon="0.4855">
        <ele>133.8</ele>
        <time>2025-07-14T08:58:05Z</time>
      </trkpt>
      <trkpt lat="44.79798" lon="0.48549">
        <ele>133.8</ele>
        <time>2025-07-14T08:58:06Z</time>
      </trkpt>
      <trkpt lat="44.79796" lon="0.48549">
        <ele>133.8</ele>
        <time>2025-07-14T08:58:07Z</time>
      </trkpt>
      <trkpt lat="44.79793" lon="0.48549">
        <ele>134</ele>
        <time>2025-07-14T08:58:08Z</time>
      </trkpt>
      <trkpt lat="44.7979" lon="0.48548">
        <ele>134.2</ele>
        <time>2025-07-14T08:58:09Z</time>
      </trkpt>
      <trkpt lat="44.79787" lon="0.48547">
        <ele>134.2</ele>
        <time>2025-07-14T08:58:10Z</time>
      </trkpt>
      <trkpt lat="44.79783" lon="0.48546">
        <ele>134.2</ele>
        <time>2025-07-14T08:58:11Z</time>
      </trkpt>
      <trkpt lat="44.7978" lon="0.48546">
        <ele>134.2</ele>
        <time>2025-07-14T08:58:12Z</time>
      </trkpt>
      <trkpt lat="44.79776" lon="0.48546">
        <ele>134</ele>
        <time>2025-07-14T08:58:13Z</time>
      </trkpt>
      <trkpt lat="44.79772" lon="0.48546">
        <ele>134</ele>
        <time>2025-07-14T08:58:14Z</time>
      </trkpt>
      <trkpt lat="44.79768" lon="0.48547">
        <ele>133.8</ele>
        <time>2025-07-14T08:58:15Z</time>
      </trkpt>
      <trkpt lat="44.79765" lon="0.48548">
        <ele>133.6</ele>
        <time>2025-07-14T08:58:16Z</time>
      </trkpt>
      <trkpt lat="44.7976" lon="0.48549">
        <ele>133.4</ele>
        <time>2025-07-14T08:58:17Z</time>
      </trkpt>
      <trkpt lat="44.79757" lon="0.4855">
        <ele>133.4</ele>
        <time>2025-07-14T08:58:18Z</time>
      </trkpt>
      <trkpt lat="44.79754" lon="0.48553">
        <ele>133.4</ele>
        <time>2025-07-14T08:58:19Z</time>
      </trkpt>
      <trkpt lat="44.79751" lon="0.48554">
        <ele>133.4</ele>
        <time>2025-07-14T08:58:20Z</time>
      </trkpt>
      <trkpt lat="44.79747" lon="0.48556">
        <ele>133.6</ele>
        <time>2025-07-14T08:58:21Z</time>
      </trkpt>
      <trkpt lat="44.79743" lon="0.48557">
        <ele>133.8</ele>
        <time>2025-07-14T08:58:22Z</time>
      </trkpt>
      <trkpt lat="44.7974" lon="0.48559">
        <ele>133.8</ele>
        <time>2025-07-14T08:58:23Z</time>
      </trkpt>
      <trkpt lat="44.79735" lon="0.4856">
        <ele>133.8</ele>
        <time>2025-07-14T08:58:24Z</time>
      </trkpt>
      <trkpt lat="44.79731" lon="0.48562">
        <ele>134</ele>
        <time>2025-07-14T08:58:25Z</time>
      </trkpt>
      <trkpt lat="44.79727" lon="0.48563">
        <ele>134</ele>
        <time>2025-07-14T08:58:26Z</time>
      </trkpt>
      <trkpt lat="44.79724" lon="0.48564">
        <ele>134</ele>
        <time>2025-07-14T08:58:27Z</time>
      </trkpt>
      <trkpt lat="44.7972" lon="0.48566">
        <ele>134.2</ele>
        <time>2025-07-14T08:58:28Z</time>
      </trkpt>
      <trkpt lat="44.79717" lon="0.48568">
        <ele>134.2</ele>
        <time>2025-07-14T08:58:29Z</time>
      </trkpt>
      <trkpt lat="44.79714" lon="0.48569">
        <ele>134.4</ele>
        <time>2025-07-14T08:58:30Z</time>
      </trkpt>
      <trkpt lat="44.79711" lon="0.4857">
        <ele>134.6</ele>
        <time>2025-07-14T08:58:31Z</time>
      </trkpt>
      <trkpt lat="44.79708" lon="0.48571">
        <ele>134.8</ele>
        <time>2025-07-14T08:58:32Z</time>
      </trkpt>
      <trkpt lat="44.79706" lon="0.48573">
        <ele>135</ele>
        <time>2025-07-14T08:58:33Z</time>
      </trkpt>
      <trkpt lat="44.79703" lon="0.48574">
        <ele>135.2</ele>
        <time>2025-07-14T08:58:34Z</time>
      </trkpt>
      <trkpt lat="44.797" lon="0.48576">
        <ele>135.4</ele>
        <time>2025-07-14T08:58:35Z</time>
      </trkpt>
      <trkpt lat="44.79698" lon="0.48577">
        <ele>135.4</ele>
        <time>2025-07-14T08:58:36Z</time>
      </trkpt>
      <trkpt lat="44.79695" lon="0.48579">
        <ele>135.6</ele>
        <time>2025-07-14T08:58:37Z</time>
      </trkpt>
      <trkpt lat="44.79693" lon="0.48581">
        <ele>135.8</ele>
        <time>2025-07-14T08:58:38Z</time>
      </trkpt>
      <trkpt lat="44.7969" lon="0.48582">
        <ele>136</ele>
        <time>2025-07-14T08:58:39Z</time>
      </trkpt>
      <trkpt lat="44.79688" lon="0.48583">
        <ele>136.2</ele>
        <time>2025-07-14T08:58:40Z</time>
      </trkpt>
      <trkpt lat="44.79686" lon="0.48583">
        <ele>136.4</ele>
        <time>2025-07-14T08:58:41Z</time>
      </trkpt>
      <trkpt lat="44.79683" lon="0.48582">
        <ele>136.6</ele>
        <time>2025-07-14T08:58:42Z</time>
      </trkpt>
      <trkpt lat="44.7968" lon="0.48582">
        <ele>136.8</ele>
        <time>2025-07-14T08:58:43Z</time>
      </trkpt>
      <trkpt lat="44.79677" lon="0.48581">
        <ele>137</ele>
        <time>2025-07-14T08:58:44Z</time>
      </trkpt>
      <trkpt lat="44.79676" lon="0.48578">
        <ele>137</ele>
        <time>2025-07-14T08:58:45Z</time>
      </trkpt>
      <trkpt lat="44.79675" lon="0.48575">
        <ele>137.2</ele>
        <time>2025-07-14T08:58:46Z</time>
      </trkpt>
      <trkpt lat="44.79672" lon="0.48571">
        <ele>137.2</ele>
        <time>2025-07-14T08:58:47Z</time>
      </trkpt>
      <trkpt lat="44.79671" lon="0.48567">
        <ele>137</ele>
        <time>2025-07-14T08:58:48Z</time>
      </trkpt>
      <trkpt lat="44.79669" lon="0.48564">
        <ele>136.8</ele>
        <time>2025-07-14T08:58:49Z</time>
      </trkpt>
      <trkpt lat="44.79668" lon="0.4856">
        <ele>136.6</ele>
        <time>2025-07-14T08:58:50Z</time>
      </trkpt>
      <trkpt lat="44.79665" lon="0.48557">
        <ele>136.4</ele>
        <time>2025-07-14T08:58:51Z</time>
      </trkpt>
      <trkpt lat="44.79663" lon="0.48554">
        <ele>136.2</ele>
        <time>2025-07-14T08:58:52Z</time>
      </trkpt>
      <trkpt lat="44.79661" lon="0.48552">
        <ele>136</ele>
        <time>2025-07-14T08:58:53Z</time>
      </trkpt>
      <trkpt lat="44.7966" lon="0.48549">
        <ele>135.8</ele>
        <time>2025-07-14T08:58:54Z</time>
      </trkpt>
      <trkpt lat="44.79658" lon="0.48548">
        <ele>135.8</ele>
        <time>2025-07-14T08:58:55Z</time>
      </trkpt>
      <trkpt lat="44.79656" lon="0.48546">
        <ele>135.6</ele>
        <time>2025-07-14T08:58:56Z</time>
      </trkpt>
      <trkpt lat="44.79655" lon="0.48544">
        <ele>135.6</ele>
        <time>2025-07-14T08:58:57Z</time>
      </trkpt>
      <trkpt lat="44.79654" lon="0.48542">
        <ele>135.8</ele>
        <time>2025-07-14T08:58:58Z</time>
      </trkpt>
      <trkpt lat="44.79653" lon="0.4854">
        <ele>135.8</ele>
        <time>2025-07-14T08:58:59Z</time>
      </trkpt>
      <trkpt lat="44.79652" lon="0.48536">
        <ele>136</ele>
        <time>2025-07-14T08:59:00Z</time>
      </trkpt>
      <trkpt lat="44.79651" lon="0.48533">
        <ele>136.2</ele>
        <time>2025-07-14T08:59:01Z</time>
      </trkpt>
      <trkpt lat="44.7965" lon="0.48531">
        <ele>136.2</ele>
        <time>2025-07-14T08:59:02Z</time>
      </trkpt>
      <trkpt lat="44.79648" lon="0.4853">
        <ele>136.4</ele>
        <time>2025-07-14T08:59:03Z</time>
      </trkpt>
      <trkpt lat="44.79647" lon="0.48528">
        <ele>136.6</ele>
        <time>2025-07-14T08:59:04Z</time>
      </trkpt>
      <trkpt lat="44.79645" lon="0.48525">
        <ele>136.8</ele>
        <time>2025-07-14T08:59:05Z</time>
      </trkpt>
      <trkpt lat="44.79644" lon="0.48524">
        <ele>137</ele>
        <time>2025-07-14T08:59:06Z</time>
      </trkpt>
      <trkpt lat="44.79643" lon="0.48522">
        <ele>137.2</ele>
        <time>2025-07-14T08:59:07Z</time>
      </trkpt>
      <trkpt lat="44.79641" lon="0.48521">
        <ele>137.2</ele>
        <time>2025-07-14T08:59:08Z</time>
      </trkpt>
      <trkpt lat="44.7964" lon="0.48519">
        <ele>137.4</ele>
        <time>2025-07-14T08:59:09Z</time>
      </trkpt>
      <trkpt lat="44.79639" lon="0.48519">
        <ele>137.6</ele>
        <time>2025-07-14T08:59:10Z</time>
      </trkpt>
      <trkpt lat="44.79637" lon="0.48519">
        <ele>137.8</ele>
        <time>2025-07-14T08:59:11Z</time>
      </trkpt>
      <trkpt lat="44.79636" lon="0.48519">
        <ele>138.2</ele>
        <time>2025-07-14T08:59:12Z</time>
      </trkpt>
      <trkpt lat="44.79635" lon="0.48519">
        <ele>138.4</ele>
        <time>2025-07-14T08:59:13Z</time>
      </trkpt>
      <trkpt lat="44.79634" lon="0.4852">
        <ele>138.8</ele>
        <time>2025-07-14T08:59:14Z</time>
      </trkpt>
      <trkpt lat="44.79633" lon="0.48521">
        <ele>139.2</ele>
        <time>2025-07-14T08:59:15Z</time>
      </trkpt>
      <trkpt lat="44.79631" lon="0.48521">
        <ele>139.4</ele>
        <time>2025-07-14T08:59:16Z</time>
      </trkpt>
      <trkpt lat="44.7963" lon="0.4852">
        <ele>140</ele>
        <time>2025-07-14T08:59:17Z</time>
      </trkpt>
      <trkpt lat="44.7963" lon="0.48519">
        <ele>140.2</ele>
        <time>2025-07-14T08:59:18Z</time>
      </trkpt>
      <trkpt lat="44.79629" lon="0.48517">
        <ele>140.6</ele>
        <time>2025-07-14T08:59:19Z</time>
      </trkpt>
      <trkpt lat="44.79629" lon="0.48515">
        <ele>140.8</ele>
        <time>2025-07-14T08:59:20Z</time>
      </trkpt>
      <trkpt lat="44.79629" lon="0.48512">
        <ele>141</ele>
        <time>2025-07-14T08:59:21Z</time>
      </trkpt>
      <trkpt lat="44.79629" lon="0.4851">
        <ele>141.2</ele>
        <time>2025-07-14T08:59:22Z</time>
      </trkpt>
      <trkpt lat="44.79629" lon="0.48509">
        <ele>141.4</ele>
        <time>2025-07-14T08:59:23Z</time>
      </trkpt>
      <trkpt lat="44.7963" lon="0.48508">
        <ele>141.6</ele>
        <time>2025-07-14T08:59:24Z</time>
      </trkpt>
      <trkpt lat="44.7963" lon="0.48505">
        <ele>141.6</ele>
        <time>2025-07-14T08:59:25Z</time>
      </trkpt>
      <trkpt lat="44.79631" lon="0.48501">
        <ele>141.6</ele>
        <time>2025-07-14T08:59:26Z</time>
      </trkpt>
      <trkpt lat="44.79633" lon="0.48497">
        <ele>141.6</ele>
        <time>2025-07-14T08:59:27Z</time>
      </trkpt>
      <trkpt lat="44.79634" lon="0.48492">
        <ele>141.2</ele>
        <time>2025-07-14T08:59:28Z</time>
      </trkpt>
      <trkpt lat="44.79635" lon="0.48488">
        <ele>140.8</ele>
        <time>2025-07-14T08:59:29Z</time>
      </trkpt>
      <trkpt lat="44.79635" lon="0.48484">
        <ele>140.2</ele>
        <time>2025-07-14T08:59:30Z</time>
      </trkpt>
      <trkpt lat="44.79635" lon="0.48481">
        <ele>139.6</ele>
        <time>2025-07-14T08:59:31Z</time>
      </trkpt>
      <trkpt lat="44.79635" lon="0.48478">
        <ele>139.4</ele>
        <time>2025-07-14T08:59:32Z</time>
      </trkpt>
      <trkpt lat="44.79634" lon="0.48476">
        <ele>139</ele>
        <time>2025-07-14T08:59:33Z</time>
      </trkpt>
      <trkpt lat="44.79633" lon="0.48473">
        <ele>138.8</ele>
        <time>2025-07-14T08:59:34Z</time>
      </trkpt>
      <trkpt lat="44.79632" lon="0.4847">
        <ele>138.8</ele>
        <time>2025-07-14T08:59:35Z</time>
      </trkpt>
      <trkpt lat="44.79632" lon="0.48468">
        <ele>138.8</ele>
        <time>2025-07-14T08:59:36Z</time>
      </trkpt>
      <trkpt lat="44.79632" lon="0.48466">
        <ele>138.8</ele>
        <time>2025-07-14T08:59:37Z</time>
      </trkpt>
      <trkpt lat="44.79632" lon="0.48463">
        <ele>138.8</ele>
        <time>2025-07-14T08:59:38Z</time>
      </trkpt>
      <trkpt lat="44.79631" lon="0.4846">
        <ele>139</ele>
        <time>2025-07-14T08:59:39Z</time>
      </trkpt>
      <trkpt lat="44.79631" lon="0.48457">
        <ele>139</ele>
        <time>2025-07-14T08:59:40Z</time>
      </trkpt>
      <trkpt lat="44.7963" lon="0.48452">
        <ele>139</ele>
        <time>2025-07-14T08:59:41Z</time>
      </trkpt>
      <trkpt lat="44.7963" lon="0.48447">
        <ele>139</ele>
        <time>2025-07-14T08:59:42Z</time>
      </trkpt>
      <trkpt lat="44.7963" lon="0.48442">
        <ele>139</ele>
        <time>2025-07-14T08:59:43Z</time>
      </trkpt>
      <trkpt lat="44.7963" lon="0.48437">
        <ele>138.8</ele>
        <time>2025-07-14T08:59:44Z</time>
      </trkpt>
      <trkpt lat="44.79629" lon="0.48431">
        <ele>138.8</ele>
        <time>2025-07-14T08:59:45Z</time>
      </trkpt>
      <trkpt lat="44.79631" lon="0.48426">
        <ele>138.6</ele>
        <time>2025-07-14T08:59:46Z</time>
      </trkpt>
      <trkpt lat="44.79632" lon="0.4842">
        <ele>138.4</ele>
        <time>2025-07-14T08:59:47Z</time>
      </trkpt>
      <trkpt lat="44.79632" lon="0.48414">
        <ele>138.2</ele>
        <time>2025-07-14T08:59:48Z</time>
      </trkpt>
      <trkpt lat="44.79632" lon="0.48408">
        <ele>138</ele>
        <time>2025-07-14T08:59:49Z</time>
      </trkpt>
      <trkpt lat="44.7963" lon="0.48402">
        <ele>137.6</ele>
        <time>2025-07-14T08:59:50Z</time>
      </trkpt>
      <trkpt lat="44.79629" lon="0.48398">
        <ele>137.4</ele>
        <time>2025-07-14T08:59:51Z</time>
      </trkpt>
      <trkpt lat="44.79628" lon="0.48395">
        <ele>137.2</ele>
        <time>2025-07-14T08:59:52Z</time>
      </trkpt>
      <trkpt lat="44.79628" lon="0.48391">
        <ele>137</ele>
        <time>2025-07-14T08:59:53Z</time>
      </trkpt>
      <trkpt lat="44.79628" lon="0.48388">
        <ele>137.2</ele>
        <time>2025-07-14T08:59:54Z</time>
      </trkpt>
      <trkpt lat="44.79628" lon="0.48386">
        <ele>137.2</ele>
        <time>2025-07-14T08:59:55Z</time>
      </trkpt>
      <trkpt lat="44.79629" lon="0.48382">
        <ele>137.6</ele>
        <time>2025-07-14T08:59:56Z</time>
      </trkpt>
      <trkpt lat="44.79629" lon="0.48377">
        <ele>137.8</ele>
        <time>2025-07-14T08:59:57Z</time>
      </trkpt>
      <trkpt lat="44.79629" lon="0.4837">
        <ele>138</ele>
        <time>2025-07-14T08:59:58Z</time>
      </trkpt>
      <trkpt lat="44.79629" lon="0.48365">
        <ele>137.8</ele>
        <time>2025-07-14T08:59:59Z</time>
      </trkpt>
      <trkpt lat="44.79629" lon="0.48361">
        <ele>137.8</ele>
        <time>2025-07-14T09:00:00Z</time>
      </trkpt>
      <trkpt lat="44.7963" lon="0.48356">
        <ele>137.6</ele>
        <time>2025-07-14T09:00:01Z</time>
      </trkpt>
      <trkpt lat="44.7963" lon="0.48351">
        <ele>137.2</ele>
        <time>2025-07-14T09:00:02Z</time>
      </trkpt>
      <trkpt lat="44.79628" lon="0.48348">
        <ele>136.8</ele>
        <time>2025-07-14T09:00:03Z</time>
      </trkpt>
      <trkpt lat="44.79627" lon="0.48345">
        <ele>136.6</ele>
        <time>2025-07-14T09:00:04Z</time>
      </trkpt>
      <trkpt lat="44.79626" lon="0.48342">
        <ele>136.2</ele>
        <time>2025-07-14T09:00:05Z</time>
      </trkpt>
      <trkpt lat="44.79624" lon="0.4834">
        <ele>136.2</ele>
        <time>2025-07-14T09:00:06Z</time>
      </trkpt>
      <trkpt lat="44.79621" lon="0.48338">
        <ele>136</ele>
        <time>2025-07-14T09:00:07Z</time>
      </trkpt>
      <trkpt lat="44.79619" lon="0.48337">
        <ele>136</ele>
        <time>2025-07-14T09:00:08Z</time>
      </trkpt>
      <trkpt lat="44.79618" lon="0.48336">
        <ele>136.2</ele>
        <time>2025-07-14T09:00:09Z</time>
      </trkpt>
      <trkpt lat="44.79617" lon="0.48334">
        <ele>136.2</ele>
        <time>2025-07-14T09:00:10Z</time>
      </trkpt>
      <trkpt lat="44.79615" lon="0.48333">
        <ele>136.4</ele>
        <time>2025-07-14T09:00:11Z</time>
      </trkpt>
      <trkpt lat="44.79613" lon="0.48332">
        <ele>136.6</ele>
        <time>2025-07-14T09:00:12Z</time>
      </trkpt>
      <trkpt lat="44.79611" lon="0.48331">
        <ele>136.8</ele>
        <time>2025-07-14T09:00:13Z</time>
      </trkpt>
      <trkpt lat="44.7961" lon="0.48329">
        <ele>137.2</ele>
        <time>2025-07-14T09:00:14Z</time>
      </trkpt>
      <trkpt lat="44.7961" lon="0.48327">
        <ele>137.4</ele>
        <time>2025-07-14T09:00:15Z</time>
      </trkpt>
      <trkpt lat="44.7961" lon="0.48323">
        <ele>137.6</ele>
        <time>2025-07-14T09:00:16Z</time>
      </trkpt>
      <trkpt lat="44.7961" lon="0.48318">
        <ele>137.6</ele>
        <time>2025-07-14T09:00:17Z</time>
      </trkpt>
      <trkpt lat="44.79608" lon="0.48312">
        <ele>137.4</ele>
        <time>2025-07-14T09:00:18Z</time>
      </trkpt>
      <trkpt lat="44.79606" lon="0.48308">
        <ele>137.2</ele>
        <time>2025-07-14T09:00:19Z</time>
      </trkpt>
      <trkpt lat="44.79604" lon="0.48305">
        <ele>137</ele>
        <time>2025-07-14T09:00:20Z</time>
      </trkpt>
      <trkpt lat="44.79603" lon="0.48304">
        <ele>136.8</ele>
        <time>2025-07-14T09:00:21Z</time>
      </trkpt>
      <trkpt lat="44.79601" lon="0.48302">
        <ele>136.6</ele>
        <time>2025-07-14T09:00:22Z</time>
      </trkpt>
      <trkpt lat="44.796" lon="0.48301">
        <ele>136.6</ele>
        <time>2025-07-14T09:00:23Z</time>
      </trkpt>
      <trkpt lat="44.79599" lon="0.483">
        <ele>136.8</ele>
        <time>2025-07-14T09:00:24Z</time>
      </trkpt>
      <trkpt lat="44.79597" lon="0.483">
        <ele>137</ele>
        <time>2025-07-14T09:00:25Z</time>
      </trkpt>
      <trkpt lat="44.79596" lon="0.48299">
        <ele>137.2</ele>
        <time>2025-07-14T09:00:26Z</time>
      </trkpt>
      <trkpt lat="44.79595" lon="0.48299">
        <ele>137.4</ele>
        <time>2025-07-14T09:00:27Z</time>
      </trkpt>
      <trkpt lat="44.79593" lon="0.48298">
        <ele>137.8</ele>
        <time>2025-07-14T09:00:28Z</time>
      </trkpt>
      <trkpt lat="44.79592" lon="0.48297">
        <ele>138.2</ele>
        <time>2025-07-14T09:00:29Z</time>
      </trkpt>
      <trkpt lat="44.79591" lon="0.48296">
        <ele>138.4</ele>
        <time>2025-07-14T09:00:30Z</time>
      </trkpt>
      <trkpt lat="44.7959" lon="0.48295">
        <ele>138.6</ele>
        <time>2025-07-14T09:00:31Z</time>
      </trkpt>
      <trkpt lat="44.79589" lon="0.48295">
        <ele>138.8</ele>
        <time>2025-07-14T09:00:32Z</time>
      </trkpt>
      <trkpt lat="44.79588" lon="0.48294">
        <ele>139.2</ele>
        <time>2025-07-14T09:00:33Z</time>
      </trkpt>
      <trkpt lat="44.79587" lon="0.48293">
        <ele>139.4</ele>
        <time>2025-07-14T09:00:34Z</time>
      </trkpt>
      <trkpt lat="44.79586" lon="0.48293">
        <ele>139.8</ele>
        <time>2025-07-14T09:00:35Z</time>
      </trkpt>
      <trkpt lat="44.79585" lon="0.48292">
        <ele>140</ele>
        <time>2025-07-14T09:00:36Z</time>
      </trkpt>
      <trkpt lat="44.79584" lon="0.48291">
        <ele>140.2</ele>
        <time>2025-07-14T09:00:37Z</time>
      </trkpt>
      <trkpt lat="44.79583" lon="0.4829">
        <ele>140.6</ele>
        <time>2025-07-14T09:00:38Z</time>
      </trkpt>
      <trkpt lat="44.79582" lon="0.48289">
        <ele>140.8</ele>
        <time>2025-07-14T09:00:39Z</time>
      </trkpt>
      <trkpt lat="44.79581" lon="0.48289">
        <ele>141.2</ele>
        <time>2025-07-14T09:00:40Z</time>
      </trkpt>
      <trkpt lat="44.7958" lon="0.48288">
        <ele>141.4</ele>
        <time>2025-07-14T09:00:41Z</time>
      </trkpt>
      <trkpt lat="44.79579" lon="0.48287">
        <ele>141.8</ele>
        <time>2025-07-14T09:00:42Z</time>
      </trkpt>
      <trkpt lat="44.79578" lon="0.48286">
        <ele>142</ele>
        <time>2025-07-14T09:00:43Z</time>
      </trkpt>
      <trkpt lat="44.79577" lon="0.48285">
        <ele>142.2</ele>
        <time>2025-07-14T09:00:44Z</time>
      </trkpt>
      <trkpt lat="44.79576" lon="0.48285">
        <ele>142.6</ele>
        <time>2025-07-14T09:00:45Z</time>
      </trkpt>
      <trkpt lat="44.79575" lon="0.48284">
        <ele>142.8</ele>
        <time>2025-07-14T09:00:46Z</time>
      </trkpt>
      <trkpt lat="44.79574" lon="0.48284">
        <ele>143.2</ele>
        <time>2025-07-14T09:00:47Z</time>
      </trkpt>
      <trkpt lat="44.79573" lon="0.48283">
        <ele>143.4</ele>
        <time>2025-07-14T09:00:48Z</time>
      </trkpt>
      <trkpt lat="44.79572" lon="0.48283">
        <ele>143.6</ele>
        <time>2025-07-14T09:00:49Z</time>
      </trkpt>
      <trkpt lat="44.7957" lon="0.48283">
        <ele>143.6</ele>
        <time>2025-07-14T09:00:50Z</time>
      </trkpt>
      <trkpt lat="44.79569" lon="0.48283">
        <ele>144</ele>
        <time>2025-07-14T09:00:51Z</time>
      </trkpt>
      <trkpt lat="44.79568" lon="0.48283">
        <ele>144.2</ele>
        <time>2025-07-14T09:00:52Z</time>
      </trkpt>
      <trkpt lat="44.79567" lon="0.48283">
        <ele>144.4</ele>
        <time>2025-07-14T09:00:53Z</time>
      </trkpt>
      <trkpt lat="44.79566" lon="0.48283">
        <ele>144.6</ele>
        <time>2025-07-14T09:00:54Z</time>
      </trkpt>
      <trkpt lat="44.79565" lon="0.48283">
        <ele>144.8</ele>
        <time>2025-07-14T09:00:55Z</time>
      </trkpt>
      <trkpt lat="44.79564" lon="0.48284">
        <ele>145</ele>
        <time>2025-07-14T09:00:56Z</time>
      </trkpt>
      <trkpt lat="44.79563" lon="0.48284">
        <ele>145.4</ele>
        <time>2025-07-14T09:00:57Z</time>
      </trkpt>
      <trkpt lat="44.79562" lon="0.48284">
        <ele>145.6</ele>
        <time>2025-07-14T09:00:58Z</time>
      </trkpt>
      <trkpt lat="44.79561" lon="0.48283">
        <ele>145.8</ele>
        <time>2025-07-14T09:00:59Z</time>
      </trkpt>
      <trkpt lat="44.7956" lon="0.48282">
        <ele>146</ele>
        <time>2025-07-14T09:01:00Z</time>
      </trkpt>
      <trkpt lat="44.79558" lon="0.48282">
        <ele>146.2</ele>
        <time>2025-07-14T09:01:01Z</time>
      </trkpt>
      <trkpt lat="44.79557" lon="0.48281">
        <ele>146.4</ele>
        <time>2025-07-14T09:01:02Z</time>
      </trkpt>
      <trkpt lat="44.79556" lon="0.4828">
        <ele>146.6</ele>
        <time>2025-07-14T09:01:03Z</time>
      </trkpt>
      <trkpt lat="44.79555" lon="0.4828">
        <ele>146.8</ele>
        <time>2025-07-14T09:01:04Z</time>
      </trkpt>
      <trkpt lat="44.79554" lon="0.48279">
        <ele>147</ele>
        <time>2025-07-14T09:01:05Z</time>
      </trkpt>
      <trkpt lat="44.79553" lon="0.48278">
        <ele>147.4</ele>
        <time>2025-07-14T09:01:06Z</time>
      </trkpt>
      <trkpt lat="44.79551" lon="0.48278">
        <ele>147.6</ele>
        <time>2025-07-14T09:01:07Z</time>
      </trkpt>
      <trkpt lat="44.7955" lon="0.48277">
        <ele>147.8</ele>
        <time>2025-07-14T09:01:08Z</time>
      </trkpt>
      <trkpt lat="44.79549" lon="0.48276">
        <ele>148</ele>
        <time>2025-07-14T09:01:09Z</time>
      </trkpt>
      <trkpt lat="44.79548" lon="0.48275">
        <ele>148.2</ele>
        <time>2025-07-14T09:01:10Z</time>
      </trkpt>
      <trkpt lat="44.79547" lon="0.48274">
        <ele>148.4</ele>
        <time>2025-07-14T09:01:11Z</time>
      </trkpt>
      <trkpt lat="44.79546" lon="0.48273">
        <ele>148.4</ele>
        <time>2025-07-14T09:01:12Z</time>
      </trkpt>
      <trkpt lat="44.79545" lon="0.48272">
        <ele>148.6</ele>
        <time>2025-07-14T09:01:13Z</time>
      </trkpt>
      <trkpt lat="44.79543" lon="0.48271">
        <ele>148.8</ele>
        <time>2025-07-14T09:01:14Z</time>
      </trkpt>
      <trkpt lat="44.79541" lon="0.4827">
        <ele>149</ele>
        <time>2025-07-14T09:01:15Z</time>
      </trkpt>
      <trkpt lat="44.7954" lon="0.48269">
        <ele>149.2</ele>
        <time>2025-07-14T09:01:16Z</time>
      </trkpt>
      <trkpt lat="44.79538" lon="0.48267">
        <ele>149.4</ele>
        <time>2025-07-14T09:01:17Z</time>
      </trkpt>
      <trkpt lat="44.79537" lon="0.48266">
        <ele>149.6</ele>
        <time>2025-07-14T09:01:18Z</time>
      </trkpt>
      <trkpt lat="44.79535" lon="0.48264">
        <ele>149.6</ele>
        <time>2025-07-14T09:01:19Z</time>
      </trkpt>
      <trkpt lat="44.79534" lon="0.48263">
        <ele>149.8</ele>
        <time>2025-07-14T09:01:20Z</time>
      </trkpt>
      <trkpt lat="44.79532" lon="0.48261">
        <ele>149.8</ele>
        <time>2025-07-14T09:01:21Z</time>
      </trkpt>
      <trkpt lat="44.7953" lon="0.48259">
        <ele>149.8</ele>
        <time>2025-07-14T09:01:22Z</time>
      </trkpt>
      <trkpt lat="44.79528" lon="0.48258">
        <ele>150</ele>
        <time>2025-07-14T09:01:23Z</time>
      </trkpt>
      <trkpt lat="44.79527" lon="0.48256">
        <ele>150</ele>
        <time>2025-07-14T09:01:24Z</time>
      </trkpt>
      <trkpt lat="44.79525" lon="0.48254">
        <ele>150.2</ele>
        <time>2025-07-14T09:01:25Z</time>
      </trkpt>
      <trkpt lat="44.79523" lon="0.48253">
        <ele>150.2</ele>
        <time>2025-07-14T09:01:26Z</time>
      </trkpt>
      <trkpt lat="44.79521" lon="0.4825">
        <ele>150.4</ele>
        <time>2025-07-14T09:01:27Z</time>
      </trkpt>
      <trkpt lat="44.79519" lon="0.48248">
        <ele>150.4</ele>
        <time>2025-07-14T09:01:28Z</time>
      </trkpt>
      <trkpt lat="44.79517" lon="0.48246">
        <ele>150.4</ele>
        <time>2025-07-14T09:01:29Z</time>
      </trkpt>
      <trkpt lat="44.79516" lon="0.48244">
        <ele>150.6</ele>
        <time>2025-07-14T09:01:30Z</time>
      </trkpt>
      <trkpt lat="44.79514" lon="0.48241">
        <ele>150.8</ele>
        <time>2025-07-14T09:01:31Z</time>
      </trkpt>
      <trkpt lat="44.79513" lon="0.48238">
        <ele>150.8</ele>
        <time>2025-07-14T09:01:32Z</time>
      </trkpt>
      <trkpt lat="44.79512" lon="0.48236">
        <ele>151</ele>
        <time>2025-07-14T09:01:33Z</time>
      </trkpt>
      <trkpt lat="44.7951" lon="0.48233">
        <ele>151</ele>
        <time>2025-07-14T09:01:34Z</time>
      </trkpt>
      <trkpt lat="44.79509" lon="0.48231">
        <ele>151.2</ele>
        <time>2025-07-14T09:01:35Z</time>
      </trkpt>
      <trkpt lat="44.79508" lon="0.48227">
        <ele>151.2</ele>
        <time>2025-07-14T09:01:36Z</time>
      </trkpt>
      <trkpt lat="44.79508" lon="0.48223">
        <ele>151.2</ele>
        <time>2025-07-14T09:01:37Z</time>
      </trkpt>
      <trkpt lat="44.79507" lon="0.48219">
        <ele>151.2</ele>
        <time>2025-07-14T09:01:38Z</time>
      </trkpt>
      <trkpt lat="44.79506" lon="0.48215">
        <ele>151.2</ele>
        <time>2025-07-14T09:01:39Z</time>
      </trkpt>
      <trkpt lat="44.79505" lon="0.48211">
        <ele>151.2</ele>
        <time>2025-07-14T09:01:40Z</time>
      </trkpt>
      <trkpt lat="44.79504" lon="0.48208">
        <ele>151</ele>
        <time>2025-07-14T09:01:41Z</time>
      </trkpt>
      <trkpt lat="44.79502" lon="0.48204">
        <ele>151</ele>
        <time>2025-07-14T09:01:42Z</time>
      </trkpt>
      <trkpt lat="44.79501" lon="0.48201">
        <ele>151</ele>
        <time>2025-07-14T09:01:43Z</time>
      </trkpt>
      <trkpt lat="44.79499" lon="0.48198">
        <ele>151.2</ele>
        <time>2025-07-14T09:01:44Z</time>
      </trkpt>
      <trkpt lat="44.79497" lon="0.48195">
        <ele>151.2</ele>
        <time>2025-07-14T09:01:45Z</time>
      </trkpt>
      <trkpt lat="44.79495" lon="0.48192">
        <ele>151.2</ele>
        <time>2025-07-14T09:01:46Z</time>
      </trkpt>
      <trkpt lat="44.79493" lon="0.48189">
        <ele>151.2</ele>
        <time>2025-07-14T09:01:47Z</time>
      </trkpt>
      <trkpt lat="44.79491" lon="0.48185">
        <ele>151.4</ele>
        <time>2025-07-14T09:01:48Z</time>
      </trkpt>
      <trkpt lat="44.79488" lon="0.48182">
        <ele>151.4</ele>
        <time>2025-07-14T09:01:49Z</time>
      </trkpt>
      <trkpt lat="44.79486" lon="0.48179">
        <ele>151.4</ele>
        <time>2025-07-14T09:01:50Z</time>
      </trkpt>
      <trkpt lat="44.79484" lon="0.48176">
        <ele>151.4</ele>
        <time>2025-07-14T09:01:51Z</time>
      </trkpt>
      <trkpt lat="44.79481" lon="0.48174">
        <ele>151.6</ele>
        <time>2025-07-14T09:01:52Z</time>
      </trkpt>
      <trkpt lat="44.79479" lon="0.48172">
        <ele>151.6</ele>
        <time>2025-07-14T09:01:53Z</time>
      </trkpt>
      <trkpt lat="44.79476" lon="0.4817">
        <ele>151.6</ele>
        <time>2025-07-14T09:01:54Z</time>
      </trkpt>
      <trkpt lat="44.79473" lon="0.48167">
        <ele>151.6</ele>
        <time>2025-07-14T09:01:55Z</time>
      </trkpt>
      <trkpt lat="44.79471" lon="0.48165">
        <ele>151.6</ele>
        <time>2025-07-14T09:01:56Z</time>
      </trkpt>
      <trkpt lat="44.79468" lon="0.48162">
        <ele>151.8</ele>
        <time>2025-07-14T09:01:57Z</time>
      </trkpt>
      <trkpt lat="44.79466" lon="0.4816">
        <ele>151.8</ele>
        <time>2025-07-14T09:01:58Z</time>
      </trkpt>
      <trkpt lat="44.79463" lon="0.48158">
        <ele>152</ele>
        <time>2025-07-14T09:01:59Z</time>
      </trkpt>
      <trkpt lat="44.7946" lon="0.48157">
        <ele>152</ele>
        <time>2025-07-14T09:02:00Z</time>
      </trkpt>
      <trkpt lat="44.79458" lon="0.48154">
        <ele>152</ele>
        <time>2025-07-14T09:02:01Z</time>
      </trkpt>
      <trkpt lat="44.79458" lon="0.4815">
        <ele>152</ele>
        <time>2025-07-14T09:02:02Z</time>
      </trkpt>
      <trkpt lat="44.79458" lon="0.48146">
        <ele>152</ele>
        <time>2025-07-14T09:02:03Z</time>
      </trkpt>
      <trkpt lat="44.7946" lon="0.48143">
        <ele>152</ele>
        <time>2025-07-14T09:02:04Z</time>
      </trkpt>
      <trkpt lat="44.79462" lon="0.48139">
        <ele>152</ele>
        <time>2025-07-14T09:02:05Z</time>
      </trkpt>
      <trkpt lat="44.79465" lon="0.48136">
        <ele>152</ele>
        <time>2025-07-14T09:02:06Z</time>
      </trkpt>
      <trkpt lat="44.79468" lon="0.48133">
        <ele>152</ele>
        <time>2025-07-14T09:02:07Z</time>
      </trkpt>
      <trkpt lat="44.79471" lon="0.4813">
        <ele>152.2</ele>
        <time>2025-07-14T09:02:08Z</time>
      </trkpt>
      <trkpt lat="44.79474" lon="0.48127">
        <ele>152.2</ele>
        <time>2025-07-14T09:02:09Z</time>
      </trkpt>
      <trkpt lat="44.79478" lon="0.48124">
        <ele>152.2</ele>
        <time>2025-07-14T09:02:10Z</time>
      </trkpt>
      <trkpt lat="44.79481" lon="0.48121">
        <ele>152.2</ele>
        <time>2025-07-14T09:02:11Z</time>
      </trkpt>
      <trkpt lat="44.79485" lon="0.48118">
        <ele>152.2</ele>
        <time>2025-07-14T09:02:12Z</time>
      </trkpt>
      <trkpt lat="44.7949" lon="0.48116">
        <ele>152.2</ele>
        <time>2025-07-14T09:02:13Z</time>
      </trkpt>
      <trkpt lat="44.79494" lon="0.48112">
        <ele>152</ele>
        <time>2025-07-14T09:02:14Z</time>
      </trkpt>
      <trkpt lat="44.79499" lon="0.48108">
        <ele>152</ele>
        <time>2025-07-14T09:02:15Z</time>
      </trkpt>
      <trkpt lat="44.79504" lon="0.48104">
        <ele>152</ele>
        <time>2025-07-14T09:02:16Z</time>
      </trkpt>
      <trkpt lat="44.79509" lon="0.48099">
        <ele>151.8</ele>
        <time>2025-07-14T09:02:17Z</time>
      </trkpt>
      <trkpt lat="44.79514" lon="0.48093">
        <ele>151.4</ele>
        <time>2025-07-14T09:02:18Z</time>
      </trkpt>
      <trkpt lat="44.7952" lon="0.48086">
        <ele>150.8</ele>
        <time>2025-07-14T09:02:19Z</time>
      </trkpt>
      <trkpt lat="44.79525" lon="0.48079">
        <ele>150.4</ele>
        <time>2025-07-14T09:02:20Z</time>
      </trkpt>
      <trkpt lat="44.7953" lon="0.48071">
        <ele>149.8</ele>
        <time>2025-07-14T09:02:21Z</time>
      </trkpt>
      <trkpt lat="44.79534" lon="0.48063">
        <ele>149.4</ele>
        <time>2025-07-14T09:02:22Z</time>
      </trkpt>
      <trkpt lat="44.79538" lon="0.48054">
        <ele>149</ele>
        <time>2025-07-14T09:02:23Z</time>
      </trkpt>
      <trkpt lat="44.79541" lon="0.48045">
        <ele>148.8</ele>
        <time>2025-07-14T09:02:24Z</time>
      </trkpt>
      <trkpt lat="44.79544" lon="0.48037">
        <ele>148.6</ele>
        <time>2025-07-14T09:02:25Z</time>
      </trkpt>
      <trkpt lat="44.79545" lon="0.48028">
        <ele>148.4</ele>
        <time>2025-07-14T09:02:26Z</time>
      </trkpt>
      <trkpt lat="44.79546" lon="0.48021">
        <ele>148.2</ele>
        <time>2025-07-14T09:02:27Z</time>
      </trkpt>
      <trkpt lat="44.79548" lon="0.48014">
        <ele>148</ele>
        <time>2025-07-14T09:02:28Z</time>
      </trkpt>
      <trkpt lat="44.79549" lon="0.48007">
        <ele>148</ele>
        <time>2025-07-14T09:02:29Z</time>
      </trkpt>
      <trkpt lat="44.79551" lon="0.48">
        <ele>148</ele>
        <time>2025-07-14T09:02:30Z</time>
      </trkpt>
      <trkpt lat="44.79551" lon="0.47994">
        <ele>148</ele>
        <time>2025-07-14T09:02:31Z</time>
      </trkpt>
      <trkpt lat="44.79552" lon="0.47987">
        <ele>148</ele>
        <time>2025-07-14T09:02:32Z</time>
      </trkpt>
      <trkpt lat="44.79554" lon="0.4798">
        <ele>148.2</ele>
        <time>2025-07-14T09:02:33Z</time>
      </trkpt>
      <trkpt lat="44.79556" lon="0.47973">
        <ele>148.4</ele>
        <time>2025-07-14T09:02:34Z</time>
      </trkpt>
      <trkpt lat="44.79557" lon="0.47965">
        <ele>148.2</ele>
        <time>2025-07-14T09:02:35Z</time>
      </trkpt>
      <trkpt lat="44.79558" lon="0.47958">
        <ele>148.4</ele>
        <time>2025-07-14T09:02:36Z</time>
      </trkpt>
      <trkpt lat="44.7956" lon="0.47951">
        <ele>148.4</ele>
        <time>2025-07-14T09:02:37Z</time>
      </trkpt>
      <trkpt lat="44.79561" lon="0.47944">
        <ele>148.4</ele>
        <time>2025-07-14T09:02:38Z</time>
      </trkpt>
      <trkpt lat="44.79562" lon="0.47937">
        <ele>148.4</ele>
        <time>2025-07-14T09:02:39Z</time>
      </trkpt>
      <trkpt lat="44.79563" lon="0.4793">
        <ele>148.4</ele>
        <time>2025-07-14T09:02:40Z</time>
      </trkpt>
      <trkpt lat="44.79565" lon="0.47923">
        <ele>148.4</ele>
        <time>2025-07-14T09:02:41Z</time>
      </trkpt>
      <trkpt lat="44.79566" lon="0.47916">
        <ele>148.4</ele>
        <time>2025-07-14T09:02:42Z</time>
      </trkpt>
      <trkpt lat="44.79567" lon="0.47909">
        <ele>148.4</ele>
        <time>2025-07-14T09:02:43Z</time>
      </trkpt>
      <trkpt lat="44.79568" lon="0.47903">
        <ele>148.4</ele>
        <time>2025-07-14T09:02:44Z</time>
      </trkpt>
      <trkpt lat="44.79569" lon="0.47897">
        <ele>148.4</ele>
        <time>2025-07-14T09:02:45Z</time>
      </trkpt>
      <trkpt lat="44.7957" lon="0.4789">
        <ele>148.4</ele>
        <time>2025-07-14T09:02:46Z</time>
      </trkpt>
      <trkpt lat="44.7957" lon="0.47884">
        <ele>148.4</ele>
        <time>2025-07-14T09:02:47Z</time>
      </trkpt>
      <trkpt lat="44.79571" lon="0.47878">
        <ele>148.6</ele>
        <time>2025-07-14T09:02:48Z</time>
      </trkpt>
      <trkpt lat="44.79573" lon="0.47872">
        <ele>148.6</ele>
        <time>2025-07-14T09:02:49Z</time>
      </trkpt>
      <trkpt lat="44.79574" lon="0.47867">
        <ele>149</ele>
        <time>2025-07-14T09:02:50Z</time>
      </trkpt>
      <trkpt lat="44.79575" lon="0.47861">
        <ele>149</ele>
        <time>2025-07-14T09:02:51Z</time>
      </trkpt>
      <trkpt lat="44.79576" lon="0.47856">
        <ele>149.2</ele>
        <time>2025-07-14T09:02:52Z</time>
      </trkpt>
      <trkpt lat="44.79577" lon="0.4785">
        <ele>149.4</ele>
        <time>2025-07-14T09:02:53Z</time>
      </trkpt>
      <trkpt lat="44.79577" lon="0.47844">
        <ele>149.4</ele>
        <time>2025-07-14T09:02:54Z</time>
      </trkpt>
      <trkpt lat="44.79578" lon="0.47839">
        <ele>149.6</ele>
        <time>2025-07-14T09:02:55Z</time>
      </trkpt>
      <trkpt lat="44.79579" lon="0.47833">
        <ele>149.8</ele>
        <time>2025-07-14T09:02:56Z</time>
      </trkpt>
      <trkpt lat="44.7958" lon="0.47827">
        <ele>150</ele>
        <time>2025-07-14T09:02:57Z</time>
      </trkpt>
      <trkpt lat="44.79581" lon="0.47821">
        <ele>150</ele>
        <time>2025-07-14T09:02:58Z</time>
      </trkpt>
      <trkpt lat="44.79581" lon="0.47816">
        <ele>150.2</ele>
        <time>2025-07-14T09:02:59Z</time>
      </trkpt>
      <trkpt lat="44.79581" lon="0.47811">
        <ele>150.4</ele>
        <time>2025-07-14T09:03:00Z</time>
      </trkpt>
      <trkpt lat="44.79582" lon="0.47806">
        <ele>150.4</ele>
        <time>2025-07-14T09:03:01Z</time>
      </trkpt>
      <trkpt lat="44.79582" lon="0.47801">
        <ele>150.6</ele>
        <time>2025-07-14T09:03:02Z</time>
      </trkpt>
      <trkpt lat="44.79582" lon="0.47796">
        <ele>150.8</ele>
        <time>2025-07-14T09:03:03Z</time>
      </trkpt>
      <trkpt lat="44.79582" lon="0.47791">
        <ele>151</ele>
        <time>2025-07-14T09:03:04Z</time>
      </trkpt>
      <trkpt lat="44.79583" lon="0.47787">
        <ele>151.2</ele>
        <time>2025-07-14T09:03:05Z</time>
      </trkpt>
      <trkpt lat="44.79583" lon="0.47782">
        <ele>151.4</ele>
        <time>2025-07-14T09:03:06Z</time>
      </trkpt>
      <trkpt lat="44.79583" lon="0.47777">
        <ele>151.6</ele>
        <time>2025-07-14T09:03:07Z</time>
      </trkpt>
      <trkpt lat="44.79584" lon="0.47772">
        <ele>151.8</ele>
        <time>2025-07-14T09:03:08Z</time>
      </trkpt>
      <trkpt lat="44.79584" lon="0.47767">
        <ele>152</ele>
        <time>2025-07-14T09:03:09Z</time>
      </trkpt>
      <trkpt lat="44.79584" lon="0.47761">
        <ele>152.2</ele>
        <time>2025-07-14T09:03:10Z</time>
      </trkpt>
      <trkpt lat="44.79585" lon="0.47756">
        <ele>152.4</ele>
        <time>2025-07-14T09:03:11Z</time>
      </trkpt>
      <trkpt lat="44.79585" lon="0.47751">
        <ele>152.6</ele>
        <time>2025-07-14T09:03:12Z</time>
      </trkpt>
      <trkpt lat="44.79586" lon="0.47746">
        <ele>152.6</ele>
        <time>2025-07-14T09:03:13Z</time>
      </trkpt>
      <trkpt lat="44.79587" lon="0.47741">
        <ele>152.8</ele>
        <time>2025-07-14T09:03:14Z</time>
      </trkpt>
      <trkpt lat="44.79587" lon="0.47736">
        <ele>153</ele>
        <time>2025-07-14T09:03:15Z</time>
      </trkpt>
      <trkpt lat="44.79588" lon="0.47731">
        <ele>153.2</ele>
        <time>2025-07-14T09:03:16Z</time>
      </trkpt>
      <trkpt lat="44.79588" lon="0.47725">
        <ele>153.4</ele>
        <time>2025-07-14T09:03:17Z</time>
      </trkpt>
      <trkpt lat="44.79589" lon="0.47721">
        <ele>153.4</ele>
        <time>2025-07-14T09:03:18Z</time>
      </trkpt>
      <trkpt lat="44.7959" lon="0.47716">
        <ele>153.6</ele>
        <time>2025-07-14T09:03:19Z</time>
      </trkpt>
      <trkpt lat="44.7959" lon="0.4771">
        <ele>153.6</ele>
        <time>2025-07-14T09:03:20Z</time>
      </trkpt>
      <trkpt lat="44.7959" lon="0.47705">
        <ele>153.8</ele>
        <time>2025-07-14T09:03:21Z</time>
      </trkpt>
      <trkpt lat="44.7959" lon="0.477">
        <ele>154</ele>
        <time>2025-07-14T09:03:22Z</time>
      </trkpt>
      <trkpt lat="44.7959" lon="0.47695">
        <ele>154.2</ele>
        <time>2025-07-14T09:03:23Z</time>
      </trkpt>
      <trkpt lat="44.79591" lon="0.4769">
        <ele>154.2</ele>
        <time>2025-07-14T09:03:24Z</time>
      </trkpt>
      <trkpt lat="44.79591" lon="0.47684">
        <ele>154.4</ele>
        <time>2025-07-14T09:03:25Z</time>
      </trkpt>
      <trkpt lat="44.79592" lon="0.47679">
        <ele>154.6</ele>
        <time>2025-07-14T09:03:26Z</time>
      </trkpt>
      <trkpt lat="44.79593" lon="0.47673">
        <ele>154.6</ele>
        <time>2025-07-14T09:03:27Z</time>
      </trkpt>
      <trkpt lat="44.79594" lon="0.47668">
        <ele>154.8</ele>
        <time>2025-07-14T09:03:28Z</time>
      </trkpt>
      <trkpt lat="44.79594" lon="0.47662">
        <ele>154.8</ele>
        <time>2025-07-14T09:03:29Z</time>
      </trkpt>
      <trkpt lat="44.79595" lon="0.47657">
        <ele>154.8</ele>
        <time>2025-07-14T09:03:30Z</time>
      </trkpt>
      <trkpt lat="44.79596" lon="0.47651">
        <ele>154.8</ele>
        <time>2025-07-14T09:03:31Z</time>
      </trkpt>
      <trkpt lat="44.79596" lon="0.47646">
        <ele>155</ele>
        <time>2025-07-14T09:03:32Z</time>
      </trkpt>
      <trkpt lat="44.79597" lon="0.4764">
        <ele>155</ele>
        <time>2025-07-14T09:03:33Z</time>
      </trkpt>
      <trkpt lat="44.79597" lon="0.47634">
        <ele>154.8</ele>
        <time>2025-07-14T09:03:34Z</time>
      </trkpt>
      <trkpt lat="44.79597" lon="0.47629">
        <ele>154.8</ele>
        <time>2025-07-14T09:03:35Z</time>
      </trkpt>
      <trkpt lat="44.79597" lon="0.47624">
        <ele>155</ele>
        <time>2025-07-14T09:03:36Z</time>
      </trkpt>
      <trkpt lat="44.79598" lon="0.47619">
        <ele>155</ele>
        <time>2025-07-14T09:03:37Z</time>
      </trkpt>
      <trkpt lat="44.796" lon="0.47614">
        <ele>155.2</ele>
        <time>2025-07-14T09:03:38Z</time>
      </trkpt>
      <trkpt lat="44.79601" lon="0.47609">
        <ele>155.2</ele>
        <time>2025-07-14T09:03:39Z</time>
      </trkpt>
      <trkpt lat="44.79602" lon="0.47604">
        <ele>155.4</ele>
        <time>2025-07-14T09:03:40Z</time>
      </trkpt>
      <trkpt lat="44.79603" lon="0.47598">
        <ele>155.4</ele>
        <time>2025-07-14T09:03:41Z</time>
      </trkpt>
      <trkpt lat="44.79604" lon="0.47593">
        <ele>155.4</ele>
        <time>2025-07-14T09:03:42Z</time>
      </trkpt>
      <trkpt lat="44.79604" lon="0.47588">
        <ele>155.6</ele>
        <time>2025-07-14T09:03:43Z</time>
      </trkpt>
      <trkpt lat="44.79604" lon="0.47582">
        <ele>155.6</ele>
        <time>2025-07-14T09:03:44Z</time>
      </trkpt>
      <trkpt lat="44.79605" lon="0.47577">
        <ele>155.6</ele>
        <time>2025-07-14T09:03:45Z</time>
      </trkpt>
      <trkpt lat="44.79605" lon="0.47571">
        <ele>155.6</ele>
        <time>2025-07-14T09:03:46Z</time>
      </trkpt>
      <trkpt lat="44.79606" lon="0.47565">
        <ele>155.6</ele>
        <time>2025-07-14T09:03:47Z</time>
      </trkpt>
      <trkpt lat="44.79609" lon="0.4756">
        <ele>155.6</ele>
        <time>2025-07-14T09:03:48Z</time>
      </trkpt>
      <trkpt lat="44.79612" lon="0.47556">
        <ele>155.4</ele>
        <time>2025-07-14T09:03:49Z</time>
      </trkpt>
      <trkpt lat="44.79617" lon="0.47554">
        <ele>155.2</ele>
        <time>2025-07-14T09:03:50Z</time>
      </trkpt>
      <trkpt lat="44.79621" lon="0.47554">
        <ele>155</ele>
        <time>2025-07-14T09:03:51Z</time>
      </trkpt>
      <trkpt lat="44.79626" lon="0.47553">
        <ele>154.8</ele>
        <time>2025-07-14T09:03:52Z</time>
      </trkpt>
      <trkpt lat="44.79632" lon="0.47553">
        <ele>154.8</ele>
        <time>2025-07-14T09:03:53Z</time>
      </trkpt>
      <trkpt lat="44.79638" lon="0.47553">
        <ele>154.6</ele>
        <time>2025-07-14T09:03:54Z</time>
      </trkpt>
      <trkpt lat="44.79644" lon="0.47553">
        <ele>154.4</ele>
        <time>2025-07-14T09:03:55Z</time>
      </trkpt>
      <trkpt lat="44.7965" lon="0.47554">
        <ele>154.2</ele>
        <time>2025-07-14T09:03:56Z</time>
      </trkpt>
      <trkpt lat="44.79657" lon="0.47554">
        <ele>154</ele>
        <time>2025-07-14T09:03:57Z</time>
      </trkpt>
      <trkpt lat="44.79663" lon="0.47554">
        <ele>153.6</ele>
        <time>2025-07-14T09:03:58Z</time>
      </trkpt>
      <trkpt lat="44.7967" lon="0.47554">
        <ele>153.4</ele>
        <time>2025-07-14T09:03:59Z</time>
      </trkpt>
      <trkpt lat="44.79678" lon="0.47554">
        <ele>153.2</ele>
        <time>2025-07-14T09:04:00Z</time>
      </trkpt>
      <trkpt lat="44.79685" lon="0.47554">
        <ele>152.8</ele>
        <time>2025-07-14T09:04:01Z</time>
      </trkpt>
      <trkpt lat="44.79692" lon="0.47554">
        <ele>152.4</ele>
        <time>2025-07-14T09:04:02Z</time>
      </trkpt>
      <trkpt lat="44.797" lon="0.47554">
        <ele>152</ele>
        <time>2025-07-14T09:04:03Z</time>
      </trkpt>
      <trkpt lat="44.79707" lon="0.47555">
        <ele>151.6</ele>
        <time>2025-07-14T09:04:04Z</time>
      </trkpt>
      <trkpt lat="44.79715" lon="0.47556">
        <ele>151.2</ele>
        <time>2025-07-14T09:04:05Z</time>
      </trkpt>
      <trkpt lat="44.79722" lon="0.47557">
        <ele>150.8</ele>
        <time>2025-07-14T09:04:06Z</time>
      </trkpt>
      <trkpt lat="44.79728" lon="0.47557">
        <ele>150.4</ele>
        <time>2025-07-14T09:04:07Z</time>
      </trkpt>
      <trkpt lat="44.79734" lon="0.47554">
        <ele>150</ele>
        <time>2025-07-14T09:04:08Z</time>
      </trkpt>
      <trkpt lat="44.79738" lon="0.47548">
        <ele>149.6</ele>
        <time>2025-07-14T09:04:09Z</time>
      </trkpt>
      <trkpt lat="44.79741" lon="0.47541">
        <ele>149.6</ele>
        <time>2025-07-14T09:04:10Z</time>
      </trkpt>
      <trkpt lat="44.79743" lon="0.47534">
        <ele>149.4</ele>
        <time>2025-07-14T09:04:11Z</time>
      </trkpt>
      <trkpt lat="44.79745" lon="0.47526">
        <ele>149.4</ele>
        <time>2025-07-14T09:04:12Z</time>
      </trkpt>
      <trkpt lat="44.79748" lon="0.47518">
        <ele>149.4</ele>
        <time>2025-07-14T09:04:13Z</time>
      </trkpt>
      <trkpt lat="44.7975" lon="0.4751">
        <ele>149.4</ele>
        <time>2025-07-14T09:04:14Z</time>
      </trkpt>
      <trkpt lat="44.79753" lon="0.47502">
        <ele>149.2</ele>
        <time>2025-07-14T09:04:15Z</time>
      </trkpt>
      <trkpt lat="44.79756" lon="0.47494">
        <ele>148.8</ele>
        <time>2025-07-14T09:04:16Z</time>
      </trkpt>
      <trkpt lat="44.79759" lon="0.47485">
        <ele>148.6</ele>
        <time>2025-07-14T09:04:17Z</time>
      </trkpt>
      <trkpt lat="44.79761" lon="0.47477">
        <ele>148.4</ele>
        <time>2025-07-14T09:04:18Z</time>
      </trkpt>
      <trkpt lat="44.79763" lon="0.47468">
        <ele>148</ele>
        <time>2025-07-14T09:04:19Z</time>
      </trkpt>
      <trkpt lat="44.79764" lon="0.47458">
        <ele>147.8</ele>
        <time>2025-07-14T09:04:20Z</time>
      </trkpt>
      <trkpt lat="44.79762" lon="0.47448">
        <ele>147.4</ele>
        <time>2025-07-14T09:04:21Z</time>
      </trkpt>
      <trkpt lat="44.79759" lon="0.47439">
        <ele>147.2</ele>
        <time>2025-07-14T09:04:22Z</time>
      </trkpt>
      <trkpt lat="44.79756" lon="0.4743">
        <ele>147</ele>
        <time>2025-07-14T09:04:23Z</time>
      </trkpt>
      <trkpt lat="44.79752" lon="0.47421">
        <ele>146.6</ele>
        <time>2025-07-14T09:04:24Z</time>
      </trkpt>
      <trkpt lat="44.79749" lon="0.47412">
        <ele>146.6</ele>
        <time>2025-07-14T09:04:25Z</time>
      </trkpt>
      <trkpt lat="44.79747" lon="0.47402">
        <ele>146.4</ele>
        <time>2025-07-14T09:04:26Z</time>
      </trkpt>
      <trkpt lat="44.79745" lon="0.47393">
        <ele>146.4</ele>
        <time>2025-07-14T09:04:27Z</time>
      </trkpt>
      <trkpt lat="44.79743" lon="0.47383">
        <ele>146.2</ele>
        <time>2025-07-14T09:04:28Z</time>
      </trkpt>
      <trkpt lat="44.79741" lon="0.47373">
        <ele>146</ele>
        <time>2025-07-14T09:04:29Z</time>
      </trkpt>
      <trkpt lat="44.79741" lon="0.47364">
        <ele>146</ele>
        <time>2025-07-14T09:04:30Z</time>
      </trkpt>
      <trkpt lat="44.79742" lon="0.47354">
        <ele>145.6</ele>
        <time>2025-07-14T09:04:31Z</time>
      </trkpt>
      <trkpt lat="44.79744" lon="0.47344">
        <ele>145.4</ele>
        <time>2025-07-14T09:04:32Z</time>
      </trkpt>
      <trkpt lat="44.79746" lon="0.47334">
        <ele>145.2</ele>
        <time>2025-07-14T09:04:33Z</time>
      </trkpt>
      <trkpt lat="44.79748" lon="0.47325">
        <ele>145</ele>
        <time>2025-07-14T09:04:34Z</time>
      </trkpt>
      <trkpt lat="44.7975" lon="0.47315">
        <ele>144.8</ele>
        <time>2025-07-14T09:04:35Z</time>
      </trkpt>
      <trkpt lat="44.79751" lon="0.47307">
        <ele>144.8</ele>
        <time>2025-07-14T09:04:36Z</time>
      </trkpt>
      <trkpt lat="44.79753" lon="0.47298">
        <ele>144.6</ele>
        <time>2025-07-14T09:04:37Z</time>
      </trkpt>
      <trkpt lat="44.79755" lon="0.4729">
        <ele>144.8</ele>
        <time>2025-07-14T09:04:38Z</time>
      </trkpt>
      <trkpt lat="44.79757" lon="0.47281">
        <ele>144.8</ele>
        <time>2025-07-14T09:04:39Z</time>
      </trkpt>
      <trkpt lat="44.79759" lon="0.47273">
        <ele>144.8</ele>
        <time>2025-07-14T09:04:40Z</time>
      </trkpt>
      <trkpt lat="44.79762" lon="0.47265">
        <ele>144.8</ele>
        <time>2025-07-14T09:04:41Z</time>
      </trkpt>
      <trkpt lat="44.79764" lon="0.47258">
        <ele>144.8</ele>
        <time>2025-07-14T09:04:42Z</time>
      </trkpt>
      <trkpt lat="44.79767" lon="0.4725">
        <ele>144.6</ele>
        <time>2025-07-14T09:04:43Z</time>
      </trkpt>
      <trkpt lat="44.79769" lon="0.47242">
        <ele>144.8</ele>
        <time>2025-07-14T09:04:44Z</time>
      </trkpt>
      <trkpt lat="44.79771" lon="0.47235">
        <ele>144.8</ele>
        <time>2025-07-14T09:04:45Z</time>
      </trkpt>
      <trkpt lat="44.79774" lon="0.47226">
        <ele>144.8</ele>
        <time>2025-07-14T09:04:46Z</time>
      </trkpt>
      <trkpt lat="44.79776" lon="0.47218">
        <ele>144.8</ele>
        <time>2025-07-14T09:04:47Z</time>
      </trkpt>
      <trkpt lat="44.79779" lon="0.47209">
        <ele>144.8</ele>
        <time>2025-07-14T09:04:48Z</time>
      </trkpt>
      <trkpt lat="44.79781" lon="0.472">
        <ele>144.6</ele>
        <time>2025-07-14T09:04:49Z</time>
      </trkpt>
      <trkpt lat="44.79783" lon="0.47192">
        <ele>144.4</ele>
        <time>2025-07-14T09:04:50Z</time>
      </trkpt>
      <trkpt lat="44.79785" lon="0.47183">
        <ele>144.2</ele>
        <time>2025-07-14T09:04:51Z</time>
      </trkpt>
      <trkpt lat="44.79785" lon="0.47175">
        <ele>144</ele>
        <time>2025-07-14T09:04:52Z</time>
      </trkpt>
      <trkpt lat="44.79783" lon="0.47167">
        <ele>143.6</ele>
        <time>2025-07-14T09:04:53Z</time>
      </trkpt>
      <trkpt lat="44.79779" lon="0.47162">
        <ele>143.4</ele>
        <time>2025-07-14T09:04:54Z</time>
      </trkpt>
      <trkpt lat="44.79775" lon="0.47159">
        <ele>143.2</ele>
        <time>2025-07-14T09:04:55Z</time>
      </trkpt>
      <trkpt lat="44.79772" lon="0.47157">
        <ele>143.2</ele>
        <time>2025-07-14T09:04:56Z</time>
      </trkpt>
      <trkpt lat="44.79768" lon="0.47156">
        <ele>143.4</ele>
        <time>2025-07-14T09:04:57Z</time>
      </trkpt>
      <trkpt lat="44.79764" lon="0.47154">
        <ele>143.8</ele>
        <time>2025-07-14T09:04:58Z</time>
      </trkpt>
      <trkpt lat="44.79761" lon="0.47153">
        <ele>143.8</ele>
        <time>2025-07-14T09:04:59Z</time>
      </trkpt>
      <trkpt lat="44.79757" lon="0.47151">
        <ele>144.2</ele>
        <time>2025-07-14T09:05:00Z</time>
      </trkpt>
      <trkpt lat="44.79754" lon="0.4715">
        <ele>144.4</ele>
        <time>2025-07-14T09:05:01Z</time>
      </trkpt>
      <trkpt lat="44.7975" lon="0.47149">
        <ele>144.6</ele>
        <time>2025-07-14T09:05:02Z</time>
      </trkpt>
      <trkpt lat="44.79747" lon="0.47147">
        <ele>144.8</ele>
        <time>2025-07-14T09:05:03Z</time>
      </trkpt>
      <trkpt lat="44.79744" lon="0.47146">
        <ele>145.2</ele>
        <time>2025-07-14T09:05:04Z</time>
      </trkpt>
      <trkpt lat="44.79741" lon="0.47144">
        <ele>145.4</ele>
        <time>2025-07-14T09:05:05Z</time>
      </trkpt>
      <trkpt lat="44.79738" lon="0.47142">
        <ele>145.6</ele>
        <time>2025-07-14T09:05:06Z</time>
      </trkpt>
      <trkpt lat="44.79735" lon="0.47141">
        <ele>146</ele>
        <time>2025-07-14T09:05:07Z</time>
      </trkpt>
      <trkpt lat="44.79732" lon="0.4714">
        <ele>146.2</ele>
        <time>2025-07-14T09:05:08Z</time>
      </trkpt>
      <trkpt lat="44.79729" lon="0.47139">
        <ele>146.4</ele>
        <time>2025-07-14T09:05:09Z</time>
      </trkpt>
      <trkpt lat="44.79726" lon="0.47138">
        <ele>146.6</ele>
        <time>2025-07-14T09:05:10Z</time>
      </trkpt>
      <trkpt lat="44.79723" lon="0.47137">
        <ele>146.8</ele>
        <time>2025-07-14T09:05:11Z</time>
      </trkpt>
      <trkpt lat="44.7972" lon="0.47136">
        <ele>147.2</ele>
        <time>2025-07-14T09:05:12Z</time>
      </trkpt>
      <trkpt lat="44.79717" lon="0.47135">
        <ele>147.4</ele>
        <time>2025-07-14T09:05:13Z</time>
      </trkpt>
      <trkpt lat="44.79715" lon="0.47134">
        <ele>147.8</ele>
        <time>2025-07-14T09:05:14Z</time>
      </trkpt>
      <trkpt lat="44.79712" lon="0.47133">
        <ele>148</ele>
        <time>2025-07-14T09:05:15Z</time>
      </trkpt>
      <trkpt lat="44.79709" lon="0.47132">
        <ele>148.2</ele>
        <time>2025-07-14T09:05:16Z</time>
      </trkpt>
      <trkpt lat="44.79706" lon="0.47131">
        <ele>148.4</ele>
        <time>2025-07-14T09:05:17Z</time>
      </trkpt>
      <trkpt lat="44.79703" lon="0.4713">
        <ele>148.8</ele>
        <time>2025-07-14T09:05:18Z</time>
      </trkpt>
      <trkpt lat="44.79701" lon="0.47129">
        <ele>149</ele>
        <time>2025-07-14T09:05:19Z</time>
      </trkpt>
      <trkpt lat="44.79698" lon="0.47128">
        <ele>149.2</ele>
        <time>2025-07-14T09:05:20Z</time>
      </trkpt>
      <trkpt lat="44.79695" lon="0.47127">
        <ele>149.6</ele>
        <time>2025-07-14T09:05:21Z</time>
      </trkpt>
      <trkpt lat="44.79692" lon="0.47125">
        <ele>149.8</ele>
        <time>2025-07-14T09:05:22Z</time>
      </trkpt>
      <trkpt lat="44.79689" lon="0.47124">
        <ele>150</ele>
        <time>2025-07-14T09:05:23Z</time>
      </trkpt>
      <trkpt lat="44.79686" lon="0.47123">
        <ele>150.2</ele>
        <time>2025-07-14T09:05:24Z</time>
      </trkpt>
      <trkpt lat="44.79683" lon="0.47122">
        <ele>150.4</ele>
        <time>2025-07-14T09:05:25Z</time>
      </trkpt>
      <trkpt lat="44.79681" lon="0.47121">
        <ele>150.6</ele>
        <time>2025-07-14T09:05:26Z</time>
      </trkpt>
      <trkpt lat="44.79678" lon="0.47119">
        <ele>150.8</ele>
        <time>2025-07-14T09:05:27Z</time>
      </trkpt>
      <trkpt lat="44.79675" lon="0.47118">
        <ele>151</ele>
        <time>2025-07-14T09:05:28Z</time>
      </trkpt>
      <trkpt lat="44.79672" lon="0.47116">
        <ele>151.2</ele>
        <time>2025-07-14T09:05:29Z</time>
      </trkpt>
      <trkpt lat="44.7967" lon="0.47115">
        <ele>151.4</ele>
        <time>2025-07-14T09:05:30Z</time>
      </trkpt>
      <trkpt lat="44.79667" lon="0.47114">
        <ele>151.6</ele>
        <time>2025-07-14T09:05:31Z</time>
      </trkpt>
      <trkpt lat="44.79664" lon="0.47112">
        <ele>151.8</ele>
        <time>2025-07-14T09:05:32Z</time>
      </trkpt>
      <trkpt lat="44.79662" lon="0.47111">
        <ele>151.8</ele>
        <time>2025-07-14T09:05:33Z</time>
      </trkpt>
      <trkpt lat="44.79659" lon="0.4711">
        <ele>152</ele>
        <time>2025-07-14T09:05:34Z</time>
      </trkpt>
      <trkpt lat="44.79656" lon="0.47109">
        <ele>152.2</ele>
        <time>2025-07-14T09:05:35Z</time>
      </trkpt>
      <trkpt lat="44.79653" lon="0.47108">
        <ele>152.4</ele>
        <time>2025-07-14T09:05:36Z</time>
      </trkpt>
      <trkpt lat="44.7965" lon="0.47107">
        <ele>152.6</ele>
        <time>2025-07-14T09:05:37Z</time>
      </trkpt>
      <trkpt lat="44.79647" lon="0.47106">
        <ele>152.6</ele>
        <time>2025-07-14T09:05:38Z</time>
      </trkpt>
      <trkpt lat="44.79645" lon="0.47105">
        <ele>152.8</ele>
        <time>2025-07-14T09:05:39Z</time>
      </trkpt>
      <trkpt lat="44.79642" lon="0.47103">
        <ele>153</ele>
        <time>2025-07-14T09:05:40Z</time>
      </trkpt>
      <trkpt lat="44.79639" lon="0.47103">
        <ele>153.2</ele>
        <time>2025-07-14T09:05:41Z</time>
      </trkpt>
      <trkpt lat="44.79637" lon="0.47102">
        <ele>153.4</ele>
        <time>2025-07-14T09:05:42Z</time>
      </trkpt>
      <trkpt lat="44.79635" lon="0.47101">
        <ele>153.4</ele>
        <time>2025-07-14T09:05:43Z</time>
      </trkpt>
      <trkpt lat="44.79632" lon="0.47101">
        <ele>153.6</ele>
        <time>2025-07-14T09:05:44Z</time>
      </trkpt>
      <trkpt lat="44.7963" lon="0.47101">
        <ele>153.6</ele>
        <time>2025-07-14T09:05:45Z</time>
      </trkpt>
      <trkpt lat="44.79628" lon="0.47102">
        <ele>153.6</ele>
        <time>2025-07-14T09:05:46Z</time>
      </trkpt>
      <trkpt lat="44.79626" lon="0.47103">
        <ele>153.8</ele>
        <time>2025-07-14T09:05:47Z</time>
      </trkpt>
      <trkpt lat="44.79624" lon="0.47103">
        <ele>153.8</ele>
        <time>2025-07-14T09:05:48Z</time>
      </trkpt>
      <trkpt lat="44.79622" lon="0.47102">
        <ele>154</ele>
        <time>2025-07-14T09:05:49Z</time>
      </trkpt>
      <trkpt lat="44.7962" lon="0.47101">
        <ele>154</ele>
        <time>2025-07-14T09:05:50Z</time>
      </trkpt>
      <trkpt lat="44.79618" lon="0.471">
        <ele>154</ele>
        <time>2025-07-14T09:05:51Z</time>
      </trkpt>
      <trkpt lat="44.79615" lon="0.471">
        <ele>154.2</ele>
        <time>2025-07-14T09:05:52Z</time>
      </trkpt>
      <trkpt lat="44.79613" lon="0.47099">
        <ele>154.4</ele>
        <time>2025-07-14T09:05:53Z</time>
      </trkpt>
      <trkpt lat="44.79611" lon="0.47098">
        <ele>154.4</ele>
        <time>2025-07-14T09:05:54Z</time>
      </trkpt>
      <trkpt lat="44.79608" lon="0.47097">
        <ele>154.4</ele>
        <time>2025-07-14T09:05:55Z</time>
      </trkpt>
      <trkpt lat="44.79606" lon="0.47096">
        <ele>154.6</ele>
        <time>2025-07-14T09:05:56Z</time>
      </trkpt>
      <trkpt lat="44.79604" lon="0.47095">
        <ele>154.6</ele>
        <time>2025-07-14T09:05:57Z</time>
      </trkpt>
      <trkpt lat="44.79602" lon="0.47094">
        <ele>154.6</ele>
        <time>2025-07-14T09:05:58Z</time>
      </trkpt>
      <trkpt lat="44.796" lon="0.47092">
        <ele>154.8</ele>
        <time>2025-07-14T09:05:59Z</time>
      </trkpt>
      <trkpt lat="44.79597" lon="0.47091">
        <ele>154.8</ele>
        <time>2025-07-14T09:06:00Z</time>
      </trkpt>
      <trkpt lat="44.79595" lon="0.4709">
        <ele>154.8</ele>
        <time>2025-07-14T09:06:01Z</time>
      </trkpt>
      <trkpt lat="44.79593" lon="0.4709">
        <ele>155</ele>
        <time>2025-07-14T09:06:02Z</time>
      </trkpt>
      <trkpt lat="44.7959" lon="0.4709">
        <ele>155</ele>
        <time>2025-07-14T09:06:03Z</time>
      </trkpt>
      <trkpt lat="44.79588" lon="0.47092">
        <ele>155</ele>
        <time>2025-07-14T09:06:04Z</time>
      </trkpt>
      <trkpt lat="44.79586" lon="0.47093">
        <ele>155.2</ele>
        <time>2025-07-14T09:06:05Z</time>
      </trkpt>
      <trkpt lat="44.79584" lon="0.47096">
        <ele>155.2</ele>
        <time>2025-07-14T09:06:06Z</time>
      </trkpt>
      <trkpt lat="44.79582" lon="0.47099">
        <ele>155.4</ele>
        <time>2025-07-14T09:06:07Z</time>
      </trkpt>
      <trkpt lat="44.79581" lon="0.47102">
        <ele>155.4</ele>
        <time>2025-07-14T09:06:08Z</time>
      </trkpt>
      <trkpt lat="44.79579" lon="0.47104">
        <ele>155.4</ele>
        <time>2025-07-14T09:06:09Z</time>
      </trkpt>
      <trkpt lat="44.79578" lon="0.47107">
        <ele>155.4</ele>
        <time>2025-07-14T09:06:10Z</time>
      </trkpt>
      <trkpt lat="44.79576" lon="0.4711">
        <ele>155.4</ele>
        <time>2025-07-14T09:06:11Z</time>
      </trkpt>
      <trkpt lat="44.79574" lon="0.47113">
        <ele>155.4</ele>
        <time>2025-07-14T09:06:12Z</time>
      </trkpt>
      <trkpt lat="44.79573" lon="0.47116">
        <ele>155.2</ele>
        <time>2025-07-14T09:06:13Z</time>
      </trkpt>
      <trkpt lat="44.79571" lon="0.47119">
        <ele>155.2</ele>
        <time>2025-07-14T09:06:14Z</time>
      </trkpt>
      <trkpt lat="44.79569" lon="0.47122">
        <ele>155.2</ele>
        <time>2025-07-14T09:06:15Z</time>
      </trkpt>
      <trkpt lat="44.79568" lon="0.47126">
        <ele>155.2</ele>
        <time>2025-07-14T09:06:16Z</time>
      </trkpt>
      <trkpt lat="44.79566" lon="0.47129">
        <ele>155.2</ele>
        <time>2025-07-14T09:06:17Z</time>
      </trkpt>
      <trkpt lat="44.79564" lon="0.47132">
        <ele>155.2</ele>
        <time>2025-07-14T09:06:18Z</time>
      </trkpt>
      <trkpt lat="44.79562" lon="0.47136">
        <ele>155.2</ele>
        <time>2025-07-14T09:06:19Z</time>
      </trkpt>
      <trkpt lat="44.7956" lon="0.4714">
        <ele>155.2</ele>
        <time>2025-07-14T09:06:20Z</time>
      </trkpt>
      <trkpt lat="44.79559" lon="0.47144">
        <ele>155</ele>
        <time>2025-07-14T09:06:21Z</time>
      </trkpt>
      <trkpt lat="44.79557" lon="0.47148">
        <ele>155</ele>
        <time>2025-07-14T09:06:22Z</time>
      </trkpt>
      <trkpt lat="44.79556" lon="0.47152">
        <ele>155</ele>
        <time>2025-07-14T09:06:23Z</time>
      </trkpt>
      <trkpt lat="44.79554" lon="0.47156">
        <ele>155</ele>
        <time>2025-07-14T09:06:24Z</time>
      </trkpt>
      <trkpt lat="44.79552" lon="0.47161">
        <ele>155</ele>
        <time>2025-07-14T09:06:25Z</time>
      </trkpt>
      <trkpt lat="44.79551" lon="0.47165">
        <ele>155</ele>
        <time>2025-07-14T09:06:26Z</time>
      </trkpt>
      <trkpt lat="44.79549" lon="0.47169">
        <ele>155</ele>
        <time>2025-07-14T09:06:27Z</time>
      </trkpt>
      <trkpt lat="44.79548" lon="0.47173">
        <ele>154.8</ele>
        <time>2025-07-14T09:06:28Z</time>
      </trkpt>
      <trkpt lat="44.79547" lon="0.47178">
        <ele>154.8</ele>
        <time>2025-07-14T09:06:29Z</time>
      </trkpt>
      <trkpt lat="44.79546" lon="0.47181">
        <ele>154.8</ele>
        <time>2025-07-14T09:06:30Z</time>
      </trkpt>
      <trkpt lat="44.79544" lon="0.47185">
        <ele>154.8</ele>
        <time>2025-07-14T09:06:31Z</time>
      </trkpt>
      <trkpt lat="44.79543" lon="0.47189">
        <ele>154.8</ele>
        <time>2025-07-14T09:06:32Z</time>
      </trkpt>
      <trkpt lat="44.79542" lon="0.47193">
        <ele>154.6</ele>
        <time>2025-07-14T09:06:33Z</time>
      </trkpt>
      <trkpt lat="44.79541" lon="0.47197">
        <ele>154.6</ele>
        <time>2025-07-14T09:06:34Z</time>
      </trkpt>
      <trkpt lat="44.7954" lon="0.472">
        <ele>154.8</ele>
        <time>2025-07-14T09:06:35Z</time>
      </trkpt>
      <trkpt lat="44.79539" lon="0.47204">
        <ele>154.8</ele>
        <time>2025-07-14T09:06:36Z</time>
      </trkpt>
      <trkpt lat="44.79537" lon="0.47208">
        <ele>154.8</ele>
        <time>2025-07-14T09:06:37Z</time>
      </trkpt>
      <trkpt lat="44.79536" lon="0.47212">
        <ele>154.8</ele>
        <time>2025-07-14T09:06:38Z</time>
      </trkpt>
      <trkpt lat="44.79535" lon="0.47216">
        <ele>154.8</ele>
        <time>2025-07-14T09:06:39Z</time>
      </trkpt>
      <trkpt lat="44.79533" lon="0.47219">
        <ele>154.8</ele>
        <time>2025-07-14T09:06:40Z</time>
      </trkpt>
      <trkpt lat="44.79532" lon="0.47223">
        <ele>154.8</ele>
        <time>2025-07-14T09:06:41Z</time>
      </trkpt>
      <trkpt lat="44.79531" lon="0.47227">
        <ele>154.8</ele>
        <time>2025-07-14T09:06:42Z</time>
      </trkpt>
      <trkpt lat="44.79529" lon="0.47231">
        <ele>154.8</ele>
        <time>2025-07-14T09:06:43Z</time>
      </trkpt>
      <trkpt lat="44.79528" lon="0.47235">
        <ele>154.8</ele>
        <time>2025-07-14T09:06:44Z</time>
      </trkpt>
      <trkpt lat="44.79527" lon="0.47239">
        <ele>154.8</ele>
        <time>2025-07-14T09:06:45Z</time>
      </trkpt>
      <trkpt lat="44.79526" lon="0.47243">
        <ele>154.8</ele>
        <time>2025-07-14T09:06:46Z</time>
      </trkpt>
      <trkpt lat="44.79525" lon="0.47246">
        <ele>154.8</ele>
        <time>2025-07-14T09:06:47Z</time>
      </trkpt>
      <trkpt lat="44.79525" lon="0.4725">
        <ele>154.8</ele>
        <time>2025-07-14T09:06:48Z</time>
      </trkpt>
      <trkpt lat="44.79523" lon="0.47253">
        <ele>154.8</ele>
        <time>2025-07-14T09:06:49Z</time>
      </trkpt>
      <trkpt lat="44.79522" lon="0.47254">
        <ele>154.6</ele>
        <time>2025-07-14T09:06:50Z</time>
      </trkpt>
      <trkpt lat="44.79522" lon="0.47256">
        <ele>154.6</ele>
        <time>2025-07-14T09:06:51Z</time>
      </trkpt>
      <trkpt lat="44.7952" lon="0.47256">
        <ele>154.6</ele>
        <time>2025-07-14T09:06:52Z</time>
      </trkpt>
      <trkpt lat="44.79518" lon="0.47255">
        <ele>154.6</ele>
        <time>2025-07-14T09:06:53Z</time>
      </trkpt>
      <trkpt lat="44.79518" lon="0.47253">
        <ele>154.8</ele>
        <time>2025-07-14T09:06:54Z</time>
      </trkpt>
      <trkpt lat="44.79518" lon="0.47251">
        <ele>154.8</ele>
        <time>2025-07-14T09:06:55Z</time>
      </trkpt>
      <trkpt lat="44.79519" lon="0.47248">
        <ele>154.8</ele>
        <time>2025-07-14T09:06:56Z</time>
      </trkpt>
      <trkpt lat="44.79521" lon="0.47246">
        <ele>154.8</ele>
        <time>2025-07-14T09:06:57Z</time>
      </trkpt>
      <trkpt lat="44.79522" lon="0.47243">
        <ele>154.8</ele>
        <time>2025-07-14T09:06:58Z</time>
      </trkpt>
      <trkpt lat="44.79523" lon="0.4724">
        <ele>155</ele>
        <time>2025-07-14T09:06:59Z</time>
      </trkpt>
      <trkpt lat="44.79523" lon="0.47236">
        <ele>155</ele>
        <time>2025-07-14T09:07:00Z</time>
      </trkpt>
      <trkpt lat="44.79525" lon="0.47233">
        <ele>155</ele>
        <time>2025-07-14T09:07:01Z</time>
      </trkpt>
      <trkpt lat="44.79526" lon="0.47229">
        <ele>155</ele>
        <time>2025-07-14T09:07:02Z</time>
      </trkpt>
      <trkpt lat="44.79527" lon="0.47225">
        <ele>155</ele>
        <time>2025-07-14T09:07:03Z</time>
      </trkpt>
      <trkpt lat="44.79529" lon="0.47221">
        <ele>155</ele>
        <time>2025-07-14T09:07:04Z</time>
      </trkpt>
      <trkpt lat="44.7953" lon="0.47217">
        <ele>154.8</ele>
        <time>2025-07-14T09:07:05Z</time>
      </trkpt>
      <trkpt lat="44.79531" lon="0.47213">
        <ele>154.8</ele>
        <time>2025-07-14T09:07:06Z</time>
      </trkpt>
      <trkpt lat="44.79531" lon="0.47209">
        <ele>154.8</ele>
        <time>2025-07-14T09:07:07Z</time>
      </trkpt>
      <trkpt lat="44.7953" lon="0.47204">
        <ele>154.8</ele>
        <time>2025-07-14T09:07:08Z</time>
      </trkpt>
      <trkpt lat="44.79528" lon="0.47201">
        <ele>154.8</ele>
        <time>2025-07-14T09:07:09Z</time>
      </trkpt>
      <trkpt lat="44.79525" lon="0.47199">
        <ele>154.8</ele>
        <time>2025-07-14T09:07:10Z</time>
      </trkpt>
      <trkpt lat="44.79521" lon="0.47198">
        <ele>154.8</ele>
        <time>2025-07-14T09:07:11Z</time>
      </trkpt>
      <trkpt lat="44.79518" lon="0.47198">
        <ele>154.8</ele>
        <time>2025-07-14T09:07:12Z</time>
      </trkpt>
      <trkpt lat="44.79515" lon="0.47198">
        <ele>154.8</ele>
        <time>2025-07-14T09:07:13Z</time>
      </trkpt>
      <trkpt lat="44.79511" lon="0.47197">
        <ele>154.8</ele>
        <time>2025-07-14T09:07:14Z</time>
      </trkpt>
      <trkpt lat="44.79507" lon="0.47197">
        <ele>154.8</ele>
        <time>2025-07-14T09:07:15Z</time>
      </trkpt>
      <trkpt lat="44.79503" lon="0.47196">
        <ele>154.8</ele>
        <time>2025-07-14T09:07:16Z</time>
      </trkpt>
      <trkpt lat="44.79499" lon="0.47196">
        <ele>154.8</ele>
        <time>2025-07-14T09:07:17Z</time>
      </trkpt>
      <trkpt lat="44.79495" lon="0.47195">
        <ele>154.8</ele>
        <time>2025-07-14T09:07:18Z</time>
      </trkpt>
      <trkpt lat="44.79491" lon="0.47195">
        <ele>154.8</ele>
        <time>2025-07-14T09:07:19Z</time>
      </trkpt>
      <trkpt lat="44.79486" lon="0.47195">
        <ele>154.8</ele>
        <time>2025-07-14T09:07:20Z</time>
      </trkpt>
      <trkpt lat="44.79482" lon="0.47194">
        <ele>154.8</ele>
        <time>2025-07-14T09:07:21Z</time>
      </trkpt>
      <trkpt lat="44.79477" lon="0.47194">
        <ele>154.8</ele>
        <time>2025-07-14T09:07:22Z</time>
      </trkpt>
      <trkpt lat="44.79472" lon="0.47193">
        <ele>155</ele>
        <time>2025-07-14T09:07:23Z</time>
      </trkpt>
      <trkpt lat="44.79467" lon="0.47192">
        <ele>154.8</ele>
        <time>2025-07-14T09:07:24Z</time>
      </trkpt>
      <trkpt lat="44.79461" lon="0.47191">
        <ele>155</ele>
        <time>2025-07-14T09:07:25Z</time>
      </trkpt>
      <trkpt lat="44.79456" lon="0.4719">
        <ele>155</ele>
        <time>2025-07-14T09:07:26Z</time>
      </trkpt>
      <trkpt lat="44.79451" lon="0.47189">
        <ele>154.8</ele>
        <time>2025-07-14T09:07:27Z</time>
      </trkpt>
      <trkpt lat="44.79445" lon="0.47189">
        <ele>154.8</ele>
        <time>2025-07-14T09:07:28Z</time>
      </trkpt>
      <trkpt lat="44.79439" lon="0.47188">
        <ele>154.8</ele>
        <time>2025-07-14T09:07:29Z</time>
      </trkpt>
      <trkpt lat="44.79434" lon="0.47187">
        <ele>154.6</ele>
        <time>2025-07-14T09:07:30Z</time>
      </trkpt>
      <trkpt lat="44.79428" lon="0.47187">
        <ele>154.4</ele>
        <time>2025-07-14T09:07:31Z</time>
      </trkpt>
      <trkpt lat="44.79422" lon="0.47187">
        <ele>154.4</ele>
        <time>2025-07-14T09:07:32Z</time>
      </trkpt>
      <trkpt lat="44.79415" lon="0.47188">
        <ele>154.2</ele>
        <time>2025-07-14T09:07:33Z</time>
      </trkpt>
      <trkpt lat="44.79408" lon="0.47188">
        <ele>154</ele>
        <time>2025-07-14T09:07:34Z</time>
      </trkpt>
      <trkpt lat="44.79401" lon="0.47188">
        <ele>153.6</ele>
        <time>2025-07-14T09:07:35Z</time>
      </trkpt>
      <trkpt lat="44.79394" lon="0.47188">
        <ele>153.4</ele>
        <time>2025-07-14T09:07:36Z</time>
      </trkpt>
      <trkpt lat="44.79386" lon="0.47189">
        <ele>153</ele>
        <time>2025-07-14T09:07:37Z</time>
      </trkpt>
      <trkpt lat="44.7938" lon="0.47189">
        <ele>152.8</ele>
        <time>2025-07-14T09:07:38Z</time>
      </trkpt>
      <trkpt lat="44.79373" lon="0.4719">
        <ele>152.6</ele>
        <time>2025-07-14T09:07:39Z</time>
      </trkpt>
      <trkpt lat="44.79367" lon="0.4719">
        <ele>152.2</ele>
        <time>2025-07-14T09:07:40Z</time>
      </trkpt>
      <trkpt lat="44.7936" lon="0.4719">
        <ele>152</ele>
        <time>2025-07-14T09:07:41Z</time>
      </trkpt>
      <trkpt lat="44.79353" lon="0.4719">
        <ele>151.6</ele>
        <time>2025-07-14T09:07:42Z</time>
      </trkpt>
      <trkpt lat="44.79346" lon="0.47191">
        <ele>151.4</ele>
        <time>2025-07-14T09:07:43Z</time>
      </trkpt>
      <trkpt lat="44.79339" lon="0.47191">
        <ele>151</ele>
        <time>2025-07-14T09:07:44Z</time>
      </trkpt>
      <trkpt lat="44.79332" lon="0.47192">
        <ele>150.8</ele>
        <time>2025-07-14T09:07:45Z</time>
      </trkpt>
      <trkpt lat="44.79325" lon="0.47192">
        <ele>150.4</ele>
        <time>2025-07-14T09:07:46Z</time>
      </trkpt>
      <trkpt lat="44.79318" lon="0.47193">
        <ele>150.2</ele>
        <time>2025-07-14T09:07:47Z</time>
      </trkpt>
      <trkpt lat="44.79311" lon="0.47193">
        <ele>149.8</ele>
        <time>2025-07-14T09:07:48Z</time>
      </trkpt>
      <trkpt lat="44.79304" lon="0.47193">
        <ele>149.6</ele>
        <time>2025-07-14T09:07:49Z</time>
      </trkpt>
      <trkpt lat="44.79296" lon="0.47194">
        <ele>149.4</ele>
        <time>2025-07-14T09:07:50Z</time>
      </trkpt>
      <trkpt lat="44.79288" lon="0.47194">
        <ele>149</ele>
        <time>2025-07-14T09:07:51Z</time>
      </trkpt>
      <trkpt lat="44.79281" lon="0.47195">
        <ele>148.8</ele>
        <time>2025-07-14T09:07:52Z</time>
      </trkpt>
      <trkpt lat="44.79273" lon="0.47196">
        <ele>148.6</ele>
        <time>2025-07-14T09:07:53Z</time>
      </trkpt>
      <trkpt lat="44.79265" lon="0.47197">
        <ele>148.4</ele>
        <time>2025-07-14T09:07:54Z</time>
      </trkpt>
      <trkpt lat="44.79257" lon="0.47198">
        <ele>148</ele>
        <time>2025-07-14T09:07:55Z</time>
      </trkpt>
      <trkpt lat="44.79249" lon="0.47199">
        <ele>147.8</ele>
        <time>2025-07-14T09:07:56Z</time>
      </trkpt>
      <trkpt lat="44.79241" lon="0.472">
        <ele>147.6</ele>
        <time>2025-07-14T09:07:57Z</time>
      </trkpt>
      <trkpt lat="44.79234" lon="0.472">
        <ele>147.4</ele>
        <time>2025-07-14T09:07:58Z</time>
      </trkpt>
      <trkpt lat="44.79226" lon="0.47201">
        <ele>147</ele>
        <time>2025-07-14T09:07:59Z</time>
      </trkpt>
      <trkpt lat="44.79218" lon="0.47202">
        <ele>146.8</ele>
        <time>2025-07-14T09:08:00Z</time>
      </trkpt>
      <trkpt lat="44.79211" lon="0.47203">
        <ele>146.6</ele>
        <time>2025-07-14T09:08:01Z</time>
      </trkpt>
      <trkpt lat="44.79204" lon="0.47203">
        <ele>146.6</ele>
        <time>2025-07-14T09:08:02Z</time>
      </trkpt>
      <trkpt lat="44.79197" lon="0.47204">
        <ele>146.4</ele>
        <time>2025-07-14T09:08:03Z</time>
      </trkpt>
      <trkpt lat="44.7919" lon="0.47205">
        <ele>146.2</ele>
        <time>2025-07-14T09:08:04Z</time>
      </trkpt>
      <trkpt lat="44.79182" lon="0.47205">
        <ele>146</ele>
        <time>2025-07-14T09:08:05Z</time>
      </trkpt>
      <trkpt lat="44.79175" lon="0.47205">
        <ele>146</ele>
        <time>2025-07-14T09:08:06Z</time>
      </trkpt>
      <trkpt lat="44.79168" lon="0.47206">
        <ele>145.8</ele>
        <time>2025-07-14T09:08:07Z</time>
      </trkpt>
      <trkpt lat="44.79161" lon="0.47208">
        <ele>145.6</ele>
        <time>2025-07-14T09:08:08Z</time>
      </trkpt>
      <trkpt lat="44.79153" lon="0.47209">
        <ele>145.4</ele>
        <time>2025-07-14T09:08:09Z</time>
      </trkpt>
      <trkpt lat="44.79146" lon="0.47211">
        <ele>145.4</ele>
        <time>2025-07-14T09:08:10Z</time>
      </trkpt>
      <trkpt lat="44.7914" lon="0.47214">
        <ele>145.2</ele>
        <time>2025-07-14T09:08:11Z</time>
      </trkpt>
      <trkpt lat="44.79133" lon="0.47216">
        <ele>145</ele>
        <time>2025-07-14T09:08:12Z</time>
      </trkpt>
      <trkpt lat="44.79126" lon="0.47219">
        <ele>145</ele>
        <time>2025-07-14T09:08:13Z</time>
      </trkpt>
      <trkpt lat="44.79119" lon="0.47222">
        <ele>144.8</ele>
        <time>2025-07-14T09:08:14Z</time>
      </trkpt>
      <trkpt lat="44.79112" lon="0.47224">
        <ele>144.8</ele>
        <time>2025-07-14T09:08:15Z</time>
      </trkpt>
      <trkpt lat="44.79105" lon="0.47226">
        <ele>144.6</ele>
        <time>2025-07-14T09:08:16Z</time>
      </trkpt>
      <trkpt lat="44.79099" lon="0.47229">
        <ele>144.6</ele>
        <time>2025-07-14T09:08:17Z</time>
      </trkpt>
      <trkpt lat="44.79092" lon="0.47231">
        <ele>144.4</ele>
        <time>2025-07-14T09:08:18Z</time>
      </trkpt>
      <trkpt lat="44.79086" lon="0.47234">
        <ele>144.2</ele>
        <time>2025-07-14T09:08:19Z</time>
      </trkpt>
      <trkpt lat="44.79079" lon="0.47236">
        <ele>144</ele>
        <time>2025-07-14T09:08:20Z</time>
      </trkpt>
      <trkpt lat="44.79072" lon="0.47237">
        <ele>143.8</ele>
        <time>2025-07-14T09:08:21Z</time>
      </trkpt>
      <trkpt lat="44.79064" lon="0.47238">
        <ele>143.6</ele>
        <time>2025-07-14T09:08:22Z</time>
      </trkpt>
      <trkpt lat="44.79058" lon="0.4724">
        <ele>143.6</ele>
        <time>2025-07-14T09:08:23Z</time>
      </trkpt>
      <trkpt lat="44.79051" lon="0.47242">
        <ele>143.4</ele>
        <time>2025-07-14T09:08:24Z</time>
      </trkpt>
      <trkpt lat="44.79043" lon="0.47244">
        <ele>143.2</ele>
        <time>2025-07-14T09:08:25Z</time>
      </trkpt>
      <trkpt lat="44.79036" lon="0.47246">
        <ele>143</ele>
        <time>2025-07-14T09:08:26Z</time>
      </trkpt>
      <trkpt lat="44.79029" lon="0.47248">
        <ele>143</ele>
        <time>2025-07-14T09:08:27Z</time>
      </trkpt>
      <trkpt lat="44.79022" lon="0.47249">
        <ele>142.8</ele>
        <time>2025-07-14T09:08:28Z</time>
      </trkpt>
      <trkpt lat="44.79015" lon="0.47251">
        <ele>142.6</ele>
        <time>2025-07-14T09:08:29Z</time>
      </trkpt>
      <trkpt lat="44.79008" lon="0.47253">
        <ele>142.4</ele>
        <time>2025-07-14T09:08:30Z</time>
      </trkpt>
      <trkpt lat="44.79001" lon="0.47254">
        <ele>142.2</ele>
        <time>2025-07-14T09:08:31Z</time>
      </trkpt>
      <trkpt lat="44.78993" lon="0.47256">
        <ele>142</ele>
        <time>2025-07-14T09:08:32Z</time>
      </trkpt>
      <trkpt lat="44.78986" lon="0.47258">
        <ele>141.8</ele>
        <time>2025-07-14T09:08:33Z</time>
      </trkpt>
      <trkpt lat="44.78979" lon="0.4726">
        <ele>141.6</ele>
        <time>2025-07-14T09:08:34Z</time>
      </trkpt>
      <trkpt lat="44.78971" lon="0.47262">
        <ele>141.4</ele>
        <time>2025-07-14T09:08:35Z</time>
      </trkpt>
      <trkpt lat="44.78963" lon="0.47264">
        <ele>141</ele>
        <time>2025-07-14T09:08:36Z</time>
      </trkpt>
      <trkpt lat="44.78956" lon="0.47266">
        <ele>140.8</ele>
        <time>2025-07-14T09:08:37Z</time>
      </trkpt>
      <trkpt lat="44.78948" lon="0.47267">
        <ele>140.6</ele>
        <time>2025-07-14T09:08:38Z</time>
      </trkpt>
      <trkpt lat="44.78941" lon="0.47269">
        <ele>140.4</ele>
        <time>2025-07-14T09:08:39Z</time>
      </trkpt>
      <trkpt lat="44.78933" lon="0.4727">
        <ele>140.2</ele>
        <time>2025-07-14T09:08:40Z</time>
      </trkpt>
      <trkpt lat="44.78927" lon="0.47272">
        <ele>140</ele>
        <time>2025-07-14T09:08:41Z</time>
      </trkpt>
      <trkpt lat="44.7892" lon="0.47274">
        <ele>139.8</ele>
        <time>2025-07-14T09:08:42Z</time>
      </trkpt>
      <trkpt lat="44.78913" lon="0.47275">
        <ele>139.6</ele>
        <time>2025-07-14T09:08:43Z</time>
      </trkpt>
      <trkpt lat="44.78906" lon="0.47277">
        <ele>139.6</ele>
        <time>2025-07-14T09:08:44Z</time>
      </trkpt>
      <trkpt lat="44.78899" lon="0.47279">
        <ele>139.4</ele>
        <time>2025-07-14T09:08:45Z</time>
      </trkpt>
      <trkpt lat="44.78892" lon="0.47281">
        <ele>139.2</ele>
        <time>2025-07-14T09:08:46Z</time>
      </trkpt>
      <trkpt lat="44.78885" lon="0.47283">
        <ele>139.2</ele>
        <time>2025-07-14T09:08:47Z</time>
      </trkpt>
      <trkpt lat="44.78877" lon="0.47285">
        <ele>139</ele>
        <time>2025-07-14T09:08:48Z</time>
      </trkpt>
      <trkpt lat="44.7887" lon="0.47286">
        <ele>139</ele>
        <time>2025-07-14T09:08:49Z</time>
      </trkpt>
      <trkpt lat="44.78863" lon="0.47287">
        <ele>138.8</ele>
        <time>2025-07-14T09:08:50Z</time>
      </trkpt>
      <trkpt lat="44.78856" lon="0.47287">
        <ele>138.8</ele>
        <time>2025-07-14T09:08:51Z</time>
      </trkpt>
      <trkpt lat="44.78849" lon="0.47287">
        <ele>138.8</ele>
        <time>2025-07-14T09:08:52Z</time>
      </trkpt>
      <trkpt lat="44.78842" lon="0.47287">
        <ele>138.8</ele>
        <time>2025-07-14T09:08:53Z</time>
      </trkpt>
      <trkpt lat="44.78836" lon="0.47287">
        <ele>138.8</ele>
        <time>2025-07-14T09:08:54Z</time>
      </trkpt>
      <trkpt lat="44.78829" lon="0.47287">
        <ele>138.8</ele>
        <time>2025-07-14T09:08:55Z</time>
      </trkpt>
      <trkpt lat="44.78823" lon="0.47286">
        <ele>138.8</ele>
        <time>2025-07-14T09:08:56Z</time>
      </trkpt>
      <trkpt lat="44.78817" lon="0.47286">
        <ele>139</ele>
        <time>2025-07-14T09:08:57Z</time>
      </trkpt>
      <trkpt lat="44.78811" lon="0.47286">
        <ele>139</ele>
        <time>2025-07-14T09:08:58Z</time>
      </trkpt>
      <trkpt lat="44.78805" lon="0.47285">
        <ele>139</ele>
        <time>2025-07-14T09:08:59Z</time>
      </trkpt>
      <trkpt lat="44.788" lon="0.47284">
        <ele>139.2</ele>
        <time>2025-07-14T09:09:00Z</time>
      </trkpt>
      <trkpt lat="44.78795" lon="0.47283">
        <ele>139.4</ele>
        <time>2025-07-14T09:09:01Z</time>
      </trkpt>
      <trkpt lat="44.78789" lon="0.47283">
        <ele>139.6</ele>
        <time>2025-07-14T09:09:02Z</time>
      </trkpt>
      <trkpt lat="44.78784" lon="0.47281">
        <ele>139.6</ele>
        <time>2025-07-14T09:09:03Z</time>
      </trkpt>
      <trkpt lat="44.78779" lon="0.47278">
        <ele>139.8</ele>
        <time>2025-07-14T09:09:04Z</time>
      </trkpt>
      <trkpt lat="44.78774" lon="0.47274">
        <ele>140</ele>
        <time>2025-07-14T09:09:05Z</time>
      </trkpt>
      <trkpt lat="44.7877" lon="0.47269">
        <ele>140</ele>
        <time>2025-07-14T09:09:06Z</time>
      </trkpt>
      <trkpt lat="44.78765" lon="0.47264">
        <ele>140</ele>
        <time>2025-07-14T09:09:07Z</time>
      </trkpt>
      <trkpt lat="44.78762" lon="0.47258">
        <ele>140</ele>
        <time>2025-07-14T09:09:08Z</time>
      </trkpt>
      <trkpt lat="44.78759" lon="0.47252">
        <ele>140</ele>
        <time>2025-07-14T09:09:09Z</time>
      </trkpt>
      <trkpt lat="44.78755" lon="0.47246">
        <ele>140</ele>
        <time>2025-07-14T09:09:10Z</time>
      </trkpt>
      <trkpt lat="44.78753" lon="0.4724">
        <ele>140.2</ele>
        <time>2025-07-14T09:09:11Z</time>
      </trkpt>
      <trkpt lat="44.7875" lon="0.47234">
        <ele>140.2</ele>
        <time>2025-07-14T09:09:12Z</time>
      </trkpt>
      <trkpt lat="44.78748" lon="0.47227">
        <ele>140.2</ele>
        <time>2025-07-14T09:09:13Z</time>
      </trkpt>
      <trkpt lat="44.78746" lon="0.4722">
        <ele>140.2</ele>
        <time>2025-07-14T09:09:14Z</time>
      </trkpt>
      <trkpt lat="44.78744" lon="0.47213">
        <ele>140.2</ele>
        <time>2025-07-14T09:09:15Z</time>
      </trkpt>
      <trkpt lat="44.78743" lon="0.47206">
        <ele>140.4</ele>
        <time>2025-07-14T09:09:16Z</time>
      </trkpt>
      <trkpt lat="44.78742" lon="0.472">
        <ele>140.6</ele>
        <time>2025-07-14T09:09:17Z</time>
      </trkpt>
      <trkpt lat="44.78741" lon="0.47193">
        <ele>140.6</ele>
        <time>2025-07-14T09:09:18Z</time>
      </trkpt>
      <trkpt lat="44.7874" lon="0.47186">
        <ele>140.6</ele>
        <time>2025-07-14T09:09:19Z</time>
      </trkpt>
      <trkpt lat="44.78739" lon="0.47179">
        <ele>140.8</ele>
        <time>2025-07-14T09:09:20Z</time>
      </trkpt>
      <trkpt lat="44.78739" lon="0.47172">
        <ele>140.8</ele>
        <time>2025-07-14T09:09:21Z</time>
      </trkpt>
      <trkpt lat="44.78738" lon="0.47166">
        <ele>140.8</ele>
        <time>2025-07-14T09:09:22Z</time>
      </trkpt>
      <trkpt lat="44.78737" lon="0.47159">
        <ele>140.8</ele>
        <time>2025-07-14T09:09:23Z</time>
      </trkpt>
      <trkpt lat="44.78737" lon="0.47153">
        <ele>140.8</ele>
        <time>2025-07-14T09:09:24Z</time>
      </trkpt>
      <trkpt lat="44.78736" lon="0.47147">
        <ele>140.8</ele>
        <time>2025-07-14T09:09:25Z</time>
      </trkpt>
      <trkpt lat="44.78735" lon="0.47141">
        <ele>140.8</ele>
        <time>2025-07-14T09:09:26Z</time>
      </trkpt>
      <trkpt lat="44.78735" lon="0.47135">
        <ele>141</ele>
        <time>2025-07-14T09:09:27Z</time>
      </trkpt>
      <trkpt lat="44.78734" lon="0.47129">
        <ele>141.2</ele>
        <time>2025-07-14T09:09:28Z</time>
      </trkpt>
      <trkpt lat="44.78733" lon="0.47124">
        <ele>141.2</ele>
        <time>2025-07-14T09:09:29Z</time>
      </trkpt>
      <trkpt lat="44.78733" lon="0.47118">
        <ele>141.4</ele>
        <time>2025-07-14T09:09:30Z</time>
      </trkpt>
      <trkpt lat="44.78732" lon="0.47112">
        <ele>141.6</ele>
        <time>2025-07-14T09:09:31Z</time>
      </trkpt>
      <trkpt lat="44.78731" lon="0.47106">
        <ele>141.8</ele>
        <time>2025-07-14T09:09:32Z</time>
      </trkpt>
      <trkpt lat="44.78731" lon="0.47101">
        <ele>142</ele>
        <time>2025-07-14T09:09:33Z</time>
      </trkpt>
      <trkpt lat="44.7873" lon="0.47095">
        <ele>142</ele>
        <time>2025-07-14T09:09:34Z</time>
      </trkpt>
      <trkpt lat="44.7873" lon="0.47089">
        <ele>142.2</ele>
        <time>2025-07-14T09:09:35Z</time>
      </trkpt>
      <trkpt lat="44.78729" lon="0.47083">
        <ele>142.4</ele>
        <time>2025-07-14T09:09:36Z</time>
      </trkpt>
      <trkpt lat="44.78728" lon="0.47076">
        <ele>142.4</ele>
        <time>2025-07-14T09:09:37Z</time>
      </trkpt>
      <trkpt lat="44.78728" lon="0.4707">
        <ele>142.6</ele>
        <time>2025-07-14T09:09:38Z</time>
      </trkpt>
      <trkpt lat="44.78727" lon="0.47063">
        <ele>142.6</ele>
        <time>2025-07-14T09:09:39Z</time>
      </trkpt>
      <trkpt lat="44.78726" lon="0.47056">
        <ele>142.6</ele>
        <time>2025-07-14T09:09:40Z</time>
      </trkpt>
      <trkpt lat="44.78725" lon="0.47049">
        <ele>142.6</ele>
        <time>2025-07-14T09:09:41Z</time>
      </trkpt>
      <trkpt lat="44.78724" lon="0.4704">
        <ele>142.4</ele>
        <time>2025-07-14T09:09:42Z</time>
      </trkpt>
      <trkpt lat="44.78724" lon="0.47032">
        <ele>142.4</ele>
        <time>2025-07-14T09:09:43Z</time>
      </trkpt>
      <trkpt lat="44.78723" lon="0.47024">
        <ele>142</ele>
        <time>2025-07-14T09:09:44Z</time>
      </trkpt>
      <trkpt lat="44.78722" lon="0.47016">
        <ele>141.8</ele>
        <time>2025-07-14T09:09:45Z</time>
      </trkpt>
      <trkpt lat="44.78721" lon="0.47008">
        <ele>141.8</ele>
        <time>2025-07-14T09:09:46Z</time>
      </trkpt>
      <trkpt lat="44.7872" lon="0.47">
        <ele>141.6</ele>
        <time>2025-07-14T09:09:47Z</time>
      </trkpt>
      <trkpt lat="44.7872" lon="0.46993">
        <ele>141.4</ele>
        <time>2025-07-14T09:09:48Z</time>
      </trkpt>
      <trkpt lat="44.7872" lon="0.46985">
        <ele>141.4</ele>
        <time>2025-07-14T09:09:49Z</time>
      </trkpt>
      <trkpt lat="44.7872" lon="0.46978">
        <ele>141.4</ele>
        <time>2025-07-14T09:09:50Z</time>
      </trkpt>
      <trkpt lat="44.7872" lon="0.46971">
        <ele>141.4</ele>
        <time>2025-07-14T09:09:51Z</time>
      </trkpt>
      <trkpt lat="44.78721" lon="0.46964">
        <ele>141.4</ele>
        <time>2025-07-14T09:09:52Z</time>
      </trkpt>
      <trkpt lat="44.78721" lon="0.46957">
        <ele>141.4</ele>
        <time>2025-07-14T09:09:53Z</time>
      </trkpt>
      <trkpt lat="44.78722" lon="0.46949">
        <ele>141.6</ele>
        <time>2025-07-14T09:09:54Z</time>
      </trkpt>
      <trkpt lat="44.78722" lon="0.46941">
        <ele>141.6</ele>
        <time>2025-07-14T09:09:55Z</time>
      </trkpt>
      <trkpt lat="44.78722" lon="0.46934">
        <ele>141.6</ele>
        <time>2025-07-14T09:09:56Z</time>
      </trkpt>
      <trkpt lat="44.78723" lon="0.46927">
        <ele>141.6</ele>
        <time>2025-07-14T09:09:57Z</time>
      </trkpt>
      <trkpt lat="44.78723" lon="0.4692">
        <ele>141.6</ele>
        <time>2025-07-14T09:09:58Z</time>
      </trkpt>
      <trkpt lat="44.78723" lon="0.46913">
        <ele>141.4</ele>
        <time>2025-07-14T09:09:59Z</time>
      </trkpt>
      <trkpt lat="44.78723" lon="0.46906">
        <ele>141.6</ele>
        <time>2025-07-14T09:10:00Z</time>
      </trkpt>
      <trkpt lat="44.78723" lon="0.46899">
        <ele>141.6</ele>
        <time>2025-07-14T09:10:01Z</time>
      </trkpt>
      <trkpt lat="44.78724" lon="0.46892">
        <ele>141.6</ele>
        <time>2025-07-14T09:10:02Z</time>
      </trkpt>
      <trkpt lat="44.78724" lon="0.46884">
        <ele>141.6</ele>
        <time>2025-07-14T09:10:03Z</time>
      </trkpt>
      <trkpt lat="44.78725" lon="0.46877">
        <ele>141.6</ele>
        <time>2025-07-14T09:10:04Z</time>
      </trkpt>
      <trkpt lat="44.78725" lon="0.46869">
        <ele>141.6</ele>
        <time>2025-07-14T09:10:05Z</time>
      </trkpt>
      <trkpt lat="44.78725" lon="0.46862">
        <ele>141.4</ele>
        <time>2025-07-14T09:10:06Z</time>
      </trkpt>
      <trkpt lat="44.78725" lon="0.46854">
        <ele>141.4</ele>
        <time>2025-07-14T09:10:07Z</time>
      </trkpt>
      <trkpt lat="44.78726" lon="0.46847">
        <ele>141.4</ele>
        <time>2025-07-14T09:10:08Z</time>
      </trkpt>
      <trkpt lat="44.78727" lon="0.46839">
        <ele>141.4</ele>
        <time>2025-07-14T09:10:09Z</time>
      </trkpt>
      <trkpt lat="44.78729" lon="0.46832">
        <ele>141.2</ele>
        <time>2025-07-14T09:10:10Z</time>
      </trkpt>
      <trkpt lat="44.78732" lon="0.46825">
        <ele>141.2</ele>
        <time>2025-07-14T09:10:11Z</time>
      </trkpt>
      <trkpt lat="44.78736" lon="0.4682">
        <ele>141</ele>
        <time>2025-07-14T09:10:12Z</time>
      </trkpt>
      <trkpt lat="44.78741" lon="0.46817">
        <ele>141</ele>
        <time>2025-07-14T09:10:13Z</time>
      </trkpt>
      <trkpt lat="44.78746" lon="0.46815">
        <ele>141</ele>
        <time>2025-07-14T09:10:14Z</time>
      </trkpt>
      <trkpt lat="44.78751" lon="0.46813">
        <ele>141</ele>
        <time>2025-07-14T09:10:15Z</time>
      </trkpt>
      <trkpt lat="44.78756" lon="0.46812">
        <ele>141</ele>
        <time>2025-07-14T09:10:16Z</time>
      </trkpt>
      <trkpt lat="44.7876" lon="0.46811">
        <ele>141</ele>
        <time>2025-07-14T09:10:17Z</time>
      </trkpt>
      <trkpt lat="44.78765" lon="0.46809">
        <ele>141.2</ele>
        <time>2025-07-14T09:10:18Z</time>
      </trkpt>
      <trkpt lat="44.78769" lon="0.46806">
        <ele>141.4</ele>
        <time>2025-07-14T09:10:19Z</time>
      </trkpt>
      <trkpt lat="44.78771" lon="0.46801">
        <ele>141.4</ele>
        <time>2025-07-14T09:10:20Z</time>
      </trkpt>
      <trkpt lat="44.78772" lon="0.46795">
        <ele>141.6</ele>
        <time>2025-07-14T09:10:21Z</time>
      </trkpt>
      <trkpt lat="44.78772" lon="0.46789">
        <ele>141.8</ele>
        <time>2025-07-14T09:10:22Z</time>
      </trkpt>
      <trkpt lat="44.78771" lon="0.46783">
        <ele>142</ele>
        <time>2025-07-14T09:10:23Z</time>
      </trkpt>
      <trkpt lat="44.7877" lon="0.46778">
        <ele>142</ele>
        <time>2025-07-14T09:10:24Z</time>
      </trkpt>
      <trkpt lat="44.78769" lon="0.46772">
        <ele>142.2</ele>
        <time>2025-07-14T09:10:25Z</time>
      </trkpt>
      <trkpt lat="44.78768" lon="0.46767">
        <ele>142.2</ele>
        <time>2025-07-14T09:10:26Z</time>
      </trkpt>
      <trkpt lat="44.78767" lon="0.46761">
        <ele>142.4</ele>
        <time>2025-07-14T09:10:27Z</time>
      </trkpt>
      <trkpt lat="44.78766" lon="0.46756">
        <ele>142.6</ele>
        <time>2025-07-14T09:10:28Z</time>
      </trkpt>
      <trkpt lat="44.78765" lon="0.46751">
        <ele>142.8</ele>
        <time>2025-07-14T09:10:29Z</time>
      </trkpt>
      <trkpt lat="44.78764" lon="0.46746">
        <ele>142.8</ele>
        <time>2025-07-14T09:10:30Z</time>
      </trkpt>
      <trkpt lat="44.78763" lon="0.46741">
        <ele>143</ele>
        <time>2025-07-14T09:10:31Z</time>
      </trkpt>
      <trkpt lat="44.78762" lon="0.46736">
        <ele>143.2</ele>
        <time>2025-07-14T09:10:32Z</time>
      </trkpt>
      <trkpt lat="44.78761" lon="0.46732">
        <ele>143.6</ele>
        <time>2025-07-14T09:10:33Z</time>
      </trkpt>
      <trkpt lat="44.7876" lon="0.46728">
        <ele>143.8</ele>
        <time>2025-07-14T09:10:34Z</time>
      </trkpt>
      <trkpt lat="44.7876" lon="0.46723">
        <ele>144.2</ele>
        <time>2025-07-14T09:10:35Z</time>
      </trkpt>
      <trkpt lat="44.78759" lon="0.46719">
        <ele>144.4</ele>
        <time>2025-07-14T09:10:36Z</time>
      </trkpt>
      <trkpt lat="44.78758" lon="0.46715">
        <ele>144.8</ele>
        <time>2025-07-14T09:10:37Z</time>
      </trkpt>
      <trkpt lat="44.78757" lon="0.4671">
        <ele>145.2</ele>
        <time>2025-07-14T09:10:38Z</time>
      </trkpt>
      <trkpt lat="44.78756" lon="0.46707">
        <ele>145.6</ele>
        <time>2025-07-14T09:10:39Z</time>
      </trkpt>
      <trkpt lat="44.78755" lon="0.46704">
        <ele>146</ele>
        <time>2025-07-14T09:10:40Z</time>
      </trkpt>
      <trkpt lat="44.78755" lon="0.46702">
        <ele>146.2</ele>
        <time>2025-07-14T09:10:41Z</time>
      </trkpt>
      <trkpt lat="44.78756" lon="0.467">
        <ele>146.4</ele>
        <time>2025-07-14T09:10:42Z</time>
      </trkpt>
      <trkpt lat="44.78758" lon="0.46698">
        <ele>146.8</ele>
        <time>2025-07-14T09:10:43Z</time>
      </trkpt>
      <trkpt lat="44.7876" lon="0.46698">
        <ele>147</ele>
        <time>2025-07-14T09:10:44Z</time>
      </trkpt>
      <trkpt lat="44.78762" lon="0.46698">
        <ele>147.2</ele>
        <time>2025-07-14T09:10:45Z</time>
      </trkpt>
      <trkpt lat="44.78764" lon="0.46699">
        <ele>147.4</ele>
        <time>2025-07-14T09:10:46Z</time>
      </trkpt>
      <trkpt lat="44.78766" lon="0.46699">
        <ele>147.6</ele>
        <time>2025-07-14T09:10:47Z</time>
      </trkpt>
      <trkpt lat="44.78769" lon="0.467">
        <ele>147.8</ele>
        <time>2025-07-14T09:10:48Z</time>
      </trkpt>
      <trkpt lat="44.78771" lon="0.46701">
        <ele>147.8</ele>
        <time>2025-07-14T09:10:49Z</time>
      </trkpt>
      <trkpt lat="44.78774" lon="0.46701">
        <ele>148</ele>
        <time>2025-07-14T09:10:50Z</time>
      </trkpt>
      <trkpt lat="44.78777" lon="0.46701">
        <ele>148</ele>
        <time>2025-07-14T09:10:51Z</time>
      </trkpt>
      <trkpt lat="44.7878" lon="0.46702">
        <ele>148.2</ele>
        <time>2025-07-14T09:10:52Z</time>
      </trkpt>
      <trkpt lat="44.78783" lon="0.46703">
        <ele>148.2</ele>
        <time>2025-07-14T09:10:53Z</time>
      </trkpt>
      <trkpt lat="44.78785" lon="0.46703">
        <ele>148.4</ele>
        <time>2025-07-14T09:10:54Z</time>
      </trkpt>
      <trkpt lat="44.78788" lon="0.46703">
        <ele>148.4</ele>
        <time>2025-07-14T09:10:55Z</time>
      </trkpt>
      <trkpt lat="44.78791" lon="0.46704">
        <ele>148.6</ele>
        <time>2025-07-14T09:10:56Z</time>
      </trkpt>
      <trkpt lat="44.78793" lon="0.46704">
        <ele>148.8</ele>
        <time>2025-07-14T09:10:57Z</time>
      </trkpt>
      <trkpt lat="44.78796" lon="0.46705">
        <ele>148.8</ele>
        <time>2025-07-14T09:10:58Z</time>
      </trkpt>
      <trkpt lat="44.78798" lon="0.46705">
        <ele>148.8</ele>
        <time>2025-07-14T09:10:59Z</time>
      </trkpt>
      <trkpt lat="44.78801" lon="0.46705">
        <ele>149</ele>
        <time>2025-07-14T09:11:00Z</time>
      </trkpt>
      <trkpt lat="44.78803" lon="0.46706">
        <ele>149</ele>
        <time>2025-07-14T09:11:01Z</time>
      </trkpt>
      <trkpt lat="44.78807" lon="0.46706">
        <ele>149</ele>
        <time>2025-07-14T09:11:02Z</time>
      </trkpt>
      <trkpt lat="44.7881" lon="0.46707">
        <ele>149.2</ele>
        <time>2025-07-14T09:11:03Z</time>
      </trkpt>
      <trkpt lat="44.78813" lon="0.46708">
        <ele>149.2</ele>
        <time>2025-07-14T09:11:04Z</time>
      </trkpt>
      <trkpt lat="44.78816" lon="0.46709">
        <ele>149.2</ele>
        <time>2025-07-14T09:11:05Z</time>
      </trkpt>
      <trkpt lat="44.78819" lon="0.4671">
        <ele>149.4</ele>
        <time>2025-07-14T09:11:06Z</time>
      </trkpt>
      <trkpt lat="44.78822" lon="0.46711">
        <ele>149.4</ele>
        <time>2025-07-14T09:11:07Z</time>
      </trkpt>
      <trkpt lat="44.78825" lon="0.46712">
        <ele>149.6</ele>
        <time>2025-07-14T09:11:08Z</time>
      </trkpt>
      <trkpt lat="44.78829" lon="0.46712">
        <ele>149.6</ele>
        <time>2025-07-14T09:11:09Z</time>
      </trkpt>
      <trkpt lat="44.78832" lon="0.46713">
        <ele>149.6</ele>
        <time>2025-07-14T09:11:10Z</time>
      </trkpt>
      <trkpt lat="44.78836" lon="0.46713">
        <ele>149.6</ele>
        <time>2025-07-14T09:11:11Z</time>
      </trkpt>
      <trkpt lat="44.78839" lon="0.46714">
        <ele>149.6</ele>
        <time>2025-07-14T09:11:12Z</time>
      </trkpt>
      <trkpt lat="44.78843" lon="0.46714">
        <ele>149.4</ele>
        <time>2025-07-14T09:11:13Z</time>
      </trkpt>
      <trkpt lat="44.78847" lon="0.46715">
        <ele>149.4</ele>
        <time>2025-07-14T09:11:14Z</time>
      </trkpt>
      <trkpt lat="44.7885" lon="0.46716">
        <ele>149.2</ele>
        <time>2025-07-14T09:11:15Z</time>
      </trkpt>
      <trkpt lat="44.78854" lon="0.46716">
        <ele>149.2</ele>
        <time>2025-07-14T09:11:16Z</time>
      </trkpt>
      <trkpt lat="44.78858" lon="0.46717">
        <ele>149</ele>
        <time>2025-07-14T09:11:17Z</time>
      </trkpt>
      <trkpt lat="44.78862" lon="0.46717">
        <ele>149</ele>
        <time>2025-07-14T09:11:18Z</time>
      </trkpt>
      <trkpt lat="44.78866" lon="0.46717">
        <ele>149</ele>
        <time>2025-07-14T09:11:19Z</time>
      </trkpt>
      <trkpt lat="44.78869" lon="0.46718">
        <ele>149</ele>
        <time>2025-07-14T09:11:20Z</time>
      </trkpt>
      <trkpt lat="44.78873" lon="0.46718">
        <ele>149</ele>
        <time>2025-07-14T09:11:21Z</time>
      </trkpt>
      <trkpt lat="44.78876" lon="0.46719">
        <ele>148.8</ele>
        <time>2025-07-14T09:11:22Z</time>
      </trkpt>
      <trkpt lat="44.7888" lon="0.46719">
        <ele>148.8</ele>
        <time>2025-07-14T09:11:23Z</time>
      </trkpt>
      <trkpt lat="44.78884" lon="0.46719">
        <ele>148.8</ele>
        <time>2025-07-14T09:11:24Z</time>
      </trkpt>
      <trkpt lat="44.78887" lon="0.4672">
        <ele>148.8</ele>
        <time>2025-07-14T09:11:25Z</time>
      </trkpt>
      <trkpt lat="44.78891" lon="0.46721">
        <ele>149</ele>
        <time>2025-07-14T09:11:26Z</time>
      </trkpt>
      <trkpt lat="44.78894" lon="0.46721">
        <ele>149</ele>
        <time>2025-07-14T09:11:27Z</time>
      </trkpt>
      <trkpt lat="44.78898" lon="0.46721">
        <ele>149</ele>
        <time>2025-07-14T09:11:28Z</time>
      </trkpt>
      <trkpt lat="44.78901" lon="0.4672">
        <ele>149</ele>
        <time>2025-07-14T09:11:29Z</time>
      </trkpt>
      <trkpt lat="44.78904" lon="0.4672">
        <ele>149</ele>
        <time>2025-07-14T09:11:30Z</time>
      </trkpt>
      <trkpt lat="44.78907" lon="0.4672">
        <ele>149.2</ele>
        <time>2025-07-14T09:11:31Z</time>
      </trkpt>
      <trkpt lat="44.78911" lon="0.46719">
        <ele>149.2</ele>
        <time>2025-07-14T09:11:32Z</time>
      </trkpt>
      <trkpt lat="44.78913" lon="0.46719">
        <ele>149.4</ele>
        <time>2025-07-14T09:11:33Z</time>
      </trkpt>
      <trkpt lat="44.78916" lon="0.46718">
        <ele>149.4</ele>
        <time>2025-07-14T09:11:34Z</time>
      </trkpt>
      <trkpt lat="44.78919" lon="0.46717">
        <ele>149.6</ele>
        <time>2025-07-14T09:11:35Z</time>
      </trkpt>
      <trkpt lat="44.78922" lon="0.46717">
        <ele>149.6</ele>
        <time>2025-07-14T09:11:36Z</time>
      </trkpt>
      <trkpt lat="44.78925" lon="0.46716">
        <ele>149.8</ele>
        <time>2025-07-14T09:11:37Z</time>
      </trkpt>
      <trkpt lat="44.78927" lon="0.46715">
        <ele>150</ele>
        <time>2025-07-14T09:11:38Z</time>
      </trkpt>
      <trkpt lat="44.7893" lon="0.46715">
        <ele>150.2</ele>
        <time>2025-07-14T09:11:39Z</time>
      </trkpt>
      <trkpt lat="44.78932" lon="0.46714">
        <ele>150.2</ele>
        <time>2025-07-14T09:11:40Z</time>
      </trkpt>
      <trkpt lat="44.78935" lon="0.46714">
        <ele>150.4</ele>
        <time>2025-07-14T09:11:41Z</time>
      </trkpt>
      <trkpt lat="44.78937" lon="0.46713">
        <ele>150.6</ele>
        <time>2025-07-14T09:11:42Z</time>
      </trkpt>
      <trkpt lat="44.7894" lon="0.46713">
        <ele>150.6</ele>
        <time>2025-07-14T09:11:43Z</time>
      </trkpt>
      <trkpt lat="44.78942" lon="0.46713">
        <ele>150.8</ele>
        <time>2025-07-14T09:11:44Z</time>
      </trkpt>
      <trkpt lat="44.78945" lon="0.46712">
        <ele>151</ele>
        <time>2025-07-14T09:11:45Z</time>
      </trkpt>
      <trkpt lat="44.78947" lon="0.46711">
        <ele>151.2</ele>
        <time>2025-07-14T09:11:46Z</time>
      </trkpt>
      <trkpt lat="44.7895" lon="0.46709">
        <ele>151.4</ele>
        <time>2025-07-14T09:11:47Z</time>
      </trkpt>
      <trkpt lat="44.78952" lon="0.46708">
        <ele>151.4</ele>
        <time>2025-07-14T09:11:48Z</time>
      </trkpt>
      <trkpt lat="44.78954" lon="0.46707">
        <ele>151.6</ele>
        <time>2025-07-14T09:11:49Z</time>
      </trkpt>
      <trkpt lat="44.78957" lon="0.46706">
        <ele>151.8</ele>
        <time>2025-07-14T09:11:50Z</time>
      </trkpt>
      <trkpt lat="44.7896" lon="0.46705">
        <ele>152</ele>
        <time>2025-07-14T09:11:51Z</time>
      </trkpt>
      <trkpt lat="44.78962" lon="0.46705">
        <ele>152.2</ele>
        <time>2025-07-14T09:11:52Z</time>
      </trkpt>
      <trkpt lat="44.78965" lon="0.46704">
        <ele>152.4</ele>
        <time>2025-07-14T09:11:53Z</time>
      </trkpt>
      <trkpt lat="44.78967" lon="0.46703">
        <ele>152.4</ele>
        <time>2025-07-14T09:11:54Z</time>
      </trkpt>
      <trkpt lat="44.7897" lon="0.46702">
        <ele>152.6</ele>
        <time>2025-07-14T09:11:55Z</time>
      </trkpt>
      <trkpt lat="44.78972" lon="0.46701">
        <ele>152.8</ele>
        <time>2025-07-14T09:11:56Z</time>
      </trkpt>
      <trkpt lat="44.78974" lon="0.467">
        <ele>152.8</ele>
        <time>2025-07-14T09:11:57Z</time>
      </trkpt>
      <trkpt lat="44.78977" lon="0.46699">
        <ele>153</ele>
        <time>2025-07-14T09:11:58Z</time>
      </trkpt>
      <trkpt lat="44.78979" lon="0.46698">
        <ele>153.2</ele>
        <time>2025-07-14T09:11:59Z</time>
      </trkpt>
      <trkpt lat="44.78982" lon="0.46696">
        <ele>153.2</ele>
        <time>2025-07-14T09:12:00Z</time>
      </trkpt>
      <trkpt lat="44.78984" lon="0.46694">
        <ele>153.4</ele>
        <time>2025-07-14T09:12:01Z</time>
      </trkpt>
      <trkpt lat="44.78986" lon="0.46692">
        <ele>153.4</ele>
        <time>2025-07-14T09:12:02Z</time>
      </trkpt>
      <trkpt lat="44.78987" lon="0.46689">
        <ele>153.4</ele>
        <time>2025-07-14T09:12:03Z</time>
      </trkpt>
      <trkpt lat="44.78987" lon="0.46685">
        <ele>153.6</ele>
        <time>2025-07-14T09:12:04Z</time>
      </trkpt>
      <trkpt lat="44.78988" lon="0.46682">
        <ele>153.8</ele>
        <time>2025-07-14T09:12:05Z</time>
      </trkpt>
      <trkpt lat="44.78988" lon="0.46679">
        <ele>154</ele>
        <time>2025-07-14T09:12:06Z</time>
      </trkpt>
      <trkpt lat="44.78989" lon="0.46675">
        <ele>154.2</ele>
        <time>2025-07-14T09:12:07Z</time>
      </trkpt>
      <trkpt lat="44.7899" lon="0.46672">
        <ele>154.4</ele>
        <time>2025-07-14T09:12:08Z</time>
      </trkpt>
      <trkpt lat="44.7899" lon="0.46669">
        <ele>154.4</ele>
        <time>2025-07-14T09:12:09Z</time>
      </trkpt>
      <trkpt lat="44.78991" lon="0.46666">
        <ele>154.8</ele>
        <time>2025-07-14T09:12:10Z</time>
      </trkpt>
      <trkpt lat="44.78992" lon="0.46663">
        <ele>154.8</ele>
        <time>2025-07-14T09:12:11Z</time>
      </trkpt>
      <trkpt lat="44.78993" lon="0.4666">
        <ele>155</ele>
        <time>2025-07-14T09:12:12Z</time>
      </trkpt>
      <trkpt lat="44.78994" lon="0.46657">
        <ele>155.2</ele>
        <time>2025-07-14T09:12:13Z</time>
      </trkpt>
      <trkpt lat="44.78994" lon="0.46654">
        <ele>155.4</ele>
        <time>2025-07-14T09:12:14Z</time>
      </trkpt>
      <trkpt lat="44.78995" lon="0.46651">
        <ele>155.6</ele>
        <time>2025-07-14T09:12:15Z</time>
      </trkpt>
      <trkpt lat="44.78996" lon="0.46648">
        <ele>155.8</ele>
        <time>2025-07-14T09:12:16Z</time>
      </trkpt>
      <trkpt lat="44.78997" lon="0.46645">
        <ele>156</ele>
        <time>2025-07-14T09:12:17Z</time>
      </trkpt>
      <trkpt lat="44.78998" lon="0.46642">
        <ele>156.2</ele>
        <time>2025-07-14T09:12:18Z</time>
      </trkpt>
      <trkpt lat="44.78998" lon="0.46639">
        <ele>156.4</ele>
        <time>2025-07-14T09:12:19Z</time>
      </trkpt>
      <trkpt lat="44.78999" lon="0.46636">
        <ele>156.6</ele>
        <time>2025-07-14T09:12:20Z</time>
      </trkpt>
      <trkpt lat="44.79" lon="0.46633">
        <ele>156.8</ele>
        <time>2025-07-14T09:12:21Z</time>
      </trkpt>
      <trkpt lat="44.79001" lon="0.46631">
        <ele>157</ele>
        <time>2025-07-14T09:12:22Z</time>
      </trkpt>
      <trkpt lat="44.79001" lon="0.46628">
        <ele>157.2</ele>
        <time>2025-07-14T09:12:23Z</time>
      </trkpt>
      <trkpt lat="44.79002" lon="0.46625">
        <ele>157.4</ele>
        <time>2025-07-14T09:12:24Z</time>
      </trkpt>
      <trkpt lat="44.79003" lon="0.46622">
        <ele>157.6</ele>
        <time>2025-07-14T09:12:25Z</time>
      </trkpt>
      <trkpt lat="44.79004" lon="0.4662">
        <ele>157.6</ele>
        <time>2025-07-14T09:12:26Z</time>
      </trkpt>
      <trkpt lat="44.79005" lon="0.46617">
        <ele>157.8</ele>
        <time>2025-07-14T09:12:27Z</time>
      </trkpt>
      <trkpt lat="44.79006" lon="0.46614">
        <ele>158</ele>
        <time>2025-07-14T09:12:28Z</time>
      </trkpt>
      <trkpt lat="44.79008" lon="0.46612">
        <ele>158.2</ele>
        <time>2025-07-14T09:12:29Z</time>
      </trkpt>
      <trkpt lat="44.79009" lon="0.46609">
        <ele>158.2</ele>
        <time>2025-07-14T09:12:30Z</time>
      </trkpt>
      <trkpt lat="44.79011" lon="0.46607">
        <ele>158.4</ele>
        <time>2025-07-14T09:12:31Z</time>
      </trkpt>
      <trkpt lat="44.79012" lon="0.46605">
        <ele>158.6</ele>
        <time>2025-07-14T09:12:32Z</time>
      </trkpt>
      <trkpt lat="44.79014" lon="0.46602">
        <ele>158.8</ele>
        <time>2025-07-14T09:12:33Z</time>
      </trkpt>
      <trkpt lat="44.79015" lon="0.466">
        <ele>158.8</ele>
        <time>2025-07-14T09:12:34Z</time>
      </trkpt>
      <trkpt lat="44.79017" lon="0.46598">
        <ele>159</ele>
        <time>2025-07-14T09:12:35Z</time>
      </trkpt>
      <trkpt lat="44.79018" lon="0.46596">
        <ele>159</ele>
        <time>2025-07-14T09:12:36Z</time>
      </trkpt>
      <trkpt lat="44.7902" lon="0.46594">
        <ele>159.2</ele>
        <time>2025-07-14T09:12:37Z</time>
      </trkpt>
      <trkpt lat="44.79021" lon="0.46591">
        <ele>159</ele>
        <time>2025-07-14T09:12:38Z</time>
      </trkpt>
      <trkpt lat="44.79022" lon="0.46588">
        <ele>159</ele>
        <time>2025-07-14T09:12:39Z</time>
      </trkpt>
      <trkpt lat="44.79023" lon="0.46585">
        <ele>159</ele>
        <time>2025-07-14T09:12:40Z</time>
      </trkpt>
      <trkpt lat="44.79024" lon="0.46581">
        <ele>158.8</ele>
        <time>2025-07-14T09:12:41Z</time>
      </trkpt>
      <trkpt lat="44.79024" lon="0.46577">
        <ele>158.8</ele>
        <time>2025-07-14T09:12:42Z</time>
      </trkpt>
      <trkpt lat="44.79024" lon="0.46574">
        <ele>159</ele>
        <time>2025-07-14T09:12:43Z</time>
      </trkpt>
      <trkpt lat="44.79025" lon="0.4657">
        <ele>159</ele>
        <time>2025-07-14T09:12:44Z</time>
      </trkpt>
      <trkpt lat="44.79025" lon="0.46566">
        <ele>159.2</ele>
        <time>2025-07-14T09:12:45Z</time>
      </trkpt>
      <trkpt lat="44.79025" lon="0.46562">
        <ele>159.2</ele>
        <time>2025-07-14T09:12:46Z</time>
      </trkpt>
      <trkpt lat="44.79025" lon="0.46558">
        <ele>159.2</ele>
        <time>2025-07-14T09:12:47Z</time>
      </trkpt>
      <trkpt lat="44.79025" lon="0.46554">
        <ele>159.2</ele>
        <time>2025-07-14T09:12:48Z</time>
      </trkpt>
      <trkpt lat="44.79025" lon="0.46549">
        <ele>159.2</ele>
        <time>2025-07-14T09:12:49Z</time>
      </trkpt>
      <trkpt lat="44.79025" lon="0.46544">
        <ele>159.2</ele>
        <time>2025-07-14T09:12:50Z</time>
      </trkpt>
      <trkpt lat="44.79026" lon="0.46541">
        <ele>159</ele>
        <time>2025-07-14T09:12:51Z</time>
      </trkpt>
      <trkpt lat="44.79028" lon="0.46539">
        <ele>159</ele>
        <time>2025-07-14T09:12:52Z</time>
      </trkpt>
      <trkpt lat="44.7903" lon="0.46539">
        <ele>159.2</ele>
        <time>2025-07-14T09:12:53Z</time>
      </trkpt>
      <trkpt lat="44.79033" lon="0.46539">
        <ele>159.2</ele>
        <time>2025-07-14T09:12:54Z</time>
      </trkpt>
      <trkpt lat="44.79035" lon="0.4654">
        <ele>159.2</ele>
        <time>2025-07-14T09:12:55Z</time>
      </trkpt>
      <trkpt lat="44.79038" lon="0.46541">
        <ele>159.4</ele>
        <time>2025-07-14T09:12:56Z</time>
      </trkpt>
      <trkpt lat="44.7904" lon="0.4654">
        <ele>159.4</ele>
        <time>2025-07-14T09:12:57Z</time>
      </trkpt>
      <trkpt lat="44.79043" lon="0.46538">
        <ele>159.4</ele>
        <time>2025-07-14T09:12:58Z</time>
      </trkpt>
      <trkpt lat="44.79044" lon="0.46535">
        <ele>159.6</ele>
        <time>2025-07-14T09:12:59Z</time>
      </trkpt>
      <trkpt lat="44.79046" lon="0.46532">
        <ele>159.8</ele>
        <time>2025-07-14T09:13:00Z</time>
      </trkpt>
      <trkpt lat="44.79047" lon="0.46528">
        <ele>159.8</ele>
        <time>2025-07-14T09:13:01Z</time>
      </trkpt>
      <trkpt lat="44.79048" lon="0.46524">
        <ele>160</ele>
        <time>2025-07-14T09:13:02Z</time>
      </trkpt>
      <trkpt lat="44.79049" lon="0.4652">
        <ele>160</ele>
        <time>2025-07-14T09:13:03Z</time>
      </trkpt>
      <trkpt lat="44.7905" lon="0.46515">
        <ele>160</ele>
        <time>2025-07-14T09:13:04Z</time>
      </trkpt>
      <trkpt lat="44.79051" lon="0.4651">
        <ele>160</ele>
        <time>2025-07-14T09:13:05Z</time>
      </trkpt>
      <trkpt lat="44.79052" lon="0.46505">
        <ele>159.8</ele>
        <time>2025-07-14T09:13:06Z</time>
      </trkpt>
      <trkpt lat="44.79053" lon="0.465">
        <ele>159.8</ele>
        <time>2025-07-14T09:13:07Z</time>
      </trkpt>
      <trkpt lat="44.79054" lon="0.46495">
        <ele>159.8</ele>
        <time>2025-07-14T09:13:08Z</time>
      </trkpt>
      <trkpt lat="44.79054" lon="0.46489">
        <ele>159.8</ele>
        <time>2025-07-14T09:13:09Z</time>
      </trkpt>
      <trkpt lat="44.79055" lon="0.46484">
        <ele>159.8</ele>
        <time>2025-07-14T09:13:10Z</time>
      </trkpt>
      <trkpt lat="44.79056" lon="0.46479">
        <ele>159.8</ele>
        <time>2025-07-14T09:13:11Z</time>
      </trkpt>
      <trkpt lat="44.79057" lon="0.46474">
        <ele>159.8</ele>
        <time>2025-07-14T09:13:12Z</time>
      </trkpt>
      <trkpt lat="44.79057" lon="0.46469">
        <ele>159.8</ele>
        <time>2025-07-14T09:13:13Z</time>
      </trkpt>
      <trkpt lat="44.79058" lon="0.46464">
        <ele>159.6</ele>
        <time>2025-07-14T09:13:14Z</time>
      </trkpt>
      <trkpt lat="44.79059" lon="0.46458">
        <ele>159.6</ele>
        <time>2025-07-14T09:13:15Z</time>
      </trkpt>
      <trkpt lat="44.79059" lon="0.46453">
        <ele>159.4</ele>
        <time>2025-07-14T09:13:16Z</time>
      </trkpt>
      <trkpt lat="44.7906" lon="0.46447">
        <ele>159.4</ele>
        <time>2025-07-14T09:13:17Z</time>
      </trkpt>
      <trkpt lat="44.79061" lon="0.46441">
        <ele>159.4</ele>
        <time>2025-07-14T09:13:18Z</time>
      </trkpt>
      <trkpt lat="44.79062" lon="0.46435">
        <ele>159.4</ele>
        <time>2025-07-14T09:13:19Z</time>
      </trkpt>
      <trkpt lat="44.79065" lon="0.46428">
        <ele>159.2</ele>
        <time>2025-07-14T09:13:20Z</time>
      </trkpt>
      <trkpt lat="44.79068" lon="0.46423">
        <ele>159.2</ele>
        <time>2025-07-14T09:13:21Z</time>
      </trkpt>
      <trkpt lat="44.7907" lon="0.46418">
        <ele>159.2</ele>
        <time>2025-07-14T09:13:22Z</time>
      </trkpt>
      <trkpt lat="44.79073" lon="0.46412">
        <ele>159</ele>
        <time>2025-07-14T09:13:23Z</time>
      </trkpt>
      <trkpt lat="44.79076" lon="0.46407">
        <ele>159</ele>
        <time>2025-07-14T09:13:24Z</time>
      </trkpt>
      <trkpt lat="44.7908" lon="0.46403">
        <ele>158.8</ele>
        <time>2025-07-14T09:13:25Z</time>
      </trkpt>
      <trkpt lat="44.79085" lon="0.46401">
        <ele>158.8</ele>
        <time>2025-07-14T09:13:26Z</time>
      </trkpt>
      <trkpt lat="44.7909" lon="0.46399">
        <ele>158.6</ele>
        <time>2025-07-14T09:13:27Z</time>
      </trkpt>
      <trkpt lat="44.79094" lon="0.46396">
        <ele>158.6</ele>
        <time>2025-07-14T09:13:28Z</time>
      </trkpt>
      <trkpt lat="44.79098" lon="0.4639">
        <ele>158.4</ele>
        <time>2025-07-14T09:13:29Z</time>
      </trkpt>
      <trkpt lat="44.791" lon="0.46384">
        <ele>158.2</ele>
        <time>2025-07-14T09:13:30Z</time>
      </trkpt>
      <trkpt lat="44.79103" lon="0.46376">
        <ele>157.8</ele>
        <time>2025-07-14T09:13:31Z</time>
      </trkpt>
      <trkpt lat="44.79105" lon="0.46368">
        <ele>157.4</ele>
        <time>2025-07-14T09:13:32Z</time>
      </trkpt>
      <trkpt lat="44.79108" lon="0.4636">
        <ele>157</ele>
        <time>2025-07-14T09:13:33Z</time>
      </trkpt>
      <trkpt lat="44.7911" lon="0.46353">
        <ele>156.6</ele>
        <time>2025-07-14T09:13:34Z</time>
      </trkpt>
      <trkpt lat="44.79112" lon="0.46348">
        <ele>156.2</ele>
        <time>2025-07-14T09:13:35Z</time>
      </trkpt>
      <trkpt lat="44.79115" lon="0.46345">
        <ele>156</ele>
        <time>2025-07-14T09:13:36Z</time>
      </trkpt>
      <trkpt lat="44.79118" lon="0.46344">
        <ele>155.8</ele>
        <time>2025-07-14T09:13:37Z</time>
      </trkpt>
      <trkpt lat="44.79122" lon="0.46345">
        <ele>155.8</ele>
        <time>2025-07-14T09:13:38Z</time>
      </trkpt>
      <trkpt lat="44.79125" lon="0.46347">
        <ele>155.6</ele>
        <time>2025-07-14T09:13:39Z</time>
      </trkpt>
      <trkpt lat="44.79128" lon="0.46349">
        <ele>155.6</ele>
        <time>2025-07-14T09:13:40Z</time>
      </trkpt>
      <trkpt lat="44.79131" lon="0.46351">
        <ele>155.6</ele>
        <time>2025-07-14T09:13:41Z</time>
      </trkpt>
      <trkpt lat="44.79134" lon="0.46353">
        <ele>155.6</ele>
        <time>2025-07-14T09:13:42Z</time>
      </trkpt>
      <trkpt lat="44.79138" lon="0.46356">
        <ele>155.6</ele>
        <time>2025-07-14T09:13:43Z</time>
      </trkpt>
      <trkpt lat="44.79141" lon="0.46357">
        <ele>155.6</ele>
        <time>2025-07-14T09:13:44Z</time>
      </trkpt>
      <trkpt lat="44.79144" lon="0.46359">
        <ele>155.8</ele>
        <time>2025-07-14T09:13:45Z</time>
      </trkpt>
      <trkpt lat="44.79148" lon="0.46361">
        <ele>155.8</ele>
        <time>2025-07-14T09:13:46Z</time>
      </trkpt>
      <trkpt lat="44.79151" lon="0.46363">
        <ele>155.8</ele>
        <time>2025-07-14T09:13:47Z</time>
      </trkpt>
      <trkpt lat="44.79155" lon="0.46365">
        <ele>155.8</ele>
        <time>2025-07-14T09:13:48Z</time>
      </trkpt>
      <trkpt lat="44.79158" lon="0.46366">
        <ele>156</ele>
        <time>2025-07-14T09:13:49Z</time>
      </trkpt>
      <trkpt lat="44.79161" lon="0.46368">
        <ele>156</ele>
        <time>2025-07-14T09:13:50Z</time>
      </trkpt>
      <trkpt lat="44.79165" lon="0.4637">
        <ele>156</ele>
        <time>2025-07-14T09:13:51Z</time>
      </trkpt>
      <trkpt lat="44.79168" lon="0.46372">
        <ele>156.2</ele>
        <time>2025-07-14T09:13:52Z</time>
      </trkpt>
      <trkpt lat="44.79172" lon="0.46374">
        <ele>156.2</ele>
        <time>2025-07-14T09:13:53Z</time>
      </trkpt>
      <trkpt lat="44.79175" lon="0.46376">
        <ele>156.4</ele>
        <time>2025-07-14T09:13:54Z</time>
      </trkpt>
      <trkpt lat="44.79179" lon="0.46378">
        <ele>156.6</ele>
        <time>2025-07-14T09:13:55Z</time>
      </trkpt>
      <trkpt lat="44.79183" lon="0.4638">
        <ele>156.6</ele>
        <time>2025-07-14T09:13:56Z</time>
      </trkpt>
      <trkpt lat="44.79186" lon="0.46381">
        <ele>156.8</ele>
        <time>2025-07-14T09:13:57Z</time>
      </trkpt>
      <trkpt lat="44.7919" lon="0.46383">
        <ele>157</ele>
        <time>2025-07-14T09:13:58Z</time>
      </trkpt>
      <trkpt lat="44.79193" lon="0.46385">
        <ele>157</ele>
        <time>2025-07-14T09:13:59Z</time>
      </trkpt>
      <trkpt lat="44.79196" lon="0.46387">
        <ele>157.2</ele>
        <time>2025-07-14T09:14:00Z</time>
      </trkpt>
      <trkpt lat="44.792" lon="0.46389">
        <ele>157.2</ele>
        <time>2025-07-14T09:14:01Z</time>
      </trkpt>
      <trkpt lat="44.79203" lon="0.46391">
        <ele>157.4</ele>
        <time>2025-07-14T09:14:02Z</time>
      </trkpt>
      <trkpt lat="44.79207" lon="0.46393">
        <ele>157.6</ele>
        <time>2025-07-14T09:14:03Z</time>
      </trkpt>
      <trkpt lat="44.7921" lon="0.46395">
        <ele>157.6</ele>
        <time>2025-07-14T09:14:04Z</time>
      </trkpt>
      <trkpt lat="44.79214" lon="0.46397">
        <ele>157.8</ele>
        <time>2025-07-14T09:14:05Z</time>
      </trkpt>
      <trkpt lat="44.79217" lon="0.46399">
        <ele>157.8</ele>
        <time>2025-07-14T09:14:06Z</time>
      </trkpt>
      <trkpt lat="44.79221" lon="0.464">
        <ele>158</ele>
        <time>2025-07-14T09:14:07Z</time>
      </trkpt>
      <trkpt lat="44.79225" lon="0.46402">
        <ele>158.2</ele>
        <time>2025-07-14T09:14:08Z</time>
      </trkpt>
      <trkpt lat="44.79229" lon="0.46404">
        <ele>158.2</ele>
        <time>2025-07-14T09:14:09Z</time>
      </trkpt>
      <trkpt lat="44.79233" lon="0.46404">
        <ele>158.4</ele>
        <time>2025-07-14T09:14:10Z</time>
      </trkpt>
      <trkpt lat="44.79236" lon="0.464">
        <ele>158.4</ele>
        <time>2025-07-14T09:14:11Z</time>
      </trkpt>
      <trkpt lat="44.79238" lon="0.46395">
        <ele>158.6</ele>
        <time>2025-07-14T09:14:12Z</time>
      </trkpt>
      <trkpt lat="44.79242" lon="0.46388">
        <ele>158.4</ele>
        <time>2025-07-14T09:14:13Z</time>
      </trkpt>
      <trkpt lat="44.79245" lon="0.46381">
        <ele>158.2</ele>
        <time>2025-07-14T09:14:14Z</time>
      </trkpt>
      <trkpt lat="44.79249" lon="0.46374">
        <ele>157.8</ele>
        <time>2025-07-14T09:14:15Z</time>
      </trkpt>
      <trkpt lat="44.79253" lon="0.46367">
        <ele>157.4</ele>
        <time>2025-07-14T09:14:16Z</time>
      </trkpt>
      <trkpt lat="44.79258" lon="0.46361">
        <ele>156.8</ele>
        <time>2025-07-14T09:14:17Z</time>
      </trkpt>
      <trkpt lat="44.79264" lon="0.46356">
        <ele>156.4</ele>
        <time>2025-07-14T09:14:18Z</time>
      </trkpt>
      <trkpt lat="44.79269" lon="0.46351">
        <ele>156</ele>
        <time>2025-07-14T09:14:19Z</time>
      </trkpt>
      <trkpt lat="44.79274" lon="0.46347">
        <ele>155.8</ele>
        <time>2025-07-14T09:14:20Z</time>
      </trkpt>
      <trkpt lat="44.79279" lon="0.46341">
        <ele>155.6</ele>
        <time>2025-07-14T09:14:21Z</time>
      </trkpt>
      <trkpt lat="44.79282" lon="0.46336">
        <ele>155.6</ele>
        <time>2025-07-14T09:14:22Z</time>
      </trkpt>
      <trkpt lat="44.79285" lon="0.4633">
        <ele>155.4</ele>
        <time>2025-07-14T09:14:23Z</time>
      </trkpt>
      <trkpt lat="44.79288" lon="0.46324">
        <ele>155.4</ele>
        <time>2025-07-14T09:14:24Z</time>
      </trkpt>
      <trkpt lat="44.79291" lon="0.46318">
        <ele>155.4</ele>
        <time>2025-07-14T09:14:25Z</time>
      </trkpt>
      <trkpt lat="44.79294" lon="0.46312">
        <ele>155.4</ele>
        <time>2025-07-14T09:14:26Z</time>
      </trkpt>
      <trkpt lat="44.79297" lon="0.46307">
        <ele>155.4</ele>
        <time>2025-07-14T09:14:27Z</time>
      </trkpt>
      <trkpt lat="44.793" lon="0.46302">
        <ele>155.4</ele>
        <time>2025-07-14T09:14:28Z</time>
      </trkpt>
      <trkpt lat="44.79303" lon="0.46296">
        <ele>155.4</ele>
        <time>2025-07-14T09:14:29Z</time>
      </trkpt>
      <trkpt lat="44.79306" lon="0.46291">
        <ele>155.4</ele>
        <time>2025-07-14T09:14:30Z</time>
      </trkpt>
      <trkpt lat="44.79309" lon="0.46287">
        <ele>155.6</ele>
        <time>2025-07-14T09:14:31Z</time>
      </trkpt>
      <trkpt lat="44.79312" lon="0.46283">
        <ele>155.8</ele>
        <time>2025-07-14T09:14:32Z</time>
      </trkpt>
      <trkpt lat="44.79314" lon="0.46278">
        <ele>156</ele>
        <time>2025-07-14T09:14:33Z</time>
      </trkpt>
      <trkpt lat="44.79315" lon="0.46274">
        <ele>156.2</ele>
        <time>2025-07-14T09:14:34Z</time>
      </trkpt>
      <trkpt lat="44.79317" lon="0.4627">
        <ele>156.6</ele>
        <time>2025-07-14T09:14:35Z</time>
      </trkpt>
      <trkpt lat="44.79318" lon="0.46266">
        <ele>156.8</ele>
        <time>2025-07-14T09:14:36Z</time>
      </trkpt>
      <trkpt lat="44.79319" lon="0.46262">
        <ele>157</ele>
        <time>2025-07-14T09:14:37Z</time>
      </trkpt>
      <trkpt lat="44.79321" lon="0.46259">
        <ele>157.2</ele>
        <time>2025-07-14T09:14:38Z</time>
      </trkpt>
      <trkpt lat="44.79322" lon="0.46255">
        <ele>157.4</ele>
        <time>2025-07-14T09:14:39Z</time>
      </trkpt>
      <trkpt lat="44.79323" lon="0.46251">
        <ele>157.6</ele>
        <time>2025-07-14T09:14:40Z</time>
      </trkpt>
      <trkpt lat="44.79324" lon="0.46248">
        <ele>158</ele>
        <time>2025-07-14T09:14:41Z</time>
      </trkpt>
      <trkpt lat="44.79324" lon="0.46244">
        <ele>158.2</ele>
        <time>2025-07-14T09:14:42Z</time>
      </trkpt>
      <trkpt lat="44.79325" lon="0.4624">
        <ele>158.4</ele>
        <time>2025-07-14T09:14:43Z</time>
      </trkpt>
      <trkpt lat="44.79326" lon="0.46236">
        <ele>158.6</ele>
        <time>2025-07-14T09:14:44Z</time>
      </trkpt>
      <trkpt lat="44.79327" lon="0.46232">
        <ele>158.8</ele>
        <time>2025-07-14T09:14:45Z</time>
      </trkpt>
      <trkpt lat="44.79328" lon="0.46229">
        <ele>159</ele>
        <time>2025-07-14T09:14:46Z</time>
      </trkpt>
      <trkpt lat="44.79329" lon="0.46225">
        <ele>159.4</ele>
        <time>2025-07-14T09:14:47Z</time>
      </trkpt>
      <trkpt lat="44.79329" lon="0.46221">
        <ele>159.6</ele>
        <time>2025-07-14T09:14:48Z</time>
      </trkpt>
      <trkpt lat="44.7933" lon="0.46217">
        <ele>159.8</ele>
        <time>2025-07-14T09:14:49Z</time>
      </trkpt>
      <trkpt lat="44.7933" lon="0.46213">
        <ele>160</ele>
        <time>2025-07-14T09:14:50Z</time>
      </trkpt>
      <trkpt lat="44.79331" lon="0.46209">
        <ele>160.2</ele>
        <time>2025-07-14T09:14:51Z</time>
      </trkpt>
      <trkpt lat="44.79332" lon="0.46205">
        <ele>160.4</ele>
        <time>2025-07-14T09:14:52Z</time>
      </trkpt>
      <trkpt lat="44.79333" lon="0.46201">
        <ele>160.6</ele>
        <time>2025-07-14T09:14:53Z</time>
      </trkpt>
      <trkpt lat="44.79333" lon="0.46198">
        <ele>160.6</ele>
        <time>2025-07-14T09:14:54Z</time>
      </trkpt>
      <trkpt lat="44.79333" lon="0.46193">
        <ele>160.8</ele>
        <time>2025-07-14T09:14:55Z</time>
      </trkpt>
      <trkpt lat="44.79334" lon="0.46189">
        <ele>160.8</ele>
        <time>2025-07-14T09:14:56Z</time>
      </trkpt>
      <trkpt lat="44.79335" lon="0.46186">
        <ele>161</ele>
        <time>2025-07-14T09:14:57Z</time>
      </trkpt>
      <trkpt lat="44.79336" lon="0.46182">
        <ele>161</ele>
        <time>2025-07-14T09:14:58Z</time>
      </trkpt>
      <trkpt lat="44.79337" lon="0.46178">
        <ele>161.2</ele>
        <time>2025-07-14T09:14:59Z</time>
      </trkpt>
      <trkpt lat="44.79338" lon="0.46174">
        <ele>161.4</ele>
        <time>2025-07-14T09:15:00Z</time>
      </trkpt>
      <trkpt lat="44.79339" lon="0.4617">
        <ele>161.4</ele>
        <time>2025-07-14T09:15:01Z</time>
      </trkpt>
      <trkpt lat="44.7934" lon="0.46165">
        <ele>161.6</ele>
        <time>2025-07-14T09:15:02Z</time>
      </trkpt>
      <trkpt lat="44.7934" lon="0.4616">
        <ele>161.8</ele>
        <time>2025-07-14T09:15:03Z</time>
      </trkpt>
      <trkpt lat="44.79341" lon="0.46156">
        <ele>161.8</ele>
        <time>2025-07-14T09:15:04Z</time>
      </trkpt>
      <trkpt lat="44.79342" lon="0.46152">
        <ele>161.8</ele>
        <time>2025-07-14T09:15:05Z</time>
      </trkpt>
      <trkpt lat="44.79343" lon="0.46149">
        <ele>162</ele>
        <time>2025-07-14T09:15:06Z</time>
      </trkpt>
      <trkpt lat="44.79344" lon="0.46145">
        <ele>162.2</ele>
        <time>2025-07-14T09:15:07Z</time>
      </trkpt>
      <trkpt lat="44.79345" lon="0.46141">
        <ele>162.2</ele>
        <time>2025-07-14T09:15:08Z</time>
      </trkpt>
      <trkpt lat="44.79346" lon="0.46137">
        <ele>162.2</ele>
        <time>2025-07-14T09:15:09Z</time>
      </trkpt>
      <trkpt lat="44.79347" lon="0.46133">
        <ele>162.4</ele>
        <time>2025-07-14T09:15:10Z</time>
      </trkpt>
      <trkpt lat="44.79347" lon="0.46129">
        <ele>162.6</ele>
        <time>2025-07-14T09:15:11Z</time>
      </trkpt>
      <trkpt lat="44.79348" lon="0.46124">
        <ele>162.6</ele>
        <time>2025-07-14T09:15:12Z</time>
      </trkpt>
      <trkpt lat="44.79349" lon="0.4612">
        <ele>162.6</ele>
        <time>2025-07-14T09:15:13Z</time>
      </trkpt>
      <trkpt lat="44.7935" lon="0.46115">
        <ele>162.8</ele>
        <time>2025-07-14T09:15:14Z</time>
      </trkpt>
      <trkpt lat="44.79351" lon="0.46109">
        <ele>162.8</ele>
        <time>2025-07-14T09:15:15Z</time>
      </trkpt>
      <trkpt lat="44.79352" lon="0.46104">
        <ele>162.6</ele>
        <time>2025-07-14T09:15:16Z</time>
      </trkpt>
      <trkpt lat="44.79353" lon="0.46098">
        <ele>162.6</ele>
        <time>2025-07-14T09:15:17Z</time>
      </trkpt>
      <trkpt lat="44.79354" lon="0.46091">
        <ele>162.6</ele>
        <time>2025-07-14T09:15:18Z</time>
      </trkpt>
      <trkpt lat="44.79356" lon="0.46084">
        <ele>162.4</ele>
        <time>2025-07-14T09:15:19Z</time>
      </trkpt>
      <trkpt lat="44.79358" lon="0.46076">
        <ele>162.2</ele>
        <time>2025-07-14T09:15:20Z</time>
      </trkpt>
      <trkpt lat="44.7936" lon="0.46067">
        <ele>161.8</ele>
        <time>2025-07-14T09:15:21Z</time>
      </trkpt>
      <trkpt lat="44.79363" lon="0.46059">
        <ele>161.4</ele>
        <time>2025-07-14T09:15:22Z</time>
      </trkpt>
      <trkpt lat="44.79365" lon="0.4605">
        <ele>161</ele>
        <time>2025-07-14T09:15:23Z</time>
      </trkpt>
      <trkpt lat="44.79368" lon="0.46041">
        <ele>160.6</ele>
        <time>2025-07-14T09:15:24Z</time>
      </trkpt>
      <trkpt lat="44.79371" lon="0.46032">
        <ele>160.4</ele>
        <time>2025-07-14T09:15:25Z</time>
      </trkpt>
      <trkpt lat="44.79374" lon="0.46024">
        <ele>160</ele>
        <time>2025-07-14T09:15:26Z</time>
      </trkpt>
      <trkpt lat="44.79377" lon="0.46016">
        <ele>159.4</ele>
        <time>2025-07-14T09:15:27Z</time>
      </trkpt>
      <trkpt lat="44.7938" lon="0.46008">
        <ele>159.2</ele>
        <time>2025-07-14T09:15:28Z</time>
      </trkpt>
      <trkpt lat="44.79384" lon="0.46001">
        <ele>159</ele>
        <time>2025-07-14T09:15:29Z</time>
      </trkpt>
      <trkpt lat="44.79387" lon="0.45995">
        <ele>158.8</ele>
        <time>2025-07-14T09:15:30Z</time>
      </trkpt>
      <trkpt lat="44.79389" lon="0.45989">
        <ele>158.6</ele>
        <time>2025-07-14T09:15:31Z</time>
      </trkpt>
      <trkpt lat="44.79392" lon="0.45985">
        <ele>158.4</ele>
        <time>2025-07-14T09:15:32Z</time>
      </trkpt>
      <trkpt lat="44.79395" lon="0.45982">
        <ele>158.4</ele>
        <time>2025-07-14T09:15:33Z</time>
      </trkpt>
      <trkpt lat="44.79396" lon="0.45977">
        <ele>158.6</ele>
        <time>2025-07-14T09:15:34Z</time>
      </trkpt>
      <trkpt lat="44.79395" lon="0.45974">
        <ele>158.8</ele>
        <time>2025-07-14T09:15:35Z</time>
      </trkpt>
      <trkpt lat="44.79393" lon="0.45971">
        <ele>159.2</ele>
        <time>2025-07-14T09:15:36Z</time>
      </trkpt>
      <trkpt lat="44.7939" lon="0.45968">
        <ele>159.4</ele>
        <time>2025-07-14T09:15:37Z</time>
      </trkpt>
      <trkpt lat="44.79387" lon="0.45966">
        <ele>159.6</ele>
        <time>2025-07-14T09:15:38Z</time>
      </trkpt>
      <trkpt lat="44.79382" lon="0.45963">
        <ele>159.6</ele>
        <time>2025-07-14T09:15:39Z</time>
      </trkpt>
      <trkpt lat="44.79377" lon="0.45961">
        <ele>159.6</ele>
        <time>2025-07-14T09:15:40Z</time>
      </trkpt>
      <trkpt lat="44.79372" lon="0.45958">
        <ele>159.6</ele>
        <time>2025-07-14T09:15:41Z</time>
      </trkpt>
      <trkpt lat="44.79367" lon="0.45955">
        <ele>159.4</ele>
        <time>2025-07-14T09:15:42Z</time>
      </trkpt>
      <trkpt lat="44.79362" lon="0.45952">
        <ele>159.2</ele>
        <time>2025-07-14T09:15:43Z</time>
      </trkpt>
      <trkpt lat="44.79356" lon="0.45948">
        <ele>158.8</ele>
        <time>2025-07-14T09:15:44Z</time>
      </trkpt>
      <trkpt lat="44.79351" lon="0.45945">
        <ele>158.6</ele>
        <time>2025-07-14T09:15:45Z</time>
      </trkpt>
      <trkpt lat="44.79345" lon="0.45942">
        <ele>158.4</ele>
        <time>2025-07-14T09:15:46Z</time>
      </trkpt>
      <trkpt lat="44.79338" lon="0.45938">
        <ele>158</ele>
        <time>2025-07-14T09:15:47Z</time>
      </trkpt>
      <trkpt lat="44.79331" lon="0.45935">
        <ele>157.8</ele>
        <time>2025-07-14T09:15:48Z</time>
      </trkpt>
      <trkpt lat="44.79326" lon="0.45931">
        <ele>157.4</ele>
        <time>2025-07-14T09:15:49Z</time>
      </trkpt>
      <trkpt lat="44.79321" lon="0.45926">
        <ele>156.6</ele>
        <time>2025-07-14T09:15:50Z</time>
      </trkpt>
      <trkpt lat="44.79318" lon="0.4592">
        <ele>156.2</ele>
        <time>2025-07-14T09:15:51Z</time>
      </trkpt>
      <trkpt lat="44.79315" lon="0.45913">
        <ele>155.8</ele>
        <time>2025-07-14T09:15:52Z</time>
      </trkpt>
      <trkpt lat="44.79312" lon="0.4591">
        <ele>155.4</ele>
        <time>2025-07-14T09:15:53Z</time>
      </trkpt>
      <trkpt lat="44.79307" lon="0.45908">
        <ele>155</ele>
        <time>2025-07-14T09:15:54Z</time>
      </trkpt>
      <trkpt lat="44.79303" lon="0.45906">
        <ele>154.8</ele>
        <time>2025-07-14T09:15:55Z</time>
      </trkpt>
      <trkpt lat="44.79299" lon="0.45901">
        <ele>154.4</ele>
        <time>2025-07-14T09:15:56Z</time>
      </trkpt>
      <trkpt lat="44.79296" lon="0.45896">
        <ele>154</ele>
        <time>2025-07-14T09:15:57Z</time>
      </trkpt>
      <trkpt lat="44.79293" lon="0.45891">
        <ele>153.6</ele>
        <time>2025-07-14T09:15:58Z</time>
      </trkpt>
      <trkpt lat="44.7929" lon="0.45887">
        <ele>153.4</ele>
        <time>2025-07-14T09:15:59Z</time>
      </trkpt>
      <trkpt lat="44.79287" lon="0.45884">
        <ele>153</ele>
        <time>2025-07-14T09:16:00Z</time>
      </trkpt>
      <trkpt lat="44.79284" lon="0.45882">
        <ele>153</ele>
        <time>2025-07-14T09:16:01Z</time>
      </trkpt>
      <trkpt lat="44.79281" lon="0.45879">
        <ele>153</ele>
        <time>2025-07-14T09:16:02Z</time>
      </trkpt>
      <trkpt lat="44.79278" lon="0.45876">
        <ele>153</ele>
        <time>2025-07-14T09:16:03Z</time>
      </trkpt>
      <trkpt lat="44.79277" lon="0.45873">
        <ele>153</ele>
        <time>2025-07-14T09:16:04Z</time>
      </trkpt>
      <trkpt lat="44.79275" lon="0.4587">
        <ele>153</ele>
        <time>2025-07-14T09:16:05Z</time>
      </trkpt>
      <trkpt lat="44.79274" lon="0.45867">
        <ele>153.2</ele>
        <time>2025-07-14T09:16:06Z</time>
      </trkpt>
      <trkpt lat="44.79273" lon="0.45864">
        <ele>153.4</ele>
        <time>2025-07-14T09:16:07Z</time>
      </trkpt>
      <trkpt lat="44.79272" lon="0.45861">
        <ele>153.6</ele>
        <time>2025-07-14T09:16:08Z</time>
      </trkpt>
      <trkpt lat="44.7927" lon="0.45858">
        <ele>154</ele>
        <time>2025-07-14T09:16:09Z</time>
      </trkpt>
      <trkpt lat="44.79269" lon="0.45855">
        <ele>154.2</ele>
        <time>2025-07-14T09:16:10Z</time>
      </trkpt>
      <trkpt lat="44.79268" lon="0.45853">
        <ele>154.6</ele>
        <time>2025-07-14T09:16:11Z</time>
      </trkpt>
      <trkpt lat="44.79267" lon="0.45851">
        <ele>154.8</ele>
        <time>2025-07-14T09:16:12Z</time>
      </trkpt>
      <trkpt lat="44.79266" lon="0.4585">
        <ele>155</ele>
        <time>2025-07-14T09:16:13Z</time>
      </trkpt>
      <trkpt lat="44.79264" lon="0.45849">
        <ele>155.2</ele>
        <time>2025-07-14T09:16:14Z</time>
      </trkpt>
      <trkpt lat="44.79263" lon="0.45847">
        <ele>155.2</ele>
        <time>2025-07-14T09:16:15Z</time>
      </trkpt>
      <trkpt lat="44.79262" lon="0.45845">
        <ele>155.2</ele>
        <time>2025-07-14T09:16:16Z</time>
      </trkpt>
      <trkpt lat="44.79261" lon="0.45842">
        <ele>155.4</ele>
        <time>2025-07-14T09:16:17Z</time>
      </trkpt>
      <trkpt lat="44.7926" lon="0.45839">
        <ele>155.4</ele>
        <time>2025-07-14T09:16:18Z</time>
      </trkpt>
      <trkpt lat="44.79259" lon="0.45836">
        <ele>155.2</ele>
        <time>2025-07-14T09:16:19Z</time>
      </trkpt>
      <trkpt lat="44.79258" lon="0.45832">
        <ele>155.2</ele>
        <time>2025-07-14T09:16:20Z</time>
      </trkpt>
      <trkpt lat="44.79257" lon="0.4583">
        <ele>155.4</ele>
        <time>2025-07-14T09:16:21Z</time>
      </trkpt>
      <trkpt lat="44.79254" lon="0.45828">
        <ele>155.4</ele>
        <time>2025-07-14T09:16:22Z</time>
      </trkpt>
      <trkpt lat="44.79251" lon="0.45826">
        <ele>155.4</ele>
        <time>2025-07-14T09:16:23Z</time>
      </trkpt>
      <trkpt lat="44.79247" lon="0.45825">
        <ele>155.4</ele>
        <time>2025-07-14T09:16:24Z</time>
      </trkpt>
      <trkpt lat="44.79242" lon="0.45825">
        <ele>155.2</ele>
        <time>2025-07-14T09:16:25Z</time>
      </trkpt>
      <trkpt lat="44.79237" lon="0.45823">
        <ele>155</ele>
        <time>2025-07-14T09:16:26Z</time>
      </trkpt>
      <trkpt lat="44.79231" lon="0.45821">
        <ele>154.8</ele>
        <time>2025-07-14T09:16:27Z</time>
      </trkpt>
      <trkpt lat="44.79225" lon="0.45819">
        <ele>154.4</ele>
        <time>2025-07-14T09:16:28Z</time>
      </trkpt>
      <trkpt lat="44.7922" lon="0.45818">
        <ele>154.2</ele>
        <time>2025-07-14T09:16:29Z</time>
      </trkpt>
      <trkpt lat="44.79216" lon="0.45814">
        <ele>153.8</ele>
        <time>2025-07-14T09:16:30Z</time>
      </trkpt>
      <trkpt lat="44.79213" lon="0.4581">
        <ele>153.2</ele>
        <time>2025-07-14T09:16:31Z</time>
      </trkpt>
      <trkpt lat="44.79209" lon="0.45809">
        <ele>152.6</ele>
        <time>2025-07-14T09:16:32Z</time>
      </trkpt>
      <trkpt lat="44.79205" lon="0.45809">
        <ele>152</ele>
        <time>2025-07-14T09:16:33Z</time>
      </trkpt>
      <trkpt lat="44.79202" lon="0.45807">
        <ele>151.6</ele>
        <time>2025-07-14T09:16:34Z</time>
      </trkpt>
      <trkpt lat="44.792" lon="0.45804">
        <ele>151</ele>
        <time>2025-07-14T09:16:35Z</time>
      </trkpt>
      <trkpt lat="44.79198" lon="0.458">
        <ele>150.6</ele>
        <time>2025-07-14T09:16:36Z</time>
      </trkpt>
      <trkpt lat="44.79195" lon="0.45798">
        <ele>150.4</ele>
        <time>2025-07-14T09:16:37Z</time>
      </trkpt>
      <trkpt lat="44.7919" lon="0.45797">
        <ele>150</ele>
        <time>2025-07-14T09:16:38Z</time>
      </trkpt>
      <trkpt lat="44.79186" lon="0.45794">
        <ele>149.6</ele>
        <time>2025-07-14T09:16:39Z</time>
      </trkpt>
      <trkpt lat="44.79182" lon="0.45793">
        <ele>149.6</ele>
        <time>2025-07-14T09:16:40Z</time>
      </trkpt>
      <trkpt lat="44.79179" lon="0.45795">
        <ele>149.2</ele>
        <time>2025-07-14T09:16:41Z</time>
      </trkpt>
      <trkpt lat="44.79177" lon="0.458">
        <ele>148.8</ele>
        <time>2025-07-14T09:16:42Z</time>
      </trkpt>
      <trkpt lat="44.79175" lon="0.45805">
        <ele>148.6</ele>
        <time>2025-07-14T09:16:43Z</time>
      </trkpt>
      <trkpt lat="44.79173" lon="0.45811">
        <ele>148.2</ele>
        <time>2025-07-14T09:16:44Z</time>
      </trkpt>
      <trkpt lat="44.79171" lon="0.45817">
        <ele>147.6</ele>
        <time>2025-07-14T09:16:45Z</time>
      </trkpt>
      <trkpt lat="44.79168" lon="0.45825">
        <ele>147.2</ele>
        <time>2025-07-14T09:16:46Z</time>
      </trkpt>
      <trkpt lat="44.79165" lon="0.45831">
        <ele>146.8</ele>
        <time>2025-07-14T09:16:47Z</time>
      </trkpt>
      <trkpt lat="44.7916" lon="0.45834">
        <ele>146.2</ele>
        <time>2025-07-14T09:16:48Z</time>
      </trkpt>
      <trkpt lat="44.79155" lon="0.45834">
        <ele>145.6</ele>
        <time>2025-07-14T09:16:49Z</time>
      </trkpt>
      <trkpt lat="44.79151" lon="0.45832">
        <ele>144.8</ele>
        <time>2025-07-14T09:16:50Z</time>
      </trkpt>
      <trkpt lat="44.79146" lon="0.45829">
        <ele>144.4</ele>
        <time>2025-07-14T09:16:51Z</time>
      </trkpt>
      <trkpt lat="44.79141" lon="0.45826">
        <ele>144</ele>
        <time>2025-07-14T09:16:52Z</time>
      </trkpt>
      <trkpt lat="44.79136" lon="0.45823">
        <ele>143.8</ele>
        <time>2025-07-14T09:16:53Z</time>
      </trkpt>
      <trkpt lat="44.79131" lon="0.4582">
        <ele>143.4</ele>
        <time>2025-07-14T09:16:54Z</time>
      </trkpt>
      <trkpt lat="44.79126" lon="0.45818">
        <ele>143.2</ele>
        <time>2025-07-14T09:16:55Z</time>
      </trkpt>
      <trkpt lat="44.79121" lon="0.45816">
        <ele>142.8</ele>
        <time>2025-07-14T09:16:56Z</time>
      </trkpt>
      <trkpt lat="44.79116" lon="0.45814">
        <ele>142.4</ele>
        <time>2025-07-14T09:16:57Z</time>
      </trkpt>
      <trkpt lat="44.79112" lon="0.45811">
        <ele>142.2</ele>
        <time>2025-07-14T09:16:58Z</time>
      </trkpt>
      <trkpt lat="44.79107" lon="0.45809">
        <ele>142</ele>
        <time>2025-07-14T09:16:59Z</time>
      </trkpt>
      <trkpt lat="44.79103" lon="0.45807">
        <ele>141.8</ele>
        <time>2025-07-14T09:17:00Z</time>
      </trkpt>
      <trkpt lat="44.79099" lon="0.45804">
        <ele>141.6</ele>
        <time>2025-07-14T09:17:01Z</time>
      </trkpt>
      <trkpt lat="44.79097" lon="0.458">
        <ele>141.8</ele>
        <time>2025-07-14T09:17:02Z</time>
      </trkpt>
      <trkpt lat="44.79096" lon="0.45795">
        <ele>141.6</ele>
        <time>2025-07-14T09:17:03Z</time>
      </trkpt>
      <trkpt lat="44.79097" lon="0.45791">
        <ele>141.6</ele>
        <time>2025-07-14T09:17:04Z</time>
      </trkpt>
      <trkpt lat="44.79098" lon="0.45788">
        <ele>141.6</ele>
        <time>2025-07-14T09:17:05Z</time>
      </trkpt>
      <trkpt lat="44.79099" lon="0.45785">
        <ele>141.8</ele>
        <time>2025-07-14T09:17:06Z</time>
      </trkpt>
      <trkpt lat="44.791" lon="0.45782">
        <ele>141.8</ele>
        <time>2025-07-14T09:17:07Z</time>
      </trkpt>
      <trkpt lat="44.79101" lon="0.4578">
        <ele>142</ele>
        <time>2025-07-14T09:17:08Z</time>
      </trkpt>
      <trkpt lat="44.79102" lon="0.45777">
        <ele>142.2</ele>
        <time>2025-07-14T09:17:09Z</time>
      </trkpt>
      <trkpt lat="44.79103" lon="0.45774">
        <ele>142.4</ele>
        <time>2025-07-14T09:17:10Z</time>
      </trkpt>
      <trkpt lat="44.79105" lon="0.45771">
        <ele>142.6</ele>
        <time>2025-07-14T09:17:11Z</time>
      </trkpt>
      <trkpt lat="44.79106" lon="0.45768">
        <ele>142.6</ele>
        <time>2025-07-14T09:17:12Z</time>
      </trkpt>
      <trkpt lat="44.79107" lon="0.45765">
        <ele>143</ele>
        <time>2025-07-14T09:17:13Z</time>
      </trkpt>
      <trkpt lat="44.79108" lon="0.45763">
        <ele>143</ele>
        <time>2025-07-14T09:17:14Z</time>
      </trkpt>
      <trkpt lat="44.79109" lon="0.4576">
        <ele>143.2</ele>
        <time>2025-07-14T09:17:15Z</time>
      </trkpt>
      <trkpt lat="44.79109" lon="0.45756">
        <ele>143.4</ele>
        <time>2025-07-14T09:17:16Z</time>
      </trkpt>
      <trkpt lat="44.79108" lon="0.45753">
        <ele>143.6</ele>
        <time>2025-07-14T09:17:17Z</time>
      </trkpt>
      <trkpt lat="44.79106" lon="0.4575">
        <ele>143.6</ele>
        <time>2025-07-14T09:17:18Z</time>
      </trkpt>
      <trkpt lat="44.79103" lon="0.45748">
        <ele>143.8</ele>
        <time>2025-07-14T09:17:19Z</time>
      </trkpt>
      <trkpt lat="44.791" lon="0.45746">
        <ele>143.8</ele>
        <time>2025-07-14T09:17:20Z</time>
      </trkpt>
      <trkpt lat="44.79097" lon="0.45743">
        <ele>143.8</ele>
        <time>2025-07-14T09:17:21Z</time>
      </trkpt>
      <trkpt lat="44.79092" lon="0.4574">
        <ele>143.6</ele>
        <time>2025-07-14T09:17:22Z</time>
      </trkpt>
      <trkpt lat="44.79087" lon="0.45737">
        <ele>143.6</ele>
        <time>2025-07-14T09:17:23Z</time>
      </trkpt>
      <trkpt lat="44.79082" lon="0.45733">
        <ele>143.4</ele>
        <time>2025-07-14T09:17:24Z</time>
      </trkpt>
      <trkpt lat="44.79076" lon="0.45729">
        <ele>143.2</ele>
        <time>2025-07-14T09:17:25Z</time>
      </trkpt>
      <trkpt lat="44.79071" lon="0.45725">
        <ele>143</ele>
        <time>2025-07-14T09:17:26Z</time>
      </trkpt>
      <trkpt lat="44.79064" lon="0.45722">
        <ele>142.8</ele>
        <time>2025-07-14T09:17:27Z</time>
      </trkpt>
      <trkpt lat="44.79058" lon="0.45719">
        <ele>142.4</ele>
        <time>2025-07-14T09:17:28Z</time>
      </trkpt>
      <trkpt lat="44.79051" lon="0.45716">
        <ele>142</ele>
        <time>2025-07-14T09:17:29Z</time>
      </trkpt>
      <trkpt lat="44.79045" lon="0.45714">
        <ele>141.6</ele>
        <time>2025-07-14T09:17:30Z</time>
      </trkpt>
      <trkpt lat="44.79038" lon="0.45713">
        <ele>141.2</ele>
        <time>2025-07-14T09:17:31Z</time>
      </trkpt>
      <trkpt lat="44.79031" lon="0.45713">
        <ele>140.8</ele>
        <time>2025-07-14T09:17:32Z</time>
      </trkpt>
      <trkpt lat="44.79026" lon="0.45713">
        <ele>140.4</ele>
        <time>2025-07-14T09:17:33Z</time>
      </trkpt>
      <trkpt lat="44.79022" lon="0.45712">
        <ele>140</ele>
        <time>2025-07-14T09:17:34Z</time>
      </trkpt>
      <trkpt lat="44.79019" lon="0.4571">
        <ele>139.6</ele>
        <time>2025-07-14T09:17:35Z</time>
      </trkpt>
      <trkpt lat="44.79017" lon="0.45707">
        <ele>139.6</ele>
        <time>2025-07-14T09:17:36Z</time>
      </trkpt>
      <trkpt lat="44.79018" lon="0.45703">
        <ele>139.4</ele>
        <time>2025-07-14T09:17:37Z</time>
      </trkpt>
      <trkpt lat="44.79019" lon="0.457">
        <ele>139.4</ele>
        <time>2025-07-14T09:17:38Z</time>
      </trkpt>
      <trkpt lat="44.79021" lon="0.45696">
        <ele>139.6</ele>
        <time>2025-07-14T09:17:39Z</time>
      </trkpt>
      <trkpt lat="44.79023" lon="0.45692">
        <ele>139.6</ele>
        <time>2025-07-14T09:17:40Z</time>
      </trkpt>
      <trkpt lat="44.79025" lon="0.45689">
        <ele>139.8</ele>
        <time>2025-07-14T09:17:41Z</time>
      </trkpt>
      <trkpt lat="44.79028" lon="0.45685">
        <ele>139.8</ele>
        <time>2025-07-14T09:17:42Z</time>
      </trkpt>
      <trkpt lat="44.79029" lon="0.4568">
        <ele>140</ele>
        <time>2025-07-14T09:17:43Z</time>
      </trkpt>
      <trkpt lat="44.79029" lon="0.45675">
        <ele>140.2</ele>
        <time>2025-07-14T09:17:44Z</time>
      </trkpt>
      <trkpt lat="44.79027" lon="0.45671">
        <ele>140.4</ele>
        <time>2025-07-14T09:17:45Z</time>
      </trkpt>
      <trkpt lat="44.79024" lon="0.45669">
        <ele>140.8</ele>
        <time>2025-07-14T09:17:46Z</time>
      </trkpt>
      <trkpt lat="44.7902" lon="0.45668">
        <ele>141</ele>
        <time>2025-07-14T09:17:47Z</time>
      </trkpt>
      <trkpt lat="44.79016" lon="0.45666">
        <ele>141.2</ele>
        <time>2025-07-14T09:17:48Z</time>
      </trkpt>
      <trkpt lat="44.79012" lon="0.45664">
        <ele>141.4</ele>
        <time>2025-07-14T09:17:49Z</time>
      </trkpt>
      <trkpt lat="44.79007" lon="0.45662">
        <ele>141.4</ele>
        <time>2025-07-14T09:17:50Z</time>
      </trkpt>
      <trkpt lat="44.79001" lon="0.45661">
        <ele>141.2</ele>
        <time>2025-07-14T09:17:51Z</time>
      </trkpt>
      <trkpt lat="44.78996" lon="0.45659">
        <ele>141</ele>
        <time>2025-07-14T09:17:52Z</time>
      </trkpt>
      <trkpt lat="44.7899" lon="0.45656">
        <ele>140.8</ele>
        <time>2025-07-14T09:17:53Z</time>
      </trkpt>
      <trkpt lat="44.78984" lon="0.45652">
        <ele>140.4</ele>
        <time>2025-07-14T09:17:54Z</time>
      </trkpt>
      <trkpt lat="44.78978" lon="0.45648">
        <ele>139.8</ele>
        <time>2025-07-14T09:17:55Z</time>
      </trkpt>
      <trkpt lat="44.78975" lon="0.45643">
        <ele>139.6</ele>
        <time>2025-07-14T09:17:56Z</time>
      </trkpt>
      <trkpt lat="44.78974" lon="0.45637">
        <ele>139.2</ele>
        <time>2025-07-14T09:17:57Z</time>
      </trkpt>
      <trkpt lat="44.78974" lon="0.4563">
        <ele>139</ele>
        <time>2025-07-14T09:17:58Z</time>
      </trkpt>
      <trkpt lat="44.78973" lon="0.45623">
        <ele>139</ele>
        <time>2025-07-14T09:17:59Z</time>
      </trkpt>
      <trkpt lat="44.78969" lon="0.45618">
        <ele>139</ele>
        <time>2025-07-14T09:18:00Z</time>
      </trkpt>
      <trkpt lat="44.78964" lon="0.45613">
        <ele>138.6</ele>
        <time>2025-07-14T09:18:01Z</time>
      </trkpt>
      <trkpt lat="44.78959" lon="0.45609">
        <ele>138.4</ele>
        <time>2025-07-14T09:18:02Z</time>
      </trkpt>
      <trkpt lat="44.78953" lon="0.45606">
        <ele>138</ele>
        <time>2025-07-14T09:18:03Z</time>
      </trkpt>
      <trkpt lat="44.78947" lon="0.45601">
        <ele>137.4</ele>
        <time>2025-07-14T09:18:04Z</time>
      </trkpt>
      <trkpt lat="44.7894" lon="0.45596">
        <ele>137</ele>
        <time>2025-07-14T09:18:05Z</time>
      </trkpt>
      <trkpt lat="44.78933" lon="0.4559">
        <ele>136.4</ele>
        <time>2025-07-14T09:18:06Z</time>
      </trkpt>
      <trkpt lat="44.78927" lon="0.45585">
        <ele>135.6</ele>
        <time>2025-07-14T09:18:07Z</time>
      </trkpt>
      <trkpt lat="44.78922" lon="0.4558">
        <ele>134.6</ele>
        <time>2025-07-14T09:18:08Z</time>
      </trkpt>
      <trkpt lat="44.78919" lon="0.45573">
        <ele>133.6</ele>
        <time>2025-07-14T09:18:09Z</time>
      </trkpt>
      <trkpt lat="44.7892" lon="0.45567">
        <ele>133</ele>
        <time>2025-07-14T09:18:10Z</time>
      </trkpt>
      <trkpt lat="44.78922" lon="0.45562">
        <ele>132.4</ele>
        <time>2025-07-14T09:18:11Z</time>
      </trkpt>
      <trkpt lat="44.78925" lon="0.45558">
        <ele>132</ele>
        <time>2025-07-14T09:18:12Z</time>
      </trkpt>
      <trkpt lat="44.78927" lon="0.45555">
        <ele>131.6</ele>
        <time>2025-07-14T09:18:13Z</time>
      </trkpt>
      <trkpt lat="44.7893" lon="0.45551">
        <ele>131.4</ele>
        <time>2025-07-14T09:18:14Z</time>
      </trkpt>
      <trkpt lat="44.78933" lon="0.45547">
        <ele>131.4</ele>
        <time>2025-07-14T09:18:15Z</time>
      </trkpt>
      <trkpt lat="44.78935" lon="0.45543">
        <ele>131.4</ele>
        <time>2025-07-14T09:18:16Z</time>
      </trkpt>
      <trkpt lat="44.78935" lon="0.45537">
        <ele>131.4</ele>
        <time>2025-07-14T09:18:17Z</time>
      </trkpt>
      <trkpt lat="44.78934" lon="0.45532">
        <ele>131.4</ele>
        <time>2025-07-14T09:18:18Z</time>
      </trkpt>
      <trkpt lat="44.78931" lon="0.45528">
        <ele>131.6</ele>
        <time>2025-07-14T09:18:19Z</time>
      </trkpt>
      <trkpt lat="44.78928" lon="0.45524">
        <ele>131.6</ele>
        <time>2025-07-14T09:18:20Z</time>
      </trkpt>
      <trkpt lat="44.78926" lon="0.4552">
        <ele>131.6</ele>
        <time>2025-07-14T09:18:21Z</time>
      </trkpt>
      <trkpt lat="44.78923" lon="0.45516">
        <ele>131.6</ele>
        <time>2025-07-14T09:18:22Z</time>
      </trkpt>
      <trkpt lat="44.7892" lon="0.45512">
        <ele>131.4</ele>
        <time>2025-07-14T09:18:23Z</time>
      </trkpt>
      <trkpt lat="44.78917" lon="0.45508">
        <ele>131.4</ele>
        <time>2025-07-14T09:18:24Z</time>
      </trkpt>
      <trkpt lat="44.78914" lon="0.45504">
        <ele>131.4</ele>
        <time>2025-07-14T09:18:25Z</time>
      </trkpt>
      <trkpt lat="44.78912" lon="0.45501">
        <ele>131.2</ele>
        <time>2025-07-14T09:18:26Z</time>
      </trkpt>
      <trkpt lat="44.78909" lon="0.45497">
        <ele>131.2</ele>
        <time>2025-07-14T09:18:27Z</time>
      </trkpt>
      <trkpt lat="44.78907" lon="0.45494">
        <ele>131.4</ele>
        <time>2025-07-14T09:18:28Z</time>
      </trkpt>
      <trkpt lat="44.78905" lon="0.45491">
        <ele>131.4</ele>
        <time>2025-07-14T09:18:29Z</time>
      </trkpt>
      <trkpt lat="44.78903" lon="0.45489">
        <ele>131.6</ele>
        <time>2025-07-14T09:18:30Z</time>
      </trkpt>
      <trkpt lat="44.78901" lon="0.45486">
        <ele>132</ele>
        <time>2025-07-14T09:18:31Z</time>
      </trkpt>
      <trkpt lat="44.78899" lon="0.45484">
        <ele>132.2</ele>
        <time>2025-07-14T09:18:32Z</time>
      </trkpt>
      <trkpt lat="44.78898" lon="0.45482">
        <ele>132.6</ele>
        <time>2025-07-14T09:18:33Z</time>
      </trkpt>
      <trkpt lat="44.78896" lon="0.4548">
        <ele>132.8</ele>
        <time>2025-07-14T09:18:34Z</time>
      </trkpt>
      <trkpt lat="44.78895" lon="0.45478">
        <ele>133.2</ele>
        <time>2025-07-14T09:18:35Z</time>
      </trkpt>
      <trkpt lat="44.78894" lon="0.45476">
        <ele>133.6</ele>
        <time>2025-07-14T09:18:36Z</time>
      </trkpt>
      <trkpt lat="44.78892" lon="0.45474">
        <ele>134</ele>
        <time>2025-07-14T09:18:37Z</time>
      </trkpt>
      <trkpt lat="44.7889" lon="0.45472">
        <ele>134.2</ele>
        <time>2025-07-14T09:18:38Z</time>
      </trkpt>
      <trkpt lat="44.78888" lon="0.45469">
        <ele>134.6</ele>
        <time>2025-07-14T09:18:39Z</time>
      </trkpt>
      <trkpt lat="44.78887" lon="0.45467">
        <ele>134.8</ele>
        <time>2025-07-14T09:18:40Z</time>
      </trkpt>
      <trkpt lat="44.78885" lon="0.45464">
        <ele>135</ele>
        <time>2025-07-14T09:18:41Z</time>
      </trkpt>
      <trkpt lat="44.78883" lon="0.45462">
        <ele>135.2</ele>
        <time>2025-07-14T09:18:42Z</time>
      </trkpt>
      <trkpt lat="44.78881" lon="0.4546">
        <ele>135.4</ele>
        <time>2025-07-14T09:18:43Z</time>
      </trkpt>
      <trkpt lat="44.78879" lon="0.45457">
        <ele>135.6</ele>
        <time>2025-07-14T09:18:44Z</time>
      </trkpt>
      <trkpt lat="44.78877" lon="0.45455">
        <ele>135.6</ele>
        <time>2025-07-14T09:18:45Z</time>
      </trkpt>
      <trkpt lat="44.78875" lon="0.45452">
        <ele>135.8</ele>
        <time>2025-07-14T09:18:46Z</time>
      </trkpt>
      <trkpt lat="44.78873" lon="0.4545">
        <ele>136</ele>
        <time>2025-07-14T09:18:47Z</time>
      </trkpt>
      <trkpt lat="44.78871" lon="0.45447">
        <ele>136.2</ele>
        <time>2025-07-14T09:18:48Z</time>
      </trkpt>
      <trkpt lat="44.78869" lon="0.45445">
        <ele>136.4</ele>
        <time>2025-07-14T09:18:49Z</time>
      </trkpt>
      <trkpt lat="44.78868" lon="0.45443">
        <ele>136.6</ele>
        <time>2025-07-14T09:18:50Z</time>
      </trkpt>
      <trkpt lat="44.78866" lon="0.4544">
        <ele>136.8</ele>
        <time>2025-07-14T09:18:51Z</time>
      </trkpt>
      <trkpt lat="44.78864" lon="0.45438">
        <ele>137</ele>
        <time>2025-07-14T09:18:52Z</time>
      </trkpt>
      <trkpt lat="44.78862" lon="0.45435">
        <ele>137.2</ele>
        <time>2025-07-14T09:18:53Z</time>
      </trkpt>
      <trkpt lat="44.78861" lon="0.45432">
        <ele>137.4</ele>
        <time>2025-07-14T09:18:54Z</time>
      </trkpt>
      <trkpt lat="44.7886" lon="0.45429">
        <ele>137.4</ele>
        <time>2025-07-14T09:18:55Z</time>
      </trkpt>
      <trkpt lat="44.7886" lon="0.45426">
        <ele>137.6</ele>
        <time>2025-07-14T09:18:56Z</time>
      </trkpt>
      <trkpt lat="44.7886" lon="0.45424">
        <ele>137.8</ele>
        <time>2025-07-14T09:18:57Z</time>
      </trkpt>
      <trkpt lat="44.7886" lon="0.45421">
        <ele>138</ele>
        <time>2025-07-14T09:18:58Z</time>
      </trkpt>
      <trkpt lat="44.78861" lon="0.45419">
        <ele>138.2</ele>
        <time>2025-07-14T09:18:59Z</time>
      </trkpt>
      <trkpt lat="44.78862" lon="0.45417">
        <ele>138.4</ele>
        <time>2025-07-14T09:19:00Z</time>
      </trkpt>
      <trkpt lat="44.78863" lon="0.45415">
        <ele>138.6</ele>
        <time>2025-07-14T09:19:01Z</time>
      </trkpt>
      <trkpt lat="44.78865" lon="0.45412">
        <ele>138.8</ele>
        <time>2025-07-14T09:19:02Z</time>
      </trkpt>
      <trkpt lat="44.78866" lon="0.4541">
        <ele>139.2</ele>
        <time>2025-07-14T09:19:03Z</time>
      </trkpt>
      <trkpt lat="44.78867" lon="0.45408">
        <ele>139.4</ele>
        <time>2025-07-14T09:19:04Z</time>
      </trkpt>
      <trkpt lat="44.78868" lon="0.45405">
        <ele>139.6</ele>
        <time>2025-07-14T09:19:05Z</time>
      </trkpt>
      <trkpt lat="44.78869" lon="0.45403">
        <ele>140</ele>
        <time>2025-07-14T09:19:06Z</time>
      </trkpt>
      <trkpt lat="44.78871" lon="0.454">
        <ele>140.2</ele>
        <time>2025-07-14T09:19:07Z</time>
      </trkpt>
      <trkpt lat="44.78872" lon="0.45398">
        <ele>140.4</ele>
        <time>2025-07-14T09:19:08Z</time>
      </trkpt>
      <trkpt lat="44.78874" lon="0.45395">
        <ele>140.6</ele>
        <time>2025-07-14T09:19:09Z</time>
      </trkpt>
      <trkpt lat="44.78874" lon="0.45392">
        <ele>140.8</ele>
        <time>2025-07-14T09:19:10Z</time>
      </trkpt>
      <trkpt lat="44.78874" lon="0.45389">
        <ele>141</ele>
        <time>2025-07-14T09:19:11Z</time>
      </trkpt>
      <trkpt lat="44.78873" lon="0.45385">
        <ele>141.2</ele>
        <time>2025-07-14T09:19:12Z</time>
      </trkpt>
      <trkpt lat="44.78871" lon="0.45383">
        <ele>141.2</ele>
        <time>2025-07-14T09:19:13Z</time>
      </trkpt>
      <trkpt lat="44.78868" lon="0.4538">
        <ele>141.4</ele>
        <time>2025-07-14T09:19:14Z</time>
      </trkpt>
      <trkpt lat="44.78865" lon="0.45376">
        <ele>141.4</ele>
        <time>2025-07-14T09:19:15Z</time>
      </trkpt>
      <trkpt lat="44.78862" lon="0.45372">
        <ele>141.2</ele>
        <time>2025-07-14T09:19:16Z</time>
      </trkpt>
      <trkpt lat="44.78857" lon="0.45367">
        <ele>141</ele>
        <time>2025-07-14T09:19:17Z</time>
      </trkpt>
      <trkpt lat="44.78852" lon="0.45362">
        <ele>140.6</ele>
        <time>2025-07-14T09:19:18Z</time>
      </trkpt>
      <trkpt lat="44.78847" lon="0.45356">
        <ele>140.4</ele>
        <time>2025-07-14T09:19:19Z</time>
      </trkpt>
      <trkpt lat="44.78843" lon="0.45349">
        <ele>140</ele>
        <time>2025-07-14T09:19:20Z</time>
      </trkpt>
      <trkpt lat="44.78838" lon="0.45343">
        <ele>139.6</ele>
        <time>2025-07-14T09:19:21Z</time>
      </trkpt>
      <trkpt lat="44.78833" lon="0.45336">
        <ele>139</ele>
        <time>2025-07-14T09:19:22Z</time>
      </trkpt>
      <trkpt lat="44.78827" lon="0.4533">
        <ele>138.6</ele>
        <time>2025-07-14T09:19:23Z</time>
      </trkpt>
      <trkpt lat="44.78822" lon="0.45325">
        <ele>138.2</ele>
        <time>2025-07-14T09:19:24Z</time>
      </trkpt>
      <trkpt lat="44.78816" lon="0.45322">
        <ele>137.8</ele>
        <time>2025-07-14T09:19:25Z</time>
      </trkpt>
      <trkpt lat="44.7881" lon="0.45321">
        <ele>137.6</ele>
        <time>2025-07-14T09:19:26Z</time>
      </trkpt>
      <trkpt lat="44.78804" lon="0.45321">
        <ele>137.6</ele>
        <time>2025-07-14T09:19:27Z</time>
      </trkpt>
      <trkpt lat="44.78798" lon="0.4532">
        <ele>137.4</ele>
        <time>2025-07-14T09:19:28Z</time>
      </trkpt>
      <trkpt lat="44.78794" lon="0.45318">
        <ele>137.6</ele>
        <time>2025-07-14T09:19:29Z</time>
      </trkpt>
      <trkpt lat="44.78789" lon="0.45316">
        <ele>137.6</ele>
        <time>2025-07-14T09:19:30Z</time>
      </trkpt>
      <trkpt lat="44.78784" lon="0.45315">
        <ele>137.6</ele>
        <time>2025-07-14T09:19:31Z</time>
      </trkpt>
      <trkpt lat="44.78779" lon="0.45313">
        <ele>137.8</ele>
        <time>2025-07-14T09:19:32Z</time>
      </trkpt>
      <trkpt lat="44.78775" lon="0.45311">
        <ele>137.8</ele>
        <time>2025-07-14T09:19:33Z</time>
      </trkpt>
      <trkpt lat="44.7877" lon="0.4531">
        <ele>138</ele>
        <time>2025-07-14T09:19:34Z</time>
      </trkpt>
      <trkpt lat="44.78766" lon="0.45309">
        <ele>138</ele>
        <time>2025-07-14T09:19:35Z</time>
      </trkpt>
      <trkpt lat="44.78762" lon="0.45308">
        <ele>138</ele>
        <time>2025-07-14T09:19:36Z</time>
      </trkpt>
      <trkpt lat="44.78758" lon="0.45306">
        <ele>138.4</ele>
        <time>2025-07-14T09:19:37Z</time>
      </trkpt>
      <trkpt lat="44.78754" lon="0.45304">
        <ele>138.4</ele>
        <time>2025-07-14T09:19:38Z</time>
      </trkpt>
      <trkpt lat="44.78751" lon="0.45301">
        <ele>138.4</ele>
        <time>2025-07-14T09:19:39Z</time>
      </trkpt>
      <trkpt lat="44.78747" lon="0.45299">
        <ele>138.6</ele>
        <time>2025-07-14T09:19:40Z</time>
      </trkpt>
      <trkpt lat="44.78743" lon="0.45296">
        <ele>138.8</ele>
        <time>2025-07-14T09:19:41Z</time>
      </trkpt>
      <trkpt lat="44.78739" lon="0.45294">
        <ele>138.8</ele>
        <time>2025-07-14T09:19:42Z</time>
      </trkpt>
      <trkpt lat="44.78735" lon="0.45292">
        <ele>139</ele>
        <time>2025-07-14T09:19:43Z</time>
      </trkpt>
      <trkpt lat="44.78731" lon="0.45289">
        <ele>139</ele>
        <time>2025-07-14T09:19:44Z</time>
      </trkpt>
      <trkpt lat="44.78727" lon="0.45287">
        <ele>139</ele>
        <time>2025-07-14T09:19:45Z</time>
      </trkpt>
      <trkpt lat="44.78723" lon="0.45284">
        <ele>139</ele>
        <time>2025-07-14T09:19:46Z</time>
      </trkpt>
      <trkpt lat="44.78718" lon="0.45282">
        <ele>139</ele>
        <time>2025-07-14T09:19:47Z</time>
      </trkpt>
      <trkpt lat="44.78714" lon="0.45279">
        <ele>138.8</ele>
        <time>2025-07-14T09:19:48Z</time>
      </trkpt>
      <trkpt lat="44.7871" lon="0.45276">
        <ele>138.6</ele>
        <time>2025-07-14T09:19:49Z</time>
      </trkpt>
      <trkpt lat="44.78706" lon="0.45273">
        <ele>138.4</ele>
        <time>2025-07-14T09:19:50Z</time>
      </trkpt>
      <trkpt lat="44.78702" lon="0.45271">
        <ele>138.4</ele>
        <time>2025-07-14T09:19:51Z</time>
      </trkpt>
      <trkpt lat="44.78697" lon="0.45268">
        <ele>138.2</ele>
        <time>2025-07-14T09:19:52Z</time>
      </trkpt>
      <trkpt lat="44.78693" lon="0.45265">
        <ele>138.4</ele>
        <time>2025-07-14T09:19:53Z</time>
      </trkpt>
      <trkpt lat="44.78689" lon="0.45262">
        <ele>138.6</ele>
        <time>2025-07-14T09:19:54Z</time>
      </trkpt>
      <trkpt lat="44.78685" lon="0.4526">
        <ele>138.8</ele>
        <time>2025-07-14T09:19:55Z</time>
      </trkpt>
      <trkpt lat="44.78681" lon="0.45257">
        <ele>138.8</ele>
        <time>2025-07-14T09:19:56Z</time>
      </trkpt>
      <trkpt lat="44.78677" lon="0.45254">
        <ele>138.8</ele>
        <time>2025-07-14T09:19:57Z</time>
      </trkpt>
      <trkpt lat="44.78673" lon="0.45252">
        <ele>139</ele>
        <time>2025-07-14T09:19:58Z</time>
      </trkpt>
      <trkpt lat="44.78668" lon="0.45249">
        <ele>139</ele>
        <time>2025-07-14T09:19:59Z</time>
      </trkpt>
      <trkpt lat="44.78664" lon="0.45246">
        <ele>139</ele>
        <time>2025-07-14T09:20:00Z</time>
      </trkpt>
      <trkpt lat="44.78661" lon="0.45244">
        <ele>139</ele>
        <time>2025-07-14T09:20:01Z</time>
      </trkpt>
      <trkpt lat="44.78657" lon="0.45241">
        <ele>139.2</ele>
        <time>2025-07-14T09:20:02Z</time>
      </trkpt>
      <trkpt lat="44.78653" lon="0.45239">
        <ele>139.2</ele>
        <time>2025-07-14T09:20:03Z</time>
      </trkpt>
      <trkpt lat="44.7865" lon="0.45236">
        <ele>139.2</ele>
        <time>2025-07-14T09:20:04Z</time>
      </trkpt>
      <trkpt lat="44.78646" lon="0.45233">
        <ele>139.4</ele>
        <time>2025-07-14T09:20:05Z</time>
      </trkpt>
      <trkpt lat="44.78643" lon="0.4523">
        <ele>139.6</ele>
        <time>2025-07-14T09:20:06Z</time>
      </trkpt>
      <trkpt lat="44.7864" lon="0.45226">
        <ele>139.8</ele>
        <time>2025-07-14T09:20:07Z</time>
      </trkpt>
      <trkpt lat="44.78637" lon="0.45222">
        <ele>140</ele>
        <time>2025-07-14T09:20:08Z</time>
      </trkpt>
      <trkpt lat="44.78634" lon="0.45218">
        <ele>140</ele>
        <time>2025-07-14T09:20:09Z</time>
      </trkpt>
      <trkpt lat="44.78631" lon="0.45214">
        <ele>140.2</ele>
        <time>2025-07-14T09:20:10Z</time>
      </trkpt>
      <trkpt lat="44.78627" lon="0.45211">
        <ele>140.2</ele>
        <time>2025-07-14T09:20:11Z</time>
      </trkpt>
      <trkpt lat="44.78622" lon="0.45208">
        <ele>140</ele>
        <time>2025-07-14T09:20:12Z</time>
      </trkpt>
      <trkpt lat="44.78618" lon="0.45205">
        <ele>139.8</ele>
        <time>2025-07-14T09:20:13Z</time>
      </trkpt>
      <trkpt lat="44.78614" lon="0.45203">
        <ele>139.6</ele>
        <time>2025-07-14T09:20:14Z</time>
      </trkpt>
      <trkpt lat="44.78609" lon="0.452">
        <ele>139.4</ele>
        <time>2025-07-14T09:20:15Z</time>
      </trkpt>
      <trkpt lat="44.78605" lon="0.45197">
        <ele>139.6</ele>
        <time>2025-07-14T09:20:16Z</time>
      </trkpt>
      <trkpt lat="44.786" lon="0.45193">
        <ele>140</ele>
        <time>2025-07-14T09:20:17Z</time>
      </trkpt>
      <trkpt lat="44.78596" lon="0.45188">
        <ele>140</ele>
        <time>2025-07-14T09:20:18Z</time>
      </trkpt>
      <trkpt lat="44.78591" lon="0.45183">
        <ele>139.8</ele>
        <time>2025-07-14T09:20:19Z</time>
      </trkpt>
      <trkpt lat="44.78586" lon="0.4518">
        <ele>139.6</ele>
        <time>2025-07-14T09:20:20Z</time>
      </trkpt>
      <trkpt lat="44.7858" lon="0.45178">
        <ele>139.4</ele>
        <time>2025-07-14T09:20:21Z</time>
      </trkpt>
      <trkpt lat="44.78575" lon="0.45176">
        <ele>139.2</ele>
        <time>2025-07-14T09:20:22Z</time>
      </trkpt>
      <trkpt lat="44.78569" lon="0.45175">
        <ele>139</ele>
        <time>2025-07-14T09:20:23Z</time>
      </trkpt>
      <trkpt lat="44.78564" lon="0.45174">
        <ele>138.8</ele>
        <time>2025-07-14T09:20:24Z</time>
      </trkpt>
      <trkpt lat="44.78559" lon="0.45174">
        <ele>138.8</ele>
        <time>2025-07-14T09:20:25Z</time>
      </trkpt>
      <trkpt lat="44.78553" lon="0.45173">
        <ele>138.6</ele>
        <time>2025-07-14T09:20:26Z</time>
      </trkpt>
      <trkpt lat="44.78548" lon="0.45172">
        <ele>138.6</ele>
        <time>2025-07-14T09:20:27Z</time>
      </trkpt>
      <trkpt lat="44.78543" lon="0.45171">
        <ele>138.4</ele>
        <time>2025-07-14T09:20:28Z</time>
      </trkpt>
      <trkpt lat="44.78537" lon="0.45169">
        <ele>138.2</ele>
        <time>2025-07-14T09:20:29Z</time>
      </trkpt>
      <trkpt lat="44.78532" lon="0.45167">
        <ele>138</ele>
        <time>2025-07-14T09:20:30Z</time>
      </trkpt>
      <trkpt lat="44.78526" lon="0.45165">
        <ele>138</ele>
        <time>2025-07-14T09:20:31Z</time>
      </trkpt>
      <trkpt lat="44.78521" lon="0.45163">
        <ele>137.8</ele>
        <time>2025-07-14T09:20:32Z</time>
      </trkpt>
      <trkpt lat="44.78517" lon="0.45161">
        <ele>137.8</ele>
        <time>2025-07-14T09:20:33Z</time>
      </trkpt>
      <trkpt lat="44.78512" lon="0.45159">
        <ele>137.8</ele>
        <time>2025-07-14T09:20:34Z</time>
      </trkpt>
      <trkpt lat="44.78508" lon="0.45156">
        <ele>138</ele>
        <time>2025-07-14T09:20:35Z</time>
      </trkpt>
      <trkpt lat="44.78504" lon="0.45154">
        <ele>138</ele>
        <time>2025-07-14T09:20:36Z</time>
      </trkpt>
      <trkpt lat="44.785" lon="0.45152">
        <ele>138.2</ele>
        <time>2025-07-14T09:20:37Z</time>
      </trkpt>
      <trkpt lat="44.78496" lon="0.4515">
        <ele>138.2</ele>
        <time>2025-07-14T09:20:38Z</time>
      </trkpt>
      <trkpt lat="44.78493" lon="0.45148">
        <ele>138.4</ele>
        <time>2025-07-14T09:20:39Z</time>
      </trkpt>
      <trkpt lat="44.78489" lon="0.45146">
        <ele>138.6</ele>
        <time>2025-07-14T09:20:40Z</time>
      </trkpt>
      <trkpt lat="44.78485" lon="0.45145">
        <ele>138.6</ele>
        <time>2025-07-14T09:20:41Z</time>
      </trkpt>
      <trkpt lat="44.7848" lon="0.45144">
        <ele>138.8</ele>
        <time>2025-07-14T09:20:42Z</time>
      </trkpt>
      <trkpt lat="44.78475" lon="0.45143">
        <ele>138.8</ele>
        <time>2025-07-14T09:20:43Z</time>
      </trkpt>
      <trkpt lat="44.7847" lon="0.45144">
        <ele>138.8</ele>
        <time>2025-07-14T09:20:44Z</time>
      </trkpt>
      <trkpt lat="44.78466" lon="0.45146">
        <ele>138.6</ele>
        <time>2025-07-14T09:20:45Z</time>
      </trkpt>
      <trkpt lat="44.78461" lon="0.45147">
        <ele>138.6</ele>
        <time>2025-07-14T09:20:46Z</time>
      </trkpt>
      <trkpt lat="44.78456" lon="0.45149">
        <ele>138.4</ele>
        <time>2025-07-14T09:20:47Z</time>
      </trkpt>
      <trkpt lat="44.78451" lon="0.4515">
        <ele>138</ele>
        <time>2025-07-14T09:20:48Z</time>
      </trkpt>
      <trkpt lat="44.78446" lon="0.45152">
        <ele>137.8</ele>
        <time>2025-07-14T09:20:49Z</time>
      </trkpt>
      <trkpt lat="44.78441" lon="0.45153">
        <ele>137.8</ele>
        <time>2025-07-14T09:20:50Z</time>
      </trkpt>
      <trkpt lat="44.78437" lon="0.45155">
        <ele>137.8</ele>
        <time>2025-07-14T09:20:51Z</time>
      </trkpt>
      <trkpt lat="44.78432" lon="0.45156">
        <ele>137.6</ele>
        <time>2025-07-14T09:20:52Z</time>
      </trkpt>
      <trkpt lat="44.78428" lon="0.45157">
        <ele>137.6</ele>
        <time>2025-07-14T09:20:53Z</time>
      </trkpt>
      <trkpt lat="44.78424" lon="0.45159">
        <ele>137.8</ele>
        <time>2025-07-14T09:20:54Z</time>
      </trkpt>
      <trkpt lat="44.7842" lon="0.45161">
        <ele>137.8</ele>
        <time>2025-07-14T09:20:55Z</time>
      </trkpt>
      <trkpt lat="44.78417" lon="0.45162">
        <ele>138</ele>
        <time>2025-07-14T09:20:56Z</time>
      </trkpt>
      <trkpt lat="44.78413" lon="0.45163">
        <ele>138.2</ele>
        <time>2025-07-14T09:20:57Z</time>
      </trkpt>
      <trkpt lat="44.78409" lon="0.45164">
        <ele>138.4</ele>
        <time>2025-07-14T09:20:58Z</time>
      </trkpt>
      <trkpt lat="44.78406" lon="0.45164">
        <ele>138.6</ele>
        <time>2025-07-14T09:20:59Z</time>
      </trkpt>
      <trkpt lat="44.78403" lon="0.45165">
        <ele>138.6</ele>
        <time>2025-07-14T09:21:00Z</time>
      </trkpt>
      <trkpt lat="44.784" lon="0.45165">
        <ele>138.8</ele>
        <time>2025-07-14T09:21:01Z</time>
      </trkpt>
      <trkpt lat="44.78396" lon="0.45165">
        <ele>139</ele>
        <time>2025-07-14T09:21:02Z</time>
      </trkpt>
      <trkpt lat="44.78393" lon="0.45165">
        <ele>139.2</ele>
        <time>2025-07-14T09:21:03Z</time>
      </trkpt>
      <trkpt lat="44.7839" lon="0.45165">
        <ele>139.4</ele>
        <time>2025-07-14T09:21:04Z</time>
      </trkpt>
      <trkpt lat="44.78387" lon="0.45165">
        <ele>139.8</ele>
        <time>2025-07-14T09:21:05Z</time>
      </trkpt>
      <trkpt lat="44.78384" lon="0.45164">
        <ele>140</ele>
        <time>2025-07-14T09:21:06Z</time>
      </trkpt>
      <trkpt lat="44.78381" lon="0.45163">
        <ele>140.2</ele>
        <time>2025-07-14T09:21:07Z</time>
      </trkpt>
      <trkpt lat="44.78378" lon="0.45162">
        <ele>140.4</ele>
        <time>2025-07-14T09:21:08Z</time>
      </trkpt>
      <trkpt lat="44.78375" lon="0.45162">
        <ele>140.6</ele>
        <time>2025-07-14T09:21:09Z</time>
      </trkpt>
      <trkpt lat="44.78372" lon="0.4516">
        <ele>140.8</ele>
        <time>2025-07-14T09:21:10Z</time>
      </trkpt>
      <trkpt lat="44.7837" lon="0.45157">
        <ele>140.8</ele>
        <time>2025-07-14T09:21:11Z</time>
      </trkpt>
      <trkpt lat="44.78368" lon="0.45154">
        <ele>141</ele>
        <time>2025-07-14T09:21:12Z</time>
      </trkpt>
      <trkpt lat="44.78366" lon="0.45152">
        <ele>141.2</ele>
        <time>2025-07-14T09:21:13Z</time>
      </trkpt>
      <trkpt lat="44.78364" lon="0.45149">
        <ele>141.4</ele>
        <time>2025-07-14T09:21:14Z</time>
      </trkpt>
      <trkpt lat="44.78361" lon="0.45148">
        <ele>141.4</ele>
        <time>2025-07-14T09:21:15Z</time>
      </trkpt>
      <trkpt lat="44.78358" lon="0.45147">
        <ele>141.6</ele>
        <time>2025-07-14T09:21:16Z</time>
      </trkpt>
      <trkpt lat="44.78355" lon="0.45146">
        <ele>141.6</ele>
        <time>2025-07-14T09:21:17Z</time>
      </trkpt>
      <trkpt lat="44.78351" lon="0.45144">
        <ele>141.6</ele>
        <time>2025-07-14T09:21:18Z</time>
      </trkpt>
      <trkpt lat="44.78348" lon="0.45143">
        <ele>141.6</ele>
        <time>2025-07-14T09:21:19Z</time>
      </trkpt>
      <trkpt lat="44.78345" lon="0.45142">
        <ele>141.6</ele>
        <time>2025-07-14T09:21:20Z</time>
      </trkpt>
      <trkpt lat="44.78341" lon="0.4514">
        <ele>141.6</ele>
        <time>2025-07-14T09:21:21Z</time>
      </trkpt>
      <trkpt lat="44.78338" lon="0.45139">
        <ele>141.6</ele>
        <time>2025-07-14T09:21:22Z</time>
      </trkpt>
      <trkpt lat="44.78334" lon="0.45137">
        <ele>141.6</ele>
        <time>2025-07-14T09:21:23Z</time>
      </trkpt>
      <trkpt lat="44.7833" lon="0.45134">
        <ele>141.6</ele>
        <time>2025-07-14T09:21:24Z</time>
      </trkpt>
      <trkpt lat="44.78326" lon="0.45133">
        <ele>141.6</ele>
        <time>2025-07-14T09:21:25Z</time>
      </trkpt>
      <trkpt lat="44.78322" lon="0.45131">
        <ele>141.6</ele>
        <time>2025-07-14T09:21:26Z</time>
      </trkpt>
      <trkpt lat="44.78319" lon="0.45129">
        <ele>141.6</ele>
        <time>2025-07-14T09:21:27Z</time>
      </trkpt>
      <trkpt lat="44.78315" lon="0.45128">
        <ele>141.4</ele>
        <time>2025-07-14T09:21:28Z</time>
      </trkpt>
      <trkpt lat="44.78311" lon="0.45126">
        <ele>141.4</ele>
        <time>2025-07-14T09:21:29Z</time>
      </trkpt>
      <trkpt lat="44.78307" lon="0.45124">
        <ele>141.4</ele>
        <time>2025-07-14T09:21:30Z</time>
      </trkpt>
      <trkpt lat="44.78304" lon="0.45123">
        <ele>141.4</ele>
        <time>2025-07-14T09:21:31Z</time>
      </trkpt>
      <trkpt lat="44.783" lon="0.45121">
        <ele>141.2</ele>
        <time>2025-07-14T09:21:32Z</time>
      </trkpt>
      <trkpt lat="44.78296" lon="0.45119">
        <ele>141.2</ele>
        <time>2025-07-14T09:21:33Z</time>
      </trkpt>
      <trkpt lat="44.78292" lon="0.45117">
        <ele>141.2</ele>
        <time>2025-07-14T09:21:34Z</time>
      </trkpt>
      <trkpt lat="44.78288" lon="0.45115">
        <ele>141.2</ele>
        <time>2025-07-14T09:21:35Z</time>
      </trkpt>
      <trkpt lat="44.78284" lon="0.45114">
        <ele>141.2</ele>
        <time>2025-07-14T09:21:36Z</time>
      </trkpt>
      <trkpt lat="44.7828" lon="0.45112">
        <ele>141.2</ele>
        <time>2025-07-14T09:21:37Z</time>
      </trkpt>
      <trkpt lat="44.78276" lon="0.45111">
        <ele>141.4</ele>
        <time>2025-07-14T09:21:38Z</time>
      </trkpt>
      <trkpt lat="44.78273" lon="0.45109">
        <ele>141.4</ele>
        <time>2025-07-14T09:21:39Z</time>
      </trkpt>
      <trkpt lat="44.78269" lon="0.45107">
        <ele>141.4</ele>
        <time>2025-07-14T09:21:40Z</time>
      </trkpt>
      <trkpt lat="44.78268" lon="0.45103">
        <ele>141.4</ele>
        <time>2025-07-14T09:21:41Z</time>
      </trkpt>
      <trkpt lat="44.78268" lon="0.451">
        <ele>141.4</ele>
        <time>2025-07-14T09:21:42Z</time>
      </trkpt>
      <trkpt lat="44.78269" lon="0.45096">
        <ele>141.6</ele>
        <time>2025-07-14T09:21:43Z</time>
      </trkpt>
      <trkpt lat="44.7827" lon="0.45092">
        <ele>141.8</ele>
        <time>2025-07-14T09:21:44Z</time>
      </trkpt>
      <trkpt lat="44.78271" lon="0.45089">
        <ele>142</ele>
        <time>2025-07-14T09:21:45Z</time>
      </trkpt>
      <trkpt lat="44.78272" lon="0.45085">
        <ele>142.2</ele>
        <time>2025-07-14T09:21:46Z</time>
      </trkpt>
      <trkpt lat="44.78273" lon="0.45082">
        <ele>142.2</ele>
        <time>2025-07-14T09:21:47Z</time>
      </trkpt>
      <trkpt lat="44.78274" lon="0.45079">
        <ele>142.4</ele>
        <time>2025-07-14T09:21:48Z</time>
      </trkpt>
      <trkpt lat="44.78274" lon="0.45075">
        <ele>142.6</ele>
        <time>2025-07-14T09:21:49Z</time>
      </trkpt>
      <trkpt lat="44.78275" lon="0.45072">
        <ele>142.8</ele>
        <time>2025-07-14T09:21:50Z</time>
      </trkpt>
      <trkpt lat="44.78276" lon="0.45068">
        <ele>143</ele>
        <time>2025-07-14T09:21:51Z</time>
      </trkpt>
      <trkpt lat="44.78277" lon="0.45065">
        <ele>143.2</ele>
        <time>2025-07-14T09:21:52Z</time>
      </trkpt>
      <trkpt lat="44.78278" lon="0.45061">
        <ele>143.2</ele>
        <time>2025-07-14T09:21:53Z</time>
      </trkpt>
      <trkpt lat="44.78279" lon="0.45058">
        <ele>143.4</ele>
        <time>2025-07-14T09:21:54Z</time>
      </trkpt>
      <trkpt lat="44.7828" lon="0.45055">
        <ele>143.6</ele>
        <time>2025-07-14T09:21:55Z</time>
      </trkpt>
      <trkpt lat="44.78281" lon="0.45051">
        <ele>143.8</ele>
        <time>2025-07-14T09:21:56Z</time>
      </trkpt>
      <trkpt lat="44.78282" lon="0.45048">
        <ele>144</ele>
        <time>2025-07-14T09:21:57Z</time>
      </trkpt>
      <trkpt lat="44.78283" lon="0.45045">
        <ele>144.2</ele>
        <time>2025-07-14T09:21:58Z</time>
      </trkpt>
      <trkpt lat="44.78284" lon="0.45042">
        <ele>144.4</ele>
        <time>2025-07-14T09:21:59Z</time>
      </trkpt>
      <trkpt lat="44.78285" lon="0.45039">
        <ele>144.6</ele>
        <time>2025-07-14T09:22:00Z</time>
      </trkpt>
      <trkpt lat="44.78286" lon="0.45036">
        <ele>144.6</ele>
        <time>2025-07-14T09:22:01Z</time>
      </trkpt>
      <trkpt lat="44.78287" lon="0.45033">
        <ele>144.8</ele>
        <time>2025-07-14T09:22:02Z</time>
      </trkpt>
      <trkpt lat="44.78288" lon="0.45029">
        <ele>145</ele>
        <time>2025-07-14T09:22:03Z</time>
      </trkpt>
      <trkpt lat="44.78289" lon="0.45026">
        <ele>145.2</ele>
        <time>2025-07-14T09:22:04Z</time>
      </trkpt>
      <trkpt lat="44.7829" lon="0.45023">
        <ele>145.4</ele>
        <time>2025-07-14T09:22:05Z</time>
      </trkpt>
      <trkpt lat="44.78291" lon="0.45019">
        <ele>145.6</ele>
        <time>2025-07-14T09:22:06Z</time>
      </trkpt>
      <trkpt lat="44.78291" lon="0.45016">
        <ele>145.8</ele>
        <time>2025-07-14T09:22:07Z</time>
      </trkpt>
      <trkpt lat="44.7829" lon="0.45013">
        <ele>146</ele>
        <time>2025-07-14T09:22:08Z</time>
      </trkpt>
      <trkpt lat="44.78287" lon="0.45011">
        <ele>146.2</ele>
        <time>2025-07-14T09:22:09Z</time>
      </trkpt>
      <trkpt lat="44.78284" lon="0.4501">
        <ele>146.4</ele>
        <time>2025-07-14T09:22:10Z</time>
      </trkpt>
      <trkpt lat="44.78282" lon="0.45007">
        <ele>146.6</ele>
        <time>2025-07-14T09:22:11Z</time>
      </trkpt>
      <trkpt lat="44.78282" lon="0.45004">
        <ele>146.8</ele>
        <time>2025-07-14T09:22:12Z</time>
      </trkpt>
      <trkpt lat="44.78282" lon="0.45001">
        <ele>147</ele>
        <time>2025-07-14T09:22:13Z</time>
      </trkpt>
      <trkpt lat="44.78283" lon="0.44997">
        <ele>147</ele>
        <time>2025-07-14T09:22:14Z</time>
      </trkpt>
      <trkpt lat="44.78284" lon="0.44994">
        <ele>147.2</ele>
        <time>2025-07-14T09:22:15Z</time>
      </trkpt>
      <trkpt lat="44.78285" lon="0.4499">
        <ele>147.2</ele>
        <time>2025-07-14T09:22:16Z</time>
      </trkpt>
      <trkpt lat="44.78286" lon="0.44987">
        <ele>147.4</ele>
        <time>2025-07-14T09:22:17Z</time>
      </trkpt>
      <trkpt lat="44.78288" lon="0.44983">
        <ele>147.4</ele>
        <time>2025-07-14T09:22:18Z</time>
      </trkpt>
      <trkpt lat="44.78289" lon="0.4498">
        <ele>147.6</ele>
        <time>2025-07-14T09:22:19Z</time>
      </trkpt>
      <trkpt lat="44.7829" lon="0.44977">
        <ele>147.8</ele>
        <time>2025-07-14T09:22:20Z</time>
      </trkpt>
      <trkpt lat="44.78291" lon="0.44973">
        <ele>148</ele>
        <time>2025-07-14T09:22:21Z</time>
      </trkpt>
      <trkpt lat="44.78292" lon="0.44969">
        <ele>148</ele>
        <time>2025-07-14T09:22:22Z</time>
      </trkpt>
      <trkpt lat="44.78293" lon="0.44966">
        <ele>148.2</ele>
        <time>2025-07-14T09:22:23Z</time>
      </trkpt>
      <trkpt lat="44.78294" lon="0.44962">
        <ele>148.4</ele>
        <time>2025-07-14T09:22:24Z</time>
      </trkpt>
      <trkpt lat="44.78296" lon="0.44958">
        <ele>148.4</ele>
        <time>2025-07-14T09:22:25Z</time>
      </trkpt>
      <trkpt lat="44.78297" lon="0.44954">
        <ele>148.6</ele>
        <time>2025-07-14T09:22:26Z</time>
      </trkpt>
      <trkpt lat="44.78298" lon="0.4495">
        <ele>148.8</ele>
        <time>2025-07-14T09:22:27Z</time>
      </trkpt>
      <trkpt lat="44.78299" lon="0.44945">
        <ele>148.8</ele>
        <time>2025-07-14T09:22:28Z</time>
      </trkpt>
      <trkpt lat="44.783" lon="0.44941">
        <ele>148.8</ele>
        <time>2025-07-14T09:22:29Z</time>
      </trkpt>
      <trkpt lat="44.78302" lon="0.44937">
        <ele>149</ele>
        <time>2025-07-14T09:22:30Z</time>
      </trkpt>
      <trkpt lat="44.78303" lon="0.44933">
        <ele>149</ele>
        <time>2025-07-14T09:22:31Z</time>
      </trkpt>
      <trkpt lat="44.78304" lon="0.44929">
        <ele>149</ele>
        <time>2025-07-14T09:22:32Z</time>
      </trkpt>
      <trkpt lat="44.78305" lon="0.44925">
        <ele>149.2</ele>
        <time>2025-07-14T09:22:33Z</time>
      </trkpt>
      <trkpt lat="44.78306" lon="0.44921">
        <ele>149.2</ele>
        <time>2025-07-14T09:22:34Z</time>
      </trkpt>
      <trkpt lat="44.78308" lon="0.44917">
        <ele>149.2</ele>
        <time>2025-07-14T09:22:35Z</time>
      </trkpt>
      <trkpt lat="44.78309" lon="0.44913">
        <ele>149.4</ele>
        <time>2025-07-14T09:22:36Z</time>
      </trkpt>
      <trkpt lat="44.7831" lon="0.44909">
        <ele>149.4</ele>
        <time>2025-07-14T09:22:37Z</time>
      </trkpt>
      <trkpt lat="44.78311" lon="0.44904">
        <ele>149.4</ele>
        <time>2025-07-14T09:22:38Z</time>
      </trkpt>
      <trkpt lat="44.78313" lon="0.449">
        <ele>149.4</ele>
        <time>2025-07-14T09:22:39Z</time>
      </trkpt>
      <trkpt lat="44.78315" lon="0.44895">
        <ele>149.4</ele>
        <time>2025-07-14T09:22:40Z</time>
      </trkpt>
      <trkpt lat="44.78316" lon="0.44891">
        <ele>149.6</ele>
        <time>2025-07-14T09:22:41Z</time>
      </trkpt>
      <trkpt lat="44.78317" lon="0.44886">
        <ele>149.6</ele>
        <time>2025-07-14T09:22:42Z</time>
      </trkpt>
      <trkpt lat="44.78319" lon="0.44881">
        <ele>149.6</ele>
        <time>2025-07-14T09:22:43Z</time>
      </trkpt>
      <trkpt lat="44.7832" lon="0.44877">
        <ele>149.6</ele>
        <time>2025-07-14T09:22:44Z</time>
      </trkpt>
      <trkpt lat="44.78322" lon="0.44872">
        <ele>149.6</ele>
        <time>2025-07-14T09:22:45Z</time>
      </trkpt>
      <trkpt lat="44.78323" lon="0.44867">
        <ele>149.6</ele>
        <time>2025-07-14T09:22:46Z</time>
      </trkpt>
      <trkpt lat="44.78325" lon="0.44862">
        <ele>149.6</ele>
        <time>2025-07-14T09:22:47Z</time>
      </trkpt>
      <trkpt lat="44.78326" lon="0.44858">
        <ele>149.8</ele>
        <time>2025-07-14T09:22:48Z</time>
      </trkpt>
      <trkpt lat="44.78328" lon="0.44853">
        <ele>149.6</ele>
        <time>2025-07-14T09:22:49Z</time>
      </trkpt>
      <trkpt lat="44.78329" lon="0.44848">
        <ele>149.8</ele>
        <time>2025-07-14T09:22:50Z</time>
      </trkpt>
      <trkpt lat="44.78331" lon="0.44844">
        <ele>149.8</ele>
        <time>2025-07-14T09:22:51Z</time>
      </trkpt>
      <trkpt lat="44.78332" lon="0.44839">
        <ele>150</ele>
        <time>2025-07-14T09:22:52Z</time>
      </trkpt>
      <trkpt lat="44.78334" lon="0.44834">
        <ele>150</ele>
        <time>2025-07-14T09:22:53Z</time>
      </trkpt>
      <trkpt lat="44.78336" lon="0.4483">
        <ele>150</ele>
        <time>2025-07-14T09:22:54Z</time>
      </trkpt>
      <trkpt lat="44.78336" lon="0.44825">
        <ele>150</ele>
        <time>2025-07-14T09:22:55Z</time>
      </trkpt>
      <trkpt lat="44.78335" lon="0.44822">
        <ele>150</ele>
        <time>2025-07-14T09:22:56Z</time>
      </trkpt>
      <trkpt lat="44.78334" lon="0.4482">
        <ele>150.2</ele>
        <time>2025-07-14T09:22:57Z</time>
      </trkpt>
      <trkpt lat="44.78334" lon="0.44818">
        <ele>150.2</ele>
        <time>2025-07-14T09:22:58Z</time>
      </trkpt>
      <trkpt lat="44.78334" lon="0.44816">
        <ele>150.2</ele>
        <time>2025-07-14T09:22:59Z</time>
      </trkpt>
      <trkpt lat="44.78334" lon="0.44814">
        <ele>150.2</ele>
        <time>2025-07-14T09:23:00Z</time>
      </trkpt>
      <trkpt lat="44.78334" lon="0.44813">
        <ele>150.2</ele>
        <time>2025-07-14T09:23:01Z</time>
      </trkpt>
      <trkpt lat="44.78334" lon="0.44811">
        <ele>150.2</ele>
        <time>2025-07-14T09:23:02Z</time>
      </trkpt>
      <trkpt lat="44.78334" lon="0.4481">
        <ele>150.2</ele>
        <time>2025-07-14T09:23:03Z</time>
      </trkpt>
      <trkpt lat="44.78334" lon="0.44809">
        <ele>150.2</ele>
        <time>2025-07-14T09:23:04Z</time>
      </trkpt>
      <trkpt lat="44.78334" lon="0.44809">
        <ele>150.2</ele>
        <time>2025-07-14T09:23:05Z</time>
      </trkpt>
      <trkpt lat="44.78334" lon="0.44809">
        <ele>149.8</ele>
        <time>2025-07-14T09:23:06Z</time>
      </trkpt>
    </trkseg>
  </trk>
</gpx>